<?xml version="1.0" encoding="UTF-8" standalone="no" ?>
<gpx xmlns="http://www.topografix.com/GPX/1/1" xmlns:xsi="http://www.w3.org/2001/XMLSchema-instance" xsi:schemaLocation="http://www.topografix.com/GPX/1/1 http://www.topografix.com/GPX/1/1/gpx.xsd" version="1.1" creator="VisuGPX - https://www.visugpx.com">
  <metadata>
    <name>Les balades du confinement</name>
  </metadata>
  <trk>
    <name><![CDATA[29 mars]]></name>
    <trkseg>
      <trkpt lat="43.55038" lon="1.47669">
        <ele>210.634</ele>
        <time>2020-03-29T13:08:24Z</time>
      </trkpt>
      <trkpt lat="43.55038" lon="1.47671">
        <ele>208.613</ele>
        <time>2020-03-29T13:08:29Z</time>
      </trkpt>
      <trkpt lat="43.55038" lon="1.4767">
        <ele>207.893</ele>
        <time>2020-03-29T13:08:35Z</time>
      </trkpt>
      <trkpt lat="43.55033" lon="1.47667">
        <ele>207.925</ele>
        <time>2020-03-29T13:08:41Z</time>
      </trkpt>
      <trkpt lat="43.55033" lon="1.47667">
        <ele>207.07</ele>
        <time>2020-03-29T13:08:47Z</time>
      </trkpt>
      <trkpt lat="43.55033" lon="1.47667">
        <ele>207.073</ele>
        <time>2020-03-29T13:08:52Z</time>
      </trkpt>
      <trkpt lat="43.55033" lon="1.47667">
        <ele>207.092</ele>
        <time>2020-03-29T13:08:58Z</time>
      </trkpt>
      <trkpt lat="43.55031" lon="1.47662">
        <ele>207.197</ele>
        <time>2020-03-29T13:09:04Z</time>
      </trkpt>
      <trkpt lat="43.55029" lon="1.47664">
        <ele>207.437</ele>
        <time>2020-03-29T13:09:09Z</time>
      </trkpt>
      <trkpt lat="43.55024" lon="1.47665">
        <ele>207.946</ele>
        <time>2020-03-29T13:09:15Z</time>
      </trkpt>
      <trkpt lat="43.55018" lon="1.47664">
        <ele>208.851</ele>
        <time>2020-03-29T13:09:21Z</time>
      </trkpt>
      <trkpt lat="43.55012" lon="1.47666">
        <ele>209.593</ele>
        <time>2020-03-29T13:09:26Z</time>
      </trkpt>
      <trkpt lat="43.55007" lon="1.47667">
        <ele>210.393</ele>
        <time>2020-03-29T13:09:32Z</time>
      </trkpt>
      <trkpt lat="43.55002" lon="1.47671">
        <ele>211.021</ele>
        <time>2020-03-29T13:09:37Z</time>
      </trkpt>
      <trkpt lat="43.54995" lon="1.47674">
        <ele>211.677</ele>
        <time>2020-03-29T13:09:43Z</time>
      </trkpt>
      <trkpt lat="43.5499" lon="1.47677">
        <ele>212.189</ele>
        <time>2020-03-29T13:09:48Z</time>
      </trkpt>
      <trkpt lat="43.54985" lon="1.4768">
        <ele>212.672</ele>
        <time>2020-03-29T13:09:54Z</time>
      </trkpt>
      <trkpt lat="43.54979" lon="1.47681">
        <ele>213.012</ele>
        <time>2020-03-29T13:10:00Z</time>
      </trkpt>
      <trkpt lat="43.54974" lon="1.47684">
        <ele>213.121</ele>
        <time>2020-03-29T13:10:05Z</time>
      </trkpt>
      <trkpt lat="43.54968" lon="1.47688">
        <ele>213.088</ele>
        <time>2020-03-29T13:10:11Z</time>
      </trkpt>
      <trkpt lat="43.54961" lon="1.47693">
        <ele>212.958</ele>
        <time>2020-03-29T13:10:17Z</time>
      </trkpt>
      <trkpt lat="43.54954" lon="1.47697">
        <ele>212.775</ele>
        <time>2020-03-29T13:10:23Z</time>
      </trkpt>
      <trkpt lat="43.54948" lon="1.47699">
        <ele>212.565</ele>
        <time>2020-03-29T13:10:29Z</time>
      </trkpt>
      <trkpt lat="43.54942" lon="1.47701">
        <ele>212.354</ele>
        <time>2020-03-29T13:10:35Z</time>
      </trkpt>
      <trkpt lat="43.54937" lon="1.47704">
        <ele>212.128</ele>
        <time>2020-03-29T13:10:41Z</time>
      </trkpt>
      <trkpt lat="43.54933" lon="1.47708">
        <ele>211.95</ele>
        <time>2020-03-29T13:10:47Z</time>
      </trkpt>
      <trkpt lat="43.54931" lon="1.47708">
        <ele>211.944</ele>
        <time>2020-03-29T13:10:52Z</time>
      </trkpt>
      <trkpt lat="43.54926" lon="1.47699">
        <ele>212.003</ele>
        <time>2020-03-29T13:10:58Z</time>
      </trkpt>
      <trkpt lat="43.54925" lon="1.47692">
        <ele>212.056</ele>
        <time>2020-03-29T13:11:03Z</time>
      </trkpt>
      <trkpt lat="43.54922" lon="1.47684">
        <ele>212.105</ele>
        <time>2020-03-29T13:11:08Z</time>
      </trkpt>
      <trkpt lat="43.54923" lon="1.47679">
        <ele>212.181</ele>
        <time>2020-03-29T13:11:14Z</time>
      </trkpt>
      <trkpt lat="43.54921" lon="1.47672">
        <ele>212.248</ele>
        <time>2020-03-29T13:11:20Z</time>
      </trkpt>
      <trkpt lat="43.54917" lon="1.47662">
        <ele>212.291</ele>
        <time>2020-03-29T13:11:26Z</time>
      </trkpt>
      <trkpt lat="43.54914" lon="1.47654">
        <ele>212.331</ele>
        <time>2020-03-29T13:11:31Z</time>
      </trkpt>
      <trkpt lat="43.54909" lon="1.47646">
        <ele>212.4</ele>
        <time>2020-03-29T13:11:37Z</time>
      </trkpt>
      <trkpt lat="43.54906" lon="1.47639">
        <ele>212.458</ele>
        <time>2020-03-29T13:11:42Z</time>
      </trkpt>
      <trkpt lat="43.54901" lon="1.47629">
        <ele>212.545</ele>
        <time>2020-03-29T13:11:48Z</time>
      </trkpt>
      <trkpt lat="43.54898" lon="1.47621">
        <ele>212.619</ele>
        <time>2020-03-29T13:11:54Z</time>
      </trkpt>
      <trkpt lat="43.54896" lon="1.47614">
        <ele>212.677</ele>
        <time>2020-03-29T13:12:00Z</time>
      </trkpt>
      <trkpt lat="43.54894" lon="1.47606">
        <ele>212.726</ele>
        <time>2020-03-29T13:12:05Z</time>
      </trkpt>
      <trkpt lat="43.54891" lon="1.47598">
        <ele>212.773</ele>
        <time>2020-03-29T13:12:10Z</time>
      </trkpt>
      <trkpt lat="43.54886" lon="1.4759">
        <ele>212.823</ele>
        <time>2020-03-29T13:12:16Z</time>
      </trkpt>
      <trkpt lat="43.54882" lon="1.47584">
        <ele>212.858</ele>
        <time>2020-03-29T13:12:22Z</time>
      </trkpt>
      <trkpt lat="43.54879" lon="1.47577">
        <ele>212.889</ele>
        <time>2020-03-29T13:12:27Z</time>
      </trkpt>
      <trkpt lat="43.54875" lon="1.4757">
        <ele>212.963</ele>
        <time>2020-03-29T13:12:33Z</time>
      </trkpt>
      <trkpt lat="43.54872" lon="1.47564">
        <ele>213.037</ele>
        <time>2020-03-29T13:12:38Z</time>
      </trkpt>
      <trkpt lat="43.54869" lon="1.47559">
        <ele>213.146</ele>
        <time>2020-03-29T13:12:44Z</time>
      </trkpt>
      <trkpt lat="43.54863" lon="1.47552">
        <ele>213.276</ele>
        <time>2020-03-29T13:12:50Z</time>
      </trkpt>
      <trkpt lat="43.54858" lon="1.47544">
        <ele>213.423</ele>
        <time>2020-03-29T13:12:56Z</time>
      </trkpt>
      <trkpt lat="43.54855" lon="1.47537">
        <ele>213.586</ele>
        <time>2020-03-29T13:13:02Z</time>
      </trkpt>
      <trkpt lat="43.54852" lon="1.47531">
        <ele>213.743</ele>
        <time>2020-03-29T13:13:08Z</time>
      </trkpt>
      <trkpt lat="43.54847" lon="1.47525">
        <ele>213.884</ele>
        <time>2020-03-29T13:13:14Z</time>
      </trkpt>
      <trkpt lat="43.54843" lon="1.4752">
        <ele>213.999</ele>
        <time>2020-03-29T13:13:19Z</time>
      </trkpt>
      <trkpt lat="43.54836" lon="1.47509">
        <ele>214.131</ele>
        <time>2020-03-29T13:13:25Z</time>
      </trkpt>
      <trkpt lat="43.54834" lon="1.47506">
        <ele>214.234</ele>
        <time>2020-03-29T13:13:30Z</time>
      </trkpt>
      <trkpt lat="43.5483" lon="1.475">
        <ele>214.358</ele>
        <time>2020-03-29T13:13:36Z</time>
      </trkpt>
      <trkpt lat="43.54826" lon="1.47495">
        <ele>214.474</ele>
        <time>2020-03-29T13:13:41Z</time>
      </trkpt>
      <trkpt lat="43.54822" lon="1.47492">
        <ele>214.639</ele>
        <time>2020-03-29T13:13:47Z</time>
      </trkpt>
      <trkpt lat="43.54815" lon="1.47484">
        <ele>214.81</ele>
        <time>2020-03-29T13:13:53Z</time>
      </trkpt>
      <trkpt lat="43.54808" lon="1.47478">
        <ele>214.949</ele>
        <time>2020-03-29T13:13:58Z</time>
      </trkpt>
      <trkpt lat="43.54804" lon="1.47472">
        <ele>215.108</ele>
        <time>2020-03-29T13:14:04Z</time>
      </trkpt>
      <trkpt lat="43.548" lon="1.47465">
        <ele>215.24</ele>
        <time>2020-03-29T13:14:09Z</time>
      </trkpt>
      <trkpt lat="43.54798" lon="1.4746">
        <ele>215.374</ele>
        <time>2020-03-29T13:14:14Z</time>
      </trkpt>
      <trkpt lat="43.54792" lon="1.47452">
        <ele>215.527</ele>
        <time>2020-03-29T13:14:20Z</time>
      </trkpt>
      <trkpt lat="43.54785" lon="1.47445">
        <ele>215.663</ele>
        <time>2020-03-29T13:14:26Z</time>
      </trkpt>
      <trkpt lat="43.5478" lon="1.47441">
        <ele>215.78</ele>
        <time>2020-03-29T13:14:32Z</time>
      </trkpt>
      <trkpt lat="43.54778" lon="1.47439">
        <ele>215.854</ele>
        <time>2020-03-29T13:14:37Z</time>
      </trkpt>
      <trkpt lat="43.54771" lon="1.4743">
        <ele>215.946</ele>
        <time>2020-03-29T13:14:43Z</time>
      </trkpt>
      <trkpt lat="43.54765" lon="1.47424">
        <ele>216.03</ele>
        <time>2020-03-29T13:14:49Z</time>
      </trkpt>
      <trkpt lat="43.54761" lon="1.47421">
        <ele>216.116</ele>
        <time>2020-03-29T13:14:55Z</time>
      </trkpt>
      <trkpt lat="43.54755" lon="1.47414">
        <ele>216.191</ele>
        <time>2020-03-29T13:15:00Z</time>
      </trkpt>
      <trkpt lat="43.54748" lon="1.4741">
        <ele>216.278</ele>
        <time>2020-03-29T13:15:06Z</time>
      </trkpt>
      <trkpt lat="43.54743" lon="1.47406">
        <ele>216.37</ele>
        <time>2020-03-29T13:15:12Z</time>
      </trkpt>
      <trkpt lat="43.54738" lon="1.47403">
        <ele>216.444</ele>
        <time>2020-03-29T13:15:17Z</time>
      </trkpt>
      <trkpt lat="43.54732" lon="1.47399">
        <ele>216.537</ele>
        <time>2020-03-29T13:15:23Z</time>
      </trkpt>
      <trkpt lat="43.54727" lon="1.47396">
        <ele>216.65</ele>
        <time>2020-03-29T13:15:29Z</time>
      </trkpt>
      <trkpt lat="43.54721" lon="1.47392">
        <ele>216.781</ele>
        <time>2020-03-29T13:15:35Z</time>
      </trkpt>
      <trkpt lat="43.54715" lon="1.47378">
        <ele>216.931</ele>
        <time>2020-03-29T13:15:41Z</time>
      </trkpt>
      <trkpt lat="43.54713" lon="1.47372">
        <ele>217.05</ele>
        <time>2020-03-29T13:15:46Z</time>
      </trkpt>
      <trkpt lat="43.54707" lon="1.47368">
        <ele>217.157</ele>
        <time>2020-03-29T13:15:52Z</time>
      </trkpt>
      <trkpt lat="43.54702" lon="1.4737">
        <ele>217.232</ele>
        <time>2020-03-29T13:15:57Z</time>
      </trkpt>
      <trkpt lat="43.54695" lon="1.47363">
        <ele>217.325</ele>
        <time>2020-03-29T13:16:03Z</time>
      </trkpt>
      <trkpt lat="43.54693" lon="1.47367">
        <ele>217.404</ele>
        <time>2020-03-29T13:16:08Z</time>
      </trkpt>
      <trkpt lat="43.54686" lon="1.47358">
        <ele>217.493</ele>
        <time>2020-03-29T13:16:14Z</time>
      </trkpt>
      <trkpt lat="43.5468" lon="1.47352">
        <ele>217.576</ele>
        <time>2020-03-29T13:16:19Z</time>
      </trkpt>
      <trkpt lat="43.54675" lon="1.47348">
        <ele>217.711</ele>
        <time>2020-03-29T13:16:25Z</time>
      </trkpt>
      <trkpt lat="43.54673" lon="1.47345">
        <ele>217.857</ele>
        <time>2020-03-29T13:16:31Z</time>
      </trkpt>
      <trkpt lat="43.54673" lon="1.47337">
        <ele>218.024</ele>
        <time>2020-03-29T13:16:36Z</time>
      </trkpt>
      <trkpt lat="43.54671" lon="1.47331">
        <ele>218.23</ele>
        <time>2020-03-29T13:16:42Z</time>
      </trkpt>
      <trkpt lat="43.54666" lon="1.47326">
        <ele>218.4</ele>
        <time>2020-03-29T13:16:47Z</time>
      </trkpt>
      <trkpt lat="43.54664" lon="1.47322">
        <ele>218.597</ele>
        <time>2020-03-29T13:16:53Z</time>
      </trkpt>
      <trkpt lat="43.5466" lon="1.47317">
        <ele>218.771</ele>
        <time>2020-03-29T13:16:59Z</time>
      </trkpt>
      <trkpt lat="43.54656" lon="1.47318">
        <ele>218.915</ele>
        <time>2020-03-29T13:17:04Z</time>
      </trkpt>
      <trkpt lat="43.54648" lon="1.47313">
        <ele>219.078</ele>
        <time>2020-03-29T13:17:10Z</time>
      </trkpt>
      <trkpt lat="43.54648" lon="1.4731">
        <ele>219.226</ele>
        <time>2020-03-29T13:17:16Z</time>
      </trkpt>
      <trkpt lat="43.54651" lon="1.47304">
        <ele>219.324</ele>
        <time>2020-03-29T13:17:21Z</time>
      </trkpt>
      <trkpt lat="43.54645" lon="1.47295">
        <ele>219.431</ele>
        <time>2020-03-29T13:17:27Z</time>
      </trkpt>
      <trkpt lat="43.5464" lon="1.47287">
        <ele>219.522</ele>
        <time>2020-03-29T13:17:33Z</time>
      </trkpt>
      <trkpt lat="43.54636" lon="1.4728">
        <ele>219.61</ele>
        <time>2020-03-29T13:17:39Z</time>
      </trkpt>
      <trkpt lat="43.54632" lon="1.47275">
        <ele>219.703</ele>
        <time>2020-03-29T13:17:45Z</time>
      </trkpt>
      <trkpt lat="43.54629" lon="1.47272">
        <ele>219.773</ele>
        <time>2020-03-29T13:17:50Z</time>
      </trkpt>
      <trkpt lat="43.54628" lon="1.47268">
        <ele>219.85</ele>
        <time>2020-03-29T13:17:56Z</time>
      </trkpt>
      <trkpt lat="43.54626" lon="1.47266">
        <ele>219.898</ele>
        <time>2020-03-29T13:18:01Z</time>
      </trkpt>
      <trkpt lat="43.54628" lon="1.47261">
        <ele>219.976</ele>
        <time>2020-03-29T13:18:07Z</time>
      </trkpt>
      <trkpt lat="43.54627" lon="1.47253">
        <ele>220.039</ele>
        <time>2020-03-29T13:18:12Z</time>
      </trkpt>
      <trkpt lat="43.5463" lon="1.47245">
        <ele>220.117</ele>
        <time>2020-03-29T13:18:18Z</time>
      </trkpt>
      <trkpt lat="43.54629" lon="1.4724">
        <ele>220.204</ele>
        <time>2020-03-29T13:18:23Z</time>
      </trkpt>
      <trkpt lat="43.54629" lon="1.47237">
        <ele>220.298</ele>
        <time>2020-03-29T13:18:28Z</time>
      </trkpt>
      <trkpt lat="43.54628" lon="1.47226">
        <ele>220.392</ele>
        <time>2020-03-29T13:18:33Z</time>
      </trkpt>
      <trkpt lat="43.54625" lon="1.4722">
        <ele>220.489</ele>
        <time>2020-03-29T13:18:38Z</time>
      </trkpt>
      <trkpt lat="43.54623" lon="1.47218">
        <ele>220.586</ele>
        <time>2020-03-29T13:18:44Z</time>
      </trkpt>
      <trkpt lat="43.54621" lon="1.47216">
        <ele>220.686</ele>
        <time>2020-03-29T13:18:50Z</time>
      </trkpt>
      <trkpt lat="43.5462" lon="1.47212">
        <ele>220.787</ele>
        <time>2020-03-29T13:18:56Z</time>
      </trkpt>
      <trkpt lat="43.5462" lon="1.47211">
        <ele>220.864</ele>
        <time>2020-03-29T13:19:01Z</time>
      </trkpt>
      <trkpt lat="43.54619" lon="1.47209">
        <ele>220.89</ele>
        <time>2020-03-29T13:19:07Z</time>
      </trkpt>
      <trkpt lat="43.54619" lon="1.47205">
        <ele>220.964</ele>
        <time>2020-03-29T13:19:12Z</time>
      </trkpt>
      <trkpt lat="43.54616" lon="1.47195">
        <ele>221.052</ele>
        <time>2020-03-29T13:19:17Z</time>
      </trkpt>
      <trkpt lat="43.54614" lon="1.47187">
        <ele>221.142</ele>
        <time>2020-03-29T13:19:23Z</time>
      </trkpt>
      <trkpt lat="43.54613" lon="1.47184">
        <ele>221.215</ele>
        <time>2020-03-29T13:19:29Z</time>
      </trkpt>
      <trkpt lat="43.54613" lon="1.47181">
        <ele>221.298</ele>
        <time>2020-03-29T13:19:34Z</time>
      </trkpt>
      <trkpt lat="43.5461" lon="1.47179">
        <ele>221.391</ele>
        <time>2020-03-29T13:19:40Z</time>
      </trkpt>
      <trkpt lat="43.5461" lon="1.47177">
        <ele>221.454</ele>
        <time>2020-03-29T13:19:45Z</time>
      </trkpt>
      <trkpt lat="43.54601" lon="1.47169">
        <ele>221.522</ele>
        <time>2020-03-29T13:19:51Z</time>
      </trkpt>
      <trkpt lat="43.54598" lon="1.47164">
        <ele>221.6</ele>
        <time>2020-03-29T13:19:57Z</time>
      </trkpt>
      <trkpt lat="43.54593" lon="1.47157">
        <ele>221.663</ele>
        <time>2020-03-29T13:20:02Z</time>
      </trkpt>
      <trkpt lat="43.54587" lon="1.47155">
        <ele>221.735</ele>
        <time>2020-03-29T13:20:08Z</time>
      </trkpt>
      <trkpt lat="43.54585" lon="1.47153">
        <ele>221.807</ele>
        <time>2020-03-29T13:20:14Z</time>
      </trkpt>
      <trkpt lat="43.54584" lon="1.47149">
        <ele>221.888</ele>
        <time>2020-03-29T13:20:20Z</time>
      </trkpt>
      <trkpt lat="43.54581" lon="1.47147">
        <ele>221.976</ele>
        <time>2020-03-29T13:20:26Z</time>
      </trkpt>
      <trkpt lat="43.54578" lon="1.47144">
        <ele>222.054</ele>
        <time>2020-03-29T13:20:31Z</time>
      </trkpt>
      <trkpt lat="43.54576" lon="1.47137">
        <ele>222.161</ele>
        <time>2020-03-29T13:20:37Z</time>
      </trkpt>
      <trkpt lat="43.54576" lon="1.47127">
        <ele>222.293</ele>
        <time>2020-03-29T13:20:43Z</time>
      </trkpt>
      <trkpt lat="43.54574" lon="1.47122">
        <ele>222.406</ele>
        <time>2020-03-29T13:20:49Z</time>
      </trkpt>
      <trkpt lat="43.54573" lon="1.4712">
        <ele>222.5</ele>
        <time>2020-03-29T13:20:54Z</time>
      </trkpt>
      <trkpt lat="43.54571" lon="1.47118">
        <ele>222.621</ele>
        <time>2020-03-29T13:21:00Z</time>
      </trkpt>
      <trkpt lat="43.5457" lon="1.47114">
        <ele>222.724</ele>
        <time>2020-03-29T13:21:06Z</time>
      </trkpt>
      <trkpt lat="43.54567" lon="1.47113">
        <ele>222.852</ele>
        <time>2020-03-29T13:21:12Z</time>
      </trkpt>
      <trkpt lat="43.54565" lon="1.47108">
        <ele>223.002</ele>
        <time>2020-03-29T13:21:18Z</time>
      </trkpt>
      <trkpt lat="43.54564" lon="1.47105">
        <ele>223.125</ele>
        <time>2020-03-29T13:21:23Z</time>
      </trkpt>
      <trkpt lat="43.54557" lon="1.47099">
        <ele>223.278</ele>
        <time>2020-03-29T13:21:29Z</time>
      </trkpt>
      <trkpt lat="43.54556" lon="1.47091">
        <ele>223.413</ele>
        <time>2020-03-29T13:21:34Z</time>
      </trkpt>
      <trkpt lat="43.54555" lon="1.47088">
        <ele>223.525</ele>
        <time>2020-03-29T13:21:39Z</time>
      </trkpt>
      <trkpt lat="43.54554" lon="1.47081">
        <ele>223.702</ele>
        <time>2020-03-29T13:21:45Z</time>
      </trkpt>
      <trkpt lat="43.5455" lon="1.47078">
        <ele>223.782</ele>
        <time>2020-03-29T13:21:51Z</time>
      </trkpt>
      <trkpt lat="43.54548" lon="1.47077">
        <ele>223.912</ele>
        <time>2020-03-29T13:21:56Z</time>
      </trkpt>
      <trkpt lat="43.54544" lon="1.47074">
        <ele>224.155</ele>
        <time>2020-03-29T13:22:02Z</time>
      </trkpt>
      <trkpt lat="43.54542" lon="1.47073">
        <ele>224.388</ele>
        <time>2020-03-29T13:22:08Z</time>
      </trkpt>
      <trkpt lat="43.54539" lon="1.47068">
        <ele>224.619</ele>
        <time>2020-03-29T13:22:14Z</time>
      </trkpt>
      <trkpt lat="43.5454" lon="1.47063">
        <ele>224.81</ele>
        <time>2020-03-29T13:22:19Z</time>
      </trkpt>
      <trkpt lat="43.54541" lon="1.47057">
        <ele>224.935</ele>
        <time>2020-03-29T13:22:24Z</time>
      </trkpt>
      <trkpt lat="43.5454" lon="1.47053">
        <ele>225.083</ele>
        <time>2020-03-29T13:22:30Z</time>
      </trkpt>
      <trkpt lat="43.5454" lon="1.47047">
        <ele>225.318</ele>
        <time>2020-03-29T13:22:35Z</time>
      </trkpt>
      <trkpt lat="43.54539" lon="1.47041">
        <ele>225.515</ele>
        <time>2020-03-29T13:22:40Z</time>
      </trkpt>
      <trkpt lat="43.54538" lon="1.47038">
        <ele>225.681</ele>
        <time>2020-03-29T13:22:46Z</time>
      </trkpt>
      <trkpt lat="43.54537" lon="1.47037">
        <ele>225.709</ele>
        <time>2020-03-29T13:22:51Z</time>
      </trkpt>
      <trkpt lat="43.54536" lon="1.47036">
        <ele>226.024</ele>
        <time>2020-03-29T13:22:57Z</time>
      </trkpt>
      <trkpt lat="43.54534" lon="1.47034">
        <ele>226.23</ele>
        <time>2020-03-29T13:23:02Z</time>
      </trkpt>
      <trkpt lat="43.54532" lon="1.47029">
        <ele>226.566</ele>
        <time>2020-03-29T13:23:07Z</time>
      </trkpt>
      <trkpt lat="43.54527" lon="1.47026">
        <ele>226.905</ele>
        <time>2020-03-29T13:23:13Z</time>
      </trkpt>
      <trkpt lat="43.54523" lon="1.47018">
        <ele>227.309</ele>
        <time>2020-03-29T13:23:19Z</time>
      </trkpt>
      <trkpt lat="43.54519" lon="1.47014">
        <ele>227.617</ele>
        <time>2020-03-29T13:23:24Z</time>
      </trkpt>
      <trkpt lat="43.54514" lon="1.47005">
        <ele>228.121</ele>
        <time>2020-03-29T13:23:30Z</time>
      </trkpt>
      <trkpt lat="43.54508" lon="1.46992">
        <ele>228.662</ele>
        <time>2020-03-29T13:23:36Z</time>
      </trkpt>
      <trkpt lat="43.54505" lon="1.46988">
        <ele>229.146</ele>
        <time>2020-03-29T13:23:41Z</time>
      </trkpt>
      <trkpt lat="43.54502" lon="1.4698">
        <ele>229.76</ele>
        <time>2020-03-29T13:23:47Z</time>
      </trkpt>
      <trkpt lat="43.54498" lon="1.4697">
        <ele>230.4</ele>
        <time>2020-03-29T13:23:53Z</time>
      </trkpt>
      <trkpt lat="43.54496" lon="1.46963">
        <ele>230.919</ele>
        <time>2020-03-29T13:23:58Z</time>
      </trkpt>
      <trkpt lat="43.54492" lon="1.46959">
        <ele>231.554</ele>
        <time>2020-03-29T13:24:04Z</time>
      </trkpt>
      <trkpt lat="43.54491" lon="1.46958">
        <ele>231.925</ele>
        <time>2020-03-29T13:24:10Z</time>
      </trkpt>
      <trkpt lat="43.54485" lon="1.46953">
        <ele>232.493</ele>
        <time>2020-03-29T13:24:15Z</time>
      </trkpt>
      <trkpt lat="43.54482" lon="1.46953">
        <ele>233.065</ele>
        <time>2020-03-29T13:24:21Z</time>
      </trkpt>
      <trkpt lat="43.5448" lon="1.46948">
        <ele>233.736</ele>
        <time>2020-03-29T13:24:27Z</time>
      </trkpt>
      <trkpt lat="43.54478" lon="1.46941">
        <ele>234.393</ele>
        <time>2020-03-29T13:24:33Z</time>
      </trkpt>
      <trkpt lat="43.54476" lon="1.46934">
        <ele>235.03</ele>
        <time>2020-03-29T13:24:39Z</time>
      </trkpt>
      <trkpt lat="43.54472" lon="1.4693">
        <ele>235.624</ele>
        <time>2020-03-29T13:24:45Z</time>
      </trkpt>
      <trkpt lat="43.54469" lon="1.46922">
        <ele>236.184</ele>
        <time>2020-03-29T13:24:51Z</time>
      </trkpt>
      <trkpt lat="43.54465" lon="1.46913">
        <ele>236.729</ele>
        <time>2020-03-29T13:24:57Z</time>
      </trkpt>
      <trkpt lat="43.54462" lon="1.46908">
        <ele>237.261</ele>
        <time>2020-03-29T13:25:03Z</time>
      </trkpt>
      <trkpt lat="43.54459" lon="1.469">
        <ele>237.686</ele>
        <time>2020-03-29T13:25:08Z</time>
      </trkpt>
      <trkpt lat="43.54454" lon="1.4689">
        <ele>238.184</ele>
        <time>2020-03-29T13:25:14Z</time>
      </trkpt>
      <trkpt lat="43.54451" lon="1.46886">
        <ele>238.459</ele>
        <time>2020-03-29T13:25:19Z</time>
      </trkpt>
      <trkpt lat="43.54447" lon="1.46877">
        <ele>238.855</ele>
        <time>2020-03-29T13:25:24Z</time>
      </trkpt>
      <trkpt lat="43.54445" lon="1.46871">
        <ele>239.438</ele>
        <time>2020-03-29T13:25:30Z</time>
      </trkpt>
      <trkpt lat="43.54443" lon="1.46862">
        <ele>239.914</ele>
        <time>2020-03-29T13:25:35Z</time>
      </trkpt>
      <trkpt lat="43.54441" lon="1.46853">
        <ele>240.463</ele>
        <time>2020-03-29T13:25:41Z</time>
      </trkpt>
      <trkpt lat="43.54438" lon="1.46854">
        <ele>240.977</ele>
        <time>2020-03-29T13:25:47Z</time>
      </trkpt>
      <trkpt lat="43.54437" lon="1.46852">
        <ele>241.363</ele>
        <time>2020-03-29T13:25:52Z</time>
      </trkpt>
      <trkpt lat="43.54439" lon="1.46849">
        <ele>241.729</ele>
        <time>2020-03-29T13:25:58Z</time>
      </trkpt>
      <trkpt lat="43.54443" lon="1.46842">
        <ele>242.156</ele>
        <time>2020-03-29T13:26:04Z</time>
      </trkpt>
      <trkpt lat="43.54448" lon="1.46837">
        <ele>242.5</ele>
        <time>2020-03-29T13:26:09Z</time>
      </trkpt>
      <trkpt lat="43.54452" lon="1.46833">
        <ele>242.836</ele>
        <time>2020-03-29T13:26:14Z</time>
      </trkpt>
      <trkpt lat="43.54455" lon="1.46826">
        <ele>243.239</ele>
        <time>2020-03-29T13:26:20Z</time>
      </trkpt>
      <trkpt lat="43.54459" lon="1.46821">
        <ele>243.568</ele>
        <time>2020-03-29T13:26:25Z</time>
      </trkpt>
      <trkpt lat="43.54464" lon="1.46818">
        <ele>243.887</ele>
        <time>2020-03-29T13:26:30Z</time>
      </trkpt>
      <trkpt lat="43.54468" lon="1.46813">
        <ele>244.209</ele>
        <time>2020-03-29T13:26:35Z</time>
      </trkpt>
      <trkpt lat="43.54472" lon="1.46809">
        <ele>244.603</ele>
        <time>2020-03-29T13:26:41Z</time>
      </trkpt>
      <trkpt lat="43.54477" lon="1.46805">
        <ele>244.995</ele>
        <time>2020-03-29T13:26:47Z</time>
      </trkpt>
      <trkpt lat="43.54481" lon="1.468">
        <ele>245.406</ele>
        <time>2020-03-29T13:26:53Z</time>
      </trkpt>
      <trkpt lat="43.54484" lon="1.46798">
        <ele>245.781</ele>
        <time>2020-03-29T13:26:58Z</time>
      </trkpt>
      <trkpt lat="43.54488" lon="1.46796">
        <ele>246.321</ele>
        <time>2020-03-29T13:27:04Z</time>
      </trkpt>
      <trkpt lat="43.54491" lon="1.46793">
        <ele>246.841</ele>
        <time>2020-03-29T13:27:09Z</time>
      </trkpt>
      <trkpt lat="43.54495" lon="1.46789">
        <ele>247.502</ele>
        <time>2020-03-29T13:27:15Z</time>
      </trkpt>
      <trkpt lat="43.545" lon="1.46786">
        <ele>248.054</ele>
        <time>2020-03-29T13:27:20Z</time>
      </trkpt>
      <trkpt lat="43.54503" lon="1.46784">
        <ele>248.499</ele>
        <time>2020-03-29T13:27:25Z</time>
      </trkpt>
      <trkpt lat="43.54505" lon="1.46783">
        <ele>248.764</ele>
        <time>2020-03-29T13:27:31Z</time>
      </trkpt>
      <trkpt lat="43.54509" lon="1.46775">
        <ele>249.208</ele>
        <time>2020-03-29T13:27:36Z</time>
      </trkpt>
      <trkpt lat="43.54514" lon="1.46771">
        <ele>249.839</ele>
        <time>2020-03-29T13:27:42Z</time>
      </trkpt>
      <trkpt lat="43.54519" lon="1.46768">
        <ele>250.338</ele>
        <time>2020-03-29T13:27:47Z</time>
      </trkpt>
      <trkpt lat="43.54528" lon="1.46766">
        <ele>250.91</ele>
        <time>2020-03-29T13:27:53Z</time>
      </trkpt>
      <trkpt lat="43.54531" lon="1.46754">
        <ele>251.489</ele>
        <time>2020-03-29T13:27:59Z</time>
      </trkpt>
      <trkpt lat="43.54535" lon="1.46748">
        <ele>251.972</ele>
        <time>2020-03-29T13:28:04Z</time>
      </trkpt>
      <trkpt lat="43.54543" lon="1.46746">
        <ele>252.564</ele>
        <time>2020-03-29T13:28:10Z</time>
      </trkpt>
      <trkpt lat="43.5455" lon="1.46749">
        <ele>253.094</ele>
        <time>2020-03-29T13:28:15Z</time>
      </trkpt>
      <trkpt lat="43.54559" lon="1.46753">
        <ele>253.743</ele>
        <time>2020-03-29T13:28:21Z</time>
      </trkpt>
      <trkpt lat="43.54565" lon="1.46752">
        <ele>254.262</ele>
        <time>2020-03-29T13:28:26Z</time>
      </trkpt>
      <trkpt lat="43.54569" lon="1.46749">
        <ele>254.736</ele>
        <time>2020-03-29T13:28:31Z</time>
      </trkpt>
      <trkpt lat="43.54574" lon="1.46745">
        <ele>255.17</ele>
        <time>2020-03-29T13:28:36Z</time>
      </trkpt>
      <trkpt lat="43.54581" lon="1.46742">
        <ele>255.648</ele>
        <time>2020-03-29T13:28:42Z</time>
      </trkpt>
      <trkpt lat="43.54587" lon="1.4674">
        <ele>256.009</ele>
        <time>2020-03-29T13:28:47Z</time>
      </trkpt>
      <trkpt lat="43.54593" lon="1.46738">
        <ele>256.402</ele>
        <time>2020-03-29T13:28:53Z</time>
      </trkpt>
      <trkpt lat="43.54599" lon="1.46732">
        <ele>256.77</ele>
        <time>2020-03-29T13:28:59Z</time>
      </trkpt>
      <trkpt lat="43.54606" lon="1.46727">
        <ele>257.149</ele>
        <time>2020-03-29T13:29:05Z</time>
      </trkpt>
      <trkpt lat="43.54607" lon="1.46726">
        <ele>257.45</ele>
        <time>2020-03-29T13:29:10Z</time>
      </trkpt>
      <trkpt lat="43.54609" lon="1.4673">
        <ele>257.736</ele>
        <time>2020-03-29T13:29:15Z</time>
      </trkpt>
      <trkpt lat="43.5461" lon="1.46735">
        <ele>258.057</ele>
        <time>2020-03-29T13:29:21Z</time>
      </trkpt>
      <trkpt lat="43.54611" lon="1.46741">
        <ele>258.309</ele>
        <time>2020-03-29T13:29:26Z</time>
      </trkpt>
      <trkpt lat="43.54613" lon="1.46749">
        <ele>258.602</ele>
        <time>2020-03-29T13:29:32Z</time>
      </trkpt>
      <trkpt lat="43.54615" lon="1.46757">
        <ele>258.858</ele>
        <time>2020-03-29T13:29:37Z</time>
      </trkpt>
      <trkpt lat="43.54617" lon="1.46764">
        <ele>259.115</ele>
        <time>2020-03-29T13:29:42Z</time>
      </trkpt>
      <trkpt lat="43.54619" lon="1.4677">
        <ele>259.423</ele>
        <time>2020-03-29T13:29:48Z</time>
      </trkpt>
      <trkpt lat="43.54621" lon="1.46779">
        <ele>259.676</ele>
        <time>2020-03-29T13:29:53Z</time>
      </trkpt>
      <trkpt lat="43.54624" lon="1.4679">
        <ele>259.974</ele>
        <time>2020-03-29T13:29:59Z</time>
      </trkpt>
      <trkpt lat="43.54627" lon="1.46797">
        <ele>260.256</ele>
        <time>2020-03-29T13:30:05Z</time>
      </trkpt>
      <trkpt lat="43.54629" lon="1.46804">
        <ele>260.481</ele>
        <time>2020-03-29T13:30:10Z</time>
      </trkpt>
      <trkpt lat="43.54632" lon="1.46811">
        <ele>260.697</ele>
        <time>2020-03-29T13:30:15Z</time>
      </trkpt>
      <trkpt lat="43.54637" lon="1.46815">
        <ele>260.902</ele>
        <time>2020-03-29T13:30:20Z</time>
      </trkpt>
      <trkpt lat="43.54641" lon="1.46817">
        <ele>261.134</ele>
        <time>2020-03-29T13:30:26Z</time>
      </trkpt>
      <trkpt lat="43.54647" lon="1.46819">
        <ele>261.351</ele>
        <time>2020-03-29T13:30:32Z</time>
      </trkpt>
      <trkpt lat="43.54652" lon="1.46818">
        <ele>261.515</ele>
        <time>2020-03-29T13:30:37Z</time>
      </trkpt>
      <trkpt lat="43.54659" lon="1.46815">
        <ele>261.71</ele>
        <time>2020-03-29T13:30:43Z</time>
      </trkpt>
      <trkpt lat="43.54665" lon="1.46809">
        <ele>261.918</ele>
        <time>2020-03-29T13:30:49Z</time>
      </trkpt>
      <trkpt lat="43.54671" lon="1.46805">
        <ele>262.15</ele>
        <time>2020-03-29T13:30:55Z</time>
      </trkpt>
      <trkpt lat="43.54675" lon="1.468">
        <ele>262.365</ele>
        <time>2020-03-29T13:31:00Z</time>
      </trkpt>
      <trkpt lat="43.5468" lon="1.46793">
        <ele>262.658</ele>
        <time>2020-03-29T13:31:06Z</time>
      </trkpt>
      <trkpt lat="43.54683" lon="1.46789">
        <ele>262.875</ele>
        <time>2020-03-29T13:31:11Z</time>
      </trkpt>
      <trkpt lat="43.54687" lon="1.46784">
        <ele>263.15</ele>
        <time>2020-03-29T13:31:16Z</time>
      </trkpt>
      <trkpt lat="43.54692" lon="1.46778">
        <ele>263.49</ele>
        <time>2020-03-29T13:31:22Z</time>
      </trkpt>
      <trkpt lat="43.54695" lon="1.46772">
        <ele>263.809</ele>
        <time>2020-03-29T13:31:28Z</time>
      </trkpt>
      <trkpt lat="43.547" lon="1.46767">
        <ele>264.114</ele>
        <time>2020-03-29T13:31:34Z</time>
      </trkpt>
      <trkpt lat="43.54706" lon="1.46762">
        <ele>264.361</ele>
        <time>2020-03-29T13:31:39Z</time>
      </trkpt>
      <trkpt lat="43.54711" lon="1.46759">
        <ele>264.646</ele>
        <time>2020-03-29T13:31:45Z</time>
      </trkpt>
      <trkpt lat="43.54716" lon="1.46755">
        <ele>264.872</ele>
        <time>2020-03-29T13:31:50Z</time>
      </trkpt>
      <trkpt lat="43.54722" lon="1.46752">
        <ele>265.088</ele>
        <time>2020-03-29T13:31:55Z</time>
      </trkpt>
      <trkpt lat="43.54727" lon="1.46748">
        <ele>265.289</ele>
        <time>2020-03-29T13:32:00Z</time>
      </trkpt>
      <trkpt lat="43.54731" lon="1.46743">
        <ele>265.508</ele>
        <time>2020-03-29T13:32:06Z</time>
      </trkpt>
      <trkpt lat="43.54736" lon="1.46739">
        <ele>265.718</ele>
        <time>2020-03-29T13:32:12Z</time>
      </trkpt>
      <trkpt lat="43.5474" lon="1.46735">
        <ele>265.885</ele>
        <time>2020-03-29T13:32:17Z</time>
      </trkpt>
      <trkpt lat="43.54743" lon="1.46731">
        <ele>266.044</ele>
        <time>2020-03-29T13:32:22Z</time>
      </trkpt>
      <trkpt lat="43.54747" lon="1.46722">
        <ele>266.222</ele>
        <time>2020-03-29T13:32:28Z</time>
      </trkpt>
      <trkpt lat="43.54751" lon="1.46716">
        <ele>266.383</ele>
        <time>2020-03-29T13:32:34Z</time>
      </trkpt>
      <trkpt lat="43.54754" lon="1.46712">
        <ele>266.486</ele>
        <time>2020-03-29T13:32:39Z</time>
      </trkpt>
      <trkpt lat="43.54756" lon="1.46712">
        <ele>266.619</ele>
        <time>2020-03-29T13:32:45Z</time>
      </trkpt>
      <trkpt lat="43.54763" lon="1.46712">
        <ele>266.708</ele>
        <time>2020-03-29T13:32:50Z</time>
      </trkpt>
      <trkpt lat="43.54765" lon="1.46709">
        <ele>266.797</ele>
        <time>2020-03-29T13:32:56Z</time>
      </trkpt>
      <trkpt lat="43.54766" lon="1.46709">
        <ele>266.885</ele>
        <time>2020-03-29T13:33:02Z</time>
      </trkpt>
      <trkpt lat="43.54769" lon="1.4671">
        <ele>266.928</ele>
        <time>2020-03-29T13:33:07Z</time>
      </trkpt>
      <trkpt lat="43.54776" lon="1.46711">
        <ele>266.987</ele>
        <time>2020-03-29T13:33:13Z</time>
      </trkpt>
      <trkpt lat="43.54782" lon="1.46714">
        <ele>267.012</ele>
        <time>2020-03-29T13:33:18Z</time>
      </trkpt>
      <trkpt lat="43.54788" lon="1.46718">
        <ele>267.027</ele>
        <time>2020-03-29T13:33:24Z</time>
      </trkpt>
      <trkpt lat="43.54796" lon="1.46722">
        <ele>267.032</ele>
        <time>2020-03-29T13:33:29Z</time>
      </trkpt>
      <trkpt lat="43.54801" lon="1.46726">
        <ele>267.032</ele>
        <time>2020-03-29T13:33:35Z</time>
      </trkpt>
      <trkpt lat="43.54801" lon="1.46728">
        <ele>267.038</ele>
        <time>2020-03-29T13:33:41Z</time>
      </trkpt>
      <trkpt lat="43.54797" lon="1.46733">
        <ele>267.053</ele>
        <time>2020-03-29T13:33:47Z</time>
      </trkpt>
      <trkpt lat="43.54795" lon="1.4674">
        <ele>267.075</ele>
        <time>2020-03-29T13:33:53Z</time>
      </trkpt>
      <trkpt lat="43.54792" lon="1.46748">
        <ele>267.096</ele>
        <time>2020-03-29T13:33:58Z</time>
      </trkpt>
      <trkpt lat="43.5479" lon="1.46759">
        <ele>267.125</ele>
        <time>2020-03-29T13:34:03Z</time>
      </trkpt>
      <trkpt lat="43.54788" lon="1.46767">
        <ele>267.164</ele>
        <time>2020-03-29T13:34:09Z</time>
      </trkpt>
      <trkpt lat="43.54788" lon="1.46774">
        <ele>267.193</ele>
        <time>2020-03-29T13:34:14Z</time>
      </trkpt>
      <trkpt lat="43.54789" lon="1.46777">
        <ele>267.217</ele>
        <time>2020-03-29T13:34:19Z</time>
      </trkpt>
      <trkpt lat="43.54788" lon="1.46782">
        <ele>267.247</ele>
        <time>2020-03-29T13:34:24Z</time>
      </trkpt>
      <trkpt lat="43.54784" lon="1.46786">
        <ele>267.292</ele>
        <time>2020-03-29T13:34:30Z</time>
      </trkpt>
      <trkpt lat="43.54778" lon="1.4679">
        <ele>267.335</ele>
        <time>2020-03-29T13:34:36Z</time>
      </trkpt>
      <trkpt lat="43.54775" lon="1.46796">
        <ele>267.374</ele>
        <time>2020-03-29T13:34:42Z</time>
      </trkpt>
      <trkpt lat="43.54773" lon="1.46801">
        <ele>267.411</ele>
        <time>2020-03-29T13:34:48Z</time>
      </trkpt>
      <trkpt lat="43.54772" lon="1.46802">
        <ele>267.437</ele>
        <time>2020-03-29T13:34:53Z</time>
      </trkpt>
      <trkpt lat="43.54767" lon="1.46807">
        <ele>267.463</ele>
        <time>2020-03-29T13:34:59Z</time>
      </trkpt>
      <trkpt lat="43.54763" lon="1.46813">
        <ele>267.48</ele>
        <time>2020-03-29T13:35:05Z</time>
      </trkpt>
      <trkpt lat="43.54758" lon="1.46819">
        <ele>267.485</ele>
        <time>2020-03-29T13:35:10Z</time>
      </trkpt>
      <trkpt lat="43.54754" lon="1.46823">
        <ele>267.49</ele>
        <time>2020-03-29T13:35:16Z</time>
      </trkpt>
      <trkpt lat="43.54753" lon="1.46824">
        <ele>267.492</ele>
        <time>2020-03-29T13:35:22Z</time>
      </trkpt>
      <trkpt lat="43.54752" lon="1.46824">
        <ele>267.492</ele>
        <time>2020-03-29T13:35:28Z</time>
      </trkpt>
      <trkpt lat="43.54752" lon="1.46824">
        <ele>267.493</ele>
        <time>2020-03-29T13:35:33Z</time>
      </trkpt>
      <trkpt lat="43.54751" lon="1.46825">
        <ele>267.494</ele>
        <time>2020-03-29T13:35:38Z</time>
      </trkpt>
      <trkpt lat="43.54747" lon="1.46829">
        <ele>267.491</ele>
        <time>2020-03-29T13:35:44Z</time>
      </trkpt>
      <trkpt lat="43.54742" lon="1.46833">
        <ele>267.486</ele>
        <time>2020-03-29T13:35:49Z</time>
      </trkpt>
      <trkpt lat="43.54739" lon="1.46836">
        <ele>267.48</ele>
        <time>2020-03-29T13:35:54Z</time>
      </trkpt>
      <trkpt lat="43.54733" lon="1.46841">
        <ele>267.479</ele>
        <time>2020-03-29T13:36:00Z</time>
      </trkpt>
      <trkpt lat="43.5473" lon="1.46847">
        <ele>267.481</ele>
        <time>2020-03-29T13:36:05Z</time>
      </trkpt>
      <trkpt lat="43.54726" lon="1.46855">
        <ele>267.481</ele>
        <time>2020-03-29T13:36:11Z</time>
      </trkpt>
      <trkpt lat="43.54723" lon="1.46862">
        <ele>267.482</ele>
        <time>2020-03-29T13:36:16Z</time>
      </trkpt>
      <trkpt lat="43.5472" lon="1.4687">
        <ele>267.484</ele>
        <time>2020-03-29T13:36:21Z</time>
      </trkpt>
      <trkpt lat="43.54716" lon="1.46876">
        <ele>267.486</ele>
        <time>2020-03-29T13:36:27Z</time>
      </trkpt>
      <trkpt lat="43.54711" lon="1.46882">
        <ele>267.489</ele>
        <time>2020-03-29T13:36:32Z</time>
      </trkpt>
      <trkpt lat="43.54707" lon="1.46888">
        <ele>267.495</ele>
        <time>2020-03-29T13:36:37Z</time>
      </trkpt>
      <trkpt lat="43.54703" lon="1.46895">
        <ele>267.509</ele>
        <time>2020-03-29T13:36:43Z</time>
      </trkpt>
      <trkpt lat="43.54699" lon="1.46901">
        <ele>267.513</ele>
        <time>2020-03-29T13:36:48Z</time>
      </trkpt>
      <trkpt lat="43.54695" lon="1.46907">
        <ele>267.516</ele>
        <time>2020-03-29T13:36:54Z</time>
      </trkpt>
      <trkpt lat="43.54693" lon="1.46912">
        <ele>267.52</ele>
        <time>2020-03-29T13:37:00Z</time>
      </trkpt>
      <trkpt lat="43.5469" lon="1.46916">
        <ele>267.519</ele>
        <time>2020-03-29T13:37:06Z</time>
      </trkpt>
      <trkpt lat="43.54686" lon="1.46922">
        <ele>267.519</ele>
        <time>2020-03-29T13:37:11Z</time>
      </trkpt>
      <trkpt lat="43.54683" lon="1.46929">
        <ele>267.518</ele>
        <time>2020-03-29T13:37:17Z</time>
      </trkpt>
      <trkpt lat="43.54681" lon="1.46935">
        <ele>267.514</ele>
        <time>2020-03-29T13:37:22Z</time>
      </trkpt>
      <trkpt lat="43.54675" lon="1.4694">
        <ele>267.502</ele>
        <time>2020-03-29T13:37:28Z</time>
      </trkpt>
      <trkpt lat="43.54669" lon="1.46944">
        <ele>267.492</ele>
        <time>2020-03-29T13:37:33Z</time>
      </trkpt>
      <trkpt lat="43.54665" lon="1.46948">
        <ele>267.478</ele>
        <time>2020-03-29T13:37:39Z</time>
      </trkpt>
      <trkpt lat="43.54661" lon="1.4695">
        <ele>267.468</ele>
        <time>2020-03-29T13:37:44Z</time>
      </trkpt>
      <trkpt lat="43.54656" lon="1.46954">
        <ele>267.458</ele>
        <time>2020-03-29T13:37:50Z</time>
      </trkpt>
      <trkpt lat="43.54653" lon="1.46959">
        <ele>267.452</ele>
        <time>2020-03-29T13:37:55Z</time>
      </trkpt>
      <trkpt lat="43.5465" lon="1.46967">
        <ele>267.445</ele>
        <time>2020-03-29T13:38:01Z</time>
      </trkpt>
      <trkpt lat="43.54651" lon="1.46977">
        <ele>267.429</ele>
        <time>2020-03-29T13:38:06Z</time>
      </trkpt>
      <trkpt lat="43.54656" lon="1.46982">
        <ele>267.387</ele>
        <time>2020-03-29T13:38:12Z</time>
      </trkpt>
      <trkpt lat="43.54662" lon="1.46981">
        <ele>267.36</ele>
        <time>2020-03-29T13:38:17Z</time>
      </trkpt>
      <trkpt lat="43.54665" lon="1.46981">
        <ele>267.334</ele>
        <time>2020-03-29T13:38:23Z</time>
      </trkpt>
      <trkpt lat="43.54666" lon="1.4698">
        <ele>267.31</ele>
        <time>2020-03-29T13:38:29Z</time>
      </trkpt>
      <trkpt lat="43.54669" lon="1.4698">
        <ele>267.292</ele>
        <time>2020-03-29T13:38:35Z</time>
      </trkpt>
      <trkpt lat="43.54673" lon="1.46983">
        <ele>267.262</ele>
        <time>2020-03-29T13:38:41Z</time>
      </trkpt>
      <trkpt lat="43.54675" lon="1.4699">
        <ele>267.234</ele>
        <time>2020-03-29T13:38:46Z</time>
      </trkpt>
      <trkpt lat="43.54677" lon="1.46996">
        <ele>267.204</ele>
        <time>2020-03-29T13:38:51Z</time>
      </trkpt>
      <trkpt lat="43.54679" lon="1.47003">
        <ele>267.167</ele>
        <time>2020-03-29T13:38:56Z</time>
      </trkpt>
      <trkpt lat="43.54681" lon="1.47007">
        <ele>267.119</ele>
        <time>2020-03-29T13:39:02Z</time>
      </trkpt>
      <trkpt lat="43.54685" lon="1.47012">
        <ele>267.071</ele>
        <time>2020-03-29T13:39:08Z</time>
      </trkpt>
      <trkpt lat="43.54684" lon="1.47015">
        <ele>267.032</ele>
        <time>2020-03-29T13:39:13Z</time>
      </trkpt>
      <trkpt lat="43.54683" lon="1.47019">
        <ele>266.989</ele>
        <time>2020-03-29T13:39:19Z</time>
      </trkpt>
      <trkpt lat="43.54677" lon="1.47028">
        <ele>266.956</ele>
        <time>2020-03-29T13:39:25Z</time>
      </trkpt>
      <trkpt lat="43.54673" lon="1.47034">
        <ele>266.927</ele>
        <time>2020-03-29T13:39:30Z</time>
      </trkpt>
      <trkpt lat="43.5467" lon="1.47043">
        <ele>266.884</ele>
        <time>2020-03-29T13:39:36Z</time>
      </trkpt>
      <trkpt lat="43.5467" lon="1.47049">
        <ele>266.83</ele>
        <time>2020-03-29T13:39:42Z</time>
      </trkpt>
      <trkpt lat="43.54672" lon="1.4705">
        <ele>266.767</ele>
        <time>2020-03-29T13:39:48Z</time>
      </trkpt>
      <trkpt lat="43.54676" lon="1.47048">
        <ele>266.687</ele>
        <time>2020-03-29T13:39:54Z</time>
      </trkpt>
      <trkpt lat="43.5468" lon="1.47049">
        <ele>266.58</ele>
        <time>2020-03-29T13:40:00Z</time>
      </trkpt>
      <trkpt lat="43.54685" lon="1.47049">
        <ele>266.459</ele>
        <time>2020-03-29T13:40:06Z</time>
      </trkpt>
      <trkpt lat="43.54686" lon="1.47051">
        <ele>266.33</ele>
        <time>2020-03-29T13:40:12Z</time>
      </trkpt>
      <trkpt lat="43.5469" lon="1.47058">
        <ele>266.196</ele>
        <time>2020-03-29T13:40:17Z</time>
      </trkpt>
      <trkpt lat="43.54696" lon="1.47067">
        <ele>266.015</ele>
        <time>2020-03-29T13:40:23Z</time>
      </trkpt>
      <trkpt lat="43.54699" lon="1.47074">
        <ele>265.833</ele>
        <time>2020-03-29T13:40:29Z</time>
      </trkpt>
      <trkpt lat="43.54699" lon="1.47076">
        <ele>265.713</ele>
        <time>2020-03-29T13:40:34Z</time>
      </trkpt>
      <trkpt lat="43.54698" lon="1.47087">
        <ele>265.539</ele>
        <time>2020-03-29T13:40:40Z</time>
      </trkpt>
      <trkpt lat="43.54695" lon="1.47092">
        <ele>265.379</ele>
        <time>2020-03-29T13:40:46Z</time>
      </trkpt>
      <trkpt lat="43.54693" lon="1.47096">
        <ele>265.255</ele>
        <time>2020-03-29T13:40:51Z</time>
      </trkpt>
      <trkpt lat="43.5469" lon="1.47102">
        <ele>265.111</ele>
        <time>2020-03-29T13:40:57Z</time>
      </trkpt>
      <trkpt lat="43.54686" lon="1.4711">
        <ele>264.986</ele>
        <time>2020-03-29T13:41:03Z</time>
      </trkpt>
      <trkpt lat="43.54681" lon="1.47123">
        <ele>264.864</ele>
        <time>2020-03-29T13:41:08Z</time>
      </trkpt>
      <trkpt lat="43.54681" lon="1.4713">
        <ele>264.725</ele>
        <time>2020-03-29T13:41:14Z</time>
      </trkpt>
      <trkpt lat="43.54682" lon="1.47129">
        <ele>264.594</ele>
        <time>2020-03-29T13:41:20Z</time>
      </trkpt>
      <trkpt lat="43.54682" lon="1.47134">
        <ele>264.448</ele>
        <time>2020-03-29T13:41:26Z</time>
      </trkpt>
      <trkpt lat="43.54681" lon="1.47137">
        <ele>264.318</ele>
        <time>2020-03-29T13:41:31Z</time>
      </trkpt>
      <trkpt lat="43.54678" lon="1.47145">
        <ele>264.154</ele>
        <time>2020-03-29T13:41:37Z</time>
      </trkpt>
      <trkpt lat="43.54672" lon="1.47149">
        <ele>264.009</ele>
        <time>2020-03-29T13:41:42Z</time>
      </trkpt>
      <trkpt lat="43.5467" lon="1.47151">
        <ele>263.917</ele>
        <time>2020-03-29T13:41:47Z</time>
      </trkpt>
      <trkpt lat="43.54672" lon="1.47159">
        <ele>263.762</ele>
        <time>2020-03-29T13:41:53Z</time>
      </trkpt>
      <trkpt lat="43.54672" lon="1.47164">
        <ele>263.573</ele>
        <time>2020-03-29T13:41:59Z</time>
      </trkpt>
      <trkpt lat="43.54672" lon="1.47171">
        <ele>263.421</ele>
        <time>2020-03-29T13:42:04Z</time>
      </trkpt>
      <trkpt lat="43.54674" lon="1.47183">
        <ele>263.235</ele>
        <time>2020-03-29T13:42:10Z</time>
      </trkpt>
      <trkpt lat="43.54675" lon="1.47187">
        <ele>263.054</ele>
        <time>2020-03-29T13:42:16Z</time>
      </trkpt>
      <trkpt lat="43.54676" lon="1.4719">
        <ele>262.936</ele>
        <time>2020-03-29T13:42:22Z</time>
      </trkpt>
      <trkpt lat="43.54676" lon="1.4719">
        <ele>262.922</ele>
        <time>2020-03-29T13:42:27Z</time>
      </trkpt>
      <trkpt lat="43.54678" lon="1.47195">
        <ele>262.772</ele>
        <time>2020-03-29T13:42:33Z</time>
      </trkpt>
      <trkpt lat="43.54685" lon="1.47204">
        <ele>262.572</ele>
        <time>2020-03-29T13:42:39Z</time>
      </trkpt>
      <trkpt lat="43.54689" lon="1.4721">
        <ele>262.402</ele>
        <time>2020-03-29T13:42:44Z</time>
      </trkpt>
      <trkpt lat="43.54692" lon="1.47216">
        <ele>262.231</ele>
        <time>2020-03-29T13:42:49Z</time>
      </trkpt>
      <trkpt lat="43.54696" lon="1.4722">
        <ele>262.035</ele>
        <time>2020-03-29T13:42:55Z</time>
      </trkpt>
      <trkpt lat="43.547" lon="1.47225">
        <ele>261.882</ele>
        <time>2020-03-29T13:43:00Z</time>
      </trkpt>
      <trkpt lat="43.54702" lon="1.4723">
        <ele>261.714</ele>
        <time>2020-03-29T13:43:06Z</time>
      </trkpt>
      <trkpt lat="43.54706" lon="1.47233">
        <ele>261.559</ele>
        <time>2020-03-29T13:43:12Z</time>
      </trkpt>
      <trkpt lat="43.54709" lon="1.47234">
        <ele>261.418</ele>
        <time>2020-03-29T13:43:18Z</time>
      </trkpt>
      <trkpt lat="43.54713" lon="1.47235">
        <ele>261.309</ele>
        <time>2020-03-29T13:43:23Z</time>
      </trkpt>
      <trkpt lat="43.54716" lon="1.47235">
        <ele>261.186</ele>
        <time>2020-03-29T13:43:29Z</time>
      </trkpt>
      <trkpt lat="43.54718" lon="1.47234">
        <ele>261.106</ele>
        <time>2020-03-29T13:43:34Z</time>
      </trkpt>
      <trkpt lat="43.54721" lon="1.47233">
        <ele>260.978</ele>
        <time>2020-03-29T13:43:40Z</time>
      </trkpt>
      <trkpt lat="43.54729" lon="1.47234">
        <ele>260.829</ele>
        <time>2020-03-29T13:43:46Z</time>
      </trkpt>
      <trkpt lat="43.54738" lon="1.47238">
        <ele>260.684</ele>
        <time>2020-03-29T13:43:51Z</time>
      </trkpt>
      <trkpt lat="43.54745" lon="1.47245">
        <ele>260.515</ele>
        <time>2020-03-29T13:43:57Z</time>
      </trkpt>
      <trkpt lat="43.54748" lon="1.47248">
        <ele>260.371</ele>
        <time>2020-03-29T13:44:02Z</time>
      </trkpt>
      <trkpt lat="43.54751" lon="1.47253">
        <ele>260.203</ele>
        <time>2020-03-29T13:44:08Z</time>
      </trkpt>
      <trkpt lat="43.54755" lon="1.47257">
        <ele>260.048</ele>
        <time>2020-03-29T13:44:14Z</time>
      </trkpt>
      <trkpt lat="43.54757" lon="1.47259">
        <ele>259.918</ele>
        <time>2020-03-29T13:44:20Z</time>
      </trkpt>
      <trkpt lat="43.54753" lon="1.47272">
        <ele>259.788</ele>
        <time>2020-03-29T13:44:25Z</time>
      </trkpt>
      <trkpt lat="43.54748" lon="1.47286">
        <ele>259.618</ele>
        <time>2020-03-29T13:44:31Z</time>
      </trkpt>
      <trkpt lat="43.54746" lon="1.47291">
        <ele>259.444</ele>
        <time>2020-03-29T13:44:36Z</time>
      </trkpt>
      <trkpt lat="43.54742" lon="1.47295">
        <ele>259.271</ele>
        <time>2020-03-29T13:44:41Z</time>
      </trkpt>
      <trkpt lat="43.5474" lon="1.47296">
        <ele>259.064</ele>
        <time>2020-03-29T13:44:47Z</time>
      </trkpt>
      <trkpt lat="43.5474" lon="1.47295">
        <ele>259.042</ele>
        <time>2020-03-29T13:44:53Z</time>
      </trkpt>
      <trkpt lat="43.5474" lon="1.47296">
        <ele>258.863</ele>
        <time>2020-03-29T13:44:59Z</time>
      </trkpt>
      <trkpt lat="43.54739" lon="1.47297">
        <ele>258.645</ele>
        <time>2020-03-29T13:45:05Z</time>
      </trkpt>
      <trkpt lat="43.54734" lon="1.47303">
        <ele>258.382</ele>
        <time>2020-03-29T13:45:11Z</time>
      </trkpt>
      <trkpt lat="43.54731" lon="1.47307">
        <ele>258.118</ele>
        <time>2020-03-29T13:45:17Z</time>
      </trkpt>
      <trkpt lat="43.54728" lon="1.47309">
        <ele>257.897</ele>
        <time>2020-03-29T13:45:23Z</time>
      </trkpt>
      <trkpt lat="43.54722" lon="1.47318">
        <ele>257.686</ele>
        <time>2020-03-29T13:45:28Z</time>
      </trkpt>
      <trkpt lat="43.54719" lon="1.47326">
        <ele>257.435</ele>
        <time>2020-03-29T13:45:34Z</time>
      </trkpt>
      <trkpt lat="43.54715" lon="1.47331">
        <ele>257.198</ele>
        <time>2020-03-29T13:45:40Z</time>
      </trkpt>
      <trkpt lat="43.54712" lon="1.47335">
        <ele>256.971</ele>
        <time>2020-03-29T13:45:46Z</time>
      </trkpt>
      <trkpt lat="43.54707" lon="1.47337">
        <ele>256.748</ele>
        <time>2020-03-29T13:45:52Z</time>
      </trkpt>
      <trkpt lat="43.54702" lon="1.4734">
        <ele>256.54</ele>
        <time>2020-03-29T13:45:58Z</time>
      </trkpt>
      <trkpt lat="43.54693" lon="1.47342">
        <ele>256.377</ele>
        <time>2020-03-29T13:46:03Z</time>
      </trkpt>
      <trkpt lat="43.54688" lon="1.47347">
        <ele>256.197</ele>
        <time>2020-03-29T13:46:09Z</time>
      </trkpt>
      <trkpt lat="43.54686" lon="1.47351">
        <ele>256.021</ele>
        <time>2020-03-29T13:46:15Z</time>
      </trkpt>
      <trkpt lat="43.54684" lon="1.47355">
        <ele>255.859</ele>
        <time>2020-03-29T13:46:21Z</time>
      </trkpt>
      <trkpt lat="43.54681" lon="1.47357">
        <ele>255.583</ele>
        <time>2020-03-29T13:46:27Z</time>
      </trkpt>
      <trkpt lat="43.54678" lon="1.47361">
        <ele>255.294</ele>
        <time>2020-03-29T13:46:33Z</time>
      </trkpt>
      <trkpt lat="43.54675" lon="1.47366">
        <ele>255.092</ele>
        <time>2020-03-29T13:46:38Z</time>
      </trkpt>
      <trkpt lat="43.54671" lon="1.47369">
        <ele>254.884</ele>
        <time>2020-03-29T13:46:44Z</time>
      </trkpt>
      <trkpt lat="43.54667" lon="1.47371">
        <ele>254.621</ele>
        <time>2020-03-29T13:46:49Z</time>
      </trkpt>
      <trkpt lat="43.54662" lon="1.4738">
        <ele>254.256</ele>
        <time>2020-03-29T13:46:55Z</time>
      </trkpt>
      <trkpt lat="43.54659" lon="1.47383">
        <ele>254.007</ele>
        <time>2020-03-29T13:47:00Z</time>
      </trkpt>
      <trkpt lat="43.54654" lon="1.4739">
        <ele>253.647</ele>
        <time>2020-03-29T13:47:06Z</time>
      </trkpt>
      <trkpt lat="43.54651" lon="1.47396">
        <ele>253.364</ele>
        <time>2020-03-29T13:47:11Z</time>
      </trkpt>
      <trkpt lat="43.54647" lon="1.47402">
        <ele>253.047</ele>
        <time>2020-03-29T13:47:17Z</time>
      </trkpt>
      <trkpt lat="43.54643" lon="1.47407">
        <ele>252.736</ele>
        <time>2020-03-29T13:47:23Z</time>
      </trkpt>
      <trkpt lat="43.54638" lon="1.47412">
        <ele>252.432</ele>
        <time>2020-03-29T13:47:29Z</time>
      </trkpt>
      <trkpt lat="43.54631" lon="1.47423">
        <ele>252.107</ele>
        <time>2020-03-29T13:47:35Z</time>
      </trkpt>
      <trkpt lat="43.54629" lon="1.47428">
        <ele>251.818</ele>
        <time>2020-03-29T13:47:40Z</time>
      </trkpt>
      <trkpt lat="43.54625" lon="1.47432">
        <ele>251.536</ele>
        <time>2020-03-29T13:47:45Z</time>
      </trkpt>
      <trkpt lat="43.54617" lon="1.47441">
        <ele>251.206</ele>
        <time>2020-03-29T13:47:51Z</time>
      </trkpt>
      <trkpt lat="43.54611" lon="1.47447">
        <ele>250.932</ele>
        <time>2020-03-29T13:47:56Z</time>
      </trkpt>
      <trkpt lat="43.54606" lon="1.47456">
        <ele>250.618</ele>
        <time>2020-03-29T13:48:02Z</time>
      </trkpt>
      <trkpt lat="43.54602" lon="1.47463">
        <ele>250.376</ele>
        <time>2020-03-29T13:48:07Z</time>
      </trkpt>
      <trkpt lat="43.54597" lon="1.47468">
        <ele>250.151</ele>
        <time>2020-03-29T13:48:12Z</time>
      </trkpt>
      <trkpt lat="43.54591" lon="1.47475">
        <ele>249.898</ele>
        <time>2020-03-29T13:48:18Z</time>
      </trkpt>
      <trkpt lat="43.54588" lon="1.47478">
        <ele>249.704</ele>
        <time>2020-03-29T13:48:23Z</time>
      </trkpt>
      <trkpt lat="43.54583" lon="1.47481">
        <ele>249.488</ele>
        <time>2020-03-29T13:48:29Z</time>
      </trkpt>
      <trkpt lat="43.54581" lon="1.47482">
        <ele>249.371</ele>
        <time>2020-03-29T13:48:35Z</time>
      </trkpt>
      <trkpt lat="43.54578" lon="1.47485">
        <ele>249.201</ele>
        <time>2020-03-29T13:48:40Z</time>
      </trkpt>
      <trkpt lat="43.54574" lon="1.4749">
        <ele>248.998</ele>
        <time>2020-03-29T13:48:46Z</time>
      </trkpt>
      <trkpt lat="43.5457" lon="1.47493">
        <ele>248.799</ele>
        <time>2020-03-29T13:48:52Z</time>
      </trkpt>
      <trkpt lat="43.54571" lon="1.47495">
        <ele>248.632</ele>
        <time>2020-03-29T13:48:57Z</time>
      </trkpt>
      <trkpt lat="43.54569" lon="1.47498">
        <ele>248.493</ele>
        <time>2020-03-29T13:49:02Z</time>
      </trkpt>
      <trkpt lat="43.54564" lon="1.47502">
        <ele>248.295</ele>
        <time>2020-03-29T13:49:08Z</time>
      </trkpt>
      <trkpt lat="43.54559" lon="1.47505">
        <ele>248.136</ele>
        <time>2020-03-29T13:49:13Z</time>
      </trkpt>
      <trkpt lat="43.5455" lon="1.47511">
        <ele>247.919</ele>
        <time>2020-03-29T13:49:19Z</time>
      </trkpt>
      <trkpt lat="43.54545" lon="1.47518">
        <ele>247.683</ele>
        <time>2020-03-29T13:49:25Z</time>
      </trkpt>
      <trkpt lat="43.54539" lon="1.47525">
        <ele>247.451</ele>
        <time>2020-03-29T13:49:31Z</time>
      </trkpt>
      <trkpt lat="43.54533" lon="1.47531">
        <ele>247.256</ele>
        <time>2020-03-29T13:49:36Z</time>
      </trkpt>
      <trkpt lat="43.54529" lon="1.47538">
        <ele>247.023</ele>
        <time>2020-03-29T13:49:42Z</time>
      </trkpt>
      <trkpt lat="43.54526" lon="1.47544">
        <ele>246.806</ele>
        <time>2020-03-29T13:49:48Z</time>
      </trkpt>
      <trkpt lat="43.54522" lon="1.4755">
        <ele>246.602</ele>
        <time>2020-03-29T13:49:54Z</time>
      </trkpt>
      <trkpt lat="43.54515" lon="1.47557">
        <ele>246.395</ele>
        <time>2020-03-29T13:50:00Z</time>
      </trkpt>
      <trkpt lat="43.54512" lon="1.47558">
        <ele>246.217</ele>
        <time>2020-03-29T13:50:05Z</time>
      </trkpt>
      <trkpt lat="43.5451" lon="1.47564">
        <ele>245.999</ele>
        <time>2020-03-29T13:50:11Z</time>
      </trkpt>
      <trkpt lat="43.54506" lon="1.47569">
        <ele>245.82</ele>
        <time>2020-03-29T13:50:16Z</time>
      </trkpt>
      <trkpt lat="43.54503" lon="1.47578">
        <ele>245.597</ele>
        <time>2020-03-29T13:50:22Z</time>
      </trkpt>
      <trkpt lat="43.54496" lon="1.47588">
        <ele>245.368</ele>
        <time>2020-03-29T13:50:28Z</time>
      </trkpt>
      <trkpt lat="43.5449" lon="1.47598">
        <ele>245.152</ele>
        <time>2020-03-29T13:50:33Z</time>
      </trkpt>
      <trkpt lat="43.54486" lon="1.47604">
        <ele>244.926</ele>
        <time>2020-03-29T13:50:38Z</time>
      </trkpt>
      <trkpt lat="43.54485" lon="1.47603">
        <ele>244.71</ele>
        <time>2020-03-29T13:50:44Z</time>
      </trkpt>
      <trkpt lat="43.54481" lon="1.47609">
        <ele>244.504</ele>
        <time>2020-03-29T13:50:49Z</time>
      </trkpt>
      <trkpt lat="43.54476" lon="1.47614">
        <ele>244.253</ele>
        <time>2020-03-29T13:50:55Z</time>
      </trkpt>
      <trkpt lat="43.54473" lon="1.47623">
        <ele>243.988</ele>
        <time>2020-03-29T13:51:01Z</time>
      </trkpt>
      <trkpt lat="43.54474" lon="1.47633">
        <ele>243.753</ele>
        <time>2020-03-29T13:51:06Z</time>
      </trkpt>
      <trkpt lat="43.54479" lon="1.47632">
        <ele>243.456</ele>
        <time>2020-03-29T13:51:12Z</time>
      </trkpt>
      <trkpt lat="43.5448" lon="1.47627">
        <ele>243.154</ele>
        <time>2020-03-29T13:51:18Z</time>
      </trkpt>
      <trkpt lat="43.5448" lon="1.47627">
        <ele>243.059</ele>
        <time>2020-03-29T13:51:23Z</time>
      </trkpt>
      <trkpt lat="43.54482" lon="1.47628">
        <ele>242.717</ele>
        <time>2020-03-29T13:51:29Z</time>
      </trkpt>
      <trkpt lat="43.54483" lon="1.47632">
        <ele>242.385</ele>
        <time>2020-03-29T13:51:34Z</time>
      </trkpt>
      <trkpt lat="43.54481" lon="1.47636">
        <ele>242.059</ele>
        <time>2020-03-29T13:51:39Z</time>
      </trkpt>
      <trkpt lat="43.54477" lon="1.47642">
        <ele>241.658</ele>
        <time>2020-03-29T13:51:45Z</time>
      </trkpt>
      <trkpt lat="43.54472" lon="1.47645">
        <ele>241.359</ele>
        <time>2020-03-29T13:51:50Z</time>
      </trkpt>
      <trkpt lat="43.54468" lon="1.47649">
        <ele>240.908</ele>
        <time>2020-03-29T13:51:56Z</time>
      </trkpt>
      <trkpt lat="43.54465" lon="1.47654">
        <ele>240.474</ele>
        <time>2020-03-29T13:52:02Z</time>
      </trkpt>
      <trkpt lat="43.54462" lon="1.4766">
        <ele>240.124</ele>
        <time>2020-03-29T13:52:07Z</time>
      </trkpt>
      <trkpt lat="43.54457" lon="1.47665">
        <ele>239.785</ele>
        <time>2020-03-29T13:52:12Z</time>
      </trkpt>
      <trkpt lat="43.54452" lon="1.47668">
        <ele>239.448</ele>
        <time>2020-03-29T13:52:17Z</time>
      </trkpt>
      <trkpt lat="43.54448" lon="1.47673">
        <ele>239.07</ele>
        <time>2020-03-29T13:52:23Z</time>
      </trkpt>
      <trkpt lat="43.54444" lon="1.47678">
        <ele>238.773</ele>
        <time>2020-03-29T13:52:28Z</time>
      </trkpt>
      <trkpt lat="43.5444" lon="1.47681">
        <ele>238.485</ele>
        <time>2020-03-29T13:52:33Z</time>
      </trkpt>
      <trkpt lat="43.54434" lon="1.47686">
        <ele>238.143</ele>
        <time>2020-03-29T13:52:39Z</time>
      </trkpt>
      <trkpt lat="43.5443" lon="1.47688">
        <ele>237.867</ele>
        <time>2020-03-29T13:52:44Z</time>
      </trkpt>
      <trkpt lat="43.54426" lon="1.4769">
        <ele>237.552</ele>
        <time>2020-03-29T13:52:50Z</time>
      </trkpt>
      <trkpt lat="43.5442" lon="1.47698">
        <ele>237.242</ele>
        <time>2020-03-29T13:52:56Z</time>
      </trkpt>
      <trkpt lat="43.54414" lon="1.47705">
        <ele>236.977</ele>
        <time>2020-03-29T13:53:01Z</time>
      </trkpt>
      <trkpt lat="43.54411" lon="1.47709">
        <ele>236.704</ele>
        <time>2020-03-29T13:53:07Z</time>
      </trkpt>
      <trkpt lat="43.54407" lon="1.47714">
        <ele>236.483</ele>
        <time>2020-03-29T13:53:12Z</time>
      </trkpt>
      <trkpt lat="43.54401" lon="1.47718">
        <ele>236.147</ele>
        <time>2020-03-29T13:53:18Z</time>
      </trkpt>
      <trkpt lat="43.54396" lon="1.47722">
        <ele>235.809</ele>
        <time>2020-03-29T13:53:24Z</time>
      </trkpt>
      <trkpt lat="43.54388" lon="1.47726">
        <ele>235.534</ele>
        <time>2020-03-29T13:53:29Z</time>
      </trkpt>
      <trkpt lat="43.54383" lon="1.47739">
        <ele>235.198</ele>
        <time>2020-03-29T13:53:35Z</time>
      </trkpt>
      <trkpt lat="43.5438" lon="1.47744">
        <ele>234.918</ele>
        <time>2020-03-29T13:53:40Z</time>
      </trkpt>
      <trkpt lat="43.54377" lon="1.47752">
        <ele>234.64</ele>
        <time>2020-03-29T13:53:45Z</time>
      </trkpt>
      <trkpt lat="43.54375" lon="1.4776">
        <ele>234.311</ele>
        <time>2020-03-29T13:53:51Z</time>
      </trkpt>
      <trkpt lat="43.54376" lon="1.47769">
        <ele>233.992</ele>
        <time>2020-03-29T13:53:57Z</time>
      </trkpt>
      <trkpt lat="43.54377" lon="1.47777">
        <ele>233.731</ele>
        <time>2020-03-29T13:54:02Z</time>
      </trkpt>
      <trkpt lat="43.5438" lon="1.47786">
        <ele>233.421</ele>
        <time>2020-03-29T13:54:08Z</time>
      </trkpt>
      <trkpt lat="43.54381" lon="1.47794">
        <ele>233.17</ele>
        <time>2020-03-29T13:54:13Z</time>
      </trkpt>
      <trkpt lat="43.54382" lon="1.47801">
        <ele>232.875</ele>
        <time>2020-03-29T13:54:19Z</time>
      </trkpt>
      <trkpt lat="43.54384" lon="1.47807">
        <ele>232.632</ele>
        <time>2020-03-29T13:54:24Z</time>
      </trkpt>
      <trkpt lat="43.5438" lon="1.47808">
        <ele>232.364</ele>
        <time>2020-03-29T13:54:30Z</time>
      </trkpt>
      <trkpt lat="43.54378" lon="1.4781">
        <ele>232.158</ele>
        <time>2020-03-29T13:54:35Z</time>
      </trkpt>
      <trkpt lat="43.54376" lon="1.47814">
        <ele>231.94</ele>
        <time>2020-03-29T13:54:41Z</time>
      </trkpt>
      <trkpt lat="43.54377" lon="1.47817">
        <ele>231.726</ele>
        <time>2020-03-29T13:54:46Z</time>
      </trkpt>
      <trkpt lat="43.54381" lon="1.47825">
        <ele>231.488</ele>
        <time>2020-03-29T13:54:52Z</time>
      </trkpt>
      <trkpt lat="43.54382" lon="1.47832">
        <ele>231.262</ele>
        <time>2020-03-29T13:54:58Z</time>
      </trkpt>
      <trkpt lat="43.54382" lon="1.47839">
        <ele>231.051</ele>
        <time>2020-03-29T13:55:04Z</time>
      </trkpt>
      <trkpt lat="43.54381" lon="1.47845">
        <ele>230.876</ele>
        <time>2020-03-29T13:55:09Z</time>
      </trkpt>
      <trkpt lat="43.54382" lon="1.47852">
        <ele>230.705</ele>
        <time>2020-03-29T13:55:14Z</time>
      </trkpt>
      <trkpt lat="43.54382" lon="1.47856">
        <ele>230.514</ele>
        <time>2020-03-29T13:55:20Z</time>
      </trkpt>
      <trkpt lat="43.54382" lon="1.47872">
        <ele>230.385</ele>
        <time>2020-03-29T13:55:25Z</time>
      </trkpt>
      <trkpt lat="43.54384" lon="1.4787">
        <ele>230.223</ele>
        <time>2020-03-29T13:55:30Z</time>
      </trkpt>
      <trkpt lat="43.54382" lon="1.47871">
        <ele>230.123</ele>
        <time>2020-03-29T13:55:36Z</time>
      </trkpt>
      <trkpt lat="43.54382" lon="1.47871">
        <ele>230.105</ele>
        <time>2020-03-29T13:55:42Z</time>
      </trkpt>
      <trkpt lat="43.54388" lon="1.47877">
        <ele>229.945</ele>
        <time>2020-03-29T13:55:47Z</time>
      </trkpt>
      <trkpt lat="43.54394" lon="1.47872">
        <ele>229.783</ele>
        <time>2020-03-29T13:55:53Z</time>
      </trkpt>
      <trkpt lat="43.54399" lon="1.47866">
        <ele>229.592</ele>
        <time>2020-03-29T13:55:59Z</time>
      </trkpt>
      <trkpt lat="43.54404" lon="1.47867">
        <ele>229.431</ele>
        <time>2020-03-29T13:56:05Z</time>
      </trkpt>
      <trkpt lat="43.54411" lon="1.47868">
        <ele>229.269</ele>
        <time>2020-03-29T13:56:10Z</time>
      </trkpt>
      <trkpt lat="43.54418" lon="1.47867">
        <ele>229.082</ele>
        <time>2020-03-29T13:56:16Z</time>
      </trkpt>
      <trkpt lat="43.54425" lon="1.47861">
        <ele>228.935</ele>
        <time>2020-03-29T13:56:21Z</time>
      </trkpt>
      <trkpt lat="43.54433" lon="1.4786">
        <ele>228.77</ele>
        <time>2020-03-29T13:56:27Z</time>
      </trkpt>
      <trkpt lat="43.54436" lon="1.4786">
        <ele>228.619</ele>
        <time>2020-03-29T13:56:33Z</time>
      </trkpt>
      <trkpt lat="43.54443" lon="1.47859">
        <ele>228.497</ele>
        <time>2020-03-29T13:56:39Z</time>
      </trkpt>
      <trkpt lat="43.54445" lon="1.47857">
        <ele>228.444</ele>
        <time>2020-03-29T13:56:45Z</time>
      </trkpt>
      <trkpt lat="43.54452" lon="1.47858">
        <ele>228.374</ele>
        <time>2020-03-29T13:56:51Z</time>
      </trkpt>
      <trkpt lat="43.54453" lon="1.47858">
        <ele>228.365</ele>
        <time>2020-03-29T13:56:56Z</time>
      </trkpt>
      <trkpt lat="43.54455" lon="1.47858">
        <ele>228.356</ele>
        <time>2020-03-29T13:57:02Z</time>
      </trkpt>
      <trkpt lat="43.54456" lon="1.47858">
        <ele>228.348</ele>
        <time>2020-03-29T13:57:08Z</time>
      </trkpt>
      <trkpt lat="43.54456" lon="1.47858">
        <ele>228.342</ele>
        <time>2020-03-29T13:57:13Z</time>
      </trkpt>
      <trkpt lat="43.54456" lon="1.47857">
        <ele>228.291</ele>
        <time>2020-03-29T13:57:19Z</time>
      </trkpt>
      <trkpt lat="43.54457" lon="1.47857">
        <ele>228.285</ele>
        <time>2020-03-29T13:57:24Z</time>
      </trkpt>
      <trkpt lat="43.54456" lon="1.47859">
        <ele>228.232</ele>
        <time>2020-03-29T13:57:30Z</time>
      </trkpt>
      <trkpt lat="43.54456" lon="1.4786">
        <ele>228.219</ele>
        <time>2020-03-29T13:57:35Z</time>
      </trkpt>
      <trkpt lat="43.54456" lon="1.4786">
        <ele>228.215</ele>
        <time>2020-03-29T13:57:40Z</time>
      </trkpt>
      <trkpt lat="43.54455" lon="1.4786">
        <ele>228.173</ele>
        <time>2020-03-29T13:57:46Z</time>
      </trkpt>
      <trkpt lat="43.54457" lon="1.4786">
        <ele>228.118</ele>
        <time>2020-03-29T13:57:52Z</time>
      </trkpt>
      <trkpt lat="43.5446" lon="1.47859">
        <ele>228.071</ele>
        <time>2020-03-29T13:57:57Z</time>
      </trkpt>
      <trkpt lat="43.54462" lon="1.47857">
        <ele>228.033</ele>
        <time>2020-03-29T13:58:03Z</time>
      </trkpt>
      <trkpt lat="43.54468" lon="1.47857">
        <ele>227.988</ele>
        <time>2020-03-29T13:58:08Z</time>
      </trkpt>
      <trkpt lat="43.54473" lon="1.47856">
        <ele>227.936</ele>
        <time>2020-03-29T13:58:14Z</time>
      </trkpt>
      <trkpt lat="43.5448" lon="1.47855">
        <ele>227.878</ele>
        <time>2020-03-29T13:58:20Z</time>
      </trkpt>
      <trkpt lat="43.54487" lon="1.47854">
        <ele>227.813</ele>
        <time>2020-03-29T13:58:26Z</time>
      </trkpt>
      <trkpt lat="43.54492" lon="1.47852">
        <ele>227.758</ele>
        <time>2020-03-29T13:58:31Z</time>
      </trkpt>
      <trkpt lat="43.54497" lon="1.47852">
        <ele>227.704</ele>
        <time>2020-03-29T13:58:37Z</time>
      </trkpt>
      <trkpt lat="43.54502" lon="1.47851">
        <ele>227.682</ele>
        <time>2020-03-29T13:58:42Z</time>
      </trkpt>
      <trkpt lat="43.54506" lon="1.47851">
        <ele>227.639</ele>
        <time>2020-03-29T13:58:47Z</time>
      </trkpt>
      <trkpt lat="43.54509" lon="1.47848">
        <ele>227.598</ele>
        <time>2020-03-29T13:58:52Z</time>
      </trkpt>
      <trkpt lat="43.54518" lon="1.47846">
        <ele>227.556</ele>
        <time>2020-03-29T13:58:58Z</time>
      </trkpt>
      <trkpt lat="43.5453" lon="1.47838">
        <ele>227.517</ele>
        <time>2020-03-29T13:59:03Z</time>
      </trkpt>
      <trkpt lat="43.54535" lon="1.47838">
        <ele>227.451</ele>
        <time>2020-03-29T13:59:09Z</time>
      </trkpt>
      <trkpt lat="43.54539" lon="1.47836">
        <ele>227.375</ele>
        <time>2020-03-29T13:59:15Z</time>
      </trkpt>
      <trkpt lat="43.54542" lon="1.47834">
        <ele>227.312</ele>
        <time>2020-03-29T13:59:21Z</time>
      </trkpt>
      <trkpt lat="43.54543" lon="1.47833">
        <ele>227.243</ele>
        <time>2020-03-29T13:59:27Z</time>
      </trkpt>
      <trkpt lat="43.54549" lon="1.47828">
        <ele>227.16</ele>
        <time>2020-03-29T13:59:32Z</time>
      </trkpt>
      <trkpt lat="43.54553" lon="1.47826">
        <ele>227.11</ele>
        <time>2020-03-29T13:59:38Z</time>
      </trkpt>
      <trkpt lat="43.54558" lon="1.47822">
        <ele>227.076</ele>
        <time>2020-03-29T13:59:44Z</time>
      </trkpt>
      <trkpt lat="43.54564" lon="1.47825">
        <ele>227.041</ele>
        <time>2020-03-29T13:59:50Z</time>
      </trkpt>
      <trkpt lat="43.54567" lon="1.47829">
        <ele>226.948</ele>
        <time>2020-03-29T13:59:56Z</time>
      </trkpt>
      <trkpt lat="43.54567" lon="1.47833">
        <ele>226.922</ele>
        <time>2020-03-29T14:00:01Z</time>
      </trkpt>
      <trkpt lat="43.5457" lon="1.47837">
        <ele>226.842</ele>
        <time>2020-03-29T14:00:07Z</time>
      </trkpt>
      <trkpt lat="43.54575" lon="1.47844">
        <ele>226.72</ele>
        <time>2020-03-29T14:00:13Z</time>
      </trkpt>
      <trkpt lat="43.54578" lon="1.47846">
        <ele>226.621</ele>
        <time>2020-03-29T14:00:18Z</time>
      </trkpt>
      <trkpt lat="43.54581" lon="1.47848">
        <ele>226.533</ele>
        <time>2020-03-29T14:00:23Z</time>
      </trkpt>
      <trkpt lat="43.54585" lon="1.47847">
        <ele>226.469</ele>
        <time>2020-03-29T14:00:28Z</time>
      </trkpt>
      <trkpt lat="43.54594" lon="1.47843">
        <ele>226.391</ele>
        <time>2020-03-29T14:00:33Z</time>
      </trkpt>
      <trkpt lat="43.54602" lon="1.47842">
        <ele>226.293</ele>
        <time>2020-03-29T14:00:39Z</time>
      </trkpt>
      <trkpt lat="43.5461" lon="1.47842">
        <ele>226.191</ele>
        <time>2020-03-29T14:00:45Z</time>
      </trkpt>
      <trkpt lat="43.54617" lon="1.4784">
        <ele>226.109</ele>
        <time>2020-03-29T14:00:50Z</time>
      </trkpt>
      <trkpt lat="43.5462" lon="1.4784">
        <ele>226.016</ele>
        <time>2020-03-29T14:00:56Z</time>
      </trkpt>
      <trkpt lat="43.54626" lon="1.47839">
        <ele>225.939</ele>
        <time>2020-03-29T14:01:01Z</time>
      </trkpt>
      <trkpt lat="43.54637" lon="1.47837">
        <ele>225.841</ele>
        <time>2020-03-29T14:01:07Z</time>
      </trkpt>
      <trkpt lat="43.54643" lon="1.47836">
        <ele>225.751</ele>
        <time>2020-03-29T14:01:12Z</time>
      </trkpt>
      <trkpt lat="43.54649" lon="1.47838">
        <ele>225.634</ele>
        <time>2020-03-29T14:01:18Z</time>
      </trkpt>
      <trkpt lat="43.54654" lon="1.47841">
        <ele>225.532</ele>
        <time>2020-03-29T14:01:23Z</time>
      </trkpt>
      <trkpt lat="43.54661" lon="1.47844">
        <ele>225.402</ele>
        <time>2020-03-29T14:01:29Z</time>
      </trkpt>
      <trkpt lat="43.54666" lon="1.47844">
        <ele>225.288</ele>
        <time>2020-03-29T14:01:34Z</time>
      </trkpt>
      <trkpt lat="43.54673" lon="1.47843">
        <ele>225.149</ele>
        <time>2020-03-29T14:01:40Z</time>
      </trkpt>
      <trkpt lat="43.54676" lon="1.47844">
        <ele>225.031</ele>
        <time>2020-03-29T14:01:45Z</time>
      </trkpt>
      <trkpt lat="43.54682" lon="1.47847">
        <ele>224.883</ele>
        <time>2020-03-29T14:01:51Z</time>
      </trkpt>
      <trkpt lat="43.54687" lon="1.47852">
        <ele>224.737</ele>
        <time>2020-03-29T14:01:57Z</time>
      </trkpt>
      <trkpt lat="43.54693" lon="1.47853">
        <ele>224.585</ele>
        <time>2020-03-29T14:02:03Z</time>
      </trkpt>
      <trkpt lat="43.54698" lon="1.47855">
        <ele>224.424</ele>
        <time>2020-03-29T14:02:09Z</time>
      </trkpt>
      <trkpt lat="43.54704" lon="1.47858">
        <ele>224.259</ele>
        <time>2020-03-29T14:02:15Z</time>
      </trkpt>
      <trkpt lat="43.54707" lon="1.4786">
        <ele>224.15</ele>
        <time>2020-03-29T14:02:20Z</time>
      </trkpt>
      <trkpt lat="43.54716" lon="1.47859">
        <ele>223.991</ele>
        <time>2020-03-29T14:02:26Z</time>
      </trkpt>
      <trkpt lat="43.54725" lon="1.47858">
        <ele>223.827</ele>
        <time>2020-03-29T14:02:32Z</time>
      </trkpt>
      <trkpt lat="43.54728" lon="1.47857">
        <ele>223.7</ele>
        <time>2020-03-29T14:02:37Z</time>
      </trkpt>
      <trkpt lat="43.54734" lon="1.47857">
        <ele>223.551</ele>
        <time>2020-03-29T14:02:43Z</time>
      </trkpt>
      <trkpt lat="43.5474" lon="1.47855">
        <ele>223.422</ele>
        <time>2020-03-29T14:02:48Z</time>
      </trkpt>
      <trkpt lat="43.54744" lon="1.47856">
        <ele>223.282</ele>
        <time>2020-03-29T14:02:54Z</time>
      </trkpt>
      <trkpt lat="43.54749" lon="1.47857">
        <ele>223.154</ele>
        <time>2020-03-29T14:03:00Z</time>
      </trkpt>
      <trkpt lat="43.54753" lon="1.47852">
        <ele>223.059</ele>
        <time>2020-03-29T14:03:05Z</time>
      </trkpt>
      <trkpt lat="43.54756" lon="1.4785">
        <ele>222.956</ele>
        <time>2020-03-29T14:03:11Z</time>
      </trkpt>
      <trkpt lat="43.5476" lon="1.47844">
        <ele>222.862</ele>
        <time>2020-03-29T14:03:17Z</time>
      </trkpt>
      <trkpt lat="43.54762" lon="1.47839">
        <ele>222.787</ele>
        <time>2020-03-29T14:03:22Z</time>
      </trkpt>
      <trkpt lat="43.54765" lon="1.47832">
        <ele>222.713</ele>
        <time>2020-03-29T14:03:28Z</time>
      </trkpt>
      <trkpt lat="43.54768" lon="1.47827">
        <ele>222.637</ele>
        <time>2020-03-29T14:03:34Z</time>
      </trkpt>
      <trkpt lat="43.54771" lon="1.47821">
        <ele>222.587</ele>
        <time>2020-03-29T14:03:40Z</time>
      </trkpt>
      <trkpt lat="43.54773" lon="1.47817">
        <ele>222.522</ele>
        <time>2020-03-29T14:03:45Z</time>
      </trkpt>
      <trkpt lat="43.54776" lon="1.47811">
        <ele>222.422</ele>
        <time>2020-03-29T14:03:50Z</time>
      </trkpt>
      <trkpt lat="43.54782" lon="1.47808">
        <ele>222.31</ele>
        <time>2020-03-29T14:03:56Z</time>
      </trkpt>
      <trkpt lat="43.5478" lon="1.47803">
        <ele>222.227</ele>
        <time>2020-03-29T14:04:01Z</time>
      </trkpt>
      <trkpt lat="43.54784" lon="1.47797">
        <ele>222.136</ele>
        <time>2020-03-29T14:04:07Z</time>
      </trkpt>
      <trkpt lat="43.54789" lon="1.47792">
        <ele>222.06</ele>
        <time>2020-03-29T14:04:12Z</time>
      </trkpt>
      <trkpt lat="43.54796" lon="1.4779">
        <ele>221.965</ele>
        <time>2020-03-29T14:04:18Z</time>
      </trkpt>
      <trkpt lat="43.54805" lon="1.47791">
        <ele>221.871</ele>
        <time>2020-03-29T14:04:24Z</time>
      </trkpt>
      <trkpt lat="43.54813" lon="1.47787">
        <ele>221.777</ele>
        <time>2020-03-29T14:04:30Z</time>
      </trkpt>
      <trkpt lat="43.54817" lon="1.47785">
        <ele>221.697</ele>
        <time>2020-03-29T14:04:35Z</time>
      </trkpt>
      <trkpt lat="43.54823" lon="1.4778">
        <ele>221.598</ele>
        <time>2020-03-29T14:04:41Z</time>
      </trkpt>
      <trkpt lat="43.54829" lon="1.47777">
        <ele>221.494</ele>
        <time>2020-03-29T14:04:47Z</time>
      </trkpt>
      <trkpt lat="43.54834" lon="1.47774">
        <ele>221.403</ele>
        <time>2020-03-29T14:04:52Z</time>
      </trkpt>
      <trkpt lat="43.5484" lon="1.47772">
        <ele>221.317</ele>
        <time>2020-03-29T14:04:57Z</time>
      </trkpt>
      <trkpt lat="43.54848" lon="1.47766">
        <ele>221.213</ele>
        <time>2020-03-29T14:05:03Z</time>
      </trkpt>
      <trkpt lat="43.54853" lon="1.47764">
        <ele>221.114</ele>
        <time>2020-03-29T14:05:09Z</time>
      </trkpt>
      <trkpt lat="43.54856" lon="1.47762">
        <ele>221.036</ele>
        <time>2020-03-29T14:05:14Z</time>
      </trkpt>
      <trkpt lat="43.5486" lon="1.47759">
        <ele>220.943</ele>
        <time>2020-03-29T14:05:20Z</time>
      </trkpt>
      <trkpt lat="43.54867" lon="1.47756">
        <ele>220.854</ele>
        <time>2020-03-29T14:05:26Z</time>
      </trkpt>
      <trkpt lat="43.54874" lon="1.47754">
        <ele>220.772</ele>
        <time>2020-03-29T14:05:32Z</time>
      </trkpt>
      <trkpt lat="43.5488" lon="1.47751">
        <ele>220.695</ele>
        <time>2020-03-29T14:05:38Z</time>
      </trkpt>
      <trkpt lat="43.54886" lon="1.47748">
        <ele>220.624</ele>
        <time>2020-03-29T14:05:44Z</time>
      </trkpt>
      <trkpt lat="43.54893" lon="1.47742">
        <ele>220.571</ele>
        <time>2020-03-29T14:05:49Z</time>
      </trkpt>
      <trkpt lat="43.54899" lon="1.47738">
        <ele>220.51</ele>
        <time>2020-03-29T14:05:55Z</time>
      </trkpt>
      <trkpt lat="43.54902" lon="1.47734">
        <ele>220.461</ele>
        <time>2020-03-29T14:06:00Z</time>
      </trkpt>
      <trkpt lat="43.54906" lon="1.47733">
        <ele>220.404</ele>
        <time>2020-03-29T14:06:06Z</time>
      </trkpt>
      <trkpt lat="43.5491" lon="1.47731">
        <ele>220.344</ele>
        <time>2020-03-29T14:06:12Z</time>
      </trkpt>
      <trkpt lat="43.54918" lon="1.47731">
        <ele>220.283</ele>
        <time>2020-03-29T14:06:18Z</time>
      </trkpt>
      <trkpt lat="43.54923" lon="1.4773">
        <ele>220.23</ele>
        <time>2020-03-29T14:06:23Z</time>
      </trkpt>
      <trkpt lat="43.54927" lon="1.47729">
        <ele>220.179</ele>
        <time>2020-03-29T14:06:28Z</time>
      </trkpt>
      <trkpt lat="43.54931" lon="1.47727">
        <ele>220.131</ele>
        <time>2020-03-29T14:06:33Z</time>
      </trkpt>
      <trkpt lat="43.54937" lon="1.47725">
        <ele>220.076</ele>
        <time>2020-03-29T14:06:39Z</time>
      </trkpt>
      <trkpt lat="43.54941" lon="1.47722">
        <ele>220.025</ele>
        <time>2020-03-29T14:06:44Z</time>
      </trkpt>
      <trkpt lat="43.54948" lon="1.47719">
        <ele>219.962</ele>
        <time>2020-03-29T14:06:50Z</time>
      </trkpt>
      <trkpt lat="43.54957" lon="1.47717">
        <ele>219.903</ele>
        <time>2020-03-29T14:06:56Z</time>
      </trkpt>
      <trkpt lat="43.54961" lon="1.47713">
        <ele>219.842</ele>
        <time>2020-03-29T14:07:02Z</time>
      </trkpt>
      <trkpt lat="43.54966" lon="1.4771">
        <ele>219.786</ele>
        <time>2020-03-29T14:07:07Z</time>
      </trkpt>
      <trkpt lat="43.54971" lon="1.47706">
        <ele>219.725</ele>
        <time>2020-03-29T14:07:12Z</time>
      </trkpt>
      <trkpt lat="43.54978" lon="1.47702">
        <ele>219.646</ele>
        <time>2020-03-29T14:07:18Z</time>
      </trkpt>
      <trkpt lat="43.54984" lon="1.47701">
        <ele>219.581</ele>
        <time>2020-03-29T14:07:23Z</time>
      </trkpt>
      <trkpt lat="43.54988" lon="1.47699">
        <ele>219.505</ele>
        <time>2020-03-29T14:07:29Z</time>
      </trkpt>
      <trkpt lat="43.54994" lon="1.47695">
        <ele>219.425</ele>
        <time>2020-03-29T14:07:35Z</time>
      </trkpt>
      <trkpt lat="43.54998" lon="1.47694">
        <ele>219.361</ele>
        <time>2020-03-29T14:07:40Z</time>
      </trkpt>
      <trkpt lat="43.55002" lon="1.4769">
        <ele>219.291</ele>
        <time>2020-03-29T14:07:46Z</time>
      </trkpt>
      <trkpt lat="43.5501" lon="1.47685">
        <ele>219.222</ele>
        <time>2020-03-29T14:07:52Z</time>
      </trkpt>
      <trkpt lat="43.55016" lon="1.47682">
        <ele>219.158</ele>
        <time>2020-03-29T14:07:58Z</time>
      </trkpt>
      <trkpt lat="43.55022" lon="1.4768">
        <ele>219.098</ele>
        <time>2020-03-29T14:08:04Z</time>
      </trkpt>
      <trkpt lat="43.55026" lon="1.47679">
        <ele>219.076</ele>
        <time>2020-03-29T14:08:10Z</time>
      </trkpt>
      <trkpt lat="43.55027" lon="1.47679">
        <ele>219.071</ele>
        <time>2020-03-29T14:08:16Z</time>
      </trkpt>
      <trkpt lat="43.55027" lon="1.47678">
        <ele>219.066</ele>
        <time>2020-03-29T14:08:22Z</time>
      </trkpt>
      <trkpt lat="43.55027" lon="1.47678">
        <ele>219.06</ele>
        <time>2020-03-29T14:08:28Z</time>
      </trkpt>
      <trkpt lat="43.55027" lon="1.47677">
        <ele>219.055</ele>
        <time>2020-03-29T14:08:33Z</time>
      </trkpt>
      <trkpt lat="43.55027" lon="1.47677">
        <ele>219.048</ele>
        <time>2020-03-29T14:08:39Z</time>
      </trkpt>
      <trkpt lat="43.55029" lon="1.47675">
        <ele>219.006</ele>
        <time>2020-03-29T14:08:45Z</time>
      </trkpt>
      <trkpt lat="43.55028" lon="1.47676">
        <ele>218.997</ele>
        <time>2020-03-29T14:08:51Z</time>
      </trkpt>
      <trkpt lat="43.55028" lon="1.47676">
        <ele>218.989</ele>
        <time>2020-03-29T14:08:56Z</time>
      </trkpt>
      <trkpt lat="43.55028" lon="1.47677">
        <ele>218.979</ele>
        <time>2020-03-29T14:09:01Z</time>
      </trkpt>
      <trkpt lat="43.55028" lon="1.47677">
        <ele>218.969</ele>
        <time>2020-03-29T14:09:06Z</time>
      </trkpt>
      <trkpt lat="43.55028" lon="1.47677">
        <ele>218.957</ele>
        <time>2020-03-29T14:09:12Z</time>
      </trkpt>
      <trkpt lat="43.55029" lon="1.47677">
        <ele>218.944</ele>
        <time>2020-03-29T14:09:18Z</time>
      </trkpt>
      <trkpt lat="43.55029" lon="1.47677">
        <ele>218.934</ele>
        <time>2020-03-29T14:09:23Z</time>
      </trkpt>
      <trkpt lat="43.55029" lon="1.47677">
        <ele>218.921</ele>
        <time>2020-03-29T14:09:29Z</time>
      </trkpt>
      <trkpt lat="43.5503" lon="1.47678">
        <ele>218.872</ele>
        <time>2020-03-29T14:09:35Z</time>
      </trkpt>
      <trkpt lat="43.55029" lon="1.47677">
        <ele>218.844</ele>
        <time>2020-03-29T14:09:40Z</time>
      </trkpt>
      <trkpt lat="43.55029" lon="1.47677">
        <ele>218.834</ele>
        <time>2020-03-29T14:09:45Z</time>
      </trkpt>
      <trkpt lat="43.5503" lon="1.47676">
        <ele>218.805</ele>
        <time>2020-03-29T14:09:50Z</time>
      </trkpt>
      <trkpt lat="43.5503" lon="1.47676">
        <ele>218.724</ele>
        <time>2020-03-29T14:09:55Z</time>
      </trkpt>
      <trkpt lat="43.5503" lon="1.47676">
        <ele>218.696</ele>
        <time>2020-03-29T14:10:01Z</time>
      </trkpt>
      <trkpt lat="43.55031" lon="1.47676">
        <ele>218.686</ele>
        <time>2020-03-29T14:10:07Z</time>
      </trkpt>
      <trkpt lat="43.55031" lon="1.47676">
        <ele>218.68</ele>
        <time>2020-03-29T14:10:12Z</time>
      </trkpt>
      <trkpt lat="43.55031" lon="1.47676">
        <ele>218.672</ele>
        <time>2020-03-29T14:10:18Z</time>
      </trkpt>
      <trkpt lat="43.55031" lon="1.47676">
        <ele>218.665</ele>
        <time>2020-03-29T14:10:23Z</time>
      </trkpt>
      <trkpt lat="43.55031" lon="1.47676">
        <ele>218.646</ele>
        <time>2020-03-29T14:10:29Z</time>
      </trkpt>
      <trkpt lat="43.55032" lon="1.47675">
        <ele>218.606</ele>
        <time>2020-03-29T14:10:34Z</time>
      </trkpt>
      <trkpt lat="43.55032" lon="1.47675">
        <ele>218.597</ele>
        <time>2020-03-29T14:10:40Z</time>
      </trkpt>
      <trkpt lat="43.55032" lon="1.47675">
        <ele>218.588</ele>
        <time>2020-03-29T14:10:46Z</time>
      </trkpt>
      <trkpt lat="43.55032" lon="1.47674">
        <ele>218.538</ele>
        <time>2020-03-29T14:10:51Z</time>
      </trkpt>
      <trkpt lat="43.55032" lon="1.47673">
        <ele>218.516</ele>
        <time>2020-03-29T14:10:57Z</time>
      </trkpt>
      <trkpt lat="43.55032" lon="1.47673">
        <ele>218.509</ele>
        <time>2020-03-29T14:11:02Z</time>
      </trkpt>
      <trkpt lat="43.55032" lon="1.47673">
        <ele>218.5</ele>
        <time>2020-03-29T14:11:08Z</time>
      </trkpt>
      <trkpt lat="43.55032" lon="1.47673">
        <ele>218.494</ele>
        <time>2020-03-29T14:11:13Z</time>
      </trkpt>
      <trkpt lat="43.55032" lon="1.47673">
        <ele>218.488</ele>
        <time>2020-03-29T14:11:19Z</time>
      </trkpt>
      <trkpt lat="43.55033" lon="1.47672">
        <ele>218.473</ele>
        <time>2020-03-29T14:11:24Z</time>
      </trkpt>
      <trkpt lat="43.55033" lon="1.47672">
        <ele>218.467</ele>
        <time>2020-03-29T14:11:30Z</time>
      </trkpt>
      <trkpt lat="43.55033" lon="1.47672">
        <ele>218.461</ele>
        <time>2020-03-29T14:11:36Z</time>
      </trkpt>
      <trkpt lat="43.55033" lon="1.47672">
        <ele>218.456</ele>
        <time>2020-03-29T14:11:42Z</time>
      </trkpt>
      <trkpt lat="43.55034" lon="1.47671">
        <ele>218.415</ele>
        <time>2020-03-29T14:11:48Z</time>
      </trkpt>
      <trkpt lat="43.55034" lon="1.47671">
        <ele>218.384</ele>
        <time>2020-03-29T14:11:53Z</time>
      </trkpt>
      <trkpt lat="43.55038" lon="1.47674">
        <ele>218.359</ele>
        <time>2020-03-29T14:11:58Z</time>
      </trkpt>
      <trkpt lat="43.55041" lon="1.47681">
        <ele>218.343</ele>
        <time>2020-03-29T14:12:03Z</time>
      </trkpt>
      <trkpt lat="43.55041" lon="1.47681">
        <ele>218.337</ele>
        <time>2020-03-29T14:12:09Z</time>
      </trkpt>
      <trkpt lat="43.5504" lon="1.47681">
        <ele>218.33</ele>
        <time>2020-03-29T14:12:14Z</time>
      </trkpt>
      <trkpt lat="43.5501" lon="1.47805">
        <ele>153.4</ele>
      </trkpt>
      <trkpt lat="43.55008" lon="1.47803">
        <ele>153.4</ele>
      </trkpt>
      <trkpt lat="43.5502" lon="1.47806">
        <ele>153.3</ele>
      </trkpt>
    </trkseg>
  </trk>
  <trk>
    <name><![CDATA[28 mars]]></name>
    <trkseg>
      <trkpt lat="43.55025" lon="1.47672">
        <ele>216.232</ele>
        <time>2020-03-28T16:31:24Z</time>
      </trkpt>
      <trkpt lat="43.55023" lon="1.47675">
        <ele>209.199</ele>
        <time>2020-03-28T16:31:29Z</time>
      </trkpt>
      <trkpt lat="43.55021" lon="1.47677">
        <ele>209.543</ele>
        <time>2020-03-28T16:31:34Z</time>
      </trkpt>
      <trkpt lat="43.55015" lon="1.4768">
        <ele>210.772</ele>
        <time>2020-03-28T16:31:39Z</time>
      </trkpt>
      <trkpt lat="43.55007" lon="1.47682">
        <ele>209.672</ele>
        <time>2020-03-28T16:31:45Z</time>
      </trkpt>
      <trkpt lat="43.55005" lon="1.47682">
        <ele>210.301</ele>
        <time>2020-03-28T16:31:51Z</time>
      </trkpt>
      <trkpt lat="43.55" lon="1.47686">
        <ele>210.329</ele>
        <time>2020-03-28T16:31:56Z</time>
      </trkpt>
      <trkpt lat="43.54993" lon="1.47691">
        <ele>210.256</ele>
        <time>2020-03-28T16:32:02Z</time>
      </trkpt>
      <trkpt lat="43.54988" lon="1.47694">
        <ele>210.174</ele>
        <time>2020-03-28T16:32:08Z</time>
      </trkpt>
      <trkpt lat="43.54984" lon="1.47699">
        <ele>210.12</ele>
        <time>2020-03-28T16:32:13Z</time>
      </trkpt>
      <trkpt lat="43.54978" lon="1.47703">
        <ele>210.042</ele>
        <time>2020-03-28T16:32:19Z</time>
      </trkpt>
      <trkpt lat="43.54972" lon="1.47706">
        <ele>209.953</ele>
        <time>2020-03-28T16:32:24Z</time>
      </trkpt>
      <trkpt lat="43.54968" lon="1.47708">
        <ele>209.859</ele>
        <time>2020-03-28T16:32:29Z</time>
      </trkpt>
      <trkpt lat="43.54961" lon="1.47711">
        <ele>209.74</ele>
        <time>2020-03-28T16:32:35Z</time>
      </trkpt>
      <trkpt lat="43.54956" lon="1.47714">
        <ele>209.614</ele>
        <time>2020-03-28T16:32:41Z</time>
      </trkpt>
      <trkpt lat="43.54951" lon="1.47719">
        <ele>209.52</ele>
        <time>2020-03-28T16:32:46Z</time>
      </trkpt>
      <trkpt lat="43.54945" lon="1.47722">
        <ele>209.405</ele>
        <time>2020-03-28T16:32:52Z</time>
      </trkpt>
      <trkpt lat="43.54937" lon="1.47726">
        <ele>209.249</ele>
        <time>2020-03-28T16:32:58Z</time>
      </trkpt>
      <trkpt lat="43.5493" lon="1.4773">
        <ele>209.119</ele>
        <time>2020-03-28T16:33:03Z</time>
      </trkpt>
      <trkpt lat="43.54923" lon="1.47734">
        <ele>208.995</ele>
        <time>2020-03-28T16:33:09Z</time>
      </trkpt>
      <trkpt lat="43.54918" lon="1.47737">
        <ele>208.896</ele>
        <time>2020-03-28T16:33:14Z</time>
      </trkpt>
      <trkpt lat="43.54911" lon="1.47742">
        <ele>208.756</ele>
        <time>2020-03-28T16:33:20Z</time>
      </trkpt>
      <trkpt lat="43.54904" lon="1.47746">
        <ele>208.624</ele>
        <time>2020-03-28T16:33:26Z</time>
      </trkpt>
      <trkpt lat="43.54895" lon="1.4775">
        <ele>208.526</ele>
        <time>2020-03-28T16:33:32Z</time>
      </trkpt>
      <trkpt lat="43.54886" lon="1.47756">
        <ele>208.458</ele>
        <time>2020-03-28T16:33:38Z</time>
      </trkpt>
      <trkpt lat="43.54881" lon="1.4776">
        <ele>208.402</ele>
        <time>2020-03-28T16:33:43Z</time>
      </trkpt>
      <trkpt lat="43.54878" lon="1.47762">
        <ele>208.342</ele>
        <time>2020-03-28T16:33:48Z</time>
      </trkpt>
      <trkpt lat="43.54874" lon="1.47764">
        <ele>208.301</ele>
        <time>2020-03-28T16:33:53Z</time>
      </trkpt>
      <trkpt lat="43.54867" lon="1.47766">
        <ele>208.269</ele>
        <time>2020-03-28T16:33:59Z</time>
      </trkpt>
      <trkpt lat="43.54863" lon="1.47767">
        <ele>208.252</ele>
        <time>2020-03-28T16:34:04Z</time>
      </trkpt>
      <trkpt lat="43.54858" lon="1.47772">
        <ele>208.238</ele>
        <time>2020-03-28T16:34:10Z</time>
      </trkpt>
      <trkpt lat="43.54853" lon="1.47775">
        <ele>208.236</ele>
        <time>2020-03-28T16:34:15Z</time>
      </trkpt>
      <trkpt lat="43.54848" lon="1.47777">
        <ele>208.24</ele>
        <time>2020-03-28T16:34:21Z</time>
      </trkpt>
      <trkpt lat="43.54843" lon="1.47779">
        <ele>208.239</ele>
        <time>2020-03-28T16:34:26Z</time>
      </trkpt>
      <trkpt lat="43.54836" lon="1.47783">
        <ele>208.257</ele>
        <time>2020-03-28T16:34:32Z</time>
      </trkpt>
      <trkpt lat="43.54831" lon="1.47786">
        <ele>208.286</ele>
        <time>2020-03-28T16:34:37Z</time>
      </trkpt>
      <trkpt lat="43.54824" lon="1.47789">
        <ele>208.323</ele>
        <time>2020-03-28T16:34:42Z</time>
      </trkpt>
      <trkpt lat="43.54818" lon="1.47793">
        <ele>208.365</ele>
        <time>2020-03-28T16:34:48Z</time>
      </trkpt>
      <trkpt lat="43.54811" lon="1.47801">
        <ele>208.41</ele>
        <time>2020-03-28T16:34:53Z</time>
      </trkpt>
      <trkpt lat="43.54806" lon="1.47806">
        <ele>208.482</ele>
        <time>2020-03-28T16:34:59Z</time>
      </trkpt>
      <trkpt lat="43.54803" lon="1.47805">
        <ele>208.565</ele>
        <time>2020-03-28T16:35:05Z</time>
      </trkpt>
      <trkpt lat="43.54798" lon="1.4781">
        <ele>208.654</ele>
        <time>2020-03-28T16:35:10Z</time>
      </trkpt>
      <trkpt lat="43.54792" lon="1.47814">
        <ele>208.737</ele>
        <time>2020-03-28T16:35:16Z</time>
      </trkpt>
      <trkpt lat="43.54785" lon="1.47824">
        <ele>208.796</ele>
        <time>2020-03-28T16:35:22Z</time>
      </trkpt>
      <trkpt lat="43.54782" lon="1.47831">
        <ele>208.85</ele>
        <time>2020-03-28T16:35:27Z</time>
      </trkpt>
      <trkpt lat="43.54777" lon="1.47837">
        <ele>208.9</ele>
        <time>2020-03-28T16:35:33Z</time>
      </trkpt>
      <trkpt lat="43.54771" lon="1.47842">
        <ele>208.945</ele>
        <time>2020-03-28T16:35:39Z</time>
      </trkpt>
      <trkpt lat="43.54766" lon="1.47845">
        <ele>209.002</ele>
        <time>2020-03-28T16:35:44Z</time>
      </trkpt>
      <trkpt lat="43.54762" lon="1.47848">
        <ele>209.05</ele>
        <time>2020-03-28T16:35:49Z</time>
      </trkpt>
      <trkpt lat="43.54758" lon="1.47854">
        <ele>209.093</ele>
        <time>2020-03-28T16:35:55Z</time>
      </trkpt>
      <trkpt lat="43.54754" lon="1.47865">
        <ele>209.122</ele>
        <time>2020-03-28T16:36:01Z</time>
      </trkpt>
      <trkpt lat="43.54752" lon="1.47872">
        <ele>209.148</ele>
        <time>2020-03-28T16:36:06Z</time>
      </trkpt>
      <trkpt lat="43.54752" lon="1.47886">
        <ele>209.184</ele>
        <time>2020-03-28T16:36:12Z</time>
      </trkpt>
      <trkpt lat="43.54756" lon="1.47897">
        <ele>209.235</ele>
        <time>2020-03-28T16:36:18Z</time>
      </trkpt>
      <trkpt lat="43.54759" lon="1.47907">
        <ele>209.293</ele>
        <time>2020-03-28T16:36:24Z</time>
      </trkpt>
      <trkpt lat="43.54762" lon="1.47914">
        <ele>209.34</ele>
        <time>2020-03-28T16:36:29Z</time>
      </trkpt>
      <trkpt lat="43.54764" lon="1.47919">
        <ele>209.387</ele>
        <time>2020-03-28T16:36:35Z</time>
      </trkpt>
      <trkpt lat="43.54767" lon="1.47927">
        <ele>209.417</ele>
        <time>2020-03-28T16:36:41Z</time>
      </trkpt>
      <trkpt lat="43.54769" lon="1.47936">
        <ele>209.436</ele>
        <time>2020-03-28T16:36:47Z</time>
      </trkpt>
      <trkpt lat="43.54771" lon="1.47944">
        <ele>209.437</ele>
        <time>2020-03-28T16:36:53Z</time>
      </trkpt>
      <trkpt lat="43.54775" lon="1.47951">
        <ele>209.43</ele>
        <time>2020-03-28T16:36:58Z</time>
      </trkpt>
      <trkpt lat="43.54779" lon="1.4796">
        <ele>209.424</ele>
        <time>2020-03-28T16:37:04Z</time>
      </trkpt>
      <trkpt lat="43.54782" lon="1.47966">
        <ele>209.413</ele>
        <time>2020-03-28T16:37:09Z</time>
      </trkpt>
      <trkpt lat="43.54786" lon="1.47975">
        <ele>209.368</ele>
        <time>2020-03-28T16:37:15Z</time>
      </trkpt>
      <trkpt lat="43.54789" lon="1.47983">
        <ele>209.307</ele>
        <time>2020-03-28T16:37:20Z</time>
      </trkpt>
      <trkpt lat="43.54791" lon="1.47991">
        <ele>209.226</ele>
        <time>2020-03-28T16:37:26Z</time>
      </trkpt>
      <trkpt lat="43.54795" lon="1.48">
        <ele>209.149</ele>
        <time>2020-03-28T16:37:32Z</time>
      </trkpt>
      <trkpt lat="43.54799" lon="1.48007">
        <ele>209.08</ele>
        <time>2020-03-28T16:37:38Z</time>
      </trkpt>
      <trkpt lat="43.54801" lon="1.48015">
        <ele>209.031</ele>
        <time>2020-03-28T16:37:43Z</time>
      </trkpt>
      <trkpt lat="43.54803" lon="1.48023">
        <ele>208.988</ele>
        <time>2020-03-28T16:37:48Z</time>
      </trkpt>
      <trkpt lat="43.54806" lon="1.48032">
        <ele>208.934</ele>
        <time>2020-03-28T16:37:54Z</time>
      </trkpt>
      <trkpt lat="43.54809" lon="1.48038">
        <ele>208.891</ele>
        <time>2020-03-28T16:38:00Z</time>
      </trkpt>
      <trkpt lat="43.54812" lon="1.48044">
        <ele>208.87</ele>
        <time>2020-03-28T16:38:05Z</time>
      </trkpt>
      <trkpt lat="43.54814" lon="1.48052">
        <ele>208.849</ele>
        <time>2020-03-28T16:38:10Z</time>
      </trkpt>
      <trkpt lat="43.54817" lon="1.48061">
        <ele>208.823</ele>
        <time>2020-03-28T16:38:16Z</time>
      </trkpt>
      <trkpt lat="43.5482" lon="1.48069">
        <ele>208.804</ele>
        <time>2020-03-28T16:38:21Z</time>
      </trkpt>
      <trkpt lat="43.54823" lon="1.48078">
        <ele>208.781</ele>
        <time>2020-03-28T16:38:27Z</time>
      </trkpt>
      <trkpt lat="43.54824" lon="1.48086">
        <ele>208.755</ele>
        <time>2020-03-28T16:38:33Z</time>
      </trkpt>
      <trkpt lat="43.54827" lon="1.48094">
        <ele>208.723</ele>
        <time>2020-03-28T16:38:39Z</time>
      </trkpt>
      <trkpt lat="43.5483" lon="1.48102">
        <ele>208.694</ele>
        <time>2020-03-28T16:38:44Z</time>
      </trkpt>
      <trkpt lat="43.54832" lon="1.48113">
        <ele>208.664</ele>
        <time>2020-03-28T16:38:50Z</time>
      </trkpt>
      <trkpt lat="43.54836" lon="1.4812">
        <ele>208.629</ele>
        <time>2020-03-28T16:38:56Z</time>
      </trkpt>
      <trkpt lat="43.54838" lon="1.48128">
        <ele>208.595</ele>
        <time>2020-03-28T16:39:01Z</time>
      </trkpt>
      <trkpt lat="43.5484" lon="1.48137">
        <ele>208.553</ele>
        <time>2020-03-28T16:39:07Z</time>
      </trkpt>
      <trkpt lat="43.54843" lon="1.48146">
        <ele>208.514</ele>
        <time>2020-03-28T16:39:13Z</time>
      </trkpt>
      <trkpt lat="43.54845" lon="1.48153">
        <ele>208.48</ele>
        <time>2020-03-28T16:39:18Z</time>
      </trkpt>
      <trkpt lat="43.54848" lon="1.48161">
        <ele>208.435</ele>
        <time>2020-03-28T16:39:24Z</time>
      </trkpt>
      <trkpt lat="43.5485" lon="1.48167">
        <ele>208.39</ele>
        <time>2020-03-28T16:39:29Z</time>
      </trkpt>
      <trkpt lat="43.54851" lon="1.48175">
        <ele>208.342</ele>
        <time>2020-03-28T16:39:34Z</time>
      </trkpt>
      <trkpt lat="43.54852" lon="1.48182">
        <ele>208.293</ele>
        <time>2020-03-28T16:39:39Z</time>
      </trkpt>
      <trkpt lat="43.54856" lon="1.48189">
        <ele>208.235</ele>
        <time>2020-03-28T16:39:45Z</time>
      </trkpt>
      <trkpt lat="43.54859" lon="1.48198">
        <ele>208.182</ele>
        <time>2020-03-28T16:39:51Z</time>
      </trkpt>
      <trkpt lat="43.54861" lon="1.48206">
        <ele>208.126</ele>
        <time>2020-03-28T16:39:57Z</time>
      </trkpt>
      <trkpt lat="43.54864" lon="1.48211">
        <ele>208.069</ele>
        <time>2020-03-28T16:40:02Z</time>
      </trkpt>
      <trkpt lat="43.54868" lon="1.48219">
        <ele>207.988</ele>
        <time>2020-03-28T16:40:08Z</time>
      </trkpt>
      <trkpt lat="43.5487" lon="1.48226">
        <ele>207.904</ele>
        <time>2020-03-28T16:40:14Z</time>
      </trkpt>
      <trkpt lat="43.54873" lon="1.48234">
        <ele>207.824</ele>
        <time>2020-03-28T16:40:19Z</time>
      </trkpt>
      <trkpt lat="43.54874" lon="1.48243">
        <ele>207.729</ele>
        <time>2020-03-28T16:40:25Z</time>
      </trkpt>
      <trkpt lat="43.54876" lon="1.4825">
        <ele>207.651</ele>
        <time>2020-03-28T16:40:30Z</time>
      </trkpt>
      <trkpt lat="43.5488" lon="1.48254">
        <ele>207.57</ele>
        <time>2020-03-28T16:40:35Z</time>
      </trkpt>
      <trkpt lat="43.54883" lon="1.4826">
        <ele>207.48</ele>
        <time>2020-03-28T16:40:40Z</time>
      </trkpt>
      <trkpt lat="43.54886" lon="1.48269">
        <ele>207.365</ele>
        <time>2020-03-28T16:40:46Z</time>
      </trkpt>
      <trkpt lat="43.54887" lon="1.48277">
        <ele>207.267</ele>
        <time>2020-03-28T16:40:51Z</time>
      </trkpt>
      <trkpt lat="43.54889" lon="1.48288">
        <ele>207.154</ele>
        <time>2020-03-28T16:40:57Z</time>
      </trkpt>
      <trkpt lat="43.54892" lon="1.48297">
        <ele>207.072</ele>
        <time>2020-03-28T16:41:02Z</time>
      </trkpt>
      <trkpt lat="43.54894" lon="1.48304">
        <ele>206.994</ele>
        <time>2020-03-28T16:41:07Z</time>
      </trkpt>
      <trkpt lat="43.54897" lon="1.4831">
        <ele>206.903</ele>
        <time>2020-03-28T16:41:13Z</time>
      </trkpt>
      <trkpt lat="43.54902" lon="1.48315">
        <ele>206.841</ele>
        <time>2020-03-28T16:41:18Z</time>
      </trkpt>
      <trkpt lat="43.54905" lon="1.48321">
        <ele>206.77</ele>
        <time>2020-03-28T16:41:24Z</time>
      </trkpt>
      <trkpt lat="43.54909" lon="1.48329">
        <ele>206.689</ele>
        <time>2020-03-28T16:41:30Z</time>
      </trkpt>
      <trkpt lat="43.54913" lon="1.48335">
        <ele>206.607</ele>
        <time>2020-03-28T16:41:36Z</time>
      </trkpt>
      <trkpt lat="43.54916" lon="1.48341">
        <ele>206.53</ele>
        <time>2020-03-28T16:41:42Z</time>
      </trkpt>
      <trkpt lat="43.54922" lon="1.48343">
        <ele>206.477</ele>
        <time>2020-03-28T16:41:47Z</time>
      </trkpt>
      <trkpt lat="43.54924" lon="1.4835">
        <ele>206.406</ele>
        <time>2020-03-28T16:41:53Z</time>
      </trkpt>
      <trkpt lat="43.54927" lon="1.48356">
        <ele>206.335</ele>
        <time>2020-03-28T16:41:58Z</time>
      </trkpt>
      <trkpt lat="43.54929" lon="1.48363">
        <ele>206.245</ele>
        <time>2020-03-28T16:42:04Z</time>
      </trkpt>
      <trkpt lat="43.54933" lon="1.48371">
        <ele>206.167</ele>
        <time>2020-03-28T16:42:09Z</time>
      </trkpt>
      <trkpt lat="43.54936" lon="1.48378">
        <ele>206.076</ele>
        <time>2020-03-28T16:42:15Z</time>
      </trkpt>
      <trkpt lat="43.54939" lon="1.48377">
        <ele>205.991</ele>
        <time>2020-03-28T16:42:21Z</time>
      </trkpt>
      <trkpt lat="43.54943" lon="1.48375">
        <ele>205.916</ele>
        <time>2020-03-28T16:42:27Z</time>
      </trkpt>
      <trkpt lat="43.54947" lon="1.48374">
        <ele>205.842</ele>
        <time>2020-03-28T16:42:32Z</time>
      </trkpt>
      <trkpt lat="43.54953" lon="1.48377">
        <ele>205.749</ele>
        <time>2020-03-28T16:42:38Z</time>
      </trkpt>
      <trkpt lat="43.54958" lon="1.48385">
        <ele>205.64</ele>
        <time>2020-03-28T16:42:44Z</time>
      </trkpt>
      <trkpt lat="43.54961" lon="1.4839">
        <ele>205.539</ele>
        <time>2020-03-28T16:42:49Z</time>
      </trkpt>
      <trkpt lat="43.54965" lon="1.48398">
        <ele>205.409</ele>
        <time>2020-03-28T16:42:55Z</time>
      </trkpt>
      <trkpt lat="43.54968" lon="1.48405">
        <ele>205.272</ele>
        <time>2020-03-28T16:43:01Z</time>
      </trkpt>
      <trkpt lat="43.5497" lon="1.48412">
        <ele>205.156</ele>
        <time>2020-03-28T16:43:06Z</time>
      </trkpt>
      <trkpt lat="43.54971" lon="1.48419">
        <ele>205.025</ele>
        <time>2020-03-28T16:43:12Z</time>
      </trkpt>
      <trkpt lat="43.54974" lon="1.48425">
        <ele>204.926</ele>
        <time>2020-03-28T16:43:17Z</time>
      </trkpt>
      <trkpt lat="43.54974" lon="1.48432">
        <ele>204.837</ele>
        <time>2020-03-28T16:43:22Z</time>
      </trkpt>
      <trkpt lat="43.54972" lon="1.48438">
        <ele>204.743</ele>
        <time>2020-03-28T16:43:28Z</time>
      </trkpt>
      <trkpt lat="43.54968" lon="1.48443">
        <ele>204.672</ele>
        <time>2020-03-28T16:43:33Z</time>
      </trkpt>
      <trkpt lat="43.54962" lon="1.48447">
        <ele>204.595</ele>
        <time>2020-03-28T16:43:39Z</time>
      </trkpt>
      <trkpt lat="43.54962" lon="1.48452">
        <ele>204.527</ele>
        <time>2020-03-28T16:43:45Z</time>
      </trkpt>
      <trkpt lat="43.54961" lon="1.48458">
        <ele>204.472</ele>
        <time>2020-03-28T16:43:51Z</time>
      </trkpt>
      <trkpt lat="43.54963" lon="1.48452">
        <ele>204.426</ele>
        <time>2020-03-28T16:43:56Z</time>
      </trkpt>
      <trkpt lat="43.54968" lon="1.48449">
        <ele>204.391</ele>
        <time>2020-03-28T16:44:01Z</time>
      </trkpt>
      <trkpt lat="43.54975" lon="1.48444">
        <ele>204.355</ele>
        <time>2020-03-28T16:44:07Z</time>
      </trkpt>
      <trkpt lat="43.5498" lon="1.4844">
        <ele>204.335</ele>
        <time>2020-03-28T16:44:12Z</time>
      </trkpt>
      <trkpt lat="43.54984" lon="1.48437">
        <ele>204.318</ele>
        <time>2020-03-28T16:44:18Z</time>
      </trkpt>
      <trkpt lat="43.54988" lon="1.48434">
        <ele>204.305</ele>
        <time>2020-03-28T16:44:23Z</time>
      </trkpt>
      <trkpt lat="43.54992" lon="1.4843">
        <ele>204.29</ele>
        <time>2020-03-28T16:44:28Z</time>
      </trkpt>
      <trkpt lat="43.54996" lon="1.48429">
        <ele>204.271</ele>
        <time>2020-03-28T16:44:34Z</time>
      </trkpt>
      <trkpt lat="43.54999" lon="1.48431">
        <ele>204.233</ele>
        <time>2020-03-28T16:44:40Z</time>
      </trkpt>
      <trkpt lat="43.54998" lon="1.48436">
        <ele>204.182</ele>
        <time>2020-03-28T16:44:46Z</time>
      </trkpt>
      <trkpt lat="43.55002" lon="1.48441">
        <ele>204.125</ele>
        <time>2020-03-28T16:44:52Z</time>
      </trkpt>
      <trkpt lat="43.55006" lon="1.4845">
        <ele>204.068</ele>
        <time>2020-03-28T16:44:58Z</time>
      </trkpt>
      <trkpt lat="43.55007" lon="1.48456">
        <ele>204.026</ele>
        <time>2020-03-28T16:45:03Z</time>
      </trkpt>
      <trkpt lat="43.55009" lon="1.48464">
        <ele>203.981</ele>
        <time>2020-03-28T16:45:08Z</time>
      </trkpt>
      <trkpt lat="43.55012" lon="1.48474">
        <ele>203.927</ele>
        <time>2020-03-28T16:45:14Z</time>
      </trkpt>
      <trkpt lat="43.55012" lon="1.48484">
        <ele>203.878</ele>
        <time>2020-03-28T16:45:19Z</time>
      </trkpt>
      <trkpt lat="43.55016" lon="1.4849">
        <ele>203.83</ele>
        <time>2020-03-28T16:45:24Z</time>
      </trkpt>
      <trkpt lat="43.55017" lon="1.48494">
        <ele>203.783</ele>
        <time>2020-03-28T16:45:29Z</time>
      </trkpt>
      <trkpt lat="43.55018" lon="1.48492">
        <ele>203.721</ele>
        <time>2020-03-28T16:45:35Z</time>
      </trkpt>
      <trkpt lat="43.55019" lon="1.48491">
        <ele>203.672</ele>
        <time>2020-03-28T16:45:40Z</time>
      </trkpt>
      <trkpt lat="43.55024" lon="1.4849">
        <ele>203.602</ele>
        <time>2020-03-28T16:45:46Z</time>
      </trkpt>
      <trkpt lat="43.55034" lon="1.48483">
        <ele>203.546</ele>
        <time>2020-03-28T16:45:51Z</time>
      </trkpt>
      <trkpt lat="43.5504" lon="1.48479">
        <ele>203.492</ele>
        <time>2020-03-28T16:45:56Z</time>
      </trkpt>
      <trkpt lat="43.55046" lon="1.48475">
        <ele>203.441</ele>
        <time>2020-03-28T16:46:01Z</time>
      </trkpt>
      <trkpt lat="43.55051" lon="1.48473">
        <ele>203.381</ele>
        <time>2020-03-28T16:46:07Z</time>
      </trkpt>
      <trkpt lat="43.55053" lon="1.48472">
        <ele>203.34</ele>
        <time>2020-03-28T16:46:13Z</time>
      </trkpt>
      <trkpt lat="43.55055" lon="1.4847">
        <ele>203.296</ele>
        <time>2020-03-28T16:46:18Z</time>
      </trkpt>
      <trkpt lat="43.55057" lon="1.4847">
        <ele>203.238</ele>
        <time>2020-03-28T16:46:24Z</time>
      </trkpt>
      <trkpt lat="43.55058" lon="1.4847">
        <ele>203.207</ele>
        <time>2020-03-28T16:46:30Z</time>
      </trkpt>
      <trkpt lat="43.55063" lon="1.48477">
        <ele>203.156</ele>
        <time>2020-03-28T16:46:35Z</time>
      </trkpt>
      <trkpt lat="43.55067" lon="1.48487">
        <ele>203.066</ele>
        <time>2020-03-28T16:46:41Z</time>
      </trkpt>
      <trkpt lat="43.5507" lon="1.4849">
        <ele>202.965</ele>
        <time>2020-03-28T16:46:46Z</time>
      </trkpt>
      <trkpt lat="43.55076" lon="1.48497">
        <ele>202.839</ele>
        <time>2020-03-28T16:46:52Z</time>
      </trkpt>
      <trkpt lat="43.55081" lon="1.48505">
        <ele>202.707</ele>
        <time>2020-03-28T16:46:58Z</time>
      </trkpt>
      <trkpt lat="43.55083" lon="1.48514">
        <ele>202.603</ele>
        <time>2020-03-28T16:47:03Z</time>
      </trkpt>
      <trkpt lat="43.55084" lon="1.48524">
        <ele>202.486</ele>
        <time>2020-03-28T16:47:09Z</time>
      </trkpt>
      <trkpt lat="43.55086" lon="1.48534">
        <ele>202.374</ele>
        <time>2020-03-28T16:47:15Z</time>
      </trkpt>
      <trkpt lat="43.55087" lon="1.4854">
        <ele>202.282</ele>
        <time>2020-03-28T16:47:20Z</time>
      </trkpt>
      <trkpt lat="43.5509" lon="1.48547">
        <ele>202.176</ele>
        <time>2020-03-28T16:47:26Z</time>
      </trkpt>
      <trkpt lat="43.55093" lon="1.48553">
        <ele>202.076</ele>
        <time>2020-03-28T16:47:32Z</time>
      </trkpt>
      <trkpt lat="43.55094" lon="1.48559">
        <ele>201.996</ele>
        <time>2020-03-28T16:47:37Z</time>
      </trkpt>
      <trkpt lat="43.55096" lon="1.48563">
        <ele>201.915</ele>
        <time>2020-03-28T16:47:43Z</time>
      </trkpt>
      <trkpt lat="43.55099" lon="1.48568">
        <ele>201.837</ele>
        <time>2020-03-28T16:47:48Z</time>
      </trkpt>
      <trkpt lat="43.55101" lon="1.48571">
        <ele>201.784</ele>
        <time>2020-03-28T16:47:54Z</time>
      </trkpt>
      <trkpt lat="43.55101" lon="1.4858">
        <ele>201.706</ele>
        <time>2020-03-28T16:47:59Z</time>
      </trkpt>
      <trkpt lat="43.55101" lon="1.48585">
        <ele>201.628</ele>
        <time>2020-03-28T16:48:04Z</time>
      </trkpt>
      <trkpt lat="43.55103" lon="1.48593">
        <ele>201.549</ele>
        <time>2020-03-28T16:48:09Z</time>
      </trkpt>
      <trkpt lat="43.55108" lon="1.48603">
        <ele>201.472</ele>
        <time>2020-03-28T16:48:14Z</time>
      </trkpt>
      <trkpt lat="43.55112" lon="1.48609">
        <ele>201.392</ele>
        <time>2020-03-28T16:48:20Z</time>
      </trkpt>
      <trkpt lat="43.55114" lon="1.48618">
        <ele>201.314</ele>
        <time>2020-03-28T16:48:25Z</time>
      </trkpt>
      <trkpt lat="43.55116" lon="1.48622">
        <ele>201.249</ele>
        <time>2020-03-28T16:48:31Z</time>
      </trkpt>
      <trkpt lat="43.55119" lon="1.48624">
        <ele>201.183</ele>
        <time>2020-03-28T16:48:36Z</time>
      </trkpt>
      <trkpt lat="43.55123" lon="1.48628">
        <ele>201.099</ele>
        <time>2020-03-28T16:48:42Z</time>
      </trkpt>
      <trkpt lat="43.55127" lon="1.4864">
        <ele>201.017</ele>
        <time>2020-03-28T16:48:47Z</time>
      </trkpt>
      <trkpt lat="43.5513" lon="1.48644">
        <ele>200.936</ele>
        <time>2020-03-28T16:48:52Z</time>
      </trkpt>
      <trkpt lat="43.55133" lon="1.48646">
        <ele>200.885</ele>
        <time>2020-03-28T16:48:57Z</time>
      </trkpt>
      <trkpt lat="43.55137" lon="1.48652">
        <ele>200.789</ele>
        <time>2020-03-28T16:49:03Z</time>
      </trkpt>
      <trkpt lat="43.55141" lon="1.48659">
        <ele>200.712</ele>
        <time>2020-03-28T16:49:08Z</time>
      </trkpt>
      <trkpt lat="43.55146" lon="1.48668">
        <ele>200.637</ele>
        <time>2020-03-28T16:49:14Z</time>
      </trkpt>
      <trkpt lat="43.55146" lon="1.48676">
        <ele>200.554</ele>
        <time>2020-03-28T16:49:20Z</time>
      </trkpt>
      <trkpt lat="43.55148" lon="1.48686">
        <ele>200.491</ele>
        <time>2020-03-28T16:49:25Z</time>
      </trkpt>
      <trkpt lat="43.55151" lon="1.48695">
        <ele>200.421</ele>
        <time>2020-03-28T16:49:31Z</time>
      </trkpt>
      <trkpt lat="43.55153" lon="1.48703">
        <ele>200.35</ele>
        <time>2020-03-28T16:49:37Z</time>
      </trkpt>
      <trkpt lat="43.55156" lon="1.48709">
        <ele>200.286</ele>
        <time>2020-03-28T16:49:42Z</time>
      </trkpt>
      <trkpt lat="43.5516" lon="1.48716">
        <ele>200.205</ele>
        <time>2020-03-28T16:49:48Z</time>
      </trkpt>
      <trkpt lat="43.55171" lon="1.48723">
        <ele>200.149</ele>
        <time>2020-03-28T16:49:54Z</time>
      </trkpt>
      <trkpt lat="43.55173" lon="1.48725">
        <ele>200.105</ele>
        <time>2020-03-28T16:50:00Z</time>
      </trkpt>
      <trkpt lat="43.55172" lon="1.48728">
        <ele>200.075</ele>
        <time>2020-03-28T16:50:05Z</time>
      </trkpt>
      <trkpt lat="43.5517" lon="1.48734">
        <ele>200.046</ele>
        <time>2020-03-28T16:50:11Z</time>
      </trkpt>
      <trkpt lat="43.55166" lon="1.48741">
        <ele>200.023</ele>
        <time>2020-03-28T16:50:17Z</time>
      </trkpt>
      <trkpt lat="43.55163" lon="1.48748">
        <ele>200.001</ele>
        <time>2020-03-28T16:50:23Z</time>
      </trkpt>
      <trkpt lat="43.5516" lon="1.48754">
        <ele>199.973</ele>
        <time>2020-03-28T16:50:29Z</time>
      </trkpt>
      <trkpt lat="43.55156" lon="1.48761">
        <ele>199.942</ele>
        <time>2020-03-28T16:50:35Z</time>
      </trkpt>
      <trkpt lat="43.55153" lon="1.48764">
        <ele>199.917</ele>
        <time>2020-03-28T16:50:40Z</time>
      </trkpt>
      <trkpt lat="43.55153" lon="1.4877">
        <ele>199.885</ele>
        <time>2020-03-28T16:50:46Z</time>
      </trkpt>
      <trkpt lat="43.55153" lon="1.48779">
        <ele>199.855</ele>
        <time>2020-03-28T16:50:51Z</time>
      </trkpt>
      <trkpt lat="43.55154" lon="1.48787">
        <ele>199.822</ele>
        <time>2020-03-28T16:50:57Z</time>
      </trkpt>
      <trkpt lat="43.55155" lon="1.48795">
        <ele>199.792</ele>
        <time>2020-03-28T16:51:02Z</time>
      </trkpt>
      <trkpt lat="43.55157" lon="1.48804">
        <ele>199.765</ele>
        <time>2020-03-28T16:51:08Z</time>
      </trkpt>
      <trkpt lat="43.55158" lon="1.48812">
        <ele>199.746</ele>
        <time>2020-03-28T16:51:13Z</time>
      </trkpt>
      <trkpt lat="43.5516" lon="1.48821">
        <ele>199.727</ele>
        <time>2020-03-28T16:51:19Z</time>
      </trkpt>
      <trkpt lat="43.55164" lon="1.48831">
        <ele>199.724</ele>
        <time>2020-03-28T16:51:25Z</time>
      </trkpt>
      <trkpt lat="43.55166" lon="1.48836">
        <ele>199.727</ele>
        <time>2020-03-28T16:51:30Z</time>
      </trkpt>
      <trkpt lat="43.5517" lon="1.48842">
        <ele>199.726</ele>
        <time>2020-03-28T16:51:36Z</time>
      </trkpt>
      <trkpt lat="43.55175" lon="1.48848">
        <ele>199.724</ele>
        <time>2020-03-28T16:51:42Z</time>
      </trkpt>
      <trkpt lat="43.55178" lon="1.48854">
        <ele>199.719</ele>
        <time>2020-03-28T16:51:48Z</time>
      </trkpt>
      <trkpt lat="43.55181" lon="1.48862">
        <ele>199.713</ele>
        <time>2020-03-28T16:51:54Z</time>
      </trkpt>
      <trkpt lat="43.55183" lon="1.48866">
        <ele>199.715</ele>
        <time>2020-03-28T16:52:00Z</time>
      </trkpt>
      <trkpt lat="43.55183" lon="1.4887">
        <ele>199.721</ele>
        <time>2020-03-28T16:52:06Z</time>
      </trkpt>
      <trkpt lat="43.55184" lon="1.48874">
        <ele>199.722</ele>
        <time>2020-03-28T16:52:11Z</time>
      </trkpt>
      <trkpt lat="43.55184" lon="1.48883">
        <ele>199.717</ele>
        <time>2020-03-28T16:52:17Z</time>
      </trkpt>
      <trkpt lat="43.55188" lon="1.48887">
        <ele>199.717</ele>
        <time>2020-03-28T16:52:22Z</time>
      </trkpt>
      <trkpt lat="43.55192" lon="1.48893">
        <ele>199.714</ele>
        <time>2020-03-28T16:52:28Z</time>
      </trkpt>
      <trkpt lat="43.55198" lon="1.48897">
        <ele>199.711</ele>
        <time>2020-03-28T16:52:33Z</time>
      </trkpt>
      <trkpt lat="43.552" lon="1.48901">
        <ele>199.701</ele>
        <time>2020-03-28T16:52:39Z</time>
      </trkpt>
      <trkpt lat="43.55201" lon="1.48902">
        <ele>199.695</ele>
        <time>2020-03-28T16:52:44Z</time>
      </trkpt>
      <trkpt lat="43.55201" lon="1.48902">
        <ele>199.691</ele>
        <time>2020-03-28T16:52:49Z</time>
      </trkpt>
      <trkpt lat="43.55201" lon="1.48901">
        <ele>199.683</ele>
        <time>2020-03-28T16:52:54Z</time>
      </trkpt>
      <trkpt lat="43.552" lon="1.48904">
        <ele>199.676</ele>
        <time>2020-03-28T16:53:00Z</time>
      </trkpt>
      <trkpt lat="43.55201" lon="1.48902">
        <ele>199.674</ele>
        <time>2020-03-28T16:53:05Z</time>
      </trkpt>
      <trkpt lat="43.55202" lon="1.489">
        <ele>199.674</ele>
        <time>2020-03-28T16:53:11Z</time>
      </trkpt>
      <trkpt lat="43.55203" lon="1.48905">
        <ele>199.671</ele>
        <time>2020-03-28T16:53:17Z</time>
      </trkpt>
      <trkpt lat="43.55203" lon="1.48906">
        <ele>199.67</ele>
        <time>2020-03-28T16:53:22Z</time>
      </trkpt>
      <trkpt lat="43.55203" lon="1.48907">
        <ele>199.671</ele>
        <time>2020-03-28T16:53:28Z</time>
      </trkpt>
      <trkpt lat="43.55203" lon="1.48911">
        <ele>199.67</ele>
        <time>2020-03-28T16:53:34Z</time>
      </trkpt>
      <trkpt lat="43.55204" lon="1.48916">
        <ele>199.66</ele>
        <time>2020-03-28T16:53:39Z</time>
      </trkpt>
      <trkpt lat="43.55206" lon="1.48921">
        <ele>199.634</ele>
        <time>2020-03-28T16:53:45Z</time>
      </trkpt>
      <trkpt lat="43.55212" lon="1.48926">
        <ele>199.6</ele>
        <time>2020-03-28T16:53:51Z</time>
      </trkpt>
      <trkpt lat="43.55213" lon="1.48933">
        <ele>199.566</ele>
        <time>2020-03-28T16:53:56Z</time>
      </trkpt>
      <trkpt lat="43.55217" lon="1.4894">
        <ele>199.516</ele>
        <time>2020-03-28T16:54:02Z</time>
      </trkpt>
      <trkpt lat="43.5522" lon="1.48947">
        <ele>199.467</ele>
        <time>2020-03-28T16:54:07Z</time>
      </trkpt>
      <trkpt lat="43.55224" lon="1.48952">
        <ele>199.401</ele>
        <time>2020-03-28T16:54:13Z</time>
      </trkpt>
      <trkpt lat="43.55229" lon="1.48957">
        <ele>199.327</ele>
        <time>2020-03-28T16:54:19Z</time>
      </trkpt>
      <trkpt lat="43.55233" lon="1.4896">
        <ele>199.257</ele>
        <time>2020-03-28T16:54:24Z</time>
      </trkpt>
      <trkpt lat="43.55239" lon="1.48967">
        <ele>199.17</ele>
        <time>2020-03-28T16:54:30Z</time>
      </trkpt>
      <trkpt lat="43.55244" lon="1.4897">
        <ele>199.094</ele>
        <time>2020-03-28T16:54:35Z</time>
      </trkpt>
      <trkpt lat="43.55249" lon="1.48975">
        <ele>199</ele>
        <time>2020-03-28T16:54:41Z</time>
      </trkpt>
      <trkpt lat="43.55253" lon="1.4898">
        <ele>198.898</ele>
        <time>2020-03-28T16:54:47Z</time>
      </trkpt>
      <trkpt lat="43.55257" lon="1.48986">
        <ele>198.8</ele>
        <time>2020-03-28T16:54:53Z</time>
      </trkpt>
      <trkpt lat="43.55262" lon="1.48991">
        <ele>198.71</ele>
        <time>2020-03-28T16:54:59Z</time>
      </trkpt>
      <trkpt lat="43.55266" lon="1.48997">
        <ele>198.638</ele>
        <time>2020-03-28T16:55:04Z</time>
      </trkpt>
      <trkpt lat="43.55269" lon="1.49003">
        <ele>198.57</ele>
        <time>2020-03-28T16:55:09Z</time>
      </trkpt>
      <trkpt lat="43.55272" lon="1.49007">
        <ele>198.504</ele>
        <time>2020-03-28T16:55:14Z</time>
      </trkpt>
      <trkpt lat="43.55274" lon="1.49015">
        <ele>198.423</ele>
        <time>2020-03-28T16:55:20Z</time>
      </trkpt>
      <trkpt lat="43.55279" lon="1.4902">
        <ele>198.34</ele>
        <time>2020-03-28T16:55:26Z</time>
      </trkpt>
      <trkpt lat="43.55286" lon="1.49026">
        <ele>198.255</ele>
        <time>2020-03-28T16:55:32Z</time>
      </trkpt>
      <trkpt lat="43.55289" lon="1.49032">
        <ele>198.185</ele>
        <time>2020-03-28T16:55:37Z</time>
      </trkpt>
      <trkpt lat="43.55294" lon="1.49036">
        <ele>198.112</ele>
        <time>2020-03-28T16:55:42Z</time>
      </trkpt>
      <trkpt lat="43.55299" lon="1.49044">
        <ele>198.024</ele>
        <time>2020-03-28T16:55:48Z</time>
      </trkpt>
      <trkpt lat="43.55304" lon="1.4905">
        <ele>197.936</ele>
        <time>2020-03-28T16:55:54Z</time>
      </trkpt>
      <trkpt lat="43.55308" lon="1.49052">
        <ele>197.863</ele>
        <time>2020-03-28T16:55:59Z</time>
      </trkpt>
      <trkpt lat="43.55312" lon="1.49056">
        <ele>197.786</ele>
        <time>2020-03-28T16:56:04Z</time>
      </trkpt>
      <trkpt lat="43.55315" lon="1.49062">
        <ele>197.697</ele>
        <time>2020-03-28T16:56:10Z</time>
      </trkpt>
      <trkpt lat="43.55316" lon="1.49063">
        <ele>197.688</ele>
        <time>2020-03-28T16:56:16Z</time>
      </trkpt>
      <trkpt lat="43.55317" lon="1.49065">
        <ele>197.635</ele>
        <time>2020-03-28T16:56:22Z</time>
      </trkpt>
      <trkpt lat="43.55318" lon="1.49066">
        <ele>197.572</ele>
        <time>2020-03-28T16:56:27Z</time>
      </trkpt>
      <trkpt lat="43.55329" lon="1.49072">
        <ele>197.51</ele>
        <time>2020-03-28T16:56:32Z</time>
      </trkpt>
      <trkpt lat="43.55334" lon="1.4907">
        <ele>197.458</ele>
        <time>2020-03-28T16:56:37Z</time>
      </trkpt>
      <trkpt lat="43.55338" lon="1.49066">
        <ele>197.411</ele>
        <time>2020-03-28T16:56:43Z</time>
      </trkpt>
      <trkpt lat="43.55338" lon="1.49057">
        <ele>197.363</ele>
        <time>2020-03-28T16:56:48Z</time>
      </trkpt>
      <trkpt lat="43.55338" lon="1.49054">
        <ele>197.328</ele>
        <time>2020-03-28T16:56:54Z</time>
      </trkpt>
      <trkpt lat="43.55338" lon="1.49052">
        <ele>197.314</ele>
        <time>2020-03-28T16:56:59Z</time>
      </trkpt>
      <trkpt lat="43.55338" lon="1.49051">
        <ele>197.312</ele>
        <time>2020-03-28T16:57:04Z</time>
      </trkpt>
      <trkpt lat="43.55339" lon="1.49049">
        <ele>197.308</ele>
        <time>2020-03-28T16:57:10Z</time>
      </trkpt>
      <trkpt lat="43.55339" lon="1.49049">
        <ele>197.305</ele>
        <time>2020-03-28T16:57:15Z</time>
      </trkpt>
      <trkpt lat="43.55337" lon="1.4905">
        <ele>197.295</ele>
        <time>2020-03-28T16:57:21Z</time>
      </trkpt>
      <trkpt lat="43.55333" lon="1.49058">
        <ele>197.244</ele>
        <time>2020-03-28T16:57:27Z</time>
      </trkpt>
      <trkpt lat="43.5533" lon="1.49066">
        <ele>197.174</ele>
        <time>2020-03-28T16:57:33Z</time>
      </trkpt>
      <trkpt lat="43.55331" lon="1.49068">
        <ele>197.108</ele>
        <time>2020-03-28T16:57:38Z</time>
      </trkpt>
      <trkpt lat="43.55332" lon="1.49074">
        <ele>197.029</ele>
        <time>2020-03-28T16:57:44Z</time>
      </trkpt>
      <trkpt lat="43.55333" lon="1.49076">
        <ele>196.968</ele>
        <time>2020-03-28T16:57:49Z</time>
      </trkpt>
      <trkpt lat="43.55336" lon="1.49082">
        <ele>196.908</ele>
        <time>2020-03-28T16:57:54Z</time>
      </trkpt>
      <trkpt lat="43.55339" lon="1.49083">
        <ele>196.835</ele>
        <time>2020-03-28T16:58:00Z</time>
      </trkpt>
      <trkpt lat="43.55342" lon="1.49092">
        <ele>196.767</ele>
        <time>2020-03-28T16:58:06Z</time>
      </trkpt>
      <trkpt lat="43.55346" lon="1.49097">
        <ele>196.716</ele>
        <time>2020-03-28T16:58:11Z</time>
      </trkpt>
      <trkpt lat="43.55351" lon="1.49101">
        <ele>196.669</ele>
        <time>2020-03-28T16:58:16Z</time>
      </trkpt>
      <trkpt lat="43.55356" lon="1.49105">
        <ele>196.614</ele>
        <time>2020-03-28T16:58:22Z</time>
      </trkpt>
      <trkpt lat="43.5536" lon="1.49108">
        <ele>196.566</ele>
        <time>2020-03-28T16:58:27Z</time>
      </trkpt>
      <trkpt lat="43.55365" lon="1.49115">
        <ele>196.509</ele>
        <time>2020-03-28T16:58:33Z</time>
      </trkpt>
      <trkpt lat="43.55372" lon="1.49121">
        <ele>196.456</ele>
        <time>2020-03-28T16:58:39Z</time>
      </trkpt>
      <trkpt lat="43.55374" lon="1.49126">
        <ele>196.444</ele>
        <time>2020-03-28T16:58:44Z</time>
      </trkpt>
      <trkpt lat="43.55374" lon="1.49127">
        <ele>196.424</ele>
        <time>2020-03-28T16:58:49Z</time>
      </trkpt>
      <trkpt lat="43.55376" lon="1.49131">
        <ele>196.378</ele>
        <time>2020-03-28T16:58:54Z</time>
      </trkpt>
      <trkpt lat="43.55378" lon="1.49137">
        <ele>196.334</ele>
        <time>2020-03-28T16:58:59Z</time>
      </trkpt>
      <trkpt lat="43.55376" lon="1.49146">
        <ele>196.284</ele>
        <time>2020-03-28T16:59:05Z</time>
      </trkpt>
      <trkpt lat="43.55376" lon="1.49147">
        <ele>196.279</ele>
        <time>2020-03-28T16:59:11Z</time>
      </trkpt>
      <trkpt lat="43.55379" lon="1.49148">
        <ele>196.25</ele>
        <time>2020-03-28T16:59:16Z</time>
      </trkpt>
      <trkpt lat="43.55378" lon="1.49142">
        <ele>196.23</ele>
        <time>2020-03-28T16:59:22Z</time>
      </trkpt>
      <trkpt lat="43.55376" lon="1.49137">
        <ele>196.216</ele>
        <time>2020-03-28T16:59:28Z</time>
      </trkpt>
      <trkpt lat="43.55373" lon="1.49133">
        <ele>196.207</ele>
        <time>2020-03-28T16:59:33Z</time>
      </trkpt>
      <trkpt lat="43.55369" lon="1.49129">
        <ele>196.197</ele>
        <time>2020-03-28T16:59:38Z</time>
      </trkpt>
      <trkpt lat="43.55364" lon="1.49126">
        <ele>196.182</ele>
        <time>2020-03-28T16:59:44Z</time>
      </trkpt>
      <trkpt lat="43.55361" lon="1.49123">
        <ele>196.166</ele>
        <time>2020-03-28T16:59:49Z</time>
      </trkpt>
      <trkpt lat="43.55355" lon="1.49118">
        <ele>196.152</ele>
        <time>2020-03-28T16:59:55Z</time>
      </trkpt>
      <trkpt lat="43.55351" lon="1.49114">
        <ele>196.143</ele>
        <time>2020-03-28T17:00:00Z</time>
      </trkpt>
      <trkpt lat="43.55345" lon="1.49107">
        <ele>196.132</ele>
        <time>2020-03-28T17:00:06Z</time>
      </trkpt>
      <trkpt lat="43.55342" lon="1.49104">
        <ele>196.119</ele>
        <time>2020-03-28T17:00:11Z</time>
      </trkpt>
      <trkpt lat="43.55339" lon="1.49098">
        <ele>196.102</ele>
        <time>2020-03-28T17:00:17Z</time>
      </trkpt>
      <trkpt lat="43.55336" lon="1.49094">
        <ele>196.084</ele>
        <time>2020-03-28T17:00:22Z</time>
      </trkpt>
      <trkpt lat="43.55331" lon="1.49088">
        <ele>196.063</ele>
        <time>2020-03-28T17:00:28Z</time>
      </trkpt>
      <trkpt lat="43.55328" lon="1.49085">
        <ele>196.051</ele>
        <time>2020-03-28T17:00:33Z</time>
      </trkpt>
      <trkpt lat="43.55324" lon="1.49079">
        <ele>196.041</ele>
        <time>2020-03-28T17:00:39Z</time>
      </trkpt>
      <trkpt lat="43.5532" lon="1.49074">
        <ele>196.035</ele>
        <time>2020-03-28T17:00:44Z</time>
      </trkpt>
      <trkpt lat="43.55315" lon="1.49069">
        <ele>196.028</ele>
        <time>2020-03-28T17:00:49Z</time>
      </trkpt>
      <trkpt lat="43.5531" lon="1.49061">
        <ele>196.021</ele>
        <time>2020-03-28T17:00:55Z</time>
      </trkpt>
      <trkpt lat="43.55308" lon="1.49058">
        <ele>196.018</ele>
        <time>2020-03-28T17:01:00Z</time>
      </trkpt>
      <trkpt lat="43.55305" lon="1.49052">
        <ele>196.012</ele>
        <time>2020-03-28T17:01:06Z</time>
      </trkpt>
      <trkpt lat="43.55299" lon="1.49046">
        <ele>196.003</ele>
        <time>2020-03-28T17:01:11Z</time>
      </trkpt>
      <trkpt lat="43.55293" lon="1.49043">
        <ele>195.992</ele>
        <time>2020-03-28T17:01:16Z</time>
      </trkpt>
      <trkpt lat="43.55289" lon="1.49036">
        <ele>195.983</ele>
        <time>2020-03-28T17:01:21Z</time>
      </trkpt>
      <trkpt lat="43.55287" lon="1.49029">
        <ele>195.979</ele>
        <time>2020-03-28T17:01:27Z</time>
      </trkpt>
      <trkpt lat="43.55286" lon="1.49029">
        <ele>195.982</ele>
        <time>2020-03-28T17:01:33Z</time>
      </trkpt>
      <trkpt lat="43.55283" lon="1.49028">
        <ele>195.99</ele>
        <time>2020-03-28T17:01:39Z</time>
      </trkpt>
      <trkpt lat="43.55278" lon="1.49022">
        <ele>196.003</ele>
        <time>2020-03-28T17:01:45Z</time>
      </trkpt>
      <trkpt lat="43.55274" lon="1.49016">
        <ele>196.015</ele>
        <time>2020-03-28T17:01:51Z</time>
      </trkpt>
      <trkpt lat="43.55271" lon="1.49012">
        <ele>196.027</ele>
        <time>2020-03-28T17:01:56Z</time>
      </trkpt>
      <trkpt lat="43.55268" lon="1.49006">
        <ele>196.045</ele>
        <time>2020-03-28T17:02:02Z</time>
      </trkpt>
      <trkpt lat="43.55263" lon="1.49001">
        <ele>196.062</ele>
        <time>2020-03-28T17:02:07Z</time>
      </trkpt>
      <trkpt lat="43.55258" lon="1.48995">
        <ele>196.078</ele>
        <time>2020-03-28T17:02:13Z</time>
      </trkpt>
      <trkpt lat="43.55253" lon="1.48989">
        <ele>196.088</ele>
        <time>2020-03-28T17:02:18Z</time>
      </trkpt>
      <trkpt lat="43.55248" lon="1.48983">
        <ele>196.095</ele>
        <time>2020-03-28T17:02:24Z</time>
      </trkpt>
      <trkpt lat="43.55243" lon="1.48976">
        <ele>196.094</ele>
        <time>2020-03-28T17:02:30Z</time>
      </trkpt>
      <trkpt lat="43.55236" lon="1.48969">
        <ele>196.09</ele>
        <time>2020-03-28T17:02:36Z</time>
      </trkpt>
      <trkpt lat="43.55232" lon="1.48965">
        <ele>196.087</ele>
        <time>2020-03-28T17:02:41Z</time>
      </trkpt>
      <trkpt lat="43.55229" lon="1.48962">
        <ele>196.083</ele>
        <time>2020-03-28T17:02:46Z</time>
      </trkpt>
      <trkpt lat="43.55225" lon="1.48955">
        <ele>196.077</ele>
        <time>2020-03-28T17:02:52Z</time>
      </trkpt>
      <trkpt lat="43.55221" lon="1.4895">
        <ele>196.068</ele>
        <time>2020-03-28T17:02:57Z</time>
      </trkpt>
      <trkpt lat="43.55218" lon="1.48944">
        <ele>196.058</ele>
        <time>2020-03-28T17:03:03Z</time>
      </trkpt>
      <trkpt lat="43.55214" lon="1.48937">
        <ele>196.05</ele>
        <time>2020-03-28T17:03:08Z</time>
      </trkpt>
      <trkpt lat="43.55212" lon="1.48932">
        <ele>196.043</ele>
        <time>2020-03-28T17:03:13Z</time>
      </trkpt>
      <trkpt lat="43.5521" lon="1.48927">
        <ele>196.038</ele>
        <time>2020-03-28T17:03:18Z</time>
      </trkpt>
      <trkpt lat="43.55207" lon="1.48919">
        <ele>196.033</ele>
        <time>2020-03-28T17:03:24Z</time>
      </trkpt>
      <trkpt lat="43.55205" lon="1.48912">
        <ele>196.031</ele>
        <time>2020-03-28T17:03:29Z</time>
      </trkpt>
      <trkpt lat="43.55201" lon="1.48904">
        <ele>196.027</ele>
        <time>2020-03-28T17:03:35Z</time>
      </trkpt>
      <trkpt lat="43.55198" lon="1.48897">
        <ele>196.025</ele>
        <time>2020-03-28T17:03:41Z</time>
      </trkpt>
      <trkpt lat="43.55194" lon="1.48892">
        <ele>196.025</ele>
        <time>2020-03-28T17:03:47Z</time>
      </trkpt>
      <trkpt lat="43.55192" lon="1.48882">
        <ele>196.026</ele>
        <time>2020-03-28T17:03:52Z</time>
      </trkpt>
      <trkpt lat="43.55187" lon="1.48876">
        <ele>196.027</ele>
        <time>2020-03-28T17:03:58Z</time>
      </trkpt>
      <trkpt lat="43.55184" lon="1.48868">
        <ele>196.028</ele>
        <time>2020-03-28T17:04:04Z</time>
      </trkpt>
      <trkpt lat="43.55181" lon="1.48862">
        <ele>196.026</ele>
        <time>2020-03-28T17:04:09Z</time>
      </trkpt>
      <trkpt lat="43.55176" lon="1.48855">
        <ele>196.022</ele>
        <time>2020-03-28T17:04:15Z</time>
      </trkpt>
      <trkpt lat="43.55173" lon="1.48849">
        <ele>196.016</ele>
        <time>2020-03-28T17:04:20Z</time>
      </trkpt>
      <trkpt lat="43.55171" lon="1.48842">
        <ele>196.007</ele>
        <time>2020-03-28T17:04:26Z</time>
      </trkpt>
      <trkpt lat="43.55169" lon="1.48834">
        <ele>195.988</ele>
        <time>2020-03-28T17:04:32Z</time>
      </trkpt>
      <trkpt lat="43.55166" lon="1.48829">
        <ele>195.974</ele>
        <time>2020-03-28T17:04:37Z</time>
      </trkpt>
      <trkpt lat="43.55163" lon="1.48823">
        <ele>195.952</ele>
        <time>2020-03-28T17:04:43Z</time>
      </trkpt>
      <trkpt lat="43.5516" lon="1.48813">
        <ele>195.927</ele>
        <time>2020-03-28T17:04:49Z</time>
      </trkpt>
      <trkpt lat="43.55156" lon="1.48809">
        <ele>195.912</ele>
        <time>2020-03-28T17:04:54Z</time>
      </trkpt>
      <trkpt lat="43.55152" lon="1.48802">
        <ele>195.894</ele>
        <time>2020-03-28T17:04:59Z</time>
      </trkpt>
      <trkpt lat="43.55148" lon="1.48794">
        <ele>195.871</ele>
        <time>2020-03-28T17:05:05Z</time>
      </trkpt>
      <trkpt lat="43.55142" lon="1.4879">
        <ele>195.856</ele>
        <time>2020-03-28T17:05:10Z</time>
      </trkpt>
      <trkpt lat="43.55136" lon="1.48788">
        <ele>195.848</ele>
        <time>2020-03-28T17:05:16Z</time>
      </trkpt>
      <trkpt lat="43.55131" lon="1.48785">
        <ele>195.855</ele>
        <time>2020-03-28T17:05:21Z</time>
      </trkpt>
      <trkpt lat="43.55124" lon="1.4878">
        <ele>195.877</ele>
        <time>2020-03-28T17:05:27Z</time>
      </trkpt>
      <trkpt lat="43.55116" lon="1.48779">
        <ele>195.914</ele>
        <time>2020-03-28T17:05:33Z</time>
      </trkpt>
      <trkpt lat="43.55107" lon="1.48779">
        <ele>195.969</ele>
        <time>2020-03-28T17:05:39Z</time>
      </trkpt>
      <trkpt lat="43.551" lon="1.48777">
        <ele>196.047</ele>
        <time>2020-03-28T17:05:45Z</time>
      </trkpt>
      <trkpt lat="43.55094" lon="1.48777">
        <ele>196.134</ele>
        <time>2020-03-28T17:05:51Z</time>
      </trkpt>
      <trkpt lat="43.55087" lon="1.48775">
        <ele>196.222</ele>
        <time>2020-03-28T17:05:57Z</time>
      </trkpt>
      <trkpt lat="43.5508" lon="1.48773">
        <ele>196.32</ele>
        <time>2020-03-28T17:06:03Z</time>
      </trkpt>
      <trkpt lat="43.55076" lon="1.48772">
        <ele>196.408</ele>
        <time>2020-03-28T17:06:08Z</time>
      </trkpt>
      <trkpt lat="43.55072" lon="1.4877">
        <ele>196.51</ele>
        <time>2020-03-28T17:06:14Z</time>
      </trkpt>
      <trkpt lat="43.55066" lon="1.48769">
        <ele>196.608</ele>
        <time>2020-03-28T17:06:20Z</time>
      </trkpt>
      <trkpt lat="43.5506" lon="1.48766">
        <ele>196.699</ele>
        <time>2020-03-28T17:06:26Z</time>
      </trkpt>
      <trkpt lat="43.55056" lon="1.48762">
        <ele>196.779</ele>
        <time>2020-03-28T17:06:32Z</time>
      </trkpt>
      <trkpt lat="43.55054" lon="1.48759">
        <ele>196.833</ele>
        <time>2020-03-28T17:06:37Z</time>
      </trkpt>
      <trkpt lat="43.5505" lon="1.48753">
        <ele>196.88</ele>
        <time>2020-03-28T17:06:43Z</time>
      </trkpt>
      <trkpt lat="43.55047" lon="1.48747">
        <ele>196.918</ele>
        <time>2020-03-28T17:06:48Z</time>
      </trkpt>
      <trkpt lat="43.55042" lon="1.48739">
        <ele>196.952</ele>
        <time>2020-03-28T17:06:54Z</time>
      </trkpt>
      <trkpt lat="43.55038" lon="1.48733">
        <ele>196.978</ele>
        <time>2020-03-28T17:07:00Z</time>
      </trkpt>
      <trkpt lat="43.55033" lon="1.48727">
        <ele>196.997</ele>
        <time>2020-03-28T17:07:06Z</time>
      </trkpt>
      <trkpt lat="43.55031" lon="1.48719">
        <ele>197.007</ele>
        <time>2020-03-28T17:07:12Z</time>
      </trkpt>
      <trkpt lat="43.55028" lon="1.48715">
        <ele>197.013</ele>
        <time>2020-03-28T17:07:17Z</time>
      </trkpt>
      <trkpt lat="43.55025" lon="1.48711">
        <ele>197.018</ele>
        <time>2020-03-28T17:07:23Z</time>
      </trkpt>
      <trkpt lat="43.55021" lon="1.48704">
        <ele>197.022</ele>
        <time>2020-03-28T17:07:28Z</time>
      </trkpt>
      <trkpt lat="43.55016" lon="1.48697">
        <ele>197.023</ele>
        <time>2020-03-28T17:07:33Z</time>
      </trkpt>
      <trkpt lat="43.55011" lon="1.48692">
        <ele>197.019</ele>
        <time>2020-03-28T17:07:39Z</time>
      </trkpt>
      <trkpt lat="43.55009" lon="1.48685">
        <ele>197.011</ele>
        <time>2020-03-28T17:07:44Z</time>
      </trkpt>
      <trkpt lat="43.55005" lon="1.4868">
        <ele>196.994</ele>
        <time>2020-03-28T17:07:50Z</time>
      </trkpt>
      <trkpt lat="43.55" lon="1.48671">
        <ele>196.968</ele>
        <time>2020-03-28T17:07:56Z</time>
      </trkpt>
      <trkpt lat="43.54997" lon="1.48664">
        <ele>196.944</ele>
        <time>2020-03-28T17:08:01Z</time>
      </trkpt>
      <trkpt lat="43.54992" lon="1.48657">
        <ele>196.914</ele>
        <time>2020-03-28T17:08:07Z</time>
      </trkpt>
      <trkpt lat="43.5499" lon="1.48654">
        <ele>196.887</ele>
        <time>2020-03-28T17:08:12Z</time>
      </trkpt>
      <trkpt lat="43.54988" lon="1.48648">
        <ele>196.859</ele>
        <time>2020-03-28T17:08:17Z</time>
      </trkpt>
      <trkpt lat="43.54984" lon="1.48643">
        <ele>196.824</ele>
        <time>2020-03-28T17:08:23Z</time>
      </trkpt>
      <trkpt lat="43.54981" lon="1.48637">
        <ele>196.785</ele>
        <time>2020-03-28T17:08:29Z</time>
      </trkpt>
      <trkpt lat="43.54979" lon="1.48632">
        <ele>196.747</ele>
        <time>2020-03-28T17:08:35Z</time>
      </trkpt>
      <trkpt lat="43.54974" lon="1.48624">
        <ele>196.713</ele>
        <time>2020-03-28T17:08:41Z</time>
      </trkpt>
      <trkpt lat="43.54971" lon="1.48619">
        <ele>196.686</ele>
        <time>2020-03-28T17:08:46Z</time>
      </trkpt>
      <trkpt lat="43.54965" lon="1.48612">
        <ele>196.653</ele>
        <time>2020-03-28T17:08:52Z</time>
      </trkpt>
      <trkpt lat="43.54961" lon="1.48606">
        <ele>196.626</ele>
        <time>2020-03-28T17:08:57Z</time>
      </trkpt>
      <trkpt lat="43.54958" lon="1.48597">
        <ele>196.598</ele>
        <time>2020-03-28T17:09:02Z</time>
      </trkpt>
      <trkpt lat="43.54956" lon="1.48585">
        <ele>196.567</ele>
        <time>2020-03-28T17:09:08Z</time>
      </trkpt>
      <trkpt lat="43.54956" lon="1.48576">
        <ele>196.54</ele>
        <time>2020-03-28T17:09:14Z</time>
      </trkpt>
      <trkpt lat="43.54959" lon="1.48567">
        <ele>196.518</ele>
        <time>2020-03-28T17:09:20Z</time>
      </trkpt>
      <trkpt lat="43.5496" lon="1.48561">
        <ele>196.503</ele>
        <time>2020-03-28T17:09:26Z</time>
      </trkpt>
      <trkpt lat="43.5496" lon="1.48558">
        <ele>196.502</ele>
        <time>2020-03-28T17:09:31Z</time>
      </trkpt>
      <trkpt lat="43.54961" lon="1.48555">
        <ele>196.503</ele>
        <time>2020-03-28T17:09:36Z</time>
      </trkpt>
      <trkpt lat="43.54965" lon="1.48551">
        <ele>196.51</ele>
        <time>2020-03-28T17:09:42Z</time>
      </trkpt>
      <trkpt lat="43.54968" lon="1.4855">
        <ele>196.525</ele>
        <time>2020-03-28T17:09:47Z</time>
      </trkpt>
      <trkpt lat="43.54974" lon="1.48545">
        <ele>196.549</ele>
        <time>2020-03-28T17:09:53Z</time>
      </trkpt>
      <trkpt lat="43.54979" lon="1.48542">
        <ele>196.574</ele>
        <time>2020-03-28T17:09:58Z</time>
      </trkpt>
      <trkpt lat="43.54986" lon="1.48539">
        <ele>196.614</ele>
        <time>2020-03-28T17:10:04Z</time>
      </trkpt>
      <trkpt lat="43.54991" lon="1.48536">
        <ele>196.672</ele>
        <time>2020-03-28T17:10:10Z</time>
      </trkpt>
      <trkpt lat="43.54997" lon="1.48532">
        <ele>196.72</ele>
        <time>2020-03-28T17:10:15Z</time>
      </trkpt>
      <trkpt lat="43.55001" lon="1.48528">
        <ele>196.777</ele>
        <time>2020-03-28T17:10:21Z</time>
      </trkpt>
      <trkpt lat="43.55006" lon="1.48521">
        <ele>196.834</ele>
        <time>2020-03-28T17:10:27Z</time>
      </trkpt>
      <trkpt lat="43.55012" lon="1.48516">
        <ele>196.9</ele>
        <time>2020-03-28T17:10:33Z</time>
      </trkpt>
      <trkpt lat="43.55018" lon="1.48512">
        <ele>196.97</ele>
        <time>2020-03-28T17:10:39Z</time>
      </trkpt>
      <trkpt lat="43.5502" lon="1.48509">
        <ele>197.027</ele>
        <time>2020-03-28T17:10:44Z</time>
      </trkpt>
      <trkpt lat="43.55025" lon="1.48505">
        <ele>197.095</ele>
        <time>2020-03-28T17:10:50Z</time>
      </trkpt>
      <trkpt lat="43.55027" lon="1.48503">
        <ele>197.15</ele>
        <time>2020-03-28T17:10:55Z</time>
      </trkpt>
      <trkpt lat="43.55031" lon="1.48501">
        <ele>197.202</ele>
        <time>2020-03-28T17:11:00Z</time>
      </trkpt>
      <trkpt lat="43.55037" lon="1.48497">
        <ele>197.267</ele>
        <time>2020-03-28T17:11:06Z</time>
      </trkpt>
      <trkpt lat="43.55043" lon="1.48494">
        <ele>197.319</ele>
        <time>2020-03-28T17:11:11Z</time>
      </trkpt>
      <trkpt lat="43.55048" lon="1.48488">
        <ele>197.384</ele>
        <time>2020-03-28T17:11:17Z</time>
      </trkpt>
      <trkpt lat="43.55054" lon="1.48483">
        <ele>197.45</ele>
        <time>2020-03-28T17:11:23Z</time>
      </trkpt>
      <trkpt lat="43.55059" lon="1.48477">
        <ele>197.505</ele>
        <time>2020-03-28T17:11:28Z</time>
      </trkpt>
      <trkpt lat="43.55064" lon="1.48472">
        <ele>197.567</ele>
        <time>2020-03-28T17:11:34Z</time>
      </trkpt>
      <trkpt lat="43.55069" lon="1.48468">
        <ele>197.614</ele>
        <time>2020-03-28T17:11:39Z</time>
      </trkpt>
      <trkpt lat="43.55073" lon="1.48466">
        <ele>197.664</ele>
        <time>2020-03-28T17:11:44Z</time>
      </trkpt>
      <trkpt lat="43.5508" lon="1.48462">
        <ele>197.736</ele>
        <time>2020-03-28T17:11:50Z</time>
      </trkpt>
      <trkpt lat="43.55083" lon="1.4846">
        <ele>197.798</ele>
        <time>2020-03-28T17:11:55Z</time>
      </trkpt>
      <trkpt lat="43.55086" lon="1.48456">
        <ele>197.874</ele>
        <time>2020-03-28T17:12:01Z</time>
      </trkpt>
      <trkpt lat="43.55091" lon="1.48452">
        <ele>197.937</ele>
        <time>2020-03-28T17:12:06Z</time>
      </trkpt>
      <trkpt lat="43.55095" lon="1.48447">
        <ele>198.003</ele>
        <time>2020-03-28T17:12:11Z</time>
      </trkpt>
      <trkpt lat="43.551" lon="1.48441">
        <ele>198.087</ele>
        <time>2020-03-28T17:12:17Z</time>
      </trkpt>
      <trkpt lat="43.55105" lon="1.48435">
        <ele>198.164</ele>
        <time>2020-03-28T17:12:22Z</time>
      </trkpt>
      <trkpt lat="43.55109" lon="1.48428">
        <ele>198.264</ele>
        <time>2020-03-28T17:12:28Z</time>
      </trkpt>
      <trkpt lat="43.55111" lon="1.48424">
        <ele>198.347</ele>
        <time>2020-03-28T17:12:33Z</time>
      </trkpt>
      <trkpt lat="43.55115" lon="1.48421">
        <ele>198.441</ele>
        <time>2020-03-28T17:12:39Z</time>
      </trkpt>
      <trkpt lat="43.55118" lon="1.48417">
        <ele>198.511</ele>
        <time>2020-03-28T17:12:44Z</time>
      </trkpt>
      <trkpt lat="43.5512" lon="1.48413">
        <ele>198.588</ele>
        <time>2020-03-28T17:12:49Z</time>
      </trkpt>
      <trkpt lat="43.55122" lon="1.48408">
        <ele>198.69</ele>
        <time>2020-03-28T17:12:55Z</time>
      </trkpt>
      <trkpt lat="43.55125" lon="1.48403">
        <ele>198.773</ele>
        <time>2020-03-28T17:13:00Z</time>
      </trkpt>
      <trkpt lat="43.55126" lon="1.48394">
        <ele>198.858</ele>
        <time>2020-03-28T17:13:06Z</time>
      </trkpt>
      <trkpt lat="43.55125" lon="1.48384">
        <ele>198.925</ele>
        <time>2020-03-28T17:13:12Z</time>
      </trkpt>
      <trkpt lat="43.55125" lon="1.48376">
        <ele>198.972</ele>
        <time>2020-03-28T17:13:17Z</time>
      </trkpt>
      <trkpt lat="43.55122" lon="1.48371">
        <ele>199.023</ele>
        <time>2020-03-28T17:13:23Z</time>
      </trkpt>
      <trkpt lat="43.55119" lon="1.48367">
        <ele>199.069</ele>
        <time>2020-03-28T17:13:29Z</time>
      </trkpt>
      <trkpt lat="43.55115" lon="1.48362">
        <ele>199.108</ele>
        <time>2020-03-28T17:13:35Z</time>
      </trkpt>
      <trkpt lat="43.55111" lon="1.48356">
        <ele>199.14</ele>
        <time>2020-03-28T17:13:41Z</time>
      </trkpt>
      <trkpt lat="43.55106" lon="1.48352">
        <ele>199.168</ele>
        <time>2020-03-28T17:13:46Z</time>
      </trkpt>
      <trkpt lat="43.55102" lon="1.4835">
        <ele>199.195</ele>
        <time>2020-03-28T17:13:51Z</time>
      </trkpt>
      <trkpt lat="43.55097" lon="1.48338">
        <ele>199.221</ele>
        <time>2020-03-28T17:13:56Z</time>
      </trkpt>
      <trkpt lat="43.55092" lon="1.48332">
        <ele>199.244</ele>
        <time>2020-03-28T17:14:02Z</time>
      </trkpt>
      <trkpt lat="43.55087" lon="1.48324">
        <ele>199.262</ele>
        <time>2020-03-28T17:14:08Z</time>
      </trkpt>
      <trkpt lat="43.55083" lon="1.48319">
        <ele>199.276</ele>
        <time>2020-03-28T17:14:14Z</time>
      </trkpt>
      <trkpt lat="43.5508" lon="1.48314">
        <ele>199.286</ele>
        <time>2020-03-28T17:14:19Z</time>
      </trkpt>
      <trkpt lat="43.55076" lon="1.4831">
        <ele>199.298</ele>
        <time>2020-03-28T17:14:25Z</time>
      </trkpt>
      <trkpt lat="43.55073" lon="1.48304">
        <ele>199.31</ele>
        <time>2020-03-28T17:14:31Z</time>
      </trkpt>
      <trkpt lat="43.55069" lon="1.483">
        <ele>199.31</ele>
        <time>2020-03-28T17:14:36Z</time>
      </trkpt>
      <trkpt lat="43.55062" lon="1.48295">
        <ele>199.297</ele>
        <time>2020-03-28T17:14:42Z</time>
      </trkpt>
      <trkpt lat="43.5506" lon="1.48288">
        <ele>199.27</ele>
        <time>2020-03-28T17:14:48Z</time>
      </trkpt>
      <trkpt lat="43.55055" lon="1.48281">
        <ele>199.228</ele>
        <time>2020-03-28T17:14:54Z</time>
      </trkpt>
      <trkpt lat="43.55052" lon="1.48278">
        <ele>199.189</ele>
        <time>2020-03-28T17:14:59Z</time>
      </trkpt>
      <trkpt lat="43.55051" lon="1.48276">
        <ele>199.162</ele>
        <time>2020-03-28T17:15:04Z</time>
      </trkpt>
      <trkpt lat="43.55051" lon="1.48274">
        <ele>199.13</ele>
        <time>2020-03-28T17:15:10Z</time>
      </trkpt>
      <trkpt lat="43.55047" lon="1.48274">
        <ele>199.1</ele>
        <time>2020-03-28T17:15:16Z</time>
      </trkpt>
      <trkpt lat="43.55045" lon="1.48272">
        <ele>199.071</ele>
        <time>2020-03-28T17:15:22Z</time>
      </trkpt>
      <trkpt lat="43.55041" lon="1.48268">
        <ele>199.057</ele>
        <time>2020-03-28T17:15:27Z</time>
      </trkpt>
      <trkpt lat="43.55031" lon="1.48269">
        <ele>199.044</ele>
        <time>2020-03-28T17:15:33Z</time>
      </trkpt>
      <trkpt lat="43.55026" lon="1.48274">
        <ele>199.033</ele>
        <time>2020-03-28T17:15:39Z</time>
      </trkpt>
      <trkpt lat="43.55021" lon="1.48276">
        <ele>199.027</ele>
        <time>2020-03-28T17:15:44Z</time>
      </trkpt>
      <trkpt lat="43.55015" lon="1.48281">
        <ele>199.023</ele>
        <time>2020-03-28T17:15:50Z</time>
      </trkpt>
      <trkpt lat="43.55011" lon="1.48286">
        <ele>199.02</ele>
        <time>2020-03-28T17:15:55Z</time>
      </trkpt>
      <trkpt lat="43.55006" lon="1.48291">
        <ele>199.018</ele>
        <time>2020-03-28T17:16:01Z</time>
      </trkpt>
      <trkpt lat="43.54999" lon="1.48296">
        <ele>199.017</ele>
        <time>2020-03-28T17:16:07Z</time>
      </trkpt>
      <trkpt lat="43.54996" lon="1.483">
        <ele>199.016</ele>
        <time>2020-03-28T17:16:12Z</time>
      </trkpt>
      <trkpt lat="43.54995" lon="1.48303">
        <ele>199.013</ele>
        <time>2020-03-28T17:16:18Z</time>
      </trkpt>
      <trkpt lat="43.54989" lon="1.48307">
        <ele>199.01</ele>
        <time>2020-03-28T17:16:23Z</time>
      </trkpt>
      <trkpt lat="43.54985" lon="1.48314">
        <ele>199.003</ele>
        <time>2020-03-28T17:16:29Z</time>
      </trkpt>
      <trkpt lat="43.5498" lon="1.48319">
        <ele>198.997</ele>
        <time>2020-03-28T17:16:35Z</time>
      </trkpt>
      <trkpt lat="43.54974" lon="1.48324">
        <ele>198.991</ele>
        <time>2020-03-28T17:16:40Z</time>
      </trkpt>
      <trkpt lat="43.5497" lon="1.48329">
        <ele>198.985</ele>
        <time>2020-03-28T17:16:46Z</time>
      </trkpt>
      <trkpt lat="43.54962" lon="1.48335">
        <ele>198.979</ele>
        <time>2020-03-28T17:16:52Z</time>
      </trkpt>
      <trkpt lat="43.54958" lon="1.4834">
        <ele>198.976</ele>
        <time>2020-03-28T17:16:57Z</time>
      </trkpt>
      <trkpt lat="43.54954" lon="1.48344">
        <ele>198.972</ele>
        <time>2020-03-28T17:17:03Z</time>
      </trkpt>
      <trkpt lat="43.54947" lon="1.48348">
        <ele>198.966</ele>
        <time>2020-03-28T17:17:09Z</time>
      </trkpt>
      <trkpt lat="43.54945" lon="1.4835">
        <ele>198.957</ele>
        <time>2020-03-28T17:17:15Z</time>
      </trkpt>
      <trkpt lat="43.54942" lon="1.48351">
        <ele>198.952</ele>
        <time>2020-03-28T17:17:20Z</time>
      </trkpt>
      <trkpt lat="43.54938" lon="1.48356">
        <ele>198.947</ele>
        <time>2020-03-28T17:17:26Z</time>
      </trkpt>
      <trkpt lat="43.54934" lon="1.4836">
        <ele>198.947</ele>
        <time>2020-03-28T17:17:31Z</time>
      </trkpt>
      <trkpt lat="43.54929" lon="1.48361">
        <ele>198.95</ele>
        <time>2020-03-28T17:17:37Z</time>
      </trkpt>
      <trkpt lat="43.54925" lon="1.4836">
        <ele>198.953</ele>
        <time>2020-03-28T17:17:42Z</time>
      </trkpt>
      <trkpt lat="43.54924" lon="1.4836">
        <ele>198.959</ele>
        <time>2020-03-28T17:17:47Z</time>
      </trkpt>
      <trkpt lat="43.54923" lon="1.48357">
        <ele>198.972</ele>
        <time>2020-03-28T17:17:53Z</time>
      </trkpt>
      <trkpt lat="43.54922" lon="1.48354">
        <ele>198.989</ele>
        <time>2020-03-28T17:17:59Z</time>
      </trkpt>
      <trkpt lat="43.54921" lon="1.48352">
        <ele>199.003</ele>
        <time>2020-03-28T17:18:04Z</time>
      </trkpt>
      <trkpt lat="43.54915" lon="1.48344">
        <ele>199.023</ele>
        <time>2020-03-28T17:18:10Z</time>
      </trkpt>
      <trkpt lat="43.54912" lon="1.48334">
        <ele>199.044</ele>
        <time>2020-03-28T17:18:16Z</time>
      </trkpt>
      <trkpt lat="43.54909" lon="1.48328">
        <ele>199.062</ele>
        <time>2020-03-28T17:18:21Z</time>
      </trkpt>
      <trkpt lat="43.54906" lon="1.4832">
        <ele>199.084</ele>
        <time>2020-03-28T17:18:27Z</time>
      </trkpt>
      <trkpt lat="43.54905" lon="1.48314">
        <ele>199.105</ele>
        <time>2020-03-28T17:18:33Z</time>
      </trkpt>
      <trkpt lat="43.54903" lon="1.48308">
        <ele>199.126</ele>
        <time>2020-03-28T17:18:39Z</time>
      </trkpt>
      <trkpt lat="43.54901" lon="1.48299">
        <ele>199.148</ele>
        <time>2020-03-28T17:18:45Z</time>
      </trkpt>
      <trkpt lat="43.54896" lon="1.48293">
        <ele>199.168</ele>
        <time>2020-03-28T17:18:50Z</time>
      </trkpt>
      <trkpt lat="43.54893" lon="1.48283">
        <ele>199.186</ele>
        <time>2020-03-28T17:18:55Z</time>
      </trkpt>
      <trkpt lat="43.5489" lon="1.48277">
        <ele>199.203</ele>
        <time>2020-03-28T17:19:01Z</time>
      </trkpt>
      <trkpt lat="43.54889" lon="1.4827">
        <ele>199.214</ele>
        <time>2020-03-28T17:19:07Z</time>
      </trkpt>
      <trkpt lat="43.54887" lon="1.48264">
        <ele>199.226</ele>
        <time>2020-03-28T17:19:13Z</time>
      </trkpt>
      <trkpt lat="43.54883" lon="1.48258">
        <ele>199.237</ele>
        <time>2020-03-28T17:19:18Z</time>
      </trkpt>
      <trkpt lat="43.5488" lon="1.48248">
        <ele>199.246</ele>
        <time>2020-03-28T17:19:24Z</time>
      </trkpt>
      <trkpt lat="43.54878" lon="1.48237">
        <ele>199.25</ele>
        <time>2020-03-28T17:19:30Z</time>
      </trkpt>
      <trkpt lat="43.54877" lon="1.48233">
        <ele>199.254</ele>
        <time>2020-03-28T17:19:35Z</time>
      </trkpt>
      <trkpt lat="43.54876" lon="1.48227">
        <ele>199.262</ele>
        <time>2020-03-28T17:19:40Z</time>
      </trkpt>
      <trkpt lat="43.54876" lon="1.48219">
        <ele>199.277</ele>
        <time>2020-03-28T17:19:46Z</time>
      </trkpt>
      <trkpt lat="43.54874" lon="1.48217">
        <ele>199.292</ele>
        <time>2020-03-28T17:19:51Z</time>
      </trkpt>
      <trkpt lat="43.54871" lon="1.48208">
        <ele>199.303</ele>
        <time>2020-03-28T17:19:57Z</time>
      </trkpt>
      <trkpt lat="43.54865" lon="1.48198">
        <ele>199.308</ele>
        <time>2020-03-28T17:20:03Z</time>
      </trkpt>
      <trkpt lat="43.54863" lon="1.48189">
        <ele>199.306</ele>
        <time>2020-03-28T17:20:09Z</time>
      </trkpt>
      <trkpt lat="43.54862" lon="1.48182">
        <ele>199.302</ele>
        <time>2020-03-28T17:20:14Z</time>
      </trkpt>
      <trkpt lat="43.54859" lon="1.48172">
        <ele>199.299</ele>
        <time>2020-03-28T17:20:20Z</time>
      </trkpt>
      <trkpt lat="43.54858" lon="1.48166">
        <ele>199.297</ele>
        <time>2020-03-28T17:20:25Z</time>
      </trkpt>
      <trkpt lat="43.54857" lon="1.48158">
        <ele>199.303</ele>
        <time>2020-03-28T17:20:31Z</time>
      </trkpt>
      <trkpt lat="43.54855" lon="1.48152">
        <ele>199.317</ele>
        <time>2020-03-28T17:20:36Z</time>
      </trkpt>
      <trkpt lat="43.54852" lon="1.48147">
        <ele>199.336</ele>
        <time>2020-03-28T17:20:41Z</time>
      </trkpt>
      <trkpt lat="43.54848" lon="1.48142">
        <ele>199.358</ele>
        <time>2020-03-28T17:20:46Z</time>
      </trkpt>
      <trkpt lat="43.54845" lon="1.48133">
        <ele>199.383</ele>
        <time>2020-03-28T17:20:52Z</time>
      </trkpt>
      <trkpt lat="43.54844" lon="1.48128">
        <ele>199.401</ele>
        <time>2020-03-28T17:20:57Z</time>
      </trkpt>
      <trkpt lat="43.54842" lon="1.48122">
        <ele>199.419</ele>
        <time>2020-03-28T17:21:02Z</time>
      </trkpt>
      <trkpt lat="43.54839" lon="1.48116">
        <ele>199.438</ele>
        <time>2020-03-28T17:21:08Z</time>
      </trkpt>
      <trkpt lat="43.54838" lon="1.48107">
        <ele>199.449</ele>
        <time>2020-03-28T17:21:14Z</time>
      </trkpt>
      <trkpt lat="43.54835" lon="1.48102">
        <ele>199.458</ele>
        <time>2020-03-28T17:21:19Z</time>
      </trkpt>
      <trkpt lat="43.54835" lon="1.48095">
        <ele>199.464</ele>
        <time>2020-03-28T17:21:24Z</time>
      </trkpt>
      <trkpt lat="43.54835" lon="1.48094">
        <ele>199.464</ele>
        <time>2020-03-28T17:21:30Z</time>
      </trkpt>
      <trkpt lat="43.54831" lon="1.48091">
        <ele>199.467</ele>
        <time>2020-03-28T17:21:36Z</time>
      </trkpt>
      <trkpt lat="43.54829" lon="1.4809">
        <ele>199.475</ele>
        <time>2020-03-28T17:21:41Z</time>
      </trkpt>
      <trkpt lat="43.54828" lon="1.48087">
        <ele>199.483</ele>
        <time>2020-03-28T17:21:46Z</time>
      </trkpt>
      <trkpt lat="43.54828" lon="1.48076">
        <ele>199.495</ele>
        <time>2020-03-28T17:21:52Z</time>
      </trkpt>
      <trkpt lat="43.54824" lon="1.48072">
        <ele>199.507</ele>
        <time>2020-03-28T17:21:57Z</time>
      </trkpt>
      <trkpt lat="43.54821" lon="1.48066">
        <ele>199.534</ele>
        <time>2020-03-28T17:22:03Z</time>
      </trkpt>
      <trkpt lat="43.54818" lon="1.48057">
        <ele>199.567</ele>
        <time>2020-03-28T17:22:09Z</time>
      </trkpt>
      <trkpt lat="43.54816" lon="1.48052">
        <ele>199.597</ele>
        <time>2020-03-28T17:22:14Z</time>
      </trkpt>
      <trkpt lat="43.54814" lon="1.48043">
        <ele>199.635</ele>
        <time>2020-03-28T17:22:20Z</time>
      </trkpt>
      <trkpt lat="43.54813" lon="1.48037">
        <ele>199.666</ele>
        <time>2020-03-28T17:22:25Z</time>
      </trkpt>
      <trkpt lat="43.5481" lon="1.48027">
        <ele>199.704</ele>
        <time>2020-03-28T17:22:31Z</time>
      </trkpt>
      <trkpt lat="43.54808" lon="1.48021">
        <ele>199.745</ele>
        <time>2020-03-28T17:22:37Z</time>
      </trkpt>
      <trkpt lat="43.54805" lon="1.48015">
        <ele>199.793</ele>
        <time>2020-03-28T17:22:43Z</time>
      </trkpt>
      <trkpt lat="43.54801" lon="1.48007">
        <ele>199.848</ele>
        <time>2020-03-28T17:22:49Z</time>
      </trkpt>
      <trkpt lat="43.54797" lon="1.47998">
        <ele>199.896</ele>
        <time>2020-03-28T17:22:54Z</time>
      </trkpt>
      <trkpt lat="43.54793" lon="1.4799">
        <ele>199.942</ele>
        <time>2020-03-28T17:22:59Z</time>
      </trkpt>
      <trkpt lat="43.54791" lon="1.47981">
        <ele>199.994</ele>
        <time>2020-03-28T17:23:05Z</time>
      </trkpt>
      <trkpt lat="43.5479" lon="1.47973">
        <ele>200.043</ele>
        <time>2020-03-28T17:23:11Z</time>
      </trkpt>
      <trkpt lat="43.54789" lon="1.47969">
        <ele>200.085</ele>
        <time>2020-03-28T17:23:16Z</time>
      </trkpt>
      <trkpt lat="43.54784" lon="1.47962">
        <ele>200.136</ele>
        <time>2020-03-28T17:23:22Z</time>
      </trkpt>
      <trkpt lat="43.5478" lon="1.47955">
        <ele>200.181</ele>
        <time>2020-03-28T17:23:28Z</time>
      </trkpt>
      <trkpt lat="43.54778" lon="1.47944">
        <ele>200.222</ele>
        <time>2020-03-28T17:23:34Z</time>
      </trkpt>
      <trkpt lat="43.54777" lon="1.47934">
        <ele>200.259</ele>
        <time>2020-03-28T17:23:40Z</time>
      </trkpt>
      <trkpt lat="43.54776" lon="1.47931">
        <ele>200.28</ele>
        <time>2020-03-28T17:23:45Z</time>
      </trkpt>
      <trkpt lat="43.54775" lon="1.47926">
        <ele>200.315</ele>
        <time>2020-03-28T17:23:50Z</time>
      </trkpt>
      <trkpt lat="43.54772" lon="1.47921">
        <ele>200.356</ele>
        <time>2020-03-28T17:23:56Z</time>
      </trkpt>
      <trkpt lat="43.54771" lon="1.47914">
        <ele>200.399</ele>
        <time>2020-03-28T17:24:01Z</time>
      </trkpt>
      <trkpt lat="43.54768" lon="1.47908">
        <ele>200.442</ele>
        <time>2020-03-28T17:24:06Z</time>
      </trkpt>
      <trkpt lat="43.54765" lon="1.47898">
        <ele>200.492</ele>
        <time>2020-03-28T17:24:12Z</time>
      </trkpt>
      <trkpt lat="43.54758" lon="1.47887">
        <ele>200.53</ele>
        <time>2020-03-28T17:24:17Z</time>
      </trkpt>
      <trkpt lat="43.54761" lon="1.47879">
        <ele>200.566</ele>
        <time>2020-03-28T17:24:23Z</time>
      </trkpt>
      <trkpt lat="43.54765" lon="1.47873">
        <ele>200.596</ele>
        <time>2020-03-28T17:24:28Z</time>
      </trkpt>
      <trkpt lat="43.5477" lon="1.47866">
        <ele>200.629</ele>
        <time>2020-03-28T17:24:34Z</time>
      </trkpt>
      <trkpt lat="43.54776" lon="1.47861">
        <ele>200.658</ele>
        <time>2020-03-28T17:24:39Z</time>
      </trkpt>
      <trkpt lat="43.54779" lon="1.47857">
        <ele>200.689</ele>
        <time>2020-03-28T17:24:44Z</time>
      </trkpt>
      <trkpt lat="43.54783" lon="1.47851">
        <ele>200.73</ele>
        <time>2020-03-28T17:24:50Z</time>
      </trkpt>
      <trkpt lat="43.54788" lon="1.47844">
        <ele>200.768</ele>
        <time>2020-03-28T17:24:55Z</time>
      </trkpt>
      <trkpt lat="43.5479" lon="1.47841">
        <ele>200.8</ele>
        <time>2020-03-28T17:25:00Z</time>
      </trkpt>
      <trkpt lat="43.54793" lon="1.47833">
        <ele>200.832</ele>
        <time>2020-03-28T17:25:06Z</time>
      </trkpt>
      <trkpt lat="43.54796" lon="1.47825">
        <ele>200.864</ele>
        <time>2020-03-28T17:25:12Z</time>
      </trkpt>
      <trkpt lat="43.54799" lon="1.47819">
        <ele>200.888</ele>
        <time>2020-03-28T17:25:17Z</time>
      </trkpt>
      <trkpt lat="43.54801" lon="1.47813">
        <ele>200.909</ele>
        <time>2020-03-28T17:25:23Z</time>
      </trkpt>
      <trkpt lat="43.54802" lon="1.47809">
        <ele>200.922</ele>
        <time>2020-03-28T17:25:29Z</time>
      </trkpt>
      <trkpt lat="43.54805" lon="1.47807">
        <ele>200.929</ele>
        <time>2020-03-28T17:25:35Z</time>
      </trkpt>
      <trkpt lat="43.54806" lon="1.47805">
        <ele>200.941</ele>
        <time>2020-03-28T17:25:41Z</time>
      </trkpt>
      <trkpt lat="43.5481" lon="1.47802">
        <ele>200.951</ele>
        <time>2020-03-28T17:25:46Z</time>
      </trkpt>
      <trkpt lat="43.54813" lon="1.47798">
        <ele>200.959</ele>
        <time>2020-03-28T17:25:52Z</time>
      </trkpt>
      <trkpt lat="43.54819" lon="1.47795">
        <ele>200.965</ele>
        <time>2020-03-28T17:25:57Z</time>
      </trkpt>
      <trkpt lat="43.54823" lon="1.47792">
        <ele>200.978</ele>
        <time>2020-03-28T17:26:03Z</time>
      </trkpt>
      <trkpt lat="43.54827" lon="1.4779">
        <ele>200.995</ele>
        <time>2020-03-28T17:26:09Z</time>
      </trkpt>
      <trkpt lat="43.54829" lon="1.4779">
        <ele>201.008</ele>
        <time>2020-03-28T17:26:14Z</time>
      </trkpt>
      <trkpt lat="43.54835" lon="1.47787">
        <ele>201.018</ele>
        <time>2020-03-28T17:26:19Z</time>
      </trkpt>
      <trkpt lat="43.5484" lon="1.47783">
        <ele>201.026</ele>
        <time>2020-03-28T17:26:25Z</time>
      </trkpt>
      <trkpt lat="43.54845" lon="1.47779">
        <ele>201.026</ele>
        <time>2020-03-28T17:26:30Z</time>
      </trkpt>
      <trkpt lat="43.54853" lon="1.47779">
        <ele>201.026</ele>
        <time>2020-03-28T17:26:36Z</time>
      </trkpt>
      <trkpt lat="43.54859" lon="1.47768">
        <ele>201.024</ele>
        <time>2020-03-28T17:26:41Z</time>
      </trkpt>
      <trkpt lat="43.54871" lon="1.47768">
        <ele>201.015</ele>
        <time>2020-03-28T17:26:47Z</time>
      </trkpt>
      <trkpt lat="43.54877" lon="1.47767">
        <ele>201</ele>
        <time>2020-03-28T17:26:52Z</time>
      </trkpt>
      <trkpt lat="43.5488" lon="1.47764">
        <ele>200.978</ele>
        <time>2020-03-28T17:26:58Z</time>
      </trkpt>
      <trkpt lat="43.54886" lon="1.47758">
        <ele>200.96</ele>
        <time>2020-03-28T17:27:04Z</time>
      </trkpt>
      <trkpt lat="43.54894" lon="1.47755">
        <ele>200.953</ele>
        <time>2020-03-28T17:27:09Z</time>
      </trkpt>
      <trkpt lat="43.54898" lon="1.4775">
        <ele>200.955</ele>
        <time>2020-03-28T17:27:15Z</time>
      </trkpt>
      <trkpt lat="43.54903" lon="1.47743">
        <ele>200.955</ele>
        <time>2020-03-28T17:27:20Z</time>
      </trkpt>
      <trkpt lat="43.54909" lon="1.47737">
        <ele>200.951</ele>
        <time>2020-03-28T17:27:26Z</time>
      </trkpt>
      <trkpt lat="43.54915" lon="1.47733">
        <ele>200.95</ele>
        <time>2020-03-28T17:27:32Z</time>
      </trkpt>
      <trkpt lat="43.5492" lon="1.4773">
        <ele>200.948</ele>
        <time>2020-03-28T17:27:38Z</time>
      </trkpt>
      <trkpt lat="43.54923" lon="1.47728">
        <ele>200.95</ele>
        <time>2020-03-28T17:27:43Z</time>
      </trkpt>
      <trkpt lat="43.54929" lon="1.47723">
        <ele>200.948</ele>
        <time>2020-03-28T17:27:49Z</time>
      </trkpt>
      <trkpt lat="43.54939" lon="1.47719">
        <ele>200.946</ele>
        <time>2020-03-28T17:27:55Z</time>
      </trkpt>
      <trkpt lat="43.54946" lon="1.47717">
        <ele>200.946</ele>
        <time>2020-03-28T17:28:01Z</time>
      </trkpt>
      <trkpt lat="43.54952" lon="1.47713">
        <ele>200.948</ele>
        <time>2020-03-28T17:28:06Z</time>
      </trkpt>
      <trkpt lat="43.54956" lon="1.47711">
        <ele>200.956</ele>
        <time>2020-03-28T17:28:11Z</time>
      </trkpt>
      <trkpt lat="43.54961" lon="1.47709">
        <ele>200.967</ele>
        <time>2020-03-28T17:28:17Z</time>
      </trkpt>
      <trkpt lat="43.54967" lon="1.47706">
        <ele>200.974</ele>
        <time>2020-03-28T17:28:23Z</time>
      </trkpt>
      <trkpt lat="43.54972" lon="1.47704">
        <ele>200.977</ele>
        <time>2020-03-28T17:28:29Z</time>
      </trkpt>
      <trkpt lat="43.54979" lon="1.477">
        <ele>200.978</ele>
        <time>2020-03-28T17:28:35Z</time>
      </trkpt>
      <trkpt lat="43.54982" lon="1.47697">
        <ele>200.979</ele>
        <time>2020-03-28T17:28:41Z</time>
      </trkpt>
      <trkpt lat="43.54986" lon="1.47695">
        <ele>200.98</ele>
        <time>2020-03-28T17:28:46Z</time>
      </trkpt>
      <trkpt lat="43.54991" lon="1.47693">
        <ele>200.978</ele>
        <time>2020-03-28T17:28:51Z</time>
      </trkpt>
      <trkpt lat="43.54995" lon="1.47691">
        <ele>200.974</ele>
        <time>2020-03-28T17:28:56Z</time>
      </trkpt>
      <trkpt lat="43.54997" lon="1.47687">
        <ele>200.968</ele>
        <time>2020-03-28T17:29:02Z</time>
      </trkpt>
      <trkpt lat="43.54999" lon="1.47682">
        <ele>200.959</ele>
        <time>2020-03-28T17:29:08Z</time>
      </trkpt>
      <trkpt lat="43.55007" lon="1.47681">
        <ele>200.936</ele>
        <time>2020-03-28T17:29:14Z</time>
      </trkpt>
      <trkpt lat="43.55016" lon="1.47676">
        <ele>200.908</ele>
        <time>2020-03-28T17:29:20Z</time>
      </trkpt>
      <trkpt lat="43.55026" lon="1.47674">
        <ele>200.88</ele>
        <time>2020-03-28T17:29:26Z</time>
      </trkpt>
      <trkpt lat="43.55034" lon="1.47676">
        <ele>200.862</ele>
        <time>2020-03-28T17:29:32Z</time>
      </trkpt>
      <trkpt lat="43.55036" lon="1.4768">
        <ele>200.853</ele>
        <time>2020-03-28T17:29:37Z</time>
      </trkpt>
      <trkpt lat="43.55037" lon="1.4768">
        <ele>200.848</ele>
        <time>2020-03-28T17:29:43Z</time>
      </trkpt>
      <trkpt lat="43.55037" lon="1.4768">
        <ele>200.848</ele>
        <time>2020-03-28T17:29:48Z</time>
      </trkpt>
      <trkpt lat="43.55035" lon="1.47662">
        <ele>154.8</ele>
      </trkpt>
    </trkseg>
  </trk>
  <trk>
    <name><![CDATA[26 mars]]></name>
    <trkseg>
      <trkpt lat="43.55033" lon="1.47649">
        <ele>236.617</ele>
        <time>2020-03-26T16:11:39Z</time>
      </trkpt>
      <trkpt lat="43.55035" lon="1.47645">
        <ele>228.094</ele>
        <time>2020-03-26T16:11:45Z</time>
      </trkpt>
      <trkpt lat="43.55029" lon="1.47653">
        <ele>228.6</ele>
        <time>2020-03-26T16:11:50Z</time>
      </trkpt>
      <trkpt lat="43.55026" lon="1.47659">
        <ele>230.277</ele>
        <time>2020-03-26T16:11:56Z</time>
      </trkpt>
      <trkpt lat="43.55026" lon="1.47662">
        <ele>228.665</ele>
        <time>2020-03-26T16:12:02Z</time>
      </trkpt>
      <trkpt lat="43.55028" lon="1.4766">
        <ele>224.629</ele>
        <time>2020-03-26T16:12:08Z</time>
      </trkpt>
      <trkpt lat="43.5503" lon="1.47662">
        <ele>224.466</ele>
        <time>2020-03-26T16:12:13Z</time>
      </trkpt>
      <trkpt lat="43.55029" lon="1.47661">
        <ele>224.118</ele>
        <time>2020-03-26T16:12:19Z</time>
      </trkpt>
      <trkpt lat="43.55028" lon="1.47664">
        <ele>223.699</ele>
        <time>2020-03-26T16:12:25Z</time>
      </trkpt>
      <trkpt lat="43.55023" lon="1.47669">
        <ele>223.234</ele>
        <time>2020-03-26T16:12:30Z</time>
      </trkpt>
      <trkpt lat="43.55017" lon="1.47674">
        <ele>222.713</ele>
        <time>2020-03-26T16:12:35Z</time>
      </trkpt>
      <trkpt lat="43.55011" lon="1.4768">
        <ele>222.081</ele>
        <time>2020-03-26T16:12:41Z</time>
      </trkpt>
      <trkpt lat="43.55007" lon="1.47681">
        <ele>221.388</ele>
        <time>2020-03-26T16:12:47Z</time>
      </trkpt>
      <trkpt lat="43.55002" lon="1.47683">
        <ele>220.76</ele>
        <time>2020-03-26T16:12:52Z</time>
      </trkpt>
      <trkpt lat="43.54996" lon="1.47688">
        <ele>220.013</ele>
        <time>2020-03-26T16:12:58Z</time>
      </trkpt>
      <trkpt lat="43.5499" lon="1.47689">
        <ele>219.27</ele>
        <time>2020-03-26T16:13:04Z</time>
      </trkpt>
      <trkpt lat="43.54984" lon="1.47691">
        <ele>218.578</ele>
        <time>2020-03-26T16:13:10Z</time>
      </trkpt>
      <trkpt lat="43.54978" lon="1.47695">
        <ele>218.027</ele>
        <time>2020-03-26T16:13:15Z</time>
      </trkpt>
      <trkpt lat="43.54973" lon="1.47698">
        <ele>217.413</ele>
        <time>2020-03-26T16:13:21Z</time>
      </trkpt>
      <trkpt lat="43.54969" lon="1.47703">
        <ele>216.948</ele>
        <time>2020-03-26T16:13:26Z</time>
      </trkpt>
      <trkpt lat="43.54964" lon="1.47707">
        <ele>216.415</ele>
        <time>2020-03-26T16:13:32Z</time>
      </trkpt>
      <trkpt lat="43.54958" lon="1.4771">
        <ele>215.982</ele>
        <time>2020-03-26T16:13:37Z</time>
      </trkpt>
      <trkpt lat="43.54952" lon="1.47713">
        <ele>215.554</ele>
        <time>2020-03-26T16:13:42Z</time>
      </trkpt>
      <trkpt lat="43.54947" lon="1.47715">
        <ele>215.078</ele>
        <time>2020-03-26T16:13:48Z</time>
      </trkpt>
      <trkpt lat="43.54942" lon="1.47718">
        <ele>214.729</ele>
        <time>2020-03-26T16:13:53Z</time>
      </trkpt>
      <trkpt lat="43.54938" lon="1.47721">
        <ele>214.394</ele>
        <time>2020-03-26T16:13:58Z</time>
      </trkpt>
      <trkpt lat="43.54932" lon="1.47725">
        <ele>213.998</ele>
        <time>2020-03-26T16:14:04Z</time>
      </trkpt>
      <trkpt lat="43.54925" lon="1.4773">
        <ele>213.606</ele>
        <time>2020-03-26T16:14:10Z</time>
      </trkpt>
      <trkpt lat="43.54919" lon="1.47734">
        <ele>213.225</ele>
        <time>2020-03-26T16:14:16Z</time>
      </trkpt>
      <trkpt lat="43.54914" lon="1.47738">
        <ele>212.86</ele>
        <time>2020-03-26T16:14:22Z</time>
      </trkpt>
      <trkpt lat="43.54911" lon="1.47739">
        <ele>212.585</ele>
        <time>2020-03-26T16:14:27Z</time>
      </trkpt>
      <trkpt lat="43.54905" lon="1.47743">
        <ele>212.275</ele>
        <time>2020-03-26T16:14:33Z</time>
      </trkpt>
      <trkpt lat="43.54897" lon="1.47746">
        <ele>211.995</ele>
        <time>2020-03-26T16:14:39Z</time>
      </trkpt>
      <trkpt lat="43.54891" lon="1.4775">
        <ele>211.764</ele>
        <time>2020-03-26T16:14:44Z</time>
      </trkpt>
      <trkpt lat="43.54885" lon="1.47755">
        <ele>211.495</ele>
        <time>2020-03-26T16:14:50Z</time>
      </trkpt>
      <trkpt lat="43.54879" lon="1.4776">
        <ele>211.284</ele>
        <time>2020-03-26T16:14:55Z</time>
      </trkpt>
      <trkpt lat="43.54871" lon="1.47764">
        <ele>211.037</ele>
        <time>2020-03-26T16:15:01Z</time>
      </trkpt>
      <trkpt lat="43.54866" lon="1.47766">
        <ele>210.847</ele>
        <time>2020-03-26T16:15:06Z</time>
      </trkpt>
      <trkpt lat="43.54862" lon="1.47766">
        <ele>210.667</ele>
        <time>2020-03-26T16:15:12Z</time>
      </trkpt>
      <trkpt lat="43.54857" lon="1.47762">
        <ele>210.511</ele>
        <time>2020-03-26T16:15:17Z</time>
      </trkpt>
      <trkpt lat="43.54851" lon="1.4776">
        <ele>210.349</ele>
        <time>2020-03-26T16:15:23Z</time>
      </trkpt>
      <trkpt lat="43.54848" lon="1.47759">
        <ele>210.245</ele>
        <time>2020-03-26T16:15:29Z</time>
      </trkpt>
      <trkpt lat="43.54847" lon="1.47759">
        <ele>210.215</ele>
        <time>2020-03-26T16:15:35Z</time>
      </trkpt>
      <trkpt lat="43.54847" lon="1.47759">
        <ele>210.184</ele>
        <time>2020-03-26T16:15:41Z</time>
      </trkpt>
      <trkpt lat="43.54845" lon="1.47761">
        <ele>210.127</ele>
        <time>2020-03-26T16:15:46Z</time>
      </trkpt>
      <trkpt lat="43.54841" lon="1.47764">
        <ele>210.037</ele>
        <time>2020-03-26T16:15:52Z</time>
      </trkpt>
      <trkpt lat="43.54835" lon="1.47769">
        <ele>209.945</ele>
        <time>2020-03-26T16:15:58Z</time>
      </trkpt>
      <trkpt lat="43.54829" lon="1.47774">
        <ele>209.842</ele>
        <time>2020-03-26T16:16:04Z</time>
      </trkpt>
      <trkpt lat="43.54824" lon="1.47777">
        <ele>209.752</ele>
        <time>2020-03-26T16:16:09Z</time>
      </trkpt>
      <trkpt lat="43.54819" lon="1.47779">
        <ele>209.656</ele>
        <time>2020-03-26T16:16:15Z</time>
      </trkpt>
      <trkpt lat="43.54813" lon="1.47783">
        <ele>209.575</ele>
        <time>2020-03-26T16:16:21Z</time>
      </trkpt>
      <trkpt lat="43.54804" lon="1.47786">
        <ele>209.504</ele>
        <time>2020-03-26T16:16:27Z</time>
      </trkpt>
      <trkpt lat="43.54797" lon="1.47785">
        <ele>209.443</ele>
        <time>2020-03-26T16:16:33Z</time>
      </trkpt>
      <trkpt lat="43.54791" lon="1.47777">
        <ele>209.4</ele>
        <time>2020-03-26T16:16:39Z</time>
      </trkpt>
      <trkpt lat="43.54787" lon="1.47772">
        <ele>209.371</ele>
        <time>2020-03-26T16:16:45Z</time>
      </trkpt>
      <trkpt lat="43.54783" lon="1.47766">
        <ele>209.346</ele>
        <time>2020-03-26T16:16:50Z</time>
      </trkpt>
      <trkpt lat="43.5478" lon="1.47761">
        <ele>209.32</ele>
        <time>2020-03-26T16:16:55Z</time>
      </trkpt>
      <trkpt lat="43.54775" lon="1.47758">
        <ele>209.301</ele>
        <time>2020-03-26T16:17:00Z</time>
      </trkpt>
      <trkpt lat="43.54771" lon="1.47754">
        <ele>209.282</ele>
        <time>2020-03-26T16:17:06Z</time>
      </trkpt>
      <trkpt lat="43.5477" lon="1.47749">
        <ele>209.268</ele>
        <time>2020-03-26T16:17:11Z</time>
      </trkpt>
      <trkpt lat="43.54766" lon="1.47738">
        <ele>209.258</ele>
        <time>2020-03-26T16:17:17Z</time>
      </trkpt>
      <trkpt lat="43.54763" lon="1.47731">
        <ele>209.26</ele>
        <time>2020-03-26T16:17:22Z</time>
      </trkpt>
      <trkpt lat="43.54759" lon="1.47727">
        <ele>209.257</ele>
        <time>2020-03-26T16:17:28Z</time>
      </trkpt>
      <trkpt lat="43.54756" lon="1.47719">
        <ele>209.244</ele>
        <time>2020-03-26T16:17:34Z</time>
      </trkpt>
      <trkpt lat="43.54752" lon="1.47713">
        <ele>209.229</ele>
        <time>2020-03-26T16:17:40Z</time>
      </trkpt>
      <trkpt lat="43.5475" lon="1.47707">
        <ele>209.226</ele>
        <time>2020-03-26T16:17:45Z</time>
      </trkpt>
      <trkpt lat="43.54748" lon="1.47704">
        <ele>209.246</ele>
        <time>2020-03-26T16:17:51Z</time>
      </trkpt>
      <trkpt lat="43.54745" lon="1.47702">
        <ele>209.267</ele>
        <time>2020-03-26T16:17:57Z</time>
      </trkpt>
      <trkpt lat="43.54742" lon="1.47697">
        <ele>209.29</ele>
        <time>2020-03-26T16:18:02Z</time>
      </trkpt>
      <trkpt lat="43.54736" lon="1.47689">
        <ele>209.319</ele>
        <time>2020-03-26T16:18:08Z</time>
      </trkpt>
      <trkpt lat="43.54732" lon="1.47684">
        <ele>209.345</ele>
        <time>2020-03-26T16:18:13Z</time>
      </trkpt>
      <trkpt lat="43.54727" lon="1.47678">
        <ele>209.384</ele>
        <time>2020-03-26T16:18:19Z</time>
      </trkpt>
      <trkpt lat="43.54722" lon="1.47674">
        <ele>209.424</ele>
        <time>2020-03-26T16:18:25Z</time>
      </trkpt>
      <trkpt lat="43.54718" lon="1.47671">
        <ele>209.472</ele>
        <time>2020-03-26T16:18:31Z</time>
      </trkpt>
      <trkpt lat="43.54713" lon="1.47664">
        <ele>209.526</ele>
        <time>2020-03-26T16:18:37Z</time>
      </trkpt>
      <trkpt lat="43.54709" lon="1.4766">
        <ele>209.581</ele>
        <time>2020-03-26T16:18:43Z</time>
      </trkpt>
      <trkpt lat="43.54702" lon="1.47655">
        <ele>209.638</ele>
        <time>2020-03-26T16:18:49Z</time>
      </trkpt>
      <trkpt lat="43.54697" lon="1.4765">
        <ele>209.697</ele>
        <time>2020-03-26T16:18:55Z</time>
      </trkpt>
      <trkpt lat="43.54695" lon="1.47646">
        <ele>209.734</ele>
        <time>2020-03-26T16:19:01Z</time>
      </trkpt>
      <trkpt lat="43.54695" lon="1.47646">
        <ele>209.746</ele>
        <time>2020-03-26T16:19:06Z</time>
      </trkpt>
      <trkpt lat="43.54694" lon="1.47639">
        <ele>209.792</ele>
        <time>2020-03-26T16:19:12Z</time>
      </trkpt>
      <trkpt lat="43.54691" lon="1.4763">
        <ele>209.826</ele>
        <time>2020-03-26T16:19:18Z</time>
      </trkpt>
      <trkpt lat="43.54689" lon="1.47625">
        <ele>209.849</ele>
        <time>2020-03-26T16:19:23Z</time>
      </trkpt>
      <trkpt lat="43.54683" lon="1.47616">
        <ele>209.875</ele>
        <time>2020-03-26T16:19:29Z</time>
      </trkpt>
      <trkpt lat="43.5468" lon="1.4761">
        <ele>209.898</ele>
        <time>2020-03-26T16:19:34Z</time>
      </trkpt>
      <trkpt lat="43.54676" lon="1.47603">
        <ele>209.938</ele>
        <time>2020-03-26T16:19:40Z</time>
      </trkpt>
      <trkpt lat="43.54673" lon="1.47596">
        <ele>209.975</ele>
        <time>2020-03-26T16:19:45Z</time>
      </trkpt>
      <trkpt lat="43.54668" lon="1.47589">
        <ele>210.011</ele>
        <time>2020-03-26T16:19:50Z</time>
      </trkpt>
      <trkpt lat="43.54665" lon="1.47583">
        <ele>210.045</ele>
        <time>2020-03-26T16:19:55Z</time>
      </trkpt>
      <trkpt lat="43.54661" lon="1.47576">
        <ele>210.087</ele>
        <time>2020-03-26T16:20:01Z</time>
      </trkpt>
      <trkpt lat="43.54658" lon="1.47569">
        <ele>210.129</ele>
        <time>2020-03-26T16:20:07Z</time>
      </trkpt>
      <trkpt lat="43.54654" lon="1.47563">
        <ele>210.164</ele>
        <time>2020-03-26T16:20:12Z</time>
      </trkpt>
      <trkpt lat="43.5465" lon="1.47557">
        <ele>210.201</ele>
        <time>2020-03-26T16:20:18Z</time>
      </trkpt>
      <trkpt lat="43.54648" lon="1.47551">
        <ele>210.231</ele>
        <time>2020-03-26T16:20:23Z</time>
      </trkpt>
      <trkpt lat="43.54645" lon="1.47545">
        <ele>210.276</ele>
        <time>2020-03-26T16:20:29Z</time>
      </trkpt>
      <trkpt lat="43.54642" lon="1.4754">
        <ele>210.306</ele>
        <time>2020-03-26T16:20:34Z</time>
      </trkpt>
      <trkpt lat="43.54639" lon="1.47536">
        <ele>210.325</ele>
        <time>2020-03-26T16:20:39Z</time>
      </trkpt>
      <trkpt lat="43.54638" lon="1.47535">
        <ele>210.329</ele>
        <time>2020-03-26T16:20:45Z</time>
      </trkpt>
      <trkpt lat="43.54638" lon="1.47535">
        <ele>210.33</ele>
        <time>2020-03-26T16:20:51Z</time>
      </trkpt>
      <trkpt lat="43.54635" lon="1.47532">
        <ele>210.337</ele>
        <time>2020-03-26T16:20:56Z</time>
      </trkpt>
      <trkpt lat="43.54633" lon="1.47528">
        <ele>210.343</ele>
        <time>2020-03-26T16:21:02Z</time>
      </trkpt>
      <trkpt lat="43.5463" lon="1.47521">
        <ele>210.334</ele>
        <time>2020-03-26T16:21:08Z</time>
      </trkpt>
      <trkpt lat="43.54626" lon="1.47516">
        <ele>210.319</ele>
        <time>2020-03-26T16:21:14Z</time>
      </trkpt>
      <trkpt lat="43.54622" lon="1.47509">
        <ele>210.306</ele>
        <time>2020-03-26T16:21:19Z</time>
      </trkpt>
      <trkpt lat="43.54619" lon="1.47502">
        <ele>210.288</ele>
        <time>2020-03-26T16:21:24Z</time>
      </trkpt>
      <trkpt lat="43.54617" lon="1.47495">
        <ele>210.284</ele>
        <time>2020-03-26T16:21:30Z</time>
      </trkpt>
      <trkpt lat="43.54609" lon="1.47491">
        <ele>210.287</ele>
        <time>2020-03-26T16:21:35Z</time>
      </trkpt>
      <trkpt lat="43.54599" lon="1.47493">
        <ele>210.298</ele>
        <time>2020-03-26T16:21:41Z</time>
      </trkpt>
      <trkpt lat="43.54593" lon="1.47493">
        <ele>210.321</ele>
        <time>2020-03-26T16:21:47Z</time>
      </trkpt>
      <trkpt lat="43.54586" lon="1.47493">
        <ele>210.344</ele>
        <time>2020-03-26T16:21:53Z</time>
      </trkpt>
      <trkpt lat="43.5458" lon="1.47492">
        <ele>210.38</ele>
        <time>2020-03-26T16:21:59Z</time>
      </trkpt>
      <trkpt lat="43.54574" lon="1.47498">
        <ele>210.414</ele>
        <time>2020-03-26T16:22:04Z</time>
      </trkpt>
      <trkpt lat="43.54569" lon="1.47506">
        <ele>210.461</ele>
        <time>2020-03-26T16:22:10Z</time>
      </trkpt>
      <trkpt lat="43.54564" lon="1.47512">
        <ele>210.499</ele>
        <time>2020-03-26T16:22:15Z</time>
      </trkpt>
      <trkpt lat="43.54558" lon="1.47518">
        <ele>210.549</ele>
        <time>2020-03-26T16:22:21Z</time>
      </trkpt>
      <trkpt lat="43.54553" lon="1.47522">
        <ele>210.6</ele>
        <time>2020-03-26T16:22:26Z</time>
      </trkpt>
      <trkpt lat="43.54547" lon="1.47528">
        <ele>210.667</ele>
        <time>2020-03-26T16:22:32Z</time>
      </trkpt>
      <trkpt lat="43.54541" lon="1.47532">
        <ele>210.73</ele>
        <time>2020-03-26T16:22:37Z</time>
      </trkpt>
      <trkpt lat="43.54534" lon="1.47538">
        <ele>210.811</ele>
        <time>2020-03-26T16:22:43Z</time>
      </trkpt>
      <trkpt lat="43.54526" lon="1.4754">
        <ele>210.905</ele>
        <time>2020-03-26T16:22:49Z</time>
      </trkpt>
      <trkpt lat="43.54523" lon="1.47545">
        <ele>211.007</ele>
        <time>2020-03-26T16:22:55Z</time>
      </trkpt>
      <trkpt lat="43.5452" lon="1.47553">
        <ele>211.106</ele>
        <time>2020-03-26T16:23:01Z</time>
      </trkpt>
      <trkpt lat="43.54518" lon="1.47562">
        <ele>211.206</ele>
        <time>2020-03-26T16:23:07Z</time>
      </trkpt>
      <trkpt lat="43.54516" lon="1.47568">
        <ele>211.283</ele>
        <time>2020-03-26T16:23:12Z</time>
      </trkpt>
      <trkpt lat="43.54512" lon="1.47575">
        <ele>211.352</ele>
        <time>2020-03-26T16:23:17Z</time>
      </trkpt>
      <trkpt lat="43.54508" lon="1.47582">
        <ele>211.43</ele>
        <time>2020-03-26T16:23:23Z</time>
      </trkpt>
      <trkpt lat="43.54503" lon="1.47587">
        <ele>211.485</ele>
        <time>2020-03-26T16:23:28Z</time>
      </trkpt>
      <trkpt lat="43.54499" lon="1.47595">
        <ele>211.546</ele>
        <time>2020-03-26T16:23:34Z</time>
      </trkpt>
      <trkpt lat="43.54494" lon="1.47602">
        <ele>211.605</ele>
        <time>2020-03-26T16:23:40Z</time>
      </trkpt>
      <trkpt lat="43.54491" lon="1.47608">
        <ele>211.649</ele>
        <time>2020-03-26T16:23:45Z</time>
      </trkpt>
      <trkpt lat="43.54486" lon="1.47613">
        <ele>211.701</ele>
        <time>2020-03-26T16:23:51Z</time>
      </trkpt>
      <trkpt lat="43.54483" lon="1.47616">
        <ele>211.741</ele>
        <time>2020-03-26T16:23:56Z</time>
      </trkpt>
      <trkpt lat="43.54477" lon="1.47621">
        <ele>211.784</ele>
        <time>2020-03-26T16:24:02Z</time>
      </trkpt>
      <trkpt lat="43.54473" lon="1.47628">
        <ele>211.815</ele>
        <time>2020-03-26T16:24:08Z</time>
      </trkpt>
      <trkpt lat="43.54469" lon="1.47634">
        <ele>211.84</ele>
        <time>2020-03-26T16:24:14Z</time>
      </trkpt>
      <trkpt lat="43.54464" lon="1.47641">
        <ele>211.858</ele>
        <time>2020-03-26T16:24:19Z</time>
      </trkpt>
      <trkpt lat="43.54462" lon="1.47642">
        <ele>211.871</ele>
        <time>2020-03-26T16:24:25Z</time>
      </trkpt>
      <trkpt lat="43.54459" lon="1.47642">
        <ele>211.901</ele>
        <time>2020-03-26T16:24:31Z</time>
      </trkpt>
      <trkpt lat="43.54456" lon="1.47646">
        <ele>211.922</ele>
        <time>2020-03-26T16:24:36Z</time>
      </trkpt>
      <trkpt lat="43.54452" lon="1.4765">
        <ele>211.941</ele>
        <time>2020-03-26T16:24:42Z</time>
      </trkpt>
      <trkpt lat="43.54447" lon="1.47656">
        <ele>211.952</ele>
        <time>2020-03-26T16:24:47Z</time>
      </trkpt>
      <trkpt lat="43.54442" lon="1.47664">
        <ele>211.966</ele>
        <time>2020-03-26T16:24:53Z</time>
      </trkpt>
      <trkpt lat="43.54437" lon="1.47669">
        <ele>211.984</ele>
        <time>2020-03-26T16:24:59Z</time>
      </trkpt>
      <trkpt lat="43.54431" lon="1.47675">
        <ele>212</ele>
        <time>2020-03-26T16:25:05Z</time>
      </trkpt>
      <trkpt lat="43.54426" lon="1.47681">
        <ele>212.017</ele>
        <time>2020-03-26T16:25:11Z</time>
      </trkpt>
      <trkpt lat="43.54422" lon="1.47685">
        <ele>212.032</ele>
        <time>2020-03-26T16:25:16Z</time>
      </trkpt>
      <trkpt lat="43.54417" lon="1.4769">
        <ele>212.048</ele>
        <time>2020-03-26T16:25:21Z</time>
      </trkpt>
      <trkpt lat="43.54411" lon="1.47695">
        <ele>212.064</ele>
        <time>2020-03-26T16:25:27Z</time>
      </trkpt>
      <trkpt lat="43.54407" lon="1.47699">
        <ele>212.079</ele>
        <time>2020-03-26T16:25:32Z</time>
      </trkpt>
      <trkpt lat="43.54401" lon="1.47704">
        <ele>212.096</ele>
        <time>2020-03-26T16:25:38Z</time>
      </trkpt>
      <trkpt lat="43.54396" lon="1.47708">
        <ele>212.112</ele>
        <time>2020-03-26T16:25:43Z</time>
      </trkpt>
      <trkpt lat="43.5439" lon="1.47711">
        <ele>212.126</ele>
        <time>2020-03-26T16:25:48Z</time>
      </trkpt>
      <trkpt lat="43.54384" lon="1.47715">
        <ele>212.142</ele>
        <time>2020-03-26T16:25:54Z</time>
      </trkpt>
      <trkpt lat="43.54379" lon="1.47719">
        <ele>212.156</ele>
        <time>2020-03-26T16:25:59Z</time>
      </trkpt>
      <trkpt lat="43.54374" lon="1.47723">
        <ele>212.175</ele>
        <time>2020-03-26T16:26:05Z</time>
      </trkpt>
      <trkpt lat="43.54369" lon="1.47726">
        <ele>212.193</ele>
        <time>2020-03-26T16:26:11Z</time>
      </trkpt>
      <trkpt lat="43.54365" lon="1.47731">
        <ele>212.208</ele>
        <time>2020-03-26T16:26:16Z</time>
      </trkpt>
      <trkpt lat="43.54361" lon="1.47734">
        <ele>212.22</ele>
        <time>2020-03-26T16:26:21Z</time>
      </trkpt>
      <trkpt lat="43.54355" lon="1.47739">
        <ele>212.231</ele>
        <time>2020-03-26T16:26:27Z</time>
      </trkpt>
      <trkpt lat="43.54349" lon="1.47742">
        <ele>212.238</ele>
        <time>2020-03-26T16:26:33Z</time>
      </trkpt>
      <trkpt lat="43.5434" lon="1.47747">
        <ele>212.246</ele>
        <time>2020-03-26T16:26:39Z</time>
      </trkpt>
      <trkpt lat="43.54334" lon="1.47753">
        <ele>212.257</ele>
        <time>2020-03-26T16:26:45Z</time>
      </trkpt>
      <trkpt lat="43.54327" lon="1.47755">
        <ele>212.267</ele>
        <time>2020-03-26T16:26:50Z</time>
      </trkpt>
      <trkpt lat="43.54321" lon="1.47759">
        <ele>212.284</ele>
        <time>2020-03-26T16:26:56Z</time>
      </trkpt>
      <trkpt lat="43.54315" lon="1.47763">
        <ele>212.304</ele>
        <time>2020-03-26T16:27:02Z</time>
      </trkpt>
      <trkpt lat="43.5431" lon="1.47767">
        <ele>212.326</ele>
        <time>2020-03-26T16:27:08Z</time>
      </trkpt>
      <trkpt lat="43.54303" lon="1.47769">
        <ele>212.347</ele>
        <time>2020-03-26T16:27:14Z</time>
      </trkpt>
      <trkpt lat="43.543" lon="1.47773">
        <ele>212.36</ele>
        <time>2020-03-26T16:27:20Z</time>
      </trkpt>
      <trkpt lat="43.54296" lon="1.47776">
        <ele>212.37</ele>
        <time>2020-03-26T16:27:25Z</time>
      </trkpt>
      <trkpt lat="43.54291" lon="1.47778">
        <ele>212.38</ele>
        <time>2020-03-26T16:27:30Z</time>
      </trkpt>
      <trkpt lat="43.54285" lon="1.47783">
        <ele>212.392</ele>
        <time>2020-03-26T16:27:36Z</time>
      </trkpt>
      <trkpt lat="43.54279" lon="1.47788">
        <ele>212.398</ele>
        <time>2020-03-26T16:27:42Z</time>
      </trkpt>
      <trkpt lat="43.54275" lon="1.47791">
        <ele>212.405</ele>
        <time>2020-03-26T16:27:48Z</time>
      </trkpt>
      <trkpt lat="43.5427" lon="1.47793">
        <ele>212.411</ele>
        <time>2020-03-26T16:27:53Z</time>
      </trkpt>
      <trkpt lat="43.54265" lon="1.47798">
        <ele>212.416</ele>
        <time>2020-03-26T16:27:59Z</time>
      </trkpt>
      <trkpt lat="43.54258" lon="1.47802">
        <ele>212.426</ele>
        <time>2020-03-26T16:28:05Z</time>
      </trkpt>
      <trkpt lat="43.54253" lon="1.47805">
        <ele>212.44</ele>
        <time>2020-03-26T16:28:11Z</time>
      </trkpt>
      <trkpt lat="43.54249" lon="1.47807">
        <ele>212.45</ele>
        <time>2020-03-26T16:28:16Z</time>
      </trkpt>
      <trkpt lat="43.54244" lon="1.47812">
        <ele>212.457</ele>
        <time>2020-03-26T16:28:22Z</time>
      </trkpt>
      <trkpt lat="43.5424" lon="1.47815">
        <ele>212.463</ele>
        <time>2020-03-26T16:28:28Z</time>
      </trkpt>
      <trkpt lat="43.5424" lon="1.47816">
        <ele>212.465</ele>
        <time>2020-03-26T16:28:33Z</time>
      </trkpt>
      <trkpt lat="43.54241" lon="1.47817">
        <ele>212.468</ele>
        <time>2020-03-26T16:28:39Z</time>
      </trkpt>
      <trkpt lat="43.54241" lon="1.47819">
        <ele>212.47</ele>
        <time>2020-03-26T16:28:44Z</time>
      </trkpt>
      <trkpt lat="43.54241" lon="1.47824">
        <ele>212.479</ele>
        <time>2020-03-26T16:28:50Z</time>
      </trkpt>
      <trkpt lat="43.5424" lon="1.47827">
        <ele>212.481</ele>
        <time>2020-03-26T16:28:55Z</time>
      </trkpt>
      <trkpt lat="43.54237" lon="1.4783">
        <ele>212.492</ele>
        <time>2020-03-26T16:29:01Z</time>
      </trkpt>
      <trkpt lat="43.54239" lon="1.47829">
        <ele>212.497</ele>
        <time>2020-03-26T16:29:06Z</time>
      </trkpt>
      <trkpt lat="43.5424" lon="1.47828">
        <ele>212.505</ele>
        <time>2020-03-26T16:29:12Z</time>
      </trkpt>
      <trkpt lat="43.54239" lon="1.47827">
        <ele>212.506</ele>
        <time>2020-03-26T16:29:18Z</time>
      </trkpt>
      <trkpt lat="43.54239" lon="1.47827">
        <ele>212.508</ele>
        <time>2020-03-26T16:29:23Z</time>
      </trkpt>
      <trkpt lat="43.5424" lon="1.47825">
        <ele>212.519</ele>
        <time>2020-03-26T16:29:29Z</time>
      </trkpt>
      <trkpt lat="43.54241" lon="1.47824">
        <ele>212.53</ele>
        <time>2020-03-26T16:29:34Z</time>
      </trkpt>
      <trkpt lat="43.54241" lon="1.47823">
        <ele>212.556</ele>
        <time>2020-03-26T16:29:40Z</time>
      </trkpt>
      <trkpt lat="43.54241" lon="1.4782">
        <ele>212.572</ele>
        <time>2020-03-26T16:29:45Z</time>
      </trkpt>
      <trkpt lat="43.54239" lon="1.47816">
        <ele>212.6</ele>
        <time>2020-03-26T16:29:50Z</time>
      </trkpt>
      <trkpt lat="43.54238" lon="1.47814">
        <ele>212.635</ele>
        <time>2020-03-26T16:29:56Z</time>
      </trkpt>
      <trkpt lat="43.54232" lon="1.47815">
        <ele>212.669</ele>
        <time>2020-03-26T16:30:02Z</time>
      </trkpt>
      <trkpt lat="43.54228" lon="1.47819">
        <ele>212.701</ele>
        <time>2020-03-26T16:30:07Z</time>
      </trkpt>
      <trkpt lat="43.54221" lon="1.47821">
        <ele>212.737</ele>
        <time>2020-03-26T16:30:13Z</time>
      </trkpt>
      <trkpt lat="43.54215" lon="1.47826">
        <ele>212.765</ele>
        <time>2020-03-26T16:30:18Z</time>
      </trkpt>
      <trkpt lat="43.54207" lon="1.47831">
        <ele>212.796</ele>
        <time>2020-03-26T16:30:24Z</time>
      </trkpt>
      <trkpt lat="43.54201" lon="1.47833">
        <ele>212.818</ele>
        <time>2020-03-26T16:30:29Z</time>
      </trkpt>
      <trkpt lat="43.54193" lon="1.47836">
        <ele>212.841</ele>
        <time>2020-03-26T16:30:35Z</time>
      </trkpt>
      <trkpt lat="43.54187" lon="1.47838">
        <ele>212.859</ele>
        <time>2020-03-26T16:30:40Z</time>
      </trkpt>
      <trkpt lat="43.54187" lon="1.47841">
        <ele>212.865</ele>
        <time>2020-03-26T16:30:46Z</time>
      </trkpt>
      <trkpt lat="43.54186" lon="1.47842">
        <ele>212.871</ele>
        <time>2020-03-26T16:30:51Z</time>
      </trkpt>
      <trkpt lat="43.54185" lon="1.47843">
        <ele>212.873</ele>
        <time>2020-03-26T16:30:57Z</time>
      </trkpt>
      <trkpt lat="43.54185" lon="1.47843">
        <ele>212.87</ele>
        <time>2020-03-26T16:31:03Z</time>
      </trkpt>
      <trkpt lat="43.54185" lon="1.47843">
        <ele>212.869</ele>
        <time>2020-03-26T16:31:08Z</time>
      </trkpt>
      <trkpt lat="43.54184" lon="1.47845">
        <ele>212.862</ele>
        <time>2020-03-26T16:31:14Z</time>
      </trkpt>
      <trkpt lat="43.54179" lon="1.47847">
        <ele>212.859</ele>
        <time>2020-03-26T16:31:19Z</time>
      </trkpt>
      <trkpt lat="43.54175" lon="1.47849">
        <ele>212.855</ele>
        <time>2020-03-26T16:31:25Z</time>
      </trkpt>
      <trkpt lat="43.54169" lon="1.47854">
        <ele>212.847</ele>
        <time>2020-03-26T16:31:31Z</time>
      </trkpt>
      <trkpt lat="43.54162" lon="1.4786">
        <ele>212.835</ele>
        <time>2020-03-26T16:31:37Z</time>
      </trkpt>
      <trkpt lat="43.54157" lon="1.47862">
        <ele>212.825</ele>
        <time>2020-03-26T16:31:42Z</time>
      </trkpt>
      <trkpt lat="43.54151" lon="1.47864">
        <ele>212.816</ele>
        <time>2020-03-26T16:31:47Z</time>
      </trkpt>
      <trkpt lat="43.54144" lon="1.47867">
        <ele>212.805</ele>
        <time>2020-03-26T16:31:53Z</time>
      </trkpt>
      <trkpt lat="43.54138" lon="1.47869">
        <ele>212.798</ele>
        <time>2020-03-26T16:31:58Z</time>
      </trkpt>
      <trkpt lat="43.54132" lon="1.47872">
        <ele>212.791</ele>
        <time>2020-03-26T16:32:04Z</time>
      </trkpt>
      <trkpt lat="43.54127" lon="1.47874">
        <ele>212.787</ele>
        <time>2020-03-26T16:32:09Z</time>
      </trkpt>
      <trkpt lat="43.54123" lon="1.47875">
        <ele>212.79</ele>
        <time>2020-03-26T16:32:15Z</time>
      </trkpt>
      <trkpt lat="43.54117" lon="1.47879">
        <ele>212.797</ele>
        <time>2020-03-26T16:32:21Z</time>
      </trkpt>
      <trkpt lat="43.54111" lon="1.47881">
        <ele>212.81</ele>
        <time>2020-03-26T16:32:27Z</time>
      </trkpt>
      <trkpt lat="43.54108" lon="1.47885">
        <ele>212.824</ele>
        <time>2020-03-26T16:32:32Z</time>
      </trkpt>
      <trkpt lat="43.54108" lon="1.47888">
        <ele>212.832</ele>
        <time>2020-03-26T16:32:38Z</time>
      </trkpt>
      <trkpt lat="43.54107" lon="1.47892">
        <ele>212.845</ele>
        <time>2020-03-26T16:32:44Z</time>
      </trkpt>
      <trkpt lat="43.54102" lon="1.47895">
        <ele>212.872</ele>
        <time>2020-03-26T16:32:50Z</time>
      </trkpt>
      <trkpt lat="43.54095" lon="1.47897">
        <ele>212.906</ele>
        <time>2020-03-26T16:32:56Z</time>
      </trkpt>
      <trkpt lat="43.54088" lon="1.47898">
        <ele>212.939</ele>
        <time>2020-03-26T16:33:02Z</time>
      </trkpt>
      <trkpt lat="43.54082" lon="1.47897">
        <ele>212.97</ele>
        <time>2020-03-26T16:33:08Z</time>
      </trkpt>
      <trkpt lat="43.54076" lon="1.47899">
        <ele>213.004</ele>
        <time>2020-03-26T16:33:14Z</time>
      </trkpt>
      <trkpt lat="43.5407" lon="1.47903">
        <ele>213.042</ele>
        <time>2020-03-26T16:33:20Z</time>
      </trkpt>
      <trkpt lat="43.54063" lon="1.47906">
        <ele>213.085</ele>
        <time>2020-03-26T16:33:26Z</time>
      </trkpt>
      <trkpt lat="43.54058" lon="1.47908">
        <ele>213.123</ele>
        <time>2020-03-26T16:33:31Z</time>
      </trkpt>
      <trkpt lat="43.54057" lon="1.47909">
        <ele>213.14</ele>
        <time>2020-03-26T16:33:36Z</time>
      </trkpt>
      <trkpt lat="43.54056" lon="1.47909">
        <ele>213.144</ele>
        <time>2020-03-26T16:33:42Z</time>
      </trkpt>
      <trkpt lat="43.54056" lon="1.47909">
        <ele>213.153</ele>
        <time>2020-03-26T16:33:48Z</time>
      </trkpt>
      <trkpt lat="43.54055" lon="1.47908">
        <ele>213.174</ele>
        <time>2020-03-26T16:33:53Z</time>
      </trkpt>
      <trkpt lat="43.54053" lon="1.47901">
        <ele>213.206</ele>
        <time>2020-03-26T16:33:59Z</time>
      </trkpt>
      <trkpt lat="43.5405" lon="1.47897">
        <ele>213.232</ele>
        <time>2020-03-26T16:34:04Z</time>
      </trkpt>
      <trkpt lat="43.54046" lon="1.47896">
        <ele>213.257</ele>
        <time>2020-03-26T16:34:09Z</time>
      </trkpt>
      <trkpt lat="43.5404" lon="1.47894">
        <ele>213.282</ele>
        <time>2020-03-26T16:34:15Z</time>
      </trkpt>
      <trkpt lat="43.54036" lon="1.47893">
        <ele>213.301</ele>
        <time>2020-03-26T16:34:20Z</time>
      </trkpt>
      <trkpt lat="43.54029" lon="1.47888">
        <ele>213.324</ele>
        <time>2020-03-26T16:34:26Z</time>
      </trkpt>
      <trkpt lat="43.54024" lon="1.47882">
        <ele>213.343</ele>
        <time>2020-03-26T16:34:31Z</time>
      </trkpt>
      <trkpt lat="43.54018" lon="1.47876">
        <ele>213.367</ele>
        <time>2020-03-26T16:34:37Z</time>
      </trkpt>
      <trkpt lat="43.54015" lon="1.47868">
        <ele>213.396</ele>
        <time>2020-03-26T16:34:43Z</time>
      </trkpt>
      <trkpt lat="43.54012" lon="1.47864">
        <ele>213.427</ele>
        <time>2020-03-26T16:34:49Z</time>
      </trkpt>
      <trkpt lat="43.54009" lon="1.47857">
        <ele>213.451</ele>
        <time>2020-03-26T16:34:54Z</time>
      </trkpt>
      <trkpt lat="43.54003" lon="1.47854">
        <ele>213.481</ele>
        <time>2020-03-26T16:35:00Z</time>
      </trkpt>
      <trkpt lat="43.53998" lon="1.47846">
        <ele>213.513</ele>
        <time>2020-03-26T16:35:05Z</time>
      </trkpt>
      <trkpt lat="43.53995" lon="1.47843">
        <ele>213.542</ele>
        <time>2020-03-26T16:35:10Z</time>
      </trkpt>
      <trkpt lat="43.53991" lon="1.47838">
        <ele>213.576</ele>
        <time>2020-03-26T16:35:16Z</time>
      </trkpt>
      <trkpt lat="43.53988" lon="1.47835">
        <ele>213.607</ele>
        <time>2020-03-26T16:35:22Z</time>
      </trkpt>
      <trkpt lat="43.53984" lon="1.4783">
        <ele>213.631</ele>
        <time>2020-03-26T16:35:27Z</time>
      </trkpt>
      <trkpt lat="43.53978" lon="1.47828">
        <ele>213.658</ele>
        <time>2020-03-26T16:35:33Z</time>
      </trkpt>
      <trkpt lat="43.53973" lon="1.47824">
        <ele>213.678</ele>
        <time>2020-03-26T16:35:38Z</time>
      </trkpt>
      <trkpt lat="43.53969" lon="1.47818">
        <ele>213.701</ele>
        <time>2020-03-26T16:35:44Z</time>
      </trkpt>
      <trkpt lat="43.53964" lon="1.47809">
        <ele>213.722</ele>
        <time>2020-03-26T16:35:50Z</time>
      </trkpt>
      <trkpt lat="43.53958" lon="1.47801">
        <ele>213.743</ele>
        <time>2020-03-26T16:35:56Z</time>
      </trkpt>
      <trkpt lat="43.53955" lon="1.47798">
        <ele>213.761</ele>
        <time>2020-03-26T16:36:02Z</time>
      </trkpt>
      <trkpt lat="43.53955" lon="1.47797">
        <ele>213.78</ele>
        <time>2020-03-26T16:36:07Z</time>
      </trkpt>
      <trkpt lat="43.53955" lon="1.47804">
        <ele>213.8</ele>
        <time>2020-03-26T16:36:13Z</time>
      </trkpt>
      <trkpt lat="43.53952" lon="1.4781">
        <ele>213.812</ele>
        <time>2020-03-26T16:36:19Z</time>
      </trkpt>
      <trkpt lat="43.53945" lon="1.47813">
        <ele>213.822</ele>
        <time>2020-03-26T16:36:25Z</time>
      </trkpt>
      <trkpt lat="43.53938" lon="1.47816">
        <ele>213.825</ele>
        <time>2020-03-26T16:36:30Z</time>
      </trkpt>
      <trkpt lat="43.53931" lon="1.47819">
        <ele>213.826</ele>
        <time>2020-03-26T16:36:36Z</time>
      </trkpt>
      <trkpt lat="43.53925" lon="1.4782">
        <ele>213.828</ele>
        <time>2020-03-26T16:36:41Z</time>
      </trkpt>
      <trkpt lat="43.53918" lon="1.4782">
        <ele>213.834</ele>
        <time>2020-03-26T16:36:46Z</time>
      </trkpt>
      <trkpt lat="43.53912" lon="1.47819">
        <ele>213.85</ele>
        <time>2020-03-26T16:36:52Z</time>
      </trkpt>
      <trkpt lat="43.53907" lon="1.47821">
        <ele>213.874</ele>
        <time>2020-03-26T16:36:58Z</time>
      </trkpt>
      <trkpt lat="43.53901" lon="1.47824">
        <ele>213.901</ele>
        <time>2020-03-26T16:37:04Z</time>
      </trkpt>
      <trkpt lat="43.53897" lon="1.47822">
        <ele>213.926</ele>
        <time>2020-03-26T16:37:10Z</time>
      </trkpt>
      <trkpt lat="43.53892" lon="1.4782">
        <ele>213.958</ele>
        <time>2020-03-26T16:37:15Z</time>
      </trkpt>
      <trkpt lat="43.53884" lon="1.47819">
        <ele>213.999</ele>
        <time>2020-03-26T16:37:21Z</time>
      </trkpt>
      <trkpt lat="43.53878" lon="1.47819">
        <ele>214.041</ele>
        <time>2020-03-26T16:37:27Z</time>
      </trkpt>
      <trkpt lat="43.53872" lon="1.47819">
        <ele>214.074</ele>
        <time>2020-03-26T16:37:32Z</time>
      </trkpt>
      <trkpt lat="43.53867" lon="1.47818">
        <ele>214.112</ele>
        <time>2020-03-26T16:37:37Z</time>
      </trkpt>
      <trkpt lat="43.5386" lon="1.47815">
        <ele>214.164</ele>
        <time>2020-03-26T16:37:43Z</time>
      </trkpt>
      <trkpt lat="43.53853" lon="1.47815">
        <ele>214.217</ele>
        <time>2020-03-26T16:37:49Z</time>
      </trkpt>
      <trkpt lat="43.53849" lon="1.47815">
        <ele>214.263</ele>
        <time>2020-03-26T16:37:54Z</time>
      </trkpt>
      <trkpt lat="43.53842" lon="1.47813">
        <ele>214.318</ele>
        <time>2020-03-26T16:38:00Z</time>
      </trkpt>
      <trkpt lat="43.53836" lon="1.47811">
        <ele>214.377</ele>
        <time>2020-03-26T16:38:06Z</time>
      </trkpt>
      <trkpt lat="43.53829" lon="1.4781">
        <ele>214.44</ele>
        <time>2020-03-26T16:38:12Z</time>
      </trkpt>
      <trkpt lat="43.53825" lon="1.4781">
        <ele>214.497</ele>
        <time>2020-03-26T16:38:17Z</time>
      </trkpt>
      <trkpt lat="43.53819" lon="1.4781">
        <ele>214.56</ele>
        <time>2020-03-26T16:38:22Z</time>
      </trkpt>
      <trkpt lat="43.53814" lon="1.47808">
        <ele>214.639</ele>
        <time>2020-03-26T16:38:28Z</time>
      </trkpt>
      <trkpt lat="43.53808" lon="1.47808">
        <ele>214.727</ele>
        <time>2020-03-26T16:38:34Z</time>
      </trkpt>
      <trkpt lat="43.53804" lon="1.47809">
        <ele>214.801</ele>
        <time>2020-03-26T16:38:39Z</time>
      </trkpt>
      <trkpt lat="43.53799" lon="1.47812">
        <ele>214.889</ele>
        <time>2020-03-26T16:38:45Z</time>
      </trkpt>
      <trkpt lat="43.53797" lon="1.47814">
        <ele>214.948</ele>
        <time>2020-03-26T16:38:50Z</time>
      </trkpt>
      <trkpt lat="43.53797" lon="1.47814">
        <ele>214.977</ele>
        <time>2020-03-26T16:38:55Z</time>
      </trkpt>
      <trkpt lat="43.53799" lon="1.4782">
        <ele>215.065</ele>
        <time>2020-03-26T16:39:01Z</time>
      </trkpt>
      <trkpt lat="43.53799" lon="1.4783">
        <ele>215.217</ele>
        <time>2020-03-26T16:39:07Z</time>
      </trkpt>
      <trkpt lat="43.53794" lon="1.47831">
        <ele>215.352</ele>
        <time>2020-03-26T16:39:12Z</time>
      </trkpt>
      <trkpt lat="43.5379" lon="1.47833">
        <ele>215.506</ele>
        <time>2020-03-26T16:39:17Z</time>
      </trkpt>
      <trkpt lat="43.53785" lon="1.47842">
        <ele>215.69</ele>
        <time>2020-03-26T16:39:23Z</time>
      </trkpt>
      <trkpt lat="43.53782" lon="1.47847">
        <ele>215.876</ele>
        <time>2020-03-26T16:39:29Z</time>
      </trkpt>
      <trkpt lat="43.53779" lon="1.47853">
        <ele>216.034</ele>
        <time>2020-03-26T16:39:34Z</time>
      </trkpt>
      <trkpt lat="43.53775" lon="1.47861">
        <ele>216.224</ele>
        <time>2020-03-26T16:39:40Z</time>
      </trkpt>
      <trkpt lat="43.53773" lon="1.47866">
        <ele>216.379</ele>
        <time>2020-03-26T16:39:45Z</time>
      </trkpt>
      <trkpt lat="43.53771" lon="1.47872">
        <ele>216.534</ele>
        <time>2020-03-26T16:39:50Z</time>
      </trkpt>
      <trkpt lat="43.53768" lon="1.47881">
        <ele>216.719</ele>
        <time>2020-03-26T16:39:56Z</time>
      </trkpt>
      <trkpt lat="43.53765" lon="1.47891">
        <ele>216.905</ele>
        <time>2020-03-26T16:40:02Z</time>
      </trkpt>
      <trkpt lat="43.53763" lon="1.47899">
        <ele>217.084</ele>
        <time>2020-03-26T16:40:08Z</time>
      </trkpt>
      <trkpt lat="43.5376" lon="1.47907">
        <ele>217.251</ele>
        <time>2020-03-26T16:40:14Z</time>
      </trkpt>
      <trkpt lat="43.53757" lon="1.47911">
        <ele>217.386</ele>
        <time>2020-03-26T16:40:19Z</time>
      </trkpt>
      <trkpt lat="43.53752" lon="1.47915">
        <ele>217.528</ele>
        <time>2020-03-26T16:40:24Z</time>
      </trkpt>
      <trkpt lat="43.5375" lon="1.4792">
        <ele>217.674</ele>
        <time>2020-03-26T16:40:29Z</time>
      </trkpt>
      <trkpt lat="43.53745" lon="1.47927">
        <ele>217.845</ele>
        <time>2020-03-26T16:40:35Z</time>
      </trkpt>
      <trkpt lat="43.53742" lon="1.47936">
        <ele>218.011</ele>
        <time>2020-03-26T16:40:41Z</time>
      </trkpt>
      <trkpt lat="43.53739" lon="1.47941">
        <ele>218.148</ele>
        <time>2020-03-26T16:40:46Z</time>
      </trkpt>
      <trkpt lat="43.53736" lon="1.47945">
        <ele>218.282</ele>
        <time>2020-03-26T16:40:51Z</time>
      </trkpt>
      <trkpt lat="43.53732" lon="1.47952">
        <ele>218.443</ele>
        <time>2020-03-26T16:40:57Z</time>
      </trkpt>
      <trkpt lat="43.53727" lon="1.47962">
        <ele>218.608</ele>
        <time>2020-03-26T16:41:03Z</time>
      </trkpt>
      <trkpt lat="43.53724" lon="1.47967">
        <ele>218.744</ele>
        <time>2020-03-26T16:41:08Z</time>
      </trkpt>
      <trkpt lat="43.53721" lon="1.47972">
        <ele>218.909</ele>
        <time>2020-03-26T16:41:14Z</time>
      </trkpt>
      <trkpt lat="43.53717" lon="1.4798">
        <ele>219.072</ele>
        <time>2020-03-26T16:41:20Z</time>
      </trkpt>
      <trkpt lat="43.53713" lon="1.4799">
        <ele>219.241</ele>
        <time>2020-03-26T16:41:26Z</time>
      </trkpt>
      <trkpt lat="43.53709" lon="1.47997">
        <ele>219.415</ele>
        <time>2020-03-26T16:41:32Z</time>
      </trkpt>
      <trkpt lat="43.53706" lon="1.48003">
        <ele>219.562</ele>
        <time>2020-03-26T16:41:37Z</time>
      </trkpt>
      <trkpt lat="43.53704" lon="1.4801">
        <ele>219.736</ele>
        <time>2020-03-26T16:41:43Z</time>
      </trkpt>
      <trkpt lat="43.53702" lon="1.48016">
        <ele>219.876</ele>
        <time>2020-03-26T16:41:48Z</time>
      </trkpt>
      <trkpt lat="43.53699" lon="1.48022">
        <ele>220.015</ele>
        <time>2020-03-26T16:41:53Z</time>
      </trkpt>
      <trkpt lat="43.53695" lon="1.48032">
        <ele>220.183</ele>
        <time>2020-03-26T16:41:59Z</time>
      </trkpt>
      <trkpt lat="43.53692" lon="1.4804">
        <ele>220.343</ele>
        <time>2020-03-26T16:42:05Z</time>
      </trkpt>
      <trkpt lat="43.53689" lon="1.48044">
        <ele>220.471</ele>
        <time>2020-03-26T16:42:10Z</time>
      </trkpt>
      <trkpt lat="43.53686" lon="1.4805">
        <ele>220.615</ele>
        <time>2020-03-26T16:42:16Z</time>
      </trkpt>
      <trkpt lat="43.53682" lon="1.48055">
        <ele>220.748</ele>
        <time>2020-03-26T16:42:22Z</time>
      </trkpt>
      <trkpt lat="43.53678" lon="1.48062">
        <ele>220.873</ele>
        <time>2020-03-26T16:42:28Z</time>
      </trkpt>
      <trkpt lat="43.53675" lon="1.48068">
        <ele>220.986</ele>
        <time>2020-03-26T16:42:34Z</time>
      </trkpt>
      <trkpt lat="43.53672" lon="1.48073">
        <ele>221.07</ele>
        <time>2020-03-26T16:42:39Z</time>
      </trkpt>
      <trkpt lat="43.53667" lon="1.48081">
        <ele>221.168</ele>
        <time>2020-03-26T16:42:45Z</time>
      </trkpt>
      <trkpt lat="43.53664" lon="1.48084">
        <ele>221.247</ele>
        <time>2020-03-26T16:42:50Z</time>
      </trkpt>
      <trkpt lat="43.5366" lon="1.48087">
        <ele>221.338</ele>
        <time>2020-03-26T16:42:56Z</time>
      </trkpt>
      <trkpt lat="43.53654" lon="1.48091">
        <ele>221.424</ele>
        <time>2020-03-26T16:43:02Z</time>
      </trkpt>
      <trkpt lat="43.5365" lon="1.48094">
        <ele>221.495</ele>
        <time>2020-03-26T16:43:07Z</time>
      </trkpt>
      <trkpt lat="43.53646" lon="1.48098">
        <ele>221.564</ele>
        <time>2020-03-26T16:43:12Z</time>
      </trkpt>
      <trkpt lat="43.53641" lon="1.48103">
        <ele>221.644</ele>
        <time>2020-03-26T16:43:18Z</time>
      </trkpt>
      <trkpt lat="43.53639" lon="1.48112">
        <ele>221.714</ele>
        <time>2020-03-26T16:43:23Z</time>
      </trkpt>
      <trkpt lat="43.5364" lon="1.4812">
        <ele>221.8</ele>
        <time>2020-03-26T16:43:29Z</time>
      </trkpt>
      <trkpt lat="43.53643" lon="1.48124">
        <ele>221.884</ele>
        <time>2020-03-26T16:43:35Z</time>
      </trkpt>
      <trkpt lat="43.53646" lon="1.48132">
        <ele>221.95</ele>
        <time>2020-03-26T16:43:40Z</time>
      </trkpt>
      <trkpt lat="43.53648" lon="1.48139">
        <ele>222.025</ele>
        <time>2020-03-26T16:43:46Z</time>
      </trkpt>
      <trkpt lat="43.5365" lon="1.48148">
        <ele>222.082</ele>
        <time>2020-03-26T16:43:51Z</time>
      </trkpt>
      <trkpt lat="43.53653" lon="1.48154">
        <ele>222.135</ele>
        <time>2020-03-26T16:43:56Z</time>
      </trkpt>
      <trkpt lat="43.53657" lon="1.48161">
        <ele>222.183</ele>
        <time>2020-03-26T16:44:01Z</time>
      </trkpt>
      <trkpt lat="43.53659" lon="1.48169">
        <ele>222.236</ele>
        <time>2020-03-26T16:44:07Z</time>
      </trkpt>
      <trkpt lat="43.53663" lon="1.48175">
        <ele>222.274</ele>
        <time>2020-03-26T16:44:12Z</time>
      </trkpt>
      <trkpt lat="43.53665" lon="1.48182">
        <ele>222.314</ele>
        <time>2020-03-26T16:44:18Z</time>
      </trkpt>
      <trkpt lat="43.53667" lon="1.48191">
        <ele>222.347</ele>
        <time>2020-03-26T16:44:24Z</time>
      </trkpt>
      <trkpt lat="43.53671" lon="1.48198">
        <ele>222.373</ele>
        <time>2020-03-26T16:44:30Z</time>
      </trkpt>
      <trkpt lat="43.53673" lon="1.48205">
        <ele>222.392</ele>
        <time>2020-03-26T16:44:35Z</time>
      </trkpt>
      <trkpt lat="43.53676" lon="1.48209">
        <ele>222.406</ele>
        <time>2020-03-26T16:44:40Z</time>
      </trkpt>
      <trkpt lat="43.53682" lon="1.48213">
        <ele>222.424</ele>
        <time>2020-03-26T16:44:46Z</time>
      </trkpt>
      <trkpt lat="43.53688" lon="1.48211">
        <ele>222.435</ele>
        <time>2020-03-26T16:44:52Z</time>
      </trkpt>
      <trkpt lat="43.53694" lon="1.48207">
        <ele>222.438</ele>
        <time>2020-03-26T16:44:58Z</time>
      </trkpt>
      <trkpt lat="43.53698" lon="1.48203">
        <ele>222.435</ele>
        <time>2020-03-26T16:45:04Z</time>
      </trkpt>
      <trkpt lat="43.53702" lon="1.48201">
        <ele>222.426</ele>
        <time>2020-03-26T16:45:10Z</time>
      </trkpt>
      <trkpt lat="43.53707" lon="1.48199">
        <ele>222.415</ele>
        <time>2020-03-26T16:45:15Z</time>
      </trkpt>
      <trkpt lat="43.53711" lon="1.48195">
        <ele>222.398</ele>
        <time>2020-03-26T16:45:21Z</time>
      </trkpt>
      <trkpt lat="43.53714" lon="1.48193">
        <ele>222.389</ele>
        <time>2020-03-26T16:45:26Z</time>
      </trkpt>
      <trkpt lat="43.53721" lon="1.48186">
        <ele>222.376</ele>
        <time>2020-03-26T16:45:32Z</time>
      </trkpt>
      <trkpt lat="43.53725" lon="1.48182">
        <ele>222.364</ele>
        <time>2020-03-26T16:45:37Z</time>
      </trkpt>
      <trkpt lat="43.53729" lon="1.48178">
        <ele>222.351</ele>
        <time>2020-03-26T16:45:43Z</time>
      </trkpt>
      <trkpt lat="43.53733" lon="1.48173">
        <ele>222.335</ele>
        <time>2020-03-26T16:45:49Z</time>
      </trkpt>
      <trkpt lat="43.53738" lon="1.4817">
        <ele>222.315</ele>
        <time>2020-03-26T16:45:55Z</time>
      </trkpt>
      <trkpt lat="43.53742" lon="1.48164">
        <ele>222.295</ele>
        <time>2020-03-26T16:46:00Z</time>
      </trkpt>
      <trkpt lat="43.53747" lon="1.48159">
        <ele>222.27</ele>
        <time>2020-03-26T16:46:06Z</time>
      </trkpt>
      <trkpt lat="43.53753" lon="1.48152">
        <ele>222.246</ele>
        <time>2020-03-26T16:46:12Z</time>
      </trkpt>
      <trkpt lat="43.53757" lon="1.48146">
        <ele>222.223</ele>
        <time>2020-03-26T16:46:18Z</time>
      </trkpt>
      <trkpt lat="43.53759" lon="1.48144">
        <ele>222.203</ele>
        <time>2020-03-26T16:46:23Z</time>
      </trkpt>
      <trkpt lat="43.53765" lon="1.48139">
        <ele>222.181</ele>
        <time>2020-03-26T16:46:29Z</time>
      </trkpt>
      <trkpt lat="43.53772" lon="1.48134">
        <ele>222.157</ele>
        <time>2020-03-26T16:46:35Z</time>
      </trkpt>
      <trkpt lat="43.53777" lon="1.48129">
        <ele>222.136</ele>
        <time>2020-03-26T16:46:40Z</time>
      </trkpt>
      <trkpt lat="43.53782" lon="1.48124">
        <ele>222.115</ele>
        <time>2020-03-26T16:46:46Z</time>
      </trkpt>
      <trkpt lat="43.53788" lon="1.4812">
        <ele>222.096</ele>
        <time>2020-03-26T16:46:52Z</time>
      </trkpt>
      <trkpt lat="43.53792" lon="1.48116">
        <ele>222.084</ele>
        <time>2020-03-26T16:46:57Z</time>
      </trkpt>
      <trkpt lat="43.53793" lon="1.48114">
        <ele>222.077</ele>
        <time>2020-03-26T16:47:02Z</time>
      </trkpt>
      <trkpt lat="43.538" lon="1.4811">
        <ele>222.072</ele>
        <time>2020-03-26T16:47:08Z</time>
      </trkpt>
      <trkpt lat="43.53804" lon="1.48108">
        <ele>222.071</ele>
        <time>2020-03-26T16:47:13Z</time>
      </trkpt>
      <trkpt lat="43.53808" lon="1.48103">
        <ele>222.071</ele>
        <time>2020-03-26T16:47:18Z</time>
      </trkpt>
      <trkpt lat="43.53813" lon="1.48098">
        <ele>222.074</ele>
        <time>2020-03-26T16:47:23Z</time>
      </trkpt>
      <trkpt lat="43.53818" lon="1.48092">
        <ele>222.083</ele>
        <time>2020-03-26T16:47:29Z</time>
      </trkpt>
      <trkpt lat="43.53819" lon="1.48085">
        <ele>222.091</ele>
        <time>2020-03-26T16:47:34Z</time>
      </trkpt>
      <trkpt lat="43.53824" lon="1.48081">
        <ele>222.098</ele>
        <time>2020-03-26T16:47:40Z</time>
      </trkpt>
      <trkpt lat="43.53829" lon="1.48076">
        <ele>222.103</ele>
        <time>2020-03-26T16:47:46Z</time>
      </trkpt>
      <trkpt lat="43.53833" lon="1.48072">
        <ele>222.103</ele>
        <time>2020-03-26T16:47:51Z</time>
      </trkpt>
      <trkpt lat="43.53841" lon="1.48067">
        <ele>222.107</ele>
        <time>2020-03-26T16:47:57Z</time>
      </trkpt>
      <trkpt lat="43.53845" lon="1.48061">
        <ele>222.113</ele>
        <time>2020-03-26T16:48:02Z</time>
      </trkpt>
      <trkpt lat="43.53851" lon="1.48057">
        <ele>222.123</ele>
        <time>2020-03-26T16:48:08Z</time>
      </trkpt>
      <trkpt lat="43.53856" lon="1.48053">
        <ele>222.139</ele>
        <time>2020-03-26T16:48:14Z</time>
      </trkpt>
      <trkpt lat="43.53856" lon="1.48053">
        <ele>222.141</ele>
        <time>2020-03-26T16:48:19Z</time>
      </trkpt>
      <trkpt lat="43.53858" lon="1.48052">
        <ele>222.165</ele>
        <time>2020-03-26T16:48:25Z</time>
      </trkpt>
      <trkpt lat="43.5386" lon="1.48051">
        <ele>222.193</ele>
        <time>2020-03-26T16:48:30Z</time>
      </trkpt>
      <trkpt lat="43.53861" lon="1.48047">
        <ele>222.23</ele>
        <time>2020-03-26T16:48:36Z</time>
      </trkpt>
      <trkpt lat="43.53867" lon="1.4804">
        <ele>222.263</ele>
        <time>2020-03-26T16:48:42Z</time>
      </trkpt>
      <trkpt lat="43.53871" lon="1.48034">
        <ele>222.288</ele>
        <time>2020-03-26T16:48:48Z</time>
      </trkpt>
      <trkpt lat="43.53873" lon="1.48032">
        <ele>222.307</ele>
        <time>2020-03-26T16:48:54Z</time>
      </trkpt>
      <trkpt lat="43.53873" lon="1.48031">
        <ele>222.327</ele>
        <time>2020-03-26T16:48:59Z</time>
      </trkpt>
      <trkpt lat="43.53875" lon="1.48028">
        <ele>222.364</ele>
        <time>2020-03-26T16:49:05Z</time>
      </trkpt>
      <trkpt lat="43.53877" lon="1.48023">
        <ele>222.388</ele>
        <time>2020-03-26T16:49:11Z</time>
      </trkpt>
      <trkpt lat="43.5388" lon="1.48021">
        <ele>222.407</ele>
        <time>2020-03-26T16:49:16Z</time>
      </trkpt>
      <trkpt lat="43.53881" lon="1.48016">
        <ele>222.419</ele>
        <time>2020-03-26T16:49:21Z</time>
      </trkpt>
      <trkpt lat="43.5389" lon="1.48018">
        <ele>222.437</ele>
        <time>2020-03-26T16:49:27Z</time>
      </trkpt>
      <trkpt lat="43.53896" lon="1.48013">
        <ele>222.455</ele>
        <time>2020-03-26T16:49:33Z</time>
      </trkpt>
      <trkpt lat="43.539" lon="1.48006">
        <ele>222.473</ele>
        <time>2020-03-26T16:49:38Z</time>
      </trkpt>
      <trkpt lat="43.53903" lon="1.47998">
        <ele>222.501</ele>
        <time>2020-03-26T16:49:44Z</time>
      </trkpt>
      <trkpt lat="43.53907" lon="1.47994">
        <ele>222.525</ele>
        <time>2020-03-26T16:49:50Z</time>
      </trkpt>
      <trkpt lat="43.53909" lon="1.47989">
        <ele>222.529</ele>
        <time>2020-03-26T16:49:56Z</time>
      </trkpt>
      <trkpt lat="43.53911" lon="1.47984">
        <ele>222.523</ele>
        <time>2020-03-26T16:50:02Z</time>
      </trkpt>
      <trkpt lat="43.53916" lon="1.47985">
        <ele>222.506</ele>
        <time>2020-03-26T16:50:07Z</time>
      </trkpt>
      <trkpt lat="43.53925" lon="1.47981">
        <ele>222.476</ele>
        <time>2020-03-26T16:50:13Z</time>
      </trkpt>
      <trkpt lat="43.5393" lon="1.47978">
        <ele>222.452</ele>
        <time>2020-03-26T16:50:18Z</time>
      </trkpt>
      <trkpt lat="43.53936" lon="1.47975">
        <ele>222.435</ele>
        <time>2020-03-26T16:50:23Z</time>
      </trkpt>
      <trkpt lat="43.53943" lon="1.47971">
        <ele>222.419</ele>
        <time>2020-03-26T16:50:29Z</time>
      </trkpt>
      <trkpt lat="43.53949" lon="1.47966">
        <ele>222.417</ele>
        <time>2020-03-26T16:50:35Z</time>
      </trkpt>
      <trkpt lat="43.53954" lon="1.47961">
        <ele>222.411</ele>
        <time>2020-03-26T16:50:41Z</time>
      </trkpt>
      <trkpt lat="43.53962" lon="1.47957">
        <ele>222.407</ele>
        <time>2020-03-26T16:50:46Z</time>
      </trkpt>
      <trkpt lat="43.5397" lon="1.47953">
        <ele>222.408</ele>
        <time>2020-03-26T16:50:52Z</time>
      </trkpt>
      <trkpt lat="43.53974" lon="1.47948">
        <ele>222.417</ele>
        <time>2020-03-26T16:50:57Z</time>
      </trkpt>
      <trkpt lat="43.53979" lon="1.47944">
        <ele>222.435</ele>
        <time>2020-03-26T16:51:03Z</time>
      </trkpt>
      <trkpt lat="43.53984" lon="1.4794">
        <ele>222.448</ele>
        <time>2020-03-26T16:51:09Z</time>
      </trkpt>
      <trkpt lat="43.5399" lon="1.47936">
        <ele>222.452</ele>
        <time>2020-03-26T16:51:14Z</time>
      </trkpt>
      <trkpt lat="43.53992" lon="1.47934">
        <ele>222.452</ele>
        <time>2020-03-26T16:51:19Z</time>
      </trkpt>
      <trkpt lat="43.53995" lon="1.47929">
        <ele>222.449</ele>
        <time>2020-03-26T16:51:25Z</time>
      </trkpt>
      <trkpt lat="43.53997" lon="1.47926">
        <ele>222.442</ele>
        <time>2020-03-26T16:51:30Z</time>
      </trkpt>
      <trkpt lat="43.54003" lon="1.47923">
        <ele>222.431</ele>
        <time>2020-03-26T16:51:36Z</time>
      </trkpt>
      <trkpt lat="43.54007" lon="1.47921">
        <ele>222.416</ele>
        <time>2020-03-26T16:51:42Z</time>
      </trkpt>
      <trkpt lat="43.54012" lon="1.47916">
        <ele>222.396</ele>
        <time>2020-03-26T16:51:48Z</time>
      </trkpt>
      <trkpt lat="43.54017" lon="1.4791">
        <ele>222.381</ele>
        <time>2020-03-26T16:51:53Z</time>
      </trkpt>
      <trkpt lat="43.54019" lon="1.47904">
        <ele>222.365</ele>
        <time>2020-03-26T16:51:59Z</time>
      </trkpt>
      <trkpt lat="43.54019" lon="1.47904">
        <ele>222.364</ele>
        <time>2020-03-26T16:52:05Z</time>
      </trkpt>
      <trkpt lat="43.5402" lon="1.47902">
        <ele>222.36</ele>
        <time>2020-03-26T16:52:10Z</time>
      </trkpt>
      <trkpt lat="43.54023" lon="1.47896">
        <ele>222.348</ele>
        <time>2020-03-26T16:52:16Z</time>
      </trkpt>
      <trkpt lat="43.54026" lon="1.47893">
        <ele>222.338</ele>
        <time>2020-03-26T16:52:22Z</time>
      </trkpt>
      <trkpt lat="43.54034" lon="1.47892">
        <ele>222.321</ele>
        <time>2020-03-26T16:52:28Z</time>
      </trkpt>
      <trkpt lat="43.54039" lon="1.4789">
        <ele>222.307</ele>
        <time>2020-03-26T16:52:33Z</time>
      </trkpt>
      <trkpt lat="43.54046" lon="1.47887">
        <ele>222.289</ele>
        <time>2020-03-26T16:52:39Z</time>
      </trkpt>
      <trkpt lat="43.54051" lon="1.47884">
        <ele>222.267</ele>
        <time>2020-03-26T16:52:45Z</time>
      </trkpt>
      <trkpt lat="43.54058" lon="1.47881">
        <ele>222.24</ele>
        <time>2020-03-26T16:52:51Z</time>
      </trkpt>
      <trkpt lat="43.54068" lon="1.4788">
        <ele>222.212</ele>
        <time>2020-03-26T16:52:57Z</time>
      </trkpt>
      <trkpt lat="43.54074" lon="1.47878">
        <ele>222.19</ele>
        <time>2020-03-26T16:53:03Z</time>
      </trkpt>
      <trkpt lat="43.54079" lon="1.47878">
        <ele>222.175</ele>
        <time>2020-03-26T16:53:08Z</time>
      </trkpt>
      <trkpt lat="43.54086" lon="1.47881">
        <ele>222.153</ele>
        <time>2020-03-26T16:53:14Z</time>
      </trkpt>
      <trkpt lat="43.5409" lon="1.47877">
        <ele>222.124</ele>
        <time>2020-03-26T16:53:19Z</time>
      </trkpt>
      <trkpt lat="43.54097" lon="1.47873">
        <ele>222.073</ele>
        <time>2020-03-26T16:53:25Z</time>
      </trkpt>
      <trkpt lat="43.54102" lon="1.47871">
        <ele>222.028</ele>
        <time>2020-03-26T16:53:30Z</time>
      </trkpt>
      <trkpt lat="43.54108" lon="1.47869">
        <ele>221.976</ele>
        <time>2020-03-26T16:53:36Z</time>
      </trkpt>
      <trkpt lat="43.54112" lon="1.47867">
        <ele>221.932</ele>
        <time>2020-03-26T16:53:41Z</time>
      </trkpt>
      <trkpt lat="43.54118" lon="1.47863">
        <ele>221.883</ele>
        <time>2020-03-26T16:53:47Z</time>
      </trkpt>
      <trkpt lat="43.54123" lon="1.47859">
        <ele>221.84</ele>
        <time>2020-03-26T16:53:52Z</time>
      </trkpt>
      <trkpt lat="43.54129" lon="1.47855">
        <ele>221.779</ele>
        <time>2020-03-26T16:53:58Z</time>
      </trkpt>
      <trkpt lat="43.54136" lon="1.47852">
        <ele>221.711</ele>
        <time>2020-03-26T16:54:04Z</time>
      </trkpt>
      <trkpt lat="43.54142" lon="1.47851">
        <ele>221.643</ele>
        <time>2020-03-26T16:54:10Z</time>
      </trkpt>
      <trkpt lat="43.54147" lon="1.47849">
        <ele>221.59</ele>
        <time>2020-03-26T16:54:15Z</time>
      </trkpt>
      <trkpt lat="43.54152" lon="1.47845">
        <ele>221.537</ele>
        <time>2020-03-26T16:54:20Z</time>
      </trkpt>
      <trkpt lat="43.54162" lon="1.47841">
        <ele>221.461</ele>
        <time>2020-03-26T16:54:26Z</time>
      </trkpt>
      <trkpt lat="43.54169" lon="1.47837">
        <ele>221.386</ele>
        <time>2020-03-26T16:54:31Z</time>
      </trkpt>
      <trkpt lat="43.54177" lon="1.47833">
        <ele>221.285</ele>
        <time>2020-03-26T16:54:37Z</time>
      </trkpt>
      <trkpt lat="43.54181" lon="1.47831">
        <ele>221.2</ele>
        <time>2020-03-26T16:54:42Z</time>
      </trkpt>
      <trkpt lat="43.54184" lon="1.47827">
        <ele>221.113</ele>
        <time>2020-03-26T16:54:47Z</time>
      </trkpt>
      <trkpt lat="43.54189" lon="1.47824">
        <ele>221.027</ele>
        <time>2020-03-26T16:54:52Z</time>
      </trkpt>
      <trkpt lat="43.54196" lon="1.4782">
        <ele>220.926</ele>
        <time>2020-03-26T16:54:58Z</time>
      </trkpt>
      <trkpt lat="43.54202" lon="1.47814">
        <ele>220.833</ele>
        <time>2020-03-26T16:55:04Z</time>
      </trkpt>
      <trkpt lat="43.54206" lon="1.4781">
        <ele>220.742</ele>
        <time>2020-03-26T16:55:10Z</time>
      </trkpt>
      <trkpt lat="43.54211" lon="1.47806">
        <ele>220.651</ele>
        <time>2020-03-26T16:55:16Z</time>
      </trkpt>
      <trkpt lat="43.54216" lon="1.47804">
        <ele>220.579</ele>
        <time>2020-03-26T16:55:21Z</time>
      </trkpt>
      <trkpt lat="43.54218" lon="1.47803">
        <ele>220.526</ele>
        <time>2020-03-26T16:55:27Z</time>
      </trkpt>
      <trkpt lat="43.54218" lon="1.47803">
        <ele>220.521</ele>
        <time>2020-03-26T16:55:32Z</time>
      </trkpt>
      <trkpt lat="43.54223" lon="1.47801">
        <ele>220.458</ele>
        <time>2020-03-26T16:55:38Z</time>
      </trkpt>
      <trkpt lat="43.54227" lon="1.47799">
        <ele>220.39</ele>
        <time>2020-03-26T16:55:44Z</time>
      </trkpt>
      <trkpt lat="43.54232" lon="1.47791">
        <ele>220.328</ele>
        <time>2020-03-26T16:55:49Z</time>
      </trkpt>
      <trkpt lat="43.5424" lon="1.47788">
        <ele>220.244</ele>
        <time>2020-03-26T16:55:55Z</time>
      </trkpt>
      <trkpt lat="43.54247" lon="1.47784">
        <ele>220.155</ele>
        <time>2020-03-26T16:56:01Z</time>
      </trkpt>
      <trkpt lat="43.54253" lon="1.4778">
        <ele>220.065</ele>
        <time>2020-03-26T16:56:07Z</time>
      </trkpt>
      <trkpt lat="43.54257" lon="1.47776">
        <ele>219.968</ele>
        <time>2020-03-26T16:56:13Z</time>
      </trkpt>
      <trkpt lat="43.54264" lon="1.47773">
        <ele>219.864</ele>
        <time>2020-03-26T16:56:19Z</time>
      </trkpt>
      <trkpt lat="43.5427" lon="1.47768">
        <ele>219.776</ele>
        <time>2020-03-26T16:56:24Z</time>
      </trkpt>
      <trkpt lat="43.54278" lon="1.47764">
        <ele>219.675</ele>
        <time>2020-03-26T16:56:30Z</time>
      </trkpt>
      <trkpt lat="43.54278" lon="1.47763">
        <ele>219.584</ele>
        <time>2020-03-26T16:56:36Z</time>
      </trkpt>
      <trkpt lat="43.54277" lon="1.47761">
        <ele>219.516</ele>
        <time>2020-03-26T16:56:41Z</time>
      </trkpt>
      <trkpt lat="43.5428" lon="1.47756">
        <ele>219.441</ele>
        <time>2020-03-26T16:56:46Z</time>
      </trkpt>
      <trkpt lat="43.54289" lon="1.47754">
        <ele>219.347</ele>
        <time>2020-03-26T16:56:52Z</time>
      </trkpt>
      <trkpt lat="43.54297" lon="1.4775">
        <ele>219.259</ele>
        <time>2020-03-26T16:56:58Z</time>
      </trkpt>
      <trkpt lat="43.54306" lon="1.47747">
        <ele>219.168</ele>
        <time>2020-03-26T16:57:04Z</time>
      </trkpt>
      <trkpt lat="43.54315" lon="1.47743">
        <ele>219.094</ele>
        <time>2020-03-26T16:57:09Z</time>
      </trkpt>
      <trkpt lat="43.54322" lon="1.4774">
        <ele>219.014</ele>
        <time>2020-03-26T16:57:15Z</time>
      </trkpt>
      <trkpt lat="43.54329" lon="1.47737">
        <ele>218.952</ele>
        <time>2020-03-26T16:57:20Z</time>
      </trkpt>
      <trkpt lat="43.54335" lon="1.47733">
        <ele>218.872</ele>
        <time>2020-03-26T16:57:26Z</time>
      </trkpt>
      <trkpt lat="43.5434" lon="1.47729">
        <ele>218.803</ele>
        <time>2020-03-26T16:57:31Z</time>
      </trkpt>
      <trkpt lat="43.54343" lon="1.47724">
        <ele>218.739</ele>
        <time>2020-03-26T16:57:36Z</time>
      </trkpt>
      <trkpt lat="43.54345" lon="1.47721">
        <ele>218.662</ele>
        <time>2020-03-26T16:57:42Z</time>
      </trkpt>
      <trkpt lat="43.54348" lon="1.47718">
        <ele>218.594</ele>
        <time>2020-03-26T16:57:47Z</time>
      </trkpt>
      <trkpt lat="43.54354" lon="1.47714">
        <ele>218.509</ele>
        <time>2020-03-26T16:57:53Z</time>
      </trkpt>
      <trkpt lat="43.54359" lon="1.47713">
        <ele>218.439</ele>
        <time>2020-03-26T16:57:58Z</time>
      </trkpt>
      <trkpt lat="43.54362" lon="1.47712">
        <ele>218.373</ele>
        <time>2020-03-26T16:58:03Z</time>
      </trkpt>
      <trkpt lat="43.54372" lon="1.47706">
        <ele>218.312</ele>
        <time>2020-03-26T16:58:08Z</time>
      </trkpt>
      <trkpt lat="43.54373" lon="1.47701">
        <ele>218.25</ele>
        <time>2020-03-26T16:58:14Z</time>
      </trkpt>
      <trkpt lat="43.54378" lon="1.47698">
        <ele>218.188</ele>
        <time>2020-03-26T16:58:19Z</time>
      </trkpt>
      <trkpt lat="43.54384" lon="1.47694">
        <ele>218.126</ele>
        <time>2020-03-26T16:58:25Z</time>
      </trkpt>
      <trkpt lat="43.54388" lon="1.47691">
        <ele>218.07</ele>
        <time>2020-03-26T16:58:30Z</time>
      </trkpt>
      <trkpt lat="43.54391" lon="1.47686">
        <ele>218.02</ele>
        <time>2020-03-26T16:58:35Z</time>
      </trkpt>
      <trkpt lat="43.54397" lon="1.47682">
        <ele>217.959</ele>
        <time>2020-03-26T16:58:41Z</time>
      </trkpt>
      <trkpt lat="43.54403" lon="1.4768">
        <ele>217.895</ele>
        <time>2020-03-26T16:58:47Z</time>
      </trkpt>
      <trkpt lat="43.54406" lon="1.47675">
        <ele>217.843</ele>
        <time>2020-03-26T16:58:52Z</time>
      </trkpt>
      <trkpt lat="43.5441" lon="1.47672">
        <ele>217.793</ele>
        <time>2020-03-26T16:58:57Z</time>
      </trkpt>
      <trkpt lat="43.54414" lon="1.47667">
        <ele>217.731</ele>
        <time>2020-03-26T16:59:03Z</time>
      </trkpt>
      <trkpt lat="43.54421" lon="1.47662">
        <ele>217.678</ele>
        <time>2020-03-26T16:59:08Z</time>
      </trkpt>
      <trkpt lat="43.54427" lon="1.47657">
        <ele>217.617</ele>
        <time>2020-03-26T16:59:14Z</time>
      </trkpt>
      <trkpt lat="43.54433" lon="1.47651">
        <ele>217.552</ele>
        <time>2020-03-26T16:59:20Z</time>
      </trkpt>
      <trkpt lat="43.54438" lon="1.47647">
        <ele>217.495</ele>
        <time>2020-03-26T16:59:25Z</time>
      </trkpt>
      <trkpt lat="43.54443" lon="1.47642">
        <ele>217.439</ele>
        <time>2020-03-26T16:59:30Z</time>
      </trkpt>
      <trkpt lat="43.54445" lon="1.4764">
        <ele>217.381</ele>
        <time>2020-03-26T16:59:35Z</time>
      </trkpt>
      <trkpt lat="43.54452" lon="1.47635">
        <ele>217.313</ele>
        <time>2020-03-26T16:59:41Z</time>
      </trkpt>
      <trkpt lat="43.54455" lon="1.47629">
        <ele>217.248</ele>
        <time>2020-03-26T16:59:47Z</time>
      </trkpt>
      <trkpt lat="43.54456" lon="1.47625">
        <ele>217.195</ele>
        <time>2020-03-26T16:59:52Z</time>
      </trkpt>
      <trkpt lat="43.54459" lon="1.4762">
        <ele>217.13</ele>
        <time>2020-03-26T16:59:58Z</time>
      </trkpt>
      <trkpt lat="43.54463" lon="1.47615">
        <ele>217.077</ele>
        <time>2020-03-26T17:00:03Z</time>
      </trkpt>
      <trkpt lat="43.54468" lon="1.47609">
        <ele>217.01</ele>
        <time>2020-03-26T17:00:09Z</time>
      </trkpt>
      <trkpt lat="43.54471" lon="1.47602">
        <ele>216.939</ele>
        <time>2020-03-26T17:00:15Z</time>
      </trkpt>
      <trkpt lat="43.54475" lon="1.47595">
        <ele>216.879</ele>
        <time>2020-03-26T17:00:20Z</time>
      </trkpt>
      <trkpt lat="43.54481" lon="1.4759">
        <ele>216.811</ele>
        <time>2020-03-26T17:00:26Z</time>
      </trkpt>
      <trkpt lat="43.54485" lon="1.47584">
        <ele>216.742</ele>
        <time>2020-03-26T17:00:32Z</time>
      </trkpt>
      <trkpt lat="43.54491" lon="1.47578">
        <ele>216.675</ele>
        <time>2020-03-26T17:00:38Z</time>
      </trkpt>
      <trkpt lat="43.54495" lon="1.47571">
        <ele>216.606</ele>
        <time>2020-03-26T17:00:44Z</time>
      </trkpt>
      <trkpt lat="43.545" lon="1.47566">
        <ele>216.542</ele>
        <time>2020-03-26T17:00:50Z</time>
      </trkpt>
      <trkpt lat="43.54504" lon="1.47561">
        <ele>216.477</ele>
        <time>2020-03-26T17:00:56Z</time>
      </trkpt>
      <trkpt lat="43.54511" lon="1.47555">
        <ele>216.413</ele>
        <time>2020-03-26T17:01:02Z</time>
      </trkpt>
      <trkpt lat="43.54516" lon="1.4755">
        <ele>216.352</ele>
        <time>2020-03-26T17:01:08Z</time>
      </trkpt>
      <trkpt lat="43.5452" lon="1.47545">
        <ele>216.303</ele>
        <time>2020-03-26T17:01:13Z</time>
      </trkpt>
      <trkpt lat="43.54527" lon="1.47536">
        <ele>216.254</ele>
        <time>2020-03-26T17:01:19Z</time>
      </trkpt>
      <trkpt lat="43.54534" lon="1.47531">
        <ele>216.222</ele>
        <time>2020-03-26T17:01:24Z</time>
      </trkpt>
      <trkpt lat="43.54537" lon="1.47526">
        <ele>216.189</ele>
        <time>2020-03-26T17:01:30Z</time>
      </trkpt>
      <trkpt lat="43.54541" lon="1.47521">
        <ele>216.162</ele>
        <time>2020-03-26T17:01:36Z</time>
      </trkpt>
      <trkpt lat="43.54545" lon="1.47516">
        <ele>216.138</ele>
        <time>2020-03-26T17:01:41Z</time>
      </trkpt>
      <trkpt lat="43.54548" lon="1.4751">
        <ele>216.119</ele>
        <time>2020-03-26T17:01:47Z</time>
      </trkpt>
      <trkpt lat="43.54552" lon="1.47502">
        <ele>216.1</ele>
        <time>2020-03-26T17:01:53Z</time>
      </trkpt>
      <trkpt lat="43.54556" lon="1.47496">
        <ele>216.08</ele>
        <time>2020-03-26T17:01:59Z</time>
      </trkpt>
      <trkpt lat="43.54561" lon="1.47491">
        <ele>216.047</ele>
        <time>2020-03-26T17:02:05Z</time>
      </trkpt>
      <trkpt lat="43.54563" lon="1.47486">
        <ele>216.009</ele>
        <time>2020-03-26T17:02:10Z</time>
      </trkpt>
      <trkpt lat="43.54566" lon="1.4748">
        <ele>215.969</ele>
        <time>2020-03-26T17:02:15Z</time>
      </trkpt>
      <trkpt lat="43.54571" lon="1.47475">
        <ele>215.917</ele>
        <time>2020-03-26T17:02:21Z</time>
      </trkpt>
      <trkpt lat="43.54574" lon="1.4747">
        <ele>215.876</ele>
        <time>2020-03-26T17:02:26Z</time>
      </trkpt>
      <trkpt lat="43.54575" lon="1.47461">
        <ele>215.832</ele>
        <time>2020-03-26T17:02:32Z</time>
      </trkpt>
      <trkpt lat="43.54578" lon="1.47457">
        <ele>215.812</ele>
        <time>2020-03-26T17:02:38Z</time>
      </trkpt>
      <trkpt lat="43.54579" lon="1.47457">
        <ele>215.79</ele>
        <time>2020-03-26T17:02:43Z</time>
      </trkpt>
      <trkpt lat="43.54585" lon="1.47455">
        <ele>215.776</ele>
        <time>2020-03-26T17:02:49Z</time>
      </trkpt>
      <trkpt lat="43.54587" lon="1.47453">
        <ele>215.773</ele>
        <time>2020-03-26T17:02:55Z</time>
      </trkpt>
      <trkpt lat="43.54584" lon="1.47456">
        <ele>215.739</ele>
        <time>2020-03-26T17:03:01Z</time>
      </trkpt>
      <trkpt lat="43.54579" lon="1.47456">
        <ele>215.712</ele>
        <time>2020-03-26T17:03:06Z</time>
      </trkpt>
      <trkpt lat="43.54579" lon="1.47452">
        <ele>215.678</ele>
        <time>2020-03-26T17:03:12Z</time>
      </trkpt>
      <trkpt lat="43.54579" lon="1.4745">
        <ele>215.642</ele>
        <time>2020-03-26T17:03:18Z</time>
      </trkpt>
      <trkpt lat="43.54579" lon="1.47449">
        <ele>215.615</ele>
        <time>2020-03-26T17:03:23Z</time>
      </trkpt>
      <trkpt lat="43.54588" lon="1.47448">
        <ele>215.443</ele>
        <time>2020-03-26T17:03:30Z</time>
      </trkpt>
      <trkpt lat="43.546" lon="1.47469">
        <ele>215.428</ele>
        <time>2020-03-26T17:03:36Z</time>
      </trkpt>
      <trkpt lat="43.54609" lon="1.47498">
        <ele>215.353</ele>
        <time>2020-03-26T17:03:49Z</time>
      </trkpt>
      <trkpt lat="43.54589" lon="1.47486">
        <ele>215.353</ele>
        <time>2020-03-26T17:03:54Z</time>
      </trkpt>
      <trkpt lat="43.54589" lon="1.47466">
        <ele>215.356</ele>
        <time>2020-03-26T17:04:00Z</time>
      </trkpt>
      <trkpt lat="43.54593" lon="1.47463">
        <ele>215.352</ele>
        <time>2020-03-26T17:04:05Z</time>
      </trkpt>
      <trkpt lat="43.54596" lon="1.4746">
        <ele>215.346</ele>
        <time>2020-03-26T17:04:10Z</time>
      </trkpt>
      <trkpt lat="43.54598" lon="1.47455">
        <ele>215.338</ele>
        <time>2020-03-26T17:04:15Z</time>
      </trkpt>
      <trkpt lat="43.54601" lon="1.47452">
        <ele>215.331</ele>
        <time>2020-03-26T17:04:21Z</time>
      </trkpt>
      <trkpt lat="43.54603" lon="1.4745">
        <ele>215.328</ele>
        <time>2020-03-26T17:04:27Z</time>
      </trkpt>
      <trkpt lat="43.54607" lon="1.47453">
        <ele>215.33</ele>
        <time>2020-03-26T17:04:32Z</time>
      </trkpt>
      <trkpt lat="43.54611" lon="1.47453">
        <ele>215.336</ele>
        <time>2020-03-26T17:04:37Z</time>
      </trkpt>
      <trkpt lat="43.54618" lon="1.4745">
        <ele>215.37</ele>
        <time>2020-03-26T17:04:43Z</time>
      </trkpt>
      <trkpt lat="43.54626" lon="1.47446">
        <ele>215.431</ele>
        <time>2020-03-26T17:04:48Z</time>
      </trkpt>
      <trkpt lat="43.54631" lon="1.47443">
        <ele>215.504</ele>
        <time>2020-03-26T17:04:53Z</time>
      </trkpt>
      <trkpt lat="43.54638" lon="1.47438">
        <ele>215.598</ele>
        <time>2020-03-26T17:04:59Z</time>
      </trkpt>
      <trkpt lat="43.54643" lon="1.47432">
        <ele>215.691</ele>
        <time>2020-03-26T17:05:05Z</time>
      </trkpt>
      <trkpt lat="43.54644" lon="1.47427">
        <ele>215.765</ele>
        <time>2020-03-26T17:05:10Z</time>
      </trkpt>
      <trkpt lat="43.54648" lon="1.47422">
        <ele>215.857</ele>
        <time>2020-03-26T17:05:16Z</time>
      </trkpt>
      <trkpt lat="43.54652" lon="1.47418">
        <ele>215.945</ele>
        <time>2020-03-26T17:05:22Z</time>
      </trkpt>
      <trkpt lat="43.54656" lon="1.47411">
        <ele>216.026</ele>
        <time>2020-03-26T17:05:28Z</time>
      </trkpt>
      <trkpt lat="43.54658" lon="1.47405">
        <ele>216.084</ele>
        <time>2020-03-26T17:05:33Z</time>
      </trkpt>
      <trkpt lat="43.54661" lon="1.47401">
        <ele>216.152</ele>
        <time>2020-03-26T17:05:39Z</time>
      </trkpt>
      <trkpt lat="43.54665" lon="1.47395">
        <ele>216.22</ele>
        <time>2020-03-26T17:05:45Z</time>
      </trkpt>
      <trkpt lat="43.5467" lon="1.47389">
        <ele>216.287</ele>
        <time>2020-03-26T17:05:51Z</time>
      </trkpt>
      <trkpt lat="43.54674" lon="1.47386">
        <ele>216.34</ele>
        <time>2020-03-26T17:05:56Z</time>
      </trkpt>
      <trkpt lat="43.54679" lon="1.47382">
        <ele>216.39</ele>
        <time>2020-03-26T17:06:01Z</time>
      </trkpt>
      <trkpt lat="43.54681" lon="1.47379">
        <ele>216.451</ele>
        <time>2020-03-26T17:06:07Z</time>
      </trkpt>
      <trkpt lat="43.54683" lon="1.47382">
        <ele>216.496</ele>
        <time>2020-03-26T17:06:12Z</time>
      </trkpt>
      <trkpt lat="43.54688" lon="1.47387">
        <ele>216.538</ele>
        <time>2020-03-26T17:06:17Z</time>
      </trkpt>
      <trkpt lat="43.54693" lon="1.47388">
        <ele>216.585</ele>
        <time>2020-03-26T17:06:23Z</time>
      </trkpt>
      <trkpt lat="43.54695" lon="1.47392">
        <ele>216.618</ele>
        <time>2020-03-26T17:06:28Z</time>
      </trkpt>
      <trkpt lat="43.54701" lon="1.47395">
        <ele>216.653</ele>
        <time>2020-03-26T17:06:34Z</time>
      </trkpt>
      <trkpt lat="43.54708" lon="1.47402">
        <ele>216.688</ele>
        <time>2020-03-26T17:06:40Z</time>
      </trkpt>
      <trkpt lat="43.54714" lon="1.4741">
        <ele>216.733</ele>
        <time>2020-03-26T17:06:46Z</time>
      </trkpt>
      <trkpt lat="43.54717" lon="1.47411">
        <ele>216.765</ele>
        <time>2020-03-26T17:06:51Z</time>
      </trkpt>
      <trkpt lat="43.54723" lon="1.47413">
        <ele>216.803</ele>
        <time>2020-03-26T17:06:57Z</time>
      </trkpt>
      <trkpt lat="43.54728" lon="1.47416">
        <ele>216.826</ele>
        <time>2020-03-26T17:07:02Z</time>
      </trkpt>
      <trkpt lat="43.54731" lon="1.47417">
        <ele>216.848</ele>
        <time>2020-03-26T17:07:08Z</time>
      </trkpt>
      <trkpt lat="43.54737" lon="1.47425">
        <ele>216.869</ele>
        <time>2020-03-26T17:07:14Z</time>
      </trkpt>
      <trkpt lat="43.54741" lon="1.47429">
        <ele>216.882</ele>
        <time>2020-03-26T17:07:19Z</time>
      </trkpt>
      <trkpt lat="43.54746" lon="1.47434">
        <ele>216.891</ele>
        <time>2020-03-26T17:07:25Z</time>
      </trkpt>
      <trkpt lat="43.5475" lon="1.47441">
        <ele>216.895</ele>
        <time>2020-03-26T17:07:31Z</time>
      </trkpt>
      <trkpt lat="43.54753" lon="1.47442">
        <ele>216.899</ele>
        <time>2020-03-26T17:07:37Z</time>
      </trkpt>
      <trkpt lat="43.54757" lon="1.47445">
        <ele>216.9</ele>
        <time>2020-03-26T17:07:42Z</time>
      </trkpt>
      <trkpt lat="43.54761" lon="1.47446">
        <ele>216.899</ele>
        <time>2020-03-26T17:07:47Z</time>
      </trkpt>
      <trkpt lat="43.54768" lon="1.4746">
        <ele>216.895</ele>
        <time>2020-03-26T17:07:53Z</time>
      </trkpt>
      <trkpt lat="43.54773" lon="1.47463">
        <ele>216.891</ele>
        <time>2020-03-26T17:07:59Z</time>
      </trkpt>
      <trkpt lat="43.54779" lon="1.47466">
        <ele>216.884</ele>
        <time>2020-03-26T17:08:04Z</time>
      </trkpt>
      <trkpt lat="43.54781" lon="1.47469">
        <ele>216.876</ele>
        <time>2020-03-26T17:08:10Z</time>
      </trkpt>
      <trkpt lat="43.54784" lon="1.47473">
        <ele>216.86</ele>
        <time>2020-03-26T17:08:16Z</time>
      </trkpt>
      <trkpt lat="43.54789" lon="1.47477">
        <ele>216.845</ele>
        <time>2020-03-26T17:08:21Z</time>
      </trkpt>
      <trkpt lat="43.54794" lon="1.47481">
        <ele>216.831</ele>
        <time>2020-03-26T17:08:26Z</time>
      </trkpt>
      <trkpt lat="43.548" lon="1.47488">
        <ele>216.82</ele>
        <time>2020-03-26T17:08:32Z</time>
      </trkpt>
      <trkpt lat="43.54803" lon="1.47495">
        <ele>216.81</ele>
        <time>2020-03-26T17:08:37Z</time>
      </trkpt>
      <trkpt lat="43.54806" lon="1.47499">
        <ele>216.791</ele>
        <time>2020-03-26T17:08:43Z</time>
      </trkpt>
      <trkpt lat="43.54808" lon="1.47501">
        <ele>216.769</ele>
        <time>2020-03-26T17:08:48Z</time>
      </trkpt>
      <trkpt lat="43.54814" lon="1.47505">
        <ele>216.744</ele>
        <time>2020-03-26T17:08:54Z</time>
      </trkpt>
      <trkpt lat="43.54822" lon="1.47506">
        <ele>216.722</ele>
        <time>2020-03-26T17:08:59Z</time>
      </trkpt>
      <trkpt lat="43.54825" lon="1.47512">
        <ele>216.696</ele>
        <time>2020-03-26T17:09:04Z</time>
      </trkpt>
      <trkpt lat="43.54828" lon="1.4752">
        <ele>216.664</ele>
        <time>2020-03-26T17:09:10Z</time>
      </trkpt>
      <trkpt lat="43.54832" lon="1.47526">
        <ele>216.629</ele>
        <time>2020-03-26T17:09:16Z</time>
      </trkpt>
      <trkpt lat="43.54835" lon="1.47533">
        <ele>216.599</ele>
        <time>2020-03-26T17:09:21Z</time>
      </trkpt>
      <trkpt lat="43.54836" lon="1.47537">
        <ele>216.557</ele>
        <time>2020-03-26T17:09:27Z</time>
      </trkpt>
      <trkpt lat="43.54838" lon="1.47545">
        <ele>216.513</ele>
        <time>2020-03-26T17:09:33Z</time>
      </trkpt>
      <trkpt lat="43.54841" lon="1.47548">
        <ele>216.481</ele>
        <time>2020-03-26T17:09:38Z</time>
      </trkpt>
      <trkpt lat="43.54845" lon="1.47555">
        <ele>216.431</ele>
        <time>2020-03-26T17:09:44Z</time>
      </trkpt>
      <trkpt lat="43.54851" lon="1.4756">
        <ele>216.385</ele>
        <time>2020-03-26T17:09:49Z</time>
      </trkpt>
      <trkpt lat="43.54856" lon="1.47565">
        <ele>216.328</ele>
        <time>2020-03-26T17:09:55Z</time>
      </trkpt>
      <trkpt lat="43.54859" lon="1.47571">
        <ele>216.269</ele>
        <time>2020-03-26T17:10:01Z</time>
      </trkpt>
      <trkpt lat="43.54864" lon="1.47577">
        <ele>216.212</ele>
        <time>2020-03-26T17:10:07Z</time>
      </trkpt>
      <trkpt lat="43.54866" lon="1.47581">
        <ele>216.167</ele>
        <time>2020-03-26T17:10:12Z</time>
      </trkpt>
      <trkpt lat="43.54871" lon="1.47588">
        <ele>216.118</ele>
        <time>2020-03-26T17:10:18Z</time>
      </trkpt>
      <trkpt lat="43.54875" lon="1.47596">
        <ele>216.067</ele>
        <time>2020-03-26T17:10:24Z</time>
      </trkpt>
      <trkpt lat="43.54878" lon="1.47603">
        <ele>216.021</ele>
        <time>2020-03-26T17:10:29Z</time>
      </trkpt>
      <trkpt lat="43.54881" lon="1.4761">
        <ele>215.965</ele>
        <time>2020-03-26T17:10:35Z</time>
      </trkpt>
      <trkpt lat="43.54884" lon="1.47617">
        <ele>215.905</ele>
        <time>2020-03-26T17:10:41Z</time>
      </trkpt>
      <trkpt lat="43.54887" lon="1.47625">
        <ele>215.839</ele>
        <time>2020-03-26T17:10:47Z</time>
      </trkpt>
      <trkpt lat="43.54889" lon="1.47631">
        <ele>215.783</ele>
        <time>2020-03-26T17:10:52Z</time>
      </trkpt>
      <trkpt lat="43.54893" lon="1.47639">
        <ele>215.712</ele>
        <time>2020-03-26T17:10:58Z</time>
      </trkpt>
      <trkpt lat="43.54896" lon="1.47648">
        <ele>215.639</ele>
        <time>2020-03-26T17:11:04Z</time>
      </trkpt>
      <trkpt lat="43.54898" lon="1.47657">
        <ele>215.571</ele>
        <time>2020-03-26T17:11:10Z</time>
      </trkpt>
      <trkpt lat="43.54901" lon="1.47667">
        <ele>215.505</ele>
        <time>2020-03-26T17:11:16Z</time>
      </trkpt>
      <trkpt lat="43.54902" lon="1.47675">
        <ele>215.454</ele>
        <time>2020-03-26T17:11:21Z</time>
      </trkpt>
      <trkpt lat="43.54905" lon="1.4768">
        <ele>215.391</ele>
        <time>2020-03-26T17:11:27Z</time>
      </trkpt>
      <trkpt lat="43.5491" lon="1.47686">
        <ele>215.346</ele>
        <time>2020-03-26T17:11:32Z</time>
      </trkpt>
      <trkpt lat="43.54913" lon="1.47692">
        <ele>215.303</ele>
        <time>2020-03-26T17:11:38Z</time>
      </trkpt>
      <trkpt lat="43.54915" lon="1.47701">
        <ele>215.275</ele>
        <time>2020-03-26T17:11:43Z</time>
      </trkpt>
      <trkpt lat="43.54919" lon="1.47712">
        <ele>215.253</ele>
        <time>2020-03-26T17:11:49Z</time>
      </trkpt>
      <trkpt lat="43.54921" lon="1.47718">
        <ele>215.236</ele>
        <time>2020-03-26T17:11:54Z</time>
      </trkpt>
      <trkpt lat="43.54927" lon="1.47716">
        <ele>215.215</ele>
        <time>2020-03-26T17:12:00Z</time>
      </trkpt>
      <trkpt lat="43.5493" lon="1.47713">
        <ele>215.196</ele>
        <time>2020-03-26T17:12:05Z</time>
      </trkpt>
      <trkpt lat="43.54934" lon="1.47709">
        <ele>215.175</ele>
        <time>2020-03-26T17:12:10Z</time>
      </trkpt>
      <trkpt lat="43.54938" lon="1.47706">
        <ele>215.146</ele>
        <time>2020-03-26T17:12:16Z</time>
      </trkpt>
      <trkpt lat="43.54943" lon="1.47703">
        <ele>215.12</ele>
        <time>2020-03-26T17:12:21Z</time>
      </trkpt>
      <trkpt lat="43.54948" lon="1.477">
        <ele>215.087</ele>
        <time>2020-03-26T17:12:27Z</time>
      </trkpt>
      <trkpt lat="43.54953" lon="1.47698">
        <ele>215.062</ele>
        <time>2020-03-26T17:12:32Z</time>
      </trkpt>
      <trkpt lat="43.5496" lon="1.47694">
        <ele>215.037</ele>
        <time>2020-03-26T17:12:38Z</time>
      </trkpt>
      <trkpt lat="43.54966" lon="1.47692">
        <ele>215.018</ele>
        <time>2020-03-26T17:12:43Z</time>
      </trkpt>
      <trkpt lat="43.54972" lon="1.47689">
        <ele>214.999</ele>
        <time>2020-03-26T17:12:49Z</time>
      </trkpt>
      <trkpt lat="43.54976" lon="1.47687">
        <ele>214.984</ele>
        <time>2020-03-26T17:12:54Z</time>
      </trkpt>
      <trkpt lat="43.54981" lon="1.47683">
        <ele>214.966</ele>
        <time>2020-03-26T17:13:00Z</time>
      </trkpt>
      <trkpt lat="43.54986" lon="1.4768">
        <ele>214.948</ele>
        <time>2020-03-26T17:13:06Z</time>
      </trkpt>
      <trkpt lat="43.54991" lon="1.47677">
        <ele>214.933</ele>
        <time>2020-03-26T17:13:11Z</time>
      </trkpt>
      <trkpt lat="43.54995" lon="1.47675">
        <ele>214.916</ele>
        <time>2020-03-26T17:13:16Z</time>
      </trkpt>
      <trkpt lat="43.55001" lon="1.4767">
        <ele>214.888</ele>
        <time>2020-03-26T17:13:22Z</time>
      </trkpt>
      <trkpt lat="43.55008" lon="1.47664">
        <ele>214.86</ele>
        <time>2020-03-26T17:13:28Z</time>
      </trkpt>
      <trkpt lat="43.55014" lon="1.47666">
        <ele>214.836</ele>
        <time>2020-03-26T17:13:34Z</time>
      </trkpt>
      <trkpt lat="43.55017" lon="1.47666">
        <ele>214.822</ele>
        <time>2020-03-26T17:13:39Z</time>
      </trkpt>
      <trkpt lat="43.55021" lon="1.47667">
        <ele>214.813</ele>
        <time>2020-03-26T17:13:44Z</time>
      </trkpt>
      <trkpt lat="43.55024" lon="1.47676">
        <ele>214.802</ele>
        <time>2020-03-26T17:13:50Z</time>
      </trkpt>
      <trkpt lat="43.5503" lon="1.47683">
        <ele>214.798</ele>
        <time>2020-03-26T17:13:55Z</time>
      </trkpt>
      <trkpt lat="43.55036" lon="1.47686">
        <ele>214.799</ele>
        <time>2020-03-26T17:14:01Z</time>
      </trkpt>
      <trkpt lat="43.55036" lon="1.47684">
        <ele>214.798</ele>
        <time>2020-03-26T17:14:07Z</time>
      </trkpt>
      <trkpt lat="43.5504" lon="1.47675">
        <ele>214.773</ele>
        <time>2020-03-26T17:14:12Z</time>
      </trkpt>
      <trkpt lat="43.55043" lon="1.47672">
        <ele>214.766</ele>
        <time>2020-03-26T17:14:18Z</time>
      </trkpt>
      <trkpt lat="43.55029" lon="1.47673">
        <ele>200.6</ele>
        <time>2020-03-26T17:14:36Z</time>
      </trkpt>
      <trkpt lat="43.55048" lon="1.47658">
        <ele>214.701</ele>
        <time>2020-03-26T17:14:51Z</time>
      </trkpt>
    </trkseg>
  </trk>
  <trk>
    <name><![CDATA[25 mars]]></name>
    <trkseg>
      <trkpt lat="43.54923" lon="1.47739">
        <ele>214.832</ele>
        <time>2020-03-25T15:42:00Z</time>
      </trkpt>
      <trkpt lat="43.54917" lon="1.47743">
        <ele>214.031</ele>
        <time>2020-03-25T15:42:05Z</time>
      </trkpt>
      <trkpt lat="43.54913" lon="1.47747">
        <ele>213.538</ele>
        <time>2020-03-25T15:42:11Z</time>
      </trkpt>
      <trkpt lat="43.54908" lon="1.47748">
        <ele>213.781</ele>
        <time>2020-03-25T15:42:16Z</time>
      </trkpt>
      <trkpt lat="43.54901" lon="1.47753">
        <ele>213.68</ele>
        <time>2020-03-25T15:42:22Z</time>
      </trkpt>
      <trkpt lat="43.54894" lon="1.47756">
        <ele>213.542</ele>
        <time>2020-03-25T15:42:28Z</time>
      </trkpt>
      <trkpt lat="43.54888" lon="1.47758">
        <ele>213.415</ele>
        <time>2020-03-25T15:42:34Z</time>
      </trkpt>
      <trkpt lat="43.54883" lon="1.47762">
        <ele>213.267</ele>
        <time>2020-03-25T15:42:40Z</time>
      </trkpt>
      <trkpt lat="43.54877" lon="1.47765">
        <ele>213.125</ele>
        <time>2020-03-25T15:42:45Z</time>
      </trkpt>
      <trkpt lat="43.54872" lon="1.47769">
        <ele>212.968</ele>
        <time>2020-03-25T15:42:50Z</time>
      </trkpt>
      <trkpt lat="43.54866" lon="1.47771">
        <ele>212.768</ele>
        <time>2020-03-25T15:42:56Z</time>
      </trkpt>
      <trkpt lat="43.5486" lon="1.47775">
        <ele>212.584</ele>
        <time>2020-03-25T15:43:02Z</time>
      </trkpt>
      <trkpt lat="43.54856" lon="1.47776">
        <ele>212.452</ele>
        <time>2020-03-25T15:43:07Z</time>
      </trkpt>
      <trkpt lat="43.54852" lon="1.47778">
        <ele>212.282</ele>
        <time>2020-03-25T15:43:13Z</time>
      </trkpt>
      <trkpt lat="43.54846" lon="1.47782">
        <ele>212.064</ele>
        <time>2020-03-25T15:43:19Z</time>
      </trkpt>
      <trkpt lat="43.5484" lon="1.47785">
        <ele>211.818</ele>
        <time>2020-03-25T15:43:24Z</time>
      </trkpt>
      <trkpt lat="43.54834" lon="1.4779">
        <ele>211.535</ele>
        <time>2020-03-25T15:43:29Z</time>
      </trkpt>
      <trkpt lat="43.54829" lon="1.47794">
        <ele>211.235</ele>
        <time>2020-03-25T15:43:34Z</time>
      </trkpt>
      <trkpt lat="43.54822" lon="1.47798">
        <ele>210.886</ele>
        <time>2020-03-25T15:43:40Z</time>
      </trkpt>
      <trkpt lat="43.54816" lon="1.47803">
        <ele>210.589</ele>
        <time>2020-03-25T15:43:45Z</time>
      </trkpt>
      <trkpt lat="43.54811" lon="1.4781">
        <ele>210.277</ele>
        <time>2020-03-25T15:43:51Z</time>
      </trkpt>
      <trkpt lat="43.54807" lon="1.47812">
        <ele>210.038</ele>
        <time>2020-03-25T15:43:56Z</time>
      </trkpt>
      <trkpt lat="43.54801" lon="1.47816">
        <ele>209.793</ele>
        <time>2020-03-25T15:44:01Z</time>
      </trkpt>
      <trkpt lat="43.54796" lon="1.47821">
        <ele>209.501</ele>
        <time>2020-03-25T15:44:07Z</time>
      </trkpt>
      <trkpt lat="43.54792" lon="1.47824">
        <ele>209.275</ele>
        <time>2020-03-25T15:44:12Z</time>
      </trkpt>
      <trkpt lat="43.54787" lon="1.4783">
        <ele>209.035</ele>
        <time>2020-03-25T15:44:18Z</time>
      </trkpt>
      <trkpt lat="43.54782" lon="1.47836">
        <ele>208.86</ele>
        <time>2020-03-25T15:44:23Z</time>
      </trkpt>
      <trkpt lat="43.54777" lon="1.47842">
        <ele>208.704</ele>
        <time>2020-03-25T15:44:29Z</time>
      </trkpt>
      <trkpt lat="43.5477" lon="1.47851">
        <ele>208.549</ele>
        <time>2020-03-25T15:44:34Z</time>
      </trkpt>
      <trkpt lat="43.54765" lon="1.47857">
        <ele>208.441</ele>
        <time>2020-03-25T15:44:39Z</time>
      </trkpt>
      <trkpt lat="43.5476" lon="1.47864">
        <ele>208.346</ele>
        <time>2020-03-25T15:44:45Z</time>
      </trkpt>
      <trkpt lat="43.54757" lon="1.4787">
        <ele>208.268</ele>
        <time>2020-03-25T15:44:51Z</time>
      </trkpt>
      <trkpt lat="43.54754" lon="1.47881">
        <ele>208.192</ele>
        <time>2020-03-25T15:44:57Z</time>
      </trkpt>
      <trkpt lat="43.54756" lon="1.47888">
        <ele>208.145</ele>
        <time>2020-03-25T15:45:02Z</time>
      </trkpt>
      <trkpt lat="43.5476" lon="1.47897">
        <ele>208.113</ele>
        <time>2020-03-25T15:45:07Z</time>
      </trkpt>
      <trkpt lat="43.54763" lon="1.47906">
        <ele>208.079</ele>
        <time>2020-03-25T15:45:13Z</time>
      </trkpt>
      <trkpt lat="43.54767" lon="1.47914">
        <ele>208.065</ele>
        <time>2020-03-25T15:45:18Z</time>
      </trkpt>
      <trkpt lat="43.5477" lon="1.47921">
        <ele>208.059</ele>
        <time>2020-03-25T15:45:23Z</time>
      </trkpt>
      <trkpt lat="43.54771" lon="1.47928">
        <ele>208.061</ele>
        <time>2020-03-25T15:45:29Z</time>
      </trkpt>
      <trkpt lat="43.54773" lon="1.47935">
        <ele>208.07</ele>
        <time>2020-03-25T15:45:35Z</time>
      </trkpt>
      <trkpt lat="43.54775" lon="1.47943">
        <ele>208.084</ele>
        <time>2020-03-25T15:45:41Z</time>
      </trkpt>
      <trkpt lat="43.54778" lon="1.47949">
        <ele>208.099</ele>
        <time>2020-03-25T15:45:46Z</time>
      </trkpt>
      <trkpt lat="43.5478" lon="1.47955">
        <ele>208.115</ele>
        <time>2020-03-25T15:45:51Z</time>
      </trkpt>
      <trkpt lat="43.54783" lon="1.47963">
        <ele>208.139</ele>
        <time>2020-03-25T15:45:57Z</time>
      </trkpt>
      <trkpt lat="43.54786" lon="1.47976">
        <ele>208.17</ele>
        <time>2020-03-25T15:46:03Z</time>
      </trkpt>
      <trkpt lat="43.54788" lon="1.47984">
        <ele>208.2</ele>
        <time>2020-03-25T15:46:08Z</time>
      </trkpt>
      <trkpt lat="43.54789" lon="1.47994">
        <ele>208.243</ele>
        <time>2020-03-25T15:46:14Z</time>
      </trkpt>
      <trkpt lat="43.54791" lon="1.47999">
        <ele>208.282</ele>
        <time>2020-03-25T15:46:20Z</time>
      </trkpt>
      <trkpt lat="43.54796" lon="1.48005">
        <ele>208.327</ele>
        <time>2020-03-25T15:46:26Z</time>
      </trkpt>
      <trkpt lat="43.54797" lon="1.4801">
        <ele>208.361</ele>
        <time>2020-03-25T15:46:31Z</time>
      </trkpt>
      <trkpt lat="43.548" lon="1.4802">
        <ele>208.408</ele>
        <time>2020-03-25T15:46:37Z</time>
      </trkpt>
      <trkpt lat="43.54802" lon="1.48026">
        <ele>208.456</ele>
        <time>2020-03-25T15:46:42Z</time>
      </trkpt>
      <trkpt lat="43.54804" lon="1.48031">
        <ele>208.505</ele>
        <time>2020-03-25T15:46:47Z</time>
      </trkpt>
      <trkpt lat="43.54805" lon="1.48036">
        <ele>208.564</ele>
        <time>2020-03-25T15:46:53Z</time>
      </trkpt>
      <trkpt lat="43.5481" lon="1.48047">
        <ele>208.605</ele>
        <time>2020-03-25T15:46:58Z</time>
      </trkpt>
      <trkpt lat="43.54811" lon="1.48051">
        <ele>208.629</ele>
        <time>2020-03-25T15:47:03Z</time>
      </trkpt>
      <trkpt lat="43.54811" lon="1.48051">
        <ele>208.631</ele>
        <time>2020-03-25T15:47:09Z</time>
      </trkpt>
      <trkpt lat="43.54813" lon="1.48054">
        <ele>208.623</ele>
        <time>2020-03-25T15:47:15Z</time>
      </trkpt>
      <trkpt lat="43.54815" lon="1.48059">
        <ele>208.61</ele>
        <time>2020-03-25T15:47:20Z</time>
      </trkpt>
      <trkpt lat="43.54817" lon="1.48067">
        <ele>208.591</ele>
        <time>2020-03-25T15:47:26Z</time>
      </trkpt>
      <trkpt lat="43.5482" lon="1.48076">
        <ele>208.574</ele>
        <time>2020-03-25T15:47:32Z</time>
      </trkpt>
      <trkpt lat="43.54823" lon="1.48085">
        <ele>208.564</ele>
        <time>2020-03-25T15:47:38Z</time>
      </trkpt>
      <trkpt lat="43.54826" lon="1.48096">
        <ele>208.561</ele>
        <time>2020-03-25T15:47:44Z</time>
      </trkpt>
      <trkpt lat="43.5483" lon="1.48106">
        <ele>208.575</ele>
        <time>2020-03-25T15:47:50Z</time>
      </trkpt>
      <trkpt lat="43.54833" lon="1.48114">
        <ele>208.6</ele>
        <time>2020-03-25T15:47:55Z</time>
      </trkpt>
      <trkpt lat="43.54835" lon="1.48122">
        <ele>208.636</ele>
        <time>2020-03-25T15:48:00Z</time>
      </trkpt>
      <trkpt lat="43.54838" lon="1.48133">
        <ele>208.689</ele>
        <time>2020-03-25T15:48:06Z</time>
      </trkpt>
      <trkpt lat="43.54841" lon="1.48139">
        <ele>208.756</ele>
        <time>2020-03-25T15:48:12Z</time>
      </trkpt>
      <trkpt lat="43.54843" lon="1.48148">
        <ele>208.83</ele>
        <time>2020-03-25T15:48:18Z</time>
      </trkpt>
      <trkpt lat="43.54846" lon="1.48157">
        <ele>208.897</ele>
        <time>2020-03-25T15:48:23Z</time>
      </trkpt>
      <trkpt lat="43.54849" lon="1.48163">
        <ele>208.982</ele>
        <time>2020-03-25T15:48:29Z</time>
      </trkpt>
      <trkpt lat="43.54852" lon="1.48171">
        <ele>209.072</ele>
        <time>2020-03-25T15:48:35Z</time>
      </trkpt>
      <trkpt lat="43.54854" lon="1.4818">
        <ele>209.163</ele>
        <time>2020-03-25T15:48:41Z</time>
      </trkpt>
      <trkpt lat="43.54857" lon="1.48185">
        <ele>209.238</ele>
        <time>2020-03-25T15:48:46Z</time>
      </trkpt>
      <trkpt lat="43.5486" lon="1.48192">
        <ele>209.32</ele>
        <time>2020-03-25T15:48:52Z</time>
      </trkpt>
      <trkpt lat="43.54862" lon="1.48197">
        <ele>209.385</ele>
        <time>2020-03-25T15:48:58Z</time>
      </trkpt>
      <trkpt lat="43.54864" lon="1.48205">
        <ele>209.426</ele>
        <time>2020-03-25T15:49:03Z</time>
      </trkpt>
      <trkpt lat="43.54866" lon="1.48214">
        <ele>209.459</ele>
        <time>2020-03-25T15:49:08Z</time>
      </trkpt>
      <trkpt lat="43.54869" lon="1.48222">
        <ele>209.493</ele>
        <time>2020-03-25T15:49:14Z</time>
      </trkpt>
      <trkpt lat="43.5487" lon="1.48233">
        <ele>209.519</ele>
        <time>2020-03-25T15:49:20Z</time>
      </trkpt>
      <trkpt lat="43.54871" lon="1.4824">
        <ele>209.529</ele>
        <time>2020-03-25T15:49:25Z</time>
      </trkpt>
      <trkpt lat="43.54873" lon="1.48247">
        <ele>209.532</ele>
        <time>2020-03-25T15:49:30Z</time>
      </trkpt>
      <trkpt lat="43.54881" lon="1.48255">
        <ele>209.528</ele>
        <time>2020-03-25T15:49:36Z</time>
      </trkpt>
      <trkpt lat="43.54885" lon="1.48261">
        <ele>209.52</ele>
        <time>2020-03-25T15:49:41Z</time>
      </trkpt>
      <trkpt lat="43.54886" lon="1.48269">
        <ele>209.51</ele>
        <time>2020-03-25T15:49:46Z</time>
      </trkpt>
      <trkpt lat="43.54889" lon="1.48277">
        <ele>209.498</ele>
        <time>2020-03-25T15:49:51Z</time>
      </trkpt>
      <trkpt lat="43.54892" lon="1.48285">
        <ele>209.482</ele>
        <time>2020-03-25T15:49:56Z</time>
      </trkpt>
      <trkpt lat="43.54895" lon="1.48295">
        <ele>209.466</ele>
        <time>2020-03-25T15:50:02Z</time>
      </trkpt>
      <trkpt lat="43.54898" lon="1.48302">
        <ele>209.451</ele>
        <time>2020-03-25T15:50:08Z</time>
      </trkpt>
      <trkpt lat="43.54901" lon="1.48305">
        <ele>209.439</ele>
        <time>2020-03-25T15:50:14Z</time>
      </trkpt>
      <trkpt lat="43.54903" lon="1.48311">
        <ele>209.421</ele>
        <time>2020-03-25T15:50:20Z</time>
      </trkpt>
      <trkpt lat="43.54905" lon="1.48319">
        <ele>209.404</ele>
        <time>2020-03-25T15:50:25Z</time>
      </trkpt>
      <trkpt lat="43.54907" lon="1.48326">
        <ele>209.385</ele>
        <time>2020-03-25T15:50:31Z</time>
      </trkpt>
      <trkpt lat="43.54911" lon="1.48331">
        <ele>209.371</ele>
        <time>2020-03-25T15:50:36Z</time>
      </trkpt>
      <trkpt lat="43.54911" lon="1.48331">
        <ele>209.369</ele>
        <time>2020-03-25T15:50:41Z</time>
      </trkpt>
      <trkpt lat="43.54912" lon="1.48332">
        <ele>209.364</ele>
        <time>2020-03-25T15:50:47Z</time>
      </trkpt>
      <trkpt lat="43.54912" lon="1.48332">
        <ele>209.359</ele>
        <time>2020-03-25T15:50:53Z</time>
      </trkpt>
      <trkpt lat="43.54912" lon="1.48333">
        <ele>209.353</ele>
        <time>2020-03-25T15:50:58Z</time>
      </trkpt>
      <trkpt lat="43.54912" lon="1.48335">
        <ele>209.302</ele>
        <time>2020-03-25T15:51:03Z</time>
      </trkpt>
      <trkpt lat="43.54912" lon="1.48335">
        <ele>209.236</ele>
        <time>2020-03-25T15:51:09Z</time>
      </trkpt>
      <trkpt lat="43.54909" lon="1.48331">
        <ele>209.169</ele>
        <time>2020-03-25T15:51:15Z</time>
      </trkpt>
      <trkpt lat="43.54906" lon="1.48321">
        <ele>209.106</ele>
        <time>2020-03-25T15:51:21Z</time>
      </trkpt>
      <trkpt lat="43.54903" lon="1.48314">
        <ele>209.057</ele>
        <time>2020-03-25T15:51:26Z</time>
      </trkpt>
      <trkpt lat="43.54901" lon="1.48302">
        <ele>209.004</ele>
        <time>2020-03-25T15:51:32Z</time>
      </trkpt>
      <trkpt lat="43.549" lon="1.48299">
        <ele>208.962</ele>
        <time>2020-03-25T15:51:37Z</time>
      </trkpt>
      <trkpt lat="43.549" lon="1.48294">
        <ele>208.914</ele>
        <time>2020-03-25T15:51:43Z</time>
      </trkpt>
      <trkpt lat="43.54898" lon="1.48286">
        <ele>208.872</ele>
        <time>2020-03-25T15:51:48Z</time>
      </trkpt>
      <trkpt lat="43.54892" lon="1.48273">
        <ele>208.821</ele>
        <time>2020-03-25T15:51:54Z</time>
      </trkpt>
      <trkpt lat="43.54888" lon="1.48267">
        <ele>208.771</ele>
        <time>2020-03-25T15:52:00Z</time>
      </trkpt>
      <trkpt lat="43.54885" lon="1.48259">
        <ele>208.728</ele>
        <time>2020-03-25T15:52:06Z</time>
      </trkpt>
      <trkpt lat="43.54883" lon="1.48254">
        <ele>208.696</ele>
        <time>2020-03-25T15:52:11Z</time>
      </trkpt>
      <trkpt lat="43.54881" lon="1.48248">
        <ele>208.651</ele>
        <time>2020-03-25T15:52:17Z</time>
      </trkpt>
      <trkpt lat="43.54878" lon="1.4824">
        <ele>208.598</ele>
        <time>2020-03-25T15:52:23Z</time>
      </trkpt>
      <trkpt lat="43.54875" lon="1.48231">
        <ele>208.538</ele>
        <time>2020-03-25T15:52:29Z</time>
      </trkpt>
      <trkpt lat="43.54875" lon="1.4822">
        <ele>208.474</ele>
        <time>2020-03-25T15:52:35Z</time>
      </trkpt>
      <trkpt lat="43.54873" lon="1.48211">
        <ele>208.423</ele>
        <time>2020-03-25T15:52:40Z</time>
      </trkpt>
      <trkpt lat="43.5487" lon="1.48207">
        <ele>208.371</ele>
        <time>2020-03-25T15:52:45Z</time>
      </trkpt>
      <trkpt lat="43.54866" lon="1.482">
        <ele>208.311</ele>
        <time>2020-03-25T15:52:51Z</time>
      </trkpt>
      <trkpt lat="43.54862" lon="1.48193">
        <ele>208.263</ele>
        <time>2020-03-25T15:52:56Z</time>
      </trkpt>
      <trkpt lat="43.54858" lon="1.48182">
        <ele>208.202</ele>
        <time>2020-03-25T15:53:02Z</time>
      </trkpt>
      <trkpt lat="43.54853" lon="1.48178">
        <ele>208.147</ele>
        <time>2020-03-25T15:53:08Z</time>
      </trkpt>
      <trkpt lat="43.54848" lon="1.48181">
        <ele>208.1</ele>
        <time>2020-03-25T15:53:13Z</time>
      </trkpt>
      <trkpt lat="43.54845" lon="1.48188">
        <ele>208.036</ele>
        <time>2020-03-25T15:53:19Z</time>
      </trkpt>
      <trkpt lat="43.5484" lon="1.48194">
        <ele>207.974</ele>
        <time>2020-03-25T15:53:25Z</time>
      </trkpt>
      <trkpt lat="43.54837" lon="1.482">
        <ele>207.93</ele>
        <time>2020-03-25T15:53:30Z</time>
      </trkpt>
      <trkpt lat="43.54833" lon="1.48207">
        <ele>207.885</ele>
        <time>2020-03-25T15:53:36Z</time>
      </trkpt>
      <trkpt lat="43.54828" lon="1.48211">
        <ele>207.851</ele>
        <time>2020-03-25T15:53:41Z</time>
      </trkpt>
      <trkpt lat="43.54823" lon="1.48217">
        <ele>207.814</ele>
        <time>2020-03-25T15:53:47Z</time>
      </trkpt>
      <trkpt lat="43.54819" lon="1.48222">
        <ele>207.783</ele>
        <time>2020-03-25T15:53:52Z</time>
      </trkpt>
      <trkpt lat="43.54812" lon="1.48227">
        <ele>207.749</ele>
        <time>2020-03-25T15:53:58Z</time>
      </trkpt>
      <trkpt lat="43.54805" lon="1.48234">
        <ele>207.711</ele>
        <time>2020-03-25T15:54:04Z</time>
      </trkpt>
      <trkpt lat="43.54799" lon="1.4824">
        <ele>207.671</ele>
        <time>2020-03-25T15:54:10Z</time>
      </trkpt>
      <trkpt lat="43.54795" lon="1.48243">
        <ele>207.64</ele>
        <time>2020-03-25T15:54:15Z</time>
      </trkpt>
      <trkpt lat="43.5479" lon="1.48248">
        <ele>207.614</ele>
        <time>2020-03-25T15:54:20Z</time>
      </trkpt>
      <trkpt lat="43.54786" lon="1.48255">
        <ele>207.582</ele>
        <time>2020-03-25T15:54:26Z</time>
      </trkpt>
      <trkpt lat="43.54781" lon="1.48262">
        <ele>207.552</ele>
        <time>2020-03-25T15:54:32Z</time>
      </trkpt>
      <trkpt lat="43.54775" lon="1.48269">
        <ele>207.517</ele>
        <time>2020-03-25T15:54:38Z</time>
      </trkpt>
      <trkpt lat="43.54771" lon="1.48275">
        <ele>207.489</ele>
        <time>2020-03-25T15:54:44Z</time>
      </trkpt>
      <trkpt lat="43.54768" lon="1.48278">
        <ele>207.471</ele>
        <time>2020-03-25T15:54:49Z</time>
      </trkpt>
      <trkpt lat="43.54763" lon="1.48282">
        <ele>207.458</ele>
        <time>2020-03-25T15:54:55Z</time>
      </trkpt>
      <trkpt lat="43.54758" lon="1.48285">
        <ele>207.445</ele>
        <time>2020-03-25T15:55:01Z</time>
      </trkpt>
      <trkpt lat="43.54753" lon="1.48288">
        <ele>207.431</ele>
        <time>2020-03-25T15:55:06Z</time>
      </trkpt>
      <trkpt lat="43.54749" lon="1.48292">
        <ele>207.409</ele>
        <time>2020-03-25T15:55:11Z</time>
      </trkpt>
      <trkpt lat="43.54745" lon="1.48295">
        <ele>207.385</ele>
        <time>2020-03-25T15:55:16Z</time>
      </trkpt>
      <trkpt lat="43.54738" lon="1.48298">
        <ele>207.356</ele>
        <time>2020-03-25T15:55:22Z</time>
      </trkpt>
      <trkpt lat="43.5473" lon="1.48295">
        <ele>207.33</ele>
        <time>2020-03-25T15:55:28Z</time>
      </trkpt>
      <trkpt lat="43.54727" lon="1.48293">
        <ele>207.311</ele>
        <time>2020-03-25T15:55:33Z</time>
      </trkpt>
      <trkpt lat="43.54723" lon="1.48291">
        <ele>207.309</ele>
        <time>2020-03-25T15:55:38Z</time>
      </trkpt>
      <trkpt lat="43.54718" lon="1.48289">
        <ele>207.318</ele>
        <time>2020-03-25T15:55:44Z</time>
      </trkpt>
      <trkpt lat="43.54712" lon="1.48286">
        <ele>207.327</ele>
        <time>2020-03-25T15:55:50Z</time>
      </trkpt>
      <trkpt lat="43.54707" lon="1.48284">
        <ele>207.334</ele>
        <time>2020-03-25T15:55:56Z</time>
      </trkpt>
      <trkpt lat="43.547" lon="1.48282">
        <ele>207.336</ele>
        <time>2020-03-25T15:56:01Z</time>
      </trkpt>
      <trkpt lat="43.54692" lon="1.48275">
        <ele>207.343</ele>
        <time>2020-03-25T15:56:07Z</time>
      </trkpt>
      <trkpt lat="43.54688" lon="1.48274">
        <ele>207.346</ele>
        <time>2020-03-25T15:56:12Z</time>
      </trkpt>
      <trkpt lat="43.5468" lon="1.48273">
        <ele>207.351</ele>
        <time>2020-03-25T15:56:17Z</time>
      </trkpt>
      <trkpt lat="43.54674" lon="1.48272">
        <ele>207.353</ele>
        <time>2020-03-25T15:56:23Z</time>
      </trkpt>
      <trkpt lat="43.5467" lon="1.48271">
        <ele>207.351</ele>
        <time>2020-03-25T15:56:29Z</time>
      </trkpt>
      <trkpt lat="43.54666" lon="1.48269">
        <ele>207.347</ele>
        <time>2020-03-25T15:56:35Z</time>
      </trkpt>
      <trkpt lat="43.54658" lon="1.48269">
        <ele>207.345</ele>
        <time>2020-03-25T15:56:41Z</time>
      </trkpt>
      <trkpt lat="43.54652" lon="1.48266">
        <ele>207.342</ele>
        <time>2020-03-25T15:56:47Z</time>
      </trkpt>
      <trkpt lat="43.54644" lon="1.48265">
        <ele>207.34</ele>
        <time>2020-03-25T15:56:53Z</time>
      </trkpt>
      <trkpt lat="43.54636" lon="1.48263">
        <ele>207.337</ele>
        <time>2020-03-25T15:56:59Z</time>
      </trkpt>
      <trkpt lat="43.54626" lon="1.48261">
        <ele>207.334</ele>
        <time>2020-03-25T15:57:04Z</time>
      </trkpt>
      <trkpt lat="43.54616" lon="1.48259">
        <ele>207.326</ele>
        <time>2020-03-25T15:57:10Z</time>
      </trkpt>
      <trkpt lat="43.54611" lon="1.48259">
        <ele>207.318</ele>
        <time>2020-03-25T15:57:15Z</time>
      </trkpt>
      <trkpt lat="43.54609" lon="1.48261">
        <ele>207.31</ele>
        <time>2020-03-25T15:57:21Z</time>
      </trkpt>
      <trkpt lat="43.54603" lon="1.48257">
        <ele>207.302</ele>
        <time>2020-03-25T15:57:27Z</time>
      </trkpt>
      <trkpt lat="43.54597" lon="1.48256">
        <ele>207.293</ele>
        <time>2020-03-25T15:57:33Z</time>
      </trkpt>
      <trkpt lat="43.5459" lon="1.48255">
        <ele>207.285</ele>
        <time>2020-03-25T15:57:39Z</time>
      </trkpt>
      <trkpt lat="43.54583" lon="1.4825">
        <ele>207.276</ele>
        <time>2020-03-25T15:57:45Z</time>
      </trkpt>
      <trkpt lat="43.54574" lon="1.48247">
        <ele>207.263</ele>
        <time>2020-03-25T15:57:51Z</time>
      </trkpt>
      <trkpt lat="43.5457" lon="1.48245">
        <ele>207.244</ele>
        <time>2020-03-25T15:57:57Z</time>
      </trkpt>
      <trkpt lat="43.54567" lon="1.48245">
        <ele>207.221</ele>
        <time>2020-03-25T15:58:02Z</time>
      </trkpt>
      <trkpt lat="43.54565" lon="1.48251">
        <ele>207.184</ele>
        <time>2020-03-25T15:58:08Z</time>
      </trkpt>
      <trkpt lat="43.54558" lon="1.48247">
        <ele>207.122</ele>
        <time>2020-03-25T15:58:14Z</time>
      </trkpt>
      <trkpt lat="43.54548" lon="1.48245">
        <ele>207.057</ele>
        <time>2020-03-25T15:58:20Z</time>
      </trkpt>
      <trkpt lat="43.54541" lon="1.48244">
        <ele>207.003</ele>
        <time>2020-03-25T15:58:25Z</time>
      </trkpt>
      <trkpt lat="43.54535" lon="1.4824">
        <ele>206.937</ele>
        <time>2020-03-25T15:58:31Z</time>
      </trkpt>
      <trkpt lat="43.5453" lon="1.48236">
        <ele>206.88</ele>
        <time>2020-03-25T15:58:36Z</time>
      </trkpt>
      <trkpt lat="43.54524" lon="1.4823">
        <ele>206.81</ele>
        <time>2020-03-25T15:58:42Z</time>
      </trkpt>
      <trkpt lat="43.5452" lon="1.48225">
        <ele>206.736</ele>
        <time>2020-03-25T15:58:48Z</time>
      </trkpt>
      <trkpt lat="43.54514" lon="1.48219">
        <ele>206.671</ele>
        <time>2020-03-25T15:58:53Z</time>
      </trkpt>
      <trkpt lat="43.54507" lon="1.48215">
        <ele>206.59</ele>
        <time>2020-03-25T15:58:59Z</time>
      </trkpt>
      <trkpt lat="43.54501" lon="1.48213">
        <ele>206.503</ele>
        <time>2020-03-25T15:59:05Z</time>
      </trkpt>
      <trkpt lat="43.54495" lon="1.48212">
        <ele>206.43</ele>
        <time>2020-03-25T15:59:10Z</time>
      </trkpt>
      <trkpt lat="43.54487" lon="1.48213">
        <ele>206.363</ele>
        <time>2020-03-25T15:59:16Z</time>
      </trkpt>
      <trkpt lat="43.54486" lon="1.48213">
        <ele>206.359</ele>
        <time>2020-03-25T15:59:22Z</time>
      </trkpt>
      <trkpt lat="43.54486" lon="1.48213">
        <ele>206.356</ele>
        <time>2020-03-25T15:59:28Z</time>
      </trkpt>
      <trkpt lat="43.54485" lon="1.48212">
        <ele>206.354</ele>
        <time>2020-03-25T15:59:34Z</time>
      </trkpt>
      <trkpt lat="43.54485" lon="1.48212">
        <ele>206.354</ele>
        <time>2020-03-25T15:59:39Z</time>
      </trkpt>
      <trkpt lat="43.54484" lon="1.48212">
        <ele>206.36</ele>
        <time>2020-03-25T15:59:44Z</time>
      </trkpt>
      <trkpt lat="43.54484" lon="1.48212">
        <ele>206.363</ele>
        <time>2020-03-25T15:59:50Z</time>
      </trkpt>
      <trkpt lat="43.54484" lon="1.48212">
        <ele>206.367</ele>
        <time>2020-03-25T15:59:55Z</time>
      </trkpt>
      <trkpt lat="43.54483" lon="1.48211">
        <ele>206.385</ele>
        <time>2020-03-25T16:00:01Z</time>
      </trkpt>
      <trkpt lat="43.54482" lon="1.48209">
        <ele>206.425</ele>
        <time>2020-03-25T16:00:07Z</time>
      </trkpt>
      <trkpt lat="43.54483" lon="1.48206">
        <ele>206.439</ele>
        <time>2020-03-25T16:00:12Z</time>
      </trkpt>
      <trkpt lat="43.54483" lon="1.48202">
        <ele>206.47</ele>
        <time>2020-03-25T16:00:18Z</time>
      </trkpt>
      <trkpt lat="43.54483" lon="1.48203">
        <ele>206.482</ele>
        <time>2020-03-25T16:00:23Z</time>
      </trkpt>
      <trkpt lat="43.54483" lon="1.48204">
        <ele>206.499</ele>
        <time>2020-03-25T16:00:28Z</time>
      </trkpt>
      <trkpt lat="43.54482" lon="1.48204">
        <ele>206.502</ele>
        <time>2020-03-25T16:00:33Z</time>
      </trkpt>
      <trkpt lat="43.54482" lon="1.48203">
        <ele>206.506</ele>
        <time>2020-03-25T16:00:39Z</time>
      </trkpt>
      <trkpt lat="43.54482" lon="1.48203">
        <ele>206.51</ele>
        <time>2020-03-25T16:00:44Z</time>
      </trkpt>
      <trkpt lat="43.54482" lon="1.48203">
        <ele>206.516</ele>
        <time>2020-03-25T16:00:50Z</time>
      </trkpt>
      <trkpt lat="43.54482" lon="1.48203">
        <ele>206.521</ele>
        <time>2020-03-25T16:00:55Z</time>
      </trkpt>
      <trkpt lat="43.54482" lon="1.48202">
        <ele>206.567</ele>
        <time>2020-03-25T16:01:01Z</time>
      </trkpt>
      <trkpt lat="43.54482" lon="1.48201">
        <ele>206.589</ele>
        <time>2020-03-25T16:01:06Z</time>
      </trkpt>
      <trkpt lat="43.54482" lon="1.48201">
        <ele>206.629</ele>
        <time>2020-03-25T16:01:12Z</time>
      </trkpt>
      <trkpt lat="43.54482" lon="1.48201">
        <ele>206.643</ele>
        <time>2020-03-25T16:01:18Z</time>
      </trkpt>
      <trkpt lat="43.54482" lon="1.48202">
        <ele>206.647</ele>
        <time>2020-03-25T16:01:23Z</time>
      </trkpt>
      <trkpt lat="43.54481" lon="1.48202">
        <ele>206.652</ele>
        <time>2020-03-25T16:01:29Z</time>
      </trkpt>
      <trkpt lat="43.54481" lon="1.48203">
        <ele>206.656</ele>
        <time>2020-03-25T16:01:34Z</time>
      </trkpt>
      <trkpt lat="43.54482" lon="1.48203">
        <ele>206.689</ele>
        <time>2020-03-25T16:01:39Z</time>
      </trkpt>
      <trkpt lat="43.54482" lon="1.48201">
        <ele>206.711</ele>
        <time>2020-03-25T16:01:45Z</time>
      </trkpt>
      <trkpt lat="43.54482" lon="1.482">
        <ele>206.731</ele>
        <time>2020-03-25T16:01:51Z</time>
      </trkpt>
      <trkpt lat="43.54482" lon="1.48199">
        <ele>206.749</ele>
        <time>2020-03-25T16:01:56Z</time>
      </trkpt>
      <trkpt lat="43.54482" lon="1.48198">
        <ele>206.76</ele>
        <time>2020-03-25T16:02:02Z</time>
      </trkpt>
      <trkpt lat="43.54484" lon="1.48198">
        <ele>206.777</ele>
        <time>2020-03-25T16:02:07Z</time>
      </trkpt>
      <trkpt lat="43.54486" lon="1.482">
        <ele>206.82</ele>
        <time>2020-03-25T16:02:13Z</time>
      </trkpt>
      <trkpt lat="43.54484" lon="1.48202">
        <ele>206.849</ele>
        <time>2020-03-25T16:02:18Z</time>
      </trkpt>
      <trkpt lat="43.54479" lon="1.48199">
        <ele>206.876</ele>
        <time>2020-03-25T16:02:24Z</time>
      </trkpt>
      <trkpt lat="43.54476" lon="1.48197">
        <ele>206.89</ele>
        <time>2020-03-25T16:02:29Z</time>
      </trkpt>
      <trkpt lat="43.54472" lon="1.48196">
        <ele>206.894</ele>
        <time>2020-03-25T16:02:35Z</time>
      </trkpt>
      <trkpt lat="43.54466" lon="1.48192">
        <ele>206.889</ele>
        <time>2020-03-25T16:02:40Z</time>
      </trkpt>
      <trkpt lat="43.5446" lon="1.48189">
        <ele>206.873</ele>
        <time>2020-03-25T16:02:46Z</time>
      </trkpt>
      <trkpt lat="43.54454" lon="1.48187">
        <ele>206.851</ele>
        <time>2020-03-25T16:02:51Z</time>
      </trkpt>
      <trkpt lat="43.54449" lon="1.48186">
        <ele>206.826</ele>
        <time>2020-03-25T16:02:56Z</time>
      </trkpt>
      <trkpt lat="43.54446" lon="1.48183">
        <ele>206.801</ele>
        <time>2020-03-25T16:03:01Z</time>
      </trkpt>
      <trkpt lat="43.5444" lon="1.4818">
        <ele>206.77</ele>
        <time>2020-03-25T16:03:07Z</time>
      </trkpt>
      <trkpt lat="43.54438" lon="1.48177">
        <ele>206.737</ele>
        <time>2020-03-25T16:03:13Z</time>
      </trkpt>
      <trkpt lat="43.54434" lon="1.48172">
        <ele>206.706</ele>
        <time>2020-03-25T16:03:19Z</time>
      </trkpt>
      <trkpt lat="43.54432" lon="1.48168">
        <ele>206.684</ele>
        <time>2020-03-25T16:03:24Z</time>
      </trkpt>
      <trkpt lat="43.54428" lon="1.48165">
        <ele>206.658</ele>
        <time>2020-03-25T16:03:30Z</time>
      </trkpt>
      <trkpt lat="43.5442" lon="1.48165">
        <ele>206.634</ele>
        <time>2020-03-25T16:03:36Z</time>
      </trkpt>
      <trkpt lat="43.54414" lon="1.48162">
        <ele>206.612</ele>
        <time>2020-03-25T16:03:41Z</time>
      </trkpt>
      <trkpt lat="43.5441" lon="1.48154">
        <ele>206.586</ele>
        <time>2020-03-25T16:03:47Z</time>
      </trkpt>
      <trkpt lat="43.54401" lon="1.48153">
        <ele>206.564</ele>
        <time>2020-03-25T16:03:52Z</time>
      </trkpt>
      <trkpt lat="43.54393" lon="1.48151">
        <ele>206.544</ele>
        <time>2020-03-25T16:03:57Z</time>
      </trkpt>
      <trkpt lat="43.54384" lon="1.48147">
        <ele>206.523</ele>
        <time>2020-03-25T16:04:03Z</time>
      </trkpt>
      <trkpt lat="43.54372" lon="1.48145">
        <ele>206.499</ele>
        <time>2020-03-25T16:04:09Z</time>
      </trkpt>
      <trkpt lat="43.54364" lon="1.48147">
        <ele>206.481</ele>
        <time>2020-03-25T16:04:15Z</time>
      </trkpt>
      <trkpt lat="43.54359" lon="1.48149">
        <ele>206.462</ele>
        <time>2020-03-25T16:04:20Z</time>
      </trkpt>
      <trkpt lat="43.54352" lon="1.48152">
        <ele>206.438</ele>
        <time>2020-03-25T16:04:25Z</time>
      </trkpt>
      <trkpt lat="43.54346" lon="1.48155">
        <ele>206.407</ele>
        <time>2020-03-25T16:04:31Z</time>
      </trkpt>
      <trkpt lat="43.54338" lon="1.48158">
        <ele>206.368</ele>
        <time>2020-03-25T16:04:37Z</time>
      </trkpt>
      <trkpt lat="43.54333" lon="1.48161">
        <ele>206.325</ele>
        <time>2020-03-25T16:04:43Z</time>
      </trkpt>
      <trkpt lat="43.54329" lon="1.48167">
        <ele>206.276</ele>
        <time>2020-03-25T16:04:49Z</time>
      </trkpt>
      <trkpt lat="43.54324" lon="1.48171">
        <ele>206.226</ele>
        <time>2020-03-25T16:04:55Z</time>
      </trkpt>
      <trkpt lat="43.54319" lon="1.48175">
        <ele>206.177</ele>
        <time>2020-03-25T16:05:01Z</time>
      </trkpt>
      <trkpt lat="43.54313" lon="1.48178">
        <ele>206.137</ele>
        <time>2020-03-25T16:05:07Z</time>
      </trkpt>
      <trkpt lat="43.54308" lon="1.48182">
        <ele>206.108</ele>
        <time>2020-03-25T16:05:13Z</time>
      </trkpt>
      <trkpt lat="43.54303" lon="1.48186">
        <ele>206.096</ele>
        <time>2020-03-25T16:05:18Z</time>
      </trkpt>
      <trkpt lat="43.54299" lon="1.4819">
        <ele>206.097</ele>
        <time>2020-03-25T16:05:24Z</time>
      </trkpt>
      <trkpt lat="43.54292" lon="1.48196">
        <ele>206.103</ele>
        <time>2020-03-25T16:05:30Z</time>
      </trkpt>
      <trkpt lat="43.54287" lon="1.482">
        <ele>206.107</ele>
        <time>2020-03-25T16:05:36Z</time>
      </trkpt>
      <trkpt lat="43.54283" lon="1.48204">
        <ele>206.11</ele>
        <time>2020-03-25T16:05:41Z</time>
      </trkpt>
      <trkpt lat="43.54278" lon="1.48211">
        <ele>206.117</ele>
        <time>2020-03-25T16:05:47Z</time>
      </trkpt>
      <trkpt lat="43.54272" lon="1.48217">
        <ele>206.128</ele>
        <time>2020-03-25T16:05:53Z</time>
      </trkpt>
      <trkpt lat="43.54268" lon="1.4822">
        <ele>206.137</ele>
        <time>2020-03-25T16:05:58Z</time>
      </trkpt>
      <trkpt lat="43.54263" lon="1.48224">
        <ele>206.148</ele>
        <time>2020-03-25T16:06:04Z</time>
      </trkpt>
      <trkpt lat="43.5426" lon="1.48229">
        <ele>206.153</ele>
        <time>2020-03-25T16:06:09Z</time>
      </trkpt>
      <trkpt lat="43.54254" lon="1.48235">
        <ele>206.154</ele>
        <time>2020-03-25T16:06:15Z</time>
      </trkpt>
      <trkpt lat="43.54248" lon="1.48239">
        <ele>206.155</ele>
        <time>2020-03-25T16:06:21Z</time>
      </trkpt>
      <trkpt lat="43.54241" lon="1.48243">
        <ele>206.158</ele>
        <time>2020-03-25T16:06:27Z</time>
      </trkpt>
      <trkpt lat="43.54234" lon="1.48248">
        <ele>206.162</ele>
        <time>2020-03-25T16:06:33Z</time>
      </trkpt>
      <trkpt lat="43.54229" lon="1.48253">
        <ele>206.165</ele>
        <time>2020-03-25T16:06:39Z</time>
      </trkpt>
      <trkpt lat="43.54225" lon="1.48257">
        <ele>206.163</ele>
        <time>2020-03-25T16:06:44Z</time>
      </trkpt>
      <trkpt lat="43.5422" lon="1.48261">
        <ele>206.156</ele>
        <time>2020-03-25T16:06:50Z</time>
      </trkpt>
      <trkpt lat="43.54214" lon="1.48266">
        <ele>206.147</ele>
        <time>2020-03-25T16:06:56Z</time>
      </trkpt>
      <trkpt lat="43.54209" lon="1.48268">
        <ele>206.141</ele>
        <time>2020-03-25T16:07:01Z</time>
      </trkpt>
      <trkpt lat="43.54203" lon="1.48276">
        <ele>206.138</ele>
        <time>2020-03-25T16:07:07Z</time>
      </trkpt>
      <trkpt lat="43.54199" lon="1.4828">
        <ele>206.138</ele>
        <time>2020-03-25T16:07:12Z</time>
      </trkpt>
      <trkpt lat="43.54194" lon="1.48279">
        <ele>206.144</ele>
        <time>2020-03-25T16:07:18Z</time>
      </trkpt>
      <trkpt lat="43.5419" lon="1.48279">
        <ele>206.151</ele>
        <time>2020-03-25T16:07:23Z</time>
      </trkpt>
      <trkpt lat="43.54186" lon="1.48278">
        <ele>206.167</ele>
        <time>2020-03-25T16:07:29Z</time>
      </trkpt>
      <trkpt lat="43.54183" lon="1.48277">
        <ele>206.183</ele>
        <time>2020-03-25T16:07:34Z</time>
      </trkpt>
      <trkpt lat="43.5418" lon="1.48275">
        <ele>206.206</ele>
        <time>2020-03-25T16:07:40Z</time>
      </trkpt>
      <trkpt lat="43.54172" lon="1.48276">
        <ele>206.23</ele>
        <time>2020-03-25T16:07:46Z</time>
      </trkpt>
      <trkpt lat="43.54168" lon="1.48276">
        <ele>206.253</ele>
        <time>2020-03-25T16:07:51Z</time>
      </trkpt>
      <trkpt lat="43.54161" lon="1.4827">
        <ele>206.284</ele>
        <time>2020-03-25T16:07:57Z</time>
      </trkpt>
      <trkpt lat="43.54156" lon="1.48265">
        <ele>206.325</ele>
        <time>2020-03-25T16:08:03Z</time>
      </trkpt>
      <trkpt lat="43.54153" lon="1.48259">
        <ele>206.367</ele>
        <time>2020-03-25T16:08:09Z</time>
      </trkpt>
      <trkpt lat="43.54146" lon="1.48255">
        <ele>206.415</ele>
        <time>2020-03-25T16:08:15Z</time>
      </trkpt>
      <trkpt lat="43.54142" lon="1.48252">
        <ele>206.466</ele>
        <time>2020-03-25T16:08:20Z</time>
      </trkpt>
      <trkpt lat="43.54138" lon="1.48247">
        <ele>206.527</ele>
        <time>2020-03-25T16:08:26Z</time>
      </trkpt>
      <trkpt lat="43.54137" lon="1.48245">
        <ele>206.585</ele>
        <time>2020-03-25T16:08:32Z</time>
      </trkpt>
      <trkpt lat="43.54135" lon="1.48238">
        <ele>206.647</ele>
        <time>2020-03-25T16:08:38Z</time>
      </trkpt>
      <trkpt lat="43.54136" lon="1.48233">
        <ele>206.699</ele>
        <time>2020-03-25T16:08:43Z</time>
      </trkpt>
      <trkpt lat="43.54138" lon="1.48228">
        <ele>206.767</ele>
        <time>2020-03-25T16:08:49Z</time>
      </trkpt>
      <trkpt lat="43.54135" lon="1.48222">
        <ele>206.824</ele>
        <time>2020-03-25T16:08:54Z</time>
      </trkpt>
      <trkpt lat="43.54133" lon="1.48217">
        <ele>206.887</ele>
        <time>2020-03-25T16:09:00Z</time>
      </trkpt>
      <trkpt lat="43.54132" lon="1.48207">
        <ele>206.942</ele>
        <time>2020-03-25T16:09:06Z</time>
      </trkpt>
      <trkpt lat="43.5413" lon="1.48201">
        <ele>206.985</ele>
        <time>2020-03-25T16:09:11Z</time>
      </trkpt>
      <trkpt lat="43.54131" lon="1.48192">
        <ele>207.025</ele>
        <time>2020-03-25T16:09:16Z</time>
      </trkpt>
      <trkpt lat="43.54123" lon="1.48173">
        <ele>207.375</ele>
        <time>2020-03-25T16:09:31Z</time>
      </trkpt>
      <trkpt lat="43.54125" lon="1.48156">
        <ele>207.38</ele>
        <time>2020-03-25T16:09:36Z</time>
      </trkpt>
      <trkpt lat="43.54129" lon="1.48152">
        <ele>207.386</ele>
        <time>2020-03-25T16:09:41Z</time>
      </trkpt>
      <trkpt lat="43.54129" lon="1.48146">
        <ele>207.399</ele>
        <time>2020-03-25T16:09:47Z</time>
      </trkpt>
      <trkpt lat="43.54129" lon="1.48144">
        <ele>207.411</ele>
        <time>2020-03-25T16:09:52Z</time>
      </trkpt>
      <trkpt lat="43.54128" lon="1.4814">
        <ele>207.417</ele>
        <time>2020-03-25T16:09:57Z</time>
      </trkpt>
      <trkpt lat="43.54127" lon="1.48131">
        <ele>207.418</ele>
        <time>2020-03-25T16:10:03Z</time>
      </trkpt>
      <trkpt lat="43.54125" lon="1.4812">
        <ele>207.412</ele>
        <time>2020-03-25T16:10:09Z</time>
      </trkpt>
      <trkpt lat="43.54124" lon="1.48112">
        <ele>207.405</ele>
        <time>2020-03-25T16:10:14Z</time>
      </trkpt>
      <trkpt lat="43.54122" lon="1.48104">
        <ele>207.403</ele>
        <time>2020-03-25T16:10:19Z</time>
      </trkpt>
      <trkpt lat="43.54121" lon="1.481">
        <ele>207.402</ele>
        <time>2020-03-25T16:10:25Z</time>
      </trkpt>
      <trkpt lat="43.54119" lon="1.48094">
        <ele>207.488</ele>
        <time>2020-03-25T16:10:31Z</time>
      </trkpt>
      <trkpt lat="43.54117" lon="1.48087">
        <ele>207.579</ele>
        <time>2020-03-25T16:10:36Z</time>
      </trkpt>
      <trkpt lat="43.54115" lon="1.48078">
        <ele>207.684</ele>
        <time>2020-03-25T16:10:42Z</time>
      </trkpt>
      <trkpt lat="43.54113" lon="1.48071">
        <ele>207.773</ele>
        <time>2020-03-25T16:10:47Z</time>
      </trkpt>
      <trkpt lat="43.5411" lon="1.48065">
        <ele>207.869</ele>
        <time>2020-03-25T16:10:53Z</time>
      </trkpt>
      <trkpt lat="43.54108" lon="1.48058">
        <ele>207.954</ele>
        <time>2020-03-25T16:10:59Z</time>
      </trkpt>
      <trkpt lat="43.54106" lon="1.48049">
        <ele>208.041</ele>
        <time>2020-03-25T16:11:05Z</time>
      </trkpt>
      <trkpt lat="43.54104" lon="1.48041">
        <ele>208.14</ele>
        <time>2020-03-25T16:11:11Z</time>
      </trkpt>
      <trkpt lat="43.54101" lon="1.48033">
        <ele>208.231</ele>
        <time>2020-03-25T16:11:16Z</time>
      </trkpt>
      <trkpt lat="43.54096" lon="1.48025">
        <ele>208.358</ele>
        <time>2020-03-25T16:11:22Z</time>
      </trkpt>
      <trkpt lat="43.54091" lon="1.48019">
        <ele>208.494</ele>
        <time>2020-03-25T16:11:28Z</time>
      </trkpt>
      <trkpt lat="43.5409" lon="1.48012">
        <ele>208.615</ele>
        <time>2020-03-25T16:11:34Z</time>
      </trkpt>
      <trkpt lat="43.5409" lon="1.4801">
        <ele>208.711</ele>
        <time>2020-03-25T16:11:39Z</time>
      </trkpt>
      <trkpt lat="43.54091" lon="1.48004">
        <ele>208.871</ele>
        <time>2020-03-25T16:11:45Z</time>
      </trkpt>
      <trkpt lat="43.54094" lon="1.47997">
        <ele>209.066</ele>
        <time>2020-03-25T16:11:51Z</time>
      </trkpt>
      <trkpt lat="43.54096" lon="1.47988">
        <ele>209.27</ele>
        <time>2020-03-25T16:11:57Z</time>
      </trkpt>
      <trkpt lat="43.54101" lon="1.47985">
        <ele>209.48</ele>
        <time>2020-03-25T16:12:03Z</time>
      </trkpt>
      <trkpt lat="43.54107" lon="1.47984">
        <ele>209.697</ele>
        <time>2020-03-25T16:12:09Z</time>
      </trkpt>
      <trkpt lat="43.54112" lon="1.47981">
        <ele>209.898</ele>
        <time>2020-03-25T16:12:14Z</time>
      </trkpt>
      <trkpt lat="43.54115" lon="1.47976">
        <ele>210.161</ele>
        <time>2020-03-25T16:12:20Z</time>
      </trkpt>
      <trkpt lat="43.54119" lon="1.47972">
        <ele>210.422</ele>
        <time>2020-03-25T16:12:26Z</time>
      </trkpt>
      <trkpt lat="43.54123" lon="1.4797">
        <ele>210.639</ele>
        <time>2020-03-25T16:12:32Z</time>
      </trkpt>
      <trkpt lat="43.54125" lon="1.47969">
        <ele>210.771</ele>
        <time>2020-03-25T16:12:37Z</time>
      </trkpt>
      <trkpt lat="43.54128" lon="1.47972">
        <ele>210.927</ele>
        <time>2020-03-25T16:12:42Z</time>
      </trkpt>
      <trkpt lat="43.54132" lon="1.47973">
        <ele>211.098</ele>
        <time>2020-03-25T16:12:47Z</time>
      </trkpt>
      <trkpt lat="43.54137" lon="1.4797">
        <ele>211.258</ele>
        <time>2020-03-25T16:12:53Z</time>
      </trkpt>
      <trkpt lat="43.54148" lon="1.47972">
        <ele>211.399</ele>
        <time>2020-03-25T16:12:58Z</time>
      </trkpt>
      <trkpt lat="43.54163" lon="1.47968">
        <ele>211.535</ele>
        <time>2020-03-25T16:13:04Z</time>
      </trkpt>
      <trkpt lat="43.54167" lon="1.47964">
        <ele>211.662</ele>
        <time>2020-03-25T16:13:09Z</time>
      </trkpt>
      <trkpt lat="43.54173" lon="1.47963">
        <ele>211.807</ele>
        <time>2020-03-25T16:13:15Z</time>
      </trkpt>
      <trkpt lat="43.54179" lon="1.47964">
        <ele>211.918</ele>
        <time>2020-03-25T16:13:20Z</time>
      </trkpt>
      <trkpt lat="43.54183" lon="1.47962">
        <ele>212.022</ele>
        <time>2020-03-25T16:13:26Z</time>
      </trkpt>
      <trkpt lat="43.54183" lon="1.47957">
        <ele>212.1</ele>
        <time>2020-03-25T16:13:31Z</time>
      </trkpt>
      <trkpt lat="43.54185" lon="1.4795">
        <ele>212.197</ele>
        <time>2020-03-25T16:13:37Z</time>
      </trkpt>
      <trkpt lat="43.54189" lon="1.47944">
        <ele>212.327</ele>
        <time>2020-03-25T16:13:42Z</time>
      </trkpt>
      <trkpt lat="43.54193" lon="1.47943">
        <ele>212.458</ele>
        <time>2020-03-25T16:13:48Z</time>
      </trkpt>
      <trkpt lat="43.54196" lon="1.47941">
        <ele>212.565</ele>
        <time>2020-03-25T16:13:54Z</time>
      </trkpt>
      <trkpt lat="43.54195" lon="1.47942">
        <ele>212.576</ele>
        <time>2020-03-25T16:13:59Z</time>
      </trkpt>
      <trkpt lat="43.54196" lon="1.47941">
        <ele>212.589</ele>
        <time>2020-03-25T16:14:05Z</time>
      </trkpt>
      <trkpt lat="43.54196" lon="1.47941">
        <ele>212.644</ele>
        <time>2020-03-25T16:14:10Z</time>
      </trkpt>
      <trkpt lat="43.54202" lon="1.4794">
        <ele>212.777</ele>
        <time>2020-03-25T16:14:16Z</time>
      </trkpt>
      <trkpt lat="43.54207" lon="1.4794">
        <ele>212.874</ele>
        <time>2020-03-25T16:14:21Z</time>
      </trkpt>
      <trkpt lat="43.54213" lon="1.47946">
        <ele>212.958</ele>
        <time>2020-03-25T16:14:26Z</time>
      </trkpt>
      <trkpt lat="43.54216" lon="1.47949">
        <ele>213.04</ele>
        <time>2020-03-25T16:14:32Z</time>
      </trkpt>
      <trkpt lat="43.54218" lon="1.4795">
        <ele>213.087</ele>
        <time>2020-03-25T16:14:38Z</time>
      </trkpt>
      <trkpt lat="43.54219" lon="1.4795">
        <ele>213.121</ele>
        <time>2020-03-25T16:14:44Z</time>
      </trkpt>
      <trkpt lat="43.54227" lon="1.47948">
        <ele>213.141</ele>
        <time>2020-03-25T16:14:49Z</time>
      </trkpt>
      <trkpt lat="43.54231" lon="1.47945">
        <ele>213.151</ele>
        <time>2020-03-25T16:14:55Z</time>
      </trkpt>
      <trkpt lat="43.54239" lon="1.47944">
        <ele>213.147</ele>
        <time>2020-03-25T16:15:01Z</time>
      </trkpt>
      <trkpt lat="43.54243" lon="1.47942">
        <ele>213.139</ele>
        <time>2020-03-25T16:15:07Z</time>
      </trkpt>
      <trkpt lat="43.54248" lon="1.47938">
        <ele>213.128</ele>
        <time>2020-03-25T16:15:13Z</time>
      </trkpt>
      <trkpt lat="43.54253" lon="1.47935">
        <ele>213.111</ele>
        <time>2020-03-25T16:15:19Z</time>
      </trkpt>
      <trkpt lat="43.54257" lon="1.47942">
        <ele>213.088</ele>
        <time>2020-03-25T16:15:24Z</time>
      </trkpt>
      <trkpt lat="43.54265" lon="1.47943">
        <ele>213.067</ele>
        <time>2020-03-25T16:15:30Z</time>
      </trkpt>
      <trkpt lat="43.54272" lon="1.47945">
        <ele>213.043</ele>
        <time>2020-03-25T16:15:35Z</time>
      </trkpt>
      <trkpt lat="43.54278" lon="1.47945">
        <ele>213.012</ele>
        <time>2020-03-25T16:15:41Z</time>
      </trkpt>
      <trkpt lat="43.54283" lon="1.47943">
        <ele>212.982</ele>
        <time>2020-03-25T16:15:47Z</time>
      </trkpt>
      <trkpt lat="43.54287" lon="1.47943">
        <ele>212.957</ele>
        <time>2020-03-25T16:15:52Z</time>
      </trkpt>
      <trkpt lat="43.54293" lon="1.47939">
        <ele>212.928</ele>
        <time>2020-03-25T16:15:57Z</time>
      </trkpt>
      <trkpt lat="43.54299" lon="1.47936">
        <ele>212.89</ele>
        <time>2020-03-25T16:16:03Z</time>
      </trkpt>
      <trkpt lat="43.54301" lon="1.47937">
        <ele>212.861</ele>
        <time>2020-03-25T16:16:09Z</time>
      </trkpt>
      <trkpt lat="43.54309" lon="1.47934">
        <ele>212.83</ele>
        <time>2020-03-25T16:16:15Z</time>
      </trkpt>
      <trkpt lat="43.54324" lon="1.47936">
        <ele>212.807</ele>
        <time>2020-03-25T16:16:21Z</time>
      </trkpt>
      <trkpt lat="43.54337" lon="1.47938">
        <ele>212.79</ele>
        <time>2020-03-25T16:16:27Z</time>
      </trkpt>
      <trkpt lat="43.54343" lon="1.47939">
        <ele>212.774</ele>
        <time>2020-03-25T16:16:33Z</time>
      </trkpt>
      <trkpt lat="43.54349" lon="1.47929">
        <ele>212.764</ele>
        <time>2020-03-25T16:16:39Z</time>
      </trkpt>
      <trkpt lat="43.54353" lon="1.47924">
        <ele>212.767</ele>
        <time>2020-03-25T16:16:44Z</time>
      </trkpt>
      <trkpt lat="43.54361" lon="1.4792">
        <ele>212.777</ele>
        <time>2020-03-25T16:16:50Z</time>
      </trkpt>
      <trkpt lat="43.54364" lon="1.47918">
        <ele>212.799</ele>
        <time>2020-03-25T16:16:56Z</time>
      </trkpt>
      <trkpt lat="43.54365" lon="1.47918">
        <ele>212.818</ele>
        <time>2020-03-25T16:17:01Z</time>
      </trkpt>
      <trkpt lat="43.5437" lon="1.47918">
        <ele>212.837</ele>
        <time>2020-03-25T16:17:07Z</time>
      </trkpt>
      <trkpt lat="43.54376" lon="1.47915">
        <ele>212.867</ele>
        <time>2020-03-25T16:17:12Z</time>
      </trkpt>
      <trkpt lat="43.54384" lon="1.47914">
        <ele>212.901</ele>
        <time>2020-03-25T16:17:17Z</time>
      </trkpt>
      <trkpt lat="43.54393" lon="1.47915">
        <ele>212.936</ele>
        <time>2020-03-25T16:17:23Z</time>
      </trkpt>
      <trkpt lat="43.54395" lon="1.47914">
        <ele>212.955</ele>
        <time>2020-03-25T16:17:28Z</time>
      </trkpt>
      <trkpt lat="43.54399" lon="1.4791">
        <ele>212.997</ele>
        <time>2020-03-25T16:17:34Z</time>
      </trkpt>
      <trkpt lat="43.54402" lon="1.47902">
        <ele>213.038</ele>
        <time>2020-03-25T16:17:40Z</time>
      </trkpt>
      <trkpt lat="43.54399" lon="1.47897">
        <ele>213.074</ele>
        <time>2020-03-25T16:17:46Z</time>
      </trkpt>
      <trkpt lat="43.54402" lon="1.47892">
        <ele>213.102</ele>
        <time>2020-03-25T16:17:52Z</time>
      </trkpt>
      <trkpt lat="43.54404" lon="1.47886">
        <ele>213.119</ele>
        <time>2020-03-25T16:17:57Z</time>
      </trkpt>
      <trkpt lat="43.54426" lon="1.47891">
        <ele>213.122</ele>
        <time>2020-03-25T16:18:03Z</time>
      </trkpt>
      <trkpt lat="43.54437" lon="1.47895">
        <ele>213.115</ele>
        <time>2020-03-25T16:18:09Z</time>
      </trkpt>
      <trkpt lat="43.54446" lon="1.47896">
        <ele>213.107</ele>
        <time>2020-03-25T16:18:15Z</time>
      </trkpt>
      <trkpt lat="43.54452" lon="1.47895">
        <ele>213.099</ele>
        <time>2020-03-25T16:18:20Z</time>
      </trkpt>
      <trkpt lat="43.54456" lon="1.47889">
        <ele>213.095</ele>
        <time>2020-03-25T16:18:25Z</time>
      </trkpt>
      <trkpt lat="43.54466" lon="1.47886">
        <ele>213.093</ele>
        <time>2020-03-25T16:18:31Z</time>
      </trkpt>
      <trkpt lat="43.54471" lon="1.4788">
        <ele>213.097</ele>
        <time>2020-03-25T16:18:37Z</time>
      </trkpt>
      <trkpt lat="43.54475" lon="1.47878">
        <ele>213.102</ele>
        <time>2020-03-25T16:18:43Z</time>
      </trkpt>
      <trkpt lat="43.54479" lon="1.47876">
        <ele>213.108</ele>
        <time>2020-03-25T16:18:49Z</time>
      </trkpt>
      <trkpt lat="43.54489" lon="1.47879">
        <ele>213.113</ele>
        <time>2020-03-25T16:18:55Z</time>
      </trkpt>
      <trkpt lat="43.54494" lon="1.47881">
        <ele>213.113</ele>
        <time>2020-03-25T16:19:00Z</time>
      </trkpt>
      <trkpt lat="43.54498" lon="1.4788">
        <ele>213.111</ele>
        <time>2020-03-25T16:19:06Z</time>
      </trkpt>
      <trkpt lat="43.54503" lon="1.47879">
        <ele>213.112</ele>
        <time>2020-03-25T16:19:12Z</time>
      </trkpt>
      <trkpt lat="43.54509" lon="1.47879">
        <ele>213.109</ele>
        <time>2020-03-25T16:19:17Z</time>
      </trkpt>
      <trkpt lat="43.54516" lon="1.47877">
        <ele>213.102</ele>
        <time>2020-03-25T16:19:23Z</time>
      </trkpt>
      <trkpt lat="43.54521" lon="1.47873">
        <ele>213.094</ele>
        <time>2020-03-25T16:19:29Z</time>
      </trkpt>
      <trkpt lat="43.54524" lon="1.47871">
        <ele>213.09</ele>
        <time>2020-03-25T16:19:34Z</time>
      </trkpt>
      <trkpt lat="43.54531" lon="1.47872">
        <ele>213.084</ele>
        <time>2020-03-25T16:19:40Z</time>
      </trkpt>
      <trkpt lat="43.54536" lon="1.47873">
        <ele>213.089</ele>
        <time>2020-03-25T16:19:45Z</time>
      </trkpt>
      <trkpt lat="43.54545" lon="1.47873">
        <ele>213.096</ele>
        <time>2020-03-25T16:19:50Z</time>
      </trkpt>
      <trkpt lat="43.54551" lon="1.47873">
        <ele>213.107</ele>
        <time>2020-03-25T16:19:55Z</time>
      </trkpt>
      <trkpt lat="43.54555" lon="1.47871">
        <ele>213.118</ele>
        <time>2020-03-25T16:20:01Z</time>
      </trkpt>
      <trkpt lat="43.5456" lon="1.47869">
        <ele>213.127</ele>
        <time>2020-03-25T16:20:07Z</time>
      </trkpt>
      <trkpt lat="43.54565" lon="1.47868">
        <ele>213.139</ele>
        <time>2020-03-25T16:20:13Z</time>
      </trkpt>
      <trkpt lat="43.5457" lon="1.47865">
        <ele>213.152</ele>
        <time>2020-03-25T16:20:19Z</time>
      </trkpt>
      <trkpt lat="43.54576" lon="1.47862">
        <ele>213.158</ele>
        <time>2020-03-25T16:20:25Z</time>
      </trkpt>
      <trkpt lat="43.54585" lon="1.47856">
        <ele>213.163</ele>
        <time>2020-03-25T16:20:31Z</time>
      </trkpt>
      <trkpt lat="43.5459" lon="1.47854">
        <ele>213.159</ele>
        <time>2020-03-25T16:20:37Z</time>
      </trkpt>
      <trkpt lat="43.54597" lon="1.47851">
        <ele>213.152</ele>
        <time>2020-03-25T16:20:43Z</time>
      </trkpt>
      <trkpt lat="43.54604" lon="1.47847">
        <ele>213.154</ele>
        <time>2020-03-25T16:20:48Z</time>
      </trkpt>
      <trkpt lat="43.5461" lon="1.4784">
        <ele>213.163</ele>
        <time>2020-03-25T16:20:54Z</time>
      </trkpt>
      <trkpt lat="43.54615" lon="1.47837">
        <ele>213.18</ele>
        <time>2020-03-25T16:21:00Z</time>
      </trkpt>
      <trkpt lat="43.54617" lon="1.47835">
        <ele>213.192</ele>
        <time>2020-03-25T16:21:06Z</time>
      </trkpt>
      <trkpt lat="43.54619" lon="1.47835">
        <ele>213.197</ele>
        <time>2020-03-25T16:21:11Z</time>
      </trkpt>
      <trkpt lat="43.54629" lon="1.47837">
        <ele>213.2</ele>
        <time>2020-03-25T16:21:17Z</time>
      </trkpt>
      <trkpt lat="43.54635" lon="1.47839">
        <ele>213.206</ele>
        <time>2020-03-25T16:21:23Z</time>
      </trkpt>
      <trkpt lat="43.54641" lon="1.47839">
        <ele>213.214</ele>
        <time>2020-03-25T16:21:29Z</time>
      </trkpt>
      <trkpt lat="43.54648" lon="1.47843">
        <ele>213.215</ele>
        <time>2020-03-25T16:21:35Z</time>
      </trkpt>
      <trkpt lat="43.54653" lon="1.47846">
        <ele>213.214</ele>
        <time>2020-03-25T16:21:41Z</time>
      </trkpt>
      <trkpt lat="43.54664" lon="1.47839">
        <ele>213.229</ele>
        <time>2020-03-25T16:21:47Z</time>
      </trkpt>
      <trkpt lat="43.54665" lon="1.47836">
        <ele>213.241</ele>
        <time>2020-03-25T16:21:52Z</time>
      </trkpt>
      <trkpt lat="43.54664" lon="1.4783">
        <ele>213.256</ele>
        <time>2020-03-25T16:21:57Z</time>
      </trkpt>
      <trkpt lat="43.54665" lon="1.47831">
        <ele>213.279</ele>
        <time>2020-03-25T16:22:03Z</time>
      </trkpt>
      <trkpt lat="43.5467" lon="1.47835">
        <ele>213.294</ele>
        <time>2020-03-25T16:22:08Z</time>
      </trkpt>
      <trkpt lat="43.54671" lon="1.47836">
        <ele>213.301</ele>
        <time>2020-03-25T16:22:13Z</time>
      </trkpt>
      <trkpt lat="43.54671" lon="1.47836">
        <ele>213.299</ele>
        <time>2020-03-25T16:22:19Z</time>
      </trkpt>
      <trkpt lat="43.54672" lon="1.47835">
        <ele>213.296</ele>
        <time>2020-03-25T16:22:25Z</time>
      </trkpt>
      <trkpt lat="43.54672" lon="1.47835">
        <ele>213.28</ele>
        <time>2020-03-25T16:22:30Z</time>
      </trkpt>
      <trkpt lat="43.54675" lon="1.47839">
        <ele>213.259</ele>
        <time>2020-03-25T16:22:36Z</time>
      </trkpt>
      <trkpt lat="43.54679" lon="1.47843">
        <ele>213.246</ele>
        <time>2020-03-25T16:22:42Z</time>
      </trkpt>
      <trkpt lat="43.54681" lon="1.47847">
        <ele>213.241</ele>
        <time>2020-03-25T16:22:47Z</time>
      </trkpt>
      <trkpt lat="43.54685" lon="1.47849">
        <ele>213.237</ele>
        <time>2020-03-25T16:22:52Z</time>
      </trkpt>
      <trkpt lat="43.5469" lon="1.47851">
        <ele>213.241</ele>
        <time>2020-03-25T16:22:57Z</time>
      </trkpt>
      <trkpt lat="43.54696" lon="1.47855">
        <ele>213.245</ele>
        <time>2020-03-25T16:23:03Z</time>
      </trkpt>
      <trkpt lat="43.54701" lon="1.47859">
        <ele>213.249</ele>
        <time>2020-03-25T16:23:09Z</time>
      </trkpt>
      <trkpt lat="43.54703" lon="1.47861">
        <ele>213.245</ele>
        <time>2020-03-25T16:23:15Z</time>
      </trkpt>
      <trkpt lat="43.54706" lon="1.47862">
        <ele>213.241</ele>
        <time>2020-03-25T16:23:20Z</time>
      </trkpt>
      <trkpt lat="43.54711" lon="1.47862">
        <ele>213.241</ele>
        <time>2020-03-25T16:23:25Z</time>
      </trkpt>
      <trkpt lat="43.54725" lon="1.47859">
        <ele>213.247</ele>
        <time>2020-03-25T16:23:31Z</time>
      </trkpt>
      <trkpt lat="43.54732" lon="1.47859">
        <ele>213.252</ele>
        <time>2020-03-25T16:23:36Z</time>
      </trkpt>
      <trkpt lat="43.54738" lon="1.47861">
        <ele>213.253</ele>
        <time>2020-03-25T16:23:41Z</time>
      </trkpt>
      <trkpt lat="43.54743" lon="1.47862">
        <ele>213.255</ele>
        <time>2020-03-25T16:23:47Z</time>
      </trkpt>
      <trkpt lat="43.54748" lon="1.47858">
        <ele>213.258</ele>
        <time>2020-03-25T16:23:52Z</time>
      </trkpt>
      <trkpt lat="43.54752" lon="1.47854">
        <ele>213.258</ele>
        <time>2020-03-25T16:23:58Z</time>
      </trkpt>
      <trkpt lat="43.54758" lon="1.47847">
        <ele>213.26</ele>
        <time>2020-03-25T16:24:04Z</time>
      </trkpt>
      <trkpt lat="43.54762" lon="1.4784">
        <ele>213.266</ele>
        <time>2020-03-25T16:24:10Z</time>
      </trkpt>
      <trkpt lat="43.54765" lon="1.4783">
        <ele>213.281</ele>
        <time>2020-03-25T16:24:15Z</time>
      </trkpt>
      <trkpt lat="43.54769" lon="1.47826">
        <ele>213.306</ele>
        <time>2020-03-25T16:24:21Z</time>
      </trkpt>
      <trkpt lat="43.54771" lon="1.47819">
        <ele>213.322</ele>
        <time>2020-03-25T16:24:26Z</time>
      </trkpt>
      <trkpt lat="43.54776" lon="1.47814">
        <ele>213.339</ele>
        <time>2020-03-25T16:24:31Z</time>
      </trkpt>
      <trkpt lat="43.54778" lon="1.47811">
        <ele>213.356</ele>
        <time>2020-03-25T16:24:36Z</time>
      </trkpt>
      <trkpt lat="43.54781" lon="1.47804">
        <ele>213.377</ele>
        <time>2020-03-25T16:24:42Z</time>
      </trkpt>
      <trkpt lat="43.54786" lon="1.47799">
        <ele>213.391</ele>
        <time>2020-03-25T16:24:47Z</time>
      </trkpt>
      <trkpt lat="43.54794" lon="1.47795">
        <ele>213.407</ele>
        <time>2020-03-25T16:24:52Z</time>
      </trkpt>
      <trkpt lat="43.54797" lon="1.47792">
        <ele>213.422</ele>
        <time>2020-03-25T16:24:58Z</time>
      </trkpt>
      <trkpt lat="43.548" lon="1.47791">
        <ele>213.435</ele>
        <time>2020-03-25T16:25:03Z</time>
      </trkpt>
      <trkpt lat="43.54803" lon="1.47789">
        <ele>213.449</ele>
        <time>2020-03-25T16:25:08Z</time>
      </trkpt>
      <trkpt lat="43.5481" lon="1.47785">
        <ele>213.472</ele>
        <time>2020-03-25T16:25:14Z</time>
      </trkpt>
      <trkpt lat="43.54817" lon="1.47781">
        <ele>213.495</ele>
        <time>2020-03-25T16:25:20Z</time>
      </trkpt>
      <trkpt lat="43.54824" lon="1.47777">
        <ele>213.519</ele>
        <time>2020-03-25T16:25:26Z</time>
      </trkpt>
      <trkpt lat="43.54828" lon="1.47774">
        <ele>213.544</ele>
        <time>2020-03-25T16:25:32Z</time>
      </trkpt>
      <trkpt lat="43.54832" lon="1.47771">
        <ele>213.561</ele>
        <time>2020-03-25T16:25:37Z</time>
      </trkpt>
      <trkpt lat="43.54839" lon="1.47766">
        <ele>213.568</ele>
        <time>2020-03-25T16:25:43Z</time>
      </trkpt>
      <trkpt lat="43.54844" lon="1.47763">
        <ele>213.566</ele>
        <time>2020-03-25T16:25:48Z</time>
      </trkpt>
      <trkpt lat="43.54851" lon="1.47761">
        <ele>213.562</ele>
        <time>2020-03-25T16:25:54Z</time>
      </trkpt>
      <trkpt lat="43.54854" lon="1.47759">
        <ele>213.559</ele>
        <time>2020-03-25T16:25:59Z</time>
      </trkpt>
      <trkpt lat="43.54857" lon="1.47756">
        <ele>213.558</ele>
        <time>2020-03-25T16:26:04Z</time>
      </trkpt>
      <trkpt lat="43.54859" lon="1.47753">
        <ele>213.553</ele>
        <time>2020-03-25T16:26:10Z</time>
      </trkpt>
      <trkpt lat="43.54862" lon="1.4775">
        <ele>213.555</ele>
        <time>2020-03-25T16:26:16Z</time>
      </trkpt>
      <trkpt lat="43.54868" lon="1.47745">
        <ele>213.556</ele>
        <time>2020-03-25T16:26:22Z</time>
      </trkpt>
      <trkpt lat="43.54873" lon="1.47743">
        <ele>213.548</ele>
        <time>2020-03-25T16:26:28Z</time>
      </trkpt>
      <trkpt lat="43.54881" lon="1.47741">
        <ele>213.526</ele>
        <time>2020-03-25T16:26:34Z</time>
      </trkpt>
      <trkpt lat="43.54888" lon="1.47735">
        <ele>213.498</ele>
        <time>2020-03-25T16:26:40Z</time>
      </trkpt>
      <trkpt lat="43.54891" lon="1.47732">
        <ele>213.462</ele>
        <time>2020-03-25T16:26:46Z</time>
      </trkpt>
      <trkpt lat="43.54896" lon="1.47729">
        <ele>213.424</ele>
        <time>2020-03-25T16:26:51Z</time>
      </trkpt>
      <trkpt lat="43.54902" lon="1.47728">
        <ele>213.376</ele>
        <time>2020-03-25T16:26:57Z</time>
      </trkpt>
      <trkpt lat="43.54909" lon="1.47725">
        <ele>213.328</ele>
        <time>2020-03-25T16:27:03Z</time>
      </trkpt>
      <trkpt lat="43.54917" lon="1.47722">
        <ele>213.289</ele>
        <time>2020-03-25T16:27:09Z</time>
      </trkpt>
      <trkpt lat="43.54924" lon="1.47721">
        <ele>213.253</ele>
        <time>2020-03-25T16:27:15Z</time>
      </trkpt>
      <trkpt lat="43.5493" lon="1.47716">
        <ele>213.225</ele>
        <time>2020-03-25T16:27:21Z</time>
      </trkpt>
      <trkpt lat="43.54933" lon="1.47711">
        <ele>213.199</ele>
        <time>2020-03-25T16:27:27Z</time>
      </trkpt>
      <trkpt lat="43.54938" lon="1.47707">
        <ele>213.179</ele>
        <time>2020-03-25T16:27:32Z</time>
      </trkpt>
      <trkpt lat="43.54946" lon="1.47705">
        <ele>213.156</ele>
        <time>2020-03-25T16:27:38Z</time>
      </trkpt>
      <trkpt lat="43.5495" lon="1.47703">
        <ele>213.136</ele>
        <time>2020-03-25T16:27:43Z</time>
      </trkpt>
      <trkpt lat="43.54956" lon="1.477">
        <ele>213.109</ele>
        <time>2020-03-25T16:27:49Z</time>
      </trkpt>
      <trkpt lat="43.54962" lon="1.47697">
        <ele>213.078</ele>
        <time>2020-03-25T16:27:55Z</time>
      </trkpt>
      <trkpt lat="43.54967" lon="1.47693">
        <ele>213.049</ele>
        <time>2020-03-25T16:28:00Z</time>
      </trkpt>
      <trkpt lat="43.54975" lon="1.4769">
        <ele>213.014</ele>
        <time>2020-03-25T16:28:05Z</time>
      </trkpt>
      <trkpt lat="43.54979" lon="1.47688">
        <ele>212.972</ele>
        <time>2020-03-25T16:28:10Z</time>
      </trkpt>
      <trkpt lat="43.54985" lon="1.47685">
        <ele>212.917</ele>
        <time>2020-03-25T16:28:16Z</time>
      </trkpt>
      <trkpt lat="43.5499" lon="1.47681">
        <ele>212.871</ele>
        <time>2020-03-25T16:28:22Z</time>
      </trkpt>
      <trkpt lat="43.54995" lon="1.47678">
        <ele>212.829</ele>
        <time>2020-03-25T16:28:28Z</time>
      </trkpt>
      <trkpt lat="43.55001" lon="1.47674">
        <ele>212.778</ele>
        <time>2020-03-25T16:28:34Z</time>
      </trkpt>
      <trkpt lat="43.55007" lon="1.47672">
        <ele>212.731</ele>
        <time>2020-03-25T16:28:39Z</time>
      </trkpt>
      <trkpt lat="43.55014" lon="1.47672">
        <ele>212.68</ele>
        <time>2020-03-25T16:28:45Z</time>
      </trkpt>
      <trkpt lat="43.55017" lon="1.47673">
        <ele>212.639</ele>
        <time>2020-03-25T16:28:51Z</time>
      </trkpt>
      <trkpt lat="43.55021" lon="1.47673">
        <ele>212.592</ele>
        <time>2020-03-25T16:28:57Z</time>
      </trkpt>
      <trkpt lat="43.55029" lon="1.47671">
        <ele>212.552</ele>
        <time>2020-03-25T16:29:03Z</time>
      </trkpt>
      <trkpt lat="43.55032" lon="1.47673">
        <ele>212.523</ele>
        <time>2020-03-25T16:29:09Z</time>
      </trkpt>
      <trkpt lat="43.55033" lon="1.47676">
        <ele>212.51</ele>
        <time>2020-03-25T16:29:14Z</time>
      </trkpt>
      <trkpt lat="43.55034" lon="1.47675">
        <ele>212.491</ele>
        <time>2020-03-25T16:29:20Z</time>
      </trkpt>
      <trkpt lat="43.55034" lon="1.47675">
        <ele>212.489</ele>
        <time>2020-03-25T16:29:26Z</time>
      </trkpt>
      <trkpt lat="43.55036" lon="1.47677">
        <ele>212.464</ele>
        <time>2020-03-25T16:29:35Z</time>
      </trkpt>
    </trkseg>
  </trk>
  <trk>
    <name><![CDATA[6 avril]]></name>
    <trkseg>
      <trkpt lat="43.55015" lon="1.4768">
        <ele>222.808</ele>
        <time>2020-04-06T15:08:49Z</time>
      </trkpt>
      <trkpt lat="43.54998" lon="1.47676">
        <ele>206.57</ele>
        <time>2020-04-06T15:08:55Z</time>
      </trkpt>
      <trkpt lat="43.55002" lon="1.47683">
        <ele>207.762</ele>
        <time>2020-04-06T15:09:00Z</time>
      </trkpt>
      <trkpt lat="43.54998" lon="1.47685">
        <ele>208.841</ele>
        <time>2020-04-06T15:09:05Z</time>
      </trkpt>
      <trkpt lat="43.54993" lon="1.47689">
        <ele>209.797</ele>
        <time>2020-04-06T15:09:11Z</time>
      </trkpt>
      <trkpt lat="43.54991" lon="1.47691">
        <ele>211.404</ele>
        <time>2020-04-06T15:09:17Z</time>
      </trkpt>
      <trkpt lat="43.54986" lon="1.47695">
        <ele>211.315</ele>
        <time>2020-04-06T15:09:23Z</time>
      </trkpt>
      <trkpt lat="43.54981" lon="1.47698">
        <ele>211.298</ele>
        <time>2020-04-06T15:09:29Z</time>
      </trkpt>
      <trkpt lat="43.54975" lon="1.47704">
        <ele>211.235</ele>
        <time>2020-04-06T15:09:34Z</time>
      </trkpt>
      <trkpt lat="43.54969" lon="1.47709">
        <ele>211.176</ele>
        <time>2020-04-06T15:09:40Z</time>
      </trkpt>
      <trkpt lat="43.54964" lon="1.47713">
        <ele>211.131</ele>
        <time>2020-04-06T15:09:45Z</time>
      </trkpt>
      <trkpt lat="43.54957" lon="1.47716">
        <ele>211.069</ele>
        <time>2020-04-06T15:09:51Z</time>
      </trkpt>
      <trkpt lat="43.54952" lon="1.4772">
        <ele>211.017</ele>
        <time>2020-04-06T15:09:56Z</time>
      </trkpt>
      <trkpt lat="43.5495" lon="1.47721">
        <ele>210.958</ele>
        <time>2020-04-06T15:10:01Z</time>
      </trkpt>
      <trkpt lat="43.54945" lon="1.47724">
        <ele>210.857</ele>
        <time>2020-04-06T15:10:07Z</time>
      </trkpt>
      <trkpt lat="43.54938" lon="1.47728">
        <ele>210.747</ele>
        <time>2020-04-06T15:10:13Z</time>
      </trkpt>
      <trkpt lat="43.54931" lon="1.47731">
        <ele>210.64</ele>
        <time>2020-04-06T15:10:18Z</time>
      </trkpt>
      <trkpt lat="43.54924" lon="1.47734">
        <ele>210.521</ele>
        <time>2020-04-06T15:10:24Z</time>
      </trkpt>
      <trkpt lat="43.54921" lon="1.47737">
        <ele>210.438</ele>
        <time>2020-04-06T15:10:30Z</time>
      </trkpt>
      <trkpt lat="43.54917" lon="1.4774">
        <ele>210.407</ele>
        <time>2020-04-06T15:10:35Z</time>
      </trkpt>
      <trkpt lat="43.5491" lon="1.47744">
        <ele>210.398</ele>
        <time>2020-04-06T15:10:41Z</time>
      </trkpt>
      <trkpt lat="43.54902" lon="1.47749">
        <ele>210.373</ele>
        <time>2020-04-06T15:10:47Z</time>
      </trkpt>
      <trkpt lat="43.54896" lon="1.47753">
        <ele>210.347</ele>
        <time>2020-04-06T15:10:53Z</time>
      </trkpt>
      <trkpt lat="43.54891" lon="1.47758">
        <ele>210.338</ele>
        <time>2020-04-06T15:10:59Z</time>
      </trkpt>
      <trkpt lat="43.54884" lon="1.47762">
        <ele>210.344</ele>
        <time>2020-04-06T15:11:05Z</time>
      </trkpt>
      <trkpt lat="43.54878" lon="1.47765">
        <ele>210.358</ele>
        <time>2020-04-06T15:11:10Z</time>
      </trkpt>
      <trkpt lat="43.54873" lon="1.47768">
        <ele>210.374</ele>
        <time>2020-04-06T15:11:15Z</time>
      </trkpt>
      <trkpt lat="43.54867" lon="1.47771">
        <ele>210.385</ele>
        <time>2020-04-06T15:11:20Z</time>
      </trkpt>
      <trkpt lat="43.5486" lon="1.47775">
        <ele>210.435</ele>
        <time>2020-04-06T15:11:26Z</time>
      </trkpt>
      <trkpt lat="43.54854" lon="1.47779">
        <ele>210.484</ele>
        <time>2020-04-06T15:11:32Z</time>
      </trkpt>
      <trkpt lat="43.54847" lon="1.47783">
        <ele>210.521</ele>
        <time>2020-04-06T15:11:38Z</time>
      </trkpt>
      <trkpt lat="43.54843" lon="1.47786">
        <ele>210.55</ele>
        <time>2020-04-06T15:11:43Z</time>
      </trkpt>
      <trkpt lat="43.54837" lon="1.4779">
        <ele>210.587</ele>
        <time>2020-04-06T15:11:49Z</time>
      </trkpt>
      <trkpt lat="43.5483" lon="1.47792">
        <ele>210.627</ele>
        <time>2020-04-06T15:11:55Z</time>
      </trkpt>
      <trkpt lat="43.54824" lon="1.47795">
        <ele>210.662</ele>
        <time>2020-04-06T15:12:00Z</time>
      </trkpt>
      <trkpt lat="43.5482" lon="1.47798">
        <ele>210.717</ele>
        <time>2020-04-06T15:12:06Z</time>
      </trkpt>
      <trkpt lat="43.54817" lon="1.478">
        <ele>210.777</ele>
        <time>2020-04-06T15:12:12Z</time>
      </trkpt>
      <trkpt lat="43.5481" lon="1.47804">
        <ele>210.83</ele>
        <time>2020-04-06T15:12:18Z</time>
      </trkpt>
      <trkpt lat="43.54798" lon="1.47799">
        <ele>210.871</ele>
        <time>2020-04-06T15:12:24Z</time>
      </trkpt>
      <trkpt lat="43.54795" lon="1.47806">
        <ele>210.942</ele>
        <time>2020-04-06T15:12:29Z</time>
      </trkpt>
      <trkpt lat="43.54789" lon="1.47815">
        <ele>211.102</ele>
        <time>2020-04-06T15:12:35Z</time>
      </trkpt>
      <trkpt lat="43.54785" lon="1.47823">
        <ele>211.291</ele>
        <time>2020-04-06T15:12:41Z</time>
      </trkpt>
      <trkpt lat="43.54781" lon="1.47834">
        <ele>211.52</ele>
        <time>2020-04-06T15:12:47Z</time>
      </trkpt>
      <trkpt lat="43.54776" lon="1.47842">
        <ele>211.777</ele>
        <time>2020-04-06T15:12:53Z</time>
      </trkpt>
      <trkpt lat="43.54773" lon="1.47844">
        <ele>211.993</ele>
        <time>2020-04-06T15:12:58Z</time>
      </trkpt>
      <trkpt lat="43.54768" lon="1.47845">
        <ele>212.229</ele>
        <time>2020-04-06T15:13:04Z</time>
      </trkpt>
      <trkpt lat="43.54764" lon="1.47846">
        <ele>212.41</ele>
        <time>2020-04-06T15:13:09Z</time>
      </trkpt>
      <trkpt lat="43.54753" lon="1.4785">
        <ele>212.621</ele>
        <time>2020-04-06T15:13:14Z</time>
      </trkpt>
      <trkpt lat="43.5475" lon="1.47854">
        <ele>212.908</ele>
        <time>2020-04-06T15:13:20Z</time>
      </trkpt>
      <trkpt lat="43.54748" lon="1.47854">
        <ele>213.156</ele>
        <time>2020-04-06T15:13:26Z</time>
      </trkpt>
      <trkpt lat="43.54745" lon="1.47852">
        <ele>213.263</ele>
        <time>2020-04-06T15:13:31Z</time>
      </trkpt>
      <trkpt lat="43.54744" lon="1.47847">
        <ele>213.336</ele>
        <time>2020-04-06T15:13:37Z</time>
      </trkpt>
      <trkpt lat="43.54747" lon="1.47851">
        <ele>213.447</ele>
        <time>2020-04-06T15:13:42Z</time>
      </trkpt>
      <trkpt lat="43.54748" lon="1.47855">
        <ele>213.677</ele>
        <time>2020-04-06T15:13:47Z</time>
      </trkpt>
      <trkpt lat="43.54744" lon="1.47857">
        <ele>213.934</ele>
        <time>2020-04-06T15:13:53Z</time>
      </trkpt>
      <trkpt lat="43.54738" lon="1.47857">
        <ele>214.13</ele>
        <time>2020-04-06T15:13:58Z</time>
      </trkpt>
      <trkpt lat="43.54731" lon="1.47862">
        <ele>214.349</ele>
        <time>2020-04-06T15:14:04Z</time>
      </trkpt>
      <trkpt lat="43.54727" lon="1.4787">
        <ele>214.52</ele>
        <time>2020-04-06T15:14:09Z</time>
      </trkpt>
      <trkpt lat="43.54724" lon="1.47877">
        <ele>214.722</ele>
        <time>2020-04-06T15:14:15Z</time>
      </trkpt>
      <trkpt lat="43.54723" lon="1.47877">
        <ele>214.871</ele>
        <time>2020-04-06T15:14:20Z</time>
      </trkpt>
      <trkpt lat="43.54719" lon="1.47872">
        <ele>215.026</ele>
        <time>2020-04-06T15:14:26Z</time>
      </trkpt>
      <trkpt lat="43.54713" lon="1.47868">
        <ele>215.168</ele>
        <time>2020-04-06T15:14:32Z</time>
      </trkpt>
      <trkpt lat="43.54708" lon="1.47864">
        <ele>215.297</ele>
        <time>2020-04-06T15:14:38Z</time>
      </trkpt>
      <trkpt lat="43.54698" lon="1.47861">
        <ele>215.417</ele>
        <time>2020-04-06T15:14:44Z</time>
      </trkpt>
      <trkpt lat="43.54692" lon="1.47857">
        <ele>215.519</ele>
        <time>2020-04-06T15:14:49Z</time>
      </trkpt>
      <trkpt lat="43.54685" lon="1.47854">
        <ele>215.642</ele>
        <time>2020-04-06T15:14:55Z</time>
      </trkpt>
      <trkpt lat="43.54678" lon="1.4785">
        <ele>215.759</ele>
        <time>2020-04-06T15:15:01Z</time>
      </trkpt>
      <trkpt lat="43.54672" lon="1.47848">
        <ele>215.874</ele>
        <time>2020-04-06T15:15:07Z</time>
      </trkpt>
      <trkpt lat="43.54667" lon="1.47844">
        <ele>215.986</ele>
        <time>2020-04-06T15:15:13Z</time>
      </trkpt>
      <trkpt lat="43.54661" lon="1.47841">
        <ele>216.086</ele>
        <time>2020-04-06T15:15:19Z</time>
      </trkpt>
      <trkpt lat="43.54655" lon="1.47841">
        <ele>216.174</ele>
        <time>2020-04-06T15:15:25Z</time>
      </trkpt>
      <trkpt lat="43.54649" lon="1.47839">
        <ele>216.242</ele>
        <time>2020-04-06T15:15:30Z</time>
      </trkpt>
      <trkpt lat="43.54641" lon="1.47835">
        <ele>216.326</ele>
        <time>2020-04-06T15:15:36Z</time>
      </trkpt>
      <trkpt lat="43.54637" lon="1.47833">
        <ele>216.393</ele>
        <time>2020-04-06T15:15:41Z</time>
      </trkpt>
      <trkpt lat="43.54628" lon="1.47832">
        <ele>216.472</ele>
        <time>2020-04-06T15:15:47Z</time>
      </trkpt>
      <trkpt lat="43.54624" lon="1.47831">
        <ele>216.53</ele>
        <time>2020-04-06T15:15:52Z</time>
      </trkpt>
      <trkpt lat="43.54618" lon="1.47833">
        <ele>216.585</ele>
        <time>2020-04-06T15:15:58Z</time>
      </trkpt>
      <trkpt lat="43.54614" lon="1.47837">
        <ele>216.618</ele>
        <time>2020-04-06T15:16:03Z</time>
      </trkpt>
      <trkpt lat="43.54613" lon="1.47845">
        <ele>216.646</ele>
        <time>2020-04-06T15:16:09Z</time>
      </trkpt>
      <trkpt lat="43.54611" lon="1.47855">
        <ele>216.679</ele>
        <time>2020-04-06T15:16:14Z</time>
      </trkpt>
      <trkpt lat="43.54611" lon="1.47859">
        <ele>216.72</ele>
        <time>2020-04-06T15:16:19Z</time>
      </trkpt>
      <trkpt lat="43.54614" lon="1.47866">
        <ele>216.762</ele>
        <time>2020-04-06T15:16:25Z</time>
      </trkpt>
      <trkpt lat="43.54615" lon="1.47878">
        <ele>216.795</ele>
        <time>2020-04-06T15:16:31Z</time>
      </trkpt>
      <trkpt lat="43.54616" lon="1.47891">
        <ele>216.816</ele>
        <time>2020-04-06T15:16:37Z</time>
      </trkpt>
      <trkpt lat="43.54617" lon="1.479">
        <ele>216.824</ele>
        <time>2020-04-06T15:16:42Z</time>
      </trkpt>
      <trkpt lat="43.54619" lon="1.4791">
        <ele>216.831</ele>
        <time>2020-04-06T15:16:48Z</time>
      </trkpt>
      <trkpt lat="43.54621" lon="1.47918">
        <ele>216.837</ele>
        <time>2020-04-06T15:16:54Z</time>
      </trkpt>
      <trkpt lat="43.54623" lon="1.47928">
        <ele>216.845</ele>
        <time>2020-04-06T15:17:00Z</time>
      </trkpt>
      <trkpt lat="43.54624" lon="1.47938">
        <ele>216.85</ele>
        <time>2020-04-06T15:17:06Z</time>
      </trkpt>
      <trkpt lat="43.54625" lon="1.47947">
        <ele>216.85</ele>
        <time>2020-04-06T15:17:11Z</time>
      </trkpt>
      <trkpt lat="43.54627" lon="1.47956">
        <ele>216.848</ele>
        <time>2020-04-06T15:17:17Z</time>
      </trkpt>
      <trkpt lat="43.54628" lon="1.47963">
        <ele>216.836</ele>
        <time>2020-04-06T15:17:23Z</time>
      </trkpt>
      <trkpt lat="43.54628" lon="1.47973">
        <ele>216.813</ele>
        <time>2020-04-06T15:17:29Z</time>
      </trkpt>
      <trkpt lat="43.54627" lon="1.47981">
        <ele>216.787</ele>
        <time>2020-04-06T15:17:35Z</time>
      </trkpt>
      <trkpt lat="43.54625" lon="1.47986">
        <ele>216.766</ele>
        <time>2020-04-06T15:17:40Z</time>
      </trkpt>
      <trkpt lat="43.54621" lon="1.47991">
        <ele>216.743</ele>
        <time>2020-04-06T15:17:46Z</time>
      </trkpt>
      <trkpt lat="43.54618" lon="1.47991">
        <ele>216.728</ele>
        <time>2020-04-06T15:17:52Z</time>
      </trkpt>
      <trkpt lat="43.54616" lon="1.4799">
        <ele>216.714</ele>
        <time>2020-04-06T15:17:58Z</time>
      </trkpt>
      <trkpt lat="43.54611" lon="1.47991">
        <ele>216.695</ele>
        <time>2020-04-06T15:18:03Z</time>
      </trkpt>
      <trkpt lat="43.54606" lon="1.47993">
        <ele>216.666</ele>
        <time>2020-04-06T15:18:08Z</time>
      </trkpt>
      <trkpt lat="43.546" lon="1.47995">
        <ele>216.619</ele>
        <time>2020-04-06T15:18:14Z</time>
      </trkpt>
      <trkpt lat="43.54594" lon="1.47997">
        <ele>216.572</ele>
        <time>2020-04-06T15:18:19Z</time>
      </trkpt>
      <trkpt lat="43.54588" lon="1.48001">
        <ele>216.511</ele>
        <time>2020-04-06T15:18:25Z</time>
      </trkpt>
      <trkpt lat="43.54582" lon="1.48002">
        <ele>216.459</ele>
        <time>2020-04-06T15:18:30Z</time>
      </trkpt>
      <trkpt lat="43.54576" lon="1.48003">
        <ele>216.392</ele>
        <time>2020-04-06T15:18:36Z</time>
      </trkpt>
      <trkpt lat="43.5457" lon="1.48005">
        <ele>216.326</ele>
        <time>2020-04-06T15:18:42Z</time>
      </trkpt>
      <trkpt lat="43.54565" lon="1.48008">
        <ele>216.26</ele>
        <time>2020-04-06T15:18:48Z</time>
      </trkpt>
      <trkpt lat="43.54559" lon="1.4801">
        <ele>216.203</ele>
        <time>2020-04-06T15:18:53Z</time>
      </trkpt>
      <trkpt lat="43.54552" lon="1.48011">
        <ele>216.146</ele>
        <time>2020-04-06T15:18:58Z</time>
      </trkpt>
      <trkpt lat="43.54545" lon="1.48011">
        <ele>216.08</ele>
        <time>2020-04-06T15:19:04Z</time>
      </trkpt>
      <trkpt lat="43.54543" lon="1.48012">
        <ele>216.05</ele>
        <time>2020-04-06T15:19:09Z</time>
      </trkpt>
      <trkpt lat="43.54537" lon="1.48013">
        <ele>215.989</ele>
        <time>2020-04-06T15:19:15Z</time>
      </trkpt>
      <trkpt lat="43.54533" lon="1.48017">
        <ele>215.933</ele>
        <time>2020-04-06T15:19:20Z</time>
      </trkpt>
      <trkpt lat="43.54528" lon="1.4802">
        <ele>215.874</ele>
        <time>2020-04-06T15:19:25Z</time>
      </trkpt>
      <trkpt lat="43.54522" lon="1.48022">
        <ele>215.798</ele>
        <time>2020-04-06T15:19:31Z</time>
      </trkpt>
      <trkpt lat="43.54518" lon="1.48024">
        <ele>215.734</ele>
        <time>2020-04-06T15:19:37Z</time>
      </trkpt>
      <trkpt lat="43.54511" lon="1.48025">
        <ele>215.671</ele>
        <time>2020-04-06T15:19:42Z</time>
      </trkpt>
      <trkpt lat="43.54503" lon="1.48028">
        <ele>215.606</ele>
        <time>2020-04-06T15:19:48Z</time>
      </trkpt>
      <trkpt lat="43.54497" lon="1.48029">
        <ele>215.555</ele>
        <time>2020-04-06T15:19:53Z</time>
      </trkpt>
      <trkpt lat="43.54493" lon="1.4803">
        <ele>215.505</ele>
        <time>2020-04-06T15:19:58Z</time>
      </trkpt>
      <trkpt lat="43.54486" lon="1.48031">
        <ele>215.441</ele>
        <time>2020-04-06T15:20:04Z</time>
      </trkpt>
      <trkpt lat="43.5448" lon="1.48033">
        <ele>215.377</ele>
        <time>2020-04-06T15:20:10Z</time>
      </trkpt>
      <trkpt lat="43.54475" lon="1.48035">
        <ele>215.323</ele>
        <time>2020-04-06T15:20:15Z</time>
      </trkpt>
      <trkpt lat="43.5447" lon="1.48038">
        <ele>215.269</ele>
        <time>2020-04-06T15:20:20Z</time>
      </trkpt>
      <trkpt lat="43.54464" lon="1.48041">
        <ele>215.204</ele>
        <time>2020-04-06T15:20:26Z</time>
      </trkpt>
      <trkpt lat="43.54458" lon="1.48043">
        <ele>215.15</ele>
        <time>2020-04-06T15:20:31Z</time>
      </trkpt>
      <trkpt lat="43.54452" lon="1.48045">
        <ele>215.099</ele>
        <time>2020-04-06T15:20:36Z</time>
      </trkpt>
      <trkpt lat="43.54445" lon="1.48048">
        <ele>215.038</ele>
        <time>2020-04-06T15:20:42Z</time>
      </trkpt>
      <trkpt lat="43.54441" lon="1.4805">
        <ele>214.988</ele>
        <time>2020-04-06T15:20:47Z</time>
      </trkpt>
      <trkpt lat="43.54436" lon="1.48052">
        <ele>214.939</ele>
        <time>2020-04-06T15:20:52Z</time>
      </trkpt>
      <trkpt lat="43.54433" lon="1.48055">
        <ele>214.89</ele>
        <time>2020-04-06T15:20:57Z</time>
      </trkpt>
      <trkpt lat="43.54428" lon="1.48057">
        <ele>214.829</ele>
        <time>2020-04-06T15:21:03Z</time>
      </trkpt>
      <trkpt lat="43.54422" lon="1.48059">
        <ele>214.769</ele>
        <time>2020-04-06T15:21:08Z</time>
      </trkpt>
      <trkpt lat="43.54416" lon="1.48061">
        <ele>214.699</ele>
        <time>2020-04-06T15:21:14Z</time>
      </trkpt>
      <trkpt lat="43.5441" lon="1.48063">
        <ele>214.642</ele>
        <time>2020-04-06T15:21:19Z</time>
      </trkpt>
      <trkpt lat="43.54404" lon="1.48065">
        <ele>214.584</ele>
        <time>2020-04-06T15:21:24Z</time>
      </trkpt>
      <trkpt lat="43.54399" lon="1.48067">
        <ele>214.536</ele>
        <time>2020-04-06T15:21:30Z</time>
      </trkpt>
      <trkpt lat="43.54396" lon="1.48067">
        <ele>214.499</ele>
        <time>2020-04-06T15:21:36Z</time>
      </trkpt>
      <trkpt lat="43.54395" lon="1.48069">
        <ele>214.478</ele>
        <time>2020-04-06T15:21:41Z</time>
      </trkpt>
      <trkpt lat="43.54391" lon="1.48071">
        <ele>214.445</ele>
        <time>2020-04-06T15:21:47Z</time>
      </trkpt>
      <trkpt lat="43.54386" lon="1.48071">
        <ele>214.41</ele>
        <time>2020-04-06T15:21:52Z</time>
      </trkpt>
      <trkpt lat="43.54382" lon="1.48073">
        <ele>214.374</ele>
        <time>2020-04-06T15:21:57Z</time>
      </trkpt>
      <trkpt lat="43.54377" lon="1.48074">
        <ele>214.337</ele>
        <time>2020-04-06T15:22:02Z</time>
      </trkpt>
      <trkpt lat="43.5437" lon="1.48077">
        <ele>214.293</ele>
        <time>2020-04-06T15:22:08Z</time>
      </trkpt>
      <trkpt lat="43.54364" lon="1.48078">
        <ele>214.253</ele>
        <time>2020-04-06T15:22:14Z</time>
      </trkpt>
      <trkpt lat="43.54357" lon="1.48081">
        <ele>214.21</ele>
        <time>2020-04-06T15:22:20Z</time>
      </trkpt>
      <trkpt lat="43.54352" lon="1.48083">
        <ele>214.174</ele>
        <time>2020-04-06T15:22:25Z</time>
      </trkpt>
      <trkpt lat="43.54347" lon="1.48083">
        <ele>214.138</ele>
        <time>2020-04-06T15:22:30Z</time>
      </trkpt>
      <trkpt lat="43.54343" lon="1.48076">
        <ele>214.099</ele>
        <time>2020-04-06T15:22:36Z</time>
      </trkpt>
      <trkpt lat="43.54341" lon="1.48071">
        <ele>214.068</ele>
        <time>2020-04-06T15:22:41Z</time>
      </trkpt>
      <trkpt lat="43.54335" lon="1.48064">
        <ele>214.041</ele>
        <time>2020-04-06T15:22:47Z</time>
      </trkpt>
      <trkpt lat="43.54331" lon="1.48057">
        <ele>214.03</ele>
        <time>2020-04-06T15:22:52Z</time>
      </trkpt>
      <trkpt lat="43.54329" lon="1.4805">
        <ele>214.024</ele>
        <time>2020-04-06T15:22:57Z</time>
      </trkpt>
      <trkpt lat="43.54325" lon="1.48043">
        <ele>214.021</ele>
        <time>2020-04-06T15:23:03Z</time>
      </trkpt>
      <trkpt lat="43.54322" lon="1.48033">
        <ele>214.031</ele>
        <time>2020-04-06T15:23:09Z</time>
      </trkpt>
      <trkpt lat="43.54319" lon="1.48026">
        <ele>214.042</ele>
        <time>2020-04-06T15:23:14Z</time>
      </trkpt>
      <trkpt lat="43.54316" lon="1.48022">
        <ele>214.06</ele>
        <time>2020-04-06T15:23:20Z</time>
      </trkpt>
      <trkpt lat="43.54312" lon="1.48018">
        <ele>214.082</ele>
        <time>2020-04-06T15:23:26Z</time>
      </trkpt>
      <trkpt lat="43.54308" lon="1.48008">
        <ele>214.101</ele>
        <time>2020-04-06T15:23:32Z</time>
      </trkpt>
      <trkpt lat="43.54305" lon="1.48001">
        <ele>214.112</ele>
        <time>2020-04-06T15:23:37Z</time>
      </trkpt>
      <trkpt lat="43.54302" lon="1.47992">
        <ele>214.121</ele>
        <time>2020-04-06T15:23:43Z</time>
      </trkpt>
      <trkpt lat="43.54299" lon="1.47985">
        <ele>214.134</ele>
        <time>2020-04-06T15:23:48Z</time>
      </trkpt>
      <trkpt lat="43.54297" lon="1.47978">
        <ele>214.159</ele>
        <time>2020-04-06T15:23:53Z</time>
      </trkpt>
      <trkpt lat="43.54294" lon="1.47971">
        <ele>214.199</ele>
        <time>2020-04-06T15:23:58Z</time>
      </trkpt>
      <trkpt lat="43.5429" lon="1.47963">
        <ele>214.265</ele>
        <time>2020-04-06T15:24:04Z</time>
      </trkpt>
      <trkpt lat="43.54286" lon="1.47956">
        <ele>214.335</ele>
        <time>2020-04-06T15:24:09Z</time>
      </trkpt>
      <trkpt lat="43.54283" lon="1.47949">
        <ele>214.437</ele>
        <time>2020-04-06T15:24:15Z</time>
      </trkpt>
      <trkpt lat="43.54278" lon="1.47946">
        <ele>214.55</ele>
        <time>2020-04-06T15:24:21Z</time>
      </trkpt>
      <trkpt lat="43.54273" lon="1.47944">
        <ele>214.653</ele>
        <time>2020-04-06T15:24:26Z</time>
      </trkpt>
      <trkpt lat="43.54269" lon="1.47946">
        <ele>214.77</ele>
        <time>2020-04-06T15:24:32Z</time>
      </trkpt>
      <trkpt lat="43.54262" lon="1.47949">
        <ele>214.872</ele>
        <time>2020-04-06T15:24:38Z</time>
      </trkpt>
      <trkpt lat="43.54258" lon="1.47947">
        <ele>214.965</ele>
        <time>2020-04-06T15:24:44Z</time>
      </trkpt>
      <trkpt lat="43.54254" lon="1.47946">
        <ele>215.039</ele>
        <time>2020-04-06T15:24:49Z</time>
      </trkpt>
      <trkpt lat="43.54248" lon="1.47947">
        <ele>215.105</ele>
        <time>2020-04-06T15:24:54Z</time>
      </trkpt>
      <trkpt lat="43.54242" lon="1.47949">
        <ele>215.178</ele>
        <time>2020-04-06T15:25:00Z</time>
      </trkpt>
      <trkpt lat="43.54237" lon="1.47953">
        <ele>215.231</ele>
        <time>2020-04-06T15:25:05Z</time>
      </trkpt>
      <trkpt lat="43.54234" lon="1.47964">
        <ele>215.291</ele>
        <time>2020-04-06T15:25:11Z</time>
      </trkpt>
      <trkpt lat="43.54231" lon="1.47969">
        <ele>215.341</ele>
        <time>2020-04-06T15:25:16Z</time>
      </trkpt>
      <trkpt lat="43.54229" lon="1.47979">
        <ele>215.396</ele>
        <time>2020-04-06T15:25:22Z</time>
      </trkpt>
      <trkpt lat="43.54227" lon="1.47987">
        <ele>215.446</ele>
        <time>2020-04-06T15:25:28Z</time>
      </trkpt>
      <trkpt lat="43.54225" lon="1.47995">
        <ele>215.494</ele>
        <time>2020-04-06T15:25:34Z</time>
      </trkpt>
      <trkpt lat="43.54223" lon="1.48002">
        <ele>215.536</ele>
        <time>2020-04-06T15:25:39Z</time>
      </trkpt>
      <trkpt lat="43.54222" lon="1.4801">
        <ele>215.586</ele>
        <time>2020-04-06T15:25:45Z</time>
      </trkpt>
      <trkpt lat="43.54226" lon="1.48018">
        <ele>215.631</ele>
        <time>2020-04-06T15:25:50Z</time>
      </trkpt>
      <trkpt lat="43.5423" lon="1.48024">
        <ele>215.687</ele>
        <time>2020-04-06T15:25:56Z</time>
      </trkpt>
      <trkpt lat="43.54233" lon="1.48034">
        <ele>215.748</ele>
        <time>2020-04-06T15:26:02Z</time>
      </trkpt>
      <trkpt lat="43.54235" lon="1.48044">
        <ele>215.814</ele>
        <time>2020-04-06T15:26:08Z</time>
      </trkpt>
      <trkpt lat="43.54236" lon="1.48048">
        <ele>215.868</ele>
        <time>2020-04-06T15:26:13Z</time>
      </trkpt>
      <trkpt lat="43.54239" lon="1.48055">
        <ele>215.929</ele>
        <time>2020-04-06T15:26:19Z</time>
      </trkpt>
      <trkpt lat="43.54241" lon="1.48059">
        <ele>215.975</ele>
        <time>2020-04-06T15:26:24Z</time>
      </trkpt>
      <trkpt lat="43.54243" lon="1.48064">
        <ele>216.025</ele>
        <time>2020-04-06T15:26:30Z</time>
      </trkpt>
      <trkpt lat="43.54242" lon="1.48065">
        <ele>216.049</ele>
        <time>2020-04-06T15:26:35Z</time>
      </trkpt>
      <trkpt lat="43.54238" lon="1.48069">
        <ele>216.074</ele>
        <time>2020-04-06T15:26:41Z</time>
      </trkpt>
      <trkpt lat="43.54229" lon="1.48076">
        <ele>216.124</ele>
        <time>2020-04-06T15:26:47Z</time>
      </trkpt>
      <trkpt lat="43.54224" lon="1.4808">
        <ele>216.174</ele>
        <time>2020-04-06T15:26:53Z</time>
      </trkpt>
      <trkpt lat="43.54219" lon="1.4809">
        <ele>216.226</ele>
        <time>2020-04-06T15:26:58Z</time>
      </trkpt>
      <trkpt lat="43.54217" lon="1.48093">
        <ele>216.261</ele>
        <time>2020-04-06T15:27:03Z</time>
      </trkpt>
      <trkpt lat="43.54218" lon="1.48098">
        <ele>216.302</ele>
        <time>2020-04-06T15:27:08Z</time>
      </trkpt>
      <trkpt lat="43.5422" lon="1.48108">
        <ele>216.352</ele>
        <time>2020-04-06T15:27:14Z</time>
      </trkpt>
      <trkpt lat="43.5422" lon="1.48118">
        <ele>216.385</ele>
        <time>2020-04-06T15:27:19Z</time>
      </trkpt>
      <trkpt lat="43.54218" lon="1.48127">
        <ele>216.421</ele>
        <time>2020-04-06T15:27:25Z</time>
      </trkpt>
      <trkpt lat="43.54211" lon="1.48128">
        <ele>216.447</ele>
        <time>2020-04-06T15:27:31Z</time>
      </trkpt>
      <trkpt lat="43.54204" lon="1.48131">
        <ele>216.468</ele>
        <time>2020-04-06T15:27:37Z</time>
      </trkpt>
      <trkpt lat="43.54199" lon="1.48133">
        <ele>216.48</ele>
        <time>2020-04-06T15:27:42Z</time>
      </trkpt>
      <trkpt lat="43.54194" lon="1.48134">
        <ele>216.489</ele>
        <time>2020-04-06T15:27:48Z</time>
      </trkpt>
      <trkpt lat="43.5419" lon="1.48135">
        <ele>216.49</ele>
        <time>2020-04-06T15:27:54Z</time>
      </trkpt>
      <trkpt lat="43.54185" lon="1.48138">
        <ele>216.481</ele>
        <time>2020-04-06T15:28:00Z</time>
      </trkpt>
      <trkpt lat="43.54181" lon="1.48139">
        <ele>216.464</ele>
        <time>2020-04-06T15:28:06Z</time>
      </trkpt>
      <trkpt lat="43.54176" lon="1.48139">
        <ele>216.448</ele>
        <time>2020-04-06T15:28:11Z</time>
      </trkpt>
      <trkpt lat="43.54169" lon="1.48141">
        <ele>216.426</ele>
        <time>2020-04-06T15:28:17Z</time>
      </trkpt>
      <trkpt lat="43.54164" lon="1.48142">
        <ele>216.406</ele>
        <time>2020-04-06T15:28:22Z</time>
      </trkpt>
      <trkpt lat="43.54157" lon="1.48142">
        <ele>216.384</ele>
        <time>2020-04-06T15:28:28Z</time>
      </trkpt>
      <trkpt lat="43.54153" lon="1.48141">
        <ele>216.368</ele>
        <time>2020-04-06T15:28:33Z</time>
      </trkpt>
      <trkpt lat="43.54148" lon="1.48138">
        <ele>216.351</ele>
        <time>2020-04-06T15:28:39Z</time>
      </trkpt>
      <trkpt lat="43.54145" lon="1.48133">
        <ele>216.345</ele>
        <time>2020-04-06T15:28:44Z</time>
      </trkpt>
      <trkpt lat="43.54142" lon="1.48128">
        <ele>216.344</ele>
        <time>2020-04-06T15:28:49Z</time>
      </trkpt>
      <trkpt lat="43.54137" lon="1.48121">
        <ele>216.343</ele>
        <time>2020-04-06T15:28:55Z</time>
      </trkpt>
      <trkpt lat="43.54134" lon="1.48117">
        <ele>216.342</ele>
        <time>2020-04-06T15:29:01Z</time>
      </trkpt>
      <trkpt lat="43.54134" lon="1.48119">
        <ele>216.345</ele>
        <time>2020-04-06T15:29:07Z</time>
      </trkpt>
      <trkpt lat="43.54136" lon="1.48124">
        <ele>216.345</ele>
        <time>2020-04-06T15:29:12Z</time>
      </trkpt>
      <trkpt lat="43.54139" lon="1.48131">
        <ele>216.345</ele>
        <time>2020-04-06T15:29:18Z</time>
      </trkpt>
      <trkpt lat="43.54141" lon="1.48138">
        <ele>216.345</ele>
        <time>2020-04-06T15:29:24Z</time>
      </trkpt>
      <trkpt lat="43.54143" lon="1.48146">
        <ele>216.345</ele>
        <time>2020-04-06T15:29:29Z</time>
      </trkpt>
      <trkpt lat="43.54144" lon="1.48149">
        <ele>216.351</ele>
        <time>2020-04-06T15:29:34Z</time>
      </trkpt>
      <trkpt lat="43.54142" lon="1.48152">
        <ele>216.367</ele>
        <time>2020-04-06T15:29:40Z</time>
      </trkpt>
      <trkpt lat="43.54138" lon="1.48153">
        <ele>216.375</ele>
        <time>2020-04-06T15:29:45Z</time>
      </trkpt>
      <trkpt lat="43.54131" lon="1.48155">
        <ele>216.383</ele>
        <time>2020-04-06T15:29:50Z</time>
      </trkpt>
      <trkpt lat="43.54123" lon="1.48155">
        <ele>216.395</ele>
        <time>2020-04-06T15:29:56Z</time>
      </trkpt>
      <trkpt lat="43.54117" lon="1.48155">
        <ele>216.405</ele>
        <time>2020-04-06T15:30:02Z</time>
      </trkpt>
      <trkpt lat="43.54112" lon="1.48155">
        <ele>216.413</ele>
        <time>2020-04-06T15:30:07Z</time>
      </trkpt>
      <trkpt lat="43.54106" lon="1.48155">
        <ele>216.421</ele>
        <time>2020-04-06T15:30:13Z</time>
      </trkpt>
      <trkpt lat="43.541" lon="1.48154">
        <ele>216.428</ele>
        <time>2020-04-06T15:30:19Z</time>
      </trkpt>
      <trkpt lat="43.54096" lon="1.48155">
        <ele>216.433</ele>
        <time>2020-04-06T15:30:24Z</time>
      </trkpt>
      <trkpt lat="43.54094" lon="1.48155">
        <ele>216.44</ele>
        <time>2020-04-06T15:30:30Z</time>
      </trkpt>
      <trkpt lat="43.54092" lon="1.48157">
        <ele>216.461</ele>
        <time>2020-04-06T15:30:35Z</time>
      </trkpt>
      <trkpt lat="43.54092" lon="1.48159">
        <ele>216.487</ele>
        <time>2020-04-06T15:30:41Z</time>
      </trkpt>
      <trkpt lat="43.54094" lon="1.48167">
        <ele>216.52</ele>
        <time>2020-04-06T15:30:47Z</time>
      </trkpt>
      <trkpt lat="43.54094" lon="1.48177">
        <ele>216.547</ele>
        <time>2020-04-06T15:30:53Z</time>
      </trkpt>
      <trkpt lat="43.54094" lon="1.48179">
        <ele>216.573</ele>
        <time>2020-04-06T15:30:58Z</time>
      </trkpt>
      <trkpt lat="43.54096" lon="1.48184">
        <ele>216.617</ele>
        <time>2020-04-06T15:31:04Z</time>
      </trkpt>
      <trkpt lat="43.54098" lon="1.48185">
        <ele>216.65</ele>
        <time>2020-04-06T15:31:09Z</time>
      </trkpt>
      <trkpt lat="43.54101" lon="1.4819">
        <ele>216.705</ele>
        <time>2020-04-06T15:31:15Z</time>
      </trkpt>
      <trkpt lat="43.54102" lon="1.48192">
        <ele>216.728</ele>
        <time>2020-04-06T15:31:21Z</time>
      </trkpt>
      <trkpt lat="43.54106" lon="1.48196">
        <ele>216.777</ele>
        <time>2020-04-06T15:31:26Z</time>
      </trkpt>
      <trkpt lat="43.54104" lon="1.48202">
        <ele>216.789</ele>
        <time>2020-04-06T15:31:32Z</time>
      </trkpt>
      <trkpt lat="43.54104" lon="1.48202">
        <ele>216.792</ele>
        <time>2020-04-06T15:31:37Z</time>
      </trkpt>
      <trkpt lat="43.54105" lon="1.48203">
        <ele>216.797</ele>
        <time>2020-04-06T15:31:43Z</time>
      </trkpt>
      <trkpt lat="43.54106" lon="1.48209">
        <ele>216.83</ele>
        <time>2020-04-06T15:31:48Z</time>
      </trkpt>
      <trkpt lat="43.54108" lon="1.48218">
        <ele>216.873</ele>
        <time>2020-04-06T15:31:54Z</time>
      </trkpt>
      <trkpt lat="43.54112" lon="1.48226">
        <ele>216.913</ele>
        <time>2020-04-06T15:32:00Z</time>
      </trkpt>
      <trkpt lat="43.54113" lon="1.48235">
        <ele>216.952</ele>
        <time>2020-04-06T15:32:06Z</time>
      </trkpt>
      <trkpt lat="43.54111" lon="1.48243">
        <ele>216.987</ele>
        <time>2020-04-06T15:32:12Z</time>
      </trkpt>
      <trkpt lat="43.54109" lon="1.4825">
        <ele>217.016</ele>
        <time>2020-04-06T15:32:18Z</time>
      </trkpt>
      <trkpt lat="43.54104" lon="1.48257">
        <ele>217.043</ele>
        <time>2020-04-06T15:32:24Z</time>
      </trkpt>
      <trkpt lat="43.54101" lon="1.48263">
        <ele>217.068</ele>
        <time>2020-04-06T15:32:30Z</time>
      </trkpt>
      <trkpt lat="43.54098" lon="1.48267">
        <ele>217.089</ele>
        <time>2020-04-06T15:32:35Z</time>
      </trkpt>
      <trkpt lat="43.54096" lon="1.4827">
        <ele>217.106</ele>
        <time>2020-04-06T15:32:40Z</time>
      </trkpt>
      <trkpt lat="43.54097" lon="1.48276">
        <ele>217.129</ele>
        <time>2020-04-06T15:32:46Z</time>
      </trkpt>
      <trkpt lat="43.54101" lon="1.48286">
        <ele>217.156</ele>
        <time>2020-04-06T15:32:52Z</time>
      </trkpt>
      <trkpt lat="43.54099" lon="1.48291">
        <ele>217.181</ele>
        <time>2020-04-06T15:32:58Z</time>
      </trkpt>
      <trkpt lat="43.54096" lon="1.48297">
        <ele>217.203</ele>
        <time>2020-04-06T15:33:04Z</time>
      </trkpt>
      <trkpt lat="43.54094" lon="1.48305">
        <ele>217.22</ele>
        <time>2020-04-06T15:33:10Z</time>
      </trkpt>
      <trkpt lat="43.54093" lon="1.48303">
        <ele>217.226</ele>
        <time>2020-04-06T15:33:15Z</time>
      </trkpt>
      <trkpt lat="43.54093" lon="1.48305">
        <ele>217.227</ele>
        <time>2020-04-06T15:33:20Z</time>
      </trkpt>
      <trkpt lat="43.54095" lon="1.48313">
        <ele>217.222</ele>
        <time>2020-04-06T15:33:26Z</time>
      </trkpt>
      <trkpt lat="43.54098" lon="1.48323">
        <ele>217.205</ele>
        <time>2020-04-06T15:33:32Z</time>
      </trkpt>
      <trkpt lat="43.54102" lon="1.48333">
        <ele>217.18</ele>
        <time>2020-04-06T15:33:38Z</time>
      </trkpt>
      <trkpt lat="43.54107" lon="1.48337">
        <ele>217.16</ele>
        <time>2020-04-06T15:33:43Z</time>
      </trkpt>
      <trkpt lat="43.5411" lon="1.48339">
        <ele>217.134</ele>
        <time>2020-04-06T15:33:49Z</time>
      </trkpt>
      <trkpt lat="43.54111" lon="1.48345">
        <ele>217.105</ele>
        <time>2020-04-06T15:33:55Z</time>
      </trkpt>
      <trkpt lat="43.54113" lon="1.48355">
        <ele>217.075</ele>
        <time>2020-04-06T15:34:01Z</time>
      </trkpt>
      <trkpt lat="43.54112" lon="1.48358">
        <ele>217.044</ele>
        <time>2020-04-06T15:34:07Z</time>
      </trkpt>
      <trkpt lat="43.54113" lon="1.48371">
        <ele>217.015</ele>
        <time>2020-04-06T15:34:13Z</time>
      </trkpt>
      <trkpt lat="43.54112" lon="1.48376">
        <ele>216.988</ele>
        <time>2020-04-06T15:34:19Z</time>
      </trkpt>
      <trkpt lat="43.54113" lon="1.48377">
        <ele>216.971</ele>
        <time>2020-04-06T15:34:25Z</time>
      </trkpt>
      <trkpt lat="43.54115" lon="1.48381">
        <ele>216.954</ele>
        <time>2020-04-06T15:34:31Z</time>
      </trkpt>
      <trkpt lat="43.54117" lon="1.48387">
        <ele>216.942</ele>
        <time>2020-04-06T15:34:36Z</time>
      </trkpt>
      <trkpt lat="43.5412" lon="1.48395">
        <ele>216.929</ele>
        <time>2020-04-06T15:34:42Z</time>
      </trkpt>
      <trkpt lat="43.54124" lon="1.48403">
        <ele>216.917</ele>
        <time>2020-04-06T15:34:48Z</time>
      </trkpt>
      <trkpt lat="43.54126" lon="1.4841">
        <ele>216.914</ele>
        <time>2020-04-06T15:34:53Z</time>
      </trkpt>
      <trkpt lat="43.54124" lon="1.48415">
        <ele>216.913</ele>
        <time>2020-04-06T15:34:58Z</time>
      </trkpt>
      <trkpt lat="43.54125" lon="1.48421">
        <ele>216.902</ele>
        <time>2020-04-06T15:35:04Z</time>
      </trkpt>
      <trkpt lat="43.54127" lon="1.48434">
        <ele>216.88</ele>
        <time>2020-04-06T15:35:10Z</time>
      </trkpt>
      <trkpt lat="43.54126" lon="1.48448">
        <ele>216.848</ele>
        <time>2020-04-06T15:35:16Z</time>
      </trkpt>
      <trkpt lat="43.54124" lon="1.48463">
        <ele>216.806</ele>
        <time>2020-04-06T15:35:22Z</time>
      </trkpt>
      <trkpt lat="43.5412" lon="1.48475">
        <ele>216.766</ele>
        <time>2020-04-06T15:35:27Z</time>
      </trkpt>
      <trkpt lat="43.54117" lon="1.4849">
        <ele>216.728</ele>
        <time>2020-04-06T15:35:33Z</time>
      </trkpt>
      <trkpt lat="43.54116" lon="1.48498">
        <ele>216.709</ele>
        <time>2020-04-06T15:35:38Z</time>
      </trkpt>
      <trkpt lat="43.54114" lon="1.48505">
        <ele>216.688</ele>
        <time>2020-04-06T15:35:44Z</time>
      </trkpt>
      <trkpt lat="43.54113" lon="1.48513">
        <ele>216.676</ele>
        <time>2020-04-06T15:35:49Z</time>
      </trkpt>
      <trkpt lat="43.54111" lon="1.48521">
        <ele>216.658</ele>
        <time>2020-04-06T15:35:55Z</time>
      </trkpt>
      <trkpt lat="43.5411" lon="1.4853">
        <ele>216.635</ele>
        <time>2020-04-06T15:36:01Z</time>
      </trkpt>
      <trkpt lat="43.5411" lon="1.48534">
        <ele>216.612</ele>
        <time>2020-04-06T15:36:06Z</time>
      </trkpt>
      <trkpt lat="43.54109" lon="1.48543">
        <ele>216.571</ele>
        <time>2020-04-06T15:36:12Z</time>
      </trkpt>
      <trkpt lat="43.54108" lon="1.48553">
        <ele>216.535</ele>
        <time>2020-04-06T15:36:17Z</time>
      </trkpt>
      <trkpt lat="43.54105" lon="1.4856">
        <ele>216.494</ele>
        <time>2020-04-06T15:36:22Z</time>
      </trkpt>
      <trkpt lat="43.54105" lon="1.48567">
        <ele>216.445</ele>
        <time>2020-04-06T15:36:27Z</time>
      </trkpt>
      <trkpt lat="43.54104" lon="1.48574">
        <ele>216.37</ele>
        <time>2020-04-06T15:36:33Z</time>
      </trkpt>
      <trkpt lat="43.54103" lon="1.48581">
        <ele>216.295</ele>
        <time>2020-04-06T15:36:38Z</time>
      </trkpt>
      <trkpt lat="43.541" lon="1.48593">
        <ele>216.22</ele>
        <time>2020-04-06T15:36:43Z</time>
      </trkpt>
      <trkpt lat="43.54099" lon="1.48603">
        <ele>216.128</ele>
        <time>2020-04-06T15:36:49Z</time>
      </trkpt>
      <trkpt lat="43.54098" lon="1.48609">
        <ele>216.055</ele>
        <time>2020-04-06T15:36:54Z</time>
      </trkpt>
      <trkpt lat="43.54096" lon="1.48618">
        <ele>215.974</ele>
        <time>2020-04-06T15:37:00Z</time>
      </trkpt>
      <trkpt lat="43.54097" lon="1.48624">
        <ele>215.893</ele>
        <time>2020-04-06T15:37:06Z</time>
      </trkpt>
      <trkpt lat="43.54099" lon="1.48631">
        <ele>215.824</ele>
        <time>2020-04-06T15:37:11Z</time>
      </trkpt>
      <trkpt lat="43.54103" lon="1.48637">
        <ele>215.745</ele>
        <time>2020-04-06T15:37:17Z</time>
      </trkpt>
      <trkpt lat="43.54105" lon="1.48641">
        <ele>215.685</ele>
        <time>2020-04-06T15:37:22Z</time>
      </trkpt>
      <trkpt lat="43.54106" lon="1.48657">
        <ele>215.618</ele>
        <time>2020-04-06T15:37:28Z</time>
      </trkpt>
      <trkpt lat="43.54104" lon="1.48667">
        <ele>215.589</ele>
        <time>2020-04-06T15:37:33Z</time>
      </trkpt>
      <trkpt lat="43.54104" lon="1.48669">
        <ele>215.567</ele>
        <time>2020-04-06T15:37:38Z</time>
      </trkpt>
      <trkpt lat="43.54104" lon="1.48681">
        <ele>215.528</ele>
        <time>2020-04-06T15:37:44Z</time>
      </trkpt>
      <trkpt lat="43.54105" lon="1.48688">
        <ele>215.491</ele>
        <time>2020-04-06T15:37:50Z</time>
      </trkpt>
      <trkpt lat="43.54105" lon="1.48697">
        <ele>215.464</ele>
        <time>2020-04-06T15:37:56Z</time>
      </trkpt>
      <trkpt lat="43.54106" lon="1.487">
        <ele>215.441</ele>
        <time>2020-04-06T15:38:02Z</time>
      </trkpt>
      <trkpt lat="43.54108" lon="1.48707">
        <ele>215.415</ele>
        <time>2020-04-06T15:38:07Z</time>
      </trkpt>
      <trkpt lat="43.54109" lon="1.48721">
        <ele>215.396</ele>
        <time>2020-04-06T15:38:13Z</time>
      </trkpt>
      <trkpt lat="43.54109" lon="1.48728">
        <ele>215.391</ele>
        <time>2020-04-06T15:38:19Z</time>
      </trkpt>
      <trkpt lat="43.54108" lon="1.48736">
        <ele>215.394</ele>
        <time>2020-04-06T15:38:25Z</time>
      </trkpt>
      <trkpt lat="43.54107" lon="1.48751">
        <ele>215.4</ele>
        <time>2020-04-06T15:38:31Z</time>
      </trkpt>
      <trkpt lat="43.54108" lon="1.48754">
        <ele>215.409</ele>
        <time>2020-04-06T15:38:36Z</time>
      </trkpt>
      <trkpt lat="43.54109" lon="1.48759">
        <ele>215.419</ele>
        <time>2020-04-06T15:38:42Z</time>
      </trkpt>
      <trkpt lat="43.54111" lon="1.48761">
        <ele>215.423</ele>
        <time>2020-04-06T15:38:48Z</time>
      </trkpt>
      <trkpt lat="43.5411" lon="1.48779">
        <ele>215.423</ele>
        <time>2020-04-06T15:38:53Z</time>
      </trkpt>
      <trkpt lat="43.54109" lon="1.48794">
        <ele>215.421</ele>
        <time>2020-04-06T15:38:59Z</time>
      </trkpt>
      <trkpt lat="43.54108" lon="1.48799">
        <ele>215.414</ele>
        <time>2020-04-06T15:39:05Z</time>
      </trkpt>
      <trkpt lat="43.54108" lon="1.48809">
        <ele>215.397</ele>
        <time>2020-04-06T15:39:11Z</time>
      </trkpt>
      <trkpt lat="43.5411" lon="1.4882">
        <ele>215.378</ele>
        <time>2020-04-06T15:39:17Z</time>
      </trkpt>
      <trkpt lat="43.5411" lon="1.48825">
        <ele>215.369</ele>
        <time>2020-04-06T15:39:23Z</time>
      </trkpt>
      <trkpt lat="43.54111" lon="1.48831">
        <ele>215.36</ele>
        <time>2020-04-06T15:39:28Z</time>
      </trkpt>
      <trkpt lat="43.54112" lon="1.48838">
        <ele>215.353</ele>
        <time>2020-04-06T15:39:34Z</time>
      </trkpt>
      <trkpt lat="43.54111" lon="1.48851">
        <ele>215.329</ele>
        <time>2020-04-06T15:39:39Z</time>
      </trkpt>
      <trkpt lat="43.54111" lon="1.4886">
        <ele>215.298</ele>
        <time>2020-04-06T15:39:44Z</time>
      </trkpt>
      <trkpt lat="43.54111" lon="1.48872">
        <ele>215.257</ele>
        <time>2020-04-06T15:39:50Z</time>
      </trkpt>
      <trkpt lat="43.5411" lon="1.48881">
        <ele>215.225</ele>
        <time>2020-04-06T15:39:55Z</time>
      </trkpt>
      <trkpt lat="43.54107" lon="1.48892">
        <ele>215.183</ele>
        <time>2020-04-06T15:40:01Z</time>
      </trkpt>
      <trkpt lat="43.54105" lon="1.48901">
        <ele>215.134</ele>
        <time>2020-04-06T15:40:07Z</time>
      </trkpt>
      <trkpt lat="43.54107" lon="1.48908">
        <ele>215.078</ele>
        <time>2020-04-06T15:40:13Z</time>
      </trkpt>
      <trkpt lat="43.54109" lon="1.48914">
        <ele>215.03</ele>
        <time>2020-04-06T15:40:18Z</time>
      </trkpt>
      <trkpt lat="43.54111" lon="1.48921">
        <ele>214.971</ele>
        <time>2020-04-06T15:40:24Z</time>
      </trkpt>
      <trkpt lat="43.54114" lon="1.48928">
        <ele>214.911</ele>
        <time>2020-04-06T15:40:30Z</time>
      </trkpt>
      <trkpt lat="43.54117" lon="1.48934">
        <ele>214.857</ele>
        <time>2020-04-06T15:40:35Z</time>
      </trkpt>
      <trkpt lat="43.54119" lon="1.48942">
        <ele>214.79</ele>
        <time>2020-04-06T15:40:41Z</time>
      </trkpt>
      <trkpt lat="43.5412" lon="1.48947">
        <ele>214.731</ele>
        <time>2020-04-06T15:40:46Z</time>
      </trkpt>
      <trkpt lat="43.54123" lon="1.48955">
        <ele>214.656</ele>
        <time>2020-04-06T15:40:52Z</time>
      </trkpt>
      <trkpt lat="43.54127" lon="1.48963">
        <ele>214.578</ele>
        <time>2020-04-06T15:40:58Z</time>
      </trkpt>
      <trkpt lat="43.54129" lon="1.4897">
        <ele>214.512</ele>
        <time>2020-04-06T15:41:03Z</time>
      </trkpt>
      <trkpt lat="43.54134" lon="1.48978">
        <ele>214.438</ele>
        <time>2020-04-06T15:41:09Z</time>
      </trkpt>
      <trkpt lat="43.54138" lon="1.48985">
        <ele>214.367</ele>
        <time>2020-04-06T15:41:15Z</time>
      </trkpt>
      <trkpt lat="43.54142" lon="1.48991">
        <ele>214.296</ele>
        <time>2020-04-06T15:41:21Z</time>
      </trkpt>
      <trkpt lat="43.54145" lon="1.48998">
        <ele>214.228</ele>
        <time>2020-04-06T15:41:27Z</time>
      </trkpt>
      <trkpt lat="43.54148" lon="1.49004">
        <ele>214.176</ele>
        <time>2020-04-06T15:41:32Z</time>
      </trkpt>
      <trkpt lat="43.54152" lon="1.49012">
        <ele>214.119</ele>
        <time>2020-04-06T15:41:38Z</time>
      </trkpt>
      <trkpt lat="43.54157" lon="1.49017">
        <ele>214.06</ele>
        <time>2020-04-06T15:41:44Z</time>
      </trkpt>
      <trkpt lat="43.54161" lon="1.49021">
        <ele>214.01</ele>
        <time>2020-04-06T15:41:49Z</time>
      </trkpt>
      <trkpt lat="43.54165" lon="1.49025">
        <ele>213.961</ele>
        <time>2020-04-06T15:41:54Z</time>
      </trkpt>
      <trkpt lat="43.54171" lon="1.49031">
        <ele>213.903</ele>
        <time>2020-04-06T15:42:00Z</time>
      </trkpt>
      <trkpt lat="43.54175" lon="1.49036">
        <ele>213.854</ele>
        <time>2020-04-06T15:42:05Z</time>
      </trkpt>
      <trkpt lat="43.54181" lon="1.49041">
        <ele>213.793</ele>
        <time>2020-04-06T15:42:11Z</time>
      </trkpt>
      <trkpt lat="43.54188" lon="1.49044">
        <ele>213.736</ele>
        <time>2020-04-06T15:42:17Z</time>
      </trkpt>
      <trkpt lat="43.54193" lon="1.49047">
        <ele>213.689</ele>
        <time>2020-04-06T15:42:22Z</time>
      </trkpt>
      <trkpt lat="43.54197" lon="1.49053">
        <ele>213.634</ele>
        <time>2020-04-06T15:42:28Z</time>
      </trkpt>
      <trkpt lat="43.54203" lon="1.49057">
        <ele>213.583</ele>
        <time>2020-04-06T15:42:34Z</time>
      </trkpt>
      <trkpt lat="43.54206" lon="1.49059">
        <ele>213.545</ele>
        <time>2020-04-06T15:42:40Z</time>
      </trkpt>
      <trkpt lat="43.54211" lon="1.4906">
        <ele>213.519</ele>
        <time>2020-04-06T15:42:45Z</time>
      </trkpt>
      <trkpt lat="43.54214" lon="1.4906">
        <ele>213.497</ele>
        <time>2020-04-06T15:42:50Z</time>
      </trkpt>
      <trkpt lat="43.54217" lon="1.49061">
        <ele>213.477</ele>
        <time>2020-04-06T15:42:55Z</time>
      </trkpt>
      <trkpt lat="43.54224" lon="1.49055">
        <ele>213.466</ele>
        <time>2020-04-06T15:43:01Z</time>
      </trkpt>
      <trkpt lat="43.5423" lon="1.49057">
        <ele>213.463</ele>
        <time>2020-04-06T15:43:06Z</time>
      </trkpt>
      <trkpt lat="43.54237" lon="1.49056">
        <ele>213.456</ele>
        <time>2020-04-06T15:43:12Z</time>
      </trkpt>
      <trkpt lat="43.54246" lon="1.4905">
        <ele>213.451</ele>
        <time>2020-04-06T15:43:18Z</time>
      </trkpt>
      <trkpt lat="43.54246" lon="1.49045">
        <ele>213.454</ele>
        <time>2020-04-06T15:43:23Z</time>
      </trkpt>
      <trkpt lat="43.54251" lon="1.49043">
        <ele>213.464</ele>
        <time>2020-04-06T15:43:28Z</time>
      </trkpt>
      <trkpt lat="43.54259" lon="1.49043">
        <ele>213.479</ele>
        <time>2020-04-06T15:43:33Z</time>
      </trkpt>
      <trkpt lat="43.54265" lon="1.49039">
        <ele>213.502</ele>
        <time>2020-04-06T15:43:39Z</time>
      </trkpt>
      <trkpt lat="43.54271" lon="1.49038">
        <ele>213.527</ele>
        <time>2020-04-06T15:43:45Z</time>
      </trkpt>
      <trkpt lat="43.54277" lon="1.49034">
        <ele>213.557</ele>
        <time>2020-04-06T15:43:51Z</time>
      </trkpt>
      <trkpt lat="43.5428" lon="1.49031">
        <ele>213.584</ele>
        <time>2020-04-06T15:43:56Z</time>
      </trkpt>
      <trkpt lat="43.54284" lon="1.4903">
        <ele>213.603</ele>
        <time>2020-04-06T15:44:02Z</time>
      </trkpt>
      <trkpt lat="43.54285" lon="1.49029">
        <ele>213.618</ele>
        <time>2020-04-06T15:44:08Z</time>
      </trkpt>
      <trkpt lat="43.54289" lon="1.49029">
        <ele>213.645</ele>
        <time>2020-04-06T15:44:13Z</time>
      </trkpt>
      <trkpt lat="43.54291" lon="1.49026">
        <ele>213.667</ele>
        <time>2020-04-06T15:44:19Z</time>
      </trkpt>
      <trkpt lat="43.54297" lon="1.49022">
        <ele>213.677</ele>
        <time>2020-04-06T15:44:24Z</time>
      </trkpt>
      <trkpt lat="43.54307" lon="1.4902">
        <ele>213.684</ele>
        <time>2020-04-06T15:44:30Z</time>
      </trkpt>
      <trkpt lat="43.54311" lon="1.49018">
        <ele>213.691</ele>
        <time>2020-04-06T15:44:35Z</time>
      </trkpt>
      <trkpt lat="43.54314" lon="1.49017">
        <ele>213.697</ele>
        <time>2020-04-06T15:44:41Z</time>
      </trkpt>
      <trkpt lat="43.54316" lon="1.49018">
        <ele>213.695</ele>
        <time>2020-04-06T15:44:46Z</time>
      </trkpt>
      <trkpt lat="43.54322" lon="1.49015">
        <ele>213.686</ele>
        <time>2020-04-06T15:44:52Z</time>
      </trkpt>
      <trkpt lat="43.54332" lon="1.49017">
        <ele>213.671</ele>
        <time>2020-04-06T15:44:58Z</time>
      </trkpt>
      <trkpt lat="43.54338" lon="1.49015">
        <ele>213.657</ele>
        <time>2020-04-06T15:45:04Z</time>
      </trkpt>
      <trkpt lat="43.54341" lon="1.49016">
        <ele>213.655</ele>
        <time>2020-04-06T15:45:10Z</time>
      </trkpt>
      <trkpt lat="43.54343" lon="1.49014">
        <ele>213.651</ele>
        <time>2020-04-06T15:45:15Z</time>
      </trkpt>
      <trkpt lat="43.54346" lon="1.49013">
        <ele>213.637</ele>
        <time>2020-04-06T15:45:21Z</time>
      </trkpt>
      <trkpt lat="43.54348" lon="1.49011">
        <ele>213.62</ele>
        <time>2020-04-06T15:45:26Z</time>
      </trkpt>
      <trkpt lat="43.54355" lon="1.49007">
        <ele>213.589</ele>
        <time>2020-04-06T15:45:32Z</time>
      </trkpt>
      <trkpt lat="43.5436" lon="1.49003">
        <ele>213.546</ele>
        <time>2020-04-06T15:45:38Z</time>
      </trkpt>
      <trkpt lat="43.54364" lon="1.49001">
        <ele>213.496</ele>
        <time>2020-04-06T15:45:43Z</time>
      </trkpt>
      <trkpt lat="43.54368" lon="1.48998">
        <ele>213.443</ele>
        <time>2020-04-06T15:45:48Z</time>
      </trkpt>
      <trkpt lat="43.54376" lon="1.48998">
        <ele>213.38</ele>
        <time>2020-04-06T15:45:54Z</time>
      </trkpt>
      <trkpt lat="43.54381" lon="1.48997">
        <ele>213.319</ele>
        <time>2020-04-06T15:46:00Z</time>
      </trkpt>
      <trkpt lat="43.54384" lon="1.48995">
        <ele>213.266</ele>
        <time>2020-04-06T15:46:06Z</time>
      </trkpt>
      <trkpt lat="43.5439" lon="1.4899">
        <ele>213.216</ele>
        <time>2020-04-06T15:46:11Z</time>
      </trkpt>
      <trkpt lat="43.54398" lon="1.48985">
        <ele>213.163</ele>
        <time>2020-04-06T15:46:17Z</time>
      </trkpt>
      <trkpt lat="43.54402" lon="1.48983">
        <ele>213.122</ele>
        <time>2020-04-06T15:46:22Z</time>
      </trkpt>
      <trkpt lat="43.54406" lon="1.4898">
        <ele>213.074</ele>
        <time>2020-04-06T15:46:28Z</time>
      </trkpt>
      <trkpt lat="43.54411" lon="1.48975">
        <ele>213.027</ele>
        <time>2020-04-06T15:46:34Z</time>
      </trkpt>
      <trkpt lat="43.54415" lon="1.48966">
        <ele>212.987</ele>
        <time>2020-04-06T15:46:40Z</time>
      </trkpt>
      <trkpt lat="43.54422" lon="1.48965">
        <ele>212.954</ele>
        <time>2020-04-06T15:46:45Z</time>
      </trkpt>
      <trkpt lat="43.54428" lon="1.48961">
        <ele>212.919</ele>
        <time>2020-04-06T15:46:51Z</time>
      </trkpt>
      <trkpt lat="43.54432" lon="1.48956">
        <ele>212.893</ele>
        <time>2020-04-06T15:46:57Z</time>
      </trkpt>
      <trkpt lat="43.54437" lon="1.48951">
        <ele>212.876</ele>
        <time>2020-04-06T15:47:02Z</time>
      </trkpt>
      <trkpt lat="43.5444" lon="1.48947">
        <ele>212.861</ele>
        <time>2020-04-06T15:47:08Z</time>
      </trkpt>
      <trkpt lat="43.54445" lon="1.48943">
        <ele>212.853</ele>
        <time>2020-04-06T15:47:13Z</time>
      </trkpt>
      <trkpt lat="43.54446" lon="1.48943">
        <ele>212.854</ele>
        <time>2020-04-06T15:47:18Z</time>
      </trkpt>
      <trkpt lat="43.54448" lon="1.48939">
        <ele>212.857</ele>
        <time>2020-04-06T15:47:24Z</time>
      </trkpt>
      <trkpt lat="43.54451" lon="1.48935">
        <ele>212.859</ele>
        <time>2020-04-06T15:47:29Z</time>
      </trkpt>
      <trkpt lat="43.54453" lon="1.48932">
        <ele>212.861</ele>
        <time>2020-04-06T15:47:35Z</time>
      </trkpt>
      <trkpt lat="43.5446" lon="1.48924">
        <ele>212.862</ele>
        <time>2020-04-06T15:47:41Z</time>
      </trkpt>
      <trkpt lat="43.54466" lon="1.48917">
        <ele>212.869</ele>
        <time>2020-04-06T15:47:47Z</time>
      </trkpt>
      <trkpt lat="43.54469" lon="1.48912">
        <ele>212.873</ele>
        <time>2020-04-06T15:47:52Z</time>
      </trkpt>
      <trkpt lat="43.54473" lon="1.48907">
        <ele>212.872</ele>
        <time>2020-04-06T15:47:58Z</time>
      </trkpt>
      <trkpt lat="43.54476" lon="1.48901">
        <ele>212.87</ele>
        <time>2020-04-06T15:48:03Z</time>
      </trkpt>
      <trkpt lat="43.54477" lon="1.48896">
        <ele>212.866</ele>
        <time>2020-04-06T15:48:09Z</time>
      </trkpt>
      <trkpt lat="43.54478" lon="1.48889">
        <ele>212.866</ele>
        <time>2020-04-06T15:48:15Z</time>
      </trkpt>
      <trkpt lat="43.54481" lon="1.48878">
        <ele>212.872</ele>
        <time>2020-04-06T15:48:21Z</time>
      </trkpt>
      <trkpt lat="43.54481" lon="1.48877">
        <ele>212.873</ele>
        <time>2020-04-06T15:48:26Z</time>
      </trkpt>
      <trkpt lat="43.54482" lon="1.48872">
        <ele>212.876</ele>
        <time>2020-04-06T15:48:32Z</time>
      </trkpt>
      <trkpt lat="43.54492" lon="1.48868">
        <ele>212.855</ele>
        <time>2020-04-06T15:48:38Z</time>
      </trkpt>
      <trkpt lat="43.54495" lon="1.48863">
        <ele>212.833</ele>
        <time>2020-04-06T15:48:43Z</time>
      </trkpt>
      <trkpt lat="43.54496" lon="1.48858">
        <ele>212.806</ele>
        <time>2020-04-06T15:48:48Z</time>
      </trkpt>
      <trkpt lat="43.54496" lon="1.48854">
        <ele>212.781</ele>
        <time>2020-04-06T15:48:54Z</time>
      </trkpt>
      <trkpt lat="43.54498" lon="1.48846">
        <ele>212.75</ele>
        <time>2020-04-06T15:49:00Z</time>
      </trkpt>
      <trkpt lat="43.54502" lon="1.48826">
        <ele>212.711</ele>
        <time>2020-04-06T15:49:06Z</time>
      </trkpt>
      <trkpt lat="43.54504" lon="1.4882">
        <ele>212.694</ele>
        <time>2020-04-06T15:49:12Z</time>
      </trkpt>
      <trkpt lat="43.54508" lon="1.48811">
        <ele>212.679</ele>
        <time>2020-04-06T15:49:17Z</time>
      </trkpt>
      <trkpt lat="43.5451" lon="1.48809">
        <ele>212.661</ele>
        <time>2020-04-06T15:49:23Z</time>
      </trkpt>
      <trkpt lat="43.54514" lon="1.48803">
        <ele>212.636</ele>
        <time>2020-04-06T15:49:29Z</time>
      </trkpt>
      <trkpt lat="43.54518" lon="1.48794">
        <ele>212.595</ele>
        <time>2020-04-06T15:49:35Z</time>
      </trkpt>
      <trkpt lat="43.54521" lon="1.48787">
        <ele>212.563</ele>
        <time>2020-04-06T15:49:40Z</time>
      </trkpt>
      <trkpt lat="43.54523" lon="1.48777">
        <ele>212.519</ele>
        <time>2020-04-06T15:49:46Z</time>
      </trkpt>
      <trkpt lat="43.54523" lon="1.48772">
        <ele>212.485</ele>
        <time>2020-04-06T15:49:52Z</time>
      </trkpt>
      <trkpt lat="43.54524" lon="1.48766">
        <ele>212.456</ele>
        <time>2020-04-06T15:49:57Z</time>
      </trkpt>
      <trkpt lat="43.54526" lon="1.48759">
        <ele>212.424</ele>
        <time>2020-04-06T15:50:03Z</time>
      </trkpt>
      <trkpt lat="43.54528" lon="1.48752">
        <ele>212.405</ele>
        <time>2020-04-06T15:50:09Z</time>
      </trkpt>
      <trkpt lat="43.54531" lon="1.48742">
        <ele>212.39</ele>
        <time>2020-04-06T15:50:15Z</time>
      </trkpt>
      <trkpt lat="43.54532" lon="1.48741">
        <ele>212.379</ele>
        <time>2020-04-06T15:50:20Z</time>
      </trkpt>
      <trkpt lat="43.54532" lon="1.4874">
        <ele>212.374</ele>
        <time>2020-04-06T15:50:26Z</time>
      </trkpt>
      <trkpt lat="43.54531" lon="1.4874">
        <ele>212.37</ele>
        <time>2020-04-06T15:50:31Z</time>
      </trkpt>
      <trkpt lat="43.54531" lon="1.4874">
        <ele>212.363</ele>
        <time>2020-04-06T15:50:37Z</time>
      </trkpt>
      <trkpt lat="43.54532" lon="1.48737">
        <ele>212.327</ele>
        <time>2020-04-06T15:50:43Z</time>
      </trkpt>
      <trkpt lat="43.54533" lon="1.48736">
        <ele>212.312</ele>
        <time>2020-04-06T15:50:48Z</time>
      </trkpt>
      <trkpt lat="43.54532" lon="1.48736">
        <ele>212.307</ele>
        <time>2020-04-06T15:50:53Z</time>
      </trkpt>
      <trkpt lat="43.54533" lon="1.48735">
        <ele>212.3</ele>
        <time>2020-04-06T15:50:59Z</time>
      </trkpt>
      <trkpt lat="43.54534" lon="1.48735">
        <ele>212.293</ele>
        <time>2020-04-06T15:51:05Z</time>
      </trkpt>
      <trkpt lat="43.54534" lon="1.48735">
        <ele>212.277</ele>
        <time>2020-04-06T15:51:11Z</time>
      </trkpt>
      <trkpt lat="43.54535" lon="1.48734">
        <ele>212.262</ele>
        <time>2020-04-06T15:51:16Z</time>
      </trkpt>
      <trkpt lat="43.54535" lon="1.48733">
        <ele>212.256</ele>
        <time>2020-04-06T15:51:22Z</time>
      </trkpt>
      <trkpt lat="43.54538" lon="1.48731">
        <ele>212.22</ele>
        <time>2020-04-06T15:51:28Z</time>
      </trkpt>
      <trkpt lat="43.54539" lon="1.48728">
        <ele>212.207</ele>
        <time>2020-04-06T15:51:33Z</time>
      </trkpt>
      <trkpt lat="43.5454" lon="1.48726">
        <ele>212.164</ele>
        <time>2020-04-06T15:51:39Z</time>
      </trkpt>
      <trkpt lat="43.54544" lon="1.48721">
        <ele>212.115</ele>
        <time>2020-04-06T15:51:44Z</time>
      </trkpt>
      <trkpt lat="43.54546" lon="1.48716">
        <ele>212.071</ele>
        <time>2020-04-06T15:51:50Z</time>
      </trkpt>
      <trkpt lat="43.54548" lon="1.48712">
        <ele>212.023</ele>
        <time>2020-04-06T15:51:55Z</time>
      </trkpt>
      <trkpt lat="43.54551" lon="1.48702">
        <ele>211.973</ele>
        <time>2020-04-06T15:52:01Z</time>
      </trkpt>
      <trkpt lat="43.54554" lon="1.48694">
        <ele>211.93</ele>
        <time>2020-04-06T15:52:07Z</time>
      </trkpt>
      <trkpt lat="43.54556" lon="1.48688">
        <ele>211.89</ele>
        <time>2020-04-06T15:52:13Z</time>
      </trkpt>
      <trkpt lat="43.54557" lon="1.48684">
        <ele>211.875</ele>
        <time>2020-04-06T15:52:18Z</time>
      </trkpt>
      <trkpt lat="43.54559" lon="1.48676">
        <ele>211.831</ele>
        <time>2020-04-06T15:52:24Z</time>
      </trkpt>
      <trkpt lat="43.54564" lon="1.48662">
        <ele>211.792</ele>
        <time>2020-04-06T15:52:29Z</time>
      </trkpt>
      <trkpt lat="43.54566" lon="1.48658">
        <ele>211.758</ele>
        <time>2020-04-06T15:52:34Z</time>
      </trkpt>
      <trkpt lat="43.54571" lon="1.48652">
        <ele>211.721</ele>
        <time>2020-04-06T15:52:40Z</time>
      </trkpt>
      <trkpt lat="43.54574" lon="1.48644">
        <ele>211.693</ele>
        <time>2020-04-06T15:52:45Z</time>
      </trkpt>
      <trkpt lat="43.54576" lon="1.48638">
        <ele>211.672</ele>
        <time>2020-04-06T15:52:50Z</time>
      </trkpt>
      <trkpt lat="43.54577" lon="1.48637">
        <ele>211.661</ele>
        <time>2020-04-06T15:52:55Z</time>
      </trkpt>
      <trkpt lat="43.54577" lon="1.48636">
        <ele>211.65</ele>
        <time>2020-04-06T15:53:01Z</time>
      </trkpt>
      <trkpt lat="43.54578" lon="1.48633">
        <ele>211.619</ele>
        <time>2020-04-06T15:53:06Z</time>
      </trkpt>
      <trkpt lat="43.5458" lon="1.48623">
        <ele>211.546</ele>
        <time>2020-04-06T15:53:12Z</time>
      </trkpt>
      <trkpt lat="43.54579" lon="1.48615">
        <ele>211.476</ele>
        <time>2020-04-06T15:53:18Z</time>
      </trkpt>
      <trkpt lat="43.54586" lon="1.4861">
        <ele>211.398</ele>
        <time>2020-04-06T15:53:24Z</time>
      </trkpt>
      <trkpt lat="43.54595" lon="1.4861">
        <ele>211.322</ele>
        <time>2020-04-06T15:53:29Z</time>
      </trkpt>
      <trkpt lat="43.546" lon="1.48602">
        <ele>211.249</ele>
        <time>2020-04-06T15:53:34Z</time>
      </trkpt>
      <trkpt lat="43.54602" lon="1.48589">
        <ele>211.183</ele>
        <time>2020-04-06T15:53:40Z</time>
      </trkpt>
      <trkpt lat="43.54605" lon="1.48584">
        <ele>211.141</ele>
        <time>2020-04-06T15:53:45Z</time>
      </trkpt>
      <trkpt lat="43.54607" lon="1.4858">
        <ele>211.114</ele>
        <time>2020-04-06T15:53:50Z</time>
      </trkpt>
      <trkpt lat="43.54612" lon="1.48572">
        <ele>211.064</ele>
        <time>2020-04-06T15:53:56Z</time>
      </trkpt>
      <trkpt lat="43.54617" lon="1.48569">
        <ele>211.025</ele>
        <time>2020-04-06T15:54:01Z</time>
      </trkpt>
      <trkpt lat="43.5462" lon="1.48564">
        <ele>210.988</ele>
        <time>2020-04-06T15:54:07Z</time>
      </trkpt>
      <trkpt lat="43.54623" lon="1.48554">
        <ele>210.959</ele>
        <time>2020-04-06T15:54:12Z</time>
      </trkpt>
      <trkpt lat="43.54629" lon="1.4855">
        <ele>210.93</ele>
        <time>2020-04-06T15:54:18Z</time>
      </trkpt>
      <trkpt lat="43.54633" lon="1.48548">
        <ele>210.914</ele>
        <time>2020-04-06T15:54:23Z</time>
      </trkpt>
      <trkpt lat="43.5464" lon="1.48545">
        <ele>210.9</ele>
        <time>2020-04-06T15:54:29Z</time>
      </trkpt>
      <trkpt lat="43.54646" lon="1.4854">
        <ele>210.894</ele>
        <time>2020-04-06T15:54:35Z</time>
      </trkpt>
      <trkpt lat="43.5465" lon="1.48536">
        <ele>210.893</ele>
        <time>2020-04-06T15:54:40Z</time>
      </trkpt>
      <trkpt lat="43.54655" lon="1.4853">
        <ele>210.898</ele>
        <time>2020-04-06T15:54:46Z</time>
      </trkpt>
      <trkpt lat="43.54661" lon="1.48526">
        <ele>210.906</ele>
        <time>2020-04-06T15:54:52Z</time>
      </trkpt>
      <trkpt lat="43.54666" lon="1.4852">
        <ele>210.909</ele>
        <time>2020-04-06T15:54:57Z</time>
      </trkpt>
      <trkpt lat="43.54672" lon="1.48515">
        <ele>210.913</ele>
        <time>2020-04-06T15:55:03Z</time>
      </trkpt>
      <trkpt lat="43.54674" lon="1.48513">
        <ele>210.91</ele>
        <time>2020-04-06T15:55:09Z</time>
      </trkpt>
      <trkpt lat="43.5468" lon="1.48506">
        <ele>210.901</ele>
        <time>2020-04-06T15:55:15Z</time>
      </trkpt>
      <trkpt lat="43.54687" lon="1.48502">
        <ele>210.893</ele>
        <time>2020-04-06T15:55:21Z</time>
      </trkpt>
      <trkpt lat="43.54692" lon="1.48498">
        <ele>210.89</ele>
        <time>2020-04-06T15:55:27Z</time>
      </trkpt>
      <trkpt lat="43.54697" lon="1.48498">
        <ele>210.884</ele>
        <time>2020-04-06T15:55:33Z</time>
      </trkpt>
      <trkpt lat="43.54701" lon="1.48498">
        <ele>210.868</ele>
        <time>2020-04-06T15:55:39Z</time>
      </trkpt>
      <trkpt lat="43.54702" lon="1.48496">
        <ele>210.854</ele>
        <time>2020-04-06T15:55:44Z</time>
      </trkpt>
      <trkpt lat="43.54707" lon="1.48492">
        <ele>210.817</ele>
        <time>2020-04-06T15:55:50Z</time>
      </trkpt>
      <trkpt lat="43.54713" lon="1.48487">
        <ele>210.771</ele>
        <time>2020-04-06T15:55:56Z</time>
      </trkpt>
      <trkpt lat="43.54721" lon="1.48483">
        <ele>210.725</ele>
        <time>2020-04-06T15:56:02Z</time>
      </trkpt>
      <trkpt lat="43.54727" lon="1.48479">
        <ele>210.681</ele>
        <time>2020-04-06T15:56:08Z</time>
      </trkpt>
      <trkpt lat="43.54731" lon="1.48476">
        <ele>210.644</ele>
        <time>2020-04-06T15:56:13Z</time>
      </trkpt>
      <trkpt lat="43.54735" lon="1.48472">
        <ele>210.602</ele>
        <time>2020-04-06T15:56:19Z</time>
      </trkpt>
      <trkpt lat="43.54745" lon="1.48469">
        <ele>210.586</ele>
        <time>2020-04-06T15:56:24Z</time>
      </trkpt>
      <trkpt lat="43.54748" lon="1.48468">
        <ele>210.575</ele>
        <time>2020-04-06T15:56:29Z</time>
      </trkpt>
      <trkpt lat="43.54751" lon="1.48464">
        <ele>210.564</ele>
        <time>2020-04-06T15:56:35Z</time>
      </trkpt>
      <trkpt lat="43.54755" lon="1.4846">
        <ele>210.545</ele>
        <time>2020-04-06T15:56:41Z</time>
      </trkpt>
      <trkpt lat="43.54761" lon="1.48455">
        <ele>210.515</ele>
        <time>2020-04-06T15:56:47Z</time>
      </trkpt>
      <trkpt lat="43.54765" lon="1.48451">
        <ele>210.471</ele>
        <time>2020-04-06T15:56:53Z</time>
      </trkpt>
      <trkpt lat="43.54771" lon="1.48448">
        <ele>210.419</ele>
        <time>2020-04-06T15:56:58Z</time>
      </trkpt>
      <trkpt lat="43.54775" lon="1.48446">
        <ele>210.351</ele>
        <time>2020-04-06T15:57:04Z</time>
      </trkpt>
      <trkpt lat="43.5478" lon="1.48446">
        <ele>210.275</ele>
        <time>2020-04-06T15:57:09Z</time>
      </trkpt>
      <trkpt lat="43.54786" lon="1.48446">
        <ele>210.178</ele>
        <time>2020-04-06T15:57:15Z</time>
      </trkpt>
      <trkpt lat="43.54787" lon="1.48445">
        <ele>210.118</ele>
        <time>2020-04-06T15:57:20Z</time>
      </trkpt>
      <trkpt lat="43.54789" lon="1.48444">
        <ele>210.092</ele>
        <time>2020-04-06T15:57:26Z</time>
      </trkpt>
      <trkpt lat="43.54795" lon="1.48434">
        <ele>210.029</ele>
        <time>2020-04-06T15:57:32Z</time>
      </trkpt>
      <trkpt lat="43.54796" lon="1.48429">
        <ele>209.979</ele>
        <time>2020-04-06T15:57:38Z</time>
      </trkpt>
      <trkpt lat="43.54799" lon="1.48419">
        <ele>209.915</ele>
        <time>2020-04-06T15:57:44Z</time>
      </trkpt>
      <trkpt lat="43.54805" lon="1.48413">
        <ele>209.847</ele>
        <time>2020-04-06T15:57:50Z</time>
      </trkpt>
      <trkpt lat="43.54814" lon="1.48412">
        <ele>209.777</ele>
        <time>2020-04-06T15:57:56Z</time>
      </trkpt>
      <trkpt lat="43.54817" lon="1.48408">
        <ele>209.714</ele>
        <time>2020-04-06T15:58:02Z</time>
      </trkpt>
      <trkpt lat="43.54823" lon="1.48404">
        <ele>209.658</ele>
        <time>2020-04-06T15:58:08Z</time>
      </trkpt>
      <trkpt lat="43.5483" lon="1.48403">
        <ele>209.619</ele>
        <time>2020-04-06T15:58:13Z</time>
      </trkpt>
      <trkpt lat="43.54835" lon="1.48398">
        <ele>209.581</ele>
        <time>2020-04-06T15:58:19Z</time>
      </trkpt>
      <trkpt lat="43.54842" lon="1.48395">
        <ele>209.546</ele>
        <time>2020-04-06T15:58:25Z</time>
      </trkpt>
      <trkpt lat="43.54846" lon="1.48392">
        <ele>209.514</ele>
        <time>2020-04-06T15:58:31Z</time>
      </trkpt>
      <trkpt lat="43.54851" lon="1.48389">
        <ele>209.49</ele>
        <time>2020-04-06T15:58:37Z</time>
      </trkpt>
      <trkpt lat="43.54858" lon="1.48385">
        <ele>209.47</ele>
        <time>2020-04-06T15:58:42Z</time>
      </trkpt>
      <trkpt lat="43.54865" lon="1.48381">
        <ele>209.455</ele>
        <time>2020-04-06T15:58:48Z</time>
      </trkpt>
      <trkpt lat="43.54869" lon="1.48379">
        <ele>209.449</ele>
        <time>2020-04-06T15:58:53Z</time>
      </trkpt>
      <trkpt lat="43.54872" lon="1.48377">
        <ele>209.449</ele>
        <time>2020-04-06T15:58:58Z</time>
      </trkpt>
      <trkpt lat="43.54875" lon="1.48373">
        <ele>209.452</ele>
        <time>2020-04-06T15:59:03Z</time>
      </trkpt>
      <trkpt lat="43.54879" lon="1.48367">
        <ele>209.452</ele>
        <time>2020-04-06T15:59:09Z</time>
      </trkpt>
      <trkpt lat="43.54883" lon="1.48363">
        <ele>209.445</ele>
        <time>2020-04-06T15:59:15Z</time>
      </trkpt>
      <trkpt lat="43.54887" lon="1.4836">
        <ele>209.435</ele>
        <time>2020-04-06T15:59:21Z</time>
      </trkpt>
      <trkpt lat="43.54891" lon="1.48354">
        <ele>209.421</ele>
        <time>2020-04-06T15:59:26Z</time>
      </trkpt>
      <trkpt lat="43.54897" lon="1.4835">
        <ele>209.4</ele>
        <time>2020-04-06T15:59:32Z</time>
      </trkpt>
      <trkpt lat="43.549" lon="1.48345">
        <ele>209.378</ele>
        <time>2020-04-06T15:59:38Z</time>
      </trkpt>
      <trkpt lat="43.54904" lon="1.48341">
        <ele>209.351</ele>
        <time>2020-04-06T15:59:44Z</time>
      </trkpt>
      <trkpt lat="43.54909" lon="1.48339">
        <ele>209.332</ele>
        <time>2020-04-06T15:59:49Z</time>
      </trkpt>
      <trkpt lat="43.54914" lon="1.48334">
        <ele>209.333</ele>
        <time>2020-04-06T15:59:55Z</time>
      </trkpt>
      <trkpt lat="43.54911" lon="1.48328">
        <ele>209.337</ele>
        <time>2020-04-06T16:00:00Z</time>
      </trkpt>
      <trkpt lat="43.54907" lon="1.48321">
        <ele>209.341</ele>
        <time>2020-04-06T16:00:05Z</time>
      </trkpt>
      <trkpt lat="43.54904" lon="1.48314">
        <ele>209.343</ele>
        <time>2020-04-06T16:00:11Z</time>
      </trkpt>
      <trkpt lat="43.54902" lon="1.48307">
        <ele>209.345</ele>
        <time>2020-04-06T16:00:17Z</time>
      </trkpt>
      <trkpt lat="43.54899" lon="1.48303">
        <ele>209.345</ele>
        <time>2020-04-06T16:00:22Z</time>
      </trkpt>
      <trkpt lat="43.54896" lon="1.48299">
        <ele>209.341</ele>
        <time>2020-04-06T16:00:27Z</time>
      </trkpt>
      <trkpt lat="43.54893" lon="1.48292">
        <ele>209.332</ele>
        <time>2020-04-06T16:00:33Z</time>
      </trkpt>
      <trkpt lat="43.5489" lon="1.48283">
        <ele>209.322</ele>
        <time>2020-04-06T16:00:39Z</time>
      </trkpt>
      <trkpt lat="43.54887" lon="1.48274">
        <ele>209.314</ele>
        <time>2020-04-06T16:00:44Z</time>
      </trkpt>
      <trkpt lat="43.54885" lon="1.48267">
        <ele>209.305</ele>
        <time>2020-04-06T16:00:49Z</time>
      </trkpt>
      <trkpt lat="43.54883" lon="1.4826">
        <ele>209.292</ele>
        <time>2020-04-06T16:00:54Z</time>
      </trkpt>
      <trkpt lat="43.54881" lon="1.48254">
        <ele>209.275</ele>
        <time>2020-04-06T16:00:59Z</time>
      </trkpt>
      <trkpt lat="43.54876" lon="1.48245">
        <ele>209.256</ele>
        <time>2020-04-06T16:01:05Z</time>
      </trkpt>
      <trkpt lat="43.54874" lon="1.48237">
        <ele>209.238</ele>
        <time>2020-04-06T16:01:11Z</time>
      </trkpt>
      <trkpt lat="43.54872" lon="1.4823">
        <ele>209.219</ele>
        <time>2020-04-06T16:01:16Z</time>
      </trkpt>
      <trkpt lat="43.54869" lon="1.4822">
        <ele>209.194</ele>
        <time>2020-04-06T16:01:22Z</time>
      </trkpt>
      <trkpt lat="43.54866" lon="1.48212">
        <ele>209.171</ele>
        <time>2020-04-06T16:01:28Z</time>
      </trkpt>
      <trkpt lat="43.54864" lon="1.48206">
        <ele>209.155</ele>
        <time>2020-04-06T16:01:33Z</time>
      </trkpt>
      <trkpt lat="43.54862" lon="1.48197">
        <ele>209.138</ele>
        <time>2020-04-06T16:01:39Z</time>
      </trkpt>
      <trkpt lat="43.5486" lon="1.48189">
        <ele>209.125</ele>
        <time>2020-04-06T16:01:45Z</time>
      </trkpt>
      <trkpt lat="43.54858" lon="1.48181">
        <ele>209.118</ele>
        <time>2020-04-06T16:01:50Z</time>
      </trkpt>
      <trkpt lat="43.54856" lon="1.48173">
        <ele>209.108</ele>
        <time>2020-04-06T16:01:56Z</time>
      </trkpt>
      <trkpt lat="43.54855" lon="1.48164">
        <ele>209.1</ele>
        <time>2020-04-06T16:02:01Z</time>
      </trkpt>
      <trkpt lat="43.54853" lon="1.48157">
        <ele>209.093</ele>
        <time>2020-04-06T16:02:06Z</time>
      </trkpt>
      <trkpt lat="43.54851" lon="1.4815">
        <ele>209.081</ele>
        <time>2020-04-06T16:02:12Z</time>
      </trkpt>
      <trkpt lat="43.54848" lon="1.48142">
        <ele>209.063</ele>
        <time>2020-04-06T16:02:18Z</time>
      </trkpt>
      <trkpt lat="43.54845" lon="1.48136">
        <ele>209.05</ele>
        <time>2020-04-06T16:02:23Z</time>
      </trkpt>
      <trkpt lat="43.54842" lon="1.48128">
        <ele>209.034</ele>
        <time>2020-04-06T16:02:29Z</time>
      </trkpt>
      <trkpt lat="43.54839" lon="1.48121">
        <ele>209.021</ele>
        <time>2020-04-06T16:02:34Z</time>
      </trkpt>
      <trkpt lat="43.54836" lon="1.48113">
        <ele>209.005</ele>
        <time>2020-04-06T16:02:40Z</time>
      </trkpt>
      <trkpt lat="43.54834" lon="1.48107">
        <ele>208.992</ele>
        <time>2020-04-06T16:02:45Z</time>
      </trkpt>
      <trkpt lat="43.54832" lon="1.481">
        <ele>208.978</ele>
        <time>2020-04-06T16:02:51Z</time>
      </trkpt>
      <trkpt lat="43.5483" lon="1.48092">
        <ele>208.965</ele>
        <time>2020-04-06T16:02:57Z</time>
      </trkpt>
      <trkpt lat="43.54833" lon="1.48088">
        <ele>208.958</ele>
        <time>2020-04-06T16:03:02Z</time>
      </trkpt>
      <trkpt lat="43.54839" lon="1.48086">
        <ele>208.949</ele>
        <time>2020-04-06T16:03:08Z</time>
      </trkpt>
      <trkpt lat="43.54844" lon="1.48082">
        <ele>208.944</ele>
        <time>2020-04-06T16:03:14Z</time>
      </trkpt>
      <trkpt lat="43.54849" lon="1.48078">
        <ele>208.946</ele>
        <time>2020-04-06T16:03:19Z</time>
      </trkpt>
      <trkpt lat="43.54853" lon="1.48075">
        <ele>208.956</ele>
        <time>2020-04-06T16:03:24Z</time>
      </trkpt>
      <trkpt lat="43.54856" lon="1.48072">
        <ele>208.971</ele>
        <time>2020-04-06T16:03:29Z</time>
      </trkpt>
      <trkpt lat="43.54861" lon="1.48068">
        <ele>208.996</ele>
        <time>2020-04-06T16:03:35Z</time>
      </trkpt>
      <trkpt lat="43.54865" lon="1.48064">
        <ele>209.02</ele>
        <time>2020-04-06T16:03:41Z</time>
      </trkpt>
      <trkpt lat="43.54867" lon="1.48057">
        <ele>209.041</ele>
        <time>2020-04-06T16:03:47Z</time>
      </trkpt>
      <trkpt lat="43.54871" lon="1.48051">
        <ele>209.063</ele>
        <time>2020-04-06T16:03:53Z</time>
      </trkpt>
      <trkpt lat="43.54876" lon="1.48045">
        <ele>209.082</ele>
        <time>2020-04-06T16:03:58Z</time>
      </trkpt>
      <trkpt lat="43.54881" lon="1.4804">
        <ele>209.108</ele>
        <time>2020-04-06T16:04:04Z</time>
      </trkpt>
      <trkpt lat="43.54885" lon="1.48034">
        <ele>209.13</ele>
        <time>2020-04-06T16:04:09Z</time>
      </trkpt>
      <trkpt lat="43.54891" lon="1.48029">
        <ele>209.156</ele>
        <time>2020-04-06T16:04:15Z</time>
      </trkpt>
      <trkpt lat="43.54894" lon="1.48026">
        <ele>209.174</ele>
        <time>2020-04-06T16:04:20Z</time>
      </trkpt>
      <trkpt lat="43.54899" lon="1.48023">
        <ele>209.194</ele>
        <time>2020-04-06T16:04:26Z</time>
      </trkpt>
      <trkpt lat="43.54905" lon="1.48021">
        <ele>209.213</ele>
        <time>2020-04-06T16:04:32Z</time>
      </trkpt>
      <trkpt lat="43.54912" lon="1.4802">
        <ele>209.229</ele>
        <time>2020-04-06T16:04:37Z</time>
      </trkpt>
      <trkpt lat="43.54917" lon="1.48019">
        <ele>209.247</ele>
        <time>2020-04-06T16:04:42Z</time>
      </trkpt>
      <trkpt lat="43.5492" lon="1.48014">
        <ele>209.271</ele>
        <time>2020-04-06T16:04:48Z</time>
      </trkpt>
      <trkpt lat="43.54919" lon="1.48007">
        <ele>209.283</ele>
        <time>2020-04-06T16:04:54Z</time>
      </trkpt>
      <trkpt lat="43.54918" lon="1.47999">
        <ele>209.284</ele>
        <time>2020-04-06T16:05:00Z</time>
      </trkpt>
      <trkpt lat="43.54919" lon="1.47991">
        <ele>209.281</ele>
        <time>2020-04-06T16:05:06Z</time>
      </trkpt>
      <trkpt lat="43.54921" lon="1.47982">
        <ele>209.278</ele>
        <time>2020-04-06T16:05:12Z</time>
      </trkpt>
      <trkpt lat="43.54922" lon="1.47975">
        <ele>209.277</ele>
        <time>2020-04-06T16:05:18Z</time>
      </trkpt>
      <trkpt lat="43.54924" lon="1.4797">
        <ele>209.279</ele>
        <time>2020-04-06T16:05:23Z</time>
      </trkpt>
      <trkpt lat="43.54924" lon="1.47963">
        <ele>209.284</ele>
        <time>2020-04-06T16:05:28Z</time>
      </trkpt>
      <trkpt lat="43.54922" lon="1.47952">
        <ele>209.293</ele>
        <time>2020-04-06T16:05:34Z</time>
      </trkpt>
      <trkpt lat="43.5492" lon="1.47946">
        <ele>209.301</ele>
        <time>2020-04-06T16:05:39Z</time>
      </trkpt>
      <trkpt lat="43.54919" lon="1.47943">
        <ele>209.303</ele>
        <time>2020-04-06T16:05:44Z</time>
      </trkpt>
      <trkpt lat="43.54917" lon="1.47933">
        <ele>209.298</ele>
        <time>2020-04-06T16:05:50Z</time>
      </trkpt>
      <trkpt lat="43.54916" lon="1.47926">
        <ele>209.291</ele>
        <time>2020-04-06T16:05:56Z</time>
      </trkpt>
      <trkpt lat="43.54915" lon="1.47923">
        <ele>209.283</ele>
        <time>2020-04-06T16:06:02Z</time>
      </trkpt>
      <trkpt lat="43.54915" lon="1.47917">
        <ele>209.274</ele>
        <time>2020-04-06T16:06:07Z</time>
      </trkpt>
      <trkpt lat="43.54915" lon="1.47911">
        <ele>209.265</ele>
        <time>2020-04-06T16:06:12Z</time>
      </trkpt>
      <trkpt lat="43.54914" lon="1.47905">
        <ele>209.253</ele>
        <time>2020-04-06T16:06:17Z</time>
      </trkpt>
      <trkpt lat="43.54914" lon="1.47903">
        <ele>209.243</ele>
        <time>2020-04-06T16:06:23Z</time>
      </trkpt>
      <trkpt lat="43.54914" lon="1.47903">
        <ele>209.241</ele>
        <time>2020-04-06T16:06:29Z</time>
      </trkpt>
      <trkpt lat="43.54914" lon="1.47903">
        <ele>209.24</ele>
        <time>2020-04-06T16:06:35Z</time>
      </trkpt>
      <trkpt lat="43.54914" lon="1.47902">
        <ele>209.237</ele>
        <time>2020-04-06T16:06:41Z</time>
      </trkpt>
      <trkpt lat="43.54914" lon="1.47902">
        <ele>209.234</ele>
        <time>2020-04-06T16:06:46Z</time>
      </trkpt>
      <trkpt lat="43.54914" lon="1.47902">
        <ele>209.229</ele>
        <time>2020-04-06T16:06:52Z</time>
      </trkpt>
      <trkpt lat="43.54914" lon="1.47902">
        <ele>209.22</ele>
        <time>2020-04-06T16:06:58Z</time>
      </trkpt>
      <trkpt lat="43.54913" lon="1.47897">
        <ele>209.188</ele>
        <time>2020-04-06T16:07:03Z</time>
      </trkpt>
      <trkpt lat="43.54913" lon="1.47891">
        <ele>209.155</ele>
        <time>2020-04-06T16:07:08Z</time>
      </trkpt>
      <trkpt lat="43.54912" lon="1.47881">
        <ele>209.115</ele>
        <time>2020-04-06T16:07:14Z</time>
      </trkpt>
      <trkpt lat="43.54911" lon="1.47875">
        <ele>209.081</ele>
        <time>2020-04-06T16:07:19Z</time>
      </trkpt>
      <trkpt lat="43.5491" lon="1.47868">
        <ele>209.04</ele>
        <time>2020-04-06T16:07:25Z</time>
      </trkpt>
      <trkpt lat="43.5491" lon="1.47861">
        <ele>209.005</ele>
        <time>2020-04-06T16:07:31Z</time>
      </trkpt>
      <trkpt lat="43.54912" lon="1.47849">
        <ele>208.977</ele>
        <time>2020-04-06T16:07:37Z</time>
      </trkpt>
      <trkpt lat="43.54912" lon="1.47841">
        <ele>208.959</ele>
        <time>2020-04-06T16:07:42Z</time>
      </trkpt>
      <trkpt lat="43.54911" lon="1.47834">
        <ele>208.943</ele>
        <time>2020-04-06T16:07:48Z</time>
      </trkpt>
      <trkpt lat="43.54911" lon="1.47834">
        <ele>208.943</ele>
        <time>2020-04-06T16:07:53Z</time>
      </trkpt>
      <trkpt lat="43.54911" lon="1.47833">
        <ele>208.943</ele>
        <time>2020-04-06T16:07:59Z</time>
      </trkpt>
      <trkpt lat="43.54911" lon="1.47832">
        <ele>208.945</ele>
        <time>2020-04-06T16:08:04Z</time>
      </trkpt>
      <trkpt lat="43.54911" lon="1.47832">
        <ele>208.948</ele>
        <time>2020-04-06T16:08:10Z</time>
      </trkpt>
      <trkpt lat="43.54912" lon="1.47832">
        <ele>208.971</ele>
        <time>2020-04-06T16:08:15Z</time>
      </trkpt>
      <trkpt lat="43.54911" lon="1.47828">
        <ele>209.017</ele>
        <time>2020-04-06T16:08:21Z</time>
      </trkpt>
      <trkpt lat="43.54907" lon="1.47821">
        <ele>209.06</ele>
        <time>2020-04-06T16:08:27Z</time>
      </trkpt>
      <trkpt lat="43.54903" lon="1.47814">
        <ele>209.094</ele>
        <time>2020-04-06T16:08:32Z</time>
      </trkpt>
      <trkpt lat="43.54899" lon="1.47806">
        <ele>209.133</ele>
        <time>2020-04-06T16:08:38Z</time>
      </trkpt>
      <trkpt lat="43.54894" lon="1.47796">
        <ele>209.177</ele>
        <time>2020-04-06T16:08:44Z</time>
      </trkpt>
      <trkpt lat="43.5489" lon="1.47787">
        <ele>209.226</ele>
        <time>2020-04-06T16:08:50Z</time>
      </trkpt>
      <trkpt lat="43.54888" lon="1.47781">
        <ele>209.27</ele>
        <time>2020-04-06T16:08:55Z</time>
      </trkpt>
      <trkpt lat="43.54888" lon="1.47778">
        <ele>209.314</ele>
        <time>2020-04-06T16:09:00Z</time>
      </trkpt>
      <trkpt lat="43.54892" lon="1.47774">
        <ele>209.363</ele>
        <time>2020-04-06T16:09:06Z</time>
      </trkpt>
      <trkpt lat="43.54899" lon="1.4777">
        <ele>209.41</ele>
        <time>2020-04-06T16:09:12Z</time>
      </trkpt>
      <trkpt lat="43.54904" lon="1.47768">
        <ele>209.456</ele>
        <time>2020-04-06T16:09:18Z</time>
      </trkpt>
      <trkpt lat="43.54908" lon="1.47763">
        <ele>209.505</ele>
        <time>2020-04-06T16:09:24Z</time>
      </trkpt>
      <trkpt lat="43.5491" lon="1.47762">
        <ele>209.53</ele>
        <time>2020-04-06T16:09:29Z</time>
      </trkpt>
      <trkpt lat="43.5491" lon="1.47761">
        <ele>209.535</ele>
        <time>2020-04-06T16:09:34Z</time>
      </trkpt>
      <trkpt lat="43.54912" lon="1.47761">
        <ele>209.566</ele>
        <time>2020-04-06T16:09:40Z</time>
      </trkpt>
      <trkpt lat="43.54913" lon="1.47759">
        <ele>209.604</ele>
        <time>2020-04-06T16:09:45Z</time>
      </trkpt>
      <trkpt lat="43.54915" lon="1.47753">
        <ele>209.646</ele>
        <time>2020-04-06T16:09:50Z</time>
      </trkpt>
      <trkpt lat="43.54917" lon="1.47748">
        <ele>209.684</ele>
        <time>2020-04-06T16:09:55Z</time>
      </trkpt>
      <trkpt lat="43.54922" lon="1.4774">
        <ele>209.727</ele>
        <time>2020-04-06T16:10:01Z</time>
      </trkpt>
      <trkpt lat="43.54928" lon="1.47734">
        <ele>209.767</ele>
        <time>2020-04-06T16:10:07Z</time>
      </trkpt>
      <trkpt lat="43.54933" lon="1.4773">
        <ele>209.799</ele>
        <time>2020-04-06T16:10:12Z</time>
      </trkpt>
      <trkpt lat="43.54941" lon="1.47727">
        <ele>209.835</ele>
        <time>2020-04-06T16:10:18Z</time>
      </trkpt>
      <trkpt lat="43.54945" lon="1.47724">
        <ele>209.864</ele>
        <time>2020-04-06T16:10:24Z</time>
      </trkpt>
      <trkpt lat="43.54953" lon="1.47721">
        <ele>209.89</ele>
        <time>2020-04-06T16:10:30Z</time>
      </trkpt>
      <trkpt lat="43.54957" lon="1.47718">
        <ele>209.911</ele>
        <time>2020-04-06T16:10:35Z</time>
      </trkpt>
      <trkpt lat="43.54962" lon="1.47715">
        <ele>209.938</ele>
        <time>2020-04-06T16:10:41Z</time>
      </trkpt>
      <trkpt lat="43.54967" lon="1.47711">
        <ele>209.965</ele>
        <time>2020-04-06T16:10:46Z</time>
      </trkpt>
      <trkpt lat="43.54972" lon="1.47709">
        <ele>209.999</ele>
        <time>2020-04-06T16:10:52Z</time>
      </trkpt>
      <trkpt lat="43.54978" lon="1.47705">
        <ele>210.026</ele>
        <time>2020-04-06T16:10:57Z</time>
      </trkpt>
      <trkpt lat="43.54984" lon="1.47702">
        <ele>210.057</ele>
        <time>2020-04-06T16:11:03Z</time>
      </trkpt>
      <trkpt lat="43.54989" lon="1.47698">
        <ele>210.08</ele>
        <time>2020-04-06T16:11:08Z</time>
      </trkpt>
      <trkpt lat="43.54995" lon="1.47694">
        <ele>210.104</ele>
        <time>2020-04-06T16:11:14Z</time>
      </trkpt>
      <trkpt lat="43.55004" lon="1.47692">
        <ele>210.132</ele>
        <time>2020-04-06T16:11:20Z</time>
      </trkpt>
      <trkpt lat="43.5501" lon="1.47689">
        <ele>210.163</ele>
        <time>2020-04-06T16:11:26Z</time>
      </trkpt>
      <trkpt lat="43.55014" lon="1.47686">
        <ele>210.184</ele>
        <time>2020-04-06T16:11:31Z</time>
      </trkpt>
      <trkpt lat="43.55021" lon="1.47682">
        <ele>210.201</ele>
        <time>2020-04-06T16:11:37Z</time>
      </trkpt>
      <trkpt lat="43.55026" lon="1.47679">
        <ele>210.213</ele>
        <time>2020-04-06T16:11:43Z</time>
      </trkpt>
      <trkpt lat="43.55031" lon="1.47676">
        <ele>210.224</ele>
        <time>2020-04-06T16:11:49Z</time>
      </trkpt>
      <trkpt lat="43.55035" lon="1.47673">
        <ele>210.231</ele>
        <time>2020-04-06T16:11:55Z</time>
      </trkpt>
      <trkpt lat="43.55036" lon="1.47672">
        <ele>210.232</ele>
        <time>2020-04-06T16:12:00Z</time>
      </trkpt>
      <trkpt lat="43.55037" lon="1.47672">
        <ele>210.232</ele>
        <time>2020-04-06T16:12:05Z</time>
      </trkpt>
      <trkpt lat="43.55037" lon="1.47672">
        <ele>210.231</ele>
        <time>2020-04-06T16:12:10Z</time>
      </trkpt>
      <trkpt lat="43.55037" lon="1.47672">
        <ele>210.23</ele>
        <time>2020-04-06T16:12:15Z</time>
      </trkpt>
    </trkseg>
  </trk>
  <trk>
    <name><![CDATA[5 avril]]></name>
    <trkseg>
      <trkpt lat="43.55009" lon="1.47686">
        <ele>215.346</ele>
        <time>2020-04-05T14:51:15Z</time>
      </trkpt>
      <trkpt lat="43.55003" lon="1.47688">
        <ele>213.452</ele>
        <time>2020-04-05T14:51:21Z</time>
      </trkpt>
      <trkpt lat="43.54999" lon="1.47691">
        <ele>213.838</ele>
        <time>2020-04-05T14:51:26Z</time>
      </trkpt>
      <trkpt lat="43.54995" lon="1.47694">
        <ele>213.415</ele>
        <time>2020-04-05T14:51:32Z</time>
      </trkpt>
      <trkpt lat="43.54991" lon="1.47697">
        <ele>213.21</ele>
        <time>2020-04-05T14:51:38Z</time>
      </trkpt>
      <trkpt lat="43.54986" lon="1.47701">
        <ele>213.141</ele>
        <time>2020-04-05T14:51:44Z</time>
      </trkpt>
      <trkpt lat="43.54978" lon="1.47708">
        <ele>213.042</ele>
        <time>2020-04-05T14:51:50Z</time>
      </trkpt>
      <trkpt lat="43.54973" lon="1.47712">
        <ele>212.949</ele>
        <time>2020-04-05T14:51:56Z</time>
      </trkpt>
      <trkpt lat="43.54972" lon="1.47717">
        <ele>212.87</ele>
        <time>2020-04-05T14:52:01Z</time>
      </trkpt>
      <trkpt lat="43.54966" lon="1.47722">
        <ele>212.774</ele>
        <time>2020-04-05T14:52:07Z</time>
      </trkpt>
      <trkpt lat="43.54961" lon="1.47725">
        <ele>212.706</ele>
        <time>2020-04-05T14:52:12Z</time>
      </trkpt>
      <trkpt lat="43.54956" lon="1.47728">
        <ele>212.64</ele>
        <time>2020-04-05T14:52:18Z</time>
      </trkpt>
      <trkpt lat="43.5495" lon="1.47732">
        <ele>212.598</ele>
        <time>2020-04-05T14:52:24Z</time>
      </trkpt>
      <trkpt lat="43.54944" lon="1.47733">
        <ele>212.563</ele>
        <time>2020-04-05T14:52:30Z</time>
      </trkpt>
      <trkpt lat="43.54939" lon="1.47736">
        <ele>212.535</ele>
        <time>2020-04-05T14:52:35Z</time>
      </trkpt>
      <trkpt lat="43.54933" lon="1.47739">
        <ele>212.489</ele>
        <time>2020-04-05T14:52:41Z</time>
      </trkpt>
      <trkpt lat="43.54928" lon="1.47743">
        <ele>212.447</ele>
        <time>2020-04-05T14:52:47Z</time>
      </trkpt>
      <trkpt lat="43.54924" lon="1.47747">
        <ele>212.404</ele>
        <time>2020-04-05T14:52:52Z</time>
      </trkpt>
      <trkpt lat="43.54921" lon="1.47749">
        <ele>212.369</ele>
        <time>2020-04-05T14:52:57Z</time>
      </trkpt>
      <trkpt lat="43.54915" lon="1.47753">
        <ele>212.327</ele>
        <time>2020-04-05T14:53:03Z</time>
      </trkpt>
      <trkpt lat="43.54904" lon="1.47759">
        <ele>212.274</ele>
        <time>2020-04-05T14:53:08Z</time>
      </trkpt>
      <trkpt lat="43.54896" lon="1.47762">
        <ele>212.216</ele>
        <time>2020-04-05T14:53:14Z</time>
      </trkpt>
      <trkpt lat="43.54892" lon="1.47761">
        <ele>212.181</ele>
        <time>2020-04-05T14:53:19Z</time>
      </trkpt>
      <trkpt lat="43.54885" lon="1.47766">
        <ele>212.175</ele>
        <time>2020-04-05T14:53:25Z</time>
      </trkpt>
      <trkpt lat="43.54877" lon="1.4777">
        <ele>212.179</ele>
        <time>2020-04-05T14:53:31Z</time>
      </trkpt>
      <trkpt lat="43.54869" lon="1.47775">
        <ele>212.192</ele>
        <time>2020-04-05T14:53:37Z</time>
      </trkpt>
      <trkpt lat="43.54863" lon="1.47778">
        <ele>212.203</ele>
        <time>2020-04-05T14:53:43Z</time>
      </trkpt>
      <trkpt lat="43.54859" lon="1.47776">
        <ele>212.217</ele>
        <time>2020-04-05T14:53:48Z</time>
      </trkpt>
      <trkpt lat="43.54854" lon="1.47775">
        <ele>212.215</ele>
        <time>2020-04-05T14:53:54Z</time>
      </trkpt>
      <trkpt lat="43.54851" lon="1.47777">
        <ele>212.19</ele>
        <time>2020-04-05T14:54:00Z</time>
      </trkpt>
      <trkpt lat="43.54846" lon="1.4778">
        <ele>212.149</ele>
        <time>2020-04-05T14:54:05Z</time>
      </trkpt>
      <trkpt lat="43.5484" lon="1.47782">
        <ele>212.096</ele>
        <time>2020-04-05T14:54:11Z</time>
      </trkpt>
      <trkpt lat="43.54834" lon="1.47784">
        <ele>212.051</ele>
        <time>2020-04-05T14:54:16Z</time>
      </trkpt>
      <trkpt lat="43.54826" lon="1.47787">
        <ele>211.995</ele>
        <time>2020-04-05T14:54:22Z</time>
      </trkpt>
      <trkpt lat="43.54819" lon="1.4779">
        <ele>211.949</ele>
        <time>2020-04-05T14:54:28Z</time>
      </trkpt>
      <trkpt lat="43.54814" lon="1.47791">
        <ele>211.921</ele>
        <time>2020-04-05T14:54:33Z</time>
      </trkpt>
      <trkpt lat="43.54809" lon="1.47786">
        <ele>211.9</ele>
        <time>2020-04-05T14:54:38Z</time>
      </trkpt>
      <trkpt lat="43.54798" lon="1.47789">
        <ele>211.877</ele>
        <time>2020-04-05T14:54:44Z</time>
      </trkpt>
      <trkpt lat="43.54793" lon="1.47782">
        <ele>211.846</ele>
        <time>2020-04-05T14:54:50Z</time>
      </trkpt>
      <trkpt lat="43.54787" lon="1.4777">
        <ele>211.809</ele>
        <time>2020-04-05T14:54:56Z</time>
      </trkpt>
      <trkpt lat="43.54783" lon="1.47764">
        <ele>211.787</ele>
        <time>2020-04-05T14:55:01Z</time>
      </trkpt>
      <trkpt lat="43.54779" lon="1.47756">
        <ele>211.769</ele>
        <time>2020-04-05T14:55:07Z</time>
      </trkpt>
      <trkpt lat="43.54775" lon="1.47751">
        <ele>211.755</ele>
        <time>2020-04-05T14:55:12Z</time>
      </trkpt>
      <trkpt lat="43.54772" lon="1.47744">
        <ele>211.741</ele>
        <time>2020-04-05T14:55:18Z</time>
      </trkpt>
      <trkpt lat="43.54768" lon="1.47739">
        <ele>211.737</ele>
        <time>2020-04-05T14:55:23Z</time>
      </trkpt>
      <trkpt lat="43.54765" lon="1.47731">
        <ele>211.747</ele>
        <time>2020-04-05T14:55:28Z</time>
      </trkpt>
      <trkpt lat="43.54763" lon="1.47728">
        <ele>211.762</ele>
        <time>2020-04-05T14:55:34Z</time>
      </trkpt>
      <trkpt lat="43.54764" lon="1.47728">
        <ele>211.764</ele>
        <time>2020-04-05T14:55:39Z</time>
      </trkpt>
      <trkpt lat="43.54762" lon="1.47725">
        <ele>211.777</ele>
        <time>2020-04-05T14:55:44Z</time>
      </trkpt>
      <trkpt lat="43.54758" lon="1.47719">
        <ele>211.792</ele>
        <time>2020-04-05T14:55:49Z</time>
      </trkpt>
      <trkpt lat="43.54755" lon="1.47714">
        <ele>211.799</ele>
        <time>2020-04-05T14:55:55Z</time>
      </trkpt>
      <trkpt lat="43.54752" lon="1.47705">
        <ele>211.796</ele>
        <time>2020-04-05T14:56:00Z</time>
      </trkpt>
      <trkpt lat="43.5475" lon="1.477">
        <ele>211.794</ele>
        <time>2020-04-05T14:56:05Z</time>
      </trkpt>
      <trkpt lat="43.54745" lon="1.47692">
        <ele>211.782</ele>
        <time>2020-04-05T14:56:11Z</time>
      </trkpt>
      <trkpt lat="43.54742" lon="1.47688">
        <ele>211.767</ele>
        <time>2020-04-05T14:56:16Z</time>
      </trkpt>
      <trkpt lat="43.54738" lon="1.47682">
        <ele>211.742</ele>
        <time>2020-04-05T14:56:22Z</time>
      </trkpt>
      <trkpt lat="43.54735" lon="1.47674">
        <ele>211.717</ele>
        <time>2020-04-05T14:56:28Z</time>
      </trkpt>
      <trkpt lat="43.5473" lon="1.47673">
        <ele>211.703</ele>
        <time>2020-04-05T14:56:33Z</time>
      </trkpt>
      <trkpt lat="43.54728" lon="1.47673">
        <ele>211.701</ele>
        <time>2020-04-05T14:56:38Z</time>
      </trkpt>
      <trkpt lat="43.54724" lon="1.47674">
        <ele>211.707</ele>
        <time>2020-04-05T14:56:44Z</time>
      </trkpt>
      <trkpt lat="43.54718" lon="1.47676">
        <ele>211.719</ele>
        <time>2020-04-05T14:56:50Z</time>
      </trkpt>
      <trkpt lat="43.54717" lon="1.47676">
        <ele>211.721</ele>
        <time>2020-04-05T14:56:55Z</time>
      </trkpt>
      <trkpt lat="43.54717" lon="1.47677">
        <ele>211.734</ele>
        <time>2020-04-05T14:57:00Z</time>
      </trkpt>
      <trkpt lat="43.54717" lon="1.47677">
        <ele>211.741</ele>
        <time>2020-04-05T14:57:06Z</time>
      </trkpt>
      <trkpt lat="43.54716" lon="1.47677">
        <ele>211.746</ele>
        <time>2020-04-05T14:57:12Z</time>
      </trkpt>
      <trkpt lat="43.54714" lon="1.47678">
        <ele>211.752</ele>
        <time>2020-04-05T14:57:18Z</time>
      </trkpt>
      <trkpt lat="43.5471" lon="1.4768">
        <ele>211.762</ele>
        <time>2020-04-05T14:57:24Z</time>
      </trkpt>
      <trkpt lat="43.54702" lon="1.47683">
        <ele>211.765</ele>
        <time>2020-04-05T14:57:29Z</time>
      </trkpt>
      <trkpt lat="43.54693" lon="1.47688">
        <ele>211.766</ele>
        <time>2020-04-05T14:57:35Z</time>
      </trkpt>
      <trkpt lat="43.54692" lon="1.47688">
        <ele>211.771</ele>
        <time>2020-04-05T14:57:40Z</time>
      </trkpt>
      <trkpt lat="43.54688" lon="1.47686">
        <ele>211.777</ele>
        <time>2020-04-05T14:57:45Z</time>
      </trkpt>
      <trkpt lat="43.54686" lon="1.47688">
        <ele>211.78</ele>
        <time>2020-04-05T14:57:51Z</time>
      </trkpt>
      <trkpt lat="43.54686" lon="1.47689">
        <ele>211.782</ele>
        <time>2020-04-05T14:57:56Z</time>
      </trkpt>
      <trkpt lat="43.54684" lon="1.4769">
        <ele>211.792</ele>
        <time>2020-04-05T14:58:02Z</time>
      </trkpt>
      <trkpt lat="43.54683" lon="1.47691">
        <ele>211.809</ele>
        <time>2020-04-05T14:58:08Z</time>
      </trkpt>
      <trkpt lat="43.54679" lon="1.47694">
        <ele>211.83</ele>
        <time>2020-04-05T14:58:13Z</time>
      </trkpt>
      <trkpt lat="43.54675" lon="1.47695">
        <ele>211.85</ele>
        <time>2020-04-05T14:58:18Z</time>
      </trkpt>
      <trkpt lat="43.54673" lon="1.477">
        <ele>211.877</ele>
        <time>2020-04-05T14:58:24Z</time>
      </trkpt>
      <trkpt lat="43.5467" lon="1.47707">
        <ele>211.909</ele>
        <time>2020-04-05T14:58:29Z</time>
      </trkpt>
      <trkpt lat="43.54668" lon="1.47714">
        <ele>211.946</ele>
        <time>2020-04-05T14:58:35Z</time>
      </trkpt>
      <trkpt lat="43.54662" lon="1.4772">
        <ele>211.997</ele>
        <time>2020-04-05T14:58:41Z</time>
      </trkpt>
      <trkpt lat="43.54656" lon="1.47726">
        <ele>212.026</ele>
        <time>2020-04-05T14:58:47Z</time>
      </trkpt>
      <trkpt lat="43.54651" lon="1.47734">
        <ele>212.05</ele>
        <time>2020-04-05T14:58:53Z</time>
      </trkpt>
      <trkpt lat="43.54645" lon="1.4774">
        <ele>212.077</ele>
        <time>2020-04-05T14:58:58Z</time>
      </trkpt>
      <trkpt lat="43.5464" lon="1.47746">
        <ele>212.119</ele>
        <time>2020-04-05T14:59:04Z</time>
      </trkpt>
      <trkpt lat="43.54637" lon="1.47753">
        <ele>212.157</ele>
        <time>2020-04-05T14:59:09Z</time>
      </trkpt>
      <trkpt lat="43.54634" lon="1.47763">
        <ele>212.2</ele>
        <time>2020-04-05T14:59:15Z</time>
      </trkpt>
      <trkpt lat="43.5463" lon="1.47769">
        <ele>212.237</ele>
        <time>2020-04-05T14:59:21Z</time>
      </trkpt>
      <trkpt lat="43.54625" lon="1.47773">
        <ele>212.263</ele>
        <time>2020-04-05T14:59:26Z</time>
      </trkpt>
      <trkpt lat="43.54619" lon="1.47779">
        <ele>212.296</ele>
        <time>2020-04-05T14:59:31Z</time>
      </trkpt>
      <trkpt lat="43.54613" lon="1.47788">
        <ele>212.343</ele>
        <time>2020-04-05T14:59:37Z</time>
      </trkpt>
      <trkpt lat="43.54609" lon="1.47793">
        <ele>212.391</ele>
        <time>2020-04-05T14:59:42Z</time>
      </trkpt>
      <trkpt lat="43.54603" lon="1.47802">
        <ele>212.453</ele>
        <time>2020-04-05T14:59:48Z</time>
      </trkpt>
      <trkpt lat="43.546" lon="1.47804">
        <ele>212.509</ele>
        <time>2020-04-05T14:59:53Z</time>
      </trkpt>
      <trkpt lat="43.54596" lon="1.47812">
        <ele>212.567</ele>
        <time>2020-04-05T14:59:59Z</time>
      </trkpt>
      <trkpt lat="43.5459" lon="1.47816">
        <ele>212.613</ele>
        <time>2020-04-05T15:00:04Z</time>
      </trkpt>
      <trkpt lat="43.54583" lon="1.47818">
        <ele>212.657</ele>
        <time>2020-04-05T15:00:09Z</time>
      </trkpt>
      <trkpt lat="43.54576" lon="1.47815">
        <ele>212.702</ele>
        <time>2020-04-05T15:00:15Z</time>
      </trkpt>
      <trkpt lat="43.54572" lon="1.47811">
        <ele>212.725</ele>
        <time>2020-04-05T15:00:20Z</time>
      </trkpt>
      <trkpt lat="43.54569" lon="1.47804">
        <ele>212.745</ele>
        <time>2020-04-05T15:00:26Z</time>
      </trkpt>
      <trkpt lat="43.54567" lon="1.478">
        <ele>212.756</ele>
        <time>2020-04-05T15:00:31Z</time>
      </trkpt>
      <trkpt lat="43.54564" lon="1.47792">
        <ele>212.761</ele>
        <time>2020-04-05T15:00:36Z</time>
      </trkpt>
      <trkpt lat="43.54559" lon="1.47788">
        <ele>212.765</ele>
        <time>2020-04-05T15:00:41Z</time>
      </trkpt>
      <trkpt lat="43.54552" lon="1.47785">
        <ele>212.769</ele>
        <time>2020-04-05T15:00:47Z</time>
      </trkpt>
      <trkpt lat="43.54547" lon="1.47784">
        <ele>212.771</ele>
        <time>2020-04-05T15:00:52Z</time>
      </trkpt>
      <trkpt lat="43.54542" lon="1.4778">
        <ele>212.777</ele>
        <time>2020-04-05T15:00:58Z</time>
      </trkpt>
      <trkpt lat="43.54536" lon="1.47773">
        <ele>212.788</ele>
        <time>2020-04-05T15:01:03Z</time>
      </trkpt>
      <trkpt lat="43.54533" lon="1.47765">
        <ele>212.808</ele>
        <time>2020-04-05T15:01:08Z</time>
      </trkpt>
      <trkpt lat="43.5453" lon="1.47758">
        <ele>212.836</ele>
        <time>2020-04-05T15:01:14Z</time>
      </trkpt>
      <trkpt lat="43.54528" lon="1.47753">
        <ele>212.862</ele>
        <time>2020-04-05T15:01:19Z</time>
      </trkpt>
      <trkpt lat="43.54524" lon="1.47743">
        <ele>212.894</ele>
        <time>2020-04-05T15:01:25Z</time>
      </trkpt>
      <trkpt lat="43.54521" lon="1.47736">
        <ele>212.926</ele>
        <time>2020-04-05T15:01:30Z</time>
      </trkpt>
      <trkpt lat="43.54518" lon="1.47733">
        <ele>212.967</ele>
        <time>2020-04-05T15:01:35Z</time>
      </trkpt>
      <trkpt lat="43.54513" lon="1.47736">
        <ele>213.018</ele>
        <time>2020-04-05T15:01:41Z</time>
      </trkpt>
      <trkpt lat="43.54508" lon="1.47742">
        <ele>213.061</ele>
        <time>2020-04-05T15:01:47Z</time>
      </trkpt>
      <trkpt lat="43.54503" lon="1.47747">
        <ele>213.09</ele>
        <time>2020-04-05T15:01:52Z</time>
      </trkpt>
      <trkpt lat="43.54493" lon="1.4775">
        <ele>213.122</ele>
        <time>2020-04-05T15:01:58Z</time>
      </trkpt>
      <trkpt lat="43.54489" lon="1.47756">
        <ele>213.147</ele>
        <time>2020-04-05T15:02:03Z</time>
      </trkpt>
      <trkpt lat="43.54483" lon="1.47756">
        <ele>213.191</ele>
        <time>2020-04-05T15:02:09Z</time>
      </trkpt>
      <trkpt lat="43.54479" lon="1.47763">
        <ele>213.265</ele>
        <time>2020-04-05T15:02:15Z</time>
      </trkpt>
      <trkpt lat="43.54474" lon="1.47768">
        <ele>213.37</ele>
        <time>2020-04-05T15:02:21Z</time>
      </trkpt>
      <trkpt lat="43.5447" lon="1.47772">
        <ele>213.468</ele>
        <time>2020-04-05T15:02:27Z</time>
      </trkpt>
      <trkpt lat="43.54463" lon="1.47774">
        <ele>213.583</ele>
        <time>2020-04-05T15:02:33Z</time>
      </trkpt>
      <trkpt lat="43.54455" lon="1.47778">
        <ele>213.689</ele>
        <time>2020-04-05T15:02:39Z</time>
      </trkpt>
      <trkpt lat="43.5445" lon="1.47778">
        <ele>213.788</ele>
        <time>2020-04-05T15:02:45Z</time>
      </trkpt>
      <trkpt lat="43.54445" lon="1.47774">
        <ele>213.864</ele>
        <time>2020-04-05T15:02:50Z</time>
      </trkpt>
      <trkpt lat="43.54442" lon="1.47768">
        <ele>213.921</ele>
        <time>2020-04-05T15:02:55Z</time>
      </trkpt>
      <trkpt lat="43.54441" lon="1.47778">
        <ele>214.002</ele>
        <time>2020-04-05T15:03:01Z</time>
      </trkpt>
      <trkpt lat="43.54445" lon="1.47788">
        <ele>214.074</ele>
        <time>2020-04-05T15:03:07Z</time>
      </trkpt>
      <trkpt lat="43.54447" lon="1.47794">
        <ele>214.13</ele>
        <time>2020-04-05T15:03:12Z</time>
      </trkpt>
      <trkpt lat="43.54449" lon="1.47799">
        <ele>214.182</ele>
        <time>2020-04-05T15:03:18Z</time>
      </trkpt>
      <trkpt lat="43.54449" lon="1.47803">
        <ele>214.24</ele>
        <time>2020-04-05T15:03:24Z</time>
      </trkpt>
      <trkpt lat="43.54452" lon="1.47808">
        <ele>214.288</ele>
        <time>2020-04-05T15:03:29Z</time>
      </trkpt>
      <trkpt lat="43.54455" lon="1.47817">
        <ele>214.345</ele>
        <time>2020-04-05T15:03:35Z</time>
      </trkpt>
      <trkpt lat="43.54455" lon="1.47821">
        <ele>214.388</ele>
        <time>2020-04-05T15:03:40Z</time>
      </trkpt>
      <trkpt lat="43.54457" lon="1.47826">
        <ele>214.412</ele>
        <time>2020-04-05T15:03:45Z</time>
      </trkpt>
      <trkpt lat="43.54458" lon="1.47829">
        <ele>214.431</ele>
        <time>2020-04-05T15:03:51Z</time>
      </trkpt>
      <trkpt lat="43.5446" lon="1.47839">
        <ele>214.445</ele>
        <time>2020-04-05T15:03:57Z</time>
      </trkpt>
      <trkpt lat="43.54457" lon="1.47851">
        <ele>214.457</ele>
        <time>2020-04-05T15:04:02Z</time>
      </trkpt>
      <trkpt lat="43.54456" lon="1.47852">
        <ele>214.483</ele>
        <time>2020-04-05T15:04:08Z</time>
      </trkpt>
      <trkpt lat="43.54452" lon="1.47854">
        <ele>214.503</ele>
        <time>2020-04-05T15:04:13Z</time>
      </trkpt>
      <trkpt lat="43.54443" lon="1.47856">
        <ele>214.526</ele>
        <time>2020-04-05T15:04:19Z</time>
      </trkpt>
      <trkpt lat="43.54439" lon="1.47855">
        <ele>214.536</ele>
        <time>2020-04-05T15:04:24Z</time>
      </trkpt>
      <trkpt lat="43.54433" lon="1.47858">
        <ele>214.539</ele>
        <time>2020-04-05T15:04:29Z</time>
      </trkpt>
      <trkpt lat="43.54425" lon="1.47862">
        <ele>214.537</ele>
        <time>2020-04-05T15:04:35Z</time>
      </trkpt>
      <trkpt lat="43.54417" lon="1.47863">
        <ele>214.534</ele>
        <time>2020-04-05T15:04:40Z</time>
      </trkpt>
      <trkpt lat="43.54411" lon="1.47866">
        <ele>214.532</ele>
        <time>2020-04-05T15:04:46Z</time>
      </trkpt>
      <trkpt lat="43.54407" lon="1.47868">
        <ele>214.528</ele>
        <time>2020-04-05T15:04:52Z</time>
      </trkpt>
      <trkpt lat="43.54398" lon="1.47876">
        <ele>214.531</ele>
        <time>2020-04-05T15:04:58Z</time>
      </trkpt>
      <trkpt lat="43.54387" lon="1.47875">
        <ele>214.538</ele>
        <time>2020-04-05T15:05:04Z</time>
      </trkpt>
      <trkpt lat="43.5438" lon="1.47873">
        <ele>214.545</ele>
        <time>2020-04-05T15:05:09Z</time>
      </trkpt>
      <trkpt lat="43.54377" lon="1.47872">
        <ele>214.559</ele>
        <time>2020-04-05T15:05:14Z</time>
      </trkpt>
      <trkpt lat="43.54375" lon="1.47873">
        <ele>214.577</ele>
        <time>2020-04-05T15:05:19Z</time>
      </trkpt>
      <trkpt lat="43.54367" lon="1.47879">
        <ele>214.607</ele>
        <time>2020-04-05T15:05:25Z</time>
      </trkpt>
      <trkpt lat="43.5436" lon="1.4788">
        <ele>214.63</ele>
        <time>2020-04-05T15:05:31Z</time>
      </trkpt>
      <trkpt lat="43.54355" lon="1.47882">
        <ele>214.653</ele>
        <time>2020-04-05T15:05:37Z</time>
      </trkpt>
      <trkpt lat="43.54349" lon="1.47881">
        <ele>214.676</ele>
        <time>2020-04-05T15:05:42Z</time>
      </trkpt>
      <trkpt lat="43.54339" lon="1.47883">
        <ele>214.701</ele>
        <time>2020-04-05T15:05:48Z</time>
      </trkpt>
      <trkpt lat="43.54332" lon="1.4789">
        <ele>214.719</ele>
        <time>2020-04-05T15:05:54Z</time>
      </trkpt>
      <trkpt lat="43.54329" lon="1.47891">
        <ele>214.731</ele>
        <time>2020-04-05T15:05:59Z</time>
      </trkpt>
      <trkpt lat="43.54322" lon="1.47893">
        <ele>214.749</ele>
        <time>2020-04-05T15:06:05Z</time>
      </trkpt>
      <trkpt lat="43.54318" lon="1.47895">
        <ele>214.768</ele>
        <time>2020-04-05T15:06:11Z</time>
      </trkpt>
      <trkpt lat="43.54308" lon="1.47898">
        <ele>214.785</ele>
        <time>2020-04-05T15:06:17Z</time>
      </trkpt>
      <trkpt lat="43.54303" lon="1.47898">
        <ele>214.803</ele>
        <time>2020-04-05T15:06:23Z</time>
      </trkpt>
      <trkpt lat="43.54299" lon="1.47898">
        <ele>214.828</ele>
        <time>2020-04-05T15:06:28Z</time>
      </trkpt>
      <trkpt lat="43.54292" lon="1.47899">
        <ele>214.856</ele>
        <time>2020-04-05T15:06:33Z</time>
      </trkpt>
      <trkpt lat="43.54284" lon="1.479">
        <ele>214.889</ele>
        <time>2020-04-05T15:06:39Z</time>
      </trkpt>
      <trkpt lat="43.54276" lon="1.47904">
        <ele>214.932</ele>
        <time>2020-04-05T15:06:45Z</time>
      </trkpt>
      <trkpt lat="43.54271" lon="1.47907">
        <ele>214.972</ele>
        <time>2020-04-05T15:06:51Z</time>
      </trkpt>
      <trkpt lat="43.54264" lon="1.4791">
        <ele>215.013</ele>
        <time>2020-04-05T15:06:57Z</time>
      </trkpt>
      <trkpt lat="43.54261" lon="1.47912">
        <ele>215.046</ele>
        <time>2020-04-05T15:07:02Z</time>
      </trkpt>
      <trkpt lat="43.54261" lon="1.47913">
        <ele>215.055</ele>
        <time>2020-04-05T15:07:07Z</time>
      </trkpt>
      <trkpt lat="43.54261" lon="1.47914">
        <ele>215.068</ele>
        <time>2020-04-05T15:07:12Z</time>
      </trkpt>
      <trkpt lat="43.54257" lon="1.47915">
        <ele>215.121</ele>
        <time>2020-04-05T15:07:18Z</time>
      </trkpt>
      <trkpt lat="43.54252" lon="1.47917">
        <ele>215.172</ele>
        <time>2020-04-05T15:07:24Z</time>
      </trkpt>
      <trkpt lat="43.5425" lon="1.47922">
        <ele>215.216</ele>
        <time>2020-04-05T15:07:29Z</time>
      </trkpt>
      <trkpt lat="43.54246" lon="1.4793">
        <ele>215.256</ele>
        <time>2020-04-05T15:07:34Z</time>
      </trkpt>
      <trkpt lat="43.54241" lon="1.47935">
        <ele>215.281</ele>
        <time>2020-04-05T15:07:39Z</time>
      </trkpt>
      <trkpt lat="43.54234" lon="1.47936">
        <ele>215.323</ele>
        <time>2020-04-05T15:07:45Z</time>
      </trkpt>
      <trkpt lat="43.54227" lon="1.47938">
        <ele>215.366</ele>
        <time>2020-04-05T15:07:51Z</time>
      </trkpt>
      <trkpt lat="43.54221" lon="1.47939">
        <ele>215.403</ele>
        <time>2020-04-05T15:07:57Z</time>
      </trkpt>
      <trkpt lat="43.5422" lon="1.47939">
        <ele>215.428</ele>
        <time>2020-04-05T15:08:02Z</time>
      </trkpt>
      <trkpt lat="43.54214" lon="1.47942">
        <ele>215.466</ele>
        <time>2020-04-05T15:08:08Z</time>
      </trkpt>
      <trkpt lat="43.54207" lon="1.4794">
        <ele>215.506</ele>
        <time>2020-04-05T15:08:14Z</time>
      </trkpt>
      <trkpt lat="43.54201" lon="1.47941">
        <ele>215.536</ele>
        <time>2020-04-05T15:08:20Z</time>
      </trkpt>
      <trkpt lat="43.54196" lon="1.47939">
        <ele>215.559</ele>
        <time>2020-04-05T15:08:26Z</time>
      </trkpt>
      <trkpt lat="43.5419" lon="1.4794">
        <ele>215.575</ele>
        <time>2020-04-05T15:08:31Z</time>
      </trkpt>
      <trkpt lat="43.54184" lon="1.47941">
        <ele>215.583</ele>
        <time>2020-04-05T15:08:36Z</time>
      </trkpt>
      <trkpt lat="43.54181" lon="1.47946">
        <ele>215.587</ele>
        <time>2020-04-05T15:08:41Z</time>
      </trkpt>
      <trkpt lat="43.54175" lon="1.47953">
        <ele>215.592</ele>
        <time>2020-04-05T15:08:47Z</time>
      </trkpt>
      <trkpt lat="43.54169" lon="1.47961">
        <ele>215.604</ele>
        <time>2020-04-05T15:08:53Z</time>
      </trkpt>
      <trkpt lat="43.54161" lon="1.4796">
        <ele>215.613</ele>
        <time>2020-04-05T15:08:58Z</time>
      </trkpt>
      <trkpt lat="43.54158" lon="1.47961">
        <ele>215.626</ele>
        <time>2020-04-05T15:09:03Z</time>
      </trkpt>
      <trkpt lat="43.54151" lon="1.47965">
        <ele>215.648</ele>
        <time>2020-04-05T15:09:09Z</time>
      </trkpt>
      <trkpt lat="43.54146" lon="1.47966">
        <ele>215.676</ele>
        <time>2020-04-05T15:09:14Z</time>
      </trkpt>
      <trkpt lat="43.54143" lon="1.47964">
        <ele>215.699</ele>
        <time>2020-04-05T15:09:20Z</time>
      </trkpt>
      <trkpt lat="43.54142" lon="1.47957">
        <ele>215.725</ele>
        <time>2020-04-05T15:09:26Z</time>
      </trkpt>
      <trkpt lat="43.5414" lon="1.47951">
        <ele>215.769</ele>
        <time>2020-04-05T15:09:32Z</time>
      </trkpt>
      <trkpt lat="43.54143" lon="1.47945">
        <ele>215.804</ele>
        <time>2020-04-05T15:09:37Z</time>
      </trkpt>
      <trkpt lat="43.54144" lon="1.47937">
        <ele>215.832</ele>
        <time>2020-04-05T15:09:42Z</time>
      </trkpt>
      <trkpt lat="43.54145" lon="1.47929">
        <ele>215.861</ele>
        <time>2020-04-05T15:09:47Z</time>
      </trkpt>
      <trkpt lat="43.54151" lon="1.47923">
        <ele>215.908</ele>
        <time>2020-04-05T15:09:53Z</time>
      </trkpt>
      <trkpt lat="43.54155" lon="1.47921">
        <ele>215.954</ele>
        <time>2020-04-05T15:09:59Z</time>
      </trkpt>
      <trkpt lat="43.5416" lon="1.47919">
        <ele>215.979</ele>
        <time>2020-04-05T15:10:05Z</time>
      </trkpt>
      <trkpt lat="43.54159" lon="1.47914">
        <ele>216.008</ele>
        <time>2020-04-05T15:10:11Z</time>
      </trkpt>
      <trkpt lat="43.54159" lon="1.47907">
        <ele>216.035</ele>
        <time>2020-04-05T15:10:16Z</time>
      </trkpt>
      <trkpt lat="43.54158" lon="1.47903">
        <ele>216.056</ele>
        <time>2020-04-05T15:10:22Z</time>
      </trkpt>
      <trkpt lat="43.54152" lon="1.47896">
        <ele>216.08</ele>
        <time>2020-04-05T15:10:28Z</time>
      </trkpt>
      <trkpt lat="43.5415" lon="1.47892">
        <ele>216.101</ele>
        <time>2020-04-05T15:10:34Z</time>
      </trkpt>
      <trkpt lat="43.54146" lon="1.47885">
        <ele>216.117</ele>
        <time>2020-04-05T15:10:40Z</time>
      </trkpt>
      <trkpt lat="43.54143" lon="1.47878">
        <ele>216.126</ele>
        <time>2020-04-05T15:10:46Z</time>
      </trkpt>
      <trkpt lat="43.54143" lon="1.47875">
        <ele>216.127</ele>
        <time>2020-04-05T15:10:52Z</time>
      </trkpt>
      <trkpt lat="43.54143" lon="1.47874">
        <ele>216.128</ele>
        <time>2020-04-05T15:10:57Z</time>
      </trkpt>
      <trkpt lat="43.5414" lon="1.47875">
        <ele>216.136</ele>
        <time>2020-04-05T15:11:03Z</time>
      </trkpt>
      <trkpt lat="43.54135" lon="1.47874">
        <ele>216.154</ele>
        <time>2020-04-05T15:11:09Z</time>
      </trkpt>
      <trkpt lat="43.54128" lon="1.47876">
        <ele>216.177</ele>
        <time>2020-04-05T15:11:15Z</time>
      </trkpt>
      <trkpt lat="43.54122" lon="1.4788">
        <ele>216.197</ele>
        <time>2020-04-05T15:11:20Z</time>
      </trkpt>
      <trkpt lat="43.54114" lon="1.47883">
        <ele>216.222</ele>
        <time>2020-04-05T15:11:26Z</time>
      </trkpt>
      <trkpt lat="43.54108" lon="1.47885">
        <ele>216.24</ele>
        <time>2020-04-05T15:11:31Z</time>
      </trkpt>
      <trkpt lat="43.541" lon="1.47888">
        <ele>216.264</ele>
        <time>2020-04-05T15:11:36Z</time>
      </trkpt>
      <trkpt lat="43.54091" lon="1.4789">
        <ele>216.294</ele>
        <time>2020-04-05T15:11:41Z</time>
      </trkpt>
      <trkpt lat="43.54089" lon="1.47889">
        <ele>216.326</ele>
        <time>2020-04-05T15:11:46Z</time>
      </trkpt>
      <trkpt lat="43.54086" lon="1.47889">
        <ele>216.377</ele>
        <time>2020-04-05T15:11:52Z</time>
      </trkpt>
      <trkpt lat="43.54082" lon="1.47882">
        <ele>216.414</ele>
        <time>2020-04-05T15:11:57Z</time>
      </trkpt>
      <trkpt lat="43.54079" lon="1.47879">
        <ele>216.451</ele>
        <time>2020-04-05T15:12:02Z</time>
      </trkpt>
      <trkpt lat="43.54075" lon="1.47876">
        <ele>216.49</ele>
        <time>2020-04-05T15:12:07Z</time>
      </trkpt>
      <trkpt lat="43.5407" lon="1.47875">
        <ele>216.541</ele>
        <time>2020-04-05T15:12:13Z</time>
      </trkpt>
      <trkpt lat="43.54064" lon="1.47878">
        <ele>216.584</ele>
        <time>2020-04-05T15:12:18Z</time>
      </trkpt>
      <trkpt lat="43.54058" lon="1.4788">
        <ele>216.628</ele>
        <time>2020-04-05T15:12:24Z</time>
      </trkpt>
      <trkpt lat="43.54053" lon="1.47881">
        <ele>216.667</ele>
        <time>2020-04-05T15:12:29Z</time>
      </trkpt>
      <trkpt lat="43.54043" lon="1.47884">
        <ele>216.731</ele>
        <time>2020-04-05T15:12:35Z</time>
      </trkpt>
      <trkpt lat="43.54037" lon="1.47887">
        <ele>216.799</ele>
        <time>2020-04-05T15:12:41Z</time>
      </trkpt>
      <trkpt lat="43.54031" lon="1.47886">
        <ele>216.87</ele>
        <time>2020-04-05T15:12:47Z</time>
      </trkpt>
      <trkpt lat="43.54029" lon="1.47882">
        <ele>216.924</ele>
        <time>2020-04-05T15:12:52Z</time>
      </trkpt>
      <trkpt lat="43.54027" lon="1.47883">
        <ele>216.97</ele>
        <time>2020-04-05T15:12:57Z</time>
      </trkpt>
      <trkpt lat="43.54027" lon="1.47882">
        <ele>217.024</ele>
        <time>2020-04-05T15:13:03Z</time>
      </trkpt>
      <trkpt lat="43.5402" lon="1.47875">
        <ele>217.061</ele>
        <time>2020-04-05T15:13:08Z</time>
      </trkpt>
      <trkpt lat="43.54012" lon="1.47866">
        <ele>217.101</ele>
        <time>2020-04-05T15:13:14Z</time>
      </trkpt>
      <trkpt lat="43.5401" lon="1.47859">
        <ele>217.141</ele>
        <time>2020-04-05T15:13:20Z</time>
      </trkpt>
      <trkpt lat="43.54004" lon="1.47855">
        <ele>217.181</ele>
        <time>2020-04-05T15:13:25Z</time>
      </trkpt>
      <trkpt lat="43.54" lon="1.47847">
        <ele>217.23</ele>
        <time>2020-04-05T15:13:30Z</time>
      </trkpt>
      <trkpt lat="43.53995" lon="1.47843">
        <ele>217.298</ele>
        <time>2020-04-05T15:13:36Z</time>
      </trkpt>
      <trkpt lat="43.53993" lon="1.47841">
        <ele>217.355</ele>
        <time>2020-04-05T15:13:41Z</time>
      </trkpt>
      <trkpt lat="43.53988" lon="1.47832">
        <ele>217.39</ele>
        <time>2020-04-05T15:13:46Z</time>
      </trkpt>
      <trkpt lat="43.53982" lon="1.47829">
        <ele>217.448</ele>
        <time>2020-04-05T15:13:52Z</time>
      </trkpt>
      <trkpt lat="43.53974" lon="1.47821">
        <ele>217.492</ele>
        <time>2020-04-05T15:13:58Z</time>
      </trkpt>
      <trkpt lat="43.53972" lon="1.47817">
        <ele>217.519</ele>
        <time>2020-04-05T15:14:03Z</time>
      </trkpt>
      <trkpt lat="43.53969" lon="1.47815">
        <ele>217.542</ele>
        <time>2020-04-05T15:14:08Z</time>
      </trkpt>
      <trkpt lat="43.53963" lon="1.47811">
        <ele>217.56</ele>
        <time>2020-04-05T15:14:14Z</time>
      </trkpt>
      <trkpt lat="43.53961" lon="1.47808">
        <ele>217.576</ele>
        <time>2020-04-05T15:14:19Z</time>
      </trkpt>
      <trkpt lat="43.53958" lon="1.478">
        <ele>217.579</ele>
        <time>2020-04-05T15:14:25Z</time>
      </trkpt>
      <trkpt lat="43.53952" lon="1.47796">
        <ele>217.581</ele>
        <time>2020-04-05T15:14:30Z</time>
      </trkpt>
      <trkpt lat="43.53945" lon="1.47793">
        <ele>217.58</ele>
        <time>2020-04-05T15:14:36Z</time>
      </trkpt>
      <trkpt lat="43.53937" lon="1.47783">
        <ele>217.575</ele>
        <time>2020-04-05T15:14:41Z</time>
      </trkpt>
      <trkpt lat="43.53936" lon="1.47777">
        <ele>217.562</ele>
        <time>2020-04-05T15:14:47Z</time>
      </trkpt>
      <trkpt lat="43.53931" lon="1.47771">
        <ele>217.549</ele>
        <time>2020-04-05T15:14:53Z</time>
      </trkpt>
      <trkpt lat="43.53923" lon="1.47763">
        <ele>217.531</ele>
        <time>2020-04-05T15:14:59Z</time>
      </trkpt>
      <trkpt lat="43.53917" lon="1.47759">
        <ele>217.511</ele>
        <time>2020-04-05T15:15:05Z</time>
      </trkpt>
      <trkpt lat="43.53916" lon="1.47756">
        <ele>217.499</ele>
        <time>2020-04-05T15:15:11Z</time>
      </trkpt>
      <trkpt lat="43.5391" lon="1.47749">
        <ele>217.489</ele>
        <time>2020-04-05T15:15:16Z</time>
      </trkpt>
      <trkpt lat="43.53907" lon="1.4774">
        <ele>217.48</ele>
        <time>2020-04-05T15:15:22Z</time>
      </trkpt>
      <trkpt lat="43.53906" lon="1.47735">
        <ele>217.472</ele>
        <time>2020-04-05T15:15:27Z</time>
      </trkpt>
      <trkpt lat="43.53904" lon="1.47729">
        <ele>217.466</ele>
        <time>2020-04-05T15:15:33Z</time>
      </trkpt>
      <trkpt lat="43.53901" lon="1.47724">
        <ele>217.463</ele>
        <time>2020-04-05T15:15:38Z</time>
      </trkpt>
      <trkpt lat="43.53897" lon="1.47719">
        <ele>217.459</ele>
        <time>2020-04-05T15:15:44Z</time>
      </trkpt>
      <trkpt lat="43.53895" lon="1.47717">
        <ele>217.457</ele>
        <time>2020-04-05T15:15:49Z</time>
      </trkpt>
      <trkpt lat="43.53892" lon="1.47705">
        <ele>217.46</ele>
        <time>2020-04-05T15:15:55Z</time>
      </trkpt>
      <trkpt lat="43.5389" lon="1.47703">
        <ele>217.465</ele>
        <time>2020-04-05T15:16:00Z</time>
      </trkpt>
      <trkpt lat="43.53887" lon="1.47698">
        <ele>217.471</ele>
        <time>2020-04-05T15:16:05Z</time>
      </trkpt>
      <trkpt lat="43.53884" lon="1.4769">
        <ele>217.483</ele>
        <time>2020-04-05T15:16:11Z</time>
      </trkpt>
      <trkpt lat="43.53883" lon="1.47687">
        <ele>217.492</ele>
        <time>2020-04-05T15:16:17Z</time>
      </trkpt>
      <trkpt lat="43.5388" lon="1.47683">
        <ele>217.508</ele>
        <time>2020-04-05T15:16:22Z</time>
      </trkpt>
      <trkpt lat="43.53876" lon="1.47676">
        <ele>217.53</ele>
        <time>2020-04-05T15:16:28Z</time>
      </trkpt>
      <trkpt lat="43.53875" lon="1.47671">
        <ele>217.546</ele>
        <time>2020-04-05T15:16:33Z</time>
      </trkpt>
      <trkpt lat="43.53872" lon="1.47666">
        <ele>217.559</ele>
        <time>2020-04-05T15:16:38Z</time>
      </trkpt>
      <trkpt lat="43.53869" lon="1.47659">
        <ele>217.569</ele>
        <time>2020-04-05T15:16:44Z</time>
      </trkpt>
      <trkpt lat="43.53868" lon="1.47652">
        <ele>217.583</ele>
        <time>2020-04-05T15:16:49Z</time>
      </trkpt>
      <trkpt lat="43.53865" lon="1.47628">
        <ele>217.613</ele>
        <time>2020-04-05T15:16:55Z</time>
      </trkpt>
      <trkpt lat="43.53863" lon="1.4762">
        <ele>217.638</ele>
        <time>2020-04-05T15:17:01Z</time>
      </trkpt>
      <trkpt lat="43.53858" lon="1.4761">
        <ele>217.667</ele>
        <time>2020-04-05T15:17:06Z</time>
      </trkpt>
      <trkpt lat="43.53852" lon="1.476">
        <ele>217.684</ele>
        <time>2020-04-05T15:17:11Z</time>
      </trkpt>
      <trkpt lat="43.53847" lon="1.47592">
        <ele>217.723</ele>
        <time>2020-04-05T15:17:16Z</time>
      </trkpt>
      <trkpt lat="43.53844" lon="1.47587">
        <ele>217.755</ele>
        <time>2020-04-05T15:17:21Z</time>
      </trkpt>
      <trkpt lat="43.53842" lon="1.47583">
        <ele>217.779</ele>
        <time>2020-04-05T15:17:27Z</time>
      </trkpt>
      <trkpt lat="43.53837" lon="1.47573">
        <ele>217.815</ele>
        <time>2020-04-05T15:17:33Z</time>
      </trkpt>
      <trkpt lat="43.53833" lon="1.47565">
        <ele>217.841</ele>
        <time>2020-04-05T15:17:38Z</time>
      </trkpt>
      <trkpt lat="43.53833" lon="1.4756">
        <ele>217.868</ele>
        <time>2020-04-05T15:17:43Z</time>
      </trkpt>
      <trkpt lat="43.53828" lon="1.47551">
        <ele>217.901</ele>
        <time>2020-04-05T15:17:49Z</time>
      </trkpt>
      <trkpt lat="43.53822" lon="1.47545">
        <ele>217.924</ele>
        <time>2020-04-05T15:17:54Z</time>
      </trkpt>
      <trkpt lat="43.53819" lon="1.47539">
        <ele>217.943</ele>
        <time>2020-04-05T15:17:59Z</time>
      </trkpt>
      <trkpt lat="43.53819" lon="1.4753">
        <ele>217.977</ele>
        <time>2020-04-05T15:18:04Z</time>
      </trkpt>
      <trkpt lat="43.5382" lon="1.47525">
        <ele>218.035</ele>
        <time>2020-04-05T15:18:10Z</time>
      </trkpt>
      <trkpt lat="43.53818" lon="1.47519">
        <ele>218.088</ele>
        <time>2020-04-05T15:18:15Z</time>
      </trkpt>
      <trkpt lat="43.53817" lon="1.47515">
        <ele>218.159</ele>
        <time>2020-04-05T15:18:21Z</time>
      </trkpt>
      <trkpt lat="43.53814" lon="1.4751">
        <ele>218.223</ele>
        <time>2020-04-05T15:18:26Z</time>
      </trkpt>
      <trkpt lat="43.53811" lon="1.47505">
        <ele>218.318</ele>
        <time>2020-04-05T15:18:32Z</time>
      </trkpt>
      <trkpt lat="43.53811" lon="1.47503">
        <ele>218.396</ele>
        <time>2020-04-05T15:18:37Z</time>
      </trkpt>
      <trkpt lat="43.5381" lon="1.47497">
        <ele>218.485</ele>
        <time>2020-04-05T15:18:43Z</time>
      </trkpt>
      <trkpt lat="43.53809" lon="1.47487">
        <ele>218.555</ele>
        <time>2020-04-05T15:18:48Z</time>
      </trkpt>
      <trkpt lat="43.53803" lon="1.47478">
        <ele>218.637</ele>
        <time>2020-04-05T15:18:54Z</time>
      </trkpt>
      <trkpt lat="43.53797" lon="1.47471">
        <ele>218.733</ele>
        <time>2020-04-05T15:18:59Z</time>
      </trkpt>
      <trkpt lat="43.53793" lon="1.4746">
        <ele>218.79</ele>
        <time>2020-04-05T15:19:04Z</time>
      </trkpt>
      <trkpt lat="43.53792" lon="1.47458">
        <ele>218.868</ele>
        <time>2020-04-05T15:19:09Z</time>
      </trkpt>
      <trkpt lat="43.53791" lon="1.4744">
        <ele>218.969</ele>
        <time>2020-04-05T15:19:15Z</time>
      </trkpt>
      <trkpt lat="43.53789" lon="1.47431">
        <ele>219.087</ele>
        <time>2020-04-05T15:19:20Z</time>
      </trkpt>
      <trkpt lat="43.53786" lon="1.47424">
        <ele>219.233</ele>
        <time>2020-04-05T15:19:26Z</time>
      </trkpt>
      <trkpt lat="43.5378" lon="1.47419">
        <ele>219.372</ele>
        <time>2020-04-05T15:19:32Z</time>
      </trkpt>
      <trkpt lat="43.53774" lon="1.47419">
        <ele>219.532</ele>
        <time>2020-04-05T15:19:38Z</time>
      </trkpt>
      <trkpt lat="43.53766" lon="1.47414">
        <ele>219.676</ele>
        <time>2020-04-05T15:19:44Z</time>
      </trkpt>
      <trkpt lat="43.5376" lon="1.47404">
        <ele>219.807</ele>
        <time>2020-04-05T15:19:50Z</time>
      </trkpt>
      <trkpt lat="43.53756" lon="1.47398">
        <ele>219.883</ele>
        <time>2020-04-05T15:19:55Z</time>
      </trkpt>
      <trkpt lat="43.53755" lon="1.47393">
        <ele>220.004</ele>
        <time>2020-04-05T15:20:00Z</time>
      </trkpt>
      <trkpt lat="43.53754" lon="1.47389">
        <ele>220.141</ele>
        <time>2020-04-05T15:20:06Z</time>
      </trkpt>
      <trkpt lat="43.5375" lon="1.47383">
        <ele>220.266</ele>
        <time>2020-04-05T15:20:12Z</time>
      </trkpt>
      <trkpt lat="43.53741" lon="1.4738">
        <ele>220.388</ele>
        <time>2020-04-05T15:20:18Z</time>
      </trkpt>
      <trkpt lat="43.53733" lon="1.47372">
        <ele>220.518</ele>
        <time>2020-04-05T15:20:24Z</time>
      </trkpt>
      <trkpt lat="43.5373" lon="1.47371">
        <ele>220.628</ele>
        <time>2020-04-05T15:20:29Z</time>
      </trkpt>
      <trkpt lat="43.53725" lon="1.47367">
        <ele>220.736</ele>
        <time>2020-04-05T15:20:34Z</time>
      </trkpt>
      <trkpt lat="43.5372" lon="1.47363">
        <ele>220.86</ele>
        <time>2020-04-05T15:20:40Z</time>
      </trkpt>
      <trkpt lat="43.53712" lon="1.47352">
        <ele>220.996</ele>
        <time>2020-04-05T15:20:46Z</time>
      </trkpt>
      <trkpt lat="43.53706" lon="1.47344">
        <ele>221.123</ele>
        <time>2020-04-05T15:20:52Z</time>
      </trkpt>
      <trkpt lat="43.53705" lon="1.47341">
        <ele>221.249</ele>
        <time>2020-04-05T15:20:57Z</time>
      </trkpt>
      <trkpt lat="43.53701" lon="1.47335">
        <ele>221.396</ele>
        <time>2020-04-05T15:21:03Z</time>
      </trkpt>
      <trkpt lat="43.53698" lon="1.4733">
        <ele>221.517</ele>
        <time>2020-04-05T15:21:08Z</time>
      </trkpt>
      <trkpt lat="43.53693" lon="1.47321">
        <ele>221.675</ele>
        <time>2020-04-05T15:21:14Z</time>
      </trkpt>
      <trkpt lat="43.5369" lon="1.47318">
        <ele>221.836</ele>
        <time>2020-04-05T15:21:20Z</time>
      </trkpt>
      <trkpt lat="43.53679" lon="1.47315">
        <ele>222.004</ele>
        <time>2020-04-05T15:21:26Z</time>
      </trkpt>
      <trkpt lat="43.53673" lon="1.47313">
        <ele>222.173</ele>
        <time>2020-04-05T15:21:32Z</time>
      </trkpt>
      <trkpt lat="43.53668" lon="1.47302">
        <ele>222.313</ele>
        <time>2020-04-05T15:21:38Z</time>
      </trkpt>
      <trkpt lat="43.53664" lon="1.47297">
        <ele>222.475</ele>
        <time>2020-04-05T15:21:44Z</time>
      </trkpt>
      <trkpt lat="43.53659" lon="1.47289">
        <ele>222.637</ele>
        <time>2020-04-05T15:21:50Z</time>
      </trkpt>
      <trkpt lat="43.53656" lon="1.47284">
        <ele>222.797</ele>
        <time>2020-04-05T15:21:56Z</time>
      </trkpt>
      <trkpt lat="43.53653" lon="1.4728">
        <ele>222.936</ele>
        <time>2020-04-05T15:22:01Z</time>
      </trkpt>
      <trkpt lat="43.53651" lon="1.47272">
        <ele>223.074</ele>
        <time>2020-04-05T15:22:07Z</time>
      </trkpt>
      <trkpt lat="43.5365" lon="1.47266">
        <ele>223.224</ele>
        <time>2020-04-05T15:22:13Z</time>
      </trkpt>
      <trkpt lat="43.5365" lon="1.47264">
        <ele>223.266</ele>
        <time>2020-04-05T15:22:18Z</time>
      </trkpt>
      <trkpt lat="43.5365" lon="1.47261">
        <ele>223.403</ele>
        <time>2020-04-05T15:22:24Z</time>
      </trkpt>
      <trkpt lat="43.53648" lon="1.47265">
        <ele>223.515</ele>
        <time>2020-04-05T15:22:30Z</time>
      </trkpt>
      <trkpt lat="43.53648" lon="1.47263">
        <ele>223.605</ele>
        <time>2020-04-05T15:22:36Z</time>
      </trkpt>
      <trkpt lat="43.53647" lon="1.47263">
        <ele>223.663</ele>
        <time>2020-04-05T15:22:42Z</time>
      </trkpt>
      <trkpt lat="43.53647" lon="1.47262">
        <ele>223.73</ele>
        <time>2020-04-05T15:22:48Z</time>
      </trkpt>
      <trkpt lat="43.53645" lon="1.47258">
        <ele>223.911</ele>
        <time>2020-04-05T15:22:53Z</time>
      </trkpt>
      <trkpt lat="43.53642" lon="1.47253">
        <ele>224.129</ele>
        <time>2020-04-05T15:22:58Z</time>
      </trkpt>
      <trkpt lat="43.53639" lon="1.47247">
        <ele>224.349</ele>
        <time>2020-04-05T15:23:03Z</time>
      </trkpt>
      <trkpt lat="43.53634" lon="1.47242">
        <ele>224.571</ele>
        <time>2020-04-05T15:23:08Z</time>
      </trkpt>
      <trkpt lat="43.53629" lon="1.47237">
        <ele>224.844</ele>
        <time>2020-04-05T15:23:14Z</time>
      </trkpt>
      <trkpt lat="43.53626" lon="1.47233">
        <ele>225.075</ele>
        <time>2020-04-05T15:23:19Z</time>
      </trkpt>
      <trkpt lat="43.53621" lon="1.47229">
        <ele>225.359</ele>
        <time>2020-04-05T15:23:25Z</time>
      </trkpt>
      <trkpt lat="43.53617" lon="1.47225">
        <ele>225.598</ele>
        <time>2020-04-05T15:23:30Z</time>
      </trkpt>
      <trkpt lat="43.53613" lon="1.47223">
        <ele>225.884</ele>
        <time>2020-04-05T15:23:36Z</time>
      </trkpt>
      <trkpt lat="43.53608" lon="1.47221">
        <ele>226.163</ele>
        <time>2020-04-05T15:23:42Z</time>
      </trkpt>
      <trkpt lat="43.53603" lon="1.47216">
        <ele>226.447</ele>
        <time>2020-04-05T15:23:48Z</time>
      </trkpt>
      <trkpt lat="43.53596" lon="1.47209">
        <ele>226.743</ele>
        <time>2020-04-05T15:23:54Z</time>
      </trkpt>
      <trkpt lat="43.53591" lon="1.47202">
        <ele>227.052</ele>
        <time>2020-04-05T15:24:00Z</time>
      </trkpt>
      <trkpt lat="43.53587" lon="1.47195">
        <ele>227.367</ele>
        <time>2020-04-05T15:24:06Z</time>
      </trkpt>
      <trkpt lat="43.53581" lon="1.47187">
        <ele>227.674</ele>
        <time>2020-04-05T15:24:12Z</time>
      </trkpt>
      <trkpt lat="43.53578" lon="1.47178">
        <ele>227.933</ele>
        <time>2020-04-05T15:24:17Z</time>
      </trkpt>
      <trkpt lat="43.53575" lon="1.47173">
        <ele>228.239</ele>
        <time>2020-04-05T15:24:23Z</time>
      </trkpt>
      <trkpt lat="43.53574" lon="1.4717">
        <ele>228.484</ele>
        <time>2020-04-05T15:24:28Z</time>
      </trkpt>
      <trkpt lat="43.53565" lon="1.47165">
        <ele>228.773</ele>
        <time>2020-04-05T15:24:34Z</time>
      </trkpt>
      <trkpt lat="43.53557" lon="1.47159">
        <ele>229.076</ele>
        <time>2020-04-05T15:24:40Z</time>
      </trkpt>
      <trkpt lat="43.53552" lon="1.4715">
        <ele>229.379</ele>
        <time>2020-04-05T15:24:46Z</time>
      </trkpt>
      <trkpt lat="43.53549" lon="1.47144">
        <ele>229.632</ele>
        <time>2020-04-05T15:24:51Z</time>
      </trkpt>
      <trkpt lat="43.53545" lon="1.47138">
        <ele>229.939</ele>
        <time>2020-04-05T15:24:57Z</time>
      </trkpt>
      <trkpt lat="43.53541" lon="1.47134">
        <ele>230.206</ele>
        <time>2020-04-05T15:25:03Z</time>
      </trkpt>
      <trkpt lat="43.53538" lon="1.4713">
        <ele>230.517</ele>
        <time>2020-04-05T15:25:09Z</time>
      </trkpt>
      <trkpt lat="43.53536" lon="1.47128">
        <ele>230.767</ele>
        <time>2020-04-05T15:25:15Z</time>
      </trkpt>
      <trkpt lat="43.53534" lon="1.47127">
        <ele>230.961</ele>
        <time>2020-04-05T15:25:21Z</time>
      </trkpt>
      <trkpt lat="43.53533" lon="1.47125">
        <ele>231.197</ele>
        <time>2020-04-05T15:25:27Z</time>
      </trkpt>
      <trkpt lat="43.53529" lon="1.47122">
        <ele>231.449</ele>
        <time>2020-04-05T15:25:33Z</time>
      </trkpt>
      <trkpt lat="43.53523" lon="1.47117">
        <ele>231.675</ele>
        <time>2020-04-05T15:25:39Z</time>
      </trkpt>
      <trkpt lat="43.53521" lon="1.4711">
        <ele>231.853</ele>
        <time>2020-04-05T15:25:44Z</time>
      </trkpt>
      <trkpt lat="43.53518" lon="1.47104">
        <ele>232.081</ele>
        <time>2020-04-05T15:25:50Z</time>
      </trkpt>
      <trkpt lat="43.53518" lon="1.47098">
        <ele>232.258</ele>
        <time>2020-04-05T15:25:55Z</time>
      </trkpt>
      <trkpt lat="43.53518" lon="1.47096">
        <ele>232.407</ele>
        <time>2020-04-05T15:26:01Z</time>
      </trkpt>
      <trkpt lat="43.53517" lon="1.47086">
        <ele>232.628</ele>
        <time>2020-04-05T15:26:07Z</time>
      </trkpt>
      <trkpt lat="43.53515" lon="1.47074">
        <ele>233.022</ele>
        <time>2020-04-05T15:26:13Z</time>
      </trkpt>
      <trkpt lat="43.53509" lon="1.47067">
        <ele>233.787</ele>
        <time>2020-04-05T15:26:19Z</time>
      </trkpt>
      <trkpt lat="43.535" lon="1.47066">
        <ele>234.797</ele>
        <time>2020-04-05T15:26:25Z</time>
      </trkpt>
      <trkpt lat="43.53491" lon="1.47064">
        <ele>235.779</ele>
        <time>2020-04-05T15:26:30Z</time>
      </trkpt>
      <trkpt lat="43.53487" lon="1.47063">
        <ele>236.922</ele>
        <time>2020-04-05T15:26:36Z</time>
      </trkpt>
      <trkpt lat="43.53485" lon="1.4706">
        <ele>237.707</ele>
        <time>2020-04-05T15:26:41Z</time>
      </trkpt>
      <trkpt lat="43.53483" lon="1.47052">
        <ele>238.899</ele>
        <time>2020-04-05T15:26:47Z</time>
      </trkpt>
      <trkpt lat="43.53482" lon="1.47044">
        <ele>240.101</ele>
        <time>2020-04-05T15:26:53Z</time>
      </trkpt>
      <trkpt lat="43.53484" lon="1.47041">
        <ele>241.276</ele>
        <time>2020-04-05T15:26:59Z</time>
      </trkpt>
      <trkpt lat="43.53485" lon="1.47035">
        <ele>242.029</ele>
        <time>2020-04-05T15:27:04Z</time>
      </trkpt>
      <trkpt lat="43.53486" lon="1.47031">
        <ele>242.77</ele>
        <time>2020-04-05T15:27:10Z</time>
      </trkpt>
      <trkpt lat="43.53488" lon="1.47024">
        <ele>243.735</ele>
        <time>2020-04-05T15:27:16Z</time>
      </trkpt>
      <trkpt lat="43.53485" lon="1.4702">
        <ele>244.336</ele>
        <time>2020-04-05T15:27:21Z</time>
      </trkpt>
      <trkpt lat="43.53479" lon="1.47011">
        <ele>245.129</ele>
        <time>2020-04-05T15:27:27Z</time>
      </trkpt>
      <trkpt lat="43.53471" lon="1.4701">
        <ele>245.782</ele>
        <time>2020-04-05T15:27:32Z</time>
      </trkpt>
      <trkpt lat="43.53465" lon="1.47011">
        <ele>246.553</ele>
        <time>2020-04-05T15:27:38Z</time>
      </trkpt>
      <trkpt lat="43.53461" lon="1.47011">
        <ele>247.191</ele>
        <time>2020-04-05T15:27:43Z</time>
      </trkpt>
      <trkpt lat="43.53454" lon="1.47007">
        <ele>247.975</ele>
        <time>2020-04-05T15:27:49Z</time>
      </trkpt>
      <trkpt lat="43.53449" lon="1.47006">
        <ele>248.623</ele>
        <time>2020-04-05T15:27:54Z</time>
      </trkpt>
      <trkpt lat="43.53445" lon="1.47005">
        <ele>249.262</ele>
        <time>2020-04-05T15:27:59Z</time>
      </trkpt>
      <trkpt lat="43.53439" lon="1.47004">
        <ele>249.871</ele>
        <time>2020-04-05T15:28:04Z</time>
      </trkpt>
      <trkpt lat="43.53438" lon="1.47">
        <ele>250.537</ele>
        <time>2020-04-05T15:28:10Z</time>
      </trkpt>
      <trkpt lat="43.53436" lon="1.46995">
        <ele>251.038</ele>
        <time>2020-04-05T15:28:15Z</time>
      </trkpt>
      <trkpt lat="43.53434" lon="1.46991">
        <ele>251.515</ele>
        <time>2020-04-05T15:28:20Z</time>
      </trkpt>
      <trkpt lat="43.53431" lon="1.46986">
        <ele>251.975</ele>
        <time>2020-04-05T15:28:25Z</time>
      </trkpt>
      <trkpt lat="43.53428" lon="1.46982">
        <ele>252.42</ele>
        <time>2020-04-05T15:28:30Z</time>
      </trkpt>
      <trkpt lat="43.53422" lon="1.46974">
        <ele>252.987</ele>
        <time>2020-04-05T15:28:36Z</time>
      </trkpt>
      <trkpt lat="43.53419" lon="1.46969">
        <ele>253.491</ele>
        <time>2020-04-05T15:28:41Z</time>
      </trkpt>
      <trkpt lat="43.53417" lon="1.46963">
        <ele>254.132</ele>
        <time>2020-04-05T15:28:47Z</time>
      </trkpt>
      <trkpt lat="43.53415" lon="1.46959">
        <ele>254.654</ele>
        <time>2020-04-05T15:28:52Z</time>
      </trkpt>
      <trkpt lat="43.53414" lon="1.46954">
        <ele>255.263</ele>
        <time>2020-04-05T15:28:58Z</time>
      </trkpt>
      <trkpt lat="43.53415" lon="1.4695">
        <ele>255.759</ele>
        <time>2020-04-05T15:29:04Z</time>
      </trkpt>
      <trkpt lat="43.53417" lon="1.46944">
        <ele>256.236</ele>
        <time>2020-04-05T15:29:09Z</time>
      </trkpt>
      <trkpt lat="43.53421" lon="1.46934">
        <ele>256.806</ele>
        <time>2020-04-05T15:29:15Z</time>
      </trkpt>
      <trkpt lat="43.53423" lon="1.46927">
        <ele>257.277</ele>
        <time>2020-04-05T15:29:21Z</time>
      </trkpt>
      <trkpt lat="43.53425" lon="1.46921">
        <ele>257.733</ele>
        <time>2020-04-05T15:29:26Z</time>
      </trkpt>
      <trkpt lat="43.53431" lon="1.46917">
        <ele>258.173</ele>
        <time>2020-04-05T15:29:32Z</time>
      </trkpt>
      <trkpt lat="43.53434" lon="1.46912">
        <ele>258.631</ele>
        <time>2020-04-05T15:29:38Z</time>
      </trkpt>
      <trkpt lat="43.53437" lon="1.46908">
        <ele>258.97</ele>
        <time>2020-04-05T15:29:43Z</time>
      </trkpt>
      <trkpt lat="43.53443" lon="1.46901">
        <ele>259.344</ele>
        <time>2020-04-05T15:29:49Z</time>
      </trkpt>
      <trkpt lat="43.53446" lon="1.46894">
        <ele>259.649</ele>
        <time>2020-04-05T15:29:54Z</time>
      </trkpt>
      <trkpt lat="43.5345" lon="1.46889">
        <ele>260.011</ele>
        <time>2020-04-05T15:30:00Z</time>
      </trkpt>
      <trkpt lat="43.53453" lon="1.4688">
        <ele>260.37</ele>
        <time>2020-04-05T15:30:06Z</time>
      </trkpt>
      <trkpt lat="43.53456" lon="1.46876">
        <ele>260.674</ele>
        <time>2020-04-05T15:30:11Z</time>
      </trkpt>
      <trkpt lat="43.53459" lon="1.4687">
        <ele>261.034</ele>
        <time>2020-04-05T15:30:17Z</time>
      </trkpt>
      <trkpt lat="43.53466" lon="1.46864">
        <ele>261.411</ele>
        <time>2020-04-05T15:30:23Z</time>
      </trkpt>
      <trkpt lat="43.53471" lon="1.46858">
        <ele>261.751</ele>
        <time>2020-04-05T15:30:28Z</time>
      </trkpt>
      <trkpt lat="43.53473" lon="1.46852">
        <ele>262.126</ele>
        <time>2020-04-05T15:30:33Z</time>
      </trkpt>
      <trkpt lat="43.53476" lon="1.46846">
        <ele>262.588</ele>
        <time>2020-04-05T15:30:39Z</time>
      </trkpt>
      <trkpt lat="43.53479" lon="1.46841">
        <ele>263.044</ele>
        <time>2020-04-05T15:30:45Z</time>
      </trkpt>
      <trkpt lat="43.53482" lon="1.46835">
        <ele>263.48</ele>
        <time>2020-04-05T15:30:51Z</time>
      </trkpt>
      <trkpt lat="43.53484" lon="1.46829">
        <ele>263.812</ele>
        <time>2020-04-05T15:30:56Z</time>
      </trkpt>
      <trkpt lat="43.53487" lon="1.46822">
        <ele>264.115</ele>
        <time>2020-04-05T15:31:01Z</time>
      </trkpt>
      <trkpt lat="43.5349" lon="1.46814">
        <ele>264.419</ele>
        <time>2020-04-05T15:31:07Z</time>
      </trkpt>
      <trkpt lat="43.53491" lon="1.46814">
        <ele>264.564</ele>
        <time>2020-04-05T15:31:13Z</time>
      </trkpt>
      <trkpt lat="43.53493" lon="1.4681">
        <ele>264.858</ele>
        <time>2020-04-05T15:31:18Z</time>
      </trkpt>
      <trkpt lat="43.53494" lon="1.46805">
        <ele>265.148</ele>
        <time>2020-04-05T15:31:23Z</time>
      </trkpt>
      <trkpt lat="43.53494" lon="1.46799">
        <ele>265.5</ele>
        <time>2020-04-05T15:31:29Z</time>
      </trkpt>
      <trkpt lat="43.53498" lon="1.46791">
        <ele>265.821</ele>
        <time>2020-04-05T15:31:35Z</time>
      </trkpt>
      <trkpt lat="43.53501" lon="1.46783">
        <ele>266.073</ele>
        <time>2020-04-05T15:31:40Z</time>
      </trkpt>
      <trkpt lat="43.53503" lon="1.46775">
        <ele>266.318</ele>
        <time>2020-04-05T15:31:45Z</time>
      </trkpt>
      <trkpt lat="43.53508" lon="1.46771">
        <ele>266.601</ele>
        <time>2020-04-05T15:31:51Z</time>
      </trkpt>
      <trkpt lat="43.53511" lon="1.46766">
        <ele>266.886</ele>
        <time>2020-04-05T15:31:57Z</time>
      </trkpt>
      <trkpt lat="43.53513" lon="1.46758">
        <ele>267.187</ele>
        <time>2020-04-05T15:32:03Z</time>
      </trkpt>
      <trkpt lat="43.53515" lon="1.46756">
        <ele>267.445</ele>
        <time>2020-04-05T15:32:08Z</time>
      </trkpt>
      <trkpt lat="43.53515" lon="1.46755">
        <ele>267.472</ele>
        <time>2020-04-05T15:32:13Z</time>
      </trkpt>
      <trkpt lat="43.53515" lon="1.46755">
        <ele>267.604</ele>
        <time>2020-04-05T15:32:18Z</time>
      </trkpt>
      <trkpt lat="43.53519" lon="1.46748">
        <ele>267.948</ele>
        <time>2020-04-05T15:32:24Z</time>
      </trkpt>
      <trkpt lat="43.53522" lon="1.46743">
        <ele>268.227</ele>
        <time>2020-04-05T15:32:29Z</time>
      </trkpt>
      <trkpt lat="43.53525" lon="1.46736">
        <ele>268.496</ele>
        <time>2020-04-05T15:32:34Z</time>
      </trkpt>
      <trkpt lat="43.53528" lon="1.46731">
        <ele>268.794</ele>
        <time>2020-04-05T15:32:40Z</time>
      </trkpt>
      <trkpt lat="43.53534" lon="1.46723">
        <ele>269.08</ele>
        <time>2020-04-05T15:32:46Z</time>
      </trkpt>
      <trkpt lat="43.53539" lon="1.46717">
        <ele>269.336</ele>
        <time>2020-04-05T15:32:51Z</time>
      </trkpt>
      <trkpt lat="43.53542" lon="1.46712">
        <ele>269.601</ele>
        <time>2020-04-05T15:32:56Z</time>
      </trkpt>
      <trkpt lat="43.53543" lon="1.46707">
        <ele>269.908</ele>
        <time>2020-04-05T15:33:02Z</time>
      </trkpt>
      <trkpt lat="43.53544" lon="1.467">
        <ele>270.193</ele>
        <time>2020-04-05T15:33:08Z</time>
      </trkpt>
      <trkpt lat="43.53545" lon="1.46694">
        <ele>270.415</ele>
        <time>2020-04-05T15:33:13Z</time>
      </trkpt>
      <trkpt lat="43.53548" lon="1.46687">
        <ele>270.66</ele>
        <time>2020-04-05T15:33:19Z</time>
      </trkpt>
      <trkpt lat="43.53547" lon="1.46678">
        <ele>270.899</ele>
        <time>2020-04-05T15:33:25Z</time>
      </trkpt>
      <trkpt lat="43.5355" lon="1.46671">
        <ele>271.13</ele>
        <time>2020-04-05T15:33:31Z</time>
      </trkpt>
      <trkpt lat="43.53556" lon="1.46662">
        <ele>271.34</ele>
        <time>2020-04-05T15:33:37Z</time>
      </trkpt>
      <trkpt lat="43.53559" lon="1.46657">
        <ele>271.495</ele>
        <time>2020-04-05T15:33:42Z</time>
      </trkpt>
      <trkpt lat="43.53563" lon="1.46651">
        <ele>271.641</ele>
        <time>2020-04-05T15:33:47Z</time>
      </trkpt>
      <trkpt lat="43.53567" lon="1.46645">
        <ele>271.79</ele>
        <time>2020-04-05T15:33:53Z</time>
      </trkpt>
      <trkpt lat="43.53569" lon="1.4664">
        <ele>271.887</ele>
        <time>2020-04-05T15:33:58Z</time>
      </trkpt>
      <trkpt lat="43.53573" lon="1.46631">
        <ele>271.983</ele>
        <time>2020-04-05T15:34:04Z</time>
      </trkpt>
      <trkpt lat="43.53576" lon="1.46625">
        <ele>272.06</ele>
        <time>2020-04-05T15:34:09Z</time>
      </trkpt>
      <trkpt lat="43.53579" lon="1.4662">
        <ele>272.154</ele>
        <time>2020-04-05T15:34:15Z</time>
      </trkpt>
      <trkpt lat="43.53582" lon="1.46614">
        <ele>272.257</ele>
        <time>2020-04-05T15:34:21Z</time>
      </trkpt>
      <trkpt lat="43.53584" lon="1.4661">
        <ele>272.329</ele>
        <time>2020-04-05T15:34:26Z</time>
      </trkpt>
      <trkpt lat="43.53581" lon="1.46612">
        <ele>272.402</ele>
        <time>2020-04-05T15:34:32Z</time>
      </trkpt>
      <trkpt lat="43.53581" lon="1.46612">
        <ele>272.415</ele>
        <time>2020-04-05T15:34:38Z</time>
      </trkpt>
      <trkpt lat="43.53582" lon="1.46609">
        <ele>272.509</ele>
        <time>2020-04-05T15:34:44Z</time>
      </trkpt>
      <trkpt lat="43.53584" lon="1.46604">
        <ele>272.605</ele>
        <time>2020-04-05T15:34:50Z</time>
      </trkpt>
      <trkpt lat="43.53586" lon="1.46596">
        <ele>272.68</ele>
        <time>2020-04-05T15:34:55Z</time>
      </trkpt>
      <trkpt lat="43.5359" lon="1.46588">
        <ele>272.753</ele>
        <time>2020-04-05T15:35:01Z</time>
      </trkpt>
      <trkpt lat="43.53593" lon="1.46583">
        <ele>272.806</ele>
        <time>2020-04-05T15:35:06Z</time>
      </trkpt>
      <trkpt lat="43.53596" lon="1.46577">
        <ele>272.852</ele>
        <time>2020-04-05T15:35:11Z</time>
      </trkpt>
      <trkpt lat="43.53601" lon="1.46569">
        <ele>272.906</ele>
        <time>2020-04-05T15:35:17Z</time>
      </trkpt>
      <trkpt lat="43.53605" lon="1.46564">
        <ele>272.953</ele>
        <time>2020-04-05T15:35:22Z</time>
      </trkpt>
      <trkpt lat="43.53608" lon="1.46559">
        <ele>273.009</ele>
        <time>2020-04-05T15:35:27Z</time>
      </trkpt>
      <trkpt lat="43.53611" lon="1.4655">
        <ele>273.08</ele>
        <time>2020-04-05T15:35:33Z</time>
      </trkpt>
      <trkpt lat="43.53611" lon="1.46545">
        <ele>273.138</ele>
        <time>2020-04-05T15:35:38Z</time>
      </trkpt>
      <trkpt lat="43.53614" lon="1.46537">
        <ele>273.207</ele>
        <time>2020-04-05T15:35:44Z</time>
      </trkpt>
      <trkpt lat="43.53619" lon="1.46532">
        <ele>273.287</ele>
        <time>2020-04-05T15:35:50Z</time>
      </trkpt>
      <trkpt lat="43.53622" lon="1.46525">
        <ele>273.362</ele>
        <time>2020-04-05T15:35:55Z</time>
      </trkpt>
      <trkpt lat="43.53626" lon="1.46518">
        <ele>273.459</ele>
        <time>2020-04-05T15:36:01Z</time>
      </trkpt>
      <trkpt lat="43.53629" lon="1.46511">
        <ele>273.545</ele>
        <time>2020-04-05T15:36:06Z</time>
      </trkpt>
      <trkpt lat="43.53633" lon="1.46504">
        <ele>273.649</ele>
        <time>2020-04-05T15:36:12Z</time>
      </trkpt>
      <trkpt lat="43.53635" lon="1.465">
        <ele>273.739</ele>
        <time>2020-04-05T15:36:17Z</time>
      </trkpt>
      <trkpt lat="43.5364" lon="1.46492">
        <ele>273.861</ele>
        <time>2020-04-05T15:36:23Z</time>
      </trkpt>
      <trkpt lat="43.53643" lon="1.46488">
        <ele>273.972</ele>
        <time>2020-04-05T15:36:28Z</time>
      </trkpt>
      <trkpt lat="43.53648" lon="1.46481">
        <ele>274.11</ele>
        <time>2020-04-05T15:36:34Z</time>
      </trkpt>
      <trkpt lat="43.53652" lon="1.46473">
        <ele>274.256</ele>
        <time>2020-04-05T15:36:40Z</time>
      </trkpt>
      <trkpt lat="43.53655" lon="1.46469">
        <ele>274.38</ele>
        <time>2020-04-05T15:36:45Z</time>
      </trkpt>
      <trkpt lat="43.53658" lon="1.46463">
        <ele>274.53</ele>
        <time>2020-04-05T15:36:51Z</time>
      </trkpt>
      <trkpt lat="43.53662" lon="1.46457">
        <ele>274.682</ele>
        <time>2020-04-05T15:36:57Z</time>
      </trkpt>
      <trkpt lat="43.53666" lon="1.46449">
        <ele>274.83</ele>
        <time>2020-04-05T15:37:03Z</time>
      </trkpt>
      <trkpt lat="43.53668" lon="1.46445">
        <ele>274.932</ele>
        <time>2020-04-05T15:37:09Z</time>
      </trkpt>
      <trkpt lat="43.5367" lon="1.46442">
        <ele>275.029</ele>
        <time>2020-04-05T15:37:14Z</time>
      </trkpt>
      <trkpt lat="43.53671" lon="1.46432">
        <ele>275.167</ele>
        <time>2020-04-05T15:37:20Z</time>
      </trkpt>
      <trkpt lat="43.53671" lon="1.46432">
        <ele>275.201</ele>
        <time>2020-04-05T15:37:26Z</time>
      </trkpt>
      <trkpt lat="43.53678" lon="1.4643">
        <ele>275.29</ele>
        <time>2020-04-05T15:37:32Z</time>
      </trkpt>
      <trkpt lat="43.53681" lon="1.46429">
        <ele>275.385</ele>
        <time>2020-04-05T15:37:37Z</time>
      </trkpt>
      <trkpt lat="43.53685" lon="1.46428">
        <ele>275.451</ele>
        <time>2020-04-05T15:37:43Z</time>
      </trkpt>
      <trkpt lat="43.5369" lon="1.46419">
        <ele>275.524</ele>
        <time>2020-04-05T15:37:49Z</time>
      </trkpt>
      <trkpt lat="43.53692" lon="1.46415">
        <ele>275.574</ele>
        <time>2020-04-05T15:37:54Z</time>
      </trkpt>
      <trkpt lat="43.53695" lon="1.46413">
        <ele>275.621</ele>
        <time>2020-04-05T15:38:00Z</time>
      </trkpt>
      <trkpt lat="43.53699" lon="1.46406">
        <ele>275.66</ele>
        <time>2020-04-05T15:38:05Z</time>
      </trkpt>
      <trkpt lat="43.53703" lon="1.46401">
        <ele>275.7</ele>
        <time>2020-04-05T15:38:11Z</time>
      </trkpt>
      <trkpt lat="43.53708" lon="1.46396">
        <ele>275.737</ele>
        <time>2020-04-05T15:38:16Z</time>
      </trkpt>
      <trkpt lat="43.53711" lon="1.46388">
        <ele>275.785</ele>
        <time>2020-04-05T15:38:22Z</time>
      </trkpt>
      <trkpt lat="43.53715" lon="1.46383">
        <ele>275.828</ele>
        <time>2020-04-05T15:38:28Z</time>
      </trkpt>
      <trkpt lat="43.53718" lon="1.4638">
        <ele>275.895</ele>
        <time>2020-04-05T15:38:34Z</time>
      </trkpt>
      <trkpt lat="43.53724" lon="1.46377">
        <ele>275.984</ele>
        <time>2020-04-05T15:38:40Z</time>
      </trkpt>
      <trkpt lat="43.53729" lon="1.46372">
        <ele>276.071</ele>
        <time>2020-04-05T15:38:46Z</time>
      </trkpt>
      <trkpt lat="43.53736" lon="1.46364">
        <ele>276.177</ele>
        <time>2020-04-05T15:38:52Z</time>
      </trkpt>
      <trkpt lat="43.53739" lon="1.46358">
        <ele>276.272</ele>
        <time>2020-04-05T15:38:57Z</time>
      </trkpt>
      <trkpt lat="43.53743" lon="1.46353">
        <ele>276.37</ele>
        <time>2020-04-05T15:39:02Z</time>
      </trkpt>
      <trkpt lat="43.53747" lon="1.46348">
        <ele>276.463</ele>
        <time>2020-04-05T15:39:07Z</time>
      </trkpt>
      <trkpt lat="43.53752" lon="1.46343">
        <ele>276.568</ele>
        <time>2020-04-05T15:39:13Z</time>
      </trkpt>
      <trkpt lat="43.53755" lon="1.46339">
        <ele>276.669</ele>
        <time>2020-04-05T15:39:19Z</time>
      </trkpt>
      <trkpt lat="43.53759" lon="1.46336">
        <ele>276.745</ele>
        <time>2020-04-05T15:39:24Z</time>
      </trkpt>
      <trkpt lat="43.53762" lon="1.46332">
        <ele>276.81</ele>
        <time>2020-04-05T15:39:29Z</time>
      </trkpt>
      <trkpt lat="43.53768" lon="1.46325">
        <ele>276.863</ele>
        <time>2020-04-05T15:39:35Z</time>
      </trkpt>
      <trkpt lat="43.53771" lon="1.46319">
        <ele>276.909</ele>
        <time>2020-04-05T15:39:40Z</time>
      </trkpt>
      <trkpt lat="43.53776" lon="1.46313">
        <ele>276.961</ele>
        <time>2020-04-05T15:39:46Z</time>
      </trkpt>
      <trkpt lat="43.53783" lon="1.46312">
        <ele>277.002</ele>
        <time>2020-04-05T15:39:51Z</time>
      </trkpt>
      <trkpt lat="43.53787" lon="1.46309">
        <ele>277.04</ele>
        <time>2020-04-05T15:39:56Z</time>
      </trkpt>
      <trkpt lat="43.53794" lon="1.46308">
        <ele>277.067</ele>
        <time>2020-04-05T15:40:02Z</time>
      </trkpt>
      <trkpt lat="43.53795" lon="1.46305">
        <ele>277.097</ele>
        <time>2020-04-05T15:40:07Z</time>
      </trkpt>
      <trkpt lat="43.538" lon="1.46301">
        <ele>277.129</ele>
        <time>2020-04-05T15:40:13Z</time>
      </trkpt>
      <trkpt lat="43.53806" lon="1.46298">
        <ele>277.152</ele>
        <time>2020-04-05T15:40:18Z</time>
      </trkpt>
      <trkpt lat="43.5381" lon="1.46293">
        <ele>277.175</ele>
        <time>2020-04-05T15:40:24Z</time>
      </trkpt>
      <trkpt lat="43.53815" lon="1.46284">
        <ele>277.205</ele>
        <time>2020-04-05T15:40:30Z</time>
      </trkpt>
      <trkpt lat="43.53818" lon="1.46279">
        <ele>277.242</ele>
        <time>2020-04-05T15:40:36Z</time>
      </trkpt>
      <trkpt lat="43.53822" lon="1.46273">
        <ele>277.278</ele>
        <time>2020-04-05T15:40:41Z</time>
      </trkpt>
      <trkpt lat="43.53826" lon="1.46268">
        <ele>277.323</ele>
        <time>2020-04-05T15:40:47Z</time>
      </trkpt>
      <trkpt lat="43.53831" lon="1.46265">
        <ele>277.371</ele>
        <time>2020-04-05T15:40:52Z</time>
      </trkpt>
      <trkpt lat="43.53834" lon="1.46261">
        <ele>277.417</ele>
        <time>2020-04-05T15:40:57Z</time>
      </trkpt>
      <trkpt lat="43.53833" lon="1.46251">
        <ele>277.492</ele>
        <time>2020-04-05T15:41:03Z</time>
      </trkpt>
      <trkpt lat="43.53843" lon="1.46244">
        <ele>277.582</ele>
        <time>2020-04-05T15:41:09Z</time>
      </trkpt>
      <trkpt lat="43.53848" lon="1.46239">
        <ele>277.664</ele>
        <time>2020-04-05T15:41:14Z</time>
      </trkpt>
      <trkpt lat="43.5385" lon="1.46237">
        <ele>277.754</ele>
        <time>2020-04-05T15:41:20Z</time>
      </trkpt>
      <trkpt lat="43.53852" lon="1.46235">
        <ele>277.815</ele>
        <time>2020-04-05T15:41:25Z</time>
      </trkpt>
      <trkpt lat="43.5386" lon="1.46231">
        <ele>277.885</ele>
        <time>2020-04-05T15:41:31Z</time>
      </trkpt>
      <trkpt lat="43.53863" lon="1.46226">
        <ele>277.942</ele>
        <time>2020-04-05T15:41:36Z</time>
      </trkpt>
      <trkpt lat="43.53867" lon="1.46219">
        <ele>278.003</ele>
        <time>2020-04-05T15:41:42Z</time>
      </trkpt>
      <trkpt lat="43.53872" lon="1.4621">
        <ele>278.06</ele>
        <time>2020-04-05T15:41:48Z</time>
      </trkpt>
      <trkpt lat="43.53875" lon="1.46206">
        <ele>278.103</ele>
        <time>2020-04-05T15:41:53Z</time>
      </trkpt>
      <trkpt lat="43.53882" lon="1.46203">
        <ele>278.15</ele>
        <time>2020-04-05T15:41:59Z</time>
      </trkpt>
      <trkpt lat="43.53888" lon="1.46196">
        <ele>278.194</ele>
        <time>2020-04-05T15:42:05Z</time>
      </trkpt>
      <trkpt lat="43.53892" lon="1.46193">
        <ele>278.228</ele>
        <time>2020-04-05T15:42:10Z</time>
      </trkpt>
      <trkpt lat="43.53897" lon="1.46185">
        <ele>278.266</ele>
        <time>2020-04-05T15:42:16Z</time>
      </trkpt>
      <trkpt lat="43.539" lon="1.46182">
        <ele>278.297</ele>
        <time>2020-04-05T15:42:22Z</time>
      </trkpt>
      <trkpt lat="43.53903" lon="1.46177">
        <ele>278.321</ele>
        <time>2020-04-05T15:42:28Z</time>
      </trkpt>
      <trkpt lat="43.53906" lon="1.46173">
        <ele>278.335</ele>
        <time>2020-04-05T15:42:33Z</time>
      </trkpt>
      <trkpt lat="43.53915" lon="1.4617">
        <ele>278.366</ele>
        <time>2020-04-05T15:42:39Z</time>
      </trkpt>
      <trkpt lat="43.53921" lon="1.46164">
        <ele>278.408</ele>
        <time>2020-04-05T15:42:45Z</time>
      </trkpt>
      <trkpt lat="43.53926" lon="1.46159">
        <ele>278.451</ele>
        <time>2020-04-05T15:42:50Z</time>
      </trkpt>
      <trkpt lat="43.53927" lon="1.46157">
        <ele>278.474</ele>
        <time>2020-04-05T15:42:56Z</time>
      </trkpt>
      <trkpt lat="43.53927" lon="1.46156">
        <ele>278.483</ele>
        <time>2020-04-05T15:43:02Z</time>
      </trkpt>
      <trkpt lat="43.53928" lon="1.46151">
        <ele>278.511</ele>
        <time>2020-04-05T15:43:08Z</time>
      </trkpt>
      <trkpt lat="43.53931" lon="1.46149">
        <ele>278.609</ele>
        <time>2020-04-05T15:43:13Z</time>
      </trkpt>
      <trkpt lat="43.53931" lon="1.46148">
        <ele>278.62</ele>
        <time>2020-04-05T15:43:18Z</time>
      </trkpt>
      <trkpt lat="43.53931" lon="1.46148">
        <ele>278.634</ele>
        <time>2020-04-05T15:43:24Z</time>
      </trkpt>
      <trkpt lat="43.5393" lon="1.46148">
        <ele>278.646</ele>
        <time>2020-04-05T15:43:29Z</time>
      </trkpt>
      <trkpt lat="43.5393" lon="1.46148">
        <ele>278.682</ele>
        <time>2020-04-05T15:43:34Z</time>
      </trkpt>
      <trkpt lat="43.53931" lon="1.46149">
        <ele>278.724</ele>
        <time>2020-04-05T15:43:40Z</time>
      </trkpt>
      <trkpt lat="43.53932" lon="1.46159">
        <ele>278.813</ele>
        <time>2020-04-05T15:43:46Z</time>
      </trkpt>
      <trkpt lat="43.53935" lon="1.46163">
        <ele>278.94</ele>
        <time>2020-04-05T15:43:51Z</time>
      </trkpt>
      <trkpt lat="43.53937" lon="1.46166">
        <ele>279.014</ele>
        <time>2020-04-05T15:43:56Z</time>
      </trkpt>
      <trkpt lat="43.53937" lon="1.46167">
        <ele>279.086</ele>
        <time>2020-04-05T15:44:01Z</time>
      </trkpt>
      <trkpt lat="43.5394" lon="1.46171">
        <ele>279.169</ele>
        <time>2020-04-05T15:44:06Z</time>
      </trkpt>
      <trkpt lat="43.53945" lon="1.46176">
        <ele>279.276</ele>
        <time>2020-04-05T15:44:12Z</time>
      </trkpt>
      <trkpt lat="43.5395" lon="1.46179">
        <ele>279.353</ele>
        <time>2020-04-05T15:44:17Z</time>
      </trkpt>
      <trkpt lat="43.53954" lon="1.46182">
        <ele>279.421</ele>
        <time>2020-04-05T15:44:22Z</time>
      </trkpt>
      <trkpt lat="43.53961" lon="1.46186">
        <ele>279.491</ele>
        <time>2020-04-05T15:44:28Z</time>
      </trkpt>
      <trkpt lat="43.53967" lon="1.46188">
        <ele>279.542</ele>
        <time>2020-04-05T15:44:33Z</time>
      </trkpt>
      <trkpt lat="43.53975" lon="1.46192">
        <ele>279.594</ele>
        <time>2020-04-05T15:44:39Z</time>
      </trkpt>
      <trkpt lat="43.5398" lon="1.462">
        <ele>279.634</ele>
        <time>2020-04-05T15:44:45Z</time>
      </trkpt>
      <trkpt lat="43.53985" lon="1.46206">
        <ele>279.668</ele>
        <time>2020-04-05T15:44:51Z</time>
      </trkpt>
      <trkpt lat="43.53988" lon="1.46209">
        <ele>279.693</ele>
        <time>2020-04-05T15:44:56Z</time>
      </trkpt>
      <trkpt lat="43.53993" lon="1.46217">
        <ele>279.724</ele>
        <time>2020-04-05T15:45:02Z</time>
      </trkpt>
      <trkpt lat="43.53997" lon="1.46223">
        <ele>279.754</ele>
        <time>2020-04-05T15:45:08Z</time>
      </trkpt>
      <trkpt lat="43.54001" lon="1.46229">
        <ele>279.778</ele>
        <time>2020-04-05T15:45:13Z</time>
      </trkpt>
      <trkpt lat="43.54004" lon="1.46235">
        <ele>279.804</ele>
        <time>2020-04-05T15:45:19Z</time>
      </trkpt>
      <trkpt lat="43.54005" lon="1.4624">
        <ele>279.823</ele>
        <time>2020-04-05T15:45:24Z</time>
      </trkpt>
      <trkpt lat="43.54008" lon="1.46244">
        <ele>279.848</ele>
        <time>2020-04-05T15:45:30Z</time>
      </trkpt>
      <trkpt lat="43.54011" lon="1.46246">
        <ele>279.865</ele>
        <time>2020-04-05T15:45:35Z</time>
      </trkpt>
      <trkpt lat="43.54014" lon="1.4625">
        <ele>279.881</ele>
        <time>2020-04-05T15:45:41Z</time>
      </trkpt>
      <trkpt lat="43.54019" lon="1.46254">
        <ele>279.896</ele>
        <time>2020-04-05T15:45:47Z</time>
      </trkpt>
      <trkpt lat="43.54021" lon="1.46261">
        <ele>279.904</ele>
        <time>2020-04-05T15:45:52Z</time>
      </trkpt>
      <trkpt lat="43.54025" lon="1.46269">
        <ele>279.912</ele>
        <time>2020-04-05T15:45:58Z</time>
      </trkpt>
      <trkpt lat="43.54031" lon="1.46273">
        <ele>279.914</ele>
        <time>2020-04-05T15:46:04Z</time>
      </trkpt>
      <trkpt lat="43.54034" lon="1.46278">
        <ele>279.913</ele>
        <time>2020-04-05T15:46:10Z</time>
      </trkpt>
      <trkpt lat="43.54036" lon="1.46283">
        <ele>279.907</ele>
        <time>2020-04-05T15:46:15Z</time>
      </trkpt>
      <trkpt lat="43.54039" lon="1.46284">
        <ele>279.897</ele>
        <time>2020-04-05T15:46:21Z</time>
      </trkpt>
      <trkpt lat="43.54041" lon="1.46282">
        <ele>279.889</ele>
        <time>2020-04-05T15:46:27Z</time>
      </trkpt>
      <trkpt lat="43.54041" lon="1.46282">
        <ele>279.888</ele>
        <time>2020-04-05T15:46:32Z</time>
      </trkpt>
      <trkpt lat="43.54041" lon="1.46283">
        <ele>279.884</ele>
        <time>2020-04-05T15:46:38Z</time>
      </trkpt>
      <trkpt lat="43.54041" lon="1.46284">
        <ele>279.878</ele>
        <time>2020-04-05T15:46:43Z</time>
      </trkpt>
      <trkpt lat="43.54047" lon="1.4629">
        <ele>279.853</ele>
        <time>2020-04-05T15:46:49Z</time>
      </trkpt>
      <trkpt lat="43.5405" lon="1.46294">
        <ele>279.839</ele>
        <time>2020-04-05T15:46:54Z</time>
      </trkpt>
      <trkpt lat="43.54052" lon="1.46298">
        <ele>279.816</ele>
        <time>2020-04-05T15:47:00Z</time>
      </trkpt>
      <trkpt lat="43.54055" lon="1.46305">
        <ele>279.793</ele>
        <time>2020-04-05T15:47:06Z</time>
      </trkpt>
      <trkpt lat="43.54059" lon="1.46312">
        <ele>279.773</ele>
        <time>2020-04-05T15:47:12Z</time>
      </trkpt>
      <trkpt lat="43.54062" lon="1.46317">
        <ele>279.748</ele>
        <time>2020-04-05T15:47:18Z</time>
      </trkpt>
      <trkpt lat="43.54066" lon="1.4632">
        <ele>279.721</ele>
        <time>2020-04-05T15:47:23Z</time>
      </trkpt>
      <trkpt lat="43.54071" lon="1.46327">
        <ele>279.686</ele>
        <time>2020-04-05T15:47:29Z</time>
      </trkpt>
      <trkpt lat="43.54075" lon="1.46332">
        <ele>279.653</ele>
        <time>2020-04-05T15:47:35Z</time>
      </trkpt>
      <trkpt lat="43.5408" lon="1.46337">
        <ele>279.62</ele>
        <time>2020-04-05T15:47:41Z</time>
      </trkpt>
      <trkpt lat="43.54084" lon="1.46344">
        <ele>279.594</ele>
        <time>2020-04-05T15:47:47Z</time>
      </trkpt>
      <trkpt lat="43.54091" lon="1.46346">
        <ele>279.569</ele>
        <time>2020-04-05T15:47:53Z</time>
      </trkpt>
      <trkpt lat="43.54097" lon="1.46344">
        <ele>279.544</ele>
        <time>2020-04-05T15:47:59Z</time>
      </trkpt>
      <trkpt lat="43.54104" lon="1.46346">
        <ele>279.507</ele>
        <time>2020-04-05T15:48:05Z</time>
      </trkpt>
      <trkpt lat="43.54111" lon="1.46348">
        <ele>279.46</ele>
        <time>2020-04-05T15:48:11Z</time>
      </trkpt>
      <trkpt lat="43.54115" lon="1.4635">
        <ele>279.415</ele>
        <time>2020-04-05T15:48:16Z</time>
      </trkpt>
      <trkpt lat="43.5412" lon="1.46355">
        <ele>279.36</ele>
        <time>2020-04-05T15:48:22Z</time>
      </trkpt>
      <trkpt lat="43.54122" lon="1.46362">
        <ele>279.316</ele>
        <time>2020-04-05T15:48:28Z</time>
      </trkpt>
      <trkpt lat="43.54126" lon="1.46366">
        <ele>279.279</ele>
        <time>2020-04-05T15:48:33Z</time>
      </trkpt>
      <trkpt lat="43.54131" lon="1.46372">
        <ele>279.229</ele>
        <time>2020-04-05T15:48:39Z</time>
      </trkpt>
      <trkpt lat="43.54137" lon="1.46378">
        <ele>279.174</ele>
        <time>2020-04-05T15:48:45Z</time>
      </trkpt>
      <trkpt lat="43.54142" lon="1.46385">
        <ele>279.117</ele>
        <time>2020-04-05T15:48:51Z</time>
      </trkpt>
      <trkpt lat="43.54147" lon="1.4639">
        <ele>279.072</ele>
        <time>2020-04-05T15:48:56Z</time>
      </trkpt>
      <trkpt lat="43.54152" lon="1.46395">
        <ele>279.018</ele>
        <time>2020-04-05T15:49:02Z</time>
      </trkpt>
      <trkpt lat="43.54159" lon="1.464">
        <ele>278.963</ele>
        <time>2020-04-05T15:49:08Z</time>
      </trkpt>
      <trkpt lat="43.54164" lon="1.46407">
        <ele>278.904</ele>
        <time>2020-04-05T15:49:14Z</time>
      </trkpt>
      <trkpt lat="43.54169" lon="1.46413">
        <ele>278.844</ele>
        <time>2020-04-05T15:49:20Z</time>
      </trkpt>
      <trkpt lat="43.54174" lon="1.46416">
        <ele>278.795</ele>
        <time>2020-04-05T15:49:25Z</time>
      </trkpt>
      <trkpt lat="43.54178" lon="1.4642">
        <ele>278.746</ele>
        <time>2020-04-05T15:49:30Z</time>
      </trkpt>
      <trkpt lat="43.54184" lon="1.46426">
        <ele>278.688</ele>
        <time>2020-04-05T15:49:36Z</time>
      </trkpt>
      <trkpt lat="43.54189" lon="1.46433">
        <ele>278.638</ele>
        <time>2020-04-05T15:49:42Z</time>
      </trkpt>
      <trkpt lat="43.54193" lon="1.46437">
        <ele>278.605</ele>
        <time>2020-04-05T15:49:47Z</time>
      </trkpt>
      <trkpt lat="43.54198" lon="1.46444">
        <ele>278.574</ele>
        <time>2020-04-05T15:49:53Z</time>
      </trkpt>
      <trkpt lat="43.54203" lon="1.46448">
        <ele>278.553</ele>
        <time>2020-04-05T15:49:58Z</time>
      </trkpt>
      <trkpt lat="43.54206" lon="1.46452">
        <ele>278.528</ele>
        <time>2020-04-05T15:50:03Z</time>
      </trkpt>
      <trkpt lat="43.54209" lon="1.46457">
        <ele>278.5</ele>
        <time>2020-04-05T15:50:09Z</time>
      </trkpt>
      <trkpt lat="43.54215" lon="1.46463">
        <ele>278.473</ele>
        <time>2020-04-05T15:50:15Z</time>
      </trkpt>
      <trkpt lat="43.54221" lon="1.46469">
        <ele>278.453</ele>
        <time>2020-04-05T15:50:21Z</time>
      </trkpt>
      <trkpt lat="43.54227" lon="1.46476">
        <ele>278.442</ele>
        <time>2020-04-05T15:50:27Z</time>
      </trkpt>
      <trkpt lat="43.5423" lon="1.46482">
        <ele>278.442</ele>
        <time>2020-04-05T15:50:33Z</time>
      </trkpt>
      <trkpt lat="43.54242" lon="1.46483">
        <ele>278.462</ele>
        <time>2020-04-05T15:50:39Z</time>
      </trkpt>
      <trkpt lat="43.54246" lon="1.46483">
        <ele>278.513</ele>
        <time>2020-04-05T15:50:44Z</time>
      </trkpt>
      <trkpt lat="43.54248" lon="1.46479">
        <ele>278.57</ele>
        <time>2020-04-05T15:50:49Z</time>
      </trkpt>
      <trkpt lat="43.54256" lon="1.46473">
        <ele>278.633</ele>
        <time>2020-04-05T15:50:55Z</time>
      </trkpt>
      <trkpt lat="43.54262" lon="1.46468">
        <ele>278.682</ele>
        <time>2020-04-05T15:51:00Z</time>
      </trkpt>
      <trkpt lat="43.54269" lon="1.4646">
        <ele>278.74</ele>
        <time>2020-04-05T15:51:06Z</time>
      </trkpt>
      <trkpt lat="43.54272" lon="1.46455">
        <ele>278.786</ele>
        <time>2020-04-05T15:51:11Z</time>
      </trkpt>
      <trkpt lat="43.54277" lon="1.46449">
        <ele>278.846</ele>
        <time>2020-04-05T15:51:17Z</time>
      </trkpt>
      <trkpt lat="43.54282" lon="1.46446">
        <ele>278.92</ele>
        <time>2020-04-05T15:51:23Z</time>
      </trkpt>
      <trkpt lat="43.54287" lon="1.46441">
        <ele>279.001</ele>
        <time>2020-04-05T15:51:29Z</time>
      </trkpt>
      <trkpt lat="43.54292" lon="1.46435">
        <ele>279.085</ele>
        <time>2020-04-05T15:51:35Z</time>
      </trkpt>
      <trkpt lat="43.54294" lon="1.46426">
        <ele>279.161</ele>
        <time>2020-04-05T15:51:40Z</time>
      </trkpt>
      <trkpt lat="43.54299" lon="1.4642">
        <ele>279.258</ele>
        <time>2020-04-05T15:51:46Z</time>
      </trkpt>
      <trkpt lat="43.54303" lon="1.46414">
        <ele>279.338</ele>
        <time>2020-04-05T15:51:52Z</time>
      </trkpt>
      <trkpt lat="43.54307" lon="1.46406">
        <ele>279.415</ele>
        <time>2020-04-05T15:51:58Z</time>
      </trkpt>
      <trkpt lat="43.54311" lon="1.46401">
        <ele>279.483</ele>
        <time>2020-04-05T15:52:04Z</time>
      </trkpt>
      <trkpt lat="43.54312" lon="1.46401">
        <ele>279.514</ele>
        <time>2020-04-05T15:52:09Z</time>
      </trkpt>
      <trkpt lat="43.54313" lon="1.46397">
        <ele>279.576</ele>
        <time>2020-04-05T15:52:15Z</time>
      </trkpt>
      <trkpt lat="43.54317" lon="1.46391">
        <ele>279.641</ele>
        <time>2020-04-05T15:52:21Z</time>
      </trkpt>
      <trkpt lat="43.54318" lon="1.46389">
        <ele>279.691</ele>
        <time>2020-04-05T15:52:26Z</time>
      </trkpt>
      <trkpt lat="43.54324" lon="1.46392">
        <ele>279.744</ele>
        <time>2020-04-05T15:52:32Z</time>
      </trkpt>
      <trkpt lat="43.5433" lon="1.46394">
        <ele>279.781</ele>
        <time>2020-04-05T15:52:37Z</time>
      </trkpt>
      <trkpt lat="43.54336" lon="1.46398">
        <ele>279.819</ele>
        <time>2020-04-05T15:52:43Z</time>
      </trkpt>
      <trkpt lat="43.54338" lon="1.46404">
        <ele>279.854</ele>
        <time>2020-04-05T15:52:48Z</time>
      </trkpt>
      <trkpt lat="43.54339" lon="1.46416">
        <ele>279.904</ele>
        <time>2020-04-05T15:52:54Z</time>
      </trkpt>
      <trkpt lat="43.54339" lon="1.46424">
        <ele>279.967</ele>
        <time>2020-04-05T15:53:00Z</time>
      </trkpt>
      <trkpt lat="43.54343" lon="1.46432">
        <ele>280.036</ele>
        <time>2020-04-05T15:53:06Z</time>
      </trkpt>
      <trkpt lat="43.54344" lon="1.46436">
        <ele>280.101</ele>
        <time>2020-04-05T15:53:12Z</time>
      </trkpt>
      <trkpt lat="43.54349" lon="1.4644">
        <ele>280.152</ele>
        <time>2020-04-05T15:53:18Z</time>
      </trkpt>
      <trkpt lat="43.54354" lon="1.46442">
        <ele>280.181</ele>
        <time>2020-04-05T15:53:23Z</time>
      </trkpt>
      <trkpt lat="43.54359" lon="1.46447">
        <ele>280.201</ele>
        <time>2020-04-05T15:53:28Z</time>
      </trkpt>
      <trkpt lat="43.54364" lon="1.46451">
        <ele>280.22</ele>
        <time>2020-04-05T15:53:34Z</time>
      </trkpt>
      <trkpt lat="43.54369" lon="1.46458">
        <ele>280.237</ele>
        <time>2020-04-05T15:53:39Z</time>
      </trkpt>
      <trkpt lat="43.54377" lon="1.46461">
        <ele>280.261</ele>
        <time>2020-04-05T15:53:45Z</time>
      </trkpt>
      <trkpt lat="43.54383" lon="1.46467">
        <ele>280.29</ele>
        <time>2020-04-05T15:53:51Z</time>
      </trkpt>
      <trkpt lat="43.54389" lon="1.46471">
        <ele>280.324</ele>
        <time>2020-04-05T15:53:57Z</time>
      </trkpt>
      <trkpt lat="43.54394" lon="1.46472">
        <ele>280.352</ele>
        <time>2020-04-05T15:54:02Z</time>
      </trkpt>
      <trkpt lat="43.54397" lon="1.46473">
        <ele>280.367</ele>
        <time>2020-04-05T15:54:08Z</time>
      </trkpt>
      <trkpt lat="43.54398" lon="1.46477">
        <ele>280.421</ele>
        <time>2020-04-05T15:54:14Z</time>
      </trkpt>
      <trkpt lat="43.54401" lon="1.46482">
        <ele>280.477</ele>
        <time>2020-04-05T15:54:20Z</time>
      </trkpt>
      <trkpt lat="43.54404" lon="1.46483">
        <ele>280.502</ele>
        <time>2020-04-05T15:54:26Z</time>
      </trkpt>
      <trkpt lat="43.54405" lon="1.46485">
        <ele>280.559</ele>
        <time>2020-04-05T15:54:32Z</time>
      </trkpt>
      <trkpt lat="43.54406" lon="1.46489">
        <ele>280.602</ele>
        <time>2020-04-05T15:54:37Z</time>
      </trkpt>
      <trkpt lat="43.54407" lon="1.46488">
        <ele>280.62</ele>
        <time>2020-04-05T15:54:43Z</time>
      </trkpt>
      <trkpt lat="43.54407" lon="1.46488">
        <ele>280.645</ele>
        <time>2020-04-05T15:54:49Z</time>
      </trkpt>
      <trkpt lat="43.54411" lon="1.46484">
        <ele>280.676</ele>
        <time>2020-04-05T15:54:54Z</time>
      </trkpt>
      <trkpt lat="43.54412" lon="1.46483">
        <ele>280.699</ele>
        <time>2020-04-05T15:55:00Z</time>
      </trkpt>
      <trkpt lat="43.54417" lon="1.46482">
        <ele>280.726</ele>
        <time>2020-04-05T15:55:05Z</time>
      </trkpt>
      <trkpt lat="43.54423" lon="1.46483">
        <ele>280.749</ele>
        <time>2020-04-05T15:55:11Z</time>
      </trkpt>
      <trkpt lat="43.54429" lon="1.46485">
        <ele>280.763</ele>
        <time>2020-04-05T15:55:16Z</time>
      </trkpt>
      <trkpt lat="43.54438" lon="1.46482">
        <ele>280.773</ele>
        <time>2020-04-05T15:55:21Z</time>
      </trkpt>
      <trkpt lat="43.54442" lon="1.46493">
        <ele>280.778</ele>
        <time>2020-04-05T15:55:27Z</time>
      </trkpt>
      <trkpt lat="43.54451" lon="1.46497">
        <ele>280.783</ele>
        <time>2020-04-05T15:55:33Z</time>
      </trkpt>
      <trkpt lat="43.54457" lon="1.46504">
        <ele>280.791</ele>
        <time>2020-04-05T15:55:39Z</time>
      </trkpt>
      <trkpt lat="43.54461" lon="1.4651">
        <ele>280.802</ele>
        <time>2020-04-05T15:55:44Z</time>
      </trkpt>
      <trkpt lat="43.54466" lon="1.46517">
        <ele>280.82</ele>
        <time>2020-04-05T15:55:50Z</time>
      </trkpt>
      <trkpt lat="43.5447" lon="1.46521">
        <ele>280.834</ele>
        <time>2020-04-05T15:55:55Z</time>
      </trkpt>
      <trkpt lat="43.54477" lon="1.46525">
        <ele>280.848</ele>
        <time>2020-04-05T15:56:01Z</time>
      </trkpt>
      <trkpt lat="43.54483" lon="1.46532">
        <ele>280.861</ele>
        <time>2020-04-05T15:56:07Z</time>
      </trkpt>
      <trkpt lat="43.54486" lon="1.46537">
        <ele>280.874</ele>
        <time>2020-04-05T15:56:12Z</time>
      </trkpt>
      <trkpt lat="43.54489" lon="1.46543">
        <ele>280.885</ele>
        <time>2020-04-05T15:56:18Z</time>
      </trkpt>
      <trkpt lat="43.54495" lon="1.46545">
        <ele>280.888</ele>
        <time>2020-04-05T15:56:23Z</time>
      </trkpt>
      <trkpt lat="43.54501" lon="1.46551">
        <ele>280.891</ele>
        <time>2020-04-05T15:56:29Z</time>
      </trkpt>
      <trkpt lat="43.54505" lon="1.46557">
        <ele>280.889</ele>
        <time>2020-04-05T15:56:35Z</time>
      </trkpt>
      <trkpt lat="43.5451" lon="1.46563">
        <ele>280.88</ele>
        <time>2020-04-05T15:56:41Z</time>
      </trkpt>
      <trkpt lat="43.54516" lon="1.46568">
        <ele>280.867</ele>
        <time>2020-04-05T15:56:47Z</time>
      </trkpt>
      <trkpt lat="43.5452" lon="1.46574">
        <ele>280.851</ele>
        <time>2020-04-05T15:56:53Z</time>
      </trkpt>
      <trkpt lat="43.54524" lon="1.4658">
        <ele>280.837</ele>
        <time>2020-04-05T15:56:58Z</time>
      </trkpt>
      <trkpt lat="43.54529" lon="1.46586">
        <ele>280.825</ele>
        <time>2020-04-05T15:57:04Z</time>
      </trkpt>
      <trkpt lat="43.54532" lon="1.46591">
        <ele>280.809</ele>
        <time>2020-04-05T15:57:09Z</time>
      </trkpt>
      <trkpt lat="43.54537" lon="1.46594">
        <ele>280.791</ele>
        <time>2020-04-05T15:57:15Z</time>
      </trkpt>
      <trkpt lat="43.54541" lon="1.46596">
        <ele>280.774</ele>
        <time>2020-04-05T15:57:21Z</time>
      </trkpt>
      <trkpt lat="43.54547" lon="1.46606">
        <ele>280.749</ele>
        <time>2020-04-05T15:57:27Z</time>
      </trkpt>
      <trkpt lat="43.54552" lon="1.4661">
        <ele>280.722</ele>
        <time>2020-04-05T15:57:32Z</time>
      </trkpt>
      <trkpt lat="43.54556" lon="1.46616">
        <ele>280.684</ele>
        <time>2020-04-05T15:57:38Z</time>
      </trkpt>
      <trkpt lat="43.54562" lon="1.46618">
        <ele>280.646</ele>
        <time>2020-04-05T15:57:44Z</time>
      </trkpt>
      <trkpt lat="43.54567" lon="1.46617">
        <ele>280.607</ele>
        <time>2020-04-05T15:57:49Z</time>
      </trkpt>
      <trkpt lat="43.54574" lon="1.4662">
        <ele>280.546</ele>
        <time>2020-04-05T15:57:55Z</time>
      </trkpt>
      <trkpt lat="43.5458" lon="1.46622">
        <ele>280.483</ele>
        <time>2020-04-05T15:58:00Z</time>
      </trkpt>
      <trkpt lat="43.54585" lon="1.46623">
        <ele>280.391</ele>
        <time>2020-04-05T15:58:06Z</time>
      </trkpt>
      <trkpt lat="43.54588" lon="1.46623">
        <ele>280.303</ele>
        <time>2020-04-05T15:58:12Z</time>
      </trkpt>
      <trkpt lat="43.54592" lon="1.46623">
        <ele>280.213</ele>
        <time>2020-04-05T15:58:17Z</time>
      </trkpt>
      <trkpt lat="43.54598" lon="1.46622">
        <ele>280.102</ele>
        <time>2020-04-05T15:58:23Z</time>
      </trkpt>
      <trkpt lat="43.54605" lon="1.46622">
        <ele>279.989</ele>
        <time>2020-04-05T15:58:29Z</time>
      </trkpt>
      <trkpt lat="43.54609" lon="1.46621">
        <ele>279.911</ele>
        <time>2020-04-05T15:58:34Z</time>
      </trkpt>
      <trkpt lat="43.54616" lon="1.4662">
        <ele>279.817</ele>
        <time>2020-04-05T15:58:39Z</time>
      </trkpt>
      <trkpt lat="43.54621" lon="1.46619">
        <ele>279.724</ele>
        <time>2020-04-05T15:58:44Z</time>
      </trkpt>
      <trkpt lat="43.54627" lon="1.46618">
        <ele>279.63</ele>
        <time>2020-04-05T15:58:50Z</time>
      </trkpt>
      <trkpt lat="43.54634" lon="1.46616">
        <ele>279.546</ele>
        <time>2020-04-05T15:58:56Z</time>
      </trkpt>
      <trkpt lat="43.5464" lon="1.46612">
        <ele>279.45</ele>
        <time>2020-04-05T15:59:02Z</time>
      </trkpt>
      <trkpt lat="43.54643" lon="1.46609">
        <ele>279.363</ele>
        <time>2020-04-05T15:59:07Z</time>
      </trkpt>
      <trkpt lat="43.54647" lon="1.46604">
        <ele>279.282</ele>
        <time>2020-04-05T15:59:12Z</time>
      </trkpt>
      <trkpt lat="43.54654" lon="1.46603">
        <ele>279.207</ele>
        <time>2020-04-05T15:59:17Z</time>
      </trkpt>
      <trkpt lat="43.5466" lon="1.46606">
        <ele>279.122</ele>
        <time>2020-04-05T15:59:23Z</time>
      </trkpt>
      <trkpt lat="43.54671" lon="1.46604">
        <ele>279.056</ele>
        <time>2020-04-05T15:59:28Z</time>
      </trkpt>
      <trkpt lat="43.54677" lon="1.46604">
        <ele>278.979</ele>
        <time>2020-04-05T15:59:34Z</time>
      </trkpt>
      <trkpt lat="43.54682" lon="1.46612">
        <ele>278.89</ele>
        <time>2020-04-05T15:59:40Z</time>
      </trkpt>
      <trkpt lat="43.54686" lon="1.46617">
        <ele>278.798</ele>
        <time>2020-04-05T15:59:45Z</time>
      </trkpt>
      <trkpt lat="43.5469" lon="1.46624">
        <ele>278.672</ele>
        <time>2020-04-05T15:59:51Z</time>
      </trkpt>
      <trkpt lat="43.54692" lon="1.46629">
        <ele>278.554</ele>
        <time>2020-04-05T15:59:57Z</time>
      </trkpt>
      <trkpt lat="43.54692" lon="1.46634">
        <ele>278.44</ele>
        <time>2020-04-05T16:00:02Z</time>
      </trkpt>
      <trkpt lat="43.54692" lon="1.46637">
        <ele>278.33</ele>
        <time>2020-04-05T16:00:08Z</time>
      </trkpt>
      <trkpt lat="43.54693" lon="1.4664">
        <ele>278.227</ele>
        <time>2020-04-05T16:00:13Z</time>
      </trkpt>
      <trkpt lat="43.54695" lon="1.46652">
        <ele>278.115</ele>
        <time>2020-04-05T16:00:19Z</time>
      </trkpt>
      <trkpt lat="43.54699" lon="1.46659">
        <ele>277.989</ele>
        <time>2020-04-05T16:00:24Z</time>
      </trkpt>
      <trkpt lat="43.54708" lon="1.46665">
        <ele>277.873</ele>
        <time>2020-04-05T16:00:29Z</time>
      </trkpt>
      <trkpt lat="43.54708" lon="1.46666">
        <ele>277.855</ele>
        <time>2020-04-05T16:00:35Z</time>
      </trkpt>
      <trkpt lat="43.54711" lon="1.46668">
        <ele>277.673</ele>
        <time>2020-04-05T16:00:41Z</time>
      </trkpt>
      <trkpt lat="43.54706" lon="1.46671">
        <ele>277.503</ele>
        <time>2020-04-05T16:00:47Z</time>
      </trkpt>
      <trkpt lat="43.547" lon="1.46673">
        <ele>277.357</ele>
        <time>2020-04-05T16:00:52Z</time>
      </trkpt>
      <trkpt lat="43.54692" lon="1.46676">
        <ele>277.187</ele>
        <time>2020-04-05T16:00:58Z</time>
      </trkpt>
      <trkpt lat="43.54684" lon="1.46677">
        <ele>277.028</ele>
        <time>2020-04-05T16:01:04Z</time>
      </trkpt>
      <trkpt lat="43.5468" lon="1.46677">
        <ele>276.897</ele>
        <time>2020-04-05T16:01:09Z</time>
      </trkpt>
      <trkpt lat="43.54675" lon="1.46679">
        <ele>276.74</ele>
        <time>2020-04-05T16:01:15Z</time>
      </trkpt>
      <trkpt lat="43.5467" lon="1.4668">
        <ele>276.568</ele>
        <time>2020-04-05T16:01:21Z</time>
      </trkpt>
      <trkpt lat="43.54664" lon="1.46684">
        <ele>276.387</ele>
        <time>2020-04-05T16:01:27Z</time>
      </trkpt>
      <trkpt lat="43.54659" lon="1.46685">
        <ele>276.237</ele>
        <time>2020-04-05T16:01:32Z</time>
      </trkpt>
      <trkpt lat="43.54651" lon="1.46685">
        <ele>276.062</ele>
        <time>2020-04-05T16:01:38Z</time>
      </trkpt>
      <trkpt lat="43.54644" lon="1.4669">
        <ele>275.892</ele>
        <time>2020-04-05T16:01:44Z</time>
      </trkpt>
      <trkpt lat="43.54638" lon="1.46693">
        <ele>275.729</ele>
        <time>2020-04-05T16:01:50Z</time>
      </trkpt>
      <trkpt lat="43.54633" lon="1.46696">
        <ele>275.6</ele>
        <time>2020-04-05T16:01:55Z</time>
      </trkpt>
      <trkpt lat="43.54627" lon="1.46698">
        <ele>275.452</ele>
        <time>2020-04-05T16:02:01Z</time>
      </trkpt>
      <trkpt lat="43.54622" lon="1.467">
        <ele>275.34</ele>
        <time>2020-04-05T16:02:06Z</time>
      </trkpt>
      <trkpt lat="43.54619" lon="1.46702">
        <ele>275.25</ele>
        <time>2020-04-05T16:02:11Z</time>
      </trkpt>
      <trkpt lat="43.54613" lon="1.46705">
        <ele>275.112</ele>
        <time>2020-04-05T16:02:17Z</time>
      </trkpt>
      <trkpt lat="43.54608" lon="1.46709">
        <ele>274.991</ele>
        <time>2020-04-05T16:02:22Z</time>
      </trkpt>
      <trkpt lat="43.54604" lon="1.46713">
        <ele>274.872</ele>
        <time>2020-04-05T16:02:27Z</time>
      </trkpt>
      <trkpt lat="43.54601" lon="1.46717">
        <ele>274.793</ele>
        <time>2020-04-05T16:02:33Z</time>
      </trkpt>
      <trkpt lat="43.54601" lon="1.46718">
        <ele>274.78</ele>
        <time>2020-04-05T16:02:38Z</time>
      </trkpt>
      <trkpt lat="43.54601" lon="1.46718">
        <ele>274.764</ele>
        <time>2020-04-05T16:02:44Z</time>
      </trkpt>
      <trkpt lat="43.54601" lon="1.46719">
        <ele>274.75</ele>
        <time>2020-04-05T16:02:49Z</time>
      </trkpt>
      <trkpt lat="43.54601" lon="1.4672">
        <ele>274.736</ele>
        <time>2020-04-05T16:02:54Z</time>
      </trkpt>
      <trkpt lat="43.54601" lon="1.46721">
        <ele>274.719</ele>
        <time>2020-04-05T16:03:00Z</time>
      </trkpt>
      <trkpt lat="43.54601" lon="1.46722">
        <ele>274.702</ele>
        <time>2020-04-05T16:03:06Z</time>
      </trkpt>
      <trkpt lat="43.546" lon="1.46722">
        <ele>274.657</ele>
        <time>2020-04-05T16:03:12Z</time>
      </trkpt>
      <trkpt lat="43.54599" lon="1.46722">
        <ele>274.639</ele>
        <time>2020-04-05T16:03:18Z</time>
      </trkpt>
      <trkpt lat="43.54599" lon="1.46722">
        <ele>274.621</ele>
        <time>2020-04-05T16:03:24Z</time>
      </trkpt>
      <trkpt lat="43.54599" lon="1.46721">
        <ele>274.604</ele>
        <time>2020-04-05T16:03:30Z</time>
      </trkpt>
      <trkpt lat="43.54599" lon="1.46721">
        <ele>274.587</ele>
        <time>2020-04-05T16:03:36Z</time>
      </trkpt>
      <trkpt lat="43.54599" lon="1.46721">
        <ele>274.518</ele>
        <time>2020-04-05T16:03:41Z</time>
      </trkpt>
      <trkpt lat="43.54597" lon="1.46722">
        <ele>274.473</ele>
        <time>2020-04-05T16:03:47Z</time>
      </trkpt>
      <trkpt lat="43.54598" lon="1.46722">
        <ele>274.432</ele>
        <time>2020-04-05T16:03:52Z</time>
      </trkpt>
      <trkpt lat="43.54597" lon="1.46723">
        <ele>274.365</ele>
        <time>2020-04-05T16:03:58Z</time>
      </trkpt>
      <trkpt lat="43.54593" lon="1.46724">
        <ele>274.256</ele>
        <time>2020-04-05T16:04:03Z</time>
      </trkpt>
      <trkpt lat="43.54592" lon="1.46725">
        <ele>274.221</ele>
        <time>2020-04-05T16:04:08Z</time>
      </trkpt>
      <trkpt lat="43.54592" lon="1.46725">
        <ele>274.209</ele>
        <time>2020-04-05T16:04:13Z</time>
      </trkpt>
      <trkpt lat="43.54592" lon="1.46725">
        <ele>274.133</ele>
        <time>2020-04-05T16:04:19Z</time>
      </trkpt>
      <trkpt lat="43.54586" lon="1.46726">
        <ele>274.002</ele>
        <time>2020-04-05T16:04:25Z</time>
      </trkpt>
      <trkpt lat="43.54583" lon="1.46727">
        <ele>273.9</ele>
        <time>2020-04-05T16:04:30Z</time>
      </trkpt>
      <trkpt lat="43.54578" lon="1.46728">
        <ele>273.806</ele>
        <time>2020-04-05T16:04:35Z</time>
      </trkpt>
      <trkpt lat="43.54571" lon="1.4673">
        <ele>273.713</ele>
        <time>2020-04-05T16:04:41Z</time>
      </trkpt>
      <trkpt lat="43.54567" lon="1.4673">
        <ele>273.658</ele>
        <time>2020-04-05T16:04:46Z</time>
      </trkpt>
      <trkpt lat="43.5456" lon="1.46731">
        <ele>273.588</ele>
        <time>2020-04-05T16:04:52Z</time>
      </trkpt>
      <trkpt lat="43.54554" lon="1.46735">
        <ele>273.54</ele>
        <time>2020-04-05T16:04:57Z</time>
      </trkpt>
      <trkpt lat="43.54548" lon="1.4674">
        <ele>273.495</ele>
        <time>2020-04-05T16:05:03Z</time>
      </trkpt>
      <trkpt lat="43.54545" lon="1.46741">
        <ele>273.469</ele>
        <time>2020-04-05T16:05:08Z</time>
      </trkpt>
      <trkpt lat="43.54537" lon="1.46744">
        <ele>273.451</ele>
        <time>2020-04-05T16:05:14Z</time>
      </trkpt>
      <trkpt lat="43.54534" lon="1.46744">
        <ele>273.443</ele>
        <time>2020-04-05T16:05:19Z</time>
      </trkpt>
      <trkpt lat="43.5453" lon="1.46745">
        <ele>273.44</ele>
        <time>2020-04-05T16:05:25Z</time>
      </trkpt>
      <trkpt lat="43.54525" lon="1.46746">
        <ele>273.442</ele>
        <time>2020-04-05T16:05:30Z</time>
      </trkpt>
      <trkpt lat="43.54523" lon="1.46748">
        <ele>273.45</ele>
        <time>2020-04-05T16:05:36Z</time>
      </trkpt>
      <trkpt lat="43.54512" lon="1.46758">
        <ele>273.468</ele>
        <time>2020-04-05T16:05:42Z</time>
      </trkpt>
      <trkpt lat="43.54505" lon="1.46764">
        <ele>273.483</ele>
        <time>2020-04-05T16:05:47Z</time>
      </trkpt>
      <trkpt lat="43.54498" lon="1.4677">
        <ele>273.502</ele>
        <time>2020-04-05T16:05:52Z</time>
      </trkpt>
      <trkpt lat="43.54492" lon="1.46776">
        <ele>273.526</ele>
        <time>2020-04-05T16:05:58Z</time>
      </trkpt>
      <trkpt lat="43.54488" lon="1.46779">
        <ele>273.549</ele>
        <time>2020-04-05T16:06:03Z</time>
      </trkpt>
      <trkpt lat="43.54482" lon="1.46783">
        <ele>273.579</ele>
        <time>2020-04-05T16:06:09Z</time>
      </trkpt>
      <trkpt lat="43.54476" lon="1.46789">
        <ele>273.609</ele>
        <time>2020-04-05T16:06:15Z</time>
      </trkpt>
      <trkpt lat="43.54472" lon="1.46794">
        <ele>273.633</ele>
        <time>2020-04-05T16:06:20Z</time>
      </trkpt>
      <trkpt lat="43.54466" lon="1.46796">
        <ele>273.661</ele>
        <time>2020-04-05T16:06:26Z</time>
      </trkpt>
      <trkpt lat="43.54462" lon="1.46801">
        <ele>273.683</ele>
        <time>2020-04-05T16:06:31Z</time>
      </trkpt>
      <trkpt lat="43.54457" lon="1.46805">
        <ele>273.706</ele>
        <time>2020-04-05T16:06:37Z</time>
      </trkpt>
      <trkpt lat="43.54451" lon="1.46806">
        <ele>273.724</ele>
        <time>2020-04-05T16:06:43Z</time>
      </trkpt>
      <trkpt lat="43.54447" lon="1.4681">
        <ele>273.739</ele>
        <time>2020-04-05T16:06:48Z</time>
      </trkpt>
      <trkpt lat="43.54442" lon="1.46813">
        <ele>273.751</ele>
        <time>2020-04-05T16:06:53Z</time>
      </trkpt>
      <trkpt lat="43.54439" lon="1.46818">
        <ele>273.756</ele>
        <time>2020-04-05T16:06:59Z</time>
      </trkpt>
      <trkpt lat="43.54434" lon="1.46821">
        <ele>273.756</ele>
        <time>2020-04-05T16:07:04Z</time>
      </trkpt>
      <trkpt lat="43.54431" lon="1.46823">
        <ele>273.749</ele>
        <time>2020-04-05T16:07:10Z</time>
      </trkpt>
      <trkpt lat="43.54428" lon="1.46834">
        <ele>273.733</ele>
        <time>2020-04-05T16:07:15Z</time>
      </trkpt>
      <trkpt lat="43.54429" lon="1.46849">
        <ele>273.715</ele>
        <time>2020-04-05T16:07:20Z</time>
      </trkpt>
      <trkpt lat="43.54429" lon="1.46856">
        <ele>273.698</ele>
        <time>2020-04-05T16:07:26Z</time>
      </trkpt>
      <trkpt lat="43.54429" lon="1.46856">
        <ele>273.692</ele>
        <time>2020-04-05T16:07:31Z</time>
      </trkpt>
      <trkpt lat="43.54431" lon="1.46857">
        <ele>273.665</ele>
        <time>2020-04-05T16:07:36Z</time>
      </trkpt>
      <trkpt lat="43.54433" lon="1.46866">
        <ele>273.62</ele>
        <time>2020-04-05T16:07:42Z</time>
      </trkpt>
      <trkpt lat="43.54436" lon="1.46873">
        <ele>273.575</ele>
        <time>2020-04-05T16:07:48Z</time>
      </trkpt>
      <trkpt lat="43.54439" lon="1.46881">
        <ele>273.529</ele>
        <time>2020-04-05T16:07:54Z</time>
      </trkpt>
      <trkpt lat="43.54443" lon="1.46894">
        <ele>273.492</ele>
        <time>2020-04-05T16:08:00Z</time>
      </trkpt>
      <trkpt lat="43.54444" lon="1.46901">
        <ele>273.457</ele>
        <time>2020-04-05T16:08:06Z</time>
      </trkpt>
      <trkpt lat="43.54446" lon="1.46909">
        <ele>273.423</ele>
        <time>2020-04-05T16:08:12Z</time>
      </trkpt>
      <trkpt lat="43.54447" lon="1.46917">
        <ele>273.397</ele>
        <time>2020-04-05T16:08:17Z</time>
      </trkpt>
      <trkpt lat="43.54449" lon="1.46928">
        <ele>273.374</ele>
        <time>2020-04-05T16:08:23Z</time>
      </trkpt>
      <trkpt lat="43.54452" lon="1.46932">
        <ele>273.356</ele>
        <time>2020-04-05T16:08:28Z</time>
      </trkpt>
      <trkpt lat="43.54455" lon="1.46939">
        <ele>273.338</ele>
        <time>2020-04-05T16:08:34Z</time>
      </trkpt>
      <trkpt lat="43.54459" lon="1.46945">
        <ele>273.324</ele>
        <time>2020-04-05T16:08:40Z</time>
      </trkpt>
      <trkpt lat="43.54461" lon="1.46953">
        <ele>273.31</ele>
        <time>2020-04-05T16:08:45Z</time>
      </trkpt>
      <trkpt lat="43.54465" lon="1.46959">
        <ele>273.302</ele>
        <time>2020-04-05T16:08:50Z</time>
      </trkpt>
      <trkpt lat="43.54477" lon="1.46956">
        <ele>273.301</ele>
        <time>2020-04-05T16:08:56Z</time>
      </trkpt>
      <trkpt lat="43.54481" lon="1.46955">
        <ele>273.288</ele>
        <time>2020-04-05T16:09:02Z</time>
      </trkpt>
      <trkpt lat="43.54484" lon="1.46958">
        <ele>273.256</ele>
        <time>2020-04-05T16:09:08Z</time>
      </trkpt>
      <trkpt lat="43.54486" lon="1.46968">
        <ele>273.208</ele>
        <time>2020-04-05T16:09:14Z</time>
      </trkpt>
      <trkpt lat="43.54488" lon="1.46976">
        <ele>273.161</ele>
        <time>2020-04-05T16:09:19Z</time>
      </trkpt>
      <trkpt lat="43.54492" lon="1.46986">
        <ele>273.108</ele>
        <time>2020-04-05T16:09:25Z</time>
      </trkpt>
      <trkpt lat="43.54495" lon="1.46992">
        <ele>273.055</ele>
        <time>2020-04-05T16:09:30Z</time>
      </trkpt>
      <trkpt lat="43.54497" lon="1.46997">
        <ele>273.023</ele>
        <time>2020-04-05T16:09:35Z</time>
      </trkpt>
      <trkpt lat="43.545" lon="1.47006">
        <ele>272.971</ele>
        <time>2020-04-05T16:09:41Z</time>
      </trkpt>
      <trkpt lat="43.54507" lon="1.47012">
        <ele>272.935</ele>
        <time>2020-04-05T16:09:46Z</time>
      </trkpt>
      <trkpt lat="43.54511" lon="1.47019">
        <ele>272.907</ele>
        <time>2020-04-05T16:09:52Z</time>
      </trkpt>
      <trkpt lat="43.54511" lon="1.47026">
        <ele>272.878</ele>
        <time>2020-04-05T16:09:58Z</time>
      </trkpt>
      <trkpt lat="43.54514" lon="1.47032">
        <ele>272.843</ele>
        <time>2020-04-05T16:10:04Z</time>
      </trkpt>
      <trkpt lat="43.54524" lon="1.47037">
        <ele>272.812</ele>
        <time>2020-04-05T16:10:09Z</time>
      </trkpt>
      <trkpt lat="43.5453" lon="1.47039">
        <ele>272.785</ele>
        <time>2020-04-05T16:10:15Z</time>
      </trkpt>
      <trkpt lat="43.54533" lon="1.47039">
        <ele>272.753</ele>
        <time>2020-04-05T16:10:20Z</time>
      </trkpt>
      <trkpt lat="43.54537" lon="1.47041">
        <ele>272.712</ele>
        <time>2020-04-05T16:10:26Z</time>
      </trkpt>
      <trkpt lat="43.5454" lon="1.47046">
        <ele>272.668</ele>
        <time>2020-04-05T16:10:31Z</time>
      </trkpt>
      <trkpt lat="43.5454" lon="1.47061">
        <ele>272.612</ele>
        <time>2020-04-05T16:10:37Z</time>
      </trkpt>
      <trkpt lat="43.54538" lon="1.4707">
        <ele>272.575</ele>
        <time>2020-04-05T16:10:42Z</time>
      </trkpt>
      <trkpt lat="43.54538" lon="1.47073">
        <ele>272.496</ele>
        <time>2020-04-05T16:10:48Z</time>
      </trkpt>
      <trkpt lat="43.54539" lon="1.47076">
        <ele>272.436</ele>
        <time>2020-04-05T16:10:54Z</time>
      </trkpt>
      <trkpt lat="43.54539" lon="1.47078">
        <ele>272.353</ele>
        <time>2020-04-05T16:10:59Z</time>
      </trkpt>
      <trkpt lat="43.54541" lon="1.47088">
        <ele>272.264</ele>
        <time>2020-04-05T16:11:05Z</time>
      </trkpt>
      <trkpt lat="43.54544" lon="1.47091">
        <ele>272.154</ele>
        <time>2020-04-05T16:11:11Z</time>
      </trkpt>
      <trkpt lat="43.54546" lon="1.47091">
        <ele>272.072</ele>
        <time>2020-04-05T16:11:16Z</time>
      </trkpt>
      <trkpt lat="43.54549" lon="1.47096">
        <ele>271.958</ele>
        <time>2020-04-05T16:11:22Z</time>
      </trkpt>
      <trkpt lat="43.54549" lon="1.47099">
        <ele>271.84</ele>
        <time>2020-04-05T16:11:27Z</time>
      </trkpt>
      <trkpt lat="43.54551" lon="1.47104">
        <ele>271.717</ele>
        <time>2020-04-05T16:11:33Z</time>
      </trkpt>
      <trkpt lat="43.54554" lon="1.4711">
        <ele>271.616</ele>
        <time>2020-04-05T16:11:38Z</time>
      </trkpt>
      <trkpt lat="43.54556" lon="1.47116">
        <ele>271.488</ele>
        <time>2020-04-05T16:11:44Z</time>
      </trkpt>
      <trkpt lat="43.54558" lon="1.4712">
        <ele>271.38</ele>
        <time>2020-04-05T16:11:49Z</time>
      </trkpt>
      <trkpt lat="43.5456" lon="1.47123">
        <ele>271.287</ele>
        <time>2020-04-05T16:11:55Z</time>
      </trkpt>
      <trkpt lat="43.5456" lon="1.47126">
        <ele>271.243</ele>
        <time>2020-04-05T16:12:01Z</time>
      </trkpt>
      <trkpt lat="43.54557" lon="1.47138">
        <ele>271.142</ele>
        <time>2020-04-05T16:12:06Z</time>
      </trkpt>
      <trkpt lat="43.54571" lon="1.47136">
        <ele>270.956</ele>
        <time>2020-04-05T16:12:12Z</time>
      </trkpt>
      <trkpt lat="43.54572" lon="1.47142">
        <ele>270.809</ele>
        <time>2020-04-05T16:12:17Z</time>
      </trkpt>
      <trkpt lat="43.54572" lon="1.47143">
        <ele>270.665</ele>
        <time>2020-04-05T16:12:22Z</time>
      </trkpt>
      <trkpt lat="43.54572" lon="1.47145">
        <ele>270.596</ele>
        <time>2020-04-05T16:12:28Z</time>
      </trkpt>
      <trkpt lat="43.54573" lon="1.47152">
        <ele>270.525</ele>
        <time>2020-04-05T16:12:33Z</time>
      </trkpt>
      <trkpt lat="43.54576" lon="1.47156">
        <ele>270.387</ele>
        <time>2020-04-05T16:12:39Z</time>
      </trkpt>
      <trkpt lat="43.54577" lon="1.47158">
        <ele>270.252</ele>
        <time>2020-04-05T16:12:44Z</time>
      </trkpt>
      <trkpt lat="43.54582" lon="1.47168">
        <ele>270.116</ele>
        <time>2020-04-05T16:12:49Z</time>
      </trkpt>
      <trkpt lat="43.54587" lon="1.47174">
        <ele>269.916</ele>
        <time>2020-04-05T16:12:55Z</time>
      </trkpt>
      <trkpt lat="43.54587" lon="1.47176">
        <ele>269.899</ele>
        <time>2020-04-05T16:13:00Z</time>
      </trkpt>
      <trkpt lat="43.54586" lon="1.47174">
        <ele>269.788</ele>
        <time>2020-04-05T16:13:06Z</time>
      </trkpt>
      <trkpt lat="43.54586" lon="1.47173">
        <ele>269.767</ele>
        <time>2020-04-05T16:13:12Z</time>
      </trkpt>
      <trkpt lat="43.54586" lon="1.47173">
        <ele>269.618</ele>
        <time>2020-04-05T16:13:18Z</time>
      </trkpt>
      <trkpt lat="43.54586" lon="1.47175">
        <ele>269.474</ele>
        <time>2020-04-05T16:13:23Z</time>
      </trkpt>
      <trkpt lat="43.54588" lon="1.4718">
        <ele>269.264</ele>
        <time>2020-04-05T16:13:29Z</time>
      </trkpt>
      <trkpt lat="43.54589" lon="1.47185">
        <ele>269.151</ele>
        <time>2020-04-05T16:13:34Z</time>
      </trkpt>
      <trkpt lat="43.5459" lon="1.47188">
        <ele>269</ele>
        <time>2020-04-05T16:13:40Z</time>
      </trkpt>
      <trkpt lat="43.54591" lon="1.47194">
        <ele>268.818</ele>
        <time>2020-04-05T16:13:46Z</time>
      </trkpt>
      <trkpt lat="43.54593" lon="1.47199">
        <ele>268.738</ele>
        <time>2020-04-05T16:13:51Z</time>
      </trkpt>
      <trkpt lat="43.54594" lon="1.47206">
        <ele>268.568</ele>
        <time>2020-04-05T16:13:56Z</time>
      </trkpt>
      <trkpt lat="43.54598" lon="1.47212">
        <ele>268.399</ele>
        <time>2020-04-05T16:14:02Z</time>
      </trkpt>
      <trkpt lat="43.54599" lon="1.47217">
        <ele>268.207</ele>
        <time>2020-04-05T16:14:08Z</time>
      </trkpt>
      <trkpt lat="43.54599" lon="1.47222">
        <ele>268.022</ele>
        <time>2020-04-05T16:14:14Z</time>
      </trkpt>
      <trkpt lat="43.54602" lon="1.47226">
        <ele>267.9</ele>
        <time>2020-04-05T16:14:19Z</time>
      </trkpt>
      <trkpt lat="43.54605" lon="1.47229">
        <ele>267.748</ele>
        <time>2020-04-05T16:14:25Z</time>
      </trkpt>
      <trkpt lat="43.54609" lon="1.47233">
        <ele>267.614</ele>
        <time>2020-04-05T16:14:31Z</time>
      </trkpt>
      <trkpt lat="43.54617" lon="1.47236">
        <ele>267.459</ele>
        <time>2020-04-05T16:14:36Z</time>
      </trkpt>
      <trkpt lat="43.54621" lon="1.47239">
        <ele>267.33</ele>
        <time>2020-04-05T16:14:42Z</time>
      </trkpt>
      <trkpt lat="43.54623" lon="1.4724">
        <ele>267.256</ele>
        <time>2020-04-05T16:14:47Z</time>
      </trkpt>
      <trkpt lat="43.54625" lon="1.47246">
        <ele>267.146</ele>
        <time>2020-04-05T16:14:52Z</time>
      </trkpt>
      <trkpt lat="43.54625" lon="1.47258">
        <ele>266.967</ele>
        <time>2020-04-05T16:14:58Z</time>
      </trkpt>
      <trkpt lat="43.54623" lon="1.47267">
        <ele>266.787</ele>
        <time>2020-04-05T16:15:04Z</time>
      </trkpt>
      <trkpt lat="43.54622" lon="1.47277">
        <ele>266.603</ele>
        <time>2020-04-05T16:15:10Z</time>
      </trkpt>
      <trkpt lat="43.54624" lon="1.47282">
        <ele>266.513</ele>
        <time>2020-04-05T16:15:16Z</time>
      </trkpt>
      <trkpt lat="43.54626" lon="1.47288">
        <ele>266.318</ele>
        <time>2020-04-05T16:15:22Z</time>
      </trkpt>
      <trkpt lat="43.5463" lon="1.47292">
        <ele>266.124</ele>
        <time>2020-04-05T16:15:28Z</time>
      </trkpt>
      <trkpt lat="43.54636" lon="1.47295">
        <ele>265.898</ele>
        <time>2020-04-05T16:15:34Z</time>
      </trkpt>
      <trkpt lat="43.54637" lon="1.47292">
        <ele>265.732</ele>
        <time>2020-04-05T16:15:40Z</time>
      </trkpt>
      <trkpt lat="43.5464" lon="1.47294">
        <ele>265.561</ele>
        <time>2020-04-05T16:15:45Z</time>
      </trkpt>
      <trkpt lat="43.54643" lon="1.47301">
        <ele>265.344</ele>
        <time>2020-04-05T16:15:51Z</time>
      </trkpt>
      <trkpt lat="43.54645" lon="1.47297">
        <ele>265.239</ele>
        <time>2020-04-05T16:15:56Z</time>
      </trkpt>
      <trkpt lat="43.54648" lon="1.47301">
        <ele>264.99</ele>
        <time>2020-04-05T16:16:02Z</time>
      </trkpt>
      <trkpt lat="43.5465" lon="1.47304">
        <ele>264.746</ele>
        <time>2020-04-05T16:16:07Z</time>
      </trkpt>
      <trkpt lat="43.54645" lon="1.47311">
        <ele>264.505</ele>
        <time>2020-04-05T16:16:12Z</time>
      </trkpt>
      <trkpt lat="43.54642" lon="1.4732">
        <ele>264.269</ele>
        <time>2020-04-05T16:16:17Z</time>
      </trkpt>
      <trkpt lat="43.54639" lon="1.47328">
        <ele>264.119</ele>
        <time>2020-04-05T16:16:22Z</time>
      </trkpt>
      <trkpt lat="43.54644" lon="1.47334">
        <ele>263.825</ele>
        <time>2020-04-05T16:16:28Z</time>
      </trkpt>
      <trkpt lat="43.54651" lon="1.47339">
        <ele>263.584</ele>
        <time>2020-04-05T16:16:33Z</time>
      </trkpt>
      <trkpt lat="43.54654" lon="1.47346">
        <ele>263.299</ele>
        <time>2020-04-05T16:16:39Z</time>
      </trkpt>
      <trkpt lat="43.54659" lon="1.47355">
        <ele>263.019</ele>
        <time>2020-04-05T16:16:45Z</time>
      </trkpt>
      <trkpt lat="43.54663" lon="1.47362">
        <ele>262.748</ele>
        <time>2020-04-05T16:16:51Z</time>
      </trkpt>
      <trkpt lat="43.54669" lon="1.47365">
        <ele>262.526</ele>
        <time>2020-04-05T16:16:56Z</time>
      </trkpt>
      <trkpt lat="43.54673" lon="1.47369">
        <ele>262.342</ele>
        <time>2020-04-05T16:17:01Z</time>
      </trkpt>
      <trkpt lat="43.54675" lon="1.4737">
        <ele>262.066</ele>
        <time>2020-04-05T16:17:07Z</time>
      </trkpt>
      <trkpt lat="43.54677" lon="1.47371">
        <ele>261.831</ele>
        <time>2020-04-05T16:17:12Z</time>
      </trkpt>
      <trkpt lat="43.54679" lon="1.47375">
        <ele>261.539</ele>
        <time>2020-04-05T16:17:18Z</time>
      </trkpt>
      <trkpt lat="43.54682" lon="1.47384">
        <ele>261.214</ele>
        <time>2020-04-05T16:17:24Z</time>
      </trkpt>
      <trkpt lat="43.54687" lon="1.47394">
        <ele>260.853</ele>
        <time>2020-04-05T16:17:30Z</time>
      </trkpt>
      <trkpt lat="43.54694" lon="1.47398">
        <ele>260.468</ele>
        <time>2020-04-05T16:17:36Z</time>
      </trkpt>
      <trkpt lat="43.54703" lon="1.47405">
        <ele>260.084</ele>
        <time>2020-04-05T16:17:42Z</time>
      </trkpt>
      <trkpt lat="43.54709" lon="1.47411">
        <ele>259.771</ele>
        <time>2020-04-05T16:17:47Z</time>
      </trkpt>
      <trkpt lat="43.54716" lon="1.47416">
        <ele>259.409</ele>
        <time>2020-04-05T16:17:53Z</time>
      </trkpt>
      <trkpt lat="43.54719" lon="1.47415">
        <ele>259.036</ele>
        <time>2020-04-05T16:17:59Z</time>
      </trkpt>
      <trkpt lat="43.54722" lon="1.47416">
        <ele>258.705</ele>
        <time>2020-04-05T16:18:04Z</time>
      </trkpt>
      <trkpt lat="43.54727" lon="1.47419">
        <ele>258.306</ele>
        <time>2020-04-05T16:18:10Z</time>
      </trkpt>
      <trkpt lat="43.54736" lon="1.47425">
        <ele>257.908</ele>
        <time>2020-04-05T16:18:16Z</time>
      </trkpt>
      <trkpt lat="43.54742" lon="1.47429">
        <ele>257.513</ele>
        <time>2020-04-05T16:18:22Z</time>
      </trkpt>
      <trkpt lat="43.54746" lon="1.4743">
        <ele>257.187</ele>
        <time>2020-04-05T16:18:27Z</time>
      </trkpt>
      <trkpt lat="43.54751" lon="1.47433">
        <ele>256.805</ele>
        <time>2020-04-05T16:18:33Z</time>
      </trkpt>
      <trkpt lat="43.54754" lon="1.47436">
        <ele>256.489</ele>
        <time>2020-04-05T16:18:38Z</time>
      </trkpt>
      <trkpt lat="43.54759" lon="1.47441">
        <ele>256.174</ele>
        <time>2020-04-05T16:18:43Z</time>
      </trkpt>
      <trkpt lat="43.54764" lon="1.47447">
        <ele>255.797</ele>
        <time>2020-04-05T16:18:49Z</time>
      </trkpt>
      <trkpt lat="43.54768" lon="1.47451">
        <ele>255.489</ele>
        <time>2020-04-05T16:18:54Z</time>
      </trkpt>
      <trkpt lat="43.54773" lon="1.47456">
        <ele>255.186</ele>
        <time>2020-04-05T16:19:00Z</time>
      </trkpt>
      <trkpt lat="43.54777" lon="1.47459">
        <ele>254.851</ele>
        <time>2020-04-05T16:19:06Z</time>
      </trkpt>
      <trkpt lat="43.5478" lon="1.47464">
        <ele>254.579</ele>
        <time>2020-04-05T16:19:11Z</time>
      </trkpt>
      <trkpt lat="43.54785" lon="1.47471">
        <ele>254.288</ele>
        <time>2020-04-05T16:19:17Z</time>
      </trkpt>
      <trkpt lat="43.54791" lon="1.47478">
        <ele>253.942</ele>
        <time>2020-04-05T16:19:23Z</time>
      </trkpt>
      <trkpt lat="43.54794" lon="1.47484">
        <ele>253.657</ele>
        <time>2020-04-05T16:19:29Z</time>
      </trkpt>
      <trkpt lat="43.54798" lon="1.47488">
        <ele>253.325</ele>
        <time>2020-04-05T16:19:35Z</time>
      </trkpt>
      <trkpt lat="43.54803" lon="1.47492">
        <ele>252.994</ele>
        <time>2020-04-05T16:19:41Z</time>
      </trkpt>
      <trkpt lat="43.54811" lon="1.47501">
        <ele>252.657</ele>
        <time>2020-04-05T16:19:47Z</time>
      </trkpt>
      <trkpt lat="43.54817" lon="1.47507">
        <ele>252.323</ele>
        <time>2020-04-05T16:19:53Z</time>
      </trkpt>
      <trkpt lat="43.54821" lon="1.47512">
        <ele>252.06</ele>
        <time>2020-04-05T16:19:58Z</time>
      </trkpt>
      <trkpt lat="43.54825" lon="1.47514">
        <ele>251.812</ele>
        <time>2020-04-05T16:20:03Z</time>
      </trkpt>
      <trkpt lat="43.54829" lon="1.47519">
        <ele>251.505</ele>
        <time>2020-04-05T16:20:09Z</time>
      </trkpt>
      <trkpt lat="43.54835" lon="1.47528">
        <ele>251.185</ele>
        <time>2020-04-05T16:20:15Z</time>
      </trkpt>
      <trkpt lat="43.54838" lon="1.47536">
        <ele>250.916</ele>
        <time>2020-04-05T16:20:20Z</time>
      </trkpt>
      <trkpt lat="43.54842" lon="1.47541">
        <ele>250.648</ele>
        <time>2020-04-05T16:20:25Z</time>
      </trkpt>
      <trkpt lat="43.54847" lon="1.47549">
        <ele>250.331</ele>
        <time>2020-04-05T16:20:31Z</time>
      </trkpt>
      <trkpt lat="43.54851" lon="1.47559">
        <ele>250.021</ele>
        <time>2020-04-05T16:20:37Z</time>
      </trkpt>
      <trkpt lat="43.54854" lon="1.47565">
        <ele>249.764</ele>
        <time>2020-04-05T16:20:42Z</time>
      </trkpt>
      <trkpt lat="43.54858" lon="1.4757">
        <ele>249.46</ele>
        <time>2020-04-05T16:20:48Z</time>
      </trkpt>
      <trkpt lat="43.54861" lon="1.47576">
        <ele>249.208</ele>
        <time>2020-04-05T16:20:53Z</time>
      </trkpt>
      <trkpt lat="43.54865" lon="1.47583">
        <ele>248.911</ele>
        <time>2020-04-05T16:20:59Z</time>
      </trkpt>
      <trkpt lat="43.54869" lon="1.47589">
        <ele>248.67</ele>
        <time>2020-04-05T16:21:04Z</time>
      </trkpt>
      <trkpt lat="43.54873" lon="1.47595">
        <ele>248.387</ele>
        <time>2020-04-05T16:21:10Z</time>
      </trkpt>
      <trkpt lat="43.54876" lon="1.476">
        <ele>248.15</ele>
        <time>2020-04-05T16:21:15Z</time>
      </trkpt>
      <trkpt lat="43.54882" lon="1.47609">
        <ele>247.841</ele>
        <time>2020-04-05T16:21:21Z</time>
      </trkpt>
      <trkpt lat="43.54884" lon="1.47615">
        <ele>247.571</ele>
        <time>2020-04-05T16:21:26Z</time>
      </trkpt>
      <trkpt lat="43.54887" lon="1.47624">
        <ele>247.235</ele>
        <time>2020-04-05T16:21:32Z</time>
      </trkpt>
      <trkpt lat="43.54888" lon="1.47626">
        <ele>246.942</ele>
        <time>2020-04-05T16:21:37Z</time>
      </trkpt>
      <trkpt lat="43.54893" lon="1.4763">
        <ele>246.569</ele>
        <time>2020-04-05T16:21:43Z</time>
      </trkpt>
      <trkpt lat="43.54896" lon="1.47641">
        <ele>246.181</ele>
        <time>2020-04-05T16:21:49Z</time>
      </trkpt>
      <trkpt lat="43.54899" lon="1.4765">
        <ele>245.777</ele>
        <time>2020-04-05T16:21:55Z</time>
      </trkpt>
      <trkpt lat="43.54902" lon="1.47654">
        <ele>245.367</ele>
        <time>2020-04-05T16:22:01Z</time>
      </trkpt>
      <trkpt lat="43.54905" lon="1.47664">
        <ele>244.949</ele>
        <time>2020-04-05T16:22:07Z</time>
      </trkpt>
      <trkpt lat="43.54907" lon="1.47674">
        <ele>244.529</ele>
        <time>2020-04-05T16:22:13Z</time>
      </trkpt>
      <trkpt lat="43.54909" lon="1.47684">
        <ele>244.121</ele>
        <time>2020-04-05T16:22:19Z</time>
      </trkpt>
      <trkpt lat="43.54912" lon="1.47689">
        <ele>243.8</ele>
        <time>2020-04-05T16:22:24Z</time>
      </trkpt>
      <trkpt lat="43.54913" lon="1.47697">
        <ele>243.435</ele>
        <time>2020-04-05T16:22:30Z</time>
      </trkpt>
      <trkpt lat="43.54915" lon="1.47705">
        <ele>243.142</ele>
        <time>2020-04-05T16:22:35Z</time>
      </trkpt>
      <trkpt lat="43.54917" lon="1.47711">
        <ele>242.807</ele>
        <time>2020-04-05T16:22:41Z</time>
      </trkpt>
      <trkpt lat="43.54917" lon="1.47718">
        <ele>242.482</ele>
        <time>2020-04-05T16:22:47Z</time>
      </trkpt>
      <trkpt lat="43.5492" lon="1.47728">
        <ele>242.161</ele>
        <time>2020-04-05T16:22:53Z</time>
      </trkpt>
      <trkpt lat="43.54927" lon="1.47726">
        <ele>241.85</ele>
        <time>2020-04-05T16:22:59Z</time>
      </trkpt>
      <trkpt lat="43.54934" lon="1.47721">
        <ele>241.558</ele>
        <time>2020-04-05T16:23:05Z</time>
      </trkpt>
      <trkpt lat="43.5494" lon="1.47718">
        <ele>241.279</ele>
        <time>2020-04-05T16:23:11Z</time>
      </trkpt>
      <trkpt lat="43.54948" lon="1.47711">
        <ele>241.004</ele>
        <time>2020-04-05T16:23:17Z</time>
      </trkpt>
      <trkpt lat="43.54954" lon="1.47707">
        <ele>240.74</ele>
        <time>2020-04-05T16:23:23Z</time>
      </trkpt>
      <trkpt lat="43.54961" lon="1.47701">
        <ele>240.485</ele>
        <time>2020-04-05T16:23:29Z</time>
      </trkpt>
      <trkpt lat="43.54968" lon="1.47699">
        <ele>240.236</ele>
        <time>2020-04-05T16:23:35Z</time>
      </trkpt>
      <trkpt lat="43.54973" lon="1.47697">
        <ele>239.997</ele>
        <time>2020-04-05T16:23:41Z</time>
      </trkpt>
      <trkpt lat="43.54979" lon="1.47693">
        <ele>239.757</ele>
        <time>2020-04-05T16:23:47Z</time>
      </trkpt>
      <trkpt lat="43.54983" lon="1.47689">
        <ele>239.596</ele>
        <time>2020-04-05T16:23:52Z</time>
      </trkpt>
      <trkpt lat="43.54987" lon="1.47689">
        <ele>239.428</ele>
        <time>2020-04-05T16:23:58Z</time>
      </trkpt>
      <trkpt lat="43.54991" lon="1.47682">
        <ele>239.176</ele>
        <time>2020-04-05T16:24:04Z</time>
      </trkpt>
      <trkpt lat="43.54995" lon="1.47681">
        <ele>238.945</ele>
        <time>2020-04-05T16:24:09Z</time>
      </trkpt>
      <trkpt lat="43.55002" lon="1.4768">
        <ele>238.711</ele>
        <time>2020-04-05T16:24:14Z</time>
      </trkpt>
      <trkpt lat="43.55012" lon="1.4767">
        <ele>238.413</ele>
        <time>2020-04-05T16:24:20Z</time>
      </trkpt>
      <trkpt lat="43.55015" lon="1.47674">
        <ele>238.138</ele>
        <time>2020-04-05T16:24:25Z</time>
      </trkpt>
      <trkpt lat="43.55021" lon="1.47676">
        <ele>237.861</ele>
        <time>2020-04-05T16:24:30Z</time>
      </trkpt>
      <trkpt lat="43.55025" lon="1.47673">
        <ele>237.516</ele>
        <time>2020-04-05T16:24:36Z</time>
      </trkpt>
      <trkpt lat="43.55028" lon="1.47669">
        <ele>237.17</ele>
        <time>2020-04-05T16:24:42Z</time>
      </trkpt>
      <trkpt lat="43.5503" lon="1.47668">
        <ele>236.982</ele>
        <time>2020-04-05T16:24:47Z</time>
      </trkpt>
      <trkpt lat="43.55035" lon="1.47666">
        <ele>236.786</ele>
        <time>2020-04-05T16:24:52Z</time>
      </trkpt>
      <trkpt lat="43.55036" lon="1.47669">
        <ele>236.538</ele>
        <time>2020-04-05T16:24:58Z</time>
      </trkpt>
      <trkpt lat="43.55035" lon="1.47668">
        <ele>235.9</ele>
        <time>2020-04-05T16:25:03Z</time>
      </trkpt>
      <trkpt lat="43.55035" lon="1.47668">
        <ele>234.194</ele>
        <time>2020-04-05T16:25:10Z</time>
      </trkpt>
      <trkpt lat="43.55034" lon="1.47669">
        <ele>233.757</ele>
        <time>2020-04-05T16:25:16Z</time>
      </trkpt>
      <trkpt lat="43.55038" lon="1.47662">
        <ele>233.614</ele>
        <time>2020-04-05T16:25:30Z</time>
      </trkpt>
      <trkpt lat="43.55038" lon="1.47664">
        <ele>233.605</ele>
        <time>2020-04-05T16:25:36Z</time>
      </trkpt>
    </trkseg>
  </trk>
  <trk>
    <name><![CDATA[3 avril]]></name>
    <trkseg>
      <trkpt lat="43.55023" lon="1.47682">
        <ele>234.44</ele>
        <time>2020-04-03T15:32:21Z</time>
      </trkpt>
      <trkpt lat="43.5502" lon="1.47677">
        <ele>205.285</ele>
        <time>2020-04-03T15:32:27Z</time>
      </trkpt>
      <trkpt lat="43.55012" lon="1.47677">
        <ele>204.675</ele>
        <time>2020-04-03T15:32:33Z</time>
      </trkpt>
      <trkpt lat="43.55006" lon="1.47679">
        <ele>204.98</ele>
        <time>2020-04-03T15:32:38Z</time>
      </trkpt>
      <trkpt lat="43.55001" lon="1.47681">
        <ele>206.434</ele>
        <time>2020-04-03T15:32:43Z</time>
      </trkpt>
      <trkpt lat="43.54997" lon="1.47683">
        <ele>207.292</ele>
        <time>2020-04-03T15:32:48Z</time>
      </trkpt>
      <trkpt lat="43.54991" lon="1.47688">
        <ele>207.246</ele>
        <time>2020-04-03T15:32:54Z</time>
      </trkpt>
      <trkpt lat="43.54987" lon="1.47693">
        <ele>207.31</ele>
        <time>2020-04-03T15:32:59Z</time>
      </trkpt>
      <trkpt lat="43.54983" lon="1.47694">
        <ele>207.39</ele>
        <time>2020-04-03T15:33:04Z</time>
      </trkpt>
      <trkpt lat="43.5498" lon="1.47695">
        <ele>207.503</ele>
        <time>2020-04-03T15:33:10Z</time>
      </trkpt>
      <trkpt lat="43.54973" lon="1.47699">
        <ele>207.625</ele>
        <time>2020-04-03T15:33:16Z</time>
      </trkpt>
      <trkpt lat="43.54966" lon="1.47701">
        <ele>207.751</ele>
        <time>2020-04-03T15:33:22Z</time>
      </trkpt>
      <trkpt lat="43.54961" lon="1.47706">
        <ele>207.858</ele>
        <time>2020-04-03T15:33:27Z</time>
      </trkpt>
      <trkpt lat="43.54955" lon="1.47708">
        <ele>207.951</ele>
        <time>2020-04-03T15:33:32Z</time>
      </trkpt>
      <trkpt lat="43.54949" lon="1.4771">
        <ele>208.08</ele>
        <time>2020-04-03T15:33:38Z</time>
      </trkpt>
      <trkpt lat="43.54944" lon="1.47715">
        <ele>208.185</ele>
        <time>2020-04-03T15:33:43Z</time>
      </trkpt>
      <trkpt lat="43.5494" lon="1.47719">
        <ele>208.302</ele>
        <time>2020-04-03T15:33:49Z</time>
      </trkpt>
      <trkpt lat="43.54935" lon="1.47723">
        <ele>208.404</ele>
        <time>2020-04-03T15:33:55Z</time>
      </trkpt>
      <trkpt lat="43.5493" lon="1.47727">
        <ele>208.498</ele>
        <time>2020-04-03T15:34:01Z</time>
      </trkpt>
      <trkpt lat="43.54923" lon="1.47732">
        <ele>208.587</ele>
        <time>2020-04-03T15:34:07Z</time>
      </trkpt>
      <trkpt lat="43.54916" lon="1.47734">
        <ele>208.63</ele>
        <time>2020-04-03T15:34:12Z</time>
      </trkpt>
      <trkpt lat="43.54913" lon="1.4774">
        <ele>208.647</ele>
        <time>2020-04-03T15:34:18Z</time>
      </trkpt>
      <trkpt lat="43.54908" lon="1.47743">
        <ele>208.625</ele>
        <time>2020-04-03T15:34:23Z</time>
      </trkpt>
      <trkpt lat="43.549" lon="1.47746">
        <ele>208.578</ele>
        <time>2020-04-03T15:34:29Z</time>
      </trkpt>
      <trkpt lat="43.54892" lon="1.47751">
        <ele>208.524</ele>
        <time>2020-04-03T15:34:35Z</time>
      </trkpt>
      <trkpt lat="43.54885" lon="1.47756">
        <ele>208.483</ele>
        <time>2020-04-03T15:34:41Z</time>
      </trkpt>
      <trkpt lat="43.5488" lon="1.47758">
        <ele>208.444</ele>
        <time>2020-04-03T15:34:47Z</time>
      </trkpt>
      <trkpt lat="43.54874" lon="1.47762">
        <ele>208.428</ele>
        <time>2020-04-03T15:34:52Z</time>
      </trkpt>
      <trkpt lat="43.54866" lon="1.47764">
        <ele>208.419</ele>
        <time>2020-04-03T15:34:58Z</time>
      </trkpt>
      <trkpt lat="43.54861" lon="1.47768">
        <ele>208.42</ele>
        <time>2020-04-03T15:35:03Z</time>
      </trkpt>
      <trkpt lat="43.54853" lon="1.47773">
        <ele>208.451</ele>
        <time>2020-04-03T15:35:09Z</time>
      </trkpt>
      <trkpt lat="43.54845" lon="1.47777">
        <ele>208.515</ele>
        <time>2020-04-03T15:35:15Z</time>
      </trkpt>
      <trkpt lat="43.5484" lon="1.47779">
        <ele>208.577</ele>
        <time>2020-04-03T15:35:20Z</time>
      </trkpt>
      <trkpt lat="43.54834" lon="1.4778">
        <ele>208.63</ele>
        <time>2020-04-03T15:35:25Z</time>
      </trkpt>
      <trkpt lat="43.54827" lon="1.47783">
        <ele>208.671</ele>
        <time>2020-04-03T15:35:31Z</time>
      </trkpt>
      <trkpt lat="43.5482" lon="1.47789">
        <ele>208.699</ele>
        <time>2020-04-03T15:35:37Z</time>
      </trkpt>
      <trkpt lat="43.54815" lon="1.47791">
        <ele>208.729</ele>
        <time>2020-04-03T15:35:42Z</time>
      </trkpt>
      <trkpt lat="43.5481" lon="1.47794">
        <ele>208.758</ele>
        <time>2020-04-03T15:35:47Z</time>
      </trkpt>
      <trkpt lat="43.54805" lon="1.47798">
        <ele>208.787</ele>
        <time>2020-04-03T15:35:52Z</time>
      </trkpt>
      <trkpt lat="43.548" lon="1.47803">
        <ele>208.83</ele>
        <time>2020-04-03T15:35:58Z</time>
      </trkpt>
      <trkpt lat="43.54795" lon="1.47808">
        <ele>208.864</ele>
        <time>2020-04-03T15:36:04Z</time>
      </trkpt>
      <trkpt lat="43.54791" lon="1.47818">
        <ele>208.865</ele>
        <time>2020-04-03T15:36:10Z</time>
      </trkpt>
      <trkpt lat="43.54785" lon="1.47823">
        <ele>208.886</ele>
        <time>2020-04-03T15:36:16Z</time>
      </trkpt>
      <trkpt lat="43.54782" lon="1.47825">
        <ele>208.912</ele>
        <time>2020-04-03T15:36:22Z</time>
      </trkpt>
      <trkpt lat="43.54777" lon="1.47829">
        <ele>208.925</ele>
        <time>2020-04-03T15:36:27Z</time>
      </trkpt>
      <trkpt lat="43.54771" lon="1.47833">
        <ele>208.936</ele>
        <time>2020-04-03T15:36:32Z</time>
      </trkpt>
      <trkpt lat="43.54767" lon="1.47843">
        <ele>208.95</ele>
        <time>2020-04-03T15:36:38Z</time>
      </trkpt>
      <trkpt lat="43.54762" lon="1.47851">
        <ele>208.963</ele>
        <time>2020-04-03T15:36:43Z</time>
      </trkpt>
      <trkpt lat="43.54755" lon="1.47862">
        <ele>209.025</ele>
        <time>2020-04-03T15:36:49Z</time>
      </trkpt>
      <trkpt lat="43.5475" lon="1.47867">
        <ele>209.106</ele>
        <time>2020-04-03T15:36:55Z</time>
      </trkpt>
      <trkpt lat="43.5475" lon="1.47875">
        <ele>209.166</ele>
        <time>2020-04-03T15:37:00Z</time>
      </trkpt>
      <trkpt lat="43.54752" lon="1.47887">
        <ele>209.235</ele>
        <time>2020-04-03T15:37:06Z</time>
      </trkpt>
      <trkpt lat="43.54753" lon="1.47894">
        <ele>209.281</ele>
        <time>2020-04-03T15:37:11Z</time>
      </trkpt>
      <trkpt lat="43.54744" lon="1.47897">
        <ele>209.337</ele>
        <time>2020-04-03T15:37:17Z</time>
      </trkpt>
      <trkpt lat="43.54741" lon="1.47902">
        <ele>209.385</ele>
        <time>2020-04-03T15:37:22Z</time>
      </trkpt>
      <trkpt lat="43.54744" lon="1.47914">
        <ele>209.44</ele>
        <time>2020-04-03T15:37:28Z</time>
      </trkpt>
      <trkpt lat="43.54748" lon="1.47924">
        <ele>209.488</ele>
        <time>2020-04-03T15:37:34Z</time>
      </trkpt>
      <trkpt lat="43.5475" lon="1.47929">
        <ele>209.521</ele>
        <time>2020-04-03T15:37:39Z</time>
      </trkpt>
      <trkpt lat="43.54755" lon="1.47936">
        <ele>209.568</ele>
        <time>2020-04-03T15:37:45Z</time>
      </trkpt>
      <trkpt lat="43.54757" lon="1.47943">
        <ele>209.618</ele>
        <time>2020-04-03T15:37:50Z</time>
      </trkpt>
      <trkpt lat="43.5476" lon="1.47953">
        <ele>209.684</ele>
        <time>2020-04-03T15:37:56Z</time>
      </trkpt>
      <trkpt lat="43.54762" lon="1.47961">
        <ele>209.738</ele>
        <time>2020-04-03T15:38:01Z</time>
      </trkpt>
      <trkpt lat="43.54765" lon="1.47965">
        <ele>209.793</ele>
        <time>2020-04-03T15:38:06Z</time>
      </trkpt>
      <trkpt lat="43.54769" lon="1.47974">
        <ele>209.864</ele>
        <time>2020-04-03T15:38:12Z</time>
      </trkpt>
      <trkpt lat="43.54772" lon="1.47983">
        <ele>209.948</ele>
        <time>2020-04-03T15:38:18Z</time>
      </trkpt>
      <trkpt lat="43.54774" lon="1.47991">
        <ele>210.012</ele>
        <time>2020-04-03T15:38:23Z</time>
      </trkpt>
      <trkpt lat="43.54776" lon="1.48001">
        <ele>210.075</ele>
        <time>2020-04-03T15:38:28Z</time>
      </trkpt>
      <trkpt lat="43.54778" lon="1.48008">
        <ele>210.133</ele>
        <time>2020-04-03T15:38:33Z</time>
      </trkpt>
      <trkpt lat="43.54778" lon="1.48015">
        <ele>210.193</ele>
        <time>2020-04-03T15:38:39Z</time>
      </trkpt>
      <trkpt lat="43.54775" lon="1.4802">
        <ele>210.234</ele>
        <time>2020-04-03T15:38:44Z</time>
      </trkpt>
      <trkpt lat="43.54768" lon="1.48022">
        <ele>210.271</ele>
        <time>2020-04-03T15:38:50Z</time>
      </trkpt>
      <trkpt lat="43.54763" lon="1.48025">
        <ele>210.295</ele>
        <time>2020-04-03T15:38:56Z</time>
      </trkpt>
      <trkpt lat="43.5476" lon="1.48026">
        <ele>210.316</ele>
        <time>2020-04-03T15:39:01Z</time>
      </trkpt>
      <trkpt lat="43.54755" lon="1.4803">
        <ele>210.342</ele>
        <time>2020-04-03T15:39:07Z</time>
      </trkpt>
      <trkpt lat="43.5475" lon="1.48035">
        <ele>210.369</ele>
        <time>2020-04-03T15:39:12Z</time>
      </trkpt>
      <trkpt lat="43.54744" lon="1.48039">
        <ele>210.397</ele>
        <time>2020-04-03T15:39:18Z</time>
      </trkpt>
      <trkpt lat="43.5474" lon="1.48044">
        <ele>210.421</ele>
        <time>2020-04-03T15:39:24Z</time>
      </trkpt>
      <trkpt lat="43.54737" lon="1.4805">
        <ele>210.429</ele>
        <time>2020-04-03T15:39:30Z</time>
      </trkpt>
      <trkpt lat="43.54731" lon="1.48057">
        <ele>210.427</ele>
        <time>2020-04-03T15:39:35Z</time>
      </trkpt>
      <trkpt lat="43.54726" lon="1.48064">
        <ele>210.427</ele>
        <time>2020-04-03T15:39:41Z</time>
      </trkpt>
      <trkpt lat="43.54723" lon="1.4807">
        <ele>210.433</ele>
        <time>2020-04-03T15:39:46Z</time>
      </trkpt>
      <trkpt lat="43.54717" lon="1.48078">
        <ele>210.43</ele>
        <time>2020-04-03T15:39:52Z</time>
      </trkpt>
      <trkpt lat="43.54715" lon="1.4808">
        <ele>210.426</ele>
        <time>2020-04-03T15:39:57Z</time>
      </trkpt>
      <trkpt lat="43.54716" lon="1.4808">
        <ele>210.425</ele>
        <time>2020-04-03T15:40:02Z</time>
      </trkpt>
      <trkpt lat="43.54715" lon="1.48081">
        <ele>210.421</ele>
        <time>2020-04-03T15:40:08Z</time>
      </trkpt>
      <trkpt lat="43.54713" lon="1.48084">
        <ele>210.425</ele>
        <time>2020-04-03T15:40:14Z</time>
      </trkpt>
      <trkpt lat="43.54711" lon="1.48089">
        <ele>210.406</ele>
        <time>2020-04-03T15:40:20Z</time>
      </trkpt>
      <trkpt lat="43.54708" lon="1.48095">
        <ele>210.375</ele>
        <time>2020-04-03T15:40:25Z</time>
      </trkpt>
      <trkpt lat="43.54703" lon="1.48097">
        <ele>210.322</ele>
        <time>2020-04-03T15:40:31Z</time>
      </trkpt>
      <trkpt lat="43.54697" lon="1.48098">
        <ele>210.277</ele>
        <time>2020-04-03T15:40:37Z</time>
      </trkpt>
      <trkpt lat="43.54688" lon="1.48101">
        <ele>210.241</ele>
        <time>2020-04-03T15:40:43Z</time>
      </trkpt>
      <trkpt lat="43.54682" lon="1.48107">
        <ele>210.204</ele>
        <time>2020-04-03T15:40:49Z</time>
      </trkpt>
      <trkpt lat="43.54677" lon="1.48111">
        <ele>210.172</ele>
        <time>2020-04-03T15:40:54Z</time>
      </trkpt>
      <trkpt lat="43.5467" lon="1.48114">
        <ele>210.132</ele>
        <time>2020-04-03T15:41:00Z</time>
      </trkpt>
      <trkpt lat="43.54664" lon="1.48118">
        <ele>210.098</ele>
        <time>2020-04-03T15:41:05Z</time>
      </trkpt>
      <trkpt lat="43.54657" lon="1.48122">
        <ele>210.06</ele>
        <time>2020-04-03T15:41:11Z</time>
      </trkpt>
      <trkpt lat="43.5465" lon="1.48124">
        <ele>210.018</ele>
        <time>2020-04-03T15:41:17Z</time>
      </trkpt>
      <trkpt lat="43.54644" lon="1.48128">
        <ele>209.989</ele>
        <time>2020-04-03T15:41:22Z</time>
      </trkpt>
      <trkpt lat="43.54637" lon="1.4813">
        <ele>209.955</ele>
        <time>2020-04-03T15:41:28Z</time>
      </trkpt>
      <trkpt lat="43.54632" lon="1.48133">
        <ele>209.929</ele>
        <time>2020-04-03T15:41:33Z</time>
      </trkpt>
      <trkpt lat="43.54626" lon="1.48135">
        <ele>209.905</ele>
        <time>2020-04-03T15:41:38Z</time>
      </trkpt>
      <trkpt lat="43.54621" lon="1.48135">
        <ele>209.881</ele>
        <time>2020-04-03T15:41:44Z</time>
      </trkpt>
      <trkpt lat="43.54615" lon="1.48136">
        <ele>209.863</ele>
        <time>2020-04-03T15:41:50Z</time>
      </trkpt>
      <trkpt lat="43.54609" lon="1.48137">
        <ele>209.852</ele>
        <time>2020-04-03T15:41:55Z</time>
      </trkpt>
      <trkpt lat="43.54605" lon="1.4814">
        <ele>209.846</ele>
        <time>2020-04-03T15:42:00Z</time>
      </trkpt>
      <trkpt lat="43.54598" lon="1.48141">
        <ele>209.837</ele>
        <time>2020-04-03T15:42:06Z</time>
      </trkpt>
      <trkpt lat="43.54593" lon="1.48143">
        <ele>209.829</ele>
        <time>2020-04-03T15:42:12Z</time>
      </trkpt>
      <trkpt lat="43.54588" lon="1.48145">
        <ele>209.827</ele>
        <time>2020-04-03T15:42:17Z</time>
      </trkpt>
      <trkpt lat="43.54583" lon="1.48145">
        <ele>209.833</ele>
        <time>2020-04-03T15:42:23Z</time>
      </trkpt>
      <trkpt lat="43.54575" lon="1.48149">
        <ele>209.839</ele>
        <time>2020-04-03T15:42:29Z</time>
      </trkpt>
      <trkpt lat="43.54569" lon="1.48157">
        <ele>209.848</ele>
        <time>2020-04-03T15:42:35Z</time>
      </trkpt>
      <trkpt lat="43.54561" lon="1.48158">
        <ele>209.862</ele>
        <time>2020-04-03T15:42:40Z</time>
      </trkpt>
      <trkpt lat="43.54554" lon="1.48158">
        <ele>209.885</ele>
        <time>2020-04-03T15:42:46Z</time>
      </trkpt>
      <trkpt lat="43.54548" lon="1.48157">
        <ele>209.891</ele>
        <time>2020-04-03T15:42:51Z</time>
      </trkpt>
      <trkpt lat="43.5454" lon="1.48159">
        <ele>209.894</ele>
        <time>2020-04-03T15:42:56Z</time>
      </trkpt>
      <trkpt lat="43.54535" lon="1.48161">
        <ele>209.892</ele>
        <time>2020-04-03T15:43:02Z</time>
      </trkpt>
      <trkpt lat="43.5453" lon="1.48164">
        <ele>209.888</ele>
        <time>2020-04-03T15:43:07Z</time>
      </trkpt>
      <trkpt lat="43.54523" lon="1.48167">
        <ele>209.893</ele>
        <time>2020-04-03T15:43:12Z</time>
      </trkpt>
      <trkpt lat="43.54516" lon="1.4817">
        <ele>209.894</ele>
        <time>2020-04-03T15:43:18Z</time>
      </trkpt>
      <trkpt lat="43.54508" lon="1.48172">
        <ele>209.903</ele>
        <time>2020-04-03T15:43:24Z</time>
      </trkpt>
      <trkpt lat="43.54504" lon="1.48172">
        <ele>209.928</ele>
        <time>2020-04-03T15:43:29Z</time>
      </trkpt>
      <trkpt lat="43.54499" lon="1.48174">
        <ele>209.958</ele>
        <time>2020-04-03T15:43:34Z</time>
      </trkpt>
      <trkpt lat="43.54492" lon="1.48177">
        <ele>209.991</ele>
        <time>2020-04-03T15:43:39Z</time>
      </trkpt>
      <trkpt lat="43.54489" lon="1.48183">
        <ele>210.044</ele>
        <time>2020-04-03T15:43:45Z</time>
      </trkpt>
      <trkpt lat="43.54489" lon="1.48191">
        <ele>210.079</ele>
        <time>2020-04-03T15:43:50Z</time>
      </trkpt>
      <trkpt lat="43.54486" lon="1.48199">
        <ele>210.107</ele>
        <time>2020-04-03T15:43:56Z</time>
      </trkpt>
      <trkpt lat="43.54484" lon="1.48203">
        <ele>210.111</ele>
        <time>2020-04-03T15:44:01Z</time>
      </trkpt>
      <trkpt lat="43.54482" lon="1.48204">
        <ele>210.094</ele>
        <time>2020-04-03T15:44:06Z</time>
      </trkpt>
      <trkpt lat="43.54479" lon="1.48202">
        <ele>210.048</ele>
        <time>2020-04-03T15:44:12Z</time>
      </trkpt>
      <trkpt lat="43.54474" lon="1.48198">
        <ele>209.996</ele>
        <time>2020-04-03T15:44:18Z</time>
      </trkpt>
      <trkpt lat="43.54466" lon="1.48195">
        <ele>209.944</ele>
        <time>2020-04-03T15:44:23Z</time>
      </trkpt>
      <trkpt lat="43.54461" lon="1.48192">
        <ele>209.878</ele>
        <time>2020-04-03T15:44:29Z</time>
      </trkpt>
      <trkpt lat="43.54455" lon="1.4819">
        <ele>209.81</ele>
        <time>2020-04-03T15:44:34Z</time>
      </trkpt>
      <trkpt lat="43.5445" lon="1.48187">
        <ele>209.723</ele>
        <time>2020-04-03T15:44:40Z</time>
      </trkpt>
      <trkpt lat="43.54444" lon="1.48185">
        <ele>209.638</ele>
        <time>2020-04-03T15:44:45Z</time>
      </trkpt>
      <trkpt lat="43.5444" lon="1.48181">
        <ele>209.541</ele>
        <time>2020-04-03T15:44:51Z</time>
      </trkpt>
      <trkpt lat="43.54433" lon="1.48175">
        <ele>209.428</ele>
        <time>2020-04-03T15:44:57Z</time>
      </trkpt>
      <trkpt lat="43.54427" lon="1.48172">
        <ele>209.312</ele>
        <time>2020-04-03T15:45:03Z</time>
      </trkpt>
      <trkpt lat="43.54421" lon="1.48166">
        <ele>209.199</ele>
        <time>2020-04-03T15:45:09Z</time>
      </trkpt>
      <trkpt lat="43.54417" lon="1.48161">
        <ele>209.077</ele>
        <time>2020-04-03T15:45:15Z</time>
      </trkpt>
      <trkpt lat="43.54409" lon="1.48158">
        <ele>208.976</ele>
        <time>2020-04-03T15:45:20Z</time>
      </trkpt>
      <trkpt lat="43.544" lon="1.48155">
        <ele>208.867</ele>
        <time>2020-04-03T15:45:26Z</time>
      </trkpt>
      <trkpt lat="43.54395" lon="1.48154">
        <ele>208.787</ele>
        <time>2020-04-03T15:45:31Z</time>
      </trkpt>
      <trkpt lat="43.54387" lon="1.48151">
        <ele>208.689</ele>
        <time>2020-04-03T15:45:37Z</time>
      </trkpt>
      <trkpt lat="43.54378" lon="1.48147">
        <ele>208.597</ele>
        <time>2020-04-03T15:45:43Z</time>
      </trkpt>
      <trkpt lat="43.54372" lon="1.48143">
        <ele>208.531</ele>
        <time>2020-04-03T15:45:48Z</time>
      </trkpt>
      <trkpt lat="43.54365" lon="1.48142">
        <ele>208.463</ele>
        <time>2020-04-03T15:45:54Z</time>
      </trkpt>
      <trkpt lat="43.5436" lon="1.48141">
        <ele>208.409</ele>
        <time>2020-04-03T15:45:59Z</time>
      </trkpt>
      <trkpt lat="43.54354" lon="1.48145">
        <ele>208.347</ele>
        <time>2020-04-03T15:46:05Z</time>
      </trkpt>
      <trkpt lat="43.54349" lon="1.48149">
        <ele>208.302</ele>
        <time>2020-04-03T15:46:11Z</time>
      </trkpt>
      <trkpt lat="43.54343" lon="1.48153">
        <ele>208.279</ele>
        <time>2020-04-03T15:46:16Z</time>
      </trkpt>
      <trkpt lat="43.54337" lon="1.48158">
        <ele>208.266</ele>
        <time>2020-04-03T15:46:22Z</time>
      </trkpt>
      <trkpt lat="43.54329" lon="1.48162">
        <ele>208.25</ele>
        <time>2020-04-03T15:46:28Z</time>
      </trkpt>
      <trkpt lat="43.54325" lon="1.48165">
        <ele>208.24</ele>
        <time>2020-04-03T15:46:33Z</time>
      </trkpt>
      <trkpt lat="43.54318" lon="1.48167">
        <ele>208.245</ele>
        <time>2020-04-03T15:46:39Z</time>
      </trkpt>
      <trkpt lat="43.54312" lon="1.48171">
        <ele>208.258</ele>
        <time>2020-04-03T15:46:44Z</time>
      </trkpt>
      <trkpt lat="43.54305" lon="1.48178">
        <ele>208.295</ele>
        <time>2020-04-03T15:46:50Z</time>
      </trkpt>
      <trkpt lat="43.54301" lon="1.48184">
        <ele>208.338</ele>
        <time>2020-04-03T15:46:55Z</time>
      </trkpt>
      <trkpt lat="43.54296" lon="1.4819">
        <ele>208.396</ele>
        <time>2020-04-03T15:47:01Z</time>
      </trkpt>
      <trkpt lat="43.54291" lon="1.48195">
        <ele>208.453</ele>
        <time>2020-04-03T15:47:07Z</time>
      </trkpt>
      <trkpt lat="43.54287" lon="1.48198">
        <ele>208.494</ele>
        <time>2020-04-03T15:47:12Z</time>
      </trkpt>
      <trkpt lat="43.54284" lon="1.48203">
        <ele>208.535</ele>
        <time>2020-04-03T15:47:17Z</time>
      </trkpt>
      <trkpt lat="43.54279" lon="1.48207">
        <ele>208.582</ele>
        <time>2020-04-03T15:47:23Z</time>
      </trkpt>
      <trkpt lat="43.54273" lon="1.48211">
        <ele>208.626</ele>
        <time>2020-04-03T15:47:29Z</time>
      </trkpt>
      <trkpt lat="43.54266" lon="1.48217">
        <ele>208.66</ele>
        <time>2020-04-03T15:47:34Z</time>
      </trkpt>
      <trkpt lat="43.54262" lon="1.48221">
        <ele>208.687</ele>
        <time>2020-04-03T15:47:39Z</time>
      </trkpt>
      <trkpt lat="43.54257" lon="1.48227">
        <ele>208.719</ele>
        <time>2020-04-03T15:47:45Z</time>
      </trkpt>
      <trkpt lat="43.54252" lon="1.48231">
        <ele>208.747</ele>
        <time>2020-04-03T15:47:50Z</time>
      </trkpt>
      <trkpt lat="43.54246" lon="1.48236">
        <ele>208.783</ele>
        <time>2020-04-03T15:47:56Z</time>
      </trkpt>
      <trkpt lat="43.54243" lon="1.48239">
        <ele>208.802</ele>
        <time>2020-04-03T15:48:01Z</time>
      </trkpt>
      <trkpt lat="43.54237" lon="1.48245">
        <ele>208.821</ele>
        <time>2020-04-03T15:48:07Z</time>
      </trkpt>
      <trkpt lat="43.54232" lon="1.4825">
        <ele>208.833</ele>
        <time>2020-04-03T15:48:13Z</time>
      </trkpt>
      <trkpt lat="43.54227" lon="1.48257">
        <ele>208.849</ele>
        <time>2020-04-03T15:48:19Z</time>
      </trkpt>
      <trkpt lat="43.54223" lon="1.48262">
        <ele>208.858</ele>
        <time>2020-04-03T15:48:24Z</time>
      </trkpt>
      <trkpt lat="43.54216" lon="1.48267">
        <ele>208.887</ele>
        <time>2020-04-03T15:48:30Z</time>
      </trkpt>
      <trkpt lat="43.54211" lon="1.4827">
        <ele>208.927</ele>
        <time>2020-04-03T15:48:35Z</time>
      </trkpt>
      <trkpt lat="43.54206" lon="1.48275">
        <ele>208.985</ele>
        <time>2020-04-03T15:48:41Z</time>
      </trkpt>
      <trkpt lat="43.54201" lon="1.4828">
        <ele>209.041</ele>
        <time>2020-04-03T15:48:46Z</time>
      </trkpt>
      <trkpt lat="43.54197" lon="1.48287">
        <ele>209.115</ele>
        <time>2020-04-03T15:48:52Z</time>
      </trkpt>
      <trkpt lat="43.54197" lon="1.48294">
        <ele>209.171</ele>
        <time>2020-04-03T15:48:57Z</time>
      </trkpt>
      <trkpt lat="43.54196" lon="1.48305">
        <ele>209.221</ele>
        <time>2020-04-03T15:49:02Z</time>
      </trkpt>
      <trkpt lat="43.54195" lon="1.4831">
        <ele>209.273</ele>
        <time>2020-04-03T15:49:07Z</time>
      </trkpt>
      <trkpt lat="43.54192" lon="1.48315">
        <ele>209.34</ele>
        <time>2020-04-03T15:49:13Z</time>
      </trkpt>
      <trkpt lat="43.54187" lon="1.48318">
        <ele>209.389</ele>
        <time>2020-04-03T15:49:18Z</time>
      </trkpt>
      <trkpt lat="43.54178" lon="1.48319">
        <ele>209.443</ele>
        <time>2020-04-03T15:49:23Z</time>
      </trkpt>
      <trkpt lat="43.54171" lon="1.48324">
        <ele>209.506</ele>
        <time>2020-04-03T15:49:29Z</time>
      </trkpt>
      <trkpt lat="43.54165" lon="1.48327">
        <ele>209.565</ele>
        <time>2020-04-03T15:49:35Z</time>
      </trkpt>
      <trkpt lat="43.54159" lon="1.4833">
        <ele>209.607</ele>
        <time>2020-04-03T15:49:40Z</time>
      </trkpt>
      <trkpt lat="43.54154" lon="1.48335">
        <ele>209.644</ele>
        <time>2020-04-03T15:49:45Z</time>
      </trkpt>
      <trkpt lat="43.54149" lon="1.48338">
        <ele>209.683</ele>
        <time>2020-04-03T15:49:51Z</time>
      </trkpt>
      <trkpt lat="43.54145" lon="1.48341">
        <ele>209.717</ele>
        <time>2020-04-03T15:49:56Z</time>
      </trkpt>
      <trkpt lat="43.54144" lon="1.48344">
        <ele>209.742</ele>
        <time>2020-04-03T15:50:02Z</time>
      </trkpt>
      <trkpt lat="43.5414" lon="1.48346">
        <ele>209.761</ele>
        <time>2020-04-03T15:50:07Z</time>
      </trkpt>
      <trkpt lat="43.5413" lon="1.48347">
        <ele>209.79</ele>
        <time>2020-04-03T15:50:13Z</time>
      </trkpt>
      <trkpt lat="43.54127" lon="1.48351">
        <ele>209.81</ele>
        <time>2020-04-03T15:50:18Z</time>
      </trkpt>
      <trkpt lat="43.5412" lon="1.48352">
        <ele>209.827</ele>
        <time>2020-04-03T15:50:24Z</time>
      </trkpt>
      <trkpt lat="43.54116" lon="1.48352">
        <ele>209.839</ele>
        <time>2020-04-03T15:50:29Z</time>
      </trkpt>
      <trkpt lat="43.5411" lon="1.48353">
        <ele>209.857</ele>
        <time>2020-04-03T15:50:35Z</time>
      </trkpt>
      <trkpt lat="43.54105" lon="1.48353">
        <ele>209.873</ele>
        <time>2020-04-03T15:50:40Z</time>
      </trkpt>
      <trkpt lat="43.54101" lon="1.48349">
        <ele>209.899</ele>
        <time>2020-04-03T15:50:46Z</time>
      </trkpt>
      <trkpt lat="43.54094" lon="1.48345">
        <ele>209.931</ele>
        <time>2020-04-03T15:50:52Z</time>
      </trkpt>
      <trkpt lat="43.54089" lon="1.48346">
        <ele>209.97</ele>
        <time>2020-04-03T15:50:58Z</time>
      </trkpt>
      <trkpt lat="43.54087" lon="1.48342">
        <ele>210.001</ele>
        <time>2020-04-03T15:51:03Z</time>
      </trkpt>
      <trkpt lat="43.54083" lon="1.48333">
        <ele>210.036</ele>
        <time>2020-04-03T15:51:09Z</time>
      </trkpt>
      <trkpt lat="43.54082" lon="1.48324">
        <ele>210.062</ele>
        <time>2020-04-03T15:51:15Z</time>
      </trkpt>
      <trkpt lat="43.54081" lon="1.48318">
        <ele>210.083</ele>
        <time>2020-04-03T15:51:21Z</time>
      </trkpt>
      <trkpt lat="43.54082" lon="1.48311">
        <ele>210.102</ele>
        <time>2020-04-03T15:51:27Z</time>
      </trkpt>
      <trkpt lat="43.54078" lon="1.48303">
        <ele>210.111</ele>
        <time>2020-04-03T15:51:33Z</time>
      </trkpt>
      <trkpt lat="43.54074" lon="1.48293">
        <ele>210.115</ele>
        <time>2020-04-03T15:51:39Z</time>
      </trkpt>
      <trkpt lat="43.54068" lon="1.48291">
        <ele>210.122</ele>
        <time>2020-04-03T15:51:44Z</time>
      </trkpt>
      <trkpt lat="43.54061" lon="1.48287">
        <ele>210.139</ele>
        <time>2020-04-03T15:51:50Z</time>
      </trkpt>
      <trkpt lat="43.54054" lon="1.48285">
        <ele>210.154</ele>
        <time>2020-04-03T15:51:56Z</time>
      </trkpt>
      <trkpt lat="43.5405" lon="1.48282">
        <ele>210.162</ele>
        <time>2020-04-03T15:52:02Z</time>
      </trkpt>
      <trkpt lat="43.54045" lon="1.4828">
        <ele>210.165</ele>
        <time>2020-04-03T15:52:08Z</time>
      </trkpt>
      <trkpt lat="43.5404" lon="1.48279">
        <ele>210.173</ele>
        <time>2020-04-03T15:52:14Z</time>
      </trkpt>
      <trkpt lat="43.54033" lon="1.48277">
        <ele>210.18</ele>
        <time>2020-04-03T15:52:19Z</time>
      </trkpt>
      <trkpt lat="43.54026" lon="1.48276">
        <ele>210.191</ele>
        <time>2020-04-03T15:52:24Z</time>
      </trkpt>
      <trkpt lat="43.5402" lon="1.48274">
        <ele>210.205</ele>
        <time>2020-04-03T15:52:29Z</time>
      </trkpt>
      <trkpt lat="43.54015" lon="1.48274">
        <ele>210.221</ele>
        <time>2020-04-03T15:52:34Z</time>
      </trkpt>
      <trkpt lat="43.54008" lon="1.48271">
        <ele>210.241</ele>
        <time>2020-04-03T15:52:40Z</time>
      </trkpt>
      <trkpt lat="43.54003" lon="1.48269">
        <ele>210.258</ele>
        <time>2020-04-03T15:52:46Z</time>
      </trkpt>
      <trkpt lat="43.53996" lon="1.48266">
        <ele>210.263</ele>
        <time>2020-04-03T15:52:52Z</time>
      </trkpt>
      <trkpt lat="43.53991" lon="1.48264">
        <ele>210.26</ele>
        <time>2020-04-03T15:52:57Z</time>
      </trkpt>
      <trkpt lat="43.53985" lon="1.48262">
        <ele>210.26</ele>
        <time>2020-04-03T15:53:03Z</time>
      </trkpt>
      <trkpt lat="43.53978" lon="1.48259">
        <ele>210.272</ele>
        <time>2020-04-03T15:53:09Z</time>
      </trkpt>
      <trkpt lat="43.53972" lon="1.48257">
        <ele>210.296</ele>
        <time>2020-04-03T15:53:15Z</time>
      </trkpt>
      <trkpt lat="43.53967" lon="1.48257">
        <ele>210.319</ele>
        <time>2020-04-03T15:53:21Z</time>
      </trkpt>
      <trkpt lat="43.53963" lon="1.48256">
        <ele>210.343</ele>
        <time>2020-04-03T15:53:26Z</time>
      </trkpt>
      <trkpt lat="43.53955" lon="1.48254">
        <ele>210.369</ele>
        <time>2020-04-03T15:53:31Z</time>
      </trkpt>
      <trkpt lat="43.5395" lon="1.48253">
        <ele>210.405</ele>
        <time>2020-04-03T15:53:37Z</time>
      </trkpt>
      <trkpt lat="43.53946" lon="1.48257">
        <ele>210.447</ele>
        <time>2020-04-03T15:53:43Z</time>
      </trkpt>
      <trkpt lat="43.53941" lon="1.48259">
        <ele>210.492</ele>
        <time>2020-04-03T15:53:49Z</time>
      </trkpt>
      <trkpt lat="43.5394" lon="1.48259">
        <ele>210.524</ele>
        <time>2020-04-03T15:53:54Z</time>
      </trkpt>
      <trkpt lat="43.5394" lon="1.48259">
        <ele>210.551</ele>
        <time>2020-04-03T15:54:00Z</time>
      </trkpt>
      <trkpt lat="43.53939" lon="1.48259">
        <ele>210.558</ele>
        <time>2020-04-03T15:54:05Z</time>
      </trkpt>
      <trkpt lat="43.53939" lon="1.48259">
        <ele>210.601</ele>
        <time>2020-04-03T15:54:11Z</time>
      </trkpt>
      <trkpt lat="43.53937" lon="1.4826">
        <ele>210.709</ele>
        <time>2020-04-03T15:54:17Z</time>
      </trkpt>
      <trkpt lat="43.53933" lon="1.48262">
        <ele>210.798</ele>
        <time>2020-04-03T15:54:22Z</time>
      </trkpt>
      <trkpt lat="43.53929" lon="1.48266">
        <ele>210.902</ele>
        <time>2020-04-03T15:54:28Z</time>
      </trkpt>
      <trkpt lat="43.53924" lon="1.48268">
        <ele>211.015</ele>
        <time>2020-04-03T15:54:34Z</time>
      </trkpt>
      <trkpt lat="43.53917" lon="1.48269">
        <ele>211.133</ele>
        <time>2020-04-03T15:54:40Z</time>
      </trkpt>
      <trkpt lat="43.53909" lon="1.48272">
        <ele>211.262</ele>
        <time>2020-04-03T15:54:46Z</time>
      </trkpt>
      <trkpt lat="43.53904" lon="1.48275">
        <ele>211.365</ele>
        <time>2020-04-03T15:54:51Z</time>
      </trkpt>
      <trkpt lat="43.53898" lon="1.48281">
        <ele>211.481</ele>
        <time>2020-04-03T15:54:57Z</time>
      </trkpt>
      <trkpt lat="43.53893" lon="1.48282">
        <ele>211.574</ele>
        <time>2020-04-03T15:55:02Z</time>
      </trkpt>
      <trkpt lat="43.53887" lon="1.48286">
        <ele>211.676</ele>
        <time>2020-04-03T15:55:08Z</time>
      </trkpt>
      <trkpt lat="43.53879" lon="1.48293">
        <ele>211.769</ele>
        <time>2020-04-03T15:55:14Z</time>
      </trkpt>
      <trkpt lat="43.53874" lon="1.48294">
        <ele>211.84</ele>
        <time>2020-04-03T15:55:19Z</time>
      </trkpt>
      <trkpt lat="43.53869" lon="1.48296">
        <ele>211.923</ele>
        <time>2020-04-03T15:55:25Z</time>
      </trkpt>
      <trkpt lat="43.53868" lon="1.48297">
        <ele>211.944</ele>
        <time>2020-04-03T15:55:31Z</time>
      </trkpt>
      <trkpt lat="43.53868" lon="1.48297">
        <ele>211.953</ele>
        <time>2020-04-03T15:55:37Z</time>
      </trkpt>
      <trkpt lat="43.53868" lon="1.48297">
        <ele>211.963</ele>
        <time>2020-04-03T15:55:43Z</time>
      </trkpt>
      <trkpt lat="43.53868" lon="1.48297">
        <ele>211.976</ele>
        <time>2020-04-03T15:55:49Z</time>
      </trkpt>
      <trkpt lat="43.53867" lon="1.48298">
        <ele>212.033</ele>
        <time>2020-04-03T15:55:54Z</time>
      </trkpt>
      <trkpt lat="43.53863" lon="1.483">
        <ele>212.151</ele>
        <time>2020-04-03T15:55:59Z</time>
      </trkpt>
      <trkpt lat="43.53858" lon="1.48301">
        <ele>212.286</ele>
        <time>2020-04-03T15:56:05Z</time>
      </trkpt>
      <trkpt lat="43.53852" lon="1.48305">
        <ele>212.408</ele>
        <time>2020-04-03T15:56:11Z</time>
      </trkpt>
      <trkpt lat="43.53845" lon="1.48308">
        <ele>212.522</ele>
        <time>2020-04-03T15:56:17Z</time>
      </trkpt>
      <trkpt lat="43.53841" lon="1.48311">
        <ele>212.608</ele>
        <time>2020-04-03T15:56:22Z</time>
      </trkpt>
      <trkpt lat="43.53839" lon="1.48312">
        <ele>212.62</ele>
        <time>2020-04-03T15:56:28Z</time>
      </trkpt>
      <trkpt lat="43.53838" lon="1.48313">
        <ele>212.672</ele>
        <time>2020-04-03T15:56:33Z</time>
      </trkpt>
      <trkpt lat="43.53832" lon="1.48316">
        <ele>212.798</ele>
        <time>2020-04-03T15:56:39Z</time>
      </trkpt>
      <trkpt lat="43.53828" lon="1.48318">
        <ele>212.894</ele>
        <time>2020-04-03T15:56:44Z</time>
      </trkpt>
      <trkpt lat="43.53824" lon="1.48321">
        <ele>213.002</ele>
        <time>2020-04-03T15:56:50Z</time>
      </trkpt>
      <trkpt lat="43.53818" lon="1.48326">
        <ele>213.105</ele>
        <time>2020-04-03T15:56:56Z</time>
      </trkpt>
      <trkpt lat="43.53813" lon="1.4833">
        <ele>213.2</ele>
        <time>2020-04-03T15:57:02Z</time>
      </trkpt>
      <trkpt lat="43.53809" lon="1.48333">
        <ele>213.273</ele>
        <time>2020-04-03T15:57:07Z</time>
      </trkpt>
      <trkpt lat="43.53809" lon="1.48334">
        <ele>213.294</ele>
        <time>2020-04-03T15:57:13Z</time>
      </trkpt>
      <trkpt lat="43.53808" lon="1.48337">
        <ele>213.35</ele>
        <time>2020-04-03T15:57:19Z</time>
      </trkpt>
      <trkpt lat="43.53804" lon="1.48341">
        <ele>213.416</ele>
        <time>2020-04-03T15:57:24Z</time>
      </trkpt>
      <trkpt lat="43.53799" lon="1.48344">
        <ele>213.476</ele>
        <time>2020-04-03T15:57:29Z</time>
      </trkpt>
      <trkpt lat="43.53793" lon="1.48349">
        <ele>213.531</ele>
        <time>2020-04-03T15:57:34Z</time>
      </trkpt>
      <trkpt lat="43.53789" lon="1.48354">
        <ele>213.594</ele>
        <time>2020-04-03T15:57:40Z</time>
      </trkpt>
      <trkpt lat="43.53789" lon="1.48355">
        <ele>213.61</ele>
        <time>2020-04-03T15:57:45Z</time>
      </trkpt>
      <trkpt lat="43.53789" lon="1.48355">
        <ele>213.616</ele>
        <time>2020-04-03T15:57:51Z</time>
      </trkpt>
      <trkpt lat="43.5379" lon="1.48358">
        <ele>213.646</ele>
        <time>2020-04-03T15:57:56Z</time>
      </trkpt>
      <trkpt lat="43.53793" lon="1.48366">
        <ele>213.687</ele>
        <time>2020-04-03T15:58:01Z</time>
      </trkpt>
      <trkpt lat="43.53798" lon="1.48372">
        <ele>213.731</ele>
        <time>2020-04-03T15:58:07Z</time>
      </trkpt>
      <trkpt lat="43.53802" lon="1.48379">
        <ele>213.765</ele>
        <time>2020-04-03T15:58:13Z</time>
      </trkpt>
      <trkpt lat="43.53805" lon="1.48387">
        <ele>213.791</ele>
        <time>2020-04-03T15:58:19Z</time>
      </trkpt>
      <trkpt lat="43.53805" lon="1.48391">
        <ele>213.813</ele>
        <time>2020-04-03T15:58:25Z</time>
      </trkpt>
      <trkpt lat="43.53807" lon="1.48395">
        <ele>213.835</ele>
        <time>2020-04-03T15:58:30Z</time>
      </trkpt>
      <trkpt lat="43.53811" lon="1.48403">
        <ele>213.857</ele>
        <time>2020-04-03T15:58:36Z</time>
      </trkpt>
      <trkpt lat="43.53814" lon="1.48408">
        <ele>213.871</ele>
        <time>2020-04-03T15:58:41Z</time>
      </trkpt>
      <trkpt lat="43.53818" lon="1.48414">
        <ele>213.88</ele>
        <time>2020-04-03T15:58:47Z</time>
      </trkpt>
      <trkpt lat="43.53821" lon="1.48421">
        <ele>213.884</ele>
        <time>2020-04-03T15:58:53Z</time>
      </trkpt>
      <trkpt lat="43.53825" lon="1.48426">
        <ele>213.884</ele>
        <time>2020-04-03T15:58:58Z</time>
      </trkpt>
      <trkpt lat="43.53829" lon="1.48431">
        <ele>213.884</ele>
        <time>2020-04-03T15:59:03Z</time>
      </trkpt>
      <trkpt lat="43.53832" lon="1.48439">
        <ele>213.881</ele>
        <time>2020-04-03T15:59:09Z</time>
      </trkpt>
      <trkpt lat="43.53835" lon="1.48447">
        <ele>213.876</ele>
        <time>2020-04-03T15:59:14Z</time>
      </trkpt>
      <trkpt lat="43.5384" lon="1.48455">
        <ele>213.87</ele>
        <time>2020-04-03T15:59:20Z</time>
      </trkpt>
      <trkpt lat="43.53843" lon="1.4846">
        <ele>213.861</ele>
        <time>2020-04-03T15:59:25Z</time>
      </trkpt>
      <trkpt lat="43.53846" lon="1.48468">
        <ele>213.849</ele>
        <time>2020-04-03T15:59:31Z</time>
      </trkpt>
      <trkpt lat="43.53851" lon="1.48472">
        <ele>213.84</ele>
        <time>2020-04-03T15:59:37Z</time>
      </trkpt>
      <trkpt lat="43.53853" lon="1.48476">
        <ele>213.831</ele>
        <time>2020-04-03T15:59:42Z</time>
      </trkpt>
      <trkpt lat="43.53856" lon="1.48484">
        <ele>213.82</ele>
        <time>2020-04-03T15:59:48Z</time>
      </trkpt>
      <trkpt lat="43.53861" lon="1.48492">
        <ele>213.806</ele>
        <time>2020-04-03T15:59:54Z</time>
      </trkpt>
      <trkpt lat="43.53864" lon="1.48496">
        <ele>213.793</ele>
        <time>2020-04-03T15:59:59Z</time>
      </trkpt>
      <trkpt lat="43.53866" lon="1.48504">
        <ele>213.775</ele>
        <time>2020-04-03T16:00:05Z</time>
      </trkpt>
      <trkpt lat="43.53867" lon="1.48512">
        <ele>213.759</ele>
        <time>2020-04-03T16:00:11Z</time>
      </trkpt>
      <trkpt lat="43.53871" lon="1.48519">
        <ele>213.738</ele>
        <time>2020-04-03T16:00:17Z</time>
      </trkpt>
      <trkpt lat="43.53873" lon="1.48525">
        <ele>213.709</ele>
        <time>2020-04-03T16:00:23Z</time>
      </trkpt>
      <trkpt lat="43.53876" lon="1.4853">
        <ele>213.679</ele>
        <time>2020-04-03T16:00:28Z</time>
      </trkpt>
      <trkpt lat="43.53882" lon="1.48539">
        <ele>213.65</ele>
        <time>2020-04-03T16:00:34Z</time>
      </trkpt>
      <trkpt lat="43.53883" lon="1.48549">
        <ele>213.617</ele>
        <time>2020-04-03T16:00:40Z</time>
      </trkpt>
      <trkpt lat="43.53888" lon="1.48559">
        <ele>213.59</ele>
        <time>2020-04-03T16:00:46Z</time>
      </trkpt>
      <trkpt lat="43.53893" lon="1.48567">
        <ele>213.567</ele>
        <time>2020-04-03T16:00:52Z</time>
      </trkpt>
      <trkpt lat="43.53897" lon="1.48575">
        <ele>213.539</ele>
        <time>2020-04-03T16:00:58Z</time>
      </trkpt>
      <trkpt lat="43.539" lon="1.48579">
        <ele>213.522</ele>
        <time>2020-04-03T16:01:03Z</time>
      </trkpt>
      <trkpt lat="43.53903" lon="1.48581">
        <ele>213.507</ele>
        <time>2020-04-03T16:01:08Z</time>
      </trkpt>
      <trkpt lat="43.53905" lon="1.48584">
        <ele>213.493</ele>
        <time>2020-04-03T16:01:14Z</time>
      </trkpt>
      <trkpt lat="43.53907" lon="1.48589">
        <ele>213.476</ele>
        <time>2020-04-03T16:01:20Z</time>
      </trkpt>
      <trkpt lat="43.53907" lon="1.48592">
        <ele>213.463</ele>
        <time>2020-04-03T16:01:26Z</time>
      </trkpt>
      <trkpt lat="43.53907" lon="1.48592">
        <ele>213.461</ele>
        <time>2020-04-03T16:01:31Z</time>
      </trkpt>
      <trkpt lat="43.53907" lon="1.48592">
        <ele>213.459</ele>
        <time>2020-04-03T16:01:36Z</time>
      </trkpt>
      <trkpt lat="43.53907" lon="1.48593">
        <ele>213.455</ele>
        <time>2020-04-03T16:01:42Z</time>
      </trkpt>
      <trkpt lat="43.53908" lon="1.48593">
        <ele>213.448</ele>
        <time>2020-04-03T16:01:48Z</time>
      </trkpt>
      <trkpt lat="43.53908" lon="1.48593">
        <ele>213.43</ele>
        <time>2020-04-03T16:01:54Z</time>
      </trkpt>
      <trkpt lat="43.53908" lon="1.48593">
        <ele>213.424</ele>
        <time>2020-04-03T16:02:00Z</time>
      </trkpt>
      <trkpt lat="43.53908" lon="1.48594">
        <ele>213.417</ele>
        <time>2020-04-03T16:02:06Z</time>
      </trkpt>
      <trkpt lat="43.53909" lon="1.48594">
        <ele>213.41</ele>
        <time>2020-04-03T16:02:12Z</time>
      </trkpt>
      <trkpt lat="43.53909" lon="1.48594">
        <ele>213.402</ele>
        <time>2020-04-03T16:02:18Z</time>
      </trkpt>
      <trkpt lat="43.53909" lon="1.48594">
        <ele>213.393</ele>
        <time>2020-04-03T16:02:24Z</time>
      </trkpt>
      <trkpt lat="43.53909" lon="1.48594">
        <ele>213.384</ele>
        <time>2020-04-03T16:02:29Z</time>
      </trkpt>
      <trkpt lat="43.53909" lon="1.48594">
        <ele>213.353</ele>
        <time>2020-04-03T16:02:35Z</time>
      </trkpt>
      <trkpt lat="43.53909" lon="1.48594">
        <ele>213.319</ele>
        <time>2020-04-03T16:02:40Z</time>
      </trkpt>
      <trkpt lat="43.53909" lon="1.48594">
        <ele>213.304</ele>
        <time>2020-04-03T16:02:46Z</time>
      </trkpt>
      <trkpt lat="43.5391" lon="1.48594">
        <ele>213.289</ele>
        <time>2020-04-03T16:02:52Z</time>
      </trkpt>
      <trkpt lat="43.53909" lon="1.48595">
        <ele>213.272</ele>
        <time>2020-04-03T16:02:58Z</time>
      </trkpt>
      <trkpt lat="43.53909" lon="1.48595">
        <ele>213.256</ele>
        <time>2020-04-03T16:03:04Z</time>
      </trkpt>
      <trkpt lat="43.53908" lon="1.48596">
        <ele>213.141</ele>
        <time>2020-04-03T16:03:10Z</time>
      </trkpt>
      <trkpt lat="43.53908" lon="1.48601">
        <ele>212.99</ele>
        <time>2020-04-03T16:03:16Z</time>
      </trkpt>
      <trkpt lat="43.5391" lon="1.48604">
        <ele>212.878</ele>
        <time>2020-04-03T16:03:22Z</time>
      </trkpt>
      <trkpt lat="43.53909" lon="1.48612">
        <ele>212.779</ele>
        <time>2020-04-03T16:03:28Z</time>
      </trkpt>
      <trkpt lat="43.53908" lon="1.48619">
        <ele>212.673</ele>
        <time>2020-04-03T16:03:34Z</time>
      </trkpt>
      <trkpt lat="43.53908" lon="1.48629">
        <ele>212.582</ele>
        <time>2020-04-03T16:03:40Z</time>
      </trkpt>
      <trkpt lat="43.53908" lon="1.48635">
        <ele>212.515</ele>
        <time>2020-04-03T16:03:46Z</time>
      </trkpt>
      <trkpt lat="43.53906" lon="1.48643">
        <ele>212.449</ele>
        <time>2020-04-03T16:03:52Z</time>
      </trkpt>
      <trkpt lat="43.53902" lon="1.48653">
        <ele>212.402</ele>
        <time>2020-04-03T16:03:57Z</time>
      </trkpt>
      <trkpt lat="43.53901" lon="1.48659">
        <ele>212.36</ele>
        <time>2020-04-03T16:04:03Z</time>
      </trkpt>
      <trkpt lat="43.53899" lon="1.4867">
        <ele>212.309</ele>
        <time>2020-04-03T16:04:09Z</time>
      </trkpt>
      <trkpt lat="43.539" lon="1.48676">
        <ele>212.289</ele>
        <time>2020-04-03T16:04:15Z</time>
      </trkpt>
      <trkpt lat="43.539" lon="1.48676">
        <ele>212.274</ele>
        <time>2020-04-03T16:04:20Z</time>
      </trkpt>
      <trkpt lat="43.53901" lon="1.48687">
        <ele>212.215</ele>
        <time>2020-04-03T16:04:26Z</time>
      </trkpt>
      <trkpt lat="43.53902" lon="1.48693">
        <ele>212.162</ele>
        <time>2020-04-03T16:04:31Z</time>
      </trkpt>
      <trkpt lat="43.53905" lon="1.487">
        <ele>212.109</ele>
        <time>2020-04-03T16:04:36Z</time>
      </trkpt>
      <trkpt lat="43.53907" lon="1.48706">
        <ele>212.056</ele>
        <time>2020-04-03T16:04:41Z</time>
      </trkpt>
      <trkpt lat="43.53906" lon="1.48713">
        <ele>212.004</ele>
        <time>2020-04-03T16:04:46Z</time>
      </trkpt>
      <trkpt lat="43.53907" lon="1.48719">
        <ele>211.954</ele>
        <time>2020-04-03T16:04:51Z</time>
      </trkpt>
      <trkpt lat="43.53909" lon="1.48729">
        <ele>211.898</ele>
        <time>2020-04-03T16:04:57Z</time>
      </trkpt>
      <trkpt lat="43.53912" lon="1.48737">
        <ele>211.843</ele>
        <time>2020-04-03T16:05:03Z</time>
      </trkpt>
      <trkpt lat="43.53913" lon="1.48746">
        <ele>211.784</ele>
        <time>2020-04-03T16:05:09Z</time>
      </trkpt>
      <trkpt lat="43.53913" lon="1.48753">
        <ele>211.738</ele>
        <time>2020-04-03T16:05:14Z</time>
      </trkpt>
      <trkpt lat="43.53915" lon="1.48762">
        <ele>211.696</ele>
        <time>2020-04-03T16:05:19Z</time>
      </trkpt>
      <trkpt lat="43.53916" lon="1.4877">
        <ele>211.652</ele>
        <time>2020-04-03T16:05:25Z</time>
      </trkpt>
      <trkpt lat="43.53918" lon="1.48775">
        <ele>211.62</ele>
        <time>2020-04-03T16:05:30Z</time>
      </trkpt>
      <trkpt lat="43.53922" lon="1.4878">
        <ele>211.582</ele>
        <time>2020-04-03T16:05:36Z</time>
      </trkpt>
      <trkpt lat="43.53924" lon="1.48788">
        <ele>211.54</ele>
        <time>2020-04-03T16:05:42Z</time>
      </trkpt>
      <trkpt lat="43.53927" lon="1.48793">
        <ele>211.508</ele>
        <time>2020-04-03T16:05:47Z</time>
      </trkpt>
      <trkpt lat="43.5393" lon="1.48802">
        <ele>211.475</ele>
        <time>2020-04-03T16:05:53Z</time>
      </trkpt>
      <trkpt lat="43.53934" lon="1.48808">
        <ele>211.445</ele>
        <time>2020-04-03T16:05:58Z</time>
      </trkpt>
      <trkpt lat="43.53938" lon="1.48815">
        <ele>211.406</ele>
        <time>2020-04-03T16:06:04Z</time>
      </trkpt>
      <trkpt lat="43.53943" lon="1.48824">
        <ele>211.367</ele>
        <time>2020-04-03T16:06:10Z</time>
      </trkpt>
      <trkpt lat="43.53945" lon="1.4883">
        <ele>211.338</ele>
        <time>2020-04-03T16:06:15Z</time>
      </trkpt>
      <trkpt lat="43.53948" lon="1.48835">
        <ele>211.307</ele>
        <time>2020-04-03T16:06:20Z</time>
      </trkpt>
      <trkpt lat="43.53952" lon="1.4884">
        <ele>211.271</ele>
        <time>2020-04-03T16:06:26Z</time>
      </trkpt>
      <trkpt lat="43.53956" lon="1.4885">
        <ele>211.239</ele>
        <time>2020-04-03T16:06:31Z</time>
      </trkpt>
      <trkpt lat="43.5396" lon="1.48857">
        <ele>211.2</ele>
        <time>2020-04-03T16:06:37Z</time>
      </trkpt>
      <trkpt lat="43.53964" lon="1.48863">
        <ele>211.16</ele>
        <time>2020-04-03T16:06:43Z</time>
      </trkpt>
      <trkpt lat="43.53967" lon="1.48866">
        <ele>211.125</ele>
        <time>2020-04-03T16:06:49Z</time>
      </trkpt>
      <trkpt lat="43.53972" lon="1.48872">
        <ele>211.1</ele>
        <time>2020-04-03T16:06:54Z</time>
      </trkpt>
      <trkpt lat="43.53978" lon="1.48878">
        <ele>211.072</ele>
        <time>2020-04-03T16:06:59Z</time>
      </trkpt>
      <trkpt lat="43.53981" lon="1.48885">
        <ele>211.037</ele>
        <time>2020-04-03T16:07:05Z</time>
      </trkpt>
      <trkpt lat="43.53986" lon="1.48893">
        <ele>211.005</ele>
        <time>2020-04-03T16:07:11Z</time>
      </trkpt>
      <trkpt lat="43.53989" lon="1.48899">
        <ele>210.976</ele>
        <time>2020-04-03T16:07:16Z</time>
      </trkpt>
      <trkpt lat="43.53993" lon="1.48905">
        <ele>210.945</ele>
        <time>2020-04-03T16:07:21Z</time>
      </trkpt>
      <trkpt lat="43.53996" lon="1.4891">
        <ele>210.915</ele>
        <time>2020-04-03T16:07:26Z</time>
      </trkpt>
      <trkpt lat="43.54003" lon="1.48913">
        <ele>210.878</ele>
        <time>2020-04-03T16:07:32Z</time>
      </trkpt>
      <trkpt lat="43.54009" lon="1.48915">
        <ele>210.84</ele>
        <time>2020-04-03T16:07:38Z</time>
      </trkpt>
      <trkpt lat="43.54012" lon="1.48921">
        <ele>210.794</ele>
        <time>2020-04-03T16:07:44Z</time>
      </trkpt>
      <trkpt lat="43.54013" lon="1.48924">
        <ele>210.769</ele>
        <time>2020-04-03T16:07:51Z</time>
      </trkpt>
      <trkpt lat="43.54014" lon="1.48927">
        <ele>210.719</ele>
        <time>2020-04-03T16:07:56Z</time>
      </trkpt>
      <trkpt lat="43.54016" lon="1.48935">
        <ele>210.654</ele>
        <time>2020-04-03T16:08:02Z</time>
      </trkpt>
      <trkpt lat="43.54018" lon="1.48943">
        <ele>210.592</ele>
        <time>2020-04-03T16:08:08Z</time>
      </trkpt>
      <trkpt lat="43.54021" lon="1.4895">
        <ele>210.539</ele>
        <time>2020-04-03T16:08:13Z</time>
      </trkpt>
      <trkpt lat="43.54024" lon="1.48956">
        <ele>210.481</ele>
        <time>2020-04-03T16:08:19Z</time>
      </trkpt>
      <trkpt lat="43.54028" lon="1.48964">
        <ele>210.423</ele>
        <time>2020-04-03T16:08:25Z</time>
      </trkpt>
      <trkpt lat="43.54034" lon="1.48967">
        <ele>210.365</ele>
        <time>2020-04-03T16:08:31Z</time>
      </trkpt>
      <trkpt lat="43.54038" lon="1.48974">
        <ele>210.295</ele>
        <time>2020-04-03T16:08:37Z</time>
      </trkpt>
      <trkpt lat="43.54042" lon="1.4898">
        <ele>210.236</ele>
        <time>2020-04-03T16:08:42Z</time>
      </trkpt>
      <trkpt lat="43.54046" lon="1.48985">
        <ele>210.158</ele>
        <time>2020-04-03T16:08:48Z</time>
      </trkpt>
      <trkpt lat="43.54051" lon="1.48991">
        <ele>210.077</ele>
        <time>2020-04-03T16:08:54Z</time>
      </trkpt>
      <trkpt lat="43.54058" lon="1.48993">
        <ele>210.006</ele>
        <time>2020-04-03T16:09:00Z</time>
      </trkpt>
      <trkpt lat="43.54062" lon="1.48993">
        <ele>209.939</ele>
        <time>2020-04-03T16:09:06Z</time>
      </trkpt>
      <trkpt lat="43.54067" lon="1.48993">
        <ele>209.873</ele>
        <time>2020-04-03T16:09:11Z</time>
      </trkpt>
      <trkpt lat="43.54073" lon="1.48991">
        <ele>209.799</ele>
        <time>2020-04-03T16:09:17Z</time>
      </trkpt>
      <trkpt lat="43.54075" lon="1.48983">
        <ele>209.702</ele>
        <time>2020-04-03T16:09:23Z</time>
      </trkpt>
      <trkpt lat="43.54076" lon="1.48973">
        <ele>209.612</ele>
        <time>2020-04-03T16:09:28Z</time>
      </trkpt>
      <trkpt lat="43.54079" lon="1.48966">
        <ele>209.491</ele>
        <time>2020-04-03T16:09:34Z</time>
      </trkpt>
      <trkpt lat="43.5408" lon="1.48957">
        <ele>209.326</ele>
        <time>2020-04-03T16:09:40Z</time>
      </trkpt>
      <trkpt lat="43.5408" lon="1.48949">
        <ele>209.171</ele>
        <time>2020-04-03T16:09:45Z</time>
      </trkpt>
      <trkpt lat="43.5408" lon="1.48941">
        <ele>208.996</ele>
        <time>2020-04-03T16:09:50Z</time>
      </trkpt>
      <trkpt lat="43.54079" lon="1.48934">
        <ele>208.774</ele>
        <time>2020-04-03T16:09:56Z</time>
      </trkpt>
      <trkpt lat="43.54078" lon="1.48929">
        <ele>208.586</ele>
        <time>2020-04-03T16:10:01Z</time>
      </trkpt>
      <trkpt lat="43.54077" lon="1.48921">
        <ele>208.351</ele>
        <time>2020-04-03T16:10:07Z</time>
      </trkpt>
      <trkpt lat="43.5408" lon="1.48913">
        <ele>208.095</ele>
        <time>2020-04-03T16:10:13Z</time>
      </trkpt>
      <trkpt lat="43.54083" lon="1.48903">
        <ele>207.818</ele>
        <time>2020-04-03T16:10:19Z</time>
      </trkpt>
      <trkpt lat="43.54086" lon="1.48899">
        <ele>207.54</ele>
        <time>2020-04-03T16:10:25Z</time>
      </trkpt>
      <trkpt lat="43.54092" lon="1.48893">
        <ele>207.189</ele>
        <time>2020-04-03T16:10:31Z</time>
      </trkpt>
      <trkpt lat="43.54095" lon="1.48886">
        <ele>206.701</ele>
        <time>2020-04-03T16:10:37Z</time>
      </trkpt>
      <trkpt lat="43.54098" lon="1.4888">
        <ele>206.221</ele>
        <time>2020-04-03T16:10:43Z</time>
      </trkpt>
      <trkpt lat="43.54101" lon="1.48874">
        <ele>205.713</ele>
        <time>2020-04-03T16:10:49Z</time>
      </trkpt>
      <trkpt lat="43.54103" lon="1.48865">
        <ele>205.155</ele>
        <time>2020-04-03T16:10:55Z</time>
      </trkpt>
      <trkpt lat="43.54108" lon="1.48857">
        <ele>204.692</ele>
        <time>2020-04-03T16:11:01Z</time>
      </trkpt>
      <trkpt lat="43.5411" lon="1.48851">
        <ele>204.358</ele>
        <time>2020-04-03T16:11:06Z</time>
      </trkpt>
      <trkpt lat="43.54111" lon="1.4884">
        <ele>203.98</ele>
        <time>2020-04-03T16:11:12Z</time>
      </trkpt>
      <trkpt lat="43.54112" lon="1.48834">
        <ele>203.697</ele>
        <time>2020-04-03T16:11:17Z</time>
      </trkpt>
      <trkpt lat="43.54111" lon="1.48827">
        <ele>203.365</ele>
        <time>2020-04-03T16:11:23Z</time>
      </trkpt>
      <trkpt lat="43.54111" lon="1.48822">
        <ele>203.026</ele>
        <time>2020-04-03T16:11:29Z</time>
      </trkpt>
      <trkpt lat="43.54114" lon="1.48815">
        <ele>202.725</ele>
        <time>2020-04-03T16:11:35Z</time>
      </trkpt>
      <trkpt lat="43.54116" lon="1.48808">
        <ele>202.499</ele>
        <time>2020-04-03T16:11:40Z</time>
      </trkpt>
      <trkpt lat="43.54115" lon="1.48798">
        <ele>202.238</ele>
        <time>2020-04-03T16:11:46Z</time>
      </trkpt>
      <trkpt lat="43.54118" lon="1.48792">
        <ele>202.045</ele>
        <time>2020-04-03T16:11:51Z</time>
      </trkpt>
      <trkpt lat="43.54118" lon="1.48789">
        <ele>201.931</ele>
        <time>2020-04-03T16:11:57Z</time>
      </trkpt>
      <trkpt lat="43.54117" lon="1.48788">
        <ele>201.822</ele>
        <time>2020-04-03T16:12:03Z</time>
      </trkpt>
      <trkpt lat="43.54117" lon="1.48773">
        <ele>201.703</ele>
        <time>2020-04-03T16:12:09Z</time>
      </trkpt>
      <trkpt lat="43.54119" lon="1.48764">
        <ele>201.598</ele>
        <time>2020-04-03T16:12:15Z</time>
      </trkpt>
      <trkpt lat="43.5412" lon="1.48755">
        <ele>201.498</ele>
        <time>2020-04-03T16:12:21Z</time>
      </trkpt>
      <trkpt lat="43.54122" lon="1.48751">
        <ele>201.408</ele>
        <time>2020-04-03T16:12:27Z</time>
      </trkpt>
      <trkpt lat="43.54122" lon="1.48746">
        <ele>201.352</ele>
        <time>2020-04-03T16:12:32Z</time>
      </trkpt>
      <trkpt lat="43.54114" lon="1.4873">
        <ele>201.298</ele>
        <time>2020-04-03T16:12:37Z</time>
      </trkpt>
      <trkpt lat="43.54115" lon="1.48715">
        <ele>201.243</ele>
        <time>2020-04-03T16:12:43Z</time>
      </trkpt>
      <trkpt lat="43.54114" lon="1.48707">
        <ele>201.187</ele>
        <time>2020-04-03T16:12:49Z</time>
      </trkpt>
      <trkpt lat="43.54112" lon="1.48706">
        <ele>201.145</ele>
        <time>2020-04-03T16:12:55Z</time>
      </trkpt>
      <trkpt lat="43.5411" lon="1.487">
        <ele>201.116</ele>
        <time>2020-04-03T16:13:01Z</time>
      </trkpt>
      <trkpt lat="43.54108" lon="1.48696">
        <ele>201.095</ele>
        <time>2020-04-03T16:13:06Z</time>
      </trkpt>
      <trkpt lat="43.54107" lon="1.48689">
        <ele>201.057</ele>
        <time>2020-04-03T16:13:12Z</time>
      </trkpt>
      <trkpt lat="43.54105" lon="1.48684">
        <ele>201.007</ele>
        <time>2020-04-03T16:13:17Z</time>
      </trkpt>
      <trkpt lat="43.54102" lon="1.48675">
        <ele>200.931</ele>
        <time>2020-04-03T16:13:22Z</time>
      </trkpt>
      <trkpt lat="43.54103" lon="1.48668">
        <ele>200.856</ele>
        <time>2020-04-03T16:13:27Z</time>
      </trkpt>
      <trkpt lat="43.54106" lon="1.48657">
        <ele>200.745</ele>
        <time>2020-04-03T16:13:33Z</time>
      </trkpt>
      <trkpt lat="43.54105" lon="1.48648">
        <ele>200.667</ele>
        <time>2020-04-03T16:13:39Z</time>
      </trkpt>
      <trkpt lat="43.54104" lon="1.48639">
        <ele>200.62</ele>
        <time>2020-04-03T16:13:45Z</time>
      </trkpt>
      <trkpt lat="43.54102" lon="1.48633">
        <ele>200.601</ele>
        <time>2020-04-03T16:13:50Z</time>
      </trkpt>
      <trkpt lat="43.54102" lon="1.48627">
        <ele>200.599</ele>
        <time>2020-04-03T16:13:56Z</time>
      </trkpt>
      <trkpt lat="43.54103" lon="1.48615">
        <ele>200.592</ele>
        <time>2020-04-03T16:14:01Z</time>
      </trkpt>
      <trkpt lat="43.54104" lon="1.48603">
        <ele>200.595</ele>
        <time>2020-04-03T16:14:07Z</time>
      </trkpt>
      <trkpt lat="43.54104" lon="1.48597">
        <ele>200.631</ele>
        <time>2020-04-03T16:14:13Z</time>
      </trkpt>
      <trkpt lat="43.54106" lon="1.48588">
        <ele>200.71</ele>
        <time>2020-04-03T16:14:19Z</time>
      </trkpt>
      <trkpt lat="43.54108" lon="1.48576">
        <ele>200.816</ele>
        <time>2020-04-03T16:14:25Z</time>
      </trkpt>
      <trkpt lat="43.54108" lon="1.48567">
        <ele>200.908</ele>
        <time>2020-04-03T16:14:30Z</time>
      </trkpt>
      <trkpt lat="43.54109" lon="1.48561">
        <ele>200.994</ele>
        <time>2020-04-03T16:14:36Z</time>
      </trkpt>
      <trkpt lat="43.54111" lon="1.4855">
        <ele>201.066</ele>
        <time>2020-04-03T16:14:41Z</time>
      </trkpt>
      <trkpt lat="43.54111" lon="1.48545">
        <ele>201.123</ele>
        <time>2020-04-03T16:14:47Z</time>
      </trkpt>
      <trkpt lat="43.54114" lon="1.48539">
        <ele>201.179</ele>
        <time>2020-04-03T16:14:53Z</time>
      </trkpt>
      <trkpt lat="43.54115" lon="1.48525">
        <ele>201.25</ele>
        <time>2020-04-03T16:14:59Z</time>
      </trkpt>
      <trkpt lat="43.54118" lon="1.48515">
        <ele>201.322</ele>
        <time>2020-04-03T16:15:05Z</time>
      </trkpt>
      <trkpt lat="43.5412" lon="1.4851">
        <ele>201.38</ele>
        <time>2020-04-03T16:15:10Z</time>
      </trkpt>
      <trkpt lat="43.54121" lon="1.48503">
        <ele>201.428</ele>
        <time>2020-04-03T16:15:16Z</time>
      </trkpt>
      <trkpt lat="43.54122" lon="1.48496">
        <ele>201.452</ele>
        <time>2020-04-03T16:15:21Z</time>
      </trkpt>
      <trkpt lat="43.54122" lon="1.48492">
        <ele>201.478</ele>
        <time>2020-04-03T16:15:27Z</time>
      </trkpt>
      <trkpt lat="43.54121" lon="1.48491">
        <ele>201.481</ele>
        <time>2020-04-03T16:15:32Z</time>
      </trkpt>
      <trkpt lat="43.54121" lon="1.48487">
        <ele>201.48</ele>
        <time>2020-04-03T16:15:38Z</time>
      </trkpt>
      <trkpt lat="43.54122" lon="1.48478">
        <ele>201.469</ele>
        <time>2020-04-03T16:15:43Z</time>
      </trkpt>
      <trkpt lat="43.54124" lon="1.48466">
        <ele>201.46</ele>
        <time>2020-04-03T16:15:49Z</time>
      </trkpt>
      <trkpt lat="43.54123" lon="1.48459">
        <ele>201.452</ele>
        <time>2020-04-03T16:15:54Z</time>
      </trkpt>
      <trkpt lat="43.54124" lon="1.48457">
        <ele>201.457</ele>
        <time>2020-04-03T16:16:00Z</time>
      </trkpt>
      <trkpt lat="43.54124" lon="1.48458">
        <ele>201.473</ele>
        <time>2020-04-03T16:16:06Z</time>
      </trkpt>
      <trkpt lat="43.54124" lon="1.48457">
        <ele>201.493</ele>
        <time>2020-04-03T16:16:12Z</time>
      </trkpt>
      <trkpt lat="43.54124" lon="1.48457">
        <ele>201.511</ele>
        <time>2020-04-03T16:16:17Z</time>
      </trkpt>
      <trkpt lat="43.54124" lon="1.48457">
        <ele>201.531</ele>
        <time>2020-04-03T16:16:22Z</time>
      </trkpt>
      <trkpt lat="43.54124" lon="1.48457">
        <ele>201.559</ele>
        <time>2020-04-03T16:16:28Z</time>
      </trkpt>
      <trkpt lat="43.54124" lon="1.48457">
        <ele>201.59</ele>
        <time>2020-04-03T16:16:34Z</time>
      </trkpt>
      <trkpt lat="43.54123" lon="1.48457">
        <ele>201.621</ele>
        <time>2020-04-03T16:16:39Z</time>
      </trkpt>
      <trkpt lat="43.54123" lon="1.48457">
        <ele>201.667</ele>
        <time>2020-04-03T16:16:45Z</time>
      </trkpt>
      <trkpt lat="43.54123" lon="1.48457">
        <ele>201.712</ele>
        <time>2020-04-03T16:16:51Z</time>
      </trkpt>
      <trkpt lat="43.54123" lon="1.48457">
        <ele>201.753</ele>
        <time>2020-04-03T16:16:57Z</time>
      </trkpt>
      <trkpt lat="43.54123" lon="1.48457">
        <ele>201.789</ele>
        <time>2020-04-03T16:17:02Z</time>
      </trkpt>
      <trkpt lat="43.54123" lon="1.48457">
        <ele>201.831</ele>
        <time>2020-04-03T16:17:08Z</time>
      </trkpt>
      <trkpt lat="43.54123" lon="1.48457">
        <ele>201.87</ele>
        <time>2020-04-03T16:17:14Z</time>
      </trkpt>
      <trkpt lat="43.54123" lon="1.48457">
        <ele>201.912</ele>
        <time>2020-04-03T16:17:20Z</time>
      </trkpt>
      <trkpt lat="43.54123" lon="1.48458">
        <ele>201.949</ele>
        <time>2020-04-03T16:17:25Z</time>
      </trkpt>
      <trkpt lat="43.54123" lon="1.48458">
        <ele>201.991</ele>
        <time>2020-04-03T16:17:30Z</time>
      </trkpt>
      <trkpt lat="43.54123" lon="1.48458">
        <ele>202.047</ele>
        <time>2020-04-03T16:17:36Z</time>
      </trkpt>
      <trkpt lat="43.54123" lon="1.48457">
        <ele>202.109</ele>
        <time>2020-04-03T16:17:42Z</time>
      </trkpt>
      <trkpt lat="43.54122" lon="1.48457">
        <ele>202.16</ele>
        <time>2020-04-03T16:17:47Z</time>
      </trkpt>
      <trkpt lat="43.54122" lon="1.48457">
        <ele>202.219</ele>
        <time>2020-04-03T16:17:53Z</time>
      </trkpt>
      <trkpt lat="43.54122" lon="1.48457">
        <ele>202.267</ele>
        <time>2020-04-03T16:17:58Z</time>
      </trkpt>
      <trkpt lat="43.54122" lon="1.48457">
        <ele>202.314</ele>
        <time>2020-04-03T16:18:03Z</time>
      </trkpt>
      <trkpt lat="43.54122" lon="1.48457">
        <ele>202.371</ele>
        <time>2020-04-03T16:18:09Z</time>
      </trkpt>
      <trkpt lat="43.54121" lon="1.48456">
        <ele>202.899</ele>
        <time>2020-04-03T16:18:51Z</time>
      </trkpt>
      <trkpt lat="43.54121" lon="1.48456">
        <ele>203.086</ele>
        <time>2020-04-03T16:18:56Z</time>
      </trkpt>
      <trkpt lat="43.54122" lon="1.48449">
        <ele>203.461</ele>
        <time>2020-04-03T16:19:01Z</time>
      </trkpt>
      <trkpt lat="43.54123" lon="1.48443">
        <ele>203.858</ele>
        <time>2020-04-03T16:19:07Z</time>
      </trkpt>
      <trkpt lat="43.54121" lon="1.48436">
        <ele>204.208</ele>
        <time>2020-04-03T16:19:13Z</time>
      </trkpt>
      <trkpt lat="43.54121" lon="1.4843">
        <ele>204.517</ele>
        <time>2020-04-03T16:19:19Z</time>
      </trkpt>
      <trkpt lat="43.54122" lon="1.4842">
        <ele>204.791</ele>
        <time>2020-04-03T16:19:25Z</time>
      </trkpt>
      <trkpt lat="43.54121" lon="1.48414">
        <ele>204.957</ele>
        <time>2020-04-03T16:19:30Z</time>
      </trkpt>
      <trkpt lat="43.5412" lon="1.48408">
        <ele>205.144</ele>
        <time>2020-04-03T16:19:36Z</time>
      </trkpt>
      <trkpt lat="43.54119" lon="1.48403">
        <ele>205.306</ele>
        <time>2020-04-03T16:19:41Z</time>
      </trkpt>
      <trkpt lat="43.54117" lon="1.48396">
        <ele>205.451</ele>
        <time>2020-04-03T16:19:46Z</time>
      </trkpt>
      <trkpt lat="43.54114" lon="1.48386">
        <ele>205.607</ele>
        <time>2020-04-03T16:19:52Z</time>
      </trkpt>
      <trkpt lat="43.54116" lon="1.4838">
        <ele>205.727</ele>
        <time>2020-04-03T16:19:58Z</time>
      </trkpt>
      <trkpt lat="43.54114" lon="1.48373">
        <ele>205.852</ele>
        <time>2020-04-03T16:20:04Z</time>
      </trkpt>
      <trkpt lat="43.54117" lon="1.48368">
        <ele>205.948</ele>
        <time>2020-04-03T16:20:10Z</time>
      </trkpt>
      <trkpt lat="43.54123" lon="1.48357">
        <ele>206.047</ele>
        <time>2020-04-03T16:20:16Z</time>
      </trkpt>
      <trkpt lat="43.54124" lon="1.48358">
        <ele>206.113</ele>
        <time>2020-04-03T16:20:21Z</time>
      </trkpt>
      <trkpt lat="43.54128" lon="1.48354">
        <ele>206.175</ele>
        <time>2020-04-03T16:20:27Z</time>
      </trkpt>
      <trkpt lat="43.54128" lon="1.48349">
        <ele>206.254</ele>
        <time>2020-04-03T16:20:33Z</time>
      </trkpt>
      <trkpt lat="43.54134" lon="1.48349">
        <ele>206.355</ele>
        <time>2020-04-03T16:20:39Z</time>
      </trkpt>
      <trkpt lat="43.54143" lon="1.48342">
        <ele>206.464</ele>
        <time>2020-04-03T16:20:45Z</time>
      </trkpt>
      <trkpt lat="43.5415" lon="1.48339">
        <ele>206.547</ele>
        <time>2020-04-03T16:20:50Z</time>
      </trkpt>
      <trkpt lat="43.5416" lon="1.48337">
        <ele>206.643</ele>
        <time>2020-04-03T16:20:56Z</time>
      </trkpt>
      <trkpt lat="43.54166" lon="1.48333">
        <ele>206.74</ele>
        <time>2020-04-03T16:21:02Z</time>
      </trkpt>
      <trkpt lat="43.54171" lon="1.48327">
        <ele>206.83</ele>
        <time>2020-04-03T16:21:08Z</time>
      </trkpt>
      <trkpt lat="43.54174" lon="1.48322">
        <ele>206.897</ele>
        <time>2020-04-03T16:21:13Z</time>
      </trkpt>
      <trkpt lat="43.54178" lon="1.48317">
        <ele>206.969</ele>
        <time>2020-04-03T16:21:19Z</time>
      </trkpt>
      <trkpt lat="43.54182" lon="1.48314">
        <ele>207.035</ele>
        <time>2020-04-03T16:21:25Z</time>
      </trkpt>
      <trkpt lat="43.54187" lon="1.48313">
        <ele>207.092</ele>
        <time>2020-04-03T16:21:30Z</time>
      </trkpt>
      <trkpt lat="43.54192" lon="1.4831">
        <ele>207.163</ele>
        <time>2020-04-03T16:21:36Z</time>
      </trkpt>
      <trkpt lat="43.54195" lon="1.48304">
        <ele>207.229</ele>
        <time>2020-04-03T16:21:42Z</time>
      </trkpt>
      <trkpt lat="43.54196" lon="1.48295">
        <ele>207.289</ele>
        <time>2020-04-03T16:21:48Z</time>
      </trkpt>
      <trkpt lat="43.542" lon="1.48289">
        <ele>207.346</ele>
        <time>2020-04-03T16:21:53Z</time>
      </trkpt>
      <trkpt lat="43.54206" lon="1.48282">
        <ele>207.412</ele>
        <time>2020-04-03T16:21:59Z</time>
      </trkpt>
      <trkpt lat="43.54212" lon="1.48279">
        <ele>207.48</ele>
        <time>2020-04-03T16:22:05Z</time>
      </trkpt>
      <trkpt lat="43.54218" lon="1.48275">
        <ele>207.54</ele>
        <time>2020-04-03T16:22:10Z</time>
      </trkpt>
      <trkpt lat="43.54225" lon="1.48271">
        <ele>207.609</ele>
        <time>2020-04-03T16:22:16Z</time>
      </trkpt>
      <trkpt lat="43.54228" lon="1.48265">
        <ele>207.664</ele>
        <time>2020-04-03T16:22:21Z</time>
      </trkpt>
      <trkpt lat="43.54232" lon="1.48259">
        <ele>207.721</ele>
        <time>2020-04-03T16:22:26Z</time>
      </trkpt>
      <trkpt lat="43.54236" lon="1.48254">
        <ele>207.779</ele>
        <time>2020-04-03T16:22:31Z</time>
      </trkpt>
      <trkpt lat="43.54242" lon="1.48249">
        <ele>207.844</ele>
        <time>2020-04-03T16:22:37Z</time>
      </trkpt>
      <trkpt lat="43.54247" lon="1.48244">
        <ele>207.9</ele>
        <time>2020-04-03T16:22:43Z</time>
      </trkpt>
      <trkpt lat="43.54253" lon="1.48239">
        <ele>207.955</ele>
        <time>2020-04-03T16:22:49Z</time>
      </trkpt>
      <trkpt lat="43.54257" lon="1.48235">
        <ele>208.005</ele>
        <time>2020-04-03T16:22:55Z</time>
      </trkpt>
      <trkpt lat="43.54261" lon="1.4823">
        <ele>208.054</ele>
        <time>2020-04-03T16:23:01Z</time>
      </trkpt>
      <trkpt lat="43.54266" lon="1.48225">
        <ele>208.104</ele>
        <time>2020-04-03T16:23:07Z</time>
      </trkpt>
      <trkpt lat="43.5427" lon="1.48219">
        <ele>208.156</ele>
        <time>2020-04-03T16:23:13Z</time>
      </trkpt>
      <trkpt lat="43.54274" lon="1.48214">
        <ele>208.196</ele>
        <time>2020-04-03T16:23:18Z</time>
      </trkpt>
      <trkpt lat="43.5428" lon="1.48212">
        <ele>208.238</ele>
        <time>2020-04-03T16:23:23Z</time>
      </trkpt>
      <trkpt lat="43.54286" lon="1.48206">
        <ele>208.287</ele>
        <time>2020-04-03T16:23:29Z</time>
      </trkpt>
      <trkpt lat="43.54292" lon="1.48203">
        <ele>208.332</ele>
        <time>2020-04-03T16:23:34Z</time>
      </trkpt>
      <trkpt lat="43.54298" lon="1.48199">
        <ele>208.387</ele>
        <time>2020-04-03T16:23:40Z</time>
      </trkpt>
      <trkpt lat="43.54303" lon="1.48193">
        <ele>208.437</ele>
        <time>2020-04-03T16:23:46Z</time>
      </trkpt>
      <trkpt lat="43.54309" lon="1.4819">
        <ele>208.483</ele>
        <time>2020-04-03T16:23:52Z</time>
      </trkpt>
      <trkpt lat="43.5431" lon="1.48189">
        <ele>208.491</ele>
        <time>2020-04-03T16:23:57Z</time>
      </trkpt>
      <trkpt lat="43.54312" lon="1.48184">
        <ele>208.512</ele>
        <time>2020-04-03T16:24:03Z</time>
      </trkpt>
      <trkpt lat="43.54315" lon="1.4818">
        <ele>208.535</ele>
        <time>2020-04-03T16:24:09Z</time>
      </trkpt>
      <trkpt lat="43.54318" lon="1.48175">
        <ele>208.558</ele>
        <time>2020-04-03T16:24:14Z</time>
      </trkpt>
      <trkpt lat="43.54324" lon="1.4817">
        <ele>208.586</ele>
        <time>2020-04-03T16:24:20Z</time>
      </trkpt>
      <trkpt lat="43.54331" lon="1.48165">
        <ele>208.614</ele>
        <time>2020-04-03T16:24:26Z</time>
      </trkpt>
      <trkpt lat="43.54337" lon="1.48161">
        <ele>208.64</ele>
        <time>2020-04-03T16:24:32Z</time>
      </trkpt>
      <trkpt lat="43.54342" lon="1.48158">
        <ele>208.66</ele>
        <time>2020-04-03T16:24:37Z</time>
      </trkpt>
      <trkpt lat="43.54347" lon="1.48156">
        <ele>208.681</ele>
        <time>2020-04-03T16:24:42Z</time>
      </trkpt>
      <trkpt lat="43.54354" lon="1.48154">
        <ele>208.711</ele>
        <time>2020-04-03T16:24:48Z</time>
      </trkpt>
      <trkpt lat="43.54361" lon="1.48152">
        <ele>208.744</ele>
        <time>2020-04-03T16:24:54Z</time>
      </trkpt>
      <trkpt lat="43.54366" lon="1.48152">
        <ele>208.774</ele>
        <time>2020-04-03T16:25:00Z</time>
      </trkpt>
      <trkpt lat="43.54372" lon="1.4815">
        <ele>208.798</ele>
        <time>2020-04-03T16:25:05Z</time>
      </trkpt>
      <trkpt lat="43.54377" lon="1.48151">
        <ele>208.821</ele>
        <time>2020-04-03T16:25:10Z</time>
      </trkpt>
      <trkpt lat="43.54382" lon="1.48153">
        <ele>208.852</ele>
        <time>2020-04-03T16:25:16Z</time>
      </trkpt>
      <trkpt lat="43.54387" lon="1.48156">
        <ele>208.879</ele>
        <time>2020-04-03T16:25:21Z</time>
      </trkpt>
      <trkpt lat="43.54392" lon="1.48159">
        <ele>208.91</ele>
        <time>2020-04-03T16:25:27Z</time>
      </trkpt>
      <trkpt lat="43.54396" lon="1.48162">
        <ele>208.931</ele>
        <time>2020-04-03T16:25:32Z</time>
      </trkpt>
      <trkpt lat="43.54402" lon="1.48165">
        <ele>208.952</ele>
        <time>2020-04-03T16:25:38Z</time>
      </trkpt>
      <trkpt lat="43.54409" lon="1.48169">
        <ele>208.976</ele>
        <time>2020-04-03T16:25:44Z</time>
      </trkpt>
      <trkpt lat="43.54415" lon="1.48173">
        <ele>208.997</ele>
        <time>2020-04-03T16:25:49Z</time>
      </trkpt>
      <trkpt lat="43.5442" lon="1.48175">
        <ele>209.02</ele>
        <time>2020-04-03T16:25:55Z</time>
      </trkpt>
      <trkpt lat="43.54425" lon="1.48178">
        <ele>209.042</ele>
        <time>2020-04-03T16:26:01Z</time>
      </trkpt>
      <trkpt lat="43.54429" lon="1.4818">
        <ele>209.057</ele>
        <time>2020-04-03T16:26:06Z</time>
      </trkpt>
      <trkpt lat="43.54433" lon="1.48185">
        <ele>209.076</ele>
        <time>2020-04-03T16:26:12Z</time>
      </trkpt>
      <trkpt lat="43.54441" lon="1.48189">
        <ele>209.092</ele>
        <time>2020-04-03T16:26:18Z</time>
      </trkpt>
      <trkpt lat="43.54447" lon="1.48192">
        <ele>209.106</ele>
        <time>2020-04-03T16:26:23Z</time>
      </trkpt>
      <trkpt lat="43.54452" lon="1.48195">
        <ele>209.124</ele>
        <time>2020-04-03T16:26:29Z</time>
      </trkpt>
      <trkpt lat="43.54456" lon="1.48197">
        <ele>209.136</ele>
        <time>2020-04-03T16:26:34Z</time>
      </trkpt>
      <trkpt lat="43.54463" lon="1.482">
        <ele>209.149</ele>
        <time>2020-04-03T16:26:40Z</time>
      </trkpt>
      <trkpt lat="43.54469" lon="1.48205">
        <ele>209.155</ele>
        <time>2020-04-03T16:26:46Z</time>
      </trkpt>
      <trkpt lat="43.54475" lon="1.48207">
        <ele>209.155</ele>
        <time>2020-04-03T16:26:51Z</time>
      </trkpt>
      <trkpt lat="43.54481" lon="1.4821">
        <ele>209.149</ele>
        <time>2020-04-03T16:26:57Z</time>
      </trkpt>
      <trkpt lat="43.54487" lon="1.48205">
        <ele>209.144</ele>
        <time>2020-04-03T16:27:03Z</time>
      </trkpt>
      <trkpt lat="43.5449" lon="1.48199">
        <ele>209.143</ele>
        <time>2020-04-03T16:27:08Z</time>
      </trkpt>
      <trkpt lat="43.54492" lon="1.48191">
        <ele>209.148</ele>
        <time>2020-04-03T16:27:14Z</time>
      </trkpt>
      <trkpt lat="43.54496" lon="1.48184">
        <ele>209.17</ele>
        <time>2020-04-03T16:27:20Z</time>
      </trkpt>
      <trkpt lat="43.54502" lon="1.4818">
        <ele>209.201</ele>
        <time>2020-04-03T16:27:26Z</time>
      </trkpt>
      <trkpt lat="43.54508" lon="1.48179">
        <ele>209.23</ele>
        <time>2020-04-03T16:27:31Z</time>
      </trkpt>
      <trkpt lat="43.54517" lon="1.48177">
        <ele>209.264</ele>
        <time>2020-04-03T16:27:37Z</time>
      </trkpt>
      <trkpt lat="43.54523" lon="1.48175">
        <ele>209.296</ele>
        <time>2020-04-03T16:27:43Z</time>
      </trkpt>
      <trkpt lat="43.54528" lon="1.48171">
        <ele>209.324</ele>
        <time>2020-04-03T16:27:49Z</time>
      </trkpt>
      <trkpt lat="43.54535" lon="1.48169">
        <ele>209.35</ele>
        <time>2020-04-03T16:27:55Z</time>
      </trkpt>
      <trkpt lat="43.54541" lon="1.48167">
        <ele>209.371</ele>
        <time>2020-04-03T16:28:00Z</time>
      </trkpt>
      <trkpt lat="43.54545" lon="1.48165">
        <ele>209.392</ele>
        <time>2020-04-03T16:28:05Z</time>
      </trkpt>
      <trkpt lat="43.54551" lon="1.48163">
        <ele>209.411</ele>
        <time>2020-04-03T16:28:10Z</time>
      </trkpt>
      <trkpt lat="43.54557" lon="1.4816">
        <ele>209.432</ele>
        <time>2020-04-03T16:28:16Z</time>
      </trkpt>
      <trkpt lat="43.54563" lon="1.48159">
        <ele>209.452</ele>
        <time>2020-04-03T16:28:22Z</time>
      </trkpt>
      <trkpt lat="43.54568" lon="1.48157">
        <ele>209.468</ele>
        <time>2020-04-03T16:28:27Z</time>
      </trkpt>
      <trkpt lat="43.54576" lon="1.48153">
        <ele>209.486</ele>
        <time>2020-04-03T16:28:33Z</time>
      </trkpt>
      <trkpt lat="43.54579" lon="1.4815">
        <ele>209.505</ele>
        <time>2020-04-03T16:28:39Z</time>
      </trkpt>
      <trkpt lat="43.54585" lon="1.48148">
        <ele>209.527</ele>
        <time>2020-04-03T16:28:45Z</time>
      </trkpt>
      <trkpt lat="43.54589" lon="1.48146">
        <ele>209.542</ele>
        <time>2020-04-03T16:28:50Z</time>
      </trkpt>
      <trkpt lat="43.54596" lon="1.48143">
        <ele>209.558</ele>
        <time>2020-04-03T16:28:56Z</time>
      </trkpt>
      <trkpt lat="43.54601" lon="1.4814">
        <ele>209.579</ele>
        <time>2020-04-03T16:29:02Z</time>
      </trkpt>
      <trkpt lat="43.54607" lon="1.48138">
        <ele>209.597</ele>
        <time>2020-04-03T16:29:07Z</time>
      </trkpt>
      <trkpt lat="43.54615" lon="1.48135">
        <ele>209.613</ele>
        <time>2020-04-03T16:29:13Z</time>
      </trkpt>
      <trkpt lat="43.54622" lon="1.48135">
        <ele>209.619</ele>
        <time>2020-04-03T16:29:19Z</time>
      </trkpt>
      <trkpt lat="43.54629" lon="1.48136">
        <ele>209.62</ele>
        <time>2020-04-03T16:29:24Z</time>
      </trkpt>
      <trkpt lat="43.54633" lon="1.48132">
        <ele>209.62</ele>
        <time>2020-04-03T16:29:30Z</time>
      </trkpt>
      <trkpt lat="43.54639" lon="1.4813">
        <ele>209.619</ele>
        <time>2020-04-03T16:29:35Z</time>
      </trkpt>
      <trkpt lat="43.54645" lon="1.48127">
        <ele>209.613</ele>
        <time>2020-04-03T16:29:41Z</time>
      </trkpt>
      <trkpt lat="43.5465" lon="1.48125">
        <ele>209.601</ele>
        <time>2020-04-03T16:29:47Z</time>
      </trkpt>
      <trkpt lat="43.54655" lon="1.48122">
        <ele>209.587</ele>
        <time>2020-04-03T16:29:53Z</time>
      </trkpt>
      <trkpt lat="43.5466" lon="1.48116">
        <ele>209.577</ele>
        <time>2020-04-03T16:29:58Z</time>
      </trkpt>
      <trkpt lat="43.54665" lon="1.48114">
        <ele>209.574</ele>
        <time>2020-04-03T16:30:04Z</time>
      </trkpt>
      <trkpt lat="43.54673" lon="1.48109">
        <ele>209.582</ele>
        <time>2020-04-03T16:30:10Z</time>
      </trkpt>
      <trkpt lat="43.54678" lon="1.48108">
        <ele>209.591</ele>
        <time>2020-04-03T16:30:15Z</time>
      </trkpt>
      <trkpt lat="43.54685" lon="1.48104">
        <ele>209.601</ele>
        <time>2020-04-03T16:30:21Z</time>
      </trkpt>
      <trkpt lat="43.54687" lon="1.48101">
        <ele>209.607</ele>
        <time>2020-04-03T16:30:26Z</time>
      </trkpt>
      <trkpt lat="43.5469" lon="1.481">
        <ele>209.612</ele>
        <time>2020-04-03T16:30:31Z</time>
      </trkpt>
      <trkpt lat="43.54696" lon="1.48098">
        <ele>209.621</ele>
        <time>2020-04-03T16:30:37Z</time>
      </trkpt>
      <trkpt lat="43.54701" lon="1.48094">
        <ele>209.629</ele>
        <time>2020-04-03T16:30:42Z</time>
      </trkpt>
      <trkpt lat="43.5471" lon="1.48091">
        <ele>209.641</ele>
        <time>2020-04-03T16:30:48Z</time>
      </trkpt>
      <trkpt lat="43.54716" lon="1.48088">
        <ele>209.655</ele>
        <time>2020-04-03T16:30:54Z</time>
      </trkpt>
      <trkpt lat="43.54717" lon="1.48086">
        <ele>209.667</ele>
        <time>2020-04-03T16:31:00Z</time>
      </trkpt>
      <trkpt lat="43.54723" lon="1.48089">
        <ele>209.68</ele>
        <time>2020-04-03T16:31:06Z</time>
      </trkpt>
      <trkpt lat="43.5473" lon="1.4809">
        <ele>209.688</ele>
        <time>2020-04-03T16:31:12Z</time>
      </trkpt>
      <trkpt lat="43.54734" lon="1.48086">
        <ele>209.694</ele>
        <time>2020-04-03T16:31:18Z</time>
      </trkpt>
      <trkpt lat="43.5474" lon="1.48085">
        <ele>209.697</ele>
        <time>2020-04-03T16:31:24Z</time>
      </trkpt>
      <trkpt lat="43.54748" lon="1.48083">
        <ele>209.699</ele>
        <time>2020-04-03T16:31:30Z</time>
      </trkpt>
      <trkpt lat="43.54754" lon="1.48083">
        <ele>209.701</ele>
        <time>2020-04-03T16:31:35Z</time>
      </trkpt>
      <trkpt lat="43.54761" lon="1.48082">
        <ele>209.704</ele>
        <time>2020-04-03T16:31:41Z</time>
      </trkpt>
      <trkpt lat="43.54768" lon="1.48082">
        <ele>209.714</ele>
        <time>2020-04-03T16:31:47Z</time>
      </trkpt>
      <trkpt lat="43.54774" lon="1.48082">
        <ele>209.739</ele>
        <time>2020-04-03T16:31:53Z</time>
      </trkpt>
      <trkpt lat="43.54781" lon="1.48084">
        <ele>209.773</ele>
        <time>2020-04-03T16:31:59Z</time>
      </trkpt>
      <trkpt lat="43.54786" lon="1.48087">
        <ele>209.799</ele>
        <time>2020-04-03T16:32:04Z</time>
      </trkpt>
      <trkpt lat="43.5479" lon="1.48091">
        <ele>209.821</ele>
        <time>2020-04-03T16:32:09Z</time>
      </trkpt>
      <trkpt lat="43.54796" lon="1.48095">
        <ele>209.849</ele>
        <time>2020-04-03T16:32:15Z</time>
      </trkpt>
      <trkpt lat="43.548" lon="1.48096">
        <ele>209.866</ele>
        <time>2020-04-03T16:32:20Z</time>
      </trkpt>
      <trkpt lat="43.54805" lon="1.48094">
        <ele>209.873</ele>
        <time>2020-04-03T16:32:25Z</time>
      </trkpt>
      <trkpt lat="43.54808" lon="1.48086">
        <ele>209.876</ele>
        <time>2020-04-03T16:32:31Z</time>
      </trkpt>
      <trkpt lat="43.54806" lon="1.4808">
        <ele>209.881</ele>
        <time>2020-04-03T16:32:36Z</time>
      </trkpt>
      <trkpt lat="43.54804" lon="1.48073">
        <ele>209.894</ele>
        <time>2020-04-03T16:32:42Z</time>
      </trkpt>
      <trkpt lat="43.54803" lon="1.48072">
        <ele>209.902</ele>
        <time>2020-04-03T16:32:47Z</time>
      </trkpt>
      <trkpt lat="43.54803" lon="1.48072">
        <ele>209.904</ele>
        <time>2020-04-03T16:32:52Z</time>
      </trkpt>
      <trkpt lat="43.54803" lon="1.48068">
        <ele>209.929</ele>
        <time>2020-04-03T16:32:58Z</time>
      </trkpt>
      <trkpt lat="43.54802" lon="1.48059">
        <ele>209.959</ele>
        <time>2020-04-03T16:33:04Z</time>
      </trkpt>
      <trkpt lat="43.548" lon="1.48051">
        <ele>209.99</ele>
        <time>2020-04-03T16:33:10Z</time>
      </trkpt>
      <trkpt lat="43.54798" lon="1.48044">
        <ele>210.017</ele>
        <time>2020-04-03T16:33:15Z</time>
      </trkpt>
      <trkpt lat="43.54794" lon="1.48036">
        <ele>210.049</ele>
        <time>2020-04-03T16:33:21Z</time>
      </trkpt>
      <trkpt lat="43.54791" lon="1.48029">
        <ele>210.079</ele>
        <time>2020-04-03T16:33:27Z</time>
      </trkpt>
      <trkpt lat="43.5479" lon="1.48021">
        <ele>210.11</ele>
        <time>2020-04-03T16:33:33Z</time>
      </trkpt>
      <trkpt lat="43.54786" lon="1.48015">
        <ele>210.141</ele>
        <time>2020-04-03T16:33:38Z</time>
      </trkpt>
      <trkpt lat="43.54782" lon="1.48009">
        <ele>210.176</ele>
        <time>2020-04-03T16:33:43Z</time>
      </trkpt>
      <trkpt lat="43.5478" lon="1.48001">
        <ele>210.219</ele>
        <time>2020-04-03T16:33:49Z</time>
      </trkpt>
      <trkpt lat="43.54779" lon="1.47993">
        <ele>210.252</ele>
        <time>2020-04-03T16:33:54Z</time>
      </trkpt>
      <trkpt lat="43.54776" lon="1.47986">
        <ele>210.285</ele>
        <time>2020-04-03T16:33:59Z</time>
      </trkpt>
      <trkpt lat="43.54774" lon="1.47979">
        <ele>210.323</ele>
        <time>2020-04-03T16:34:05Z</time>
      </trkpt>
      <trkpt lat="43.54771" lon="1.47971">
        <ele>210.351</ele>
        <time>2020-04-03T16:34:10Z</time>
      </trkpt>
      <trkpt lat="43.54769" lon="1.47966">
        <ele>210.374</ele>
        <time>2020-04-03T16:34:15Z</time>
      </trkpt>
      <trkpt lat="43.54766" lon="1.47961">
        <ele>210.382</ele>
        <time>2020-04-03T16:34:21Z</time>
      </trkpt>
      <trkpt lat="43.54762" lon="1.47951">
        <ele>210.377</ele>
        <time>2020-04-03T16:34:27Z</time>
      </trkpt>
      <trkpt lat="43.54759" lon="1.47942">
        <ele>210.368</ele>
        <time>2020-04-03T16:34:32Z</time>
      </trkpt>
      <trkpt lat="43.54758" lon="1.47935">
        <ele>210.356</ele>
        <time>2020-04-03T16:34:37Z</time>
      </trkpt>
      <trkpt lat="43.54755" lon="1.47926">
        <ele>210.345</ele>
        <time>2020-04-03T16:34:43Z</time>
      </trkpt>
      <trkpt lat="43.54753" lon="1.4792">
        <ele>210.334</ele>
        <time>2020-04-03T16:34:48Z</time>
      </trkpt>
      <trkpt lat="43.54751" lon="1.47912">
        <ele>210.319</ele>
        <time>2020-04-03T16:34:54Z</time>
      </trkpt>
      <trkpt lat="43.54748" lon="1.47904">
        <ele>210.308</ele>
        <time>2020-04-03T16:34:59Z</time>
      </trkpt>
      <trkpt lat="43.54748" lon="1.47898">
        <ele>210.297</ele>
        <time>2020-04-03T16:35:05Z</time>
      </trkpt>
      <trkpt lat="43.54751" lon="1.4789">
        <ele>210.291</ele>
        <time>2020-04-03T16:35:11Z</time>
      </trkpt>
      <trkpt lat="43.54755" lon="1.47883">
        <ele>210.291</ele>
        <time>2020-04-03T16:35:17Z</time>
      </trkpt>
      <trkpt lat="43.54758" lon="1.47878">
        <ele>210.286</ele>
        <time>2020-04-03T16:35:23Z</time>
      </trkpt>
      <trkpt lat="43.5476" lon="1.47873">
        <ele>210.279</ele>
        <time>2020-04-03T16:35:29Z</time>
      </trkpt>
      <trkpt lat="43.54762" lon="1.47863">
        <ele>210.272</ele>
        <time>2020-04-03T16:35:35Z</time>
      </trkpt>
      <trkpt lat="43.54764" lon="1.47857">
        <ele>210.269</ele>
        <time>2020-04-03T16:35:40Z</time>
      </trkpt>
      <trkpt lat="43.54769" lon="1.47847">
        <ele>210.272</ele>
        <time>2020-04-03T16:35:46Z</time>
      </trkpt>
      <trkpt lat="43.54771" lon="1.47842">
        <ele>210.277</ele>
        <time>2020-04-03T16:35:52Z</time>
      </trkpt>
      <trkpt lat="43.54776" lon="1.47835">
        <ele>210.283</ele>
        <time>2020-04-03T16:35:57Z</time>
      </trkpt>
      <trkpt lat="43.54782" lon="1.4783">
        <ele>210.291</ele>
        <time>2020-04-03T16:36:03Z</time>
      </trkpt>
      <trkpt lat="43.54786" lon="1.47824">
        <ele>210.299</ele>
        <time>2020-04-03T16:36:08Z</time>
      </trkpt>
      <trkpt lat="43.54788" lon="1.4782">
        <ele>210.305</ele>
        <time>2020-04-03T16:36:13Z</time>
      </trkpt>
      <trkpt lat="43.5479" lon="1.47813">
        <ele>210.312</ele>
        <time>2020-04-03T16:36:19Z</time>
      </trkpt>
      <trkpt lat="43.54794" lon="1.47807">
        <ele>210.32</ele>
        <time>2020-04-03T16:36:24Z</time>
      </trkpt>
      <trkpt lat="43.54799" lon="1.47803">
        <ele>210.326</ele>
        <time>2020-04-03T16:36:30Z</time>
      </trkpt>
      <trkpt lat="43.54805" lon="1.47799">
        <ele>210.332</ele>
        <time>2020-04-03T16:36:35Z</time>
      </trkpt>
      <trkpt lat="43.5481" lon="1.47798">
        <ele>210.336</ele>
        <time>2020-04-03T16:36:40Z</time>
      </trkpt>
      <trkpt lat="43.54817" lon="1.47792">
        <ele>210.345</ele>
        <time>2020-04-03T16:36:46Z</time>
      </trkpt>
      <trkpt lat="43.54823" lon="1.47788">
        <ele>210.343</ele>
        <time>2020-04-03T16:36:51Z</time>
      </trkpt>
      <trkpt lat="43.54829" lon="1.47786">
        <ele>210.343</ele>
        <time>2020-04-03T16:36:57Z</time>
      </trkpt>
      <trkpt lat="43.54835" lon="1.47784">
        <ele>210.342</ele>
        <time>2020-04-03T16:37:03Z</time>
      </trkpt>
      <trkpt lat="43.54837" lon="1.47783">
        <ele>210.338</ele>
        <time>2020-04-03T16:37:09Z</time>
      </trkpt>
      <trkpt lat="43.54837" lon="1.47783">
        <ele>210.334</ele>
        <time>2020-04-03T16:37:14Z</time>
      </trkpt>
      <trkpt lat="43.54837" lon="1.47783">
        <ele>210.331</ele>
        <time>2020-04-03T16:37:20Z</time>
      </trkpt>
      <trkpt lat="43.54837" lon="1.47783">
        <ele>210.327</ele>
        <time>2020-04-03T16:37:26Z</time>
      </trkpt>
      <trkpt lat="43.54842" lon="1.47782">
        <ele>210.298</ele>
        <time>2020-04-03T16:37:31Z</time>
      </trkpt>
      <trkpt lat="43.54848" lon="1.47777">
        <ele>210.274</ele>
        <time>2020-04-03T16:37:37Z</time>
      </trkpt>
      <trkpt lat="43.54853" lon="1.47771">
        <ele>210.25</ele>
        <time>2020-04-03T16:37:43Z</time>
      </trkpt>
      <trkpt lat="43.54855" lon="1.47769">
        <ele>210.241</ele>
        <time>2020-04-03T16:37:48Z</time>
      </trkpt>
      <trkpt lat="43.54856" lon="1.47769">
        <ele>210.223</ele>
        <time>2020-04-03T16:37:54Z</time>
      </trkpt>
      <trkpt lat="43.5486" lon="1.47765">
        <ele>210.184</ele>
        <time>2020-04-03T16:38:00Z</time>
      </trkpt>
      <trkpt lat="43.54866" lon="1.47764">
        <ele>210.163</ele>
        <time>2020-04-03T16:38:06Z</time>
      </trkpt>
      <trkpt lat="43.54872" lon="1.47759">
        <ele>210.153</ele>
        <time>2020-04-03T16:38:11Z</time>
      </trkpt>
      <trkpt lat="43.54877" lon="1.47757">
        <ele>210.145</ele>
        <time>2020-04-03T16:38:17Z</time>
      </trkpt>
      <trkpt lat="43.5488" lon="1.47756">
        <ele>210.139</ele>
        <time>2020-04-03T16:38:22Z</time>
      </trkpt>
      <trkpt lat="43.54886" lon="1.47752">
        <ele>210.134</ele>
        <time>2020-04-03T16:38:28Z</time>
      </trkpt>
      <trkpt lat="43.54892" lon="1.47747">
        <ele>210.129</ele>
        <time>2020-04-03T16:38:34Z</time>
      </trkpt>
      <trkpt lat="43.54901" lon="1.47744">
        <ele>210.132</ele>
        <time>2020-04-03T16:38:40Z</time>
      </trkpt>
      <trkpt lat="43.54903" lon="1.47743">
        <ele>210.139</ele>
        <time>2020-04-03T16:38:46Z</time>
      </trkpt>
      <trkpt lat="43.5491" lon="1.4774">
        <ele>210.146</ele>
        <time>2020-04-03T16:38:52Z</time>
      </trkpt>
      <trkpt lat="43.54913" lon="1.47737">
        <ele>210.149</ele>
        <time>2020-04-03T16:38:57Z</time>
      </trkpt>
      <trkpt lat="43.54919" lon="1.47733">
        <ele>210.154</ele>
        <time>2020-04-03T16:39:02Z</time>
      </trkpt>
      <trkpt lat="43.54927" lon="1.47729">
        <ele>210.17</ele>
        <time>2020-04-03T16:39:08Z</time>
      </trkpt>
      <trkpt lat="43.54933" lon="1.47727">
        <ele>210.192</ele>
        <time>2020-04-03T16:39:14Z</time>
      </trkpt>
      <trkpt lat="43.5494" lon="1.4772">
        <ele>210.212</ele>
        <time>2020-04-03T16:39:20Z</time>
      </trkpt>
      <trkpt lat="43.54944" lon="1.47716">
        <ele>210.229</ele>
        <time>2020-04-03T16:39:26Z</time>
      </trkpt>
      <trkpt lat="43.54951" lon="1.47712">
        <ele>210.248</ele>
        <time>2020-04-03T16:39:32Z</time>
      </trkpt>
      <trkpt lat="43.54957" lon="1.47709">
        <ele>210.267</ele>
        <time>2020-04-03T16:39:38Z</time>
      </trkpt>
      <trkpt lat="43.54961" lon="1.47707">
        <ele>210.282</ele>
        <time>2020-04-03T16:39:43Z</time>
      </trkpt>
      <trkpt lat="43.54967" lon="1.47703">
        <ele>210.299</ele>
        <time>2020-04-03T16:39:49Z</time>
      </trkpt>
      <trkpt lat="43.54972" lon="1.47701">
        <ele>210.314</ele>
        <time>2020-04-03T16:39:54Z</time>
      </trkpt>
      <trkpt lat="43.54978" lon="1.47697">
        <ele>210.336</ele>
        <time>2020-04-03T16:40:00Z</time>
      </trkpt>
      <trkpt lat="43.54984" lon="1.47695">
        <ele>210.357</ele>
        <time>2020-04-03T16:40:05Z</time>
      </trkpt>
      <trkpt lat="43.54989" lon="1.47693">
        <ele>210.376</ele>
        <time>2020-04-03T16:40:10Z</time>
      </trkpt>
      <trkpt lat="43.54995" lon="1.47688">
        <ele>210.396</ele>
        <time>2020-04-03T16:40:16Z</time>
      </trkpt>
      <trkpt lat="43.55" lon="1.47685">
        <ele>210.419</ele>
        <time>2020-04-03T16:40:22Z</time>
      </trkpt>
      <trkpt lat="43.55007" lon="1.47682">
        <ele>210.442</ele>
        <time>2020-04-03T16:40:27Z</time>
      </trkpt>
      <trkpt lat="43.55013" lon="1.47677">
        <ele>210.471</ele>
        <time>2020-04-03T16:40:33Z</time>
      </trkpt>
      <trkpt lat="43.5502" lon="1.47674">
        <ele>210.492</ele>
        <time>2020-04-03T16:40:39Z</time>
      </trkpt>
      <trkpt lat="43.55026" lon="1.47672">
        <ele>210.512</ele>
        <time>2020-04-03T16:40:44Z</time>
      </trkpt>
      <trkpt lat="43.5503" lon="1.4767">
        <ele>210.533</ele>
        <time>2020-04-03T16:40:50Z</time>
      </trkpt>
      <trkpt lat="43.55035" lon="1.47672">
        <ele>210.547</ele>
        <time>2020-04-03T16:40:56Z</time>
      </trkpt>
      <trkpt lat="43.55037" lon="1.47674">
        <ele>210.56</ele>
        <time>2020-04-03T16:41:02Z</time>
      </trkpt>
      <trkpt lat="43.55037" lon="1.47674">
        <ele>210.56</ele>
        <time>2020-04-03T16:41:07Z</time>
      </trkpt>
      <trkpt lat="43.55037" lon="1.47674">
        <ele>210.56</ele>
        <time>2020-04-03T16:41:12Z</time>
      </trkpt>
    </trkseg>
  </trk>
  <trk>
    <name><![CDATA[2 avril]]></name>
    <trkseg>
      <trkpt lat="43.55054" lon="1.47654">
        <ele>207.429</ele>
        <time>2020-04-02T15:51:41Z</time>
      </trkpt>
      <trkpt lat="43.5506" lon="1.47651">
        <ele>205.22</ele>
        <time>2020-04-02T15:51:46Z</time>
      </trkpt>
      <trkpt lat="43.55066" lon="1.47645">
        <ele>202.94</ele>
        <time>2020-04-02T15:51:52Z</time>
      </trkpt>
      <trkpt lat="43.5507" lon="1.47639">
        <ele>202.869</ele>
        <time>2020-04-02T15:51:57Z</time>
      </trkpt>
      <trkpt lat="43.55076" lon="1.47632">
        <ele>204.191</ele>
        <time>2020-04-02T15:52:03Z</time>
      </trkpt>
      <trkpt lat="43.55081" lon="1.47627">
        <ele>204.647</ele>
        <time>2020-04-02T15:52:09Z</time>
      </trkpt>
      <trkpt lat="43.55088" lon="1.4762">
        <ele>204.699</ele>
        <time>2020-04-02T15:52:15Z</time>
      </trkpt>
      <trkpt lat="43.55092" lon="1.47616">
        <ele>204.75</ele>
        <time>2020-04-02T15:52:20Z</time>
      </trkpt>
      <trkpt lat="43.55097" lon="1.4761">
        <ele>204.788</ele>
        <time>2020-04-02T15:52:26Z</time>
      </trkpt>
      <trkpt lat="43.55103" lon="1.47604">
        <ele>204.784</ele>
        <time>2020-04-02T15:52:32Z</time>
      </trkpt>
      <trkpt lat="43.55109" lon="1.47598">
        <ele>204.75</ele>
        <time>2020-04-02T15:52:38Z</time>
      </trkpt>
      <trkpt lat="43.55113" lon="1.47593">
        <ele>204.713</ele>
        <time>2020-04-02T15:52:43Z</time>
      </trkpt>
      <trkpt lat="43.55118" lon="1.47589">
        <ele>204.663</ele>
        <time>2020-04-02T15:52:49Z</time>
      </trkpt>
      <trkpt lat="43.55125" lon="1.47583">
        <ele>204.59</ele>
        <time>2020-04-02T15:52:55Z</time>
      </trkpt>
      <trkpt lat="43.55131" lon="1.47579">
        <ele>204.511</ele>
        <time>2020-04-02T15:53:00Z</time>
      </trkpt>
      <trkpt lat="43.55135" lon="1.47576">
        <ele>204.422</ele>
        <time>2020-04-02T15:53:05Z</time>
      </trkpt>
      <trkpt lat="43.55142" lon="1.4757">
        <ele>204.307</ele>
        <time>2020-04-02T15:53:11Z</time>
      </trkpt>
      <trkpt lat="43.55148" lon="1.47565">
        <ele>204.2</ele>
        <time>2020-04-02T15:53:16Z</time>
      </trkpt>
      <trkpt lat="43.55153" lon="1.47559">
        <ele>204.08</ele>
        <time>2020-04-02T15:53:21Z</time>
      </trkpt>
      <trkpt lat="43.5516" lon="1.47551">
        <ele>203.933</ele>
        <time>2020-04-02T15:53:27Z</time>
      </trkpt>
      <trkpt lat="43.55164" lon="1.47545">
        <ele>203.822</ele>
        <time>2020-04-02T15:53:32Z</time>
      </trkpt>
      <trkpt lat="43.55168" lon="1.4754">
        <ele>203.696</ele>
        <time>2020-04-02T15:53:38Z</time>
      </trkpt>
      <trkpt lat="43.55173" lon="1.47534">
        <ele>203.609</ele>
        <time>2020-04-02T15:53:43Z</time>
      </trkpt>
      <trkpt lat="43.55179" lon="1.47529">
        <ele>203.545</ele>
        <time>2020-04-02T15:53:48Z</time>
      </trkpt>
      <trkpt lat="43.55184" lon="1.47523">
        <ele>203.49</ele>
        <time>2020-04-02T15:53:53Z</time>
      </trkpt>
      <trkpt lat="43.55191" lon="1.47515">
        <ele>203.475</ele>
        <time>2020-04-02T15:53:59Z</time>
      </trkpt>
      <trkpt lat="43.55194" lon="1.47506">
        <ele>203.514</ele>
        <time>2020-04-02T15:54:05Z</time>
      </trkpt>
      <trkpt lat="43.55196" lon="1.47498">
        <ele>203.548</ele>
        <time>2020-04-02T15:54:10Z</time>
      </trkpt>
      <trkpt lat="43.55203" lon="1.47493">
        <ele>203.592</ele>
        <time>2020-04-02T15:54:16Z</time>
      </trkpt>
      <trkpt lat="43.55209" lon="1.47484">
        <ele>203.628</ele>
        <time>2020-04-02T15:54:22Z</time>
      </trkpt>
      <trkpt lat="43.55214" lon="1.47477">
        <ele>203.653</ele>
        <time>2020-04-02T15:54:28Z</time>
      </trkpt>
      <trkpt lat="43.55216" lon="1.47468">
        <ele>203.685</ele>
        <time>2020-04-02T15:54:34Z</time>
      </trkpt>
      <trkpt lat="43.55216" lon="1.47461">
        <ele>203.77</ele>
        <time>2020-04-02T15:54:40Z</time>
      </trkpt>
      <trkpt lat="43.55221" lon="1.47454">
        <ele>203.875</ele>
        <time>2020-04-02T15:54:45Z</time>
      </trkpt>
      <trkpt lat="43.55227" lon="1.47444">
        <ele>204.016</ele>
        <time>2020-04-02T15:54:51Z</time>
      </trkpt>
      <trkpt lat="43.55232" lon="1.4744">
        <ele>204.144</ele>
        <time>2020-04-02T15:54:56Z</time>
      </trkpt>
      <trkpt lat="43.55242" lon="1.47435">
        <ele>204.323</ele>
        <time>2020-04-02T15:55:02Z</time>
      </trkpt>
      <trkpt lat="43.55248" lon="1.47431">
        <ele>204.485</ele>
        <time>2020-04-02T15:55:07Z</time>
      </trkpt>
      <trkpt lat="43.55253" lon="1.47426">
        <ele>204.667</ele>
        <time>2020-04-02T15:55:12Z</time>
      </trkpt>
      <trkpt lat="43.55258" lon="1.47421">
        <ele>204.904</ele>
        <time>2020-04-02T15:55:18Z</time>
      </trkpt>
      <trkpt lat="43.55266" lon="1.47416">
        <ele>205.166</ele>
        <time>2020-04-02T15:55:24Z</time>
      </trkpt>
      <trkpt lat="43.55266" lon="1.47401">
        <ele>205.485</ele>
        <time>2020-04-02T15:55:29Z</time>
      </trkpt>
      <trkpt lat="43.55267" lon="1.47399">
        <ele>205.937</ele>
        <time>2020-04-02T15:55:35Z</time>
      </trkpt>
      <trkpt lat="43.55266" lon="1.47398">
        <ele>205.972</ele>
        <time>2020-04-02T15:55:40Z</time>
      </trkpt>
      <trkpt lat="43.55263" lon="1.47392">
        <ele>206.293</ele>
        <time>2020-04-02T15:55:46Z</time>
      </trkpt>
      <trkpt lat="43.55259" lon="1.47387">
        <ele>206.626</ele>
        <time>2020-04-02T15:55:52Z</time>
      </trkpt>
      <trkpt lat="43.55258" lon="1.4738">
        <ele>206.932</ele>
        <time>2020-04-02T15:55:58Z</time>
      </trkpt>
      <trkpt lat="43.55256" lon="1.4737">
        <ele>207.128</ele>
        <time>2020-04-02T15:56:03Z</time>
      </trkpt>
      <trkpt lat="43.55249" lon="1.47361">
        <ele>207.35</ele>
        <time>2020-04-02T15:56:09Z</time>
      </trkpt>
      <trkpt lat="43.55248" lon="1.47348">
        <ele>207.546</ele>
        <time>2020-04-02T15:56:14Z</time>
      </trkpt>
      <trkpt lat="43.55243" lon="1.47341">
        <ele>207.802</ele>
        <time>2020-04-02T15:56:20Z</time>
      </trkpt>
      <trkpt lat="43.5524" lon="1.47332">
        <ele>208.021</ele>
        <time>2020-04-02T15:56:25Z</time>
      </trkpt>
      <trkpt lat="43.55237" lon="1.47325">
        <ele>208.199</ele>
        <time>2020-04-02T15:56:31Z</time>
      </trkpt>
      <trkpt lat="43.55233" lon="1.47317">
        <ele>208.471</ele>
        <time>2020-04-02T15:56:37Z</time>
      </trkpt>
      <trkpt lat="43.55228" lon="1.473">
        <ele>208.738</ele>
        <time>2020-04-02T15:56:43Z</time>
      </trkpt>
      <trkpt lat="43.55226" lon="1.47293">
        <ele>208.96</ele>
        <time>2020-04-02T15:56:48Z</time>
      </trkpt>
      <trkpt lat="43.55222" lon="1.47283">
        <ele>209.176</ele>
        <time>2020-04-02T15:56:53Z</time>
      </trkpt>
      <trkpt lat="43.55216" lon="1.47274">
        <ele>209.431</ele>
        <time>2020-04-02T15:56:59Z</time>
      </trkpt>
      <trkpt lat="43.55212" lon="1.47264">
        <ele>209.702</ele>
        <time>2020-04-02T15:57:05Z</time>
      </trkpt>
      <trkpt lat="43.55208" lon="1.47257">
        <ele>209.986</ele>
        <time>2020-04-02T15:57:11Z</time>
      </trkpt>
      <trkpt lat="43.55205" lon="1.47247">
        <ele>210.258</ele>
        <time>2020-04-02T15:57:17Z</time>
      </trkpt>
      <trkpt lat="43.55203" lon="1.47239">
        <ele>210.461</ele>
        <time>2020-04-02T15:57:22Z</time>
      </trkpt>
      <trkpt lat="43.552" lon="1.47227">
        <ele>210.678</ele>
        <time>2020-04-02T15:57:28Z</time>
      </trkpt>
      <trkpt lat="43.55196" lon="1.47217">
        <ele>210.871</ele>
        <time>2020-04-02T15:57:34Z</time>
      </trkpt>
      <trkpt lat="43.55192" lon="1.47209">
        <ele>211.045</ele>
        <time>2020-04-02T15:57:40Z</time>
      </trkpt>
      <trkpt lat="43.55188" lon="1.47202">
        <ele>211.2</ele>
        <time>2020-04-02T15:57:46Z</time>
      </trkpt>
      <trkpt lat="43.55184" lon="1.47194">
        <ele>211.342</ele>
        <time>2020-04-02T15:57:52Z</time>
      </trkpt>
      <trkpt lat="43.5518" lon="1.47186">
        <ele>211.482</ele>
        <time>2020-04-02T15:57:58Z</time>
      </trkpt>
      <trkpt lat="43.55176" lon="1.47177">
        <ele>211.614</ele>
        <time>2020-04-02T15:58:04Z</time>
      </trkpt>
      <trkpt lat="43.55173" lon="1.47168">
        <ele>211.719</ele>
        <time>2020-04-02T15:58:09Z</time>
      </trkpt>
      <trkpt lat="43.5517" lon="1.47158">
        <ele>211.841</ele>
        <time>2020-04-02T15:58:15Z</time>
      </trkpt>
      <trkpt lat="43.55165" lon="1.47148">
        <ele>211.98</ele>
        <time>2020-04-02T15:58:21Z</time>
      </trkpt>
      <trkpt lat="43.55161" lon="1.47136">
        <ele>212.127</ele>
        <time>2020-04-02T15:58:27Z</time>
      </trkpt>
      <trkpt lat="43.55157" lon="1.47126">
        <ele>212.283</ele>
        <time>2020-04-02T15:58:33Z</time>
      </trkpt>
      <trkpt lat="43.55153" lon="1.47116">
        <ele>212.448</ele>
        <time>2020-04-02T15:58:39Z</time>
      </trkpt>
      <trkpt lat="43.55149" lon="1.47106">
        <ele>212.609</ele>
        <time>2020-04-02T15:58:45Z</time>
      </trkpt>
      <trkpt lat="43.55147" lon="1.47104">
        <ele>212.753</ele>
        <time>2020-04-02T15:58:50Z</time>
      </trkpt>
      <trkpt lat="43.55145" lon="1.47098">
        <ele>212.931</ele>
        <time>2020-04-02T15:58:56Z</time>
      </trkpt>
      <trkpt lat="43.55142" lon="1.47092">
        <ele>213.081</ele>
        <time>2020-04-02T15:59:01Z</time>
      </trkpt>
      <trkpt lat="43.55138" lon="1.47084">
        <ele>213.268</ele>
        <time>2020-04-02T15:59:07Z</time>
      </trkpt>
      <trkpt lat="43.55135" lon="1.47078">
        <ele>213.432</ele>
        <time>2020-04-02T15:59:12Z</time>
      </trkpt>
      <trkpt lat="43.55131" lon="1.47068">
        <ele>213.644</ele>
        <time>2020-04-02T15:59:18Z</time>
      </trkpt>
      <trkpt lat="43.55126" lon="1.4706">
        <ele>213.867</ele>
        <time>2020-04-02T15:59:24Z</time>
      </trkpt>
      <trkpt lat="43.5512" lon="1.4705">
        <ele>214.09</ele>
        <time>2020-04-02T15:59:30Z</time>
      </trkpt>
      <trkpt lat="43.55117" lon="1.47038">
        <ele>214.309</ele>
        <time>2020-04-02T15:59:36Z</time>
      </trkpt>
      <trkpt lat="43.55114" lon="1.47033">
        <ele>214.469</ele>
        <time>2020-04-02T15:59:41Z</time>
      </trkpt>
      <trkpt lat="43.55111" lon="1.47022">
        <ele>214.65</ele>
        <time>2020-04-02T15:59:47Z</time>
      </trkpt>
      <trkpt lat="43.55108" lon="1.47015">
        <ele>214.79</ele>
        <time>2020-04-02T15:59:52Z</time>
      </trkpt>
      <trkpt lat="43.55104" lon="1.47009">
        <ele>214.948</ele>
        <time>2020-04-02T15:59:58Z</time>
      </trkpt>
      <trkpt lat="43.55101" lon="1.47003">
        <ele>215.064</ele>
        <time>2020-04-02T16:00:03Z</time>
      </trkpt>
      <trkpt lat="43.55099" lon="1.46993">
        <ele>215.169</ele>
        <time>2020-04-02T16:00:08Z</time>
      </trkpt>
      <trkpt lat="43.55093" lon="1.46981">
        <ele>215.283</ele>
        <time>2020-04-02T16:00:14Z</time>
      </trkpt>
      <trkpt lat="43.55093" lon="1.46974">
        <ele>215.393</ele>
        <time>2020-04-02T16:00:20Z</time>
      </trkpt>
      <trkpt lat="43.55095" lon="1.46966">
        <ele>215.478</ele>
        <time>2020-04-02T16:00:25Z</time>
      </trkpt>
      <trkpt lat="43.55099" lon="1.46955">
        <ele>215.456</ele>
        <time>2020-04-02T16:00:31Z</time>
      </trkpt>
      <trkpt lat="43.55103" lon="1.46949">
        <ele>215.394</ele>
        <time>2020-04-02T16:00:36Z</time>
      </trkpt>
      <trkpt lat="43.55107" lon="1.46941">
        <ele>215.29</ele>
        <time>2020-04-02T16:00:42Z</time>
      </trkpt>
      <trkpt lat="43.55109" lon="1.46931">
        <ele>215.165</ele>
        <time>2020-04-02T16:00:48Z</time>
      </trkpt>
      <trkpt lat="43.55106" lon="1.46919">
        <ele>215.049</ele>
        <time>2020-04-02T16:00:54Z</time>
      </trkpt>
      <trkpt lat="43.55104" lon="1.46912">
        <ele>214.966</ele>
        <time>2020-04-02T16:00:59Z</time>
      </trkpt>
      <trkpt lat="43.55102" lon="1.46905">
        <ele>214.912</ele>
        <time>2020-04-02T16:01:05Z</time>
      </trkpt>
      <trkpt lat="43.551" lon="1.46898">
        <ele>214.883</ele>
        <time>2020-04-02T16:01:10Z</time>
      </trkpt>
      <trkpt lat="43.55097" lon="1.46892">
        <ele>214.863</ele>
        <time>2020-04-02T16:01:15Z</time>
      </trkpt>
      <trkpt lat="43.55092" lon="1.46878">
        <ele>214.832</ele>
        <time>2020-04-02T16:01:21Z</time>
      </trkpt>
      <trkpt lat="43.5509" lon="1.4687">
        <ele>214.81</ele>
        <time>2020-04-02T16:01:27Z</time>
      </trkpt>
      <trkpt lat="43.55085" lon="1.46862">
        <ele>214.828</ele>
        <time>2020-04-02T16:01:33Z</time>
      </trkpt>
      <trkpt lat="43.55078" lon="1.46856">
        <ele>214.862</ele>
        <time>2020-04-02T16:01:39Z</time>
      </trkpt>
      <trkpt lat="43.55073" lon="1.46851">
        <ele>214.91</ele>
        <time>2020-04-02T16:01:45Z</time>
      </trkpt>
      <trkpt lat="43.55068" lon="1.46841">
        <ele>214.976</ele>
        <time>2020-04-02T16:01:51Z</time>
      </trkpt>
      <trkpt lat="43.55063" lon="1.46834">
        <ele>215.036</ele>
        <time>2020-04-02T16:01:56Z</time>
      </trkpt>
      <trkpt lat="43.55059" lon="1.46827">
        <ele>215.124</ele>
        <time>2020-04-02T16:02:02Z</time>
      </trkpt>
      <trkpt lat="43.55055" lon="1.46823">
        <ele>215.213</ele>
        <time>2020-04-02T16:02:07Z</time>
      </trkpt>
      <trkpt lat="43.55051" lon="1.46817">
        <ele>215.309</ele>
        <time>2020-04-02T16:02:12Z</time>
      </trkpt>
      <trkpt lat="43.55047" lon="1.46811">
        <ele>215.407</ele>
        <time>2020-04-02T16:02:17Z</time>
      </trkpt>
      <trkpt lat="43.55041" lon="1.468">
        <ele>215.537</ele>
        <time>2020-04-02T16:02:23Z</time>
      </trkpt>
      <trkpt lat="43.55037" lon="1.46793">
        <ele>215.648</ele>
        <time>2020-04-02T16:02:28Z</time>
      </trkpt>
      <trkpt lat="43.55034" lon="1.4679">
        <ele>215.764</ele>
        <time>2020-04-02T16:02:33Z</time>
      </trkpt>
      <trkpt lat="43.55028" lon="1.46783">
        <ele>215.918</ele>
        <time>2020-04-02T16:02:39Z</time>
      </trkpt>
      <trkpt lat="43.55024" lon="1.46779">
        <ele>216.049</ele>
        <time>2020-04-02T16:02:44Z</time>
      </trkpt>
      <trkpt lat="43.55018" lon="1.46767">
        <ele>216.213</ele>
        <time>2020-04-02T16:02:50Z</time>
      </trkpt>
      <trkpt lat="43.55015" lon="1.46763">
        <ele>216.371</ele>
        <time>2020-04-02T16:02:56Z</time>
      </trkpt>
      <trkpt lat="43.55011" lon="1.46757">
        <ele>216.506</ele>
        <time>2020-04-02T16:03:01Z</time>
      </trkpt>
      <trkpt lat="43.55006" lon="1.4675">
        <ele>216.666</ele>
        <time>2020-04-02T16:03:07Z</time>
      </trkpt>
      <trkpt lat="43.54998" lon="1.46745">
        <ele>216.834</ele>
        <time>2020-04-02T16:03:13Z</time>
      </trkpt>
      <trkpt lat="43.54993" lon="1.46744">
        <ele>216.994</ele>
        <time>2020-04-02T16:03:18Z</time>
      </trkpt>
      <trkpt lat="43.54989" lon="1.46744">
        <ele>217.232</ele>
        <time>2020-04-02T16:03:24Z</time>
      </trkpt>
      <trkpt lat="43.54986" lon="1.46749">
        <ele>217.536</ele>
        <time>2020-04-02T16:03:30Z</time>
      </trkpt>
      <trkpt lat="43.54981" lon="1.46756">
        <ele>217.835</ele>
        <time>2020-04-02T16:03:35Z</time>
      </trkpt>
      <trkpt lat="43.54976" lon="1.46759">
        <ele>218.325</ele>
        <time>2020-04-02T16:03:41Z</time>
      </trkpt>
      <trkpt lat="43.54969" lon="1.46759">
        <ele>219.063</ele>
        <time>2020-04-02T16:03:47Z</time>
      </trkpt>
      <trkpt lat="43.54965" lon="1.4676">
        <ele>219.704</ele>
        <time>2020-04-02T16:03:52Z</time>
      </trkpt>
      <trkpt lat="43.54956" lon="1.46757">
        <ele>220.537</ele>
        <time>2020-04-02T16:03:58Z</time>
      </trkpt>
      <trkpt lat="43.54951" lon="1.46756">
        <ele>221.215</ele>
        <time>2020-04-02T16:04:03Z</time>
      </trkpt>
      <trkpt lat="43.54944" lon="1.46758">
        <ele>222</ele>
        <time>2020-04-02T16:04:09Z</time>
      </trkpt>
      <trkpt lat="43.54938" lon="1.46758">
        <ele>222.652</ele>
        <time>2020-04-02T16:04:14Z</time>
      </trkpt>
      <trkpt lat="43.54932" lon="1.46756">
        <ele>223.291</ele>
        <time>2020-04-02T16:04:19Z</time>
      </trkpt>
      <trkpt lat="43.54925" lon="1.46753">
        <ele>224.014</ele>
        <time>2020-04-02T16:04:25Z</time>
      </trkpt>
      <trkpt lat="43.54919" lon="1.46751">
        <ele>224.593</ele>
        <time>2020-04-02T16:04:30Z</time>
      </trkpt>
      <trkpt lat="43.54916" lon="1.46751">
        <ele>225.16</ele>
        <time>2020-04-02T16:04:35Z</time>
      </trkpt>
      <trkpt lat="43.5491" lon="1.46754">
        <ele>225.73</ele>
        <time>2020-04-02T16:04:40Z</time>
      </trkpt>
      <trkpt lat="43.54902" lon="1.46754">
        <ele>226.431</ele>
        <time>2020-04-02T16:04:46Z</time>
      </trkpt>
      <trkpt lat="43.54896" lon="1.46753">
        <ele>227.014</ele>
        <time>2020-04-02T16:04:51Z</time>
      </trkpt>
      <trkpt lat="43.54891" lon="1.46753">
        <ele>227.688</ele>
        <time>2020-04-02T16:04:57Z</time>
      </trkpt>
      <trkpt lat="43.54884" lon="1.46752">
        <ele>228.265</ele>
        <time>2020-04-02T16:05:02Z</time>
      </trkpt>
      <trkpt lat="43.54879" lon="1.46756">
        <ele>228.976</ele>
        <time>2020-04-02T16:05:08Z</time>
      </trkpt>
      <trkpt lat="43.54875" lon="1.46762">
        <ele>229.706</ele>
        <time>2020-04-02T16:05:14Z</time>
      </trkpt>
      <trkpt lat="43.54869" lon="1.46767">
        <ele>230.313</ele>
        <time>2020-04-02T16:05:19Z</time>
      </trkpt>
      <trkpt lat="43.54863" lon="1.46772">
        <ele>230.88</ele>
        <time>2020-04-02T16:05:24Z</time>
      </trkpt>
      <trkpt lat="43.54858" lon="1.46783">
        <ele>231.549</ele>
        <time>2020-04-02T16:05:30Z</time>
      </trkpt>
      <trkpt lat="43.54852" lon="1.46789">
        <ele>232.125</ele>
        <time>2020-04-02T16:05:35Z</time>
      </trkpt>
      <trkpt lat="43.54845" lon="1.46795">
        <ele>232.698</ele>
        <time>2020-04-02T16:05:40Z</time>
      </trkpt>
      <trkpt lat="43.54837" lon="1.46803">
        <ele>233.437</ele>
        <time>2020-04-02T16:05:46Z</time>
      </trkpt>
      <trkpt lat="43.5483" lon="1.46813">
        <ele>234.072</ele>
        <time>2020-04-02T16:05:51Z</time>
      </trkpt>
      <trkpt lat="43.54828" lon="1.46811">
        <ele>234.776</ele>
        <time>2020-04-02T16:05:57Z</time>
      </trkpt>
      <trkpt lat="43.54827" lon="1.46807">
        <ele>235.407</ele>
        <time>2020-04-02T16:06:03Z</time>
      </trkpt>
      <trkpt lat="43.54825" lon="1.46803">
        <ele>235.88</ele>
        <time>2020-04-02T16:06:08Z</time>
      </trkpt>
      <trkpt lat="43.54823" lon="1.46798">
        <ele>236.31</ele>
        <time>2020-04-02T16:06:13Z</time>
      </trkpt>
      <trkpt lat="43.54819" lon="1.46793">
        <ele>236.779</ele>
        <time>2020-04-02T16:06:19Z</time>
      </trkpt>
      <trkpt lat="43.54817" lon="1.46787">
        <ele>237.132</ele>
        <time>2020-04-02T16:06:24Z</time>
      </trkpt>
      <trkpt lat="43.54814" lon="1.46782">
        <ele>237.457</ele>
        <time>2020-04-02T16:06:29Z</time>
      </trkpt>
      <trkpt lat="43.54813" lon="1.46779">
        <ele>237.814</ele>
        <time>2020-04-02T16:06:35Z</time>
      </trkpt>
      <trkpt lat="43.5481" lon="1.46772">
        <ele>238.141</ele>
        <time>2020-04-02T16:06:41Z</time>
      </trkpt>
      <trkpt lat="43.54808" lon="1.46765">
        <ele>238.44</ele>
        <time>2020-04-02T16:06:47Z</time>
      </trkpt>
      <trkpt lat="43.54807" lon="1.46757">
        <ele>238.683</ele>
        <time>2020-04-02T16:06:52Z</time>
      </trkpt>
      <trkpt lat="43.54806" lon="1.46749">
        <ele>238.934</ele>
        <time>2020-04-02T16:06:58Z</time>
      </trkpt>
      <trkpt lat="43.54804" lon="1.46741">
        <ele>239.114</ele>
        <time>2020-04-02T16:07:03Z</time>
      </trkpt>
      <trkpt lat="43.54799" lon="1.46738">
        <ele>239.325</ele>
        <time>2020-04-02T16:07:09Z</time>
      </trkpt>
      <trkpt lat="43.548" lon="1.46728">
        <ele>239.554</ele>
        <time>2020-04-02T16:07:14Z</time>
      </trkpt>
      <trkpt lat="43.54794" lon="1.4672">
        <ele>239.961</ele>
        <time>2020-04-02T16:07:20Z</time>
      </trkpt>
      <trkpt lat="43.54791" lon="1.46717">
        <ele>240.441</ele>
        <time>2020-04-02T16:07:25Z</time>
      </trkpt>
      <trkpt lat="43.54778" lon="1.46725">
        <ele>241.063</ele>
        <time>2020-04-02T16:07:30Z</time>
      </trkpt>
      <trkpt lat="43.54774" lon="1.46716">
        <ele>241.826</ele>
        <time>2020-04-02T16:07:36Z</time>
      </trkpt>
      <trkpt lat="43.54769" lon="1.46708">
        <ele>242.555</ele>
        <time>2020-04-02T16:07:42Z</time>
      </trkpt>
      <trkpt lat="43.54765" lon="1.46701">
        <ele>243.146</ele>
        <time>2020-04-02T16:07:47Z</time>
      </trkpt>
      <trkpt lat="43.54762" lon="1.46692">
        <ele>243.69</ele>
        <time>2020-04-02T16:07:52Z</time>
      </trkpt>
      <trkpt lat="43.54758" lon="1.46684">
        <ele>244.261</ele>
        <time>2020-04-02T16:07:58Z</time>
      </trkpt>
      <trkpt lat="43.54754" lon="1.46677">
        <ele>244.695</ele>
        <time>2020-04-02T16:08:03Z</time>
      </trkpt>
      <trkpt lat="43.54747" lon="1.46675">
        <ele>245.116</ele>
        <time>2020-04-02T16:08:08Z</time>
      </trkpt>
      <trkpt lat="43.54738" lon="1.4668">
        <ele>245.644</ele>
        <time>2020-04-02T16:08:14Z</time>
      </trkpt>
      <trkpt lat="43.54734" lon="1.46677">
        <ele>246.274</ele>
        <time>2020-04-02T16:08:20Z</time>
      </trkpt>
      <trkpt lat="43.54726" lon="1.46684">
        <ele>246.868</ele>
        <time>2020-04-02T16:08:25Z</time>
      </trkpt>
      <trkpt lat="43.5472" lon="1.46685">
        <ele>247.676</ele>
        <time>2020-04-02T16:08:31Z</time>
      </trkpt>
      <trkpt lat="43.54715" lon="1.46684">
        <ele>248.528</ele>
        <time>2020-04-02T16:08:37Z</time>
      </trkpt>
      <trkpt lat="43.54707" lon="1.46682">
        <ele>249.494</ele>
        <time>2020-04-02T16:08:43Z</time>
      </trkpt>
      <trkpt lat="43.54702" lon="1.46686">
        <ele>250.34</ele>
        <time>2020-04-02T16:08:48Z</time>
      </trkpt>
      <trkpt lat="43.54694" lon="1.46689">
        <ele>251.366</ele>
        <time>2020-04-02T16:08:54Z</time>
      </trkpt>
      <trkpt lat="43.54688" lon="1.46691">
        <ele>252.379</ele>
        <time>2020-04-02T16:09:00Z</time>
      </trkpt>
      <trkpt lat="43.54683" lon="1.46694">
        <ele>253.2</ele>
        <time>2020-04-02T16:09:05Z</time>
      </trkpt>
      <trkpt lat="43.54675" lon="1.46698">
        <ele>254.159</ele>
        <time>2020-04-02T16:09:11Z</time>
      </trkpt>
      <trkpt lat="43.54668" lon="1.46699">
        <ele>254.943</ele>
        <time>2020-04-02T16:09:16Z</time>
      </trkpt>
      <trkpt lat="43.5466" lon="1.46702">
        <ele>255.859</ele>
        <time>2020-04-02T16:09:22Z</time>
      </trkpt>
      <trkpt lat="43.54654" lon="1.46704">
        <ele>256.6</ele>
        <time>2020-04-02T16:09:27Z</time>
      </trkpt>
      <trkpt lat="43.54648" lon="1.46705">
        <ele>257.314</ele>
        <time>2020-04-02T16:09:32Z</time>
      </trkpt>
      <trkpt lat="43.54641" lon="1.46709">
        <ele>258.129</ele>
        <time>2020-04-02T16:09:38Z</time>
      </trkpt>
      <trkpt lat="43.54635" lon="1.46714">
        <ele>258.921</ele>
        <time>2020-04-02T16:09:44Z</time>
      </trkpt>
      <trkpt lat="43.54627" lon="1.4672">
        <ele>259.676</ele>
        <time>2020-04-02T16:09:50Z</time>
      </trkpt>
      <trkpt lat="43.54618" lon="1.46724">
        <ele>260.294</ele>
        <time>2020-04-02T16:09:55Z</time>
      </trkpt>
      <trkpt lat="43.54609" lon="1.46728">
        <ele>260.997</ele>
        <time>2020-04-02T16:10:01Z</time>
      </trkpt>
      <trkpt lat="43.54605" lon="1.46729">
        <ele>261.565</ele>
        <time>2020-04-02T16:10:06Z</time>
      </trkpt>
      <trkpt lat="43.54598" lon="1.46733">
        <ele>262.221</ele>
        <time>2020-04-02T16:10:12Z</time>
      </trkpt>
      <trkpt lat="43.5459" lon="1.46735">
        <ele>262.86</ele>
        <time>2020-04-02T16:10:18Z</time>
      </trkpt>
      <trkpt lat="43.54583" lon="1.46738">
        <ele>263.451</ele>
        <time>2020-04-02T16:10:24Z</time>
      </trkpt>
      <trkpt lat="43.54578" lon="1.4674">
        <ele>263.904</ele>
        <time>2020-04-02T16:10:29Z</time>
      </trkpt>
      <trkpt lat="43.5457" lon="1.46744">
        <ele>264.43</ele>
        <time>2020-04-02T16:10:35Z</time>
      </trkpt>
      <trkpt lat="43.54564" lon="1.46747">
        <ele>264.84</ele>
        <time>2020-04-02T16:10:40Z</time>
      </trkpt>
      <trkpt lat="43.54558" lon="1.4675">
        <ele>265.215</ele>
        <time>2020-04-02T16:10:45Z</time>
      </trkpt>
      <trkpt lat="43.54552" lon="1.46753">
        <ele>265.567</ele>
        <time>2020-04-02T16:10:50Z</time>
      </trkpt>
      <trkpt lat="43.54543" lon="1.46753">
        <ele>265.974</ele>
        <time>2020-04-02T16:10:56Z</time>
      </trkpt>
      <trkpt lat="43.54536" lon="1.46757">
        <ele>266.361</ele>
        <time>2020-04-02T16:11:02Z</time>
      </trkpt>
      <trkpt lat="43.54529" lon="1.46761">
        <ele>266.722</ele>
        <time>2020-04-02T16:11:08Z</time>
      </trkpt>
      <trkpt lat="43.54523" lon="1.46764">
        <ele>267.05</ele>
        <time>2020-04-02T16:11:14Z</time>
      </trkpt>
      <trkpt lat="43.54517" lon="1.46765">
        <ele>267.301</ele>
        <time>2020-04-02T16:11:19Z</time>
      </trkpt>
      <trkpt lat="43.54511" lon="1.46769">
        <ele>267.581</ele>
        <time>2020-04-02T16:11:25Z</time>
      </trkpt>
      <trkpt lat="43.54503" lon="1.46775">
        <ele>267.86</ele>
        <time>2020-04-02T16:11:31Z</time>
      </trkpt>
      <trkpt lat="43.54496" lon="1.46778">
        <ele>268.093</ele>
        <time>2020-04-02T16:11:36Z</time>
      </trkpt>
      <trkpt lat="43.54488" lon="1.46782">
        <ele>268.42</ele>
        <time>2020-04-02T16:11:42Z</time>
      </trkpt>
      <trkpt lat="43.54482" lon="1.46785">
        <ele>268.708</ele>
        <time>2020-04-02T16:11:47Z</time>
      </trkpt>
      <trkpt lat="43.54476" lon="1.46787">
        <ele>269.051</ele>
        <time>2020-04-02T16:11:53Z</time>
      </trkpt>
      <trkpt lat="43.5447" lon="1.46794">
        <ele>269.347</ele>
        <time>2020-04-02T16:11:59Z</time>
      </trkpt>
      <trkpt lat="43.54465" lon="1.46801">
        <ele>269.608</ele>
        <time>2020-04-02T16:12:05Z</time>
      </trkpt>
      <trkpt lat="43.5446" lon="1.46807">
        <ele>269.801</ele>
        <time>2020-04-02T16:12:10Z</time>
      </trkpt>
      <trkpt lat="43.54454" lon="1.46811">
        <ele>270.009</ele>
        <time>2020-04-02T16:12:16Z</time>
      </trkpt>
      <trkpt lat="43.54449" lon="1.46819">
        <ele>270.181</ele>
        <time>2020-04-02T16:12:21Z</time>
      </trkpt>
      <trkpt lat="43.54444" lon="1.46825">
        <ele>270.372</ele>
        <time>2020-04-02T16:12:27Z</time>
      </trkpt>
      <trkpt lat="43.54434" lon="1.46827">
        <ele>270.581</ele>
        <time>2020-04-02T16:12:33Z</time>
      </trkpt>
      <trkpt lat="43.54428" lon="1.46828">
        <ele>270.763</ele>
        <time>2020-04-02T16:12:38Z</time>
      </trkpt>
      <trkpt lat="43.54423" lon="1.46832">
        <ele>270.926</ele>
        <time>2020-04-02T16:12:43Z</time>
      </trkpt>
      <trkpt lat="43.54418" lon="1.46838">
        <ele>271.076</ele>
        <time>2020-04-02T16:12:48Z</time>
      </trkpt>
      <trkpt lat="43.5441" lon="1.46843">
        <ele>271.251</ele>
        <time>2020-04-02T16:12:54Z</time>
      </trkpt>
      <trkpt lat="43.54405" lon="1.46846">
        <ele>271.392</ele>
        <time>2020-04-02T16:12:59Z</time>
      </trkpt>
      <trkpt lat="43.54399" lon="1.46853">
        <ele>271.536</ele>
        <time>2020-04-02T16:13:05Z</time>
      </trkpt>
      <trkpt lat="43.54394" lon="1.4686">
        <ele>271.645</ele>
        <time>2020-04-02T16:13:10Z</time>
      </trkpt>
      <trkpt lat="43.54385" lon="1.46865">
        <ele>271.755</ele>
        <time>2020-04-02T16:13:16Z</time>
      </trkpt>
      <trkpt lat="43.54381" lon="1.46867">
        <ele>271.83</ele>
        <time>2020-04-02T16:13:21Z</time>
      </trkpt>
      <trkpt lat="43.54375" lon="1.46873">
        <ele>271.909</ele>
        <time>2020-04-02T16:13:27Z</time>
      </trkpt>
      <trkpt lat="43.54367" lon="1.46879">
        <ele>271.995</ele>
        <time>2020-04-02T16:13:33Z</time>
      </trkpt>
      <trkpt lat="43.5436" lon="1.46884">
        <ele>272.079</ele>
        <time>2020-04-02T16:13:39Z</time>
      </trkpt>
      <trkpt lat="43.54354" lon="1.46887">
        <ele>272.167</ele>
        <time>2020-04-02T16:13:45Z</time>
      </trkpt>
      <trkpt lat="43.54348" lon="1.46892">
        <ele>272.244</ele>
        <time>2020-04-02T16:13:50Z</time>
      </trkpt>
      <trkpt lat="43.54341" lon="1.46896">
        <ele>272.331</ele>
        <time>2020-04-02T16:13:56Z</time>
      </trkpt>
      <trkpt lat="43.54335" lon="1.46898">
        <ele>272.394</ele>
        <time>2020-04-02T16:14:01Z</time>
      </trkpt>
      <trkpt lat="43.5433" lon="1.46902">
        <ele>272.45</ele>
        <time>2020-04-02T16:14:06Z</time>
      </trkpt>
      <trkpt lat="43.54322" lon="1.46906">
        <ele>272.508</ele>
        <time>2020-04-02T16:14:12Z</time>
      </trkpt>
      <trkpt lat="43.54314" lon="1.46908">
        <ele>272.571</ele>
        <time>2020-04-02T16:14:18Z</time>
      </trkpt>
      <trkpt lat="43.54309" lon="1.46912">
        <ele>272.625</ele>
        <time>2020-04-02T16:14:23Z</time>
      </trkpt>
      <trkpt lat="43.54304" lon="1.46919">
        <ele>272.684</ele>
        <time>2020-04-02T16:14:29Z</time>
      </trkpt>
      <trkpt lat="43.543" lon="1.46924">
        <ele>272.73</ele>
        <time>2020-04-02T16:14:34Z</time>
      </trkpt>
      <trkpt lat="43.54294" lon="1.4693">
        <ele>272.779</ele>
        <time>2020-04-02T16:14:39Z</time>
      </trkpt>
      <trkpt lat="43.54288" lon="1.46934">
        <ele>272.838</ele>
        <time>2020-04-02T16:14:45Z</time>
      </trkpt>
      <trkpt lat="43.54282" lon="1.46938">
        <ele>272.891</ele>
        <time>2020-04-02T16:14:51Z</time>
      </trkpt>
      <trkpt lat="43.54276" lon="1.46941">
        <ele>272.936</ele>
        <time>2020-04-02T16:14:57Z</time>
      </trkpt>
      <trkpt lat="43.54271" lon="1.46946">
        <ele>272.968</ele>
        <time>2020-04-02T16:15:02Z</time>
      </trkpt>
      <trkpt lat="43.54264" lon="1.46953">
        <ele>273.008</ele>
        <time>2020-04-02T16:15:08Z</time>
      </trkpt>
      <trkpt lat="43.54256" lon="1.46966">
        <ele>273.047</ele>
        <time>2020-04-02T16:15:14Z</time>
      </trkpt>
      <trkpt lat="43.5425" lon="1.46978">
        <ele>273.075</ele>
        <time>2020-04-02T16:15:20Z</time>
      </trkpt>
      <trkpt lat="43.54246" lon="1.46984">
        <ele>273.089</ele>
        <time>2020-04-02T16:15:25Z</time>
      </trkpt>
      <trkpt lat="43.54242" lon="1.46992">
        <ele>273.101</ele>
        <time>2020-04-02T16:15:31Z</time>
      </trkpt>
      <trkpt lat="43.54238" lon="1.46997">
        <ele>273.109</ele>
        <time>2020-04-02T16:15:36Z</time>
      </trkpt>
      <trkpt lat="43.54232" lon="1.47004">
        <ele>273.118</ele>
        <time>2020-04-02T16:15:42Z</time>
      </trkpt>
      <trkpt lat="43.54228" lon="1.47012">
        <ele>273.123</ele>
        <time>2020-04-02T16:15:48Z</time>
      </trkpt>
      <trkpt lat="43.54222" lon="1.4702">
        <ele>273.123</ele>
        <time>2020-04-02T16:15:54Z</time>
      </trkpt>
      <trkpt lat="43.54218" lon="1.47027">
        <ele>273.121</ele>
        <time>2020-04-02T16:15:59Z</time>
      </trkpt>
      <trkpt lat="43.54215" lon="1.47032">
        <ele>273.117</ele>
        <time>2020-04-02T16:16:05Z</time>
      </trkpt>
      <trkpt lat="43.54212" lon="1.47037">
        <ele>273.11</ele>
        <time>2020-04-02T16:16:10Z</time>
      </trkpt>
      <trkpt lat="43.54207" lon="1.47045">
        <ele>273.103</ele>
        <time>2020-04-02T16:16:16Z</time>
      </trkpt>
      <trkpt lat="43.54203" lon="1.47052">
        <ele>273.098</ele>
        <time>2020-04-02T16:16:21Z</time>
      </trkpt>
      <trkpt lat="43.54197" lon="1.4706">
        <ele>273.091</ele>
        <time>2020-04-02T16:16:27Z</time>
      </trkpt>
      <trkpt lat="43.54192" lon="1.47068">
        <ele>273.088</ele>
        <time>2020-04-02T16:16:33Z</time>
      </trkpt>
      <trkpt lat="43.54187" lon="1.47074">
        <ele>273.089</ele>
        <time>2020-04-02T16:16:39Z</time>
      </trkpt>
      <trkpt lat="43.5418" lon="1.47081">
        <ele>273.093</ele>
        <time>2020-04-02T16:16:45Z</time>
      </trkpt>
      <trkpt lat="43.54174" lon="1.47088">
        <ele>273.098</ele>
        <time>2020-04-02T16:16:50Z</time>
      </trkpt>
      <trkpt lat="43.54168" lon="1.47096">
        <ele>273.101</ele>
        <time>2020-04-02T16:16:56Z</time>
      </trkpt>
      <trkpt lat="43.54165" lon="1.47101">
        <ele>273.103</ele>
        <time>2020-04-02T16:17:01Z</time>
      </trkpt>
      <trkpt lat="43.54156" lon="1.47105">
        <ele>273.106</ele>
        <time>2020-04-02T16:17:07Z</time>
      </trkpt>
      <trkpt lat="43.54149" lon="1.47109">
        <ele>273.11</ele>
        <time>2020-04-02T16:17:13Z</time>
      </trkpt>
      <trkpt lat="43.54144" lon="1.47111">
        <ele>273.114</ele>
        <time>2020-04-02T16:17:18Z</time>
      </trkpt>
      <trkpt lat="43.54136" lon="1.47111">
        <ele>273.123</ele>
        <time>2020-04-02T16:17:24Z</time>
      </trkpt>
      <trkpt lat="43.54129" lon="1.47113">
        <ele>273.134</ele>
        <time>2020-04-02T16:17:29Z</time>
      </trkpt>
      <trkpt lat="43.54121" lon="1.47111">
        <ele>273.153</ele>
        <time>2020-04-02T16:17:35Z</time>
      </trkpt>
      <trkpt lat="43.54112" lon="1.47112">
        <ele>273.183</ele>
        <time>2020-04-02T16:17:41Z</time>
      </trkpt>
      <trkpt lat="43.54106" lon="1.47112">
        <ele>273.215</ele>
        <time>2020-04-02T16:17:46Z</time>
      </trkpt>
      <trkpt lat="43.54099" lon="1.47108">
        <ele>273.256</ele>
        <time>2020-04-02T16:17:52Z</time>
      </trkpt>
      <trkpt lat="43.54093" lon="1.47106">
        <ele>273.301</ele>
        <time>2020-04-02T16:17:58Z</time>
      </trkpt>
      <trkpt lat="43.54087" lon="1.47104">
        <ele>273.342</ele>
        <time>2020-04-02T16:18:03Z</time>
      </trkpt>
      <trkpt lat="43.5408" lon="1.47101">
        <ele>273.396</ele>
        <time>2020-04-02T16:18:09Z</time>
      </trkpt>
      <trkpt lat="43.54074" lon="1.47099">
        <ele>273.446</ele>
        <time>2020-04-02T16:18:14Z</time>
      </trkpt>
      <trkpt lat="43.54068" lon="1.47098">
        <ele>273.497</ele>
        <time>2020-04-02T16:18:19Z</time>
      </trkpt>
      <trkpt lat="43.54062" lon="1.47095">
        <ele>273.558</ele>
        <time>2020-04-02T16:18:25Z</time>
      </trkpt>
      <trkpt lat="43.54053" lon="1.47096">
        <ele>273.62</ele>
        <time>2020-04-02T16:18:31Z</time>
      </trkpt>
      <trkpt lat="43.54046" lon="1.47097">
        <ele>273.687</ele>
        <time>2020-04-02T16:18:37Z</time>
      </trkpt>
      <trkpt lat="43.54039" lon="1.47096">
        <ele>273.758</ele>
        <time>2020-04-02T16:18:43Z</time>
      </trkpt>
      <trkpt lat="43.54034" lon="1.47096">
        <ele>273.821</ele>
        <time>2020-04-02T16:18:48Z</time>
      </trkpt>
      <trkpt lat="43.54024" lon="1.47096">
        <ele>273.899</ele>
        <time>2020-04-02T16:18:54Z</time>
      </trkpt>
      <trkpt lat="43.54018" lon="1.47089">
        <ele>273.962</ele>
        <time>2020-04-02T16:18:59Z</time>
      </trkpt>
      <trkpt lat="43.5401" lon="1.47088">
        <ele>274.034</ele>
        <time>2020-04-02T16:19:05Z</time>
      </trkpt>
      <trkpt lat="43.54004" lon="1.47087">
        <ele>274.09</ele>
        <time>2020-04-02T16:19:10Z</time>
      </trkpt>
      <trkpt lat="43.53997" lon="1.47089">
        <ele>274.155</ele>
        <time>2020-04-02T16:19:16Z</time>
      </trkpt>
      <trkpt lat="43.53988" lon="1.4709">
        <ele>274.219</ele>
        <time>2020-04-02T16:19:22Z</time>
      </trkpt>
      <trkpt lat="43.53984" lon="1.47089">
        <ele>274.272</ele>
        <time>2020-04-02T16:19:27Z</time>
      </trkpt>
      <trkpt lat="43.53978" lon="1.47088">
        <ele>274.324</ele>
        <time>2020-04-02T16:19:32Z</time>
      </trkpt>
      <trkpt lat="43.53971" lon="1.47091">
        <ele>274.381</ele>
        <time>2020-04-02T16:19:37Z</time>
      </trkpt>
      <trkpt lat="43.53965" lon="1.47094">
        <ele>274.449</ele>
        <time>2020-04-02T16:19:43Z</time>
      </trkpt>
      <trkpt lat="43.53958" lon="1.47097">
        <ele>274.506</ele>
        <time>2020-04-02T16:19:48Z</time>
      </trkpt>
      <trkpt lat="43.53952" lon="1.47098">
        <ele>274.564</ele>
        <time>2020-04-02T16:19:53Z</time>
      </trkpt>
      <trkpt lat="43.53948" lon="1.47098">
        <ele>274.622</ele>
        <time>2020-04-02T16:19:58Z</time>
      </trkpt>
      <trkpt lat="43.5394" lon="1.471">
        <ele>274.686</ele>
        <time>2020-04-02T16:20:04Z</time>
      </trkpt>
      <trkpt lat="43.53933" lon="1.47101">
        <ele>274.743</ele>
        <time>2020-04-02T16:20:10Z</time>
      </trkpt>
      <trkpt lat="43.53923" lon="1.47103">
        <ele>274.797</ele>
        <time>2020-04-02T16:20:16Z</time>
      </trkpt>
      <trkpt lat="43.53918" lon="1.47104">
        <ele>274.836</ele>
        <time>2020-04-02T16:20:21Z</time>
      </trkpt>
      <trkpt lat="43.53909" lon="1.47106">
        <ele>274.876</ele>
        <time>2020-04-02T16:20:27Z</time>
      </trkpt>
      <trkpt lat="43.53903" lon="1.47105">
        <ele>274.908</ele>
        <time>2020-04-02T16:20:32Z</time>
      </trkpt>
      <trkpt lat="43.53894" lon="1.47099">
        <ele>274.937</ele>
        <time>2020-04-02T16:20:38Z</time>
      </trkpt>
      <trkpt lat="43.53886" lon="1.47098">
        <ele>274.962</ele>
        <time>2020-04-02T16:20:44Z</time>
      </trkpt>
      <trkpt lat="43.53879" lon="1.47099">
        <ele>274.979</ele>
        <time>2020-04-02T16:20:49Z</time>
      </trkpt>
      <trkpt lat="43.53872" lon="1.471">
        <ele>274.996</ele>
        <time>2020-04-02T16:20:55Z</time>
      </trkpt>
      <trkpt lat="43.53868" lon="1.47106">
        <ele>275.006</ele>
        <time>2020-04-02T16:21:01Z</time>
      </trkpt>
      <trkpt lat="43.53866" lon="1.47114">
        <ele>275.005</ele>
        <time>2020-04-02T16:21:07Z</time>
      </trkpt>
      <trkpt lat="43.53863" lon="1.47121">
        <ele>274.996</ele>
        <time>2020-04-02T16:21:12Z</time>
      </trkpt>
      <trkpt lat="43.5386" lon="1.47127">
        <ele>274.983</ele>
        <time>2020-04-02T16:21:17Z</time>
      </trkpt>
      <trkpt lat="43.53858" lon="1.47133">
        <ele>274.955</ele>
        <time>2020-04-02T16:21:23Z</time>
      </trkpt>
      <trkpt lat="43.53855" lon="1.47138">
        <ele>274.913</ele>
        <time>2020-04-02T16:21:29Z</time>
      </trkpt>
      <trkpt lat="43.53851" lon="1.47143">
        <ele>274.874</ele>
        <time>2020-04-02T16:21:34Z</time>
      </trkpt>
      <trkpt lat="43.53849" lon="1.47147">
        <ele>274.819</ele>
        <time>2020-04-02T16:21:40Z</time>
      </trkpt>
      <trkpt lat="43.53847" lon="1.47152">
        <ele>274.768</ele>
        <time>2020-04-02T16:21:45Z</time>
      </trkpt>
      <trkpt lat="43.53844" lon="1.47158">
        <ele>274.694</ele>
        <time>2020-04-02T16:21:51Z</time>
      </trkpt>
      <trkpt lat="43.5384" lon="1.47165">
        <ele>274.623</ele>
        <time>2020-04-02T16:21:56Z</time>
      </trkpt>
      <trkpt lat="43.53837" lon="1.47171">
        <ele>274.546</ele>
        <time>2020-04-02T16:22:01Z</time>
      </trkpt>
      <trkpt lat="43.53833" lon="1.4718">
        <ele>274.471</ele>
        <time>2020-04-02T16:22:06Z</time>
      </trkpt>
      <trkpt lat="43.53831" lon="1.47186">
        <ele>274.384</ele>
        <time>2020-04-02T16:22:12Z</time>
      </trkpt>
      <trkpt lat="43.53828" lon="1.47195">
        <ele>274.292</ele>
        <time>2020-04-02T16:22:18Z</time>
      </trkpt>
      <trkpt lat="43.53825" lon="1.47199">
        <ele>274.215</ele>
        <time>2020-04-02T16:22:23Z</time>
      </trkpt>
      <trkpt lat="43.5382" lon="1.47211">
        <ele>274.12</ele>
        <time>2020-04-02T16:22:29Z</time>
      </trkpt>
      <trkpt lat="43.53817" lon="1.47215">
        <ele>274.024</ele>
        <time>2020-04-02T16:22:35Z</time>
      </trkpt>
      <trkpt lat="43.53815" lon="1.47216">
        <ele>273.929</ele>
        <time>2020-04-02T16:22:41Z</time>
      </trkpt>
      <trkpt lat="43.53812" lon="1.47217">
        <ele>273.801</ele>
        <time>2020-04-02T16:22:47Z</time>
      </trkpt>
      <trkpt lat="43.5381" lon="1.4722">
        <ele>273.749</ele>
        <time>2020-04-02T16:22:52Z</time>
      </trkpt>
      <trkpt lat="43.53795" lon="1.47236">
        <ele>273.625</ele>
        <time>2020-04-02T16:22:57Z</time>
      </trkpt>
      <trkpt lat="43.53791" lon="1.47245">
        <ele>273.5</ele>
        <time>2020-04-02T16:23:02Z</time>
      </trkpt>
      <trkpt lat="43.53789" lon="1.47257">
        <ele>273.353</ele>
        <time>2020-04-02T16:23:08Z</time>
      </trkpt>
      <trkpt lat="43.53786" lon="1.47268">
        <ele>273.213</ele>
        <time>2020-04-02T16:23:14Z</time>
      </trkpt>
      <trkpt lat="43.53782" lon="1.47275">
        <ele>273.093</ele>
        <time>2020-04-02T16:23:19Z</time>
      </trkpt>
      <trkpt lat="43.53778" lon="1.47281">
        <ele>272.934</ele>
        <time>2020-04-02T16:23:25Z</time>
      </trkpt>
      <trkpt lat="43.53771" lon="1.47285">
        <ele>272.787</ele>
        <time>2020-04-02T16:23:30Z</time>
      </trkpt>
      <trkpt lat="43.53766" lon="1.47293">
        <ele>272.598</ele>
        <time>2020-04-02T16:23:36Z</time>
      </trkpt>
      <trkpt lat="43.53767" lon="1.47304">
        <ele>272.404</ele>
        <time>2020-04-02T16:23:42Z</time>
      </trkpt>
      <trkpt lat="43.53768" lon="1.47309">
        <ele>272.247</ele>
        <time>2020-04-02T16:23:47Z</time>
      </trkpt>
      <trkpt lat="43.53767" lon="1.47311">
        <ele>272.093</ele>
        <time>2020-04-02T16:23:52Z</time>
      </trkpt>
      <trkpt lat="43.53773" lon="1.4733">
        <ele>271.91</ele>
        <time>2020-04-02T16:23:58Z</time>
      </trkpt>
      <trkpt lat="43.53777" lon="1.47344">
        <ele>271.738</ele>
        <time>2020-04-02T16:24:04Z</time>
      </trkpt>
      <trkpt lat="43.53778" lon="1.47353">
        <ele>271.575</ele>
        <time>2020-04-02T16:24:10Z</time>
      </trkpt>
      <trkpt lat="43.53779" lon="1.47362">
        <ele>271.401</ele>
        <time>2020-04-02T16:24:16Z</time>
      </trkpt>
      <trkpt lat="43.5378" lon="1.47372">
        <ele>271.215</ele>
        <time>2020-04-02T16:24:22Z</time>
      </trkpt>
      <trkpt lat="43.5378" lon="1.47383">
        <ele>271.027</ele>
        <time>2020-04-02T16:24:28Z</time>
      </trkpt>
      <trkpt lat="43.5378" lon="1.47393">
        <ele>270.839</ele>
        <time>2020-04-02T16:24:34Z</time>
      </trkpt>
      <trkpt lat="43.53782" lon="1.47403">
        <ele>270.679</ele>
        <time>2020-04-02T16:24:39Z</time>
      </trkpt>
      <trkpt lat="43.5378" lon="1.47406">
        <ele>270.479</ele>
        <time>2020-04-02T16:24:45Z</time>
      </trkpt>
      <trkpt lat="43.5378" lon="1.47413">
        <ele>270.311</ele>
        <time>2020-04-02T16:24:50Z</time>
      </trkpt>
      <trkpt lat="43.53785" lon="1.47426">
        <ele>270.129</ele>
        <time>2020-04-02T16:24:56Z</time>
      </trkpt>
      <trkpt lat="43.53788" lon="1.47436">
        <ele>269.955</ele>
        <time>2020-04-02T16:25:02Z</time>
      </trkpt>
      <trkpt lat="43.53789" lon="1.47441">
        <ele>269.799</ele>
        <time>2020-04-02T16:25:07Z</time>
      </trkpt>
      <trkpt lat="43.53789" lon="1.47445">
        <ele>269.627</ele>
        <time>2020-04-02T16:25:12Z</time>
      </trkpt>
      <trkpt lat="43.53791" lon="1.47454">
        <ele>269.408</ele>
        <time>2020-04-02T16:25:18Z</time>
      </trkpt>
      <trkpt lat="43.53791" lon="1.4747">
        <ele>269.15</ele>
        <time>2020-04-02T16:25:24Z</time>
      </trkpt>
      <trkpt lat="43.53791" lon="1.47479">
        <ele>268.871</ele>
        <time>2020-04-02T16:25:30Z</time>
      </trkpt>
      <trkpt lat="43.53797" lon="1.47495">
        <ele>268.616</ele>
        <time>2020-04-02T16:25:36Z</time>
      </trkpt>
      <trkpt lat="43.53801" lon="1.47503">
        <ele>268.384</ele>
        <time>2020-04-02T16:25:42Z</time>
      </trkpt>
      <trkpt lat="43.53803" lon="1.47512">
        <ele>268.2</ele>
        <time>2020-04-02T16:25:47Z</time>
      </trkpt>
      <trkpt lat="43.53813" lon="1.47524">
        <ele>267.996</ele>
        <time>2020-04-02T16:25:53Z</time>
      </trkpt>
      <trkpt lat="43.53819" lon="1.47529">
        <ele>267.805</ele>
        <time>2020-04-02T16:25:59Z</time>
      </trkpt>
      <trkpt lat="43.53824" lon="1.47535">
        <ele>267.63</ele>
        <time>2020-04-02T16:26:05Z</time>
      </trkpt>
      <trkpt lat="43.53829" lon="1.47538">
        <ele>267.466</ele>
        <time>2020-04-02T16:26:11Z</time>
      </trkpt>
      <trkpt lat="43.53833" lon="1.47542">
        <ele>267.313</ele>
        <time>2020-04-02T16:26:17Z</time>
      </trkpt>
      <trkpt lat="43.53838" lon="1.4755">
        <ele>267.168</ele>
        <time>2020-04-02T16:26:23Z</time>
      </trkpt>
      <trkpt lat="43.53841" lon="1.47566">
        <ele>267.017</ele>
        <time>2020-04-02T16:26:29Z</time>
      </trkpt>
      <trkpt lat="43.53842" lon="1.47582">
        <ele>266.889</ele>
        <time>2020-04-02T16:26:34Z</time>
      </trkpt>
      <trkpt lat="43.53843" lon="1.47594">
        <ele>266.74</ele>
        <time>2020-04-02T16:26:40Z</time>
      </trkpt>
      <trkpt lat="43.53844" lon="1.47604">
        <ele>266.623</ele>
        <time>2020-04-02T16:26:45Z</time>
      </trkpt>
      <trkpt lat="43.53844" lon="1.47616">
        <ele>266.486</ele>
        <time>2020-04-02T16:26:51Z</time>
      </trkpt>
      <trkpt lat="43.53848" lon="1.47627">
        <ele>266.357</ele>
        <time>2020-04-02T16:26:57Z</time>
      </trkpt>
      <trkpt lat="43.5385" lon="1.47634">
        <ele>266.233</ele>
        <time>2020-04-02T16:27:03Z</time>
      </trkpt>
      <trkpt lat="43.53853" lon="1.47639">
        <ele>266.11</ele>
        <time>2020-04-02T16:27:09Z</time>
      </trkpt>
      <trkpt lat="43.53855" lon="1.47647">
        <ele>265.991</ele>
        <time>2020-04-02T16:27:15Z</time>
      </trkpt>
      <trkpt lat="43.53858" lon="1.47657">
        <ele>265.893</ele>
        <time>2020-04-02T16:27:20Z</time>
      </trkpt>
      <trkpt lat="43.53865" lon="1.47662">
        <ele>265.778</ele>
        <time>2020-04-02T16:27:26Z</time>
      </trkpt>
      <trkpt lat="43.5387" lon="1.47666">
        <ele>265.669</ele>
        <time>2020-04-02T16:27:32Z</time>
      </trkpt>
      <trkpt lat="43.53871" lon="1.47679">
        <ele>265.539</ele>
        <time>2020-04-02T16:27:39Z</time>
      </trkpt>
      <trkpt lat="43.53874" lon="1.47694">
        <ele>265.445</ele>
        <time>2020-04-02T16:27:44Z</time>
      </trkpt>
      <trkpt lat="43.53877" lon="1.47704">
        <ele>265.343</ele>
        <time>2020-04-02T16:27:50Z</time>
      </trkpt>
      <trkpt lat="43.53884" lon="1.47721">
        <ele>265.247</ele>
        <time>2020-04-02T16:27:56Z</time>
      </trkpt>
      <trkpt lat="43.53888" lon="1.47729">
        <ele>265.159</ele>
        <time>2020-04-02T16:28:02Z</time>
      </trkpt>
      <trkpt lat="43.53894" lon="1.47738">
        <ele>265.078</ele>
        <time>2020-04-02T16:28:08Z</time>
      </trkpt>
      <trkpt lat="43.53899" lon="1.47745">
        <ele>265.013</ele>
        <time>2020-04-02T16:28:13Z</time>
      </trkpt>
      <trkpt lat="43.53904" lon="1.47749">
        <ele>264.941</ele>
        <time>2020-04-02T16:28:18Z</time>
      </trkpt>
      <trkpt lat="43.53908" lon="1.47756">
        <ele>264.855</ele>
        <time>2020-04-02T16:28:24Z</time>
      </trkpt>
      <trkpt lat="43.53911" lon="1.47762">
        <ele>264.764</ele>
        <time>2020-04-02T16:28:30Z</time>
      </trkpt>
      <trkpt lat="43.53913" lon="1.47767">
        <ele>264.688</ele>
        <time>2020-04-02T16:28:35Z</time>
      </trkpt>
      <trkpt lat="43.53916" lon="1.47776">
        <ele>264.597</ele>
        <time>2020-04-02T16:28:41Z</time>
      </trkpt>
      <trkpt lat="43.53921" lon="1.47779">
        <ele>264.504</ele>
        <time>2020-04-02T16:28:47Z</time>
      </trkpt>
      <trkpt lat="43.53927" lon="1.47781">
        <ele>264.429</ele>
        <time>2020-04-02T16:28:52Z</time>
      </trkpt>
      <trkpt lat="43.53932" lon="1.47783">
        <ele>264.352</ele>
        <time>2020-04-02T16:28:57Z</time>
      </trkpt>
      <trkpt lat="43.53936" lon="1.47783">
        <ele>264.261</ele>
        <time>2020-04-02T16:29:02Z</time>
      </trkpt>
      <trkpt lat="43.53939" lon="1.47789">
        <ele>264.141</ele>
        <time>2020-04-02T16:29:08Z</time>
      </trkpt>
      <trkpt lat="43.53942" lon="1.47794">
        <ele>264.037</ele>
        <time>2020-04-02T16:29:13Z</time>
      </trkpt>
      <trkpt lat="43.53951" lon="1.47805">
        <ele>263.906</ele>
        <time>2020-04-02T16:29:19Z</time>
      </trkpt>
      <trkpt lat="43.5396" lon="1.47818">
        <ele>263.795</ele>
        <time>2020-04-02T16:29:24Z</time>
      </trkpt>
      <trkpt lat="43.53964" lon="1.47823">
        <ele>263.69</ele>
        <time>2020-04-02T16:29:29Z</time>
      </trkpt>
      <trkpt lat="43.53971" lon="1.47826">
        <ele>263.574</ele>
        <time>2020-04-02T16:29:35Z</time>
      </trkpt>
      <trkpt lat="43.53978" lon="1.47831">
        <ele>263.461</ele>
        <time>2020-04-02T16:29:41Z</time>
      </trkpt>
      <trkpt lat="43.53982" lon="1.47838">
        <ele>263.368</ele>
        <time>2020-04-02T16:29:46Z</time>
      </trkpt>
      <trkpt lat="43.53987" lon="1.47849">
        <ele>263.26</ele>
        <time>2020-04-02T16:29:52Z</time>
      </trkpt>
      <trkpt lat="43.53994" lon="1.47856">
        <ele>263.176</ele>
        <time>2020-04-02T16:29:57Z</time>
      </trkpt>
      <trkpt lat="43.54" lon="1.47864">
        <ele>263.084</ele>
        <time>2020-04-02T16:30:03Z</time>
      </trkpt>
      <trkpt lat="43.54007" lon="1.47869">
        <ele>263.015</ele>
        <time>2020-04-02T16:30:08Z</time>
      </trkpt>
      <trkpt lat="43.54012" lon="1.47878">
        <ele>262.951</ele>
        <time>2020-04-02T16:30:13Z</time>
      </trkpt>
      <trkpt lat="43.54018" lon="1.47887">
        <ele>262.881</ele>
        <time>2020-04-02T16:30:19Z</time>
      </trkpt>
      <trkpt lat="43.54021" lon="1.47892">
        <ele>262.825</ele>
        <time>2020-04-02T16:30:24Z</time>
      </trkpt>
      <trkpt lat="43.54026" lon="1.47896">
        <ele>262.772</ele>
        <time>2020-04-02T16:30:29Z</time>
      </trkpt>
      <trkpt lat="43.54031" lon="1.47902">
        <ele>262.711</ele>
        <time>2020-04-02T16:30:35Z</time>
      </trkpt>
      <trkpt lat="43.54037" lon="1.47909">
        <ele>262.64</ele>
        <time>2020-04-02T16:30:41Z</time>
      </trkpt>
      <trkpt lat="43.54043" lon="1.47919">
        <ele>262.563</ele>
        <time>2020-04-02T16:30:46Z</time>
      </trkpt>
      <trkpt lat="43.54048" lon="1.4793">
        <ele>262.456</ele>
        <time>2020-04-02T16:30:52Z</time>
      </trkpt>
      <trkpt lat="43.54049" lon="1.47938">
        <ele>262.338</ele>
        <time>2020-04-02T16:30:58Z</time>
      </trkpt>
      <trkpt lat="43.54051" lon="1.47942">
        <ele>262.173</ele>
        <time>2020-04-02T16:31:04Z</time>
      </trkpt>
      <trkpt lat="43.54056" lon="1.47949">
        <ele>262.012</ele>
        <time>2020-04-02T16:31:10Z</time>
      </trkpt>
      <trkpt lat="43.5406" lon="1.47956">
        <ele>261.886</ele>
        <time>2020-04-02T16:31:15Z</time>
      </trkpt>
      <trkpt lat="43.54065" lon="1.47963">
        <ele>261.745</ele>
        <time>2020-04-02T16:31:21Z</time>
      </trkpt>
      <trkpt lat="43.54071" lon="1.47971">
        <ele>261.604</ele>
        <time>2020-04-02T16:31:27Z</time>
      </trkpt>
      <trkpt lat="43.54078" lon="1.47981">
        <ele>261.389</ele>
        <time>2020-04-02T16:31:33Z</time>
      </trkpt>
      <trkpt lat="43.54082" lon="1.47987">
        <ele>261.163</ele>
        <time>2020-04-02T16:31:39Z</time>
      </trkpt>
      <trkpt lat="43.54085" lon="1.47985">
        <ele>260.981</ele>
        <time>2020-04-02T16:31:44Z</time>
      </trkpt>
      <trkpt lat="43.54093" lon="1.47983">
        <ele>260.772</ele>
        <time>2020-04-02T16:31:50Z</time>
      </trkpt>
      <trkpt lat="43.541" lon="1.4798">
        <ele>260.611</ele>
        <time>2020-04-02T16:31:55Z</time>
      </trkpt>
      <trkpt lat="43.54108" lon="1.47969">
        <ele>260.385</ele>
        <time>2020-04-02T16:32:01Z</time>
      </trkpt>
      <trkpt lat="43.54111" lon="1.47961">
        <ele>260.036</ele>
        <time>2020-04-02T16:32:07Z</time>
      </trkpt>
      <trkpt lat="43.54108" lon="1.47956">
        <ele>259.712</ele>
        <time>2020-04-02T16:32:12Z</time>
      </trkpt>
      <trkpt lat="43.54113" lon="1.4796">
        <ele>259.325</ele>
        <time>2020-04-02T16:32:18Z</time>
      </trkpt>
      <trkpt lat="43.54119" lon="1.4796">
        <ele>258.926</ele>
        <time>2020-04-02T16:32:24Z</time>
      </trkpt>
      <trkpt lat="43.54124" lon="1.4796">
        <ele>258.579</ele>
        <time>2020-04-02T16:32:29Z</time>
      </trkpt>
      <trkpt lat="43.54133" lon="1.47963">
        <ele>258.152</ele>
        <time>2020-04-02T16:32:35Z</time>
      </trkpt>
      <trkpt lat="43.54144" lon="1.47966">
        <ele>257.733</ele>
        <time>2020-04-02T16:32:41Z</time>
      </trkpt>
      <trkpt lat="43.54155" lon="1.4796">
        <ele>257.331</ele>
        <time>2020-04-02T16:32:47Z</time>
      </trkpt>
      <trkpt lat="43.54158" lon="1.47956">
        <ele>257.022</ele>
        <time>2020-04-02T16:32:52Z</time>
      </trkpt>
      <trkpt lat="43.54168" lon="1.47952">
        <ele>256.68</ele>
        <time>2020-04-02T16:32:58Z</time>
      </trkpt>
      <trkpt lat="43.54174" lon="1.47945">
        <ele>256.372</ele>
        <time>2020-04-02T16:33:04Z</time>
      </trkpt>
      <trkpt lat="43.5418" lon="1.47935">
        <ele>256.091</ele>
        <time>2020-04-02T16:33:10Z</time>
      </trkpt>
      <trkpt lat="43.54183" lon="1.47931">
        <ele>255.872</ele>
        <time>2020-04-02T16:33:15Z</time>
      </trkpt>
      <trkpt lat="43.54188" lon="1.4793">
        <ele>255.635</ele>
        <time>2020-04-02T16:33:21Z</time>
      </trkpt>
      <trkpt lat="43.54196" lon="1.47931">
        <ele>255.456</ele>
        <time>2020-04-02T16:33:26Z</time>
      </trkpt>
      <trkpt lat="43.54206" lon="1.47936">
        <ele>255.27</ele>
        <time>2020-04-02T16:33:31Z</time>
      </trkpt>
      <trkpt lat="43.54217" lon="1.47941">
        <ele>255.037</ele>
        <time>2020-04-02T16:33:37Z</time>
      </trkpt>
      <trkpt lat="43.54225" lon="1.47938">
        <ele>254.803</ele>
        <time>2020-04-02T16:33:43Z</time>
      </trkpt>
      <trkpt lat="43.54229" lon="1.47936">
        <ele>254.616</ele>
        <time>2020-04-02T16:33:49Z</time>
      </trkpt>
      <trkpt lat="43.54233" lon="1.47937">
        <ele>254.442</ele>
        <time>2020-04-02T16:33:54Z</time>
      </trkpt>
      <trkpt lat="43.54244" lon="1.47938">
        <ele>254.234</ele>
        <time>2020-04-02T16:34:00Z</time>
      </trkpt>
      <trkpt lat="43.54252" lon="1.4794">
        <ele>254.061</ele>
        <time>2020-04-02T16:34:05Z</time>
      </trkpt>
      <trkpt lat="43.54257" lon="1.47941">
        <ele>253.853</ele>
        <time>2020-04-02T16:34:11Z</time>
      </trkpt>
      <trkpt lat="43.54264" lon="1.47942">
        <ele>253.683</ele>
        <time>2020-04-02T16:34:16Z</time>
      </trkpt>
      <trkpt lat="43.54273" lon="1.47945">
        <ele>253.521</ele>
        <time>2020-04-02T16:34:21Z</time>
      </trkpt>
      <trkpt lat="43.5428" lon="1.47947">
        <ele>253.37</ele>
        <time>2020-04-02T16:34:26Z</time>
      </trkpt>
      <trkpt lat="43.54284" lon="1.47944">
        <ele>253.191</ele>
        <time>2020-04-02T16:34:32Z</time>
      </trkpt>
      <trkpt lat="43.5429" lon="1.47938">
        <ele>253.001</ele>
        <time>2020-04-02T16:34:38Z</time>
      </trkpt>
      <trkpt lat="43.54295" lon="1.47937">
        <ele>252.817</ele>
        <time>2020-04-02T16:34:44Z</time>
      </trkpt>
      <trkpt lat="43.54301" lon="1.47935">
        <ele>252.635</ele>
        <time>2020-04-02T16:34:50Z</time>
      </trkpt>
      <trkpt lat="43.54306" lon="1.47933">
        <ele>252.48</ele>
        <time>2020-04-02T16:34:55Z</time>
      </trkpt>
      <trkpt lat="43.54316" lon="1.4793">
        <ele>252.27</ele>
        <time>2020-04-02T16:35:01Z</time>
      </trkpt>
      <trkpt lat="43.54326" lon="1.47923">
        <ele>252.051</ele>
        <time>2020-04-02T16:35:07Z</time>
      </trkpt>
      <trkpt lat="43.54338" lon="1.47918">
        <ele>251.872</ele>
        <time>2020-04-02T16:35:12Z</time>
      </trkpt>
      <trkpt lat="43.54347" lon="1.47912">
        <ele>251.698</ele>
        <time>2020-04-02T16:35:17Z</time>
      </trkpt>
      <trkpt lat="43.54356" lon="1.47909">
        <ele>251.5</ele>
        <time>2020-04-02T16:35:23Z</time>
      </trkpt>
      <trkpt lat="43.54368" lon="1.47905">
        <ele>251.32</ele>
        <time>2020-04-02T16:35:29Z</time>
      </trkpt>
      <trkpt lat="43.54371" lon="1.47905">
        <ele>251.152</ele>
        <time>2020-04-02T16:35:35Z</time>
      </trkpt>
      <trkpt lat="43.54382" lon="1.47904">
        <ele>251.018</ele>
        <time>2020-04-02T16:35:40Z</time>
      </trkpt>
      <trkpt lat="43.5439" lon="1.47907">
        <ele>250.837</ele>
        <time>2020-04-02T16:35:46Z</time>
      </trkpt>
      <trkpt lat="43.54396" lon="1.4791">
        <ele>250.71</ele>
        <time>2020-04-02T16:35:51Z</time>
      </trkpt>
      <trkpt lat="43.54403" lon="1.47906">
        <ele>250.524</ele>
        <time>2020-04-02T16:35:57Z</time>
      </trkpt>
      <trkpt lat="43.54406" lon="1.47903">
        <ele>250.344</ele>
        <time>2020-04-02T16:36:03Z</time>
      </trkpt>
      <trkpt lat="43.54409" lon="1.47903">
        <ele>250.155</ele>
        <time>2020-04-02T16:36:09Z</time>
      </trkpt>
      <trkpt lat="43.54418" lon="1.479">
        <ele>249.99</ele>
        <time>2020-04-02T16:36:14Z</time>
      </trkpt>
      <trkpt lat="43.54426" lon="1.47901">
        <ele>249.798</ele>
        <time>2020-04-02T16:36:20Z</time>
      </trkpt>
      <trkpt lat="43.54433" lon="1.47898">
        <ele>249.627</ele>
        <time>2020-04-02T16:36:26Z</time>
      </trkpt>
      <trkpt lat="43.54441" lon="1.47896">
        <ele>249.496</ele>
        <time>2020-04-02T16:36:31Z</time>
      </trkpt>
      <trkpt lat="43.54452" lon="1.47891">
        <ele>249.326</ele>
        <time>2020-04-02T16:36:37Z</time>
      </trkpt>
      <trkpt lat="43.54457" lon="1.47889">
        <ele>249.195</ele>
        <time>2020-04-02T16:36:42Z</time>
      </trkpt>
      <trkpt lat="43.54465" lon="1.47886">
        <ele>248.997</ele>
        <time>2020-04-02T16:36:48Z</time>
      </trkpt>
      <trkpt lat="43.54467" lon="1.47885">
        <ele>248.861</ele>
        <time>2020-04-02T16:36:53Z</time>
      </trkpt>
      <trkpt lat="43.54478" lon="1.47882">
        <ele>248.666</ele>
        <time>2020-04-02T16:36:59Z</time>
      </trkpt>
      <trkpt lat="43.54483" lon="1.47879">
        <ele>248.504</ele>
        <time>2020-04-02T16:37:04Z</time>
      </trkpt>
      <trkpt lat="43.54489" lon="1.47878">
        <ele>248.333</ele>
        <time>2020-04-02T16:37:10Z</time>
      </trkpt>
      <trkpt lat="43.54496" lon="1.47876">
        <ele>248.109</ele>
        <time>2020-04-02T16:37:16Z</time>
      </trkpt>
      <trkpt lat="43.54505" lon="1.4787">
        <ele>247.885</ele>
        <time>2020-04-02T16:37:22Z</time>
      </trkpt>
      <trkpt lat="43.54514" lon="1.47865">
        <ele>247.672</ele>
        <time>2020-04-02T16:37:28Z</time>
      </trkpt>
      <trkpt lat="43.54523" lon="1.47863">
        <ele>247.475</ele>
        <time>2020-04-02T16:37:34Z</time>
      </trkpt>
      <trkpt lat="43.54529" lon="1.47861">
        <ele>247.284</ele>
        <time>2020-04-02T16:37:40Z</time>
      </trkpt>
      <trkpt lat="43.54534" lon="1.4786">
        <ele>247.096</ele>
        <time>2020-04-02T16:37:46Z</time>
      </trkpt>
      <trkpt lat="43.54541" lon="1.47859">
        <ele>246.901</ele>
        <time>2020-04-02T16:37:52Z</time>
      </trkpt>
      <trkpt lat="43.54549" lon="1.47855">
        <ele>246.779</ele>
        <time>2020-04-02T16:37:58Z</time>
      </trkpt>
      <trkpt lat="43.5456" lon="1.47859">
        <ele>246.557</ele>
        <time>2020-04-02T16:38:04Z</time>
      </trkpt>
      <trkpt lat="43.54568" lon="1.47854">
        <ele>246.343</ele>
        <time>2020-04-02T16:38:10Z</time>
      </trkpt>
      <trkpt lat="43.54577" lon="1.47846">
        <ele>246.124</ele>
        <time>2020-04-02T16:38:16Z</time>
      </trkpt>
      <trkpt lat="43.5458" lon="1.47845">
        <ele>245.917</ele>
        <time>2020-04-02T16:38:22Z</time>
      </trkpt>
      <trkpt lat="43.54586" lon="1.47845">
        <ele>245.709</ele>
        <time>2020-04-02T16:38:28Z</time>
      </trkpt>
      <trkpt lat="43.54591" lon="1.47843">
        <ele>245.514</ele>
        <time>2020-04-02T16:38:33Z</time>
      </trkpt>
      <trkpt lat="43.54597" lon="1.47839">
        <ele>245.306</ele>
        <time>2020-04-02T16:38:38Z</time>
      </trkpt>
      <trkpt lat="43.54603" lon="1.47833">
        <ele>245.051</ele>
        <time>2020-04-02T16:38:44Z</time>
      </trkpt>
      <trkpt lat="43.5461" lon="1.47829">
        <ele>244.812</ele>
        <time>2020-04-02T16:38:50Z</time>
      </trkpt>
      <trkpt lat="43.54619" lon="1.47826">
        <ele>244.585</ele>
        <time>2020-04-02T16:38:56Z</time>
      </trkpt>
      <trkpt lat="43.54624" lon="1.47826">
        <ele>244.37</ele>
        <time>2020-04-02T16:39:02Z</time>
      </trkpt>
      <trkpt lat="43.54632" lon="1.47831">
        <ele>244.191</ele>
        <time>2020-04-02T16:39:07Z</time>
      </trkpt>
      <trkpt lat="43.5464" lon="1.47835">
        <ele>243.977</ele>
        <time>2020-04-02T16:39:13Z</time>
      </trkpt>
      <trkpt lat="43.54647" lon="1.47839">
        <ele>243.768</ele>
        <time>2020-04-02T16:39:19Z</time>
      </trkpt>
      <trkpt lat="43.54652" lon="1.47843">
        <ele>243.595</ele>
        <time>2020-04-02T16:39:24Z</time>
      </trkpt>
      <trkpt lat="43.54659" lon="1.47848">
        <ele>243.391</ele>
        <time>2020-04-02T16:39:30Z</time>
      </trkpt>
      <trkpt lat="43.54666" lon="1.47851">
        <ele>243.224</ele>
        <time>2020-04-02T16:39:35Z</time>
      </trkpt>
      <trkpt lat="43.54673" lon="1.47854">
        <ele>243.061</ele>
        <time>2020-04-02T16:39:40Z</time>
      </trkpt>
      <trkpt lat="43.5468" lon="1.47856">
        <ele>242.872</ele>
        <time>2020-04-02T16:39:46Z</time>
      </trkpt>
      <trkpt lat="43.54688" lon="1.4786">
        <ele>242.687</ele>
        <time>2020-04-02T16:39:52Z</time>
      </trkpt>
      <trkpt lat="43.54694" lon="1.47862">
        <ele>242.538</ele>
        <time>2020-04-02T16:39:57Z</time>
      </trkpt>
      <trkpt lat="43.54702" lon="1.47867">
        <ele>242.391</ele>
        <time>2020-04-02T16:40:02Z</time>
      </trkpt>
      <trkpt lat="43.54709" lon="1.47871">
        <ele>242.22</ele>
        <time>2020-04-02T16:40:08Z</time>
      </trkpt>
      <trkpt lat="43.54718" lon="1.47877">
        <ele>242.079</ele>
        <time>2020-04-02T16:40:13Z</time>
      </trkpt>
      <trkpt lat="43.54722" lon="1.47883">
        <ele>241.938</ele>
        <time>2020-04-02T16:40:18Z</time>
      </trkpt>
      <trkpt lat="43.54727" lon="1.47887">
        <ele>241.766</ele>
        <time>2020-04-02T16:40:24Z</time>
      </trkpt>
      <trkpt lat="43.54733" lon="1.4789">
        <ele>241.624</ele>
        <time>2020-04-02T16:40:29Z</time>
      </trkpt>
      <trkpt lat="43.54738" lon="1.47896">
        <ele>241.49</ele>
        <time>2020-04-02T16:40:34Z</time>
      </trkpt>
      <trkpt lat="43.5474" lon="1.4789">
        <ele>241.33</ele>
        <time>2020-04-02T16:40:40Z</time>
      </trkpt>
      <trkpt lat="43.54742" lon="1.47883">
        <ele>241.178</ele>
        <time>2020-04-02T16:40:46Z</time>
      </trkpt>
      <trkpt lat="43.54745" lon="1.47874">
        <ele>241.056</ele>
        <time>2020-04-02T16:40:51Z</time>
      </trkpt>
      <trkpt lat="43.54747" lon="1.47863">
        <ele>240.911</ele>
        <time>2020-04-02T16:40:57Z</time>
      </trkpt>
      <trkpt lat="43.5475" lon="1.47856">
        <ele>240.795</ele>
        <time>2020-04-02T16:41:02Z</time>
      </trkpt>
      <trkpt lat="43.54756" lon="1.47849">
        <ele>240.66</ele>
        <time>2020-04-02T16:41:08Z</time>
      </trkpt>
      <trkpt lat="43.54767" lon="1.47837">
        <ele>240.52</ele>
        <time>2020-04-02T16:41:14Z</time>
      </trkpt>
      <trkpt lat="43.54773" lon="1.47828">
        <ele>240.383</ele>
        <time>2020-04-02T16:41:19Z</time>
      </trkpt>
      <trkpt lat="43.54776" lon="1.47822">
        <ele>240.24</ele>
        <time>2020-04-02T16:41:24Z</time>
      </trkpt>
      <trkpt lat="43.5478" lon="1.47814">
        <ele>240.062</ele>
        <time>2020-04-02T16:41:30Z</time>
      </trkpt>
      <trkpt lat="43.54782" lon="1.47809">
        <ele>239.879</ele>
        <time>2020-04-02T16:41:36Z</time>
      </trkpt>
      <trkpt lat="43.54784" lon="1.47806">
        <ele>239.722</ele>
        <time>2020-04-02T16:41:41Z</time>
      </trkpt>
      <trkpt lat="43.54788" lon="1.47801">
        <ele>239.527</ele>
        <time>2020-04-02T16:41:47Z</time>
      </trkpt>
      <trkpt lat="43.54801" lon="1.47798">
        <ele>239.32</ele>
        <time>2020-04-02T16:41:53Z</time>
      </trkpt>
      <trkpt lat="43.54806" lon="1.47794">
        <ele>239.156</ele>
        <time>2020-04-02T16:41:58Z</time>
      </trkpt>
      <trkpt lat="43.54811" lon="1.47792">
        <ele>238.969</ele>
        <time>2020-04-02T16:42:04Z</time>
      </trkpt>
      <trkpt lat="43.54816" lon="1.47789">
        <ele>238.819</ele>
        <time>2020-04-02T16:42:09Z</time>
      </trkpt>
      <trkpt lat="43.54822" lon="1.47786">
        <ele>238.649</ele>
        <time>2020-04-02T16:42:15Z</time>
      </trkpt>
      <trkpt lat="43.54828" lon="1.47784">
        <ele>238.493</ele>
        <time>2020-04-02T16:42:21Z</time>
      </trkpt>
      <trkpt lat="43.54834" lon="1.47781">
        <ele>238.347</ele>
        <time>2020-04-02T16:42:27Z</time>
      </trkpt>
      <trkpt lat="43.54839" lon="1.47778">
        <ele>238.209</ele>
        <time>2020-04-02T16:42:33Z</time>
      </trkpt>
      <trkpt lat="43.54846" lon="1.47774">
        <ele>238.081</ele>
        <time>2020-04-02T16:42:39Z</time>
      </trkpt>
      <trkpt lat="43.54853" lon="1.4777">
        <ele>237.979</ele>
        <time>2020-04-02T16:42:44Z</time>
      </trkpt>
      <trkpt lat="43.54865" lon="1.47765">
        <ele>237.85</ele>
        <time>2020-04-02T16:42:50Z</time>
      </trkpt>
      <trkpt lat="43.54872" lon="1.47753">
        <ele>237.722</ele>
        <time>2020-04-02T16:42:55Z</time>
      </trkpt>
      <trkpt lat="43.54878" lon="1.47746">
        <ele>237.579</ele>
        <time>2020-04-02T16:43:00Z</time>
      </trkpt>
      <trkpt lat="43.54893" lon="1.47739">
        <ele>237.402</ele>
        <time>2020-04-02T16:43:06Z</time>
      </trkpt>
      <trkpt lat="43.54901" lon="1.47737">
        <ele>237.225</ele>
        <time>2020-04-02T16:43:12Z</time>
      </trkpt>
      <trkpt lat="43.54908" lon="1.47733">
        <ele>237.047</ele>
        <time>2020-04-02T16:43:18Z</time>
      </trkpt>
      <trkpt lat="43.54912" lon="1.47729">
        <ele>236.897</ele>
        <time>2020-04-02T16:43:23Z</time>
      </trkpt>
      <trkpt lat="43.54918" lon="1.47723">
        <ele>236.714</ele>
        <time>2020-04-02T16:43:29Z</time>
      </trkpt>
      <trkpt lat="43.54929" lon="1.47719">
        <ele>236.526</ele>
        <time>2020-04-02T16:43:35Z</time>
      </trkpt>
      <trkpt lat="43.54932" lon="1.47715">
        <ele>236.337</ele>
        <time>2020-04-02T16:43:41Z</time>
      </trkpt>
      <trkpt lat="43.54936" lon="1.4771">
        <ele>236.154</ele>
        <time>2020-04-02T16:43:47Z</time>
      </trkpt>
      <trkpt lat="43.54941" lon="1.47707">
        <ele>235.997</ele>
        <time>2020-04-02T16:43:52Z</time>
      </trkpt>
      <trkpt lat="43.54949" lon="1.47704">
        <ele>235.801</ele>
        <time>2020-04-02T16:43:58Z</time>
      </trkpt>
      <trkpt lat="43.54954" lon="1.47702">
        <ele>235.64</ele>
        <time>2020-04-02T16:44:03Z</time>
      </trkpt>
      <trkpt lat="43.54965" lon="1.47696">
        <ele>235.443</ele>
        <time>2020-04-02T16:44:09Z</time>
      </trkpt>
      <trkpt lat="43.54971" lon="1.47692">
        <ele>235.278</ele>
        <time>2020-04-02T16:44:14Z</time>
      </trkpt>
      <trkpt lat="43.54975" lon="1.4769">
        <ele>235.093</ele>
        <time>2020-04-02T16:44:20Z</time>
      </trkpt>
      <trkpt lat="43.54978" lon="1.47688">
        <ele>234.94</ele>
        <time>2020-04-02T16:44:25Z</time>
      </trkpt>
      <trkpt lat="43.5499" lon="1.47684">
        <ele>234.75</ele>
        <time>2020-04-02T16:44:31Z</time>
      </trkpt>
      <trkpt lat="43.54994" lon="1.47681">
        <ele>234.592</ele>
        <time>2020-04-02T16:44:36Z</time>
      </trkpt>
      <trkpt lat="43.55" lon="1.47679">
        <ele>234.434</ele>
        <time>2020-04-02T16:44:41Z</time>
      </trkpt>
      <trkpt lat="43.55008" lon="1.47677">
        <ele>234.271</ele>
        <time>2020-04-02T16:44:46Z</time>
      </trkpt>
      <trkpt lat="43.55019" lon="1.47672">
        <ele>234.068</ele>
        <time>2020-04-02T16:44:52Z</time>
      </trkpt>
      <trkpt lat="43.55023" lon="1.47669">
        <ele>233.858</ele>
        <time>2020-04-02T16:44:58Z</time>
      </trkpt>
      <trkpt lat="43.55027" lon="1.47667">
        <ele>233.67</ele>
        <time>2020-04-02T16:45:03Z</time>
      </trkpt>
      <trkpt lat="43.55031" lon="1.47668">
        <ele>233.463</ele>
        <time>2020-04-02T16:45:09Z</time>
      </trkpt>
      <trkpt lat="43.55031" lon="1.47669">
        <ele>233.402</ele>
        <time>2020-04-02T16:45:15Z</time>
      </trkpt>
      <trkpt lat="43.55032" lon="1.47669">
        <ele>233.377</ele>
        <time>2020-04-02T16:45:21Z</time>
      </trkpt>
      <trkpt lat="43.55032" lon="1.47669">
        <ele>233.355</ele>
        <time>2020-04-02T16:45:26Z</time>
      </trkpt>
    </trkseg>
  </trk>
  <trk>
    <name><![CDATA[1er avril]]></name>
    <trkseg>
      <trkpt lat="43.55039" lon="1.47679">
        <ele>174.17</ele>
        <time>2020-04-01T13:31:45Z</time>
      </trkpt>
      <trkpt lat="43.55017" lon="1.47678">
        <ele>164.977</ele>
        <time>2020-04-01T13:31:51Z</time>
      </trkpt>
      <trkpt lat="43.55027" lon="1.4768">
        <ele>195.791</ele>
        <time>2020-04-01T13:31:56Z</time>
      </trkpt>
      <trkpt lat="43.55032" lon="1.47675">
        <ele>219.378</ele>
        <time>2020-04-01T13:32:02Z</time>
      </trkpt>
      <trkpt lat="43.55032" lon="1.47675">
        <ele>214.225</ele>
        <time>2020-04-01T13:32:08Z</time>
      </trkpt>
      <trkpt lat="43.55032" lon="1.47675">
        <ele>217.895</ele>
        <time>2020-04-01T13:32:14Z</time>
      </trkpt>
      <trkpt lat="43.55032" lon="1.47675">
        <ele>217.86</ele>
        <time>2020-04-01T13:32:20Z</time>
      </trkpt>
      <trkpt lat="43.55038" lon="1.47678">
        <ele>217.877</ele>
        <time>2020-04-01T13:32:25Z</time>
      </trkpt>
      <trkpt lat="43.55038" lon="1.47678">
        <ele>217.977</ele>
        <time>2020-04-01T13:32:31Z</time>
      </trkpt>
      <trkpt lat="43.55038" lon="1.47678">
        <ele>218.169</ele>
        <time>2020-04-01T13:32:36Z</time>
      </trkpt>
      <trkpt lat="43.55038" lon="1.47678">
        <ele>217.995</ele>
        <time>2020-04-01T13:32:41Z</time>
      </trkpt>
      <trkpt lat="43.55038" lon="1.47678">
        <ele>217.87</ele>
        <time>2020-04-01T13:32:47Z</time>
      </trkpt>
      <trkpt lat="43.55038" lon="1.47678">
        <ele>216.777</ele>
        <time>2020-04-01T13:32:52Z</time>
      </trkpt>
      <trkpt lat="43.55035" lon="1.47675">
        <ele>216.058</ele>
        <time>2020-04-01T13:32:57Z</time>
      </trkpt>
      <trkpt lat="43.55035" lon="1.47675">
        <ele>215.704</ele>
        <time>2020-04-01T13:33:03Z</time>
      </trkpt>
      <trkpt lat="43.55038" lon="1.47672">
        <ele>214.436</ele>
        <time>2020-04-01T13:33:08Z</time>
      </trkpt>
      <trkpt lat="43.55044" lon="1.47664">
        <ele>213.223</ele>
        <time>2020-04-01T13:33:14Z</time>
      </trkpt>
      <trkpt lat="43.55049" lon="1.47661">
        <ele>212.47</ele>
        <time>2020-04-01T13:33:19Z</time>
      </trkpt>
      <trkpt lat="43.55053" lon="1.47658">
        <ele>211.859</ele>
        <time>2020-04-01T13:33:25Z</time>
      </trkpt>
      <trkpt lat="43.55057" lon="1.47654">
        <ele>211.455</ele>
        <time>2020-04-01T13:33:30Z</time>
      </trkpt>
      <trkpt lat="43.55063" lon="1.4765">
        <ele>211.059</ele>
        <time>2020-04-01T13:33:36Z</time>
      </trkpt>
      <trkpt lat="43.5507" lon="1.47647">
        <ele>210.82</ele>
        <time>2020-04-01T13:33:42Z</time>
      </trkpt>
      <trkpt lat="43.55071" lon="1.47648">
        <ele>210.712</ele>
        <time>2020-04-01T13:33:48Z</time>
      </trkpt>
      <trkpt lat="43.55071" lon="1.47648">
        <ele>210.677</ele>
        <time>2020-04-01T13:33:54Z</time>
      </trkpt>
      <trkpt lat="43.55071" lon="1.47648">
        <ele>210.64</ele>
        <time>2020-04-01T13:33:59Z</time>
      </trkpt>
      <trkpt lat="43.55071" lon="1.47648">
        <ele>210.587</ele>
        <time>2020-04-01T13:34:05Z</time>
      </trkpt>
      <trkpt lat="43.55071" lon="1.47648">
        <ele>210.541</ele>
        <time>2020-04-01T13:34:10Z</time>
      </trkpt>
      <trkpt lat="43.55072" lon="1.47648">
        <ele>210.258</ele>
        <time>2020-04-01T13:34:16Z</time>
      </trkpt>
      <trkpt lat="43.55072" lon="1.47647">
        <ele>210.067</ele>
        <time>2020-04-01T13:34:22Z</time>
      </trkpt>
      <trkpt lat="43.55072" lon="1.47647">
        <ele>210.03</ele>
        <time>2020-04-01T13:34:27Z</time>
      </trkpt>
      <trkpt lat="43.55072" lon="1.47647">
        <ele>209.998</ele>
        <time>2020-04-01T13:34:32Z</time>
      </trkpt>
      <trkpt lat="43.55072" lon="1.47647">
        <ele>209.914</ele>
        <time>2020-04-01T13:34:38Z</time>
      </trkpt>
      <trkpt lat="43.55073" lon="1.47645">
        <ele>209.83</ele>
        <time>2020-04-01T13:34:44Z</time>
      </trkpt>
      <trkpt lat="43.55073" lon="1.47645">
        <ele>209.606</ele>
        <time>2020-04-01T13:34:50Z</time>
      </trkpt>
      <trkpt lat="43.55074" lon="1.47641">
        <ele>209.298</ele>
        <time>2020-04-01T13:34:56Z</time>
      </trkpt>
      <trkpt lat="43.55075" lon="1.47641">
        <ele>209.127</ele>
        <time>2020-04-01T13:35:01Z</time>
      </trkpt>
      <trkpt lat="43.55075" lon="1.47641">
        <ele>209.047</ele>
        <time>2020-04-01T13:35:07Z</time>
      </trkpt>
      <trkpt lat="43.55075" lon="1.4764">
        <ele>208.929</ele>
        <time>2020-04-01T13:35:12Z</time>
      </trkpt>
      <trkpt lat="43.55075" lon="1.4764">
        <ele>208.904</ele>
        <time>2020-04-01T13:35:17Z</time>
      </trkpt>
      <trkpt lat="43.55075" lon="1.4764">
        <ele>208.88</ele>
        <time>2020-04-01T13:35:22Z</time>
      </trkpt>
      <trkpt lat="43.55075" lon="1.4764">
        <ele>208.854</ele>
        <time>2020-04-01T13:35:28Z</time>
      </trkpt>
      <trkpt lat="43.55075" lon="1.4764">
        <ele>208.833</ele>
        <time>2020-04-01T13:35:33Z</time>
      </trkpt>
      <trkpt lat="43.55076" lon="1.4764">
        <ele>208.813</ele>
        <time>2020-04-01T13:35:38Z</time>
      </trkpt>
      <trkpt lat="43.55076" lon="1.47641">
        <ele>208.796</ele>
        <time>2020-04-01T13:35:43Z</time>
      </trkpt>
      <trkpt lat="43.55076" lon="1.47641">
        <ele>208.778</ele>
        <time>2020-04-01T13:35:49Z</time>
      </trkpt>
      <trkpt lat="43.55076" lon="1.47642">
        <ele>208.737</ele>
        <time>2020-04-01T13:35:54Z</time>
      </trkpt>
      <trkpt lat="43.55076" lon="1.47642">
        <ele>208.697</ele>
        <time>2020-04-01T13:35:59Z</time>
      </trkpt>
      <trkpt lat="43.55076" lon="1.47642">
        <ele>208.681</ele>
        <time>2020-04-01T13:36:05Z</time>
      </trkpt>
      <trkpt lat="43.55076" lon="1.47641">
        <ele>208.643</ele>
        <time>2020-04-01T13:36:11Z</time>
      </trkpt>
      <trkpt lat="43.55076" lon="1.47641">
        <ele>208.628</ele>
        <time>2020-04-01T13:36:17Z</time>
      </trkpt>
      <trkpt lat="43.55076" lon="1.47642">
        <ele>208.612</ele>
        <time>2020-04-01T13:36:23Z</time>
      </trkpt>
      <trkpt lat="43.55076" lon="1.47641">
        <ele>208.575</ele>
        <time>2020-04-01T13:36:28Z</time>
      </trkpt>
      <trkpt lat="43.55076" lon="1.47641">
        <ele>208.558</ele>
        <time>2020-04-01T13:36:34Z</time>
      </trkpt>
      <trkpt lat="43.55076" lon="1.47641">
        <ele>208.508</ele>
        <time>2020-04-01T13:36:40Z</time>
      </trkpt>
      <trkpt lat="43.55076" lon="1.47642">
        <ele>208.488</ele>
        <time>2020-04-01T13:36:46Z</time>
      </trkpt>
      <trkpt lat="43.55076" lon="1.47643">
        <ele>208.467</ele>
        <time>2020-04-01T13:36:52Z</time>
      </trkpt>
      <trkpt lat="43.55076" lon="1.47644">
        <ele>208.423</ele>
        <time>2020-04-01T13:36:57Z</time>
      </trkpt>
      <trkpt lat="43.55076" lon="1.47646">
        <ele>208.303</ele>
        <time>2020-04-01T13:37:02Z</time>
      </trkpt>
      <trkpt lat="43.55077" lon="1.47646">
        <ele>208.267</ele>
        <time>2020-04-01T13:37:08Z</time>
      </trkpt>
      <trkpt lat="43.55077" lon="1.47645">
        <ele>208.255</ele>
        <time>2020-04-01T13:37:13Z</time>
      </trkpt>
      <trkpt lat="43.55077" lon="1.47645">
        <ele>208.2</ele>
        <time>2020-04-01T13:37:19Z</time>
      </trkpt>
      <trkpt lat="43.55077" lon="1.47645">
        <ele>208.189</ele>
        <time>2020-04-01T13:37:24Z</time>
      </trkpt>
      <trkpt lat="43.55077" lon="1.47644">
        <ele>208.156</ele>
        <time>2020-04-01T13:37:29Z</time>
      </trkpt>
      <trkpt lat="43.55077" lon="1.47643">
        <ele>208.122</ele>
        <time>2020-04-01T13:37:35Z</time>
      </trkpt>
      <trkpt lat="43.55076" lon="1.47644">
        <ele>208.11</ele>
        <time>2020-04-01T13:37:40Z</time>
      </trkpt>
      <trkpt lat="43.55076" lon="1.47645">
        <ele>208.096</ele>
        <time>2020-04-01T13:37:46Z</time>
      </trkpt>
      <trkpt lat="43.55076" lon="1.47645">
        <ele>208.085</ele>
        <time>2020-04-01T13:37:51Z</time>
      </trkpt>
      <trkpt lat="43.55076" lon="1.47646">
        <ele>208.037</ele>
        <time>2020-04-01T13:37:56Z</time>
      </trkpt>
      <trkpt lat="43.55076" lon="1.47645">
        <ele>208.024</ele>
        <time>2020-04-01T13:38:02Z</time>
      </trkpt>
      <trkpt lat="43.55076" lon="1.47644">
        <ele>207.974</ele>
        <time>2020-04-01T13:38:08Z</time>
      </trkpt>
      <trkpt lat="43.55076" lon="1.47644">
        <ele>207.965</ele>
        <time>2020-04-01T13:38:13Z</time>
      </trkpt>
      <trkpt lat="43.55078" lon="1.47645">
        <ele>207.901</ele>
        <time>2020-04-01T13:38:18Z</time>
      </trkpt>
      <trkpt lat="43.55082" lon="1.4764">
        <ele>207.828</ele>
        <time>2020-04-01T13:38:23Z</time>
      </trkpt>
      <trkpt lat="43.55091" lon="1.47631">
        <ele>207.752</ele>
        <time>2020-04-01T13:38:29Z</time>
      </trkpt>
      <trkpt lat="43.55102" lon="1.47629">
        <ele>207.693</ele>
        <time>2020-04-01T13:38:35Z</time>
      </trkpt>
      <trkpt lat="43.55111" lon="1.47623">
        <ele>207.645</ele>
        <time>2020-04-01T13:38:41Z</time>
      </trkpt>
      <trkpt lat="43.55116" lon="1.47617">
        <ele>207.609</ele>
        <time>2020-04-01T13:38:47Z</time>
      </trkpt>
      <trkpt lat="43.55121" lon="1.47615">
        <ele>207.581</ele>
        <time>2020-04-01T13:38:53Z</time>
      </trkpt>
      <trkpt lat="43.55124" lon="1.47617">
        <ele>207.558</ele>
        <time>2020-04-01T13:38:58Z</time>
      </trkpt>
      <trkpt lat="43.55127" lon="1.47619">
        <ele>207.534</ele>
        <time>2020-04-01T13:39:04Z</time>
      </trkpt>
      <trkpt lat="43.55134" lon="1.47618">
        <ele>207.526</ele>
        <time>2020-04-01T13:39:09Z</time>
      </trkpt>
      <trkpt lat="43.55142" lon="1.47616">
        <ele>207.525</ele>
        <time>2020-04-01T13:39:15Z</time>
      </trkpt>
      <trkpt lat="43.55149" lon="1.47612">
        <ele>207.527</ele>
        <time>2020-04-01T13:39:21Z</time>
      </trkpt>
      <trkpt lat="43.55155" lon="1.47607">
        <ele>207.527</ele>
        <time>2020-04-01T13:39:26Z</time>
      </trkpt>
      <trkpt lat="43.55162" lon="1.47603">
        <ele>207.527</ele>
        <time>2020-04-01T13:39:32Z</time>
      </trkpt>
      <trkpt lat="43.55168" lon="1.47601">
        <ele>207.528</ele>
        <time>2020-04-01T13:39:38Z</time>
      </trkpt>
      <trkpt lat="43.55172" lon="1.47596">
        <ele>207.53</ele>
        <time>2020-04-01T13:39:43Z</time>
      </trkpt>
      <trkpt lat="43.55178" lon="1.47584">
        <ele>207.543</ele>
        <time>2020-04-01T13:39:49Z</time>
      </trkpt>
      <trkpt lat="43.55182" lon="1.47575">
        <ele>207.56</ele>
        <time>2020-04-01T13:39:55Z</time>
      </trkpt>
      <trkpt lat="43.55186" lon="1.4757">
        <ele>207.576</ele>
        <time>2020-04-01T13:40:01Z</time>
      </trkpt>
      <trkpt lat="43.5519" lon="1.47564">
        <ele>207.59</ele>
        <time>2020-04-01T13:40:07Z</time>
      </trkpt>
      <trkpt lat="43.55196" lon="1.47564">
        <ele>207.605</ele>
        <time>2020-04-01T13:40:13Z</time>
      </trkpt>
      <trkpt lat="43.552" lon="1.4756">
        <ele>207.616</ele>
        <time>2020-04-01T13:40:19Z</time>
      </trkpt>
      <trkpt lat="43.55203" lon="1.47555">
        <ele>207.622</ele>
        <time>2020-04-01T13:40:24Z</time>
      </trkpt>
      <trkpt lat="43.55207" lon="1.47551">
        <ele>207.63</ele>
        <time>2020-04-01T13:40:30Z</time>
      </trkpt>
      <trkpt lat="43.55214" lon="1.47546">
        <ele>207.636</ele>
        <time>2020-04-01T13:40:36Z</time>
      </trkpt>
      <trkpt lat="43.55212" lon="1.47549">
        <ele>207.636</ele>
        <time>2020-04-01T13:40:42Z</time>
      </trkpt>
      <trkpt lat="43.55221" lon="1.47539">
        <ele>207.636</ele>
        <time>2020-04-01T13:40:48Z</time>
      </trkpt>
      <trkpt lat="43.55228" lon="1.47534">
        <ele>207.638</ele>
        <time>2020-04-01T13:40:53Z</time>
      </trkpt>
      <trkpt lat="43.55233" lon="1.47533">
        <ele>207.642</ele>
        <time>2020-04-01T13:40:58Z</time>
      </trkpt>
      <trkpt lat="43.55239" lon="1.4754">
        <ele>207.648</ele>
        <time>2020-04-01T13:41:04Z</time>
      </trkpt>
      <trkpt lat="43.55246" lon="1.47542">
        <ele>207.655</ele>
        <time>2020-04-01T13:41:10Z</time>
      </trkpt>
      <trkpt lat="43.55248" lon="1.47547">
        <ele>207.658</ele>
        <time>2020-04-01T13:41:16Z</time>
      </trkpt>
      <trkpt lat="43.55254" lon="1.47549">
        <ele>207.658</ele>
        <time>2020-04-01T13:41:21Z</time>
      </trkpt>
      <trkpt lat="43.55259" lon="1.47551">
        <ele>207.659</ele>
        <time>2020-04-01T13:41:27Z</time>
      </trkpt>
      <trkpt lat="43.55258" lon="1.47554">
        <ele>207.662</ele>
        <time>2020-04-01T13:41:32Z</time>
      </trkpt>
      <trkpt lat="43.55259" lon="1.47556">
        <ele>207.672</ele>
        <time>2020-04-01T13:41:38Z</time>
      </trkpt>
      <trkpt lat="43.55267" lon="1.47555">
        <ele>207.692</ele>
        <time>2020-04-01T13:41:44Z</time>
      </trkpt>
      <trkpt lat="43.55275" lon="1.47552">
        <ele>207.717</ele>
        <time>2020-04-01T13:41:50Z</time>
      </trkpt>
      <trkpt lat="43.55282" lon="1.4755">
        <ele>207.738</ele>
        <time>2020-04-01T13:41:55Z</time>
      </trkpt>
      <trkpt lat="43.55292" lon="1.47542">
        <ele>207.726</ele>
        <time>2020-04-01T13:42:01Z</time>
      </trkpt>
      <trkpt lat="43.55299" lon="1.47539">
        <ele>207.649</ele>
        <time>2020-04-01T13:42:07Z</time>
      </trkpt>
      <trkpt lat="43.553" lon="1.47538">
        <ele>207.551</ele>
        <time>2020-04-01T13:42:13Z</time>
      </trkpt>
      <trkpt lat="43.55302" lon="1.47536">
        <ele>207.404</ele>
        <time>2020-04-01T13:42:19Z</time>
      </trkpt>
      <trkpt lat="43.55312" lon="1.4753">
        <ele>207.286</ele>
        <time>2020-04-01T13:42:24Z</time>
      </trkpt>
      <trkpt lat="43.55315" lon="1.47535">
        <ele>207.205</ele>
        <time>2020-04-01T13:42:29Z</time>
      </trkpt>
      <trkpt lat="43.55315" lon="1.47548">
        <ele>207.166</ele>
        <time>2020-04-01T13:42:35Z</time>
      </trkpt>
      <trkpt lat="43.55317" lon="1.47556">
        <ele>207.12</ele>
        <time>2020-04-01T13:42:40Z</time>
      </trkpt>
      <trkpt lat="43.55322" lon="1.47564">
        <ele>207.067</ele>
        <time>2020-04-01T13:42:46Z</time>
      </trkpt>
      <trkpt lat="43.55326" lon="1.47571">
        <ele>207.038</ele>
        <time>2020-04-01T13:42:52Z</time>
      </trkpt>
      <trkpt lat="43.55329" lon="1.47574">
        <ele>206.983</ele>
        <time>2020-04-01T13:42:57Z</time>
      </trkpt>
      <trkpt lat="43.55335" lon="1.47574">
        <ele>206.912</ele>
        <time>2020-04-01T13:43:03Z</time>
      </trkpt>
      <trkpt lat="43.5534" lon="1.47574">
        <ele>206.875</ele>
        <time>2020-04-01T13:43:08Z</time>
      </trkpt>
      <trkpt lat="43.55346" lon="1.47573">
        <ele>206.824</ele>
        <time>2020-04-01T13:43:14Z</time>
      </trkpt>
      <trkpt lat="43.55352" lon="1.47568">
        <ele>206.773</ele>
        <time>2020-04-01T13:43:20Z</time>
      </trkpt>
      <trkpt lat="43.55359" lon="1.47569">
        <ele>206.788</ele>
        <time>2020-04-01T13:43:25Z</time>
      </trkpt>
      <trkpt lat="43.55367" lon="1.47574">
        <ele>206.857</ele>
        <time>2020-04-01T13:43:31Z</time>
      </trkpt>
      <trkpt lat="43.55372" lon="1.47564">
        <ele>206.961</ele>
        <time>2020-04-01T13:43:37Z</time>
      </trkpt>
      <trkpt lat="43.55378" lon="1.47556">
        <ele>207.071</ele>
        <time>2020-04-01T13:43:42Z</time>
      </trkpt>
      <trkpt lat="43.55379" lon="1.47544">
        <ele>207.213</ele>
        <time>2020-04-01T13:43:48Z</time>
      </trkpt>
      <trkpt lat="43.55379" lon="1.47534">
        <ele>207.344</ele>
        <time>2020-04-01T13:43:53Z</time>
      </trkpt>
      <trkpt lat="43.55381" lon="1.47528">
        <ele>207.523</ele>
        <time>2020-04-01T13:43:59Z</time>
      </trkpt>
      <trkpt lat="43.55381" lon="1.47518">
        <ele>207.717</ele>
        <time>2020-04-01T13:44:05Z</time>
      </trkpt>
      <trkpt lat="43.55379" lon="1.47509">
        <ele>207.894</ele>
        <time>2020-04-01T13:44:10Z</time>
      </trkpt>
      <trkpt lat="43.55382" lon="1.47502">
        <ele>208.112</ele>
        <time>2020-04-01T13:44:16Z</time>
      </trkpt>
      <trkpt lat="43.55385" lon="1.47496">
        <ele>208.282</ele>
        <time>2020-04-01T13:44:21Z</time>
      </trkpt>
      <trkpt lat="43.55387" lon="1.47489">
        <ele>208.472</ele>
        <time>2020-04-01T13:44:27Z</time>
      </trkpt>
      <trkpt lat="43.55387" lon="1.4748">
        <ele>208.656</ele>
        <time>2020-04-01T13:44:33Z</time>
      </trkpt>
      <trkpt lat="43.55386" lon="1.47472">
        <ele>208.805</ele>
        <time>2020-04-01T13:44:38Z</time>
      </trkpt>
      <trkpt lat="43.55385" lon="1.47464">
        <ele>208.949</ele>
        <time>2020-04-01T13:44:43Z</time>
      </trkpt>
      <trkpt lat="43.55386" lon="1.47457">
        <ele>209.09</ele>
        <time>2020-04-01T13:44:48Z</time>
      </trkpt>
      <trkpt lat="43.55386" lon="1.47447">
        <ele>209.265</ele>
        <time>2020-04-01T13:44:54Z</time>
      </trkpt>
      <trkpt lat="43.55385" lon="1.47438">
        <ele>209.45</ele>
        <time>2020-04-01T13:45:00Z</time>
      </trkpt>
      <trkpt lat="43.55383" lon="1.47432">
        <ele>209.616</ele>
        <time>2020-04-01T13:45:05Z</time>
      </trkpt>
      <trkpt lat="43.55381" lon="1.4742">
        <ele>209.824</ele>
        <time>2020-04-01T13:45:11Z</time>
      </trkpt>
      <trkpt lat="43.55381" lon="1.47413">
        <ele>210.003</ele>
        <time>2020-04-01T13:45:16Z</time>
      </trkpt>
      <trkpt lat="43.55381" lon="1.47407">
        <ele>210.182</ele>
        <time>2020-04-01T13:45:21Z</time>
      </trkpt>
      <trkpt lat="43.55379" lon="1.47398">
        <ele>210.4</ele>
        <time>2020-04-01T13:45:27Z</time>
      </trkpt>
      <trkpt lat="43.5538" lon="1.47393">
        <ele>210.57</ele>
        <time>2020-04-01T13:45:32Z</time>
      </trkpt>
      <trkpt lat="43.5538" lon="1.47386">
        <ele>210.754</ele>
        <time>2020-04-01T13:45:38Z</time>
      </trkpt>
      <trkpt lat="43.55381" lon="1.47379">
        <ele>210.915</ele>
        <time>2020-04-01T13:45:44Z</time>
      </trkpt>
      <trkpt lat="43.55378" lon="1.47373">
        <ele>211.056</ele>
        <time>2020-04-01T13:45:50Z</time>
      </trkpt>
      <trkpt lat="43.55372" lon="1.47365">
        <ele>211.143</ele>
        <time>2020-04-01T13:45:55Z</time>
      </trkpt>
      <trkpt lat="43.5537" lon="1.47356">
        <ele>211.232</ele>
        <time>2020-04-01T13:46:01Z</time>
      </trkpt>
      <trkpt lat="43.55371" lon="1.47345">
        <ele>211.333</ele>
        <time>2020-04-01T13:46:07Z</time>
      </trkpt>
      <trkpt lat="43.5537" lon="1.47338">
        <ele>211.413</ele>
        <time>2020-04-01T13:46:12Z</time>
      </trkpt>
      <trkpt lat="43.5537" lon="1.47331">
        <ele>211.488</ele>
        <time>2020-04-01T13:46:17Z</time>
      </trkpt>
      <trkpt lat="43.55371" lon="1.4733">
        <ele>211.509</ele>
        <time>2020-04-01T13:46:22Z</time>
      </trkpt>
      <trkpt lat="43.55371" lon="1.47325">
        <ele>211.592</ele>
        <time>2020-04-01T13:46:28Z</time>
      </trkpt>
      <trkpt lat="43.5537" lon="1.47317">
        <ele>211.675</ele>
        <time>2020-04-01T13:46:34Z</time>
      </trkpt>
      <trkpt lat="43.55369" lon="1.4731">
        <ele>211.737</ele>
        <time>2020-04-01T13:46:39Z</time>
      </trkpt>
      <trkpt lat="43.55369" lon="1.47306">
        <ele>211.773</ele>
        <time>2020-04-01T13:46:44Z</time>
      </trkpt>
      <trkpt lat="43.55369" lon="1.47302">
        <ele>211.822</ele>
        <time>2020-04-01T13:46:49Z</time>
      </trkpt>
      <trkpt lat="43.55367" lon="1.47293">
        <ele>211.868</ele>
        <time>2020-04-01T13:46:55Z</time>
      </trkpt>
      <trkpt lat="43.55366" lon="1.47284">
        <ele>211.898</ele>
        <time>2020-04-01T13:47:01Z</time>
      </trkpt>
      <trkpt lat="43.55364" lon="1.47274">
        <ele>211.919</ele>
        <time>2020-04-01T13:47:07Z</time>
      </trkpt>
      <trkpt lat="43.55362" lon="1.47264">
        <ele>211.937</ele>
        <time>2020-04-01T13:47:12Z</time>
      </trkpt>
      <trkpt lat="43.55363" lon="1.47256">
        <ele>211.98</ele>
        <time>2020-04-01T13:47:18Z</time>
      </trkpt>
      <trkpt lat="43.55362" lon="1.47252">
        <ele>212.015</ele>
        <time>2020-04-01T13:47:23Z</time>
      </trkpt>
      <trkpt lat="43.55362" lon="1.47244">
        <ele>212.056</ele>
        <time>2020-04-01T13:47:29Z</time>
      </trkpt>
      <trkpt lat="43.5536" lon="1.47236">
        <ele>212.096</ele>
        <time>2020-04-01T13:47:35Z</time>
      </trkpt>
      <trkpt lat="43.55355" lon="1.47227">
        <ele>212.132</ele>
        <time>2020-04-01T13:47:41Z</time>
      </trkpt>
      <trkpt lat="43.55351" lon="1.47223">
        <ele>212.174</ele>
        <time>2020-04-01T13:47:47Z</time>
      </trkpt>
      <trkpt lat="43.5535" lon="1.4722">
        <ele>212.202</ele>
        <time>2020-04-01T13:47:52Z</time>
      </trkpt>
      <trkpt lat="43.55351" lon="1.47215">
        <ele>212.246</ele>
        <time>2020-04-01T13:47:58Z</time>
      </trkpt>
      <trkpt lat="43.55352" lon="1.47211">
        <ele>212.284</ele>
        <time>2020-04-01T13:48:03Z</time>
      </trkpt>
      <trkpt lat="43.55352" lon="1.47206">
        <ele>212.331</ele>
        <time>2020-04-01T13:48:09Z</time>
      </trkpt>
      <trkpt lat="43.55355" lon="1.47199">
        <ele>212.371</ele>
        <time>2020-04-01T13:48:14Z</time>
      </trkpt>
      <trkpt lat="43.55359" lon="1.47193">
        <ele>212.413</ele>
        <time>2020-04-01T13:48:19Z</time>
      </trkpt>
      <trkpt lat="43.55364" lon="1.47186">
        <ele>212.468</ele>
        <time>2020-04-01T13:48:25Z</time>
      </trkpt>
      <trkpt lat="43.55368" lon="1.47178">
        <ele>212.517</ele>
        <time>2020-04-01T13:48:30Z</time>
      </trkpt>
      <trkpt lat="43.55372" lon="1.47173">
        <ele>212.57</ele>
        <time>2020-04-01T13:48:36Z</time>
      </trkpt>
      <trkpt lat="43.55376" lon="1.47167">
        <ele>212.616</ele>
        <time>2020-04-01T13:48:42Z</time>
      </trkpt>
      <trkpt lat="43.55379" lon="1.47164">
        <ele>212.657</ele>
        <time>2020-04-01T13:48:47Z</time>
      </trkpt>
      <trkpt lat="43.55382" lon="1.47163">
        <ele>212.712</ele>
        <time>2020-04-01T13:48:53Z</time>
      </trkpt>
      <trkpt lat="43.55389" lon="1.47156">
        <ele>212.77</ele>
        <time>2020-04-01T13:48:59Z</time>
      </trkpt>
      <trkpt lat="43.55391" lon="1.47154">
        <ele>212.817</ele>
        <time>2020-04-01T13:49:05Z</time>
      </trkpt>
      <trkpt lat="43.55391" lon="1.47153">
        <ele>212.871</ele>
        <time>2020-04-01T13:49:11Z</time>
      </trkpt>
      <trkpt lat="43.55392" lon="1.4715">
        <ele>212.918</ele>
        <time>2020-04-01T13:49:16Z</time>
      </trkpt>
      <trkpt lat="43.55393" lon="1.47143">
        <ele>212.962</ele>
        <time>2020-04-01T13:49:22Z</time>
      </trkpt>
      <trkpt lat="43.55392" lon="1.47138">
        <ele>212.991</ele>
        <time>2020-04-01T13:49:27Z</time>
      </trkpt>
      <trkpt lat="43.55391" lon="1.47134">
        <ele>213.015</ele>
        <time>2020-04-01T13:49:32Z</time>
      </trkpt>
      <trkpt lat="43.55392" lon="1.47129">
        <ele>213.036</ele>
        <time>2020-04-01T13:49:38Z</time>
      </trkpt>
      <trkpt lat="43.55392" lon="1.47122">
        <ele>213.046</ele>
        <time>2020-04-01T13:49:43Z</time>
      </trkpt>
      <trkpt lat="43.55393" lon="1.47112">
        <ele>213.052</ele>
        <time>2020-04-01T13:49:49Z</time>
      </trkpt>
      <trkpt lat="43.55394" lon="1.47105">
        <ele>213.045</ele>
        <time>2020-04-01T13:49:54Z</time>
      </trkpt>
      <trkpt lat="43.55394" lon="1.47104">
        <ele>213.041</ele>
        <time>2020-04-01T13:50:00Z</time>
      </trkpt>
      <trkpt lat="43.55394" lon="1.47097">
        <ele>213.028</ele>
        <time>2020-04-01T13:50:06Z</time>
      </trkpt>
      <trkpt lat="43.55395" lon="1.4709">
        <ele>213.02</ele>
        <time>2020-04-01T13:50:11Z</time>
      </trkpt>
      <trkpt lat="43.55395" lon="1.47083">
        <ele>213.01</ele>
        <time>2020-04-01T13:50:17Z</time>
      </trkpt>
      <trkpt lat="43.55395" lon="1.47076">
        <ele>213.002</ele>
        <time>2020-04-01T13:50:22Z</time>
      </trkpt>
      <trkpt lat="43.55394" lon="1.47068">
        <ele>212.994</ele>
        <time>2020-04-01T13:50:28Z</time>
      </trkpt>
      <trkpt lat="43.55394" lon="1.47062">
        <ele>212.989</ele>
        <time>2020-04-01T13:50:33Z</time>
      </trkpt>
      <trkpt lat="43.55396" lon="1.47053">
        <ele>212.983</ele>
        <time>2020-04-01T13:50:39Z</time>
      </trkpt>
      <trkpt lat="43.55396" lon="1.47045">
        <ele>212.981</ele>
        <time>2020-04-01T13:50:44Z</time>
      </trkpt>
      <trkpt lat="43.55398" lon="1.47036">
        <ele>212.984</ele>
        <time>2020-04-01T13:50:50Z</time>
      </trkpt>
      <trkpt lat="43.55398" lon="1.47028">
        <ele>212.989</ele>
        <time>2020-04-01T13:50:55Z</time>
      </trkpt>
      <trkpt lat="43.55399" lon="1.47019">
        <ele>212.998</ele>
        <time>2020-04-01T13:51:01Z</time>
      </trkpt>
      <trkpt lat="43.55399" lon="1.47013">
        <ele>213.007</ele>
        <time>2020-04-01T13:51:06Z</time>
      </trkpt>
      <trkpt lat="43.554" lon="1.47002">
        <ele>213.025</ele>
        <time>2020-04-01T13:51:12Z</time>
      </trkpt>
      <trkpt lat="43.55403" lon="1.46994">
        <ele>213.05</ele>
        <time>2020-04-01T13:51:18Z</time>
      </trkpt>
      <trkpt lat="43.55405" lon="1.46986">
        <ele>213.078</ele>
        <time>2020-04-01T13:51:24Z</time>
      </trkpt>
      <trkpt lat="43.55406" lon="1.46982">
        <ele>213.105</ele>
        <time>2020-04-01T13:51:30Z</time>
      </trkpt>
      <trkpt lat="43.55409" lon="1.46973">
        <ele>213.128</ele>
        <time>2020-04-01T13:51:36Z</time>
      </trkpt>
      <trkpt lat="43.55411" lon="1.46965">
        <ele>213.145</ele>
        <time>2020-04-01T13:51:42Z</time>
      </trkpt>
      <trkpt lat="43.55412" lon="1.4696">
        <ele>213.154</ele>
        <time>2020-04-01T13:51:48Z</time>
      </trkpt>
      <trkpt lat="43.55414" lon="1.46955">
        <ele>213.158</ele>
        <time>2020-04-01T13:51:53Z</time>
      </trkpt>
      <trkpt lat="43.55417" lon="1.46949">
        <ele>213.157</ele>
        <time>2020-04-01T13:51:59Z</time>
      </trkpt>
      <trkpt lat="43.55421" lon="1.46941">
        <ele>213.155</ele>
        <time>2020-04-01T13:52:05Z</time>
      </trkpt>
      <trkpt lat="43.55424" lon="1.46935">
        <ele>213.148</ele>
        <time>2020-04-01T13:52:10Z</time>
      </trkpt>
      <trkpt lat="43.55428" lon="1.46925">
        <ele>213.133</ele>
        <time>2020-04-01T13:52:16Z</time>
      </trkpt>
      <trkpt lat="43.55432" lon="1.46915">
        <ele>213.114</ele>
        <time>2020-04-01T13:52:22Z</time>
      </trkpt>
      <trkpt lat="43.55434" lon="1.46906">
        <ele>213.101</ele>
        <time>2020-04-01T13:52:27Z</time>
      </trkpt>
      <trkpt lat="43.55436" lon="1.46896">
        <ele>213.089</ele>
        <time>2020-04-01T13:52:33Z</time>
      </trkpt>
      <trkpt lat="43.55438" lon="1.4689">
        <ele>213.077</ele>
        <time>2020-04-01T13:52:38Z</time>
      </trkpt>
      <trkpt lat="43.55441" lon="1.46883">
        <ele>213.065</ele>
        <time>2020-04-01T13:52:44Z</time>
      </trkpt>
      <trkpt lat="43.55444" lon="1.46877">
        <ele>213.055</ele>
        <time>2020-04-01T13:52:49Z</time>
      </trkpt>
      <trkpt lat="43.55448" lon="1.46867">
        <ele>213.05</ele>
        <time>2020-04-01T13:52:55Z</time>
      </trkpt>
      <trkpt lat="43.55451" lon="1.46859">
        <ele>213.066</ele>
        <time>2020-04-01T13:53:00Z</time>
      </trkpt>
      <trkpt lat="43.55455" lon="1.46853">
        <ele>213.097</ele>
        <time>2020-04-01T13:53:06Z</time>
      </trkpt>
      <trkpt lat="43.55458" lon="1.46844">
        <ele>213.137</ele>
        <time>2020-04-01T13:53:12Z</time>
      </trkpt>
      <trkpt lat="43.55461" lon="1.46838">
        <ele>213.176</ele>
        <time>2020-04-01T13:53:17Z</time>
      </trkpt>
      <trkpt lat="43.55463" lon="1.4683">
        <ele>213.221</ele>
        <time>2020-04-01T13:53:23Z</time>
      </trkpt>
      <trkpt lat="43.55467" lon="1.46821">
        <ele>213.263</ele>
        <time>2020-04-01T13:53:29Z</time>
      </trkpt>
      <trkpt lat="43.55471" lon="1.46814">
        <ele>213.306</ele>
        <time>2020-04-01T13:53:35Z</time>
      </trkpt>
      <trkpt lat="43.55474" lon="1.46804">
        <ele>213.342</ele>
        <time>2020-04-01T13:53:40Z</time>
      </trkpt>
      <trkpt lat="43.55476" lon="1.46793">
        <ele>213.395</ele>
        <time>2020-04-01T13:53:46Z</time>
      </trkpt>
      <trkpt lat="43.5548" lon="1.46787">
        <ele>213.45</ele>
        <time>2020-04-01T13:53:52Z</time>
      </trkpt>
      <trkpt lat="43.55476" lon="1.4678">
        <ele>213.494</ele>
        <time>2020-04-01T13:53:57Z</time>
      </trkpt>
      <trkpt lat="43.55471" lon="1.46774">
        <ele>213.541</ele>
        <time>2020-04-01T13:54:03Z</time>
      </trkpt>
      <trkpt lat="43.55468" lon="1.46769">
        <ele>213.574</ele>
        <time>2020-04-01T13:54:08Z</time>
      </trkpt>
      <trkpt lat="43.55464" lon="1.46762">
        <ele>213.609</ele>
        <time>2020-04-01T13:54:14Z</time>
      </trkpt>
      <trkpt lat="43.55461" lon="1.46754">
        <ele>213.647</ele>
        <time>2020-04-01T13:54:20Z</time>
      </trkpt>
      <trkpt lat="43.5546" lon="1.46744">
        <ele>213.689</ele>
        <time>2020-04-01T13:54:26Z</time>
      </trkpt>
      <trkpt lat="43.55461" lon="1.46735">
        <ele>213.737</ele>
        <time>2020-04-01T13:54:32Z</time>
      </trkpt>
      <trkpt lat="43.55462" lon="1.46727">
        <ele>213.788</ele>
        <time>2020-04-01T13:54:37Z</time>
      </trkpt>
      <trkpt lat="43.55466" lon="1.46719">
        <ele>213.855</ele>
        <time>2020-04-01T13:54:43Z</time>
      </trkpt>
      <trkpt lat="43.5547" lon="1.46709">
        <ele>213.93</ele>
        <time>2020-04-01T13:54:49Z</time>
      </trkpt>
      <trkpt lat="43.55473" lon="1.46702">
        <ele>214.01</ele>
        <time>2020-04-01T13:54:55Z</time>
      </trkpt>
      <trkpt lat="43.55475" lon="1.46696">
        <ele>214.091</ele>
        <time>2020-04-01T13:55:01Z</time>
      </trkpt>
      <trkpt lat="43.55478" lon="1.46692">
        <ele>214.152</ele>
        <time>2020-04-01T13:55:06Z</time>
      </trkpt>
      <trkpt lat="43.55483" lon="1.46687">
        <ele>214.217</ele>
        <time>2020-04-01T13:55:12Z</time>
      </trkpt>
      <trkpt lat="43.55487" lon="1.46683">
        <ele>214.266</ele>
        <time>2020-04-01T13:55:17Z</time>
      </trkpt>
      <trkpt lat="43.5549" lon="1.46678">
        <ele>214.307</ele>
        <time>2020-04-01T13:55:22Z</time>
      </trkpt>
      <trkpt lat="43.55494" lon="1.46673">
        <ele>214.344</ele>
        <time>2020-04-01T13:55:28Z</time>
      </trkpt>
      <trkpt lat="43.55499" lon="1.46667">
        <ele>214.368</ele>
        <time>2020-04-01T13:55:34Z</time>
      </trkpt>
      <trkpt lat="43.55504" lon="1.46663">
        <ele>214.379</ele>
        <time>2020-04-01T13:55:39Z</time>
      </trkpt>
      <trkpt lat="43.55512" lon="1.46659">
        <ele>214.384</ele>
        <time>2020-04-01T13:55:44Z</time>
      </trkpt>
      <trkpt lat="43.5552" lon="1.46654">
        <ele>214.391</ele>
        <time>2020-04-01T13:55:50Z</time>
      </trkpt>
      <trkpt lat="43.55527" lon="1.46647">
        <ele>214.407</ele>
        <time>2020-04-01T13:55:56Z</time>
      </trkpt>
      <trkpt lat="43.55531" lon="1.46644">
        <ele>214.423</ele>
        <time>2020-04-01T13:56:02Z</time>
      </trkpt>
      <trkpt lat="43.55536" lon="1.46639">
        <ele>214.446</ele>
        <time>2020-04-01T13:56:08Z</time>
      </trkpt>
      <trkpt lat="43.5554" lon="1.46635">
        <ele>214.472</ele>
        <time>2020-04-01T13:56:13Z</time>
      </trkpt>
      <trkpt lat="43.55544" lon="1.4663">
        <ele>214.501</ele>
        <time>2020-04-01T13:56:18Z</time>
      </trkpt>
      <trkpt lat="43.55549" lon="1.46625">
        <ele>214.531</ele>
        <time>2020-04-01T13:56:23Z</time>
      </trkpt>
      <trkpt lat="43.55554" lon="1.4662">
        <ele>214.565</ele>
        <time>2020-04-01T13:56:29Z</time>
      </trkpt>
      <trkpt lat="43.5556" lon="1.46616">
        <ele>214.591</ele>
        <time>2020-04-01T13:56:34Z</time>
      </trkpt>
      <trkpt lat="43.55566" lon="1.4661">
        <ele>214.618</ele>
        <time>2020-04-01T13:56:40Z</time>
      </trkpt>
      <trkpt lat="43.55569" lon="1.46605">
        <ele>214.632</ele>
        <time>2020-04-01T13:56:46Z</time>
      </trkpt>
      <trkpt lat="43.5557" lon="1.46606">
        <ele>214.637</ele>
        <time>2020-04-01T13:56:51Z</time>
      </trkpt>
      <trkpt lat="43.55569" lon="1.46606">
        <ele>214.648</ele>
        <time>2020-04-01T13:56:57Z</time>
      </trkpt>
      <trkpt lat="43.55563" lon="1.46612">
        <ele>214.652</ele>
        <time>2020-04-01T13:57:03Z</time>
      </trkpt>
      <trkpt lat="43.5556" lon="1.46614">
        <ele>214.65</ele>
        <time>2020-04-01T13:57:08Z</time>
      </trkpt>
      <trkpt lat="43.55555" lon="1.46618">
        <ele>214.643</ele>
        <time>2020-04-01T13:57:14Z</time>
      </trkpt>
      <trkpt lat="43.55551" lon="1.46621">
        <ele>214.634</ele>
        <time>2020-04-01T13:57:19Z</time>
      </trkpt>
      <trkpt lat="43.55547" lon="1.46624">
        <ele>214.621</ele>
        <time>2020-04-01T13:57:24Z</time>
      </trkpt>
      <trkpt lat="43.55541" lon="1.46628">
        <ele>214.598</ele>
        <time>2020-04-01T13:57:30Z</time>
      </trkpt>
      <trkpt lat="43.55535" lon="1.46635">
        <ele>214.557</ele>
        <time>2020-04-01T13:57:36Z</time>
      </trkpt>
      <trkpt lat="43.5553" lon="1.46638">
        <ele>214.521</ele>
        <time>2020-04-01T13:57:41Z</time>
      </trkpt>
      <trkpt lat="43.55525" lon="1.46642">
        <ele>214.486</ele>
        <time>2020-04-01T13:57:46Z</time>
      </trkpt>
      <trkpt lat="43.55521" lon="1.46648">
        <ele>214.441</ele>
        <time>2020-04-01T13:57:52Z</time>
      </trkpt>
      <trkpt lat="43.55519" lon="1.46653">
        <ele>214.41</ele>
        <time>2020-04-01T13:57:57Z</time>
      </trkpt>
      <trkpt lat="43.55519" lon="1.46653">
        <ele>214.388</ele>
        <time>2020-04-01T13:58:02Z</time>
      </trkpt>
      <trkpt lat="43.55515" lon="1.46656">
        <ele>214.329</ele>
        <time>2020-04-01T13:58:08Z</time>
      </trkpt>
      <trkpt lat="43.5551" lon="1.4666">
        <ele>214.277</ele>
        <time>2020-04-01T13:58:13Z</time>
      </trkpt>
      <trkpt lat="43.55505" lon="1.46664">
        <ele>214.218</ele>
        <time>2020-04-01T13:58:19Z</time>
      </trkpt>
      <trkpt lat="43.55499" lon="1.46667">
        <ele>214.158</ele>
        <time>2020-04-01T13:58:25Z</time>
      </trkpt>
      <trkpt lat="43.55493" lon="1.46668">
        <ele>214.097</ele>
        <time>2020-04-01T13:58:31Z</time>
      </trkpt>
      <trkpt lat="43.5549" lon="1.46668">
        <ele>214.05</ele>
        <time>2020-04-01T13:58:36Z</time>
      </trkpt>
      <trkpt lat="43.55484" lon="1.46669">
        <ele>214.003</ele>
        <time>2020-04-01T13:58:42Z</time>
      </trkpt>
      <trkpt lat="43.55479" lon="1.46669">
        <ele>213.975</ele>
        <time>2020-04-01T13:58:47Z</time>
      </trkpt>
      <trkpt lat="43.55475" lon="1.46668">
        <ele>213.956</ele>
        <time>2020-04-01T13:58:52Z</time>
      </trkpt>
      <trkpt lat="43.55471" lon="1.46669">
        <ele>213.945</ele>
        <time>2020-04-01T13:58:57Z</time>
      </trkpt>
      <trkpt lat="43.55465" lon="1.46671">
        <ele>213.944</ele>
        <time>2020-04-01T13:59:02Z</time>
      </trkpt>
      <trkpt lat="43.5546" lon="1.4667">
        <ele>213.945</ele>
        <time>2020-04-01T13:59:07Z</time>
      </trkpt>
      <trkpt lat="43.55454" lon="1.46669">
        <ele>213.953</ele>
        <time>2020-04-01T13:59:13Z</time>
      </trkpt>
      <trkpt lat="43.5545" lon="1.46668">
        <ele>213.965</ele>
        <time>2020-04-01T13:59:19Z</time>
      </trkpt>
      <trkpt lat="43.55445" lon="1.46668">
        <ele>213.978</ele>
        <time>2020-04-01T13:59:24Z</time>
      </trkpt>
      <trkpt lat="43.5544" lon="1.46669">
        <ele>214.002</ele>
        <time>2020-04-01T13:59:29Z</time>
      </trkpt>
      <trkpt lat="43.55437" lon="1.4667">
        <ele>214.025</ele>
        <time>2020-04-01T13:59:34Z</time>
      </trkpt>
      <trkpt lat="43.55431" lon="1.46672">
        <ele>214.051</ele>
        <time>2020-04-01T13:59:40Z</time>
      </trkpt>
      <trkpt lat="43.55424" lon="1.46672">
        <ele>214.076</ele>
        <time>2020-04-01T13:59:46Z</time>
      </trkpt>
      <trkpt lat="43.55416" lon="1.46672">
        <ele>214.096</ele>
        <time>2020-04-01T13:59:52Z</time>
      </trkpt>
      <trkpt lat="43.5541" lon="1.46672">
        <ele>214.112</ele>
        <time>2020-04-01T13:59:57Z</time>
      </trkpt>
      <trkpt lat="43.55405" lon="1.46673">
        <ele>214.131</ele>
        <time>2020-04-01T14:00:03Z</time>
      </trkpt>
      <trkpt lat="43.55398" lon="1.46674">
        <ele>214.15</ele>
        <time>2020-04-01T14:00:09Z</time>
      </trkpt>
      <trkpt lat="43.55393" lon="1.46675">
        <ele>214.17</ele>
        <time>2020-04-01T14:00:15Z</time>
      </trkpt>
      <trkpt lat="43.55389" lon="1.46675">
        <ele>214.188</ele>
        <time>2020-04-01T14:00:20Z</time>
      </trkpt>
      <trkpt lat="43.55384" lon="1.46675">
        <ele>214.206</ele>
        <time>2020-04-01T14:00:25Z</time>
      </trkpt>
      <trkpt lat="43.55379" lon="1.46675">
        <ele>214.227</ele>
        <time>2020-04-01T14:00:31Z</time>
      </trkpt>
      <trkpt lat="43.55375" lon="1.46675">
        <ele>214.246</ele>
        <time>2020-04-01T14:00:36Z</time>
      </trkpt>
      <trkpt lat="43.55369" lon="1.46678">
        <ele>214.269</ele>
        <time>2020-04-01T14:00:42Z</time>
      </trkpt>
      <trkpt lat="43.55364" lon="1.46679">
        <ele>214.288</ele>
        <time>2020-04-01T14:00:47Z</time>
      </trkpt>
      <trkpt lat="43.55359" lon="1.46681">
        <ele>214.309</ele>
        <time>2020-04-01T14:00:52Z</time>
      </trkpt>
      <trkpt lat="43.55353" lon="1.46683">
        <ele>214.339</ele>
        <time>2020-04-01T14:00:58Z</time>
      </trkpt>
      <trkpt lat="43.55347" lon="1.46686">
        <ele>214.368</ele>
        <time>2020-04-01T14:01:03Z</time>
      </trkpt>
      <trkpt lat="43.55337" lon="1.46687">
        <ele>214.4</ele>
        <time>2020-04-01T14:01:09Z</time>
      </trkpt>
      <trkpt lat="43.55332" lon="1.46688">
        <ele>214.424</ele>
        <time>2020-04-01T14:01:14Z</time>
      </trkpt>
      <trkpt lat="43.55327" lon="1.46687">
        <ele>214.45</ele>
        <time>2020-04-01T14:01:19Z</time>
      </trkpt>
      <trkpt lat="43.55323" lon="1.46687">
        <ele>214.475</ele>
        <time>2020-04-01T14:01:24Z</time>
      </trkpt>
      <trkpt lat="43.5532" lon="1.46694">
        <ele>214.502</ele>
        <time>2020-04-01T14:01:30Z</time>
      </trkpt>
      <trkpt lat="43.55314" lon="1.46698">
        <ele>214.536</ele>
        <time>2020-04-01T14:01:36Z</time>
      </trkpt>
      <trkpt lat="43.55314" lon="1.46698">
        <ele>214.55</ele>
        <time>2020-04-01T14:01:42Z</time>
      </trkpt>
      <trkpt lat="43.55312" lon="1.46696">
        <ele>214.588</ele>
        <time>2020-04-01T14:01:47Z</time>
      </trkpt>
      <trkpt lat="43.5531" lon="1.46692">
        <ele>214.634</ele>
        <time>2020-04-01T14:01:52Z</time>
      </trkpt>
      <trkpt lat="43.55307" lon="1.46684">
        <ele>214.688</ele>
        <time>2020-04-01T14:01:58Z</time>
      </trkpt>
      <trkpt lat="43.55305" lon="1.46677">
        <ele>214.732</ele>
        <time>2020-04-01T14:02:03Z</time>
      </trkpt>
      <trkpt lat="43.55303" lon="1.46671">
        <ele>214.785</ele>
        <time>2020-04-01T14:02:09Z</time>
      </trkpt>
      <trkpt lat="43.553" lon="1.46665">
        <ele>214.837</ele>
        <time>2020-04-01T14:02:15Z</time>
      </trkpt>
      <trkpt lat="43.55297" lon="1.46658">
        <ele>214.89</ele>
        <time>2020-04-01T14:02:21Z</time>
      </trkpt>
      <trkpt lat="43.55295" lon="1.46651">
        <ele>214.937</ele>
        <time>2020-04-01T14:02:26Z</time>
      </trkpt>
      <trkpt lat="43.55292" lon="1.46646">
        <ele>214.993</ele>
        <time>2020-04-01T14:02:32Z</time>
      </trkpt>
      <trkpt lat="43.55285" lon="1.46643">
        <ele>215.041</ele>
        <time>2020-04-01T14:02:37Z</time>
      </trkpt>
      <trkpt lat="43.55281" lon="1.46636">
        <ele>215.1</ele>
        <time>2020-04-01T14:02:43Z</time>
      </trkpt>
      <trkpt lat="43.55278" lon="1.46631">
        <ele>215.16</ele>
        <time>2020-04-01T14:02:49Z</time>
      </trkpt>
      <trkpt lat="43.55276" lon="1.46623">
        <ele>215.21</ele>
        <time>2020-04-01T14:02:54Z</time>
      </trkpt>
      <trkpt lat="43.55277" lon="1.46614">
        <ele>215.273</ele>
        <time>2020-04-01T14:03:00Z</time>
      </trkpt>
      <trkpt lat="43.55274" lon="1.4661">
        <ele>215.327</ele>
        <time>2020-04-01T14:03:05Z</time>
      </trkpt>
      <trkpt lat="43.55274" lon="1.4661">
        <ele>215.334</ele>
        <time>2020-04-01T14:03:11Z</time>
      </trkpt>
      <trkpt lat="43.55273" lon="1.46609">
        <ele>215.362</ele>
        <time>2020-04-01T14:03:17Z</time>
      </trkpt>
      <trkpt lat="43.55272" lon="1.46606">
        <ele>215.405</ele>
        <time>2020-04-01T14:03:23Z</time>
      </trkpt>
      <trkpt lat="43.55271" lon="1.46602">
        <ele>215.422</ele>
        <time>2020-04-01T14:03:29Z</time>
      </trkpt>
      <trkpt lat="43.5527" lon="1.466">
        <ele>215.479</ele>
        <time>2020-04-01T14:03:35Z</time>
      </trkpt>
      <trkpt lat="43.55269" lon="1.46599">
        <ele>215.516</ele>
        <time>2020-04-01T14:03:41Z</time>
      </trkpt>
      <trkpt lat="43.55269" lon="1.46598">
        <ele>215.547</ele>
        <time>2020-04-01T14:03:46Z</time>
      </trkpt>
      <trkpt lat="43.55268" lon="1.46598">
        <ele>215.554</ele>
        <time>2020-04-01T14:03:51Z</time>
      </trkpt>
      <trkpt lat="43.55267" lon="1.46598">
        <ele>215.591</ele>
        <time>2020-04-01T14:03:57Z</time>
      </trkpt>
      <trkpt lat="43.55265" lon="1.46595">
        <ele>215.68</ele>
        <time>2020-04-01T14:04:03Z</time>
      </trkpt>
      <trkpt lat="43.55258" lon="1.46584">
        <ele>215.749</ele>
        <time>2020-04-01T14:04:08Z</time>
      </trkpt>
      <trkpt lat="43.55256" lon="1.4658">
        <ele>215.827</ele>
        <time>2020-04-01T14:04:14Z</time>
      </trkpt>
      <trkpt lat="43.55253" lon="1.46575">
        <ele>215.894</ele>
        <time>2020-04-01T14:04:20Z</time>
      </trkpt>
      <trkpt lat="43.55252" lon="1.46574">
        <ele>215.967</ele>
        <time>2020-04-01T14:04:26Z</time>
      </trkpt>
      <trkpt lat="43.55248" lon="1.46565">
        <ele>216.033</ele>
        <time>2020-04-01T14:04:32Z</time>
      </trkpt>
      <trkpt lat="43.55246" lon="1.46557">
        <ele>216.077</ele>
        <time>2020-04-01T14:04:37Z</time>
      </trkpt>
      <trkpt lat="43.55244" lon="1.46554">
        <ele>216.127</ele>
        <time>2020-04-01T14:04:42Z</time>
      </trkpt>
      <trkpt lat="43.5524" lon="1.46553">
        <ele>216.185</ele>
        <time>2020-04-01T14:04:48Z</time>
      </trkpt>
      <trkpt lat="43.55234" lon="1.46548">
        <ele>216.234</ele>
        <time>2020-04-01T14:04:53Z</time>
      </trkpt>
      <trkpt lat="43.5523" lon="1.46543">
        <ele>216.283</ele>
        <time>2020-04-01T14:04:58Z</time>
      </trkpt>
      <trkpt lat="43.55226" lon="1.46541">
        <ele>216.332</ele>
        <time>2020-04-01T14:05:03Z</time>
      </trkpt>
      <trkpt lat="43.5522" lon="1.46536">
        <ele>216.394</ele>
        <time>2020-04-01T14:05:09Z</time>
      </trkpt>
      <trkpt lat="43.55219" lon="1.46532">
        <ele>216.44</ele>
        <time>2020-04-01T14:05:14Z</time>
      </trkpt>
      <trkpt lat="43.55216" lon="1.46524">
        <ele>216.5</ele>
        <time>2020-04-01T14:05:19Z</time>
      </trkpt>
      <trkpt lat="43.55215" lon="1.46527">
        <ele>216.53</ele>
        <time>2020-04-01T14:05:25Z</time>
      </trkpt>
      <trkpt lat="43.55215" lon="1.46529">
        <ele>216.536</ele>
        <time>2020-04-01T14:05:30Z</time>
      </trkpt>
      <trkpt lat="43.55215" lon="1.46529">
        <ele>216.574</ele>
        <time>2020-04-01T14:05:36Z</time>
      </trkpt>
      <trkpt lat="43.55215" lon="1.46529">
        <ele>216.584</ele>
        <time>2020-04-01T14:05:42Z</time>
      </trkpt>
      <trkpt lat="43.55215" lon="1.46529">
        <ele>216.593</ele>
        <time>2020-04-01T14:05:47Z</time>
      </trkpt>
      <trkpt lat="43.55215" lon="1.46529">
        <ele>216.605</ele>
        <time>2020-04-01T14:05:52Z</time>
      </trkpt>
      <trkpt lat="43.55215" lon="1.46529">
        <ele>216.625</ele>
        <time>2020-04-01T14:05:58Z</time>
      </trkpt>
      <trkpt lat="43.55216" lon="1.46528">
        <ele>216.646</ele>
        <time>2020-04-01T14:06:03Z</time>
      </trkpt>
      <trkpt lat="43.55216" lon="1.46528">
        <ele>216.673</ele>
        <time>2020-04-01T14:06:09Z</time>
      </trkpt>
      <trkpt lat="43.55217" lon="1.46527">
        <ele>216.699</ele>
        <time>2020-04-01T14:06:15Z</time>
      </trkpt>
      <trkpt lat="43.55217" lon="1.46527">
        <ele>216.72</ele>
        <time>2020-04-01T14:06:20Z</time>
      </trkpt>
      <trkpt lat="43.55217" lon="1.46527">
        <ele>216.741</ele>
        <time>2020-04-01T14:06:25Z</time>
      </trkpt>
      <trkpt lat="43.55217" lon="1.46529">
        <ele>216.939</ele>
        <time>2020-04-01T14:06:31Z</time>
      </trkpt>
      <trkpt lat="43.55222" lon="1.46535">
        <ele>217.141</ele>
        <time>2020-04-01T14:06:37Z</time>
      </trkpt>
      <trkpt lat="43.55226" lon="1.46538">
        <ele>217.212</ele>
        <time>2020-04-01T14:06:43Z</time>
      </trkpt>
      <trkpt lat="43.55226" lon="1.46539">
        <ele>217.229</ele>
        <time>2020-04-01T14:06:49Z</time>
      </trkpt>
      <trkpt lat="43.55227" lon="1.4654">
        <ele>217.246</ele>
        <time>2020-04-01T14:06:54Z</time>
      </trkpt>
      <trkpt lat="43.55229" lon="1.46542">
        <ele>217.331</ele>
        <time>2020-04-01T14:06:59Z</time>
      </trkpt>
      <trkpt lat="43.55233" lon="1.46547">
        <ele>217.51</ele>
        <time>2020-04-01T14:07:04Z</time>
      </trkpt>
      <trkpt lat="43.55237" lon="1.46549">
        <ele>217.707</ele>
        <time>2020-04-01T14:07:10Z</time>
      </trkpt>
      <trkpt lat="43.55241" lon="1.46552">
        <ele>217.856</ele>
        <time>2020-04-01T14:07:15Z</time>
      </trkpt>
      <trkpt lat="43.55247" lon="1.46557">
        <ele>218.022</ele>
        <time>2020-04-01T14:07:21Z</time>
      </trkpt>
      <trkpt lat="43.55252" lon="1.46563">
        <ele>218.147</ele>
        <time>2020-04-01T14:07:26Z</time>
      </trkpt>
      <trkpt lat="43.55257" lon="1.46569">
        <ele>218.288</ele>
        <time>2020-04-01T14:07:32Z</time>
      </trkpt>
      <trkpt lat="43.5526" lon="1.46574">
        <ele>218.399</ele>
        <time>2020-04-01T14:07:37Z</time>
      </trkpt>
      <trkpt lat="43.55264" lon="1.46578">
        <ele>218.503</ele>
        <time>2020-04-01T14:07:42Z</time>
      </trkpt>
      <trkpt lat="43.55266" lon="1.46581">
        <ele>218.6</ele>
        <time>2020-04-01T14:07:47Z</time>
      </trkpt>
      <trkpt lat="43.55267" lon="1.46589">
        <ele>218.714</ele>
        <time>2020-04-01T14:07:53Z</time>
      </trkpt>
      <trkpt lat="43.5527" lon="1.46597">
        <ele>218.822</ele>
        <time>2020-04-01T14:07:59Z</time>
      </trkpt>
      <trkpt lat="43.55273" lon="1.46606">
        <ele>218.925</ele>
        <time>2020-04-01T14:08:05Z</time>
      </trkpt>
      <trkpt lat="43.55276" lon="1.46612">
        <ele>219.007</ele>
        <time>2020-04-01T14:08:10Z</time>
      </trkpt>
      <trkpt lat="43.55278" lon="1.46618">
        <ele>219.099</ele>
        <time>2020-04-01T14:08:16Z</time>
      </trkpt>
      <trkpt lat="43.55282" lon="1.46622">
        <ele>219.172</ele>
        <time>2020-04-01T14:08:21Z</time>
      </trkpt>
      <trkpt lat="43.55281" lon="1.46633">
        <ele>219.242</ele>
        <time>2020-04-01T14:08:26Z</time>
      </trkpt>
      <trkpt lat="43.55283" lon="1.46639">
        <ele>219.306</ele>
        <time>2020-04-01T14:08:31Z</time>
      </trkpt>
      <trkpt lat="43.55286" lon="1.46645">
        <ele>219.373</ele>
        <time>2020-04-01T14:08:37Z</time>
      </trkpt>
      <trkpt lat="43.55289" lon="1.46649">
        <ele>219.426</ele>
        <time>2020-04-01T14:08:42Z</time>
      </trkpt>
      <trkpt lat="43.55292" lon="1.46657">
        <ele>219.487</ele>
        <time>2020-04-01T14:08:48Z</time>
      </trkpt>
      <trkpt lat="43.55295" lon="1.46664">
        <ele>219.538</ele>
        <time>2020-04-01T14:08:53Z</time>
      </trkpt>
      <trkpt lat="43.55299" lon="1.46672">
        <ele>219.594</ele>
        <time>2020-04-01T14:08:59Z</time>
      </trkpt>
      <trkpt lat="43.55302" lon="1.4668">
        <ele>219.642</ele>
        <time>2020-04-01T14:09:05Z</time>
      </trkpt>
      <trkpt lat="43.55303" lon="1.46686">
        <ele>219.673</ele>
        <time>2020-04-01T14:09:10Z</time>
      </trkpt>
      <trkpt lat="43.55305" lon="1.46694">
        <ele>219.705</ele>
        <time>2020-04-01T14:09:16Z</time>
      </trkpt>
      <trkpt lat="43.55309" lon="1.46698">
        <ele>219.731</ele>
        <time>2020-04-01T14:09:21Z</time>
      </trkpt>
      <trkpt lat="43.55309" lon="1.46703">
        <ele>219.752</ele>
        <time>2020-04-01T14:09:26Z</time>
      </trkpt>
      <trkpt lat="43.55308" lon="1.46704">
        <ele>219.773</ele>
        <time>2020-04-01T14:09:31Z</time>
      </trkpt>
      <trkpt lat="43.55298" lon="1.46705">
        <ele>219.801</ele>
        <time>2020-04-01T14:09:37Z</time>
      </trkpt>
      <trkpt lat="43.55293" lon="1.46707">
        <ele>219.823</ele>
        <time>2020-04-01T14:09:42Z</time>
      </trkpt>
      <trkpt lat="43.55287" lon="1.46711">
        <ele>219.845</ele>
        <time>2020-04-01T14:09:48Z</time>
      </trkpt>
      <trkpt lat="43.55281" lon="1.46719">
        <ele>219.86</ele>
        <time>2020-04-01T14:09:53Z</time>
      </trkpt>
      <trkpt lat="43.55273" lon="1.46721">
        <ele>219.88</ele>
        <time>2020-04-01T14:09:59Z</time>
      </trkpt>
      <trkpt lat="43.55269" lon="1.46723">
        <ele>219.9</ele>
        <time>2020-04-01T14:10:04Z</time>
      </trkpt>
      <trkpt lat="43.55265" lon="1.46726">
        <ele>219.929</ele>
        <time>2020-04-01T14:10:10Z</time>
      </trkpt>
      <trkpt lat="43.55259" lon="1.4673">
        <ele>219.954</ele>
        <time>2020-04-01T14:10:15Z</time>
      </trkpt>
      <trkpt lat="43.55254" lon="1.46735">
        <ele>219.987</ele>
        <time>2020-04-01T14:10:21Z</time>
      </trkpt>
      <trkpt lat="43.55247" lon="1.46739">
        <ele>220.018</ele>
        <time>2020-04-01T14:10:27Z</time>
      </trkpt>
      <trkpt lat="43.55242" lon="1.46739">
        <ele>220.04</ele>
        <time>2020-04-01T14:10:33Z</time>
      </trkpt>
      <trkpt lat="43.55238" lon="1.46742">
        <ele>220.056</ele>
        <time>2020-04-01T14:10:38Z</time>
      </trkpt>
      <trkpt lat="43.55233" lon="1.46743">
        <ele>220.063</ele>
        <time>2020-04-01T14:10:44Z</time>
      </trkpt>
      <trkpt lat="43.55227" lon="1.46744">
        <ele>220.062</ele>
        <time>2020-04-01T14:10:50Z</time>
      </trkpt>
      <trkpt lat="43.55222" lon="1.46745">
        <ele>220.065</ele>
        <time>2020-04-01T14:10:56Z</time>
      </trkpt>
      <trkpt lat="43.55219" lon="1.46743">
        <ele>220.074</ele>
        <time>2020-04-01T14:11:01Z</time>
      </trkpt>
      <trkpt lat="43.55213" lon="1.46743">
        <ele>220.096</ele>
        <time>2020-04-01T14:11:07Z</time>
      </trkpt>
      <trkpt lat="43.55212" lon="1.46742">
        <ele>220.106</ele>
        <time>2020-04-01T14:11:12Z</time>
      </trkpt>
      <trkpt lat="43.55212" lon="1.46742">
        <ele>220.11</ele>
        <time>2020-04-01T14:11:18Z</time>
      </trkpt>
      <trkpt lat="43.5521" lon="1.46742">
        <ele>220.163</ele>
        <time>2020-04-01T14:11:24Z</time>
      </trkpt>
      <trkpt lat="43.55206" lon="1.46741">
        <ele>220.223</ele>
        <time>2020-04-01T14:11:30Z</time>
      </trkpt>
      <trkpt lat="43.55202" lon="1.46739">
        <ele>220.273</ele>
        <time>2020-04-01T14:11:35Z</time>
      </trkpt>
      <trkpt lat="43.55196" lon="1.46738">
        <ele>220.324</ele>
        <time>2020-04-01T14:11:40Z</time>
      </trkpt>
      <trkpt lat="43.55191" lon="1.46736">
        <ele>220.375</ele>
        <time>2020-04-01T14:11:45Z</time>
      </trkpt>
      <trkpt lat="43.55184" lon="1.46731">
        <ele>220.442</ele>
        <time>2020-04-01T14:11:51Z</time>
      </trkpt>
      <trkpt lat="43.55178" lon="1.46725">
        <ele>220.51</ele>
        <time>2020-04-01T14:11:57Z</time>
      </trkpt>
      <trkpt lat="43.55173" lon="1.4672">
        <ele>220.579</ele>
        <time>2020-04-01T14:12:03Z</time>
      </trkpt>
      <trkpt lat="43.55168" lon="1.46716">
        <ele>220.637</ele>
        <time>2020-04-01T14:12:08Z</time>
      </trkpt>
      <trkpt lat="43.55163" lon="1.46713">
        <ele>220.695</ele>
        <time>2020-04-01T14:12:13Z</time>
      </trkpt>
      <trkpt lat="43.55158" lon="1.46709">
        <ele>220.765</ele>
        <time>2020-04-01T14:12:19Z</time>
      </trkpt>
      <trkpt lat="43.55153" lon="1.46706">
        <ele>220.838</ele>
        <time>2020-04-01T14:12:25Z</time>
      </trkpt>
      <trkpt lat="43.55149" lon="1.46704">
        <ele>220.906</ele>
        <time>2020-04-01T14:12:30Z</time>
      </trkpt>
      <trkpt lat="43.55143" lon="1.46697">
        <ele>220.987</ele>
        <time>2020-04-01T14:12:36Z</time>
      </trkpt>
      <trkpt lat="43.55136" lon="1.46693">
        <ele>221.065</ele>
        <time>2020-04-01T14:12:42Z</time>
      </trkpt>
      <trkpt lat="43.55131" lon="1.46692">
        <ele>221.136</ele>
        <time>2020-04-01T14:12:48Z</time>
      </trkpt>
      <trkpt lat="43.55127" lon="1.46691">
        <ele>221.194</ele>
        <time>2020-04-01T14:12:53Z</time>
      </trkpt>
      <trkpt lat="43.5512" lon="1.46687">
        <ele>221.265</ele>
        <time>2020-04-01T14:12:59Z</time>
      </trkpt>
      <trkpt lat="43.55116" lon="1.46683">
        <ele>221.321</ele>
        <time>2020-04-01T14:13:04Z</time>
      </trkpt>
      <trkpt lat="43.55111" lon="1.46678">
        <ele>221.373</ele>
        <time>2020-04-01T14:13:09Z</time>
      </trkpt>
      <trkpt lat="43.55106" lon="1.46676">
        <ele>221.428</ele>
        <time>2020-04-01T14:13:14Z</time>
      </trkpt>
      <trkpt lat="43.55101" lon="1.46673">
        <ele>221.502</ele>
        <time>2020-04-01T14:13:20Z</time>
      </trkpt>
      <trkpt lat="43.55096" lon="1.46671">
        <ele>221.572</ele>
        <time>2020-04-01T14:13:25Z</time>
      </trkpt>
      <trkpt lat="43.5509" lon="1.46669">
        <ele>221.666</ele>
        <time>2020-04-01T14:13:31Z</time>
      </trkpt>
      <trkpt lat="43.55086" lon="1.46666">
        <ele>221.752</ele>
        <time>2020-04-01T14:13:36Z</time>
      </trkpt>
      <trkpt lat="43.55083" lon="1.46662">
        <ele>221.864</ele>
        <time>2020-04-01T14:13:42Z</time>
      </trkpt>
      <trkpt lat="43.55078" lon="1.46657">
        <ele>221.959</ele>
        <time>2020-04-01T14:13:47Z</time>
      </trkpt>
      <trkpt lat="43.55073" lon="1.46653">
        <ele>222.057</ele>
        <time>2020-04-01T14:13:52Z</time>
      </trkpt>
      <trkpt lat="43.55066" lon="1.46652">
        <ele>222.182</ele>
        <time>2020-04-01T14:13:58Z</time>
      </trkpt>
      <trkpt lat="43.55061" lon="1.4665">
        <ele>222.313</ele>
        <time>2020-04-01T14:14:04Z</time>
      </trkpt>
      <trkpt lat="43.55058" lon="1.46648">
        <ele>222.424</ele>
        <time>2020-04-01T14:14:09Z</time>
      </trkpt>
      <trkpt lat="43.55054" lon="1.46645">
        <ele>222.551</ele>
        <time>2020-04-01T14:14:15Z</time>
      </trkpt>
      <trkpt lat="43.5505" lon="1.46642">
        <ele>222.675</ele>
        <time>2020-04-01T14:14:21Z</time>
      </trkpt>
      <trkpt lat="43.55045" lon="1.46638">
        <ele>222.795</ele>
        <time>2020-04-01T14:14:27Z</time>
      </trkpt>
      <trkpt lat="43.55039" lon="1.46636">
        <ele>222.888</ele>
        <time>2020-04-01T14:14:32Z</time>
      </trkpt>
      <trkpt lat="43.55036" lon="1.46634">
        <ele>222.997</ele>
        <time>2020-04-01T14:14:38Z</time>
      </trkpt>
      <trkpt lat="43.55031" lon="1.46632">
        <ele>223.084</ele>
        <time>2020-04-01T14:14:43Z</time>
      </trkpt>
      <trkpt lat="43.55028" lon="1.46631">
        <ele>223.168</ele>
        <time>2020-04-01T14:14:48Z</time>
      </trkpt>
      <trkpt lat="43.55022" lon="1.46631">
        <ele>223.271</ele>
        <time>2020-04-01T14:14:54Z</time>
      </trkpt>
      <trkpt lat="43.55018" lon="1.46628">
        <ele>223.372</ele>
        <time>2020-04-01T14:15:00Z</time>
      </trkpt>
      <trkpt lat="43.55014" lon="1.46627">
        <ele>223.471</ele>
        <time>2020-04-01T14:15:06Z</time>
      </trkpt>
      <trkpt lat="43.55009" lon="1.46625">
        <ele>223.569</ele>
        <time>2020-04-01T14:15:12Z</time>
      </trkpt>
      <trkpt lat="43.55004" lon="1.46624">
        <ele>223.648</ele>
        <time>2020-04-01T14:15:17Z</time>
      </trkpt>
      <trkpt lat="43.54999" lon="1.46624">
        <ele>223.742</ele>
        <time>2020-04-01T14:15:23Z</time>
      </trkpt>
      <trkpt lat="43.54994" lon="1.46622">
        <ele>223.818</ele>
        <time>2020-04-01T14:15:28Z</time>
      </trkpt>
      <trkpt lat="43.5499" lon="1.4662">
        <ele>223.914</ele>
        <time>2020-04-01T14:15:34Z</time>
      </trkpt>
      <trkpt lat="43.54986" lon="1.46618">
        <ele>223.99</ele>
        <time>2020-04-01T14:15:39Z</time>
      </trkpt>
      <trkpt lat="43.54982" lon="1.46616">
        <ele>224.084</ele>
        <time>2020-04-01T14:15:45Z</time>
      </trkpt>
      <trkpt lat="43.54978" lon="1.46621">
        <ele>224.14</ele>
        <time>2020-04-01T14:15:50Z</time>
      </trkpt>
      <trkpt lat="43.54979" lon="1.46616">
        <ele>224.264</ele>
        <time>2020-04-01T14:15:56Z</time>
      </trkpt>
      <trkpt lat="43.54978" lon="1.46612">
        <ele>224.378</ele>
        <time>2020-04-01T14:16:01Z</time>
      </trkpt>
      <trkpt lat="43.54981" lon="1.46604">
        <ele>224.499</ele>
        <time>2020-04-01T14:16:07Z</time>
      </trkpt>
      <trkpt lat="43.54982" lon="1.46594">
        <ele>224.646</ele>
        <time>2020-04-01T14:16:13Z</time>
      </trkpt>
      <trkpt lat="43.54983" lon="1.46589">
        <ele>224.797</ele>
        <time>2020-04-01T14:16:19Z</time>
      </trkpt>
      <trkpt lat="43.54984" lon="1.46581">
        <ele>224.946</ele>
        <time>2020-04-01T14:16:25Z</time>
      </trkpt>
      <trkpt lat="43.54985" lon="1.46578">
        <ele>225.065</ele>
        <time>2020-04-01T14:16:30Z</time>
      </trkpt>
      <trkpt lat="43.54991" lon="1.46568">
        <ele>225.206</ele>
        <time>2020-04-01T14:16:36Z</time>
      </trkpt>
      <trkpt lat="43.54994" lon="1.46558">
        <ele>225.351</ele>
        <time>2020-04-01T14:16:42Z</time>
      </trkpt>
      <trkpt lat="43.54995" lon="1.46549">
        <ele>225.48</ele>
        <time>2020-04-01T14:16:47Z</time>
      </trkpt>
      <trkpt lat="43.54996" lon="1.46542">
        <ele>225.642</ele>
        <time>2020-04-01T14:16:53Z</time>
      </trkpt>
      <trkpt lat="43.54998" lon="1.46536">
        <ele>225.814</ele>
        <time>2020-04-01T14:16:59Z</time>
      </trkpt>
      <trkpt lat="43.54999" lon="1.46532">
        <ele>225.938</ele>
        <time>2020-04-01T14:17:04Z</time>
      </trkpt>
      <trkpt lat="43.55" lon="1.46532">
        <ele>226.016</ele>
        <time>2020-04-01T14:17:10Z</time>
      </trkpt>
      <trkpt lat="43.54998" lon="1.46532">
        <ele>226.173</ele>
        <time>2020-04-01T14:17:15Z</time>
      </trkpt>
      <trkpt lat="43.54996" lon="1.46535">
        <ele>226.351</ele>
        <time>2020-04-01T14:17:21Z</time>
      </trkpt>
      <trkpt lat="43.54996" lon="1.46541">
        <ele>226.526</ele>
        <time>2020-04-01T14:17:27Z</time>
      </trkpt>
      <trkpt lat="43.54993" lon="1.46545">
        <ele>226.668</ele>
        <time>2020-04-01T14:17:32Z</time>
      </trkpt>
      <trkpt lat="43.54991" lon="1.46553">
        <ele>226.835</ele>
        <time>2020-04-01T14:17:38Z</time>
      </trkpt>
      <trkpt lat="43.54991" lon="1.46561">
        <ele>226.969</ele>
        <time>2020-04-01T14:17:43Z</time>
      </trkpt>
      <trkpt lat="43.54988" lon="1.4657">
        <ele>227.097</ele>
        <time>2020-04-01T14:17:48Z</time>
      </trkpt>
      <trkpt lat="43.54986" lon="1.46577">
        <ele>227.246</ele>
        <time>2020-04-01T14:17:54Z</time>
      </trkpt>
      <trkpt lat="43.54982" lon="1.46586">
        <ele>227.396</ele>
        <time>2020-04-01T14:18:00Z</time>
      </trkpt>
      <trkpt lat="43.54981" lon="1.46592">
        <ele>227.516</ele>
        <time>2020-04-01T14:18:05Z</time>
      </trkpt>
      <trkpt lat="43.54978" lon="1.46598">
        <ele>227.633</ele>
        <time>2020-04-01T14:18:10Z</time>
      </trkpt>
      <trkpt lat="43.54976" lon="1.46603">
        <ele>227.748</ele>
        <time>2020-04-01T14:18:15Z</time>
      </trkpt>
      <trkpt lat="43.54972" lon="1.46609">
        <ele>227.884</ele>
        <time>2020-04-01T14:18:21Z</time>
      </trkpt>
      <trkpt lat="43.54969" lon="1.46614">
        <ele>227.999</ele>
        <time>2020-04-01T14:18:26Z</time>
      </trkpt>
      <trkpt lat="43.54964" lon="1.46614">
        <ele>228.108</ele>
        <time>2020-04-01T14:18:31Z</time>
      </trkpt>
      <trkpt lat="43.54958" lon="1.4661">
        <ele>228.238</ele>
        <time>2020-04-01T14:18:37Z</time>
      </trkpt>
      <trkpt lat="43.54953" lon="1.46607">
        <ele>228.36</ele>
        <time>2020-04-01T14:18:43Z</time>
      </trkpt>
      <trkpt lat="43.54948" lon="1.46607">
        <ele>228.461</ele>
        <time>2020-04-01T14:18:48Z</time>
      </trkpt>
      <trkpt lat="43.54942" lon="1.46605">
        <ele>228.582</ele>
        <time>2020-04-01T14:18:54Z</time>
      </trkpt>
      <trkpt lat="43.54937" lon="1.46604">
        <ele>228.681</ele>
        <time>2020-04-01T14:18:59Z</time>
      </trkpt>
      <trkpt lat="43.54935" lon="1.46605">
        <ele>228.746</ele>
        <time>2020-04-01T14:19:04Z</time>
      </trkpt>
      <trkpt lat="43.54934" lon="1.46605">
        <ele>228.782</ele>
        <time>2020-04-01T14:19:10Z</time>
      </trkpt>
      <trkpt lat="43.5493" lon="1.46605">
        <ele>228.898</ele>
        <time>2020-04-01T14:19:15Z</time>
      </trkpt>
      <trkpt lat="43.54928" lon="1.46605">
        <ele>229.007</ele>
        <time>2020-04-01T14:19:20Z</time>
      </trkpt>
      <trkpt lat="43.54923" lon="1.46605">
        <ele>229.129</ele>
        <time>2020-04-01T14:19:26Z</time>
      </trkpt>
      <trkpt lat="43.5492" lon="1.46606">
        <ele>229.226</ele>
        <time>2020-04-01T14:19:31Z</time>
      </trkpt>
      <trkpt lat="43.54914" lon="1.46603">
        <ele>229.338</ele>
        <time>2020-04-01T14:19:37Z</time>
      </trkpt>
      <trkpt lat="43.54908" lon="1.46601">
        <ele>229.432</ele>
        <time>2020-04-01T14:19:42Z</time>
      </trkpt>
      <trkpt lat="43.54904" lon="1.46602">
        <ele>229.548</ele>
        <time>2020-04-01T14:19:48Z</time>
      </trkpt>
      <trkpt lat="43.54899" lon="1.46601">
        <ele>229.643</ele>
        <time>2020-04-01T14:19:53Z</time>
      </trkpt>
      <trkpt lat="43.54892" lon="1.46602">
        <ele>229.747</ele>
        <time>2020-04-01T14:19:59Z</time>
      </trkpt>
      <trkpt lat="43.54885" lon="1.46605">
        <ele>229.839</ele>
        <time>2020-04-01T14:20:05Z</time>
      </trkpt>
      <trkpt lat="43.5488" lon="1.46605">
        <ele>229.929</ele>
        <time>2020-04-01T14:20:11Z</time>
      </trkpt>
      <trkpt lat="43.54874" lon="1.46606">
        <ele>230.019</ele>
        <time>2020-04-01T14:20:17Z</time>
      </trkpt>
      <trkpt lat="43.5487" lon="1.46605">
        <ele>230.095</ele>
        <time>2020-04-01T14:20:22Z</time>
      </trkpt>
      <trkpt lat="43.54868" lon="1.46604">
        <ele>230.198</ele>
        <time>2020-04-01T14:20:28Z</time>
      </trkpt>
      <trkpt lat="43.54863" lon="1.46605">
        <ele>230.291</ele>
        <time>2020-04-01T14:20:33Z</time>
      </trkpt>
      <trkpt lat="43.54856" lon="1.46606">
        <ele>230.405</ele>
        <time>2020-04-01T14:20:39Z</time>
      </trkpt>
      <trkpt lat="43.54851" lon="1.46611">
        <ele>230.519</ele>
        <time>2020-04-01T14:20:45Z</time>
      </trkpt>
      <trkpt lat="43.54846" lon="1.46611">
        <ele>230.615</ele>
        <time>2020-04-01T14:20:50Z</time>
      </trkpt>
      <trkpt lat="43.54843" lon="1.46611">
        <ele>230.714</ele>
        <time>2020-04-01T14:20:55Z</time>
      </trkpt>
      <trkpt lat="43.54838" lon="1.46611">
        <ele>230.815</ele>
        <time>2020-04-01T14:21:00Z</time>
      </trkpt>
      <trkpt lat="43.54831" lon="1.46612">
        <ele>230.935</ele>
        <time>2020-04-01T14:21:06Z</time>
      </trkpt>
      <trkpt lat="43.54827" lon="1.46613">
        <ele>231.037</ele>
        <time>2020-04-01T14:21:11Z</time>
      </trkpt>
      <trkpt lat="43.54824" lon="1.46613">
        <ele>231.158</ele>
        <time>2020-04-01T14:21:17Z</time>
      </trkpt>
      <trkpt lat="43.5482" lon="1.46614">
        <ele>231.26</ele>
        <time>2020-04-01T14:21:22Z</time>
      </trkpt>
      <trkpt lat="43.54814" lon="1.46614">
        <ele>231.386</ele>
        <time>2020-04-01T14:21:28Z</time>
      </trkpt>
      <trkpt lat="43.54812" lon="1.46615">
        <ele>231.494</ele>
        <time>2020-04-01T14:21:33Z</time>
      </trkpt>
      <trkpt lat="43.54808" lon="1.46616">
        <ele>231.602</ele>
        <time>2020-04-01T14:21:38Z</time>
      </trkpt>
      <trkpt lat="43.54802" lon="1.46622">
        <ele>231.749</ele>
        <time>2020-04-01T14:21:44Z</time>
      </trkpt>
      <trkpt lat="43.54799" lon="1.46626">
        <ele>231.91</ele>
        <time>2020-04-01T14:21:50Z</time>
      </trkpt>
      <trkpt lat="43.54797" lon="1.46634">
        <ele>232.089</ele>
        <time>2020-04-01T14:21:56Z</time>
      </trkpt>
      <trkpt lat="43.54796" lon="1.4664">
        <ele>232.24</ele>
        <time>2020-04-01T14:22:01Z</time>
      </trkpt>
      <trkpt lat="43.54796" lon="1.46647">
        <ele>232.418</ele>
        <time>2020-04-01T14:22:07Z</time>
      </trkpt>
      <trkpt lat="43.54798" lon="1.46654">
        <ele>232.578</ele>
        <time>2020-04-01T14:22:12Z</time>
      </trkpt>
      <trkpt lat="43.54802" lon="1.46663">
        <ele>232.777</ele>
        <time>2020-04-01T14:22:18Z</time>
      </trkpt>
      <trkpt lat="43.54803" lon="1.46668">
        <ele>232.945</ele>
        <time>2020-04-01T14:22:23Z</time>
      </trkpt>
      <trkpt lat="43.54806" lon="1.46675">
        <ele>233.172</ele>
        <time>2020-04-01T14:22:29Z</time>
      </trkpt>
      <trkpt lat="43.54807" lon="1.46683">
        <ele>233.372</ele>
        <time>2020-04-01T14:22:34Z</time>
      </trkpt>
      <trkpt lat="43.54808" lon="1.46691">
        <ele>233.616</ele>
        <time>2020-04-01T14:22:40Z</time>
      </trkpt>
      <trkpt lat="43.54809" lon="1.46698">
        <ele>233.883</ele>
        <time>2020-04-01T14:22:46Z</time>
      </trkpt>
      <trkpt lat="43.54812" lon="1.46706">
        <ele>234.132</ele>
        <time>2020-04-01T14:22:51Z</time>
      </trkpt>
      <trkpt lat="43.54815" lon="1.46711">
        <ele>234.396</ele>
        <time>2020-04-01T14:22:56Z</time>
      </trkpt>
      <trkpt lat="43.54815" lon="1.46714">
        <ele>234.705</ele>
        <time>2020-04-01T14:23:02Z</time>
      </trkpt>
      <trkpt lat="43.5481" lon="1.46716">
        <ele>234.981</ele>
        <time>2020-04-01T14:23:07Z</time>
      </trkpt>
      <trkpt lat="43.5481" lon="1.46717">
        <ele>235.018</ele>
        <time>2020-04-01T14:23:13Z</time>
      </trkpt>
      <trkpt lat="43.5481" lon="1.46717">
        <ele>235.06</ele>
        <time>2020-04-01T14:23:19Z</time>
      </trkpt>
      <trkpt lat="43.54808" lon="1.46721">
        <ele>235.369</ele>
        <time>2020-04-01T14:23:24Z</time>
      </trkpt>
      <trkpt lat="43.54808" lon="1.46721">
        <ele>235.408</ele>
        <time>2020-04-01T14:23:29Z</time>
      </trkpt>
      <trkpt lat="43.54808" lon="1.46721">
        <ele>235.456</ele>
        <time>2020-04-01T14:23:35Z</time>
      </trkpt>
      <trkpt lat="43.54808" lon="1.46722">
        <ele>235.507</ele>
        <time>2020-04-01T14:23:41Z</time>
      </trkpt>
      <trkpt lat="43.54808" lon="1.46722">
        <ele>235.552</ele>
        <time>2020-04-01T14:23:46Z</time>
      </trkpt>
      <trkpt lat="43.54808" lon="1.46722">
        <ele>235.609</ele>
        <time>2020-04-01T14:23:52Z</time>
      </trkpt>
      <trkpt lat="43.54808" lon="1.46721">
        <ele>235.659</ele>
        <time>2020-04-01T14:23:57Z</time>
      </trkpt>
      <trkpt lat="43.54809" lon="1.46721">
        <ele>235.712</ele>
        <time>2020-04-01T14:24:02Z</time>
      </trkpt>
      <trkpt lat="43.5481" lon="1.46719">
        <ele>235.988</ele>
        <time>2020-04-01T14:24:08Z</time>
      </trkpt>
      <trkpt lat="43.54807" lon="1.46718">
        <ele>236.363</ele>
        <time>2020-04-01T14:24:14Z</time>
      </trkpt>
      <trkpt lat="43.54807" lon="1.46719">
        <ele>236.535</ele>
        <time>2020-04-01T14:24:20Z</time>
      </trkpt>
      <trkpt lat="43.54808" lon="1.46723">
        <ele>236.911</ele>
        <time>2020-04-01T14:24:26Z</time>
      </trkpt>
      <trkpt lat="43.54808" lon="1.46725">
        <ele>236.984</ele>
        <time>2020-04-01T14:24:32Z</time>
      </trkpt>
      <trkpt lat="43.54808" lon="1.46725">
        <ele>237.047</ele>
        <time>2020-04-01T14:24:37Z</time>
      </trkpt>
      <trkpt lat="43.54808" lon="1.46725">
        <ele>237.111</ele>
        <time>2020-04-01T14:24:42Z</time>
      </trkpt>
      <trkpt lat="43.54808" lon="1.46726">
        <ele>237.421</ele>
        <time>2020-04-01T14:24:48Z</time>
      </trkpt>
      <trkpt lat="43.54808" lon="1.46726">
        <ele>237.496</ele>
        <time>2020-04-01T14:24:54Z</time>
      </trkpt>
      <trkpt lat="43.54808" lon="1.46725">
        <ele>237.684</ele>
        <time>2020-04-01T14:25:00Z</time>
      </trkpt>
      <trkpt lat="43.54806" lon="1.46727">
        <ele>237.752</ele>
        <time>2020-04-01T14:25:05Z</time>
      </trkpt>
      <trkpt lat="43.54806" lon="1.46727">
        <ele>237.825</ele>
        <time>2020-04-01T14:25:10Z</time>
      </trkpt>
      <trkpt lat="43.54806" lon="1.46727">
        <ele>237.915</ele>
        <time>2020-04-01T14:25:16Z</time>
      </trkpt>
      <trkpt lat="43.54806" lon="1.46726">
        <ele>238.146</ele>
        <time>2020-04-01T14:25:22Z</time>
      </trkpt>
      <trkpt lat="43.54806" lon="1.46725">
        <ele>238.221</ele>
        <time>2020-04-01T14:25:27Z</time>
      </trkpt>
      <trkpt lat="43.54808" lon="1.46722">
        <ele>238.297</ele>
        <time>2020-04-01T14:25:32Z</time>
      </trkpt>
      <trkpt lat="43.54809" lon="1.46722">
        <ele>238.389</ele>
        <time>2020-04-01T14:25:38Z</time>
      </trkpt>
      <trkpt lat="43.54809" lon="1.46723">
        <ele>238.484</ele>
        <time>2020-04-01T14:25:44Z</time>
      </trkpt>
      <trkpt lat="43.54809" lon="1.46723">
        <ele>238.564</ele>
        <time>2020-04-01T14:25:49Z</time>
      </trkpt>
      <trkpt lat="43.54809" lon="1.46724">
        <ele>238.663</ele>
        <time>2020-04-01T14:25:55Z</time>
      </trkpt>
      <trkpt lat="43.54809" lon="1.46725">
        <ele>238.915</ele>
        <time>2020-04-01T14:26:01Z</time>
      </trkpt>
      <trkpt lat="43.54809" lon="1.46725">
        <ele>238.997</ele>
        <time>2020-04-01T14:26:06Z</time>
      </trkpt>
      <trkpt lat="43.54811" lon="1.46725">
        <ele>239.519</ele>
        <time>2020-04-01T14:26:11Z</time>
      </trkpt>
      <trkpt lat="43.54809" lon="1.46726">
        <ele>240.42</ele>
        <time>2020-04-01T14:26:17Z</time>
      </trkpt>
      <trkpt lat="43.54805" lon="1.46732">
        <ele>240.996</ele>
        <time>2020-04-01T14:26:23Z</time>
      </trkpt>
      <trkpt lat="43.54804" lon="1.46733">
        <ele>241.061</ele>
        <time>2020-04-01T14:26:28Z</time>
      </trkpt>
      <trkpt lat="43.54804" lon="1.46734">
        <ele>241.14</ele>
        <time>2020-04-01T14:26:34Z</time>
      </trkpt>
      <trkpt lat="43.54804" lon="1.46734">
        <ele>241.218</ele>
        <time>2020-04-01T14:26:40Z</time>
      </trkpt>
      <trkpt lat="43.54801" lon="1.46737">
        <ele>241.854</ele>
        <time>2020-04-01T14:26:46Z</time>
      </trkpt>
      <trkpt lat="43.54798" lon="1.46741">
        <ele>242.533</ele>
        <time>2020-04-01T14:26:52Z</time>
      </trkpt>
      <trkpt lat="43.54796" lon="1.46745">
        <ele>243.049</ele>
        <time>2020-04-01T14:26:57Z</time>
      </trkpt>
      <trkpt lat="43.54795" lon="1.46752">
        <ele>243.613</ele>
        <time>2020-04-01T14:27:03Z</time>
      </trkpt>
      <trkpt lat="43.54792" lon="1.46759">
        <ele>244.124</ele>
        <time>2020-04-01T14:27:09Z</time>
      </trkpt>
      <trkpt lat="43.54789" lon="1.46765">
        <ele>244.514</ele>
        <time>2020-04-01T14:27:14Z</time>
      </trkpt>
      <trkpt lat="43.54791" lon="1.46773">
        <ele>244.946</ele>
        <time>2020-04-01T14:27:20Z</time>
      </trkpt>
      <trkpt lat="43.54792" lon="1.46781">
        <ele>245.285</ele>
        <time>2020-04-01T14:27:25Z</time>
      </trkpt>
      <trkpt lat="43.5479" lon="1.46783">
        <ele>245.657</ele>
        <time>2020-04-01T14:27:31Z</time>
      </trkpt>
      <trkpt lat="43.54786" lon="1.46787">
        <ele>245.936</ele>
        <time>2020-04-01T14:27:36Z</time>
      </trkpt>
      <trkpt lat="43.54781" lon="1.46793">
        <ele>246.236</ele>
        <time>2020-04-01T14:27:42Z</time>
      </trkpt>
      <trkpt lat="43.54776" lon="1.46799">
        <ele>246.505</ele>
        <time>2020-04-01T14:27:48Z</time>
      </trkpt>
      <trkpt lat="43.54774" lon="1.46803">
        <ele>246.744</ele>
        <time>2020-04-01T14:27:54Z</time>
      </trkpt>
      <trkpt lat="43.5477" lon="1.46804">
        <ele>246.925</ele>
        <time>2020-04-01T14:27:59Z</time>
      </trkpt>
      <trkpt lat="43.54764" lon="1.46807">
        <ele>247.118</ele>
        <time>2020-04-01T14:28:05Z</time>
      </trkpt>
      <trkpt lat="43.5476" lon="1.46811">
        <ele>247.264</ele>
        <time>2020-04-01T14:28:10Z</time>
      </trkpt>
      <trkpt lat="43.54756" lon="1.46815">
        <ele>247.422</ele>
        <time>2020-04-01T14:28:16Z</time>
      </trkpt>
      <trkpt lat="43.5475" lon="1.4682">
        <ele>247.544</ele>
        <time>2020-04-01T14:28:21Z</time>
      </trkpt>
      <trkpt lat="43.54746" lon="1.46826">
        <ele>247.68</ele>
        <time>2020-04-01T14:28:27Z</time>
      </trkpt>
      <trkpt lat="43.54742" lon="1.46831">
        <ele>247.79</ele>
        <time>2020-04-01T14:28:32Z</time>
      </trkpt>
      <trkpt lat="43.54739" lon="1.46836">
        <ele>247.917</ele>
        <time>2020-04-01T14:28:38Z</time>
      </trkpt>
      <trkpt lat="43.54734" lon="1.46843">
        <ele>248.033</ele>
        <time>2020-04-01T14:28:44Z</time>
      </trkpt>
      <trkpt lat="43.54729" lon="1.46852">
        <ele>248.135</ele>
        <time>2020-04-01T14:28:50Z</time>
      </trkpt>
      <trkpt lat="43.54723" lon="1.46861">
        <ele>248.231</ele>
        <time>2020-04-01T14:28:56Z</time>
      </trkpt>
      <trkpt lat="43.5472" lon="1.46868">
        <ele>248.318</ele>
        <time>2020-04-01T14:29:02Z</time>
      </trkpt>
      <trkpt lat="43.54716" lon="1.46875">
        <ele>248.4</ele>
        <time>2020-04-01T14:29:08Z</time>
      </trkpt>
      <trkpt lat="43.54712" lon="1.46882">
        <ele>248.464</ele>
        <time>2020-04-01T14:29:13Z</time>
      </trkpt>
      <trkpt lat="43.54709" lon="1.46888">
        <ele>248.536</ele>
        <time>2020-04-01T14:29:19Z</time>
      </trkpt>
      <trkpt lat="43.54705" lon="1.46894">
        <ele>248.606</ele>
        <time>2020-04-01T14:29:25Z</time>
      </trkpt>
      <trkpt lat="43.547" lon="1.46899">
        <ele>248.676</ele>
        <time>2020-04-01T14:29:31Z</time>
      </trkpt>
      <trkpt lat="43.54696" lon="1.46905">
        <ele>248.744</ele>
        <time>2020-04-01T14:29:37Z</time>
      </trkpt>
      <trkpt lat="43.54695" lon="1.46911">
        <ele>248.799</ele>
        <time>2020-04-01T14:29:42Z</time>
      </trkpt>
      <trkpt lat="43.54697" lon="1.46921">
        <ele>248.862</ele>
        <time>2020-04-01T14:29:48Z</time>
      </trkpt>
      <trkpt lat="43.547" lon="1.46928">
        <ele>248.933</ele>
        <time>2020-04-01T14:29:54Z</time>
      </trkpt>
      <trkpt lat="43.54707" lon="1.46925">
        <ele>249.005</ele>
        <time>2020-04-01T14:30:00Z</time>
      </trkpt>
      <trkpt lat="43.54712" lon="1.46922">
        <ele>249.064</ele>
        <time>2020-04-01T14:30:05Z</time>
      </trkpt>
      <trkpt lat="43.54717" lon="1.46921">
        <ele>249.135</ele>
        <time>2020-04-01T14:30:10Z</time>
      </trkpt>
      <trkpt lat="43.54723" lon="1.4692">
        <ele>249.21</ele>
        <time>2020-04-01T14:30:15Z</time>
      </trkpt>
      <trkpt lat="43.54729" lon="1.46919">
        <ele>249.304</ele>
        <time>2020-04-01T14:30:21Z</time>
      </trkpt>
      <trkpt lat="43.54734" lon="1.46916">
        <ele>249.382</ele>
        <time>2020-04-01T14:30:26Z</time>
      </trkpt>
      <trkpt lat="43.54737" lon="1.46916">
        <ele>249.448</ele>
        <time>2020-04-01T14:30:31Z</time>
      </trkpt>
      <trkpt lat="43.54739" lon="1.46916">
        <ele>249.539</ele>
        <time>2020-04-01T14:30:37Z</time>
      </trkpt>
      <trkpt lat="43.54741" lon="1.46916">
        <ele>249.596</ele>
        <time>2020-04-01T14:30:42Z</time>
      </trkpt>
      <trkpt lat="43.54741" lon="1.46917">
        <ele>249.638</ele>
        <time>2020-04-01T14:30:47Z</time>
      </trkpt>
      <trkpt lat="43.54741" lon="1.46917">
        <ele>249.645</ele>
        <time>2020-04-01T14:30:53Z</time>
      </trkpt>
      <trkpt lat="43.54741" lon="1.46916">
        <ele>249.651</ele>
        <time>2020-04-01T14:30:59Z</time>
      </trkpt>
      <trkpt lat="43.5474" lon="1.46917">
        <ele>249.656</ele>
        <time>2020-04-01T14:31:05Z</time>
      </trkpt>
      <trkpt lat="43.5474" lon="1.46917">
        <ele>249.66</ele>
        <time>2020-04-01T14:31:11Z</time>
      </trkpt>
      <trkpt lat="43.54739" lon="1.46917">
        <ele>249.663</ele>
        <time>2020-04-01T14:31:17Z</time>
      </trkpt>
      <trkpt lat="43.54739" lon="1.46917">
        <ele>249.665</ele>
        <time>2020-04-01T14:31:23Z</time>
      </trkpt>
      <trkpt lat="43.54739" lon="1.46917">
        <ele>249.667</ele>
        <time>2020-04-01T14:31:29Z</time>
      </trkpt>
      <trkpt lat="43.5474" lon="1.46917">
        <ele>249.671</ele>
        <time>2020-04-01T14:31:34Z</time>
      </trkpt>
      <trkpt lat="43.54744" lon="1.46916">
        <ele>249.655</ele>
        <time>2020-04-01T14:31:39Z</time>
      </trkpt>
      <trkpt lat="43.54751" lon="1.46914">
        <ele>249.624</ele>
        <time>2020-04-01T14:31:44Z</time>
      </trkpt>
      <trkpt lat="43.54758" lon="1.46911">
        <ele>249.578</ele>
        <time>2020-04-01T14:31:50Z</time>
      </trkpt>
      <trkpt lat="43.54762" lon="1.46909">
        <ele>249.529</ele>
        <time>2020-04-01T14:31:56Z</time>
      </trkpt>
      <trkpt lat="43.54768" lon="1.46907">
        <ele>249.487</ele>
        <time>2020-04-01T14:32:01Z</time>
      </trkpt>
      <trkpt lat="43.54774" lon="1.46908">
        <ele>249.447</ele>
        <time>2020-04-01T14:32:06Z</time>
      </trkpt>
      <trkpt lat="43.54779" lon="1.46911">
        <ele>249.406</ele>
        <time>2020-04-01T14:32:11Z</time>
      </trkpt>
      <trkpt lat="43.54783" lon="1.46915">
        <ele>249.356</ele>
        <time>2020-04-01T14:32:17Z</time>
      </trkpt>
      <trkpt lat="43.54788" lon="1.46916">
        <ele>249.31</ele>
        <time>2020-04-01T14:32:22Z</time>
      </trkpt>
      <trkpt lat="43.54795" lon="1.46916">
        <ele>249.251</ele>
        <time>2020-04-01T14:32:28Z</time>
      </trkpt>
      <trkpt lat="43.54802" lon="1.46919">
        <ele>249.188</ele>
        <time>2020-04-01T14:32:34Z</time>
      </trkpt>
      <trkpt lat="43.54804" lon="1.46921">
        <ele>249.125</ele>
        <time>2020-04-01T14:32:40Z</time>
      </trkpt>
      <trkpt lat="43.54805" lon="1.46924">
        <ele>249.069</ele>
        <time>2020-04-01T14:32:45Z</time>
      </trkpt>
      <trkpt lat="43.54808" lon="1.46926">
        <ele>248.999</ele>
        <time>2020-04-01T14:32:51Z</time>
      </trkpt>
      <trkpt lat="43.5481" lon="1.46929">
        <ele>248.941</ele>
        <time>2020-04-01T14:32:56Z</time>
      </trkpt>
      <trkpt lat="43.54812" lon="1.46937">
        <ele>248.87</ele>
        <time>2020-04-01T14:33:02Z</time>
      </trkpt>
      <trkpt lat="43.54815" lon="1.46945">
        <ele>248.797</ele>
        <time>2020-04-01T14:33:08Z</time>
      </trkpt>
      <trkpt lat="43.54818" lon="1.46951">
        <ele>248.737</ele>
        <time>2020-04-01T14:33:13Z</time>
      </trkpt>
      <trkpt lat="43.54822" lon="1.46957">
        <ele>248.666</ele>
        <time>2020-04-01T14:33:19Z</time>
      </trkpt>
      <trkpt lat="43.54825" lon="1.46963">
        <ele>248.595</ele>
        <time>2020-04-01T14:33:25Z</time>
      </trkpt>
      <trkpt lat="43.54827" lon="1.46968">
        <ele>248.522</ele>
        <time>2020-04-01T14:33:31Z</time>
      </trkpt>
      <trkpt lat="43.5483" lon="1.46973">
        <ele>248.446</ele>
        <time>2020-04-01T14:33:37Z</time>
      </trkpt>
      <trkpt lat="43.54833" lon="1.46976">
        <ele>248.38</ele>
        <time>2020-04-01T14:33:42Z</time>
      </trkpt>
      <trkpt lat="43.54836" lon="1.46982">
        <ele>248.301</ele>
        <time>2020-04-01T14:33:48Z</time>
      </trkpt>
      <trkpt lat="43.54834" lon="1.46988">
        <ele>248.222</ele>
        <time>2020-04-01T14:33:54Z</time>
      </trkpt>
      <trkpt lat="43.54835" lon="1.46993">
        <ele>248.144</ele>
        <time>2020-04-01T14:34:00Z</time>
      </trkpt>
      <trkpt lat="43.54836" lon="1.46997">
        <ele>248.076</ele>
        <time>2020-04-01T14:34:05Z</time>
      </trkpt>
      <trkpt lat="43.54838" lon="1.47003">
        <ele>248.009</ele>
        <time>2020-04-01T14:34:10Z</time>
      </trkpt>
      <trkpt lat="43.54838" lon="1.47011">
        <ele>247.924</ele>
        <time>2020-04-01T14:34:16Z</time>
      </trkpt>
      <trkpt lat="43.54836" lon="1.47018">
        <ele>247.83</ele>
        <time>2020-04-01T14:34:22Z</time>
      </trkpt>
      <trkpt lat="43.54833" lon="1.47026">
        <ele>247.732</ele>
        <time>2020-04-01T14:34:28Z</time>
      </trkpt>
      <trkpt lat="43.54834" lon="1.47033">
        <ele>247.637</ele>
        <time>2020-04-01T14:34:34Z</time>
      </trkpt>
      <trkpt lat="43.54834" lon="1.47039">
        <ele>247.545</ele>
        <time>2020-04-01T14:34:40Z</time>
      </trkpt>
      <trkpt lat="43.54831" lon="1.47046">
        <ele>247.442</ele>
        <time>2020-04-01T14:34:46Z</time>
      </trkpt>
      <trkpt lat="43.54829" lon="1.47058">
        <ele>247.328</ele>
        <time>2020-04-01T14:34:52Z</time>
      </trkpt>
      <trkpt lat="43.54828" lon="1.47066">
        <ele>247.206</ele>
        <time>2020-04-01T14:34:58Z</time>
      </trkpt>
      <trkpt lat="43.54824" lon="1.47075">
        <ele>247.08</ele>
        <time>2020-04-01T14:35:04Z</time>
      </trkpt>
      <trkpt lat="43.5482" lon="1.47085">
        <ele>246.953</ele>
        <time>2020-04-01T14:35:10Z</time>
      </trkpt>
      <trkpt lat="43.54817" lon="1.47093">
        <ele>246.825</ele>
        <time>2020-04-01T14:35:16Z</time>
      </trkpt>
      <trkpt lat="43.54813" lon="1.47102">
        <ele>246.704</ele>
        <time>2020-04-01T14:35:22Z</time>
      </trkpt>
      <trkpt lat="43.54812" lon="1.4711">
        <ele>246.589</ele>
        <time>2020-04-01T14:35:28Z</time>
      </trkpt>
      <trkpt lat="43.54811" lon="1.47119">
        <ele>246.474</ele>
        <time>2020-04-01T14:35:34Z</time>
      </trkpt>
      <trkpt lat="43.5481" lon="1.47126">
        <ele>246.376</ele>
        <time>2020-04-01T14:35:39Z</time>
      </trkpt>
      <trkpt lat="43.54809" lon="1.47135">
        <ele>246.277</ele>
        <time>2020-04-01T14:35:44Z</time>
      </trkpt>
      <trkpt lat="43.54809" lon="1.47145">
        <ele>246.156</ele>
        <time>2020-04-01T14:35:50Z</time>
      </trkpt>
      <trkpt lat="43.54812" lon="1.47152">
        <ele>246.032</ele>
        <time>2020-04-01T14:35:56Z</time>
      </trkpt>
      <trkpt lat="43.54818" lon="1.47158">
        <ele>245.895</ele>
        <time>2020-04-01T14:36:02Z</time>
      </trkpt>
      <trkpt lat="43.5482" lon="1.47163">
        <ele>245.767</ele>
        <time>2020-04-01T14:36:07Z</time>
      </trkpt>
      <trkpt lat="43.54824" lon="1.47168">
        <ele>245.625</ele>
        <time>2020-04-01T14:36:12Z</time>
      </trkpt>
      <trkpt lat="43.54827" lon="1.47174">
        <ele>245.469</ele>
        <time>2020-04-01T14:36:17Z</time>
      </trkpt>
      <trkpt lat="43.5483" lon="1.4718">
        <ele>245.264</ele>
        <time>2020-04-01T14:36:23Z</time>
      </trkpt>
      <trkpt lat="43.54835" lon="1.47183">
        <ele>245.041</ele>
        <time>2020-04-01T14:36:29Z</time>
      </trkpt>
      <trkpt lat="43.54838" lon="1.47181">
        <ele>244.838</ele>
        <time>2020-04-01T14:36:34Z</time>
      </trkpt>
      <trkpt lat="43.54849" lon="1.47174">
        <ele>244.569</ele>
        <time>2020-04-01T14:36:40Z</time>
      </trkpt>
      <trkpt lat="43.54852" lon="1.47171">
        <ele>244.337</ele>
        <time>2020-04-01T14:36:45Z</time>
      </trkpt>
      <trkpt lat="43.54856" lon="1.4717">
        <ele>244.145</ele>
        <time>2020-04-01T14:36:51Z</time>
      </trkpt>
      <trkpt lat="43.54861" lon="1.47164">
        <ele>243.889</ele>
        <time>2020-04-01T14:36:57Z</time>
      </trkpt>
      <trkpt lat="43.54863" lon="1.47159">
        <ele>243.649</ele>
        <time>2020-04-01T14:37:03Z</time>
      </trkpt>
      <trkpt lat="43.54871" lon="1.4716">
        <ele>243.416</ele>
        <time>2020-04-01T14:37:09Z</time>
      </trkpt>
      <trkpt lat="43.54885" lon="1.47154">
        <ele>243.181</ele>
        <time>2020-04-01T14:37:15Z</time>
      </trkpt>
      <trkpt lat="43.5489" lon="1.47149">
        <ele>242.986</ele>
        <time>2020-04-01T14:37:20Z</time>
      </trkpt>
      <trkpt lat="43.54894" lon="1.47147">
        <ele>242.759</ele>
        <time>2020-04-01T14:37:26Z</time>
      </trkpt>
      <trkpt lat="43.54898" lon="1.47142">
        <ele>242.578</ele>
        <time>2020-04-01T14:37:31Z</time>
      </trkpt>
      <trkpt lat="43.54904" lon="1.47135">
        <ele>242.364</ele>
        <time>2020-04-01T14:37:37Z</time>
      </trkpt>
      <trkpt lat="43.54909" lon="1.47132">
        <ele>242.188</ele>
        <time>2020-04-01T14:37:42Z</time>
      </trkpt>
      <trkpt lat="43.54915" lon="1.47126">
        <ele>241.977</ele>
        <time>2020-04-01T14:37:48Z</time>
      </trkpt>
      <trkpt lat="43.54919" lon="1.47125">
        <ele>241.769</ele>
        <time>2020-04-01T14:37:54Z</time>
      </trkpt>
      <trkpt lat="43.54922" lon="1.47122">
        <ele>241.573</ele>
        <time>2020-04-01T14:38:00Z</time>
      </trkpt>
      <trkpt lat="43.54923" lon="1.47123">
        <ele>241.419</ele>
        <time>2020-04-01T14:38:05Z</time>
      </trkpt>
      <trkpt lat="43.54925" lon="1.47122">
        <ele>241.291</ele>
        <time>2020-04-01T14:38:11Z</time>
      </trkpt>
      <trkpt lat="43.54938" lon="1.47116">
        <ele>241.138</ele>
        <time>2020-04-01T14:38:17Z</time>
      </trkpt>
      <trkpt lat="43.54943" lon="1.47116">
        <ele>240.993</ele>
        <time>2020-04-01T14:38:22Z</time>
      </trkpt>
      <trkpt lat="43.54946" lon="1.47121">
        <ele>240.817</ele>
        <time>2020-04-01T14:38:28Z</time>
      </trkpt>
      <trkpt lat="43.54952" lon="1.47119">
        <ele>240.624</ele>
        <time>2020-04-01T14:38:34Z</time>
      </trkpt>
      <trkpt lat="43.5496" lon="1.47114">
        <ele>240.404</ele>
        <time>2020-04-01T14:38:40Z</time>
      </trkpt>
      <trkpt lat="43.54967" lon="1.47109">
        <ele>240.172</ele>
        <time>2020-04-01T14:38:46Z</time>
      </trkpt>
      <trkpt lat="43.54972" lon="1.47105">
        <ele>239.981</ele>
        <time>2020-04-01T14:38:51Z</time>
      </trkpt>
      <trkpt lat="43.54976" lon="1.471">
        <ele>239.795</ele>
        <time>2020-04-01T14:38:56Z</time>
      </trkpt>
      <trkpt lat="43.54982" lon="1.47095">
        <ele>239.616</ele>
        <time>2020-04-01T14:39:01Z</time>
      </trkpt>
      <trkpt lat="43.54987" lon="1.47088">
        <ele>239.413</ele>
        <time>2020-04-01T14:39:07Z</time>
      </trkpt>
      <trkpt lat="43.54991" lon="1.47085">
        <ele>239.252</ele>
        <time>2020-04-01T14:39:12Z</time>
      </trkpt>
      <trkpt lat="43.54997" lon="1.47084">
        <ele>239.066</ele>
        <time>2020-04-01T14:39:18Z</time>
      </trkpt>
      <trkpt lat="43.55002" lon="1.47086">
        <ele>238.912</ele>
        <time>2020-04-01T14:39:23Z</time>
      </trkpt>
      <trkpt lat="43.55006" lon="1.47095">
        <ele>238.719</ele>
        <time>2020-04-01T14:39:29Z</time>
      </trkpt>
      <trkpt lat="43.55009" lon="1.47103">
        <ele>238.57</ele>
        <time>2020-04-01T14:39:34Z</time>
      </trkpt>
      <trkpt lat="43.5501" lon="1.47108">
        <ele>238.397</ele>
        <time>2020-04-01T14:39:40Z</time>
      </trkpt>
      <trkpt lat="43.55012" lon="1.47115">
        <ele>238.219</ele>
        <time>2020-04-01T14:39:46Z</time>
      </trkpt>
      <trkpt lat="43.55015" lon="1.47124">
        <ele>238.07</ele>
        <time>2020-04-01T14:39:51Z</time>
      </trkpt>
      <trkpt lat="43.55018" lon="1.47133">
        <ele>237.891</ele>
        <time>2020-04-01T14:39:57Z</time>
      </trkpt>
      <trkpt lat="43.55021" lon="1.47142">
        <ele>237.708</ele>
        <time>2020-04-01T14:40:03Z</time>
      </trkpt>
      <trkpt lat="43.55023" lon="1.4715">
        <ele>237.528</ele>
        <time>2020-04-01T14:40:09Z</time>
      </trkpt>
      <trkpt lat="43.55026" lon="1.47159">
        <ele>237.353</ele>
        <time>2020-04-01T14:40:15Z</time>
      </trkpt>
      <trkpt lat="43.55028" lon="1.47165">
        <ele>237.214</ele>
        <time>2020-04-01T14:40:20Z</time>
      </trkpt>
      <trkpt lat="43.55031" lon="1.47172">
        <ele>237.06</ele>
        <time>2020-04-01T14:40:26Z</time>
      </trkpt>
      <trkpt lat="43.55035" lon="1.4718">
        <ele>236.918</ele>
        <time>2020-04-01T14:40:32Z</time>
      </trkpt>
      <trkpt lat="43.55037" lon="1.47189">
        <ele>236.787</ele>
        <time>2020-04-01T14:40:38Z</time>
      </trkpt>
      <trkpt lat="43.55039" lon="1.47194">
        <ele>236.683</ele>
        <time>2020-04-01T14:40:43Z</time>
      </trkpt>
      <trkpt lat="43.5504" lon="1.47199">
        <ele>236.546</ele>
        <time>2020-04-01T14:40:49Z</time>
      </trkpt>
      <trkpt lat="43.55045" lon="1.47204">
        <ele>236.397</ele>
        <time>2020-04-01T14:40:55Z</time>
      </trkpt>
      <trkpt lat="43.55051" lon="1.47208">
        <ele>236.231</ele>
        <time>2020-04-01T14:41:01Z</time>
      </trkpt>
      <trkpt lat="43.55057" lon="1.47211">
        <ele>236.083</ele>
        <time>2020-04-01T14:41:06Z</time>
      </trkpt>
      <trkpt lat="43.55064" lon="1.47214">
        <ele>235.891</ele>
        <time>2020-04-01T14:41:12Z</time>
      </trkpt>
      <trkpt lat="43.55072" lon="1.47217">
        <ele>235.681</ele>
        <time>2020-04-01T14:41:18Z</time>
      </trkpt>
      <trkpt lat="43.55078" lon="1.47221">
        <ele>235.492</ele>
        <time>2020-04-01T14:41:23Z</time>
      </trkpt>
      <trkpt lat="43.55086" lon="1.47225">
        <ele>235.271</ele>
        <time>2020-04-01T14:41:29Z</time>
      </trkpt>
      <trkpt lat="43.55088" lon="1.47226">
        <ele>235.079</ele>
        <time>2020-04-01T14:41:34Z</time>
      </trkpt>
      <trkpt lat="43.55091" lon="1.4723">
        <ele>234.838</ele>
        <time>2020-04-01T14:41:40Z</time>
      </trkpt>
      <trkpt lat="43.55094" lon="1.47241">
        <ele>234.601</ele>
        <time>2020-04-01T14:41:46Z</time>
      </trkpt>
      <trkpt lat="43.55096" lon="1.47249">
        <ele>234.409</ele>
        <time>2020-04-01T14:41:51Z</time>
      </trkpt>
      <trkpt lat="43.55098" lon="1.47256">
        <ele>234.222</ele>
        <time>2020-04-01T14:41:56Z</time>
      </trkpt>
      <trkpt lat="43.55099" lon="1.47262">
        <ele>234.038</ele>
        <time>2020-04-01T14:42:01Z</time>
      </trkpt>
      <trkpt lat="43.55101" lon="1.4727">
        <ele>233.82</ele>
        <time>2020-04-01T14:42:07Z</time>
      </trkpt>
      <trkpt lat="43.55105" lon="1.47278">
        <ele>233.606</ele>
        <time>2020-04-01T14:42:13Z</time>
      </trkpt>
      <trkpt lat="43.55111" lon="1.47285">
        <ele>233.397</ele>
        <time>2020-04-01T14:42:19Z</time>
      </trkpt>
      <trkpt lat="43.55116" lon="1.47292">
        <ele>233.195</ele>
        <time>2020-04-01T14:42:25Z</time>
      </trkpt>
      <trkpt lat="43.5512" lon="1.47299">
        <ele>233</ele>
        <time>2020-04-01T14:42:31Z</time>
      </trkpt>
      <trkpt lat="43.55121" lon="1.47305">
        <ele>232.808</ele>
        <time>2020-04-01T14:42:37Z</time>
      </trkpt>
      <trkpt lat="43.55121" lon="1.47311">
        <ele>232.648</ele>
        <time>2020-04-01T14:42:42Z</time>
      </trkpt>
      <trkpt lat="43.55125" lon="1.47317">
        <ele>232.492</ele>
        <time>2020-04-01T14:42:47Z</time>
      </trkpt>
      <trkpt lat="43.55128" lon="1.47323">
        <ele>232.314</ele>
        <time>2020-04-01T14:42:53Z</time>
      </trkpt>
      <trkpt lat="43.5513" lon="1.4733">
        <ele>232.174</ele>
        <time>2020-04-01T14:42:58Z</time>
      </trkpt>
      <trkpt lat="43.55132" lon="1.47337">
        <ele>232.037</ele>
        <time>2020-04-01T14:43:03Z</time>
      </trkpt>
      <trkpt lat="43.55132" lon="1.47343">
        <ele>231.898</ele>
        <time>2020-04-01T14:43:08Z</time>
      </trkpt>
      <trkpt lat="43.55131" lon="1.47349">
        <ele>231.724</ele>
        <time>2020-04-01T14:43:14Z</time>
      </trkpt>
      <trkpt lat="43.55133" lon="1.47354">
        <ele>231.577</ele>
        <time>2020-04-01T14:43:19Z</time>
      </trkpt>
      <trkpt lat="43.55136" lon="1.47362">
        <ele>231.4</ele>
        <time>2020-04-01T14:43:25Z</time>
      </trkpt>
      <trkpt lat="43.55138" lon="1.47371">
        <ele>231.223</ele>
        <time>2020-04-01T14:43:31Z</time>
      </trkpt>
      <trkpt lat="43.55141" lon="1.47381">
        <ele>231.048</ele>
        <time>2020-04-01T14:43:37Z</time>
      </trkpt>
      <trkpt lat="43.55147" lon="1.47392">
        <ele>230.878</ele>
        <time>2020-04-01T14:43:43Z</time>
      </trkpt>
      <trkpt lat="43.5515" lon="1.474">
        <ele>230.741</ele>
        <time>2020-04-01T14:43:48Z</time>
      </trkpt>
      <trkpt lat="43.55152" lon="1.47408">
        <ele>230.581</ele>
        <time>2020-04-01T14:43:54Z</time>
      </trkpt>
      <trkpt lat="43.55154" lon="1.47415">
        <ele>230.427</ele>
        <time>2020-04-01T14:44:00Z</time>
      </trkpt>
      <trkpt lat="43.55155" lon="1.47421">
        <ele>230.301</ele>
        <time>2020-04-01T14:44:05Z</time>
      </trkpt>
      <trkpt lat="43.55156" lon="1.47429">
        <ele>230.149</ele>
        <time>2020-04-01T14:44:11Z</time>
      </trkpt>
      <trkpt lat="43.55158" lon="1.47438">
        <ele>229.987</ele>
        <time>2020-04-01T14:44:17Z</time>
      </trkpt>
      <trkpt lat="43.5516" lon="1.47445">
        <ele>229.817</ele>
        <time>2020-04-01T14:44:23Z</time>
      </trkpt>
      <trkpt lat="43.55161" lon="1.47452">
        <ele>229.637</ele>
        <time>2020-04-01T14:44:29Z</time>
      </trkpt>
      <trkpt lat="43.55164" lon="1.47459">
        <ele>229.449</ele>
        <time>2020-04-01T14:44:35Z</time>
      </trkpt>
      <trkpt lat="43.55168" lon="1.47467">
        <ele>229.285</ele>
        <time>2020-04-01T14:44:40Z</time>
      </trkpt>
      <trkpt lat="43.55172" lon="1.47478">
        <ele>229.083</ele>
        <time>2020-04-01T14:44:46Z</time>
      </trkpt>
      <trkpt lat="43.55177" lon="1.47487">
        <ele>228.879</ele>
        <time>2020-04-01T14:44:52Z</time>
      </trkpt>
      <trkpt lat="43.5518" lon="1.47493">
        <ele>228.676</ele>
        <time>2020-04-01T14:44:58Z</time>
      </trkpt>
      <trkpt lat="43.55183" lon="1.475">
        <ele>228.475</ele>
        <time>2020-04-01T14:45:04Z</time>
      </trkpt>
      <trkpt lat="43.55187" lon="1.47507">
        <ele>228.275</ele>
        <time>2020-04-01T14:45:10Z</time>
      </trkpt>
      <trkpt lat="43.55193" lon="1.47518">
        <ele>228.073</ele>
        <time>2020-04-01T14:45:16Z</time>
      </trkpt>
      <trkpt lat="43.55195" lon="1.47523">
        <ele>227.904</ele>
        <time>2020-04-01T14:45:21Z</time>
      </trkpt>
      <trkpt lat="43.5519" lon="1.47531">
        <ele>227.696</ele>
        <time>2020-04-01T14:45:27Z</time>
      </trkpt>
      <trkpt lat="43.55184" lon="1.47536">
        <ele>227.492</ele>
        <time>2020-04-01T14:45:33Z</time>
      </trkpt>
      <trkpt lat="43.55177" lon="1.47542">
        <ele>227.335</ele>
        <time>2020-04-01T14:45:38Z</time>
      </trkpt>
      <trkpt lat="43.55173" lon="1.47545">
        <ele>227.191</ele>
        <time>2020-04-01T14:45:43Z</time>
      </trkpt>
      <trkpt lat="43.55166" lon="1.47547">
        <ele>227.059</ele>
        <time>2020-04-01T14:45:48Z</time>
      </trkpt>
      <trkpt lat="43.55162" lon="1.47555">
        <ele>226.911</ele>
        <time>2020-04-01T14:45:54Z</time>
      </trkpt>
      <trkpt lat="43.55157" lon="1.47561">
        <ele>226.77</ele>
        <time>2020-04-01T14:46:00Z</time>
      </trkpt>
      <trkpt lat="43.55155" lon="1.47564">
        <ele>226.717</ele>
        <time>2020-04-01T14:46:05Z</time>
      </trkpt>
      <trkpt lat="43.55155" lon="1.47564">
        <ele>226.662</ele>
        <time>2020-04-01T14:46:11Z</time>
      </trkpt>
      <trkpt lat="43.55155" lon="1.47564">
        <ele>226.651</ele>
        <time>2020-04-01T14:46:16Z</time>
      </trkpt>
      <trkpt lat="43.55155" lon="1.47564">
        <ele>226.636</ele>
        <time>2020-04-01T14:46:22Z</time>
      </trkpt>
      <trkpt lat="43.55155" lon="1.47565">
        <ele>226.572</ele>
        <time>2020-04-01T14:46:27Z</time>
      </trkpt>
      <trkpt lat="43.55154" lon="1.47566">
        <ele>226.555</ele>
        <time>2020-04-01T14:46:33Z</time>
      </trkpt>
      <trkpt lat="43.55154" lon="1.47567">
        <ele>226.434</ele>
        <time>2020-04-01T14:46:39Z</time>
      </trkpt>
      <trkpt lat="43.55148" lon="1.47572">
        <ele>226.262</ele>
        <time>2020-04-01T14:46:45Z</time>
      </trkpt>
      <trkpt lat="43.55144" lon="1.47577">
        <ele>226.092</ele>
        <time>2020-04-01T14:46:51Z</time>
      </trkpt>
      <trkpt lat="43.55137" lon="1.47582">
        <ele>225.923</ele>
        <time>2020-04-01T14:46:57Z</time>
      </trkpt>
      <trkpt lat="43.55132" lon="1.47589">
        <ele>225.764</ele>
        <time>2020-04-01T14:47:03Z</time>
      </trkpt>
      <trkpt lat="43.55128" lon="1.47594">
        <ele>225.64</ele>
        <time>2020-04-01T14:47:08Z</time>
      </trkpt>
      <trkpt lat="43.55125" lon="1.47597">
        <ele>225.498</ele>
        <time>2020-04-01T14:47:14Z</time>
      </trkpt>
      <trkpt lat="43.5512" lon="1.476">
        <ele>225.387</ele>
        <time>2020-04-01T14:47:19Z</time>
      </trkpt>
      <trkpt lat="43.55115" lon="1.47604">
        <ele>225.263</ele>
        <time>2020-04-01T14:47:25Z</time>
      </trkpt>
      <trkpt lat="43.5511" lon="1.47608">
        <ele>225.165</ele>
        <time>2020-04-01T14:47:30Z</time>
      </trkpt>
      <trkpt lat="43.55105" lon="1.47612">
        <ele>225.054</ele>
        <time>2020-04-01T14:47:36Z</time>
      </trkpt>
      <trkpt lat="43.551" lon="1.47617">
        <ele>224.951</ele>
        <time>2020-04-01T14:47:42Z</time>
      </trkpt>
      <trkpt lat="43.55095" lon="1.47621">
        <ele>224.856</ele>
        <time>2020-04-01T14:47:48Z</time>
      </trkpt>
      <trkpt lat="43.55091" lon="1.47625">
        <ele>224.781</ele>
        <time>2020-04-01T14:47:53Z</time>
      </trkpt>
      <trkpt lat="43.55086" lon="1.4763">
        <ele>224.695</ele>
        <time>2020-04-01T14:47:59Z</time>
      </trkpt>
      <trkpt lat="43.55081" lon="1.47632">
        <ele>224.625</ele>
        <time>2020-04-01T14:48:04Z</time>
      </trkpt>
      <trkpt lat="43.55076" lon="1.47636">
        <ele>224.542</ele>
        <time>2020-04-01T14:48:10Z</time>
      </trkpt>
      <trkpt lat="43.55072" lon="1.47639">
        <ele>224.475</ele>
        <time>2020-04-01T14:48:15Z</time>
      </trkpt>
      <trkpt lat="43.55066" lon="1.47644">
        <ele>224.399</ele>
        <time>2020-04-01T14:48:21Z</time>
      </trkpt>
      <trkpt lat="43.55061" lon="1.47648">
        <ele>224.324</ele>
        <time>2020-04-01T14:48:27Z</time>
      </trkpt>
      <trkpt lat="43.55057" lon="1.47651">
        <ele>224.267</ele>
        <time>2020-04-01T14:48:32Z</time>
      </trkpt>
      <trkpt lat="43.55052" lon="1.47654">
        <ele>224.213</ele>
        <time>2020-04-01T14:48:37Z</time>
      </trkpt>
      <trkpt lat="43.55048" lon="1.47659">
        <ele>224.149</ele>
        <time>2020-04-01T14:48:43Z</time>
      </trkpt>
      <trkpt lat="43.55045" lon="1.47664">
        <ele>224.097</ele>
        <time>2020-04-01T14:48:48Z</time>
      </trkpt>
      <trkpt lat="43.55041" lon="1.47669">
        <ele>224.036</ele>
        <time>2020-04-01T14:48:54Z</time>
      </trkpt>
      <trkpt lat="43.55037" lon="1.47672">
        <ele>223.978</ele>
        <time>2020-04-01T14:49:00Z</time>
      </trkpt>
      <trkpt lat="43.55035" lon="1.47673">
        <ele>223.938</ele>
        <time>2020-04-01T14:49:05Z</time>
      </trkpt>
      <trkpt lat="43.55037" lon="1.47676">
        <ele>223.891</ele>
        <time>2020-04-01T14:49:10Z</time>
      </trkpt>
      <trkpt lat="43.55038" lon="1.47677">
        <ele>223.868</ele>
        <time>2020-04-01T14:49:15Z</time>
      </trkpt>
      <trkpt lat="43.55038" lon="1.47679">
        <ele>223.85</ele>
        <time>2020-04-01T14:49:21Z</time>
      </trkpt>
      <trkpt lat="43.55037" lon="1.47679">
        <ele>223.829</ele>
        <time>2020-04-01T14:49:26Z</time>
      </trkpt>
      <trkpt lat="43.55037" lon="1.47676">
        <ele>223.782</ele>
        <time>2020-04-01T14:49:32Z</time>
      </trkpt>
      <trkpt lat="43.55039" lon="1.47661">
        <ele>223.286</ele>
        <time>2020-04-01T14:49:42Z</time>
      </trkpt>
      <trkpt lat="43.55043" lon="1.47657">
        <ele>223.2</ele>
        <time>2020-04-01T14:49:48Z</time>
      </trkpt>
    </trkseg>
  </trk>
  <trk>
    <name><![CDATA[31 mars]]></name>
    <trkseg>
      <trkpt lat="43.55039" lon="1.47679">
        <ele>174.17</ele>
        <time>2020-04-01T13:31:45Z</time>
      </trkpt>
      <trkpt lat="43.55017" lon="1.47678">
        <ele>164.977</ele>
        <time>2020-04-01T13:31:51Z</time>
      </trkpt>
      <trkpt lat="43.55027" lon="1.4768">
        <ele>195.791</ele>
        <time>2020-04-01T13:31:56Z</time>
      </trkpt>
      <trkpt lat="43.55032" lon="1.47675">
        <ele>219.378</ele>
        <time>2020-04-01T13:32:02Z</time>
      </trkpt>
      <trkpt lat="43.55032" lon="1.47675">
        <ele>214.225</ele>
        <time>2020-04-01T13:32:08Z</time>
      </trkpt>
      <trkpt lat="43.55032" lon="1.47675">
        <ele>217.895</ele>
        <time>2020-04-01T13:32:14Z</time>
      </trkpt>
      <trkpt lat="43.55032" lon="1.47675">
        <ele>217.86</ele>
        <time>2020-04-01T13:32:20Z</time>
      </trkpt>
      <trkpt lat="43.55038" lon="1.47678">
        <ele>217.877</ele>
        <time>2020-04-01T13:32:25Z</time>
      </trkpt>
      <trkpt lat="43.55038" lon="1.47678">
        <ele>217.977</ele>
        <time>2020-04-01T13:32:31Z</time>
      </trkpt>
      <trkpt lat="43.55038" lon="1.47678">
        <ele>218.169</ele>
        <time>2020-04-01T13:32:36Z</time>
      </trkpt>
      <trkpt lat="43.55038" lon="1.47678">
        <ele>217.995</ele>
        <time>2020-04-01T13:32:41Z</time>
      </trkpt>
      <trkpt lat="43.55038" lon="1.47678">
        <ele>217.87</ele>
        <time>2020-04-01T13:32:47Z</time>
      </trkpt>
      <trkpt lat="43.55038" lon="1.47678">
        <ele>216.777</ele>
        <time>2020-04-01T13:32:52Z</time>
      </trkpt>
      <trkpt lat="43.55035" lon="1.47675">
        <ele>216.058</ele>
        <time>2020-04-01T13:32:57Z</time>
      </trkpt>
      <trkpt lat="43.55035" lon="1.47675">
        <ele>215.704</ele>
        <time>2020-04-01T13:33:03Z</time>
      </trkpt>
      <trkpt lat="43.55038" lon="1.47672">
        <ele>214.436</ele>
        <time>2020-04-01T13:33:08Z</time>
      </trkpt>
      <trkpt lat="43.55044" lon="1.47664">
        <ele>213.223</ele>
        <time>2020-04-01T13:33:14Z</time>
      </trkpt>
      <trkpt lat="43.55049" lon="1.47661">
        <ele>212.47</ele>
        <time>2020-04-01T13:33:19Z</time>
      </trkpt>
      <trkpt lat="43.55053" lon="1.47658">
        <ele>211.859</ele>
        <time>2020-04-01T13:33:25Z</time>
      </trkpt>
      <trkpt lat="43.55057" lon="1.47654">
        <ele>211.455</ele>
        <time>2020-04-01T13:33:30Z</time>
      </trkpt>
      <trkpt lat="43.55063" lon="1.4765">
        <ele>211.059</ele>
        <time>2020-04-01T13:33:36Z</time>
      </trkpt>
      <trkpt lat="43.5507" lon="1.47647">
        <ele>210.82</ele>
        <time>2020-04-01T13:33:42Z</time>
      </trkpt>
      <trkpt lat="43.55071" lon="1.47648">
        <ele>210.712</ele>
        <time>2020-04-01T13:33:48Z</time>
      </trkpt>
      <trkpt lat="43.55071" lon="1.47648">
        <ele>210.677</ele>
        <time>2020-04-01T13:33:54Z</time>
      </trkpt>
      <trkpt lat="43.55071" lon="1.47648">
        <ele>210.64</ele>
        <time>2020-04-01T13:33:59Z</time>
      </trkpt>
      <trkpt lat="43.55071" lon="1.47648">
        <ele>210.587</ele>
        <time>2020-04-01T13:34:05Z</time>
      </trkpt>
      <trkpt lat="43.55071" lon="1.47648">
        <ele>210.541</ele>
        <time>2020-04-01T13:34:10Z</time>
      </trkpt>
      <trkpt lat="43.55072" lon="1.47648">
        <ele>210.258</ele>
        <time>2020-04-01T13:34:16Z</time>
      </trkpt>
      <trkpt lat="43.55072" lon="1.47647">
        <ele>210.067</ele>
        <time>2020-04-01T13:34:22Z</time>
      </trkpt>
      <trkpt lat="43.55072" lon="1.47647">
        <ele>210.03</ele>
        <time>2020-04-01T13:34:27Z</time>
      </trkpt>
      <trkpt lat="43.55072" lon="1.47647">
        <ele>209.998</ele>
        <time>2020-04-01T13:34:32Z</time>
      </trkpt>
      <trkpt lat="43.55072" lon="1.47647">
        <ele>209.914</ele>
        <time>2020-04-01T13:34:38Z</time>
      </trkpt>
      <trkpt lat="43.55073" lon="1.47645">
        <ele>209.83</ele>
        <time>2020-04-01T13:34:44Z</time>
      </trkpt>
      <trkpt lat="43.55073" lon="1.47645">
        <ele>209.606</ele>
        <time>2020-04-01T13:34:50Z</time>
      </trkpt>
      <trkpt lat="43.55074" lon="1.47641">
        <ele>209.298</ele>
        <time>2020-04-01T13:34:56Z</time>
      </trkpt>
      <trkpt lat="43.55075" lon="1.47641">
        <ele>209.127</ele>
        <time>2020-04-01T13:35:01Z</time>
      </trkpt>
      <trkpt lat="43.55075" lon="1.47641">
        <ele>209.047</ele>
        <time>2020-04-01T13:35:07Z</time>
      </trkpt>
      <trkpt lat="43.55075" lon="1.4764">
        <ele>208.929</ele>
        <time>2020-04-01T13:35:12Z</time>
      </trkpt>
      <trkpt lat="43.55075" lon="1.4764">
        <ele>208.904</ele>
        <time>2020-04-01T13:35:17Z</time>
      </trkpt>
      <trkpt lat="43.55075" lon="1.4764">
        <ele>208.88</ele>
        <time>2020-04-01T13:35:22Z</time>
      </trkpt>
      <trkpt lat="43.55075" lon="1.4764">
        <ele>208.854</ele>
        <time>2020-04-01T13:35:28Z</time>
      </trkpt>
      <trkpt lat="43.55075" lon="1.4764">
        <ele>208.833</ele>
        <time>2020-04-01T13:35:33Z</time>
      </trkpt>
      <trkpt lat="43.55076" lon="1.4764">
        <ele>208.813</ele>
        <time>2020-04-01T13:35:38Z</time>
      </trkpt>
      <trkpt lat="43.55076" lon="1.47641">
        <ele>208.796</ele>
        <time>2020-04-01T13:35:43Z</time>
      </trkpt>
      <trkpt lat="43.55076" lon="1.47641">
        <ele>208.778</ele>
        <time>2020-04-01T13:35:49Z</time>
      </trkpt>
      <trkpt lat="43.55076" lon="1.47642">
        <ele>208.737</ele>
        <time>2020-04-01T13:35:54Z</time>
      </trkpt>
      <trkpt lat="43.55076" lon="1.47642">
        <ele>208.697</ele>
        <time>2020-04-01T13:35:59Z</time>
      </trkpt>
      <trkpt lat="43.55076" lon="1.47642">
        <ele>208.681</ele>
        <time>2020-04-01T13:36:05Z</time>
      </trkpt>
      <trkpt lat="43.55076" lon="1.47641">
        <ele>208.643</ele>
        <time>2020-04-01T13:36:11Z</time>
      </trkpt>
      <trkpt lat="43.55076" lon="1.47641">
        <ele>208.628</ele>
        <time>2020-04-01T13:36:17Z</time>
      </trkpt>
      <trkpt lat="43.55076" lon="1.47642">
        <ele>208.612</ele>
        <time>2020-04-01T13:36:23Z</time>
      </trkpt>
      <trkpt lat="43.55076" lon="1.47641">
        <ele>208.575</ele>
        <time>2020-04-01T13:36:28Z</time>
      </trkpt>
      <trkpt lat="43.55076" lon="1.47641">
        <ele>208.558</ele>
        <time>2020-04-01T13:36:34Z</time>
      </trkpt>
      <trkpt lat="43.55076" lon="1.47641">
        <ele>208.508</ele>
        <time>2020-04-01T13:36:40Z</time>
      </trkpt>
      <trkpt lat="43.55076" lon="1.47642">
        <ele>208.488</ele>
        <time>2020-04-01T13:36:46Z</time>
      </trkpt>
      <trkpt lat="43.55076" lon="1.47643">
        <ele>208.467</ele>
        <time>2020-04-01T13:36:52Z</time>
      </trkpt>
      <trkpt lat="43.55076" lon="1.47644">
        <ele>208.423</ele>
        <time>2020-04-01T13:36:57Z</time>
      </trkpt>
      <trkpt lat="43.55076" lon="1.47646">
        <ele>208.303</ele>
        <time>2020-04-01T13:37:02Z</time>
      </trkpt>
      <trkpt lat="43.55077" lon="1.47646">
        <ele>208.267</ele>
        <time>2020-04-01T13:37:08Z</time>
      </trkpt>
      <trkpt lat="43.55077" lon="1.47645">
        <ele>208.255</ele>
        <time>2020-04-01T13:37:13Z</time>
      </trkpt>
      <trkpt lat="43.55077" lon="1.47645">
        <ele>208.2</ele>
        <time>2020-04-01T13:37:19Z</time>
      </trkpt>
      <trkpt lat="43.55077" lon="1.47645">
        <ele>208.189</ele>
        <time>2020-04-01T13:37:24Z</time>
      </trkpt>
      <trkpt lat="43.55077" lon="1.47644">
        <ele>208.156</ele>
        <time>2020-04-01T13:37:29Z</time>
      </trkpt>
      <trkpt lat="43.55077" lon="1.47643">
        <ele>208.122</ele>
        <time>2020-04-01T13:37:35Z</time>
      </trkpt>
      <trkpt lat="43.55076" lon="1.47644">
        <ele>208.11</ele>
        <time>2020-04-01T13:37:40Z</time>
      </trkpt>
      <trkpt lat="43.55076" lon="1.47645">
        <ele>208.096</ele>
        <time>2020-04-01T13:37:46Z</time>
      </trkpt>
      <trkpt lat="43.55076" lon="1.47645">
        <ele>208.085</ele>
        <time>2020-04-01T13:37:51Z</time>
      </trkpt>
      <trkpt lat="43.55076" lon="1.47646">
        <ele>208.037</ele>
        <time>2020-04-01T13:37:56Z</time>
      </trkpt>
      <trkpt lat="43.55076" lon="1.47645">
        <ele>208.024</ele>
        <time>2020-04-01T13:38:02Z</time>
      </trkpt>
      <trkpt lat="43.55076" lon="1.47644">
        <ele>207.974</ele>
        <time>2020-04-01T13:38:08Z</time>
      </trkpt>
      <trkpt lat="43.55076" lon="1.47644">
        <ele>207.965</ele>
        <time>2020-04-01T13:38:13Z</time>
      </trkpt>
      <trkpt lat="43.55078" lon="1.47645">
        <ele>207.901</ele>
        <time>2020-04-01T13:38:18Z</time>
      </trkpt>
      <trkpt lat="43.55082" lon="1.4764">
        <ele>207.828</ele>
        <time>2020-04-01T13:38:23Z</time>
      </trkpt>
      <trkpt lat="43.55091" lon="1.47631">
        <ele>207.752</ele>
        <time>2020-04-01T13:38:29Z</time>
      </trkpt>
      <trkpt lat="43.55102" lon="1.47629">
        <ele>207.693</ele>
        <time>2020-04-01T13:38:35Z</time>
      </trkpt>
      <trkpt lat="43.55111" lon="1.47623">
        <ele>207.645</ele>
        <time>2020-04-01T13:38:41Z</time>
      </trkpt>
      <trkpt lat="43.55116" lon="1.47617">
        <ele>207.609</ele>
        <time>2020-04-01T13:38:47Z</time>
      </trkpt>
      <trkpt lat="43.55121" lon="1.47615">
        <ele>207.581</ele>
        <time>2020-04-01T13:38:53Z</time>
      </trkpt>
      <trkpt lat="43.55124" lon="1.47617">
        <ele>207.558</ele>
        <time>2020-04-01T13:38:58Z</time>
      </trkpt>
      <trkpt lat="43.55127" lon="1.47619">
        <ele>207.534</ele>
        <time>2020-04-01T13:39:04Z</time>
      </trkpt>
      <trkpt lat="43.55134" lon="1.47618">
        <ele>207.526</ele>
        <time>2020-04-01T13:39:09Z</time>
      </trkpt>
      <trkpt lat="43.55142" lon="1.47616">
        <ele>207.525</ele>
        <time>2020-04-01T13:39:15Z</time>
      </trkpt>
      <trkpt lat="43.55149" lon="1.47612">
        <ele>207.527</ele>
        <time>2020-04-01T13:39:21Z</time>
      </trkpt>
      <trkpt lat="43.55155" lon="1.47607">
        <ele>207.527</ele>
        <time>2020-04-01T13:39:26Z</time>
      </trkpt>
      <trkpt lat="43.55162" lon="1.47603">
        <ele>207.527</ele>
        <time>2020-04-01T13:39:32Z</time>
      </trkpt>
      <trkpt lat="43.55168" lon="1.47601">
        <ele>207.528</ele>
        <time>2020-04-01T13:39:38Z</time>
      </trkpt>
      <trkpt lat="43.55172" lon="1.47596">
        <ele>207.53</ele>
        <time>2020-04-01T13:39:43Z</time>
      </trkpt>
      <trkpt lat="43.55178" lon="1.47584">
        <ele>207.543</ele>
        <time>2020-04-01T13:39:49Z</time>
      </trkpt>
      <trkpt lat="43.55182" lon="1.47575">
        <ele>207.56</ele>
        <time>2020-04-01T13:39:55Z</time>
      </trkpt>
      <trkpt lat="43.55186" lon="1.4757">
        <ele>207.576</ele>
        <time>2020-04-01T13:40:01Z</time>
      </trkpt>
      <trkpt lat="43.5519" lon="1.47564">
        <ele>207.59</ele>
        <time>2020-04-01T13:40:07Z</time>
      </trkpt>
      <trkpt lat="43.55196" lon="1.47564">
        <ele>207.605</ele>
        <time>2020-04-01T13:40:13Z</time>
      </trkpt>
      <trkpt lat="43.552" lon="1.4756">
        <ele>207.616</ele>
        <time>2020-04-01T13:40:19Z</time>
      </trkpt>
      <trkpt lat="43.55203" lon="1.47555">
        <ele>207.622</ele>
        <time>2020-04-01T13:40:24Z</time>
      </trkpt>
      <trkpt lat="43.55207" lon="1.47551">
        <ele>207.63</ele>
        <time>2020-04-01T13:40:30Z</time>
      </trkpt>
      <trkpt lat="43.55214" lon="1.47546">
        <ele>207.636</ele>
        <time>2020-04-01T13:40:36Z</time>
      </trkpt>
      <trkpt lat="43.55212" lon="1.47549">
        <ele>207.636</ele>
        <time>2020-04-01T13:40:42Z</time>
      </trkpt>
      <trkpt lat="43.55221" lon="1.47539">
        <ele>207.636</ele>
        <time>2020-04-01T13:40:48Z</time>
      </trkpt>
      <trkpt lat="43.55228" lon="1.47534">
        <ele>207.638</ele>
        <time>2020-04-01T13:40:53Z</time>
      </trkpt>
      <trkpt lat="43.55233" lon="1.47533">
        <ele>207.642</ele>
        <time>2020-04-01T13:40:58Z</time>
      </trkpt>
      <trkpt lat="43.55239" lon="1.4754">
        <ele>207.648</ele>
        <time>2020-04-01T13:41:04Z</time>
      </trkpt>
      <trkpt lat="43.55246" lon="1.47542">
        <ele>207.655</ele>
        <time>2020-04-01T13:41:10Z</time>
      </trkpt>
      <trkpt lat="43.55248" lon="1.47547">
        <ele>207.658</ele>
        <time>2020-04-01T13:41:16Z</time>
      </trkpt>
      <trkpt lat="43.55254" lon="1.47549">
        <ele>207.658</ele>
        <time>2020-04-01T13:41:21Z</time>
      </trkpt>
      <trkpt lat="43.55259" lon="1.47551">
        <ele>207.659</ele>
        <time>2020-04-01T13:41:27Z</time>
      </trkpt>
      <trkpt lat="43.55258" lon="1.47554">
        <ele>207.662</ele>
        <time>2020-04-01T13:41:32Z</time>
      </trkpt>
      <trkpt lat="43.55259" lon="1.47556">
        <ele>207.672</ele>
        <time>2020-04-01T13:41:38Z</time>
      </trkpt>
      <trkpt lat="43.55267" lon="1.47555">
        <ele>207.692</ele>
        <time>2020-04-01T13:41:44Z</time>
      </trkpt>
      <trkpt lat="43.55275" lon="1.47552">
        <ele>207.717</ele>
        <time>2020-04-01T13:41:50Z</time>
      </trkpt>
      <trkpt lat="43.55282" lon="1.4755">
        <ele>207.738</ele>
        <time>2020-04-01T13:41:55Z</time>
      </trkpt>
      <trkpt lat="43.55292" lon="1.47542">
        <ele>207.726</ele>
        <time>2020-04-01T13:42:01Z</time>
      </trkpt>
      <trkpt lat="43.55299" lon="1.47539">
        <ele>207.649</ele>
        <time>2020-04-01T13:42:07Z</time>
      </trkpt>
      <trkpt lat="43.553" lon="1.47538">
        <ele>207.551</ele>
        <time>2020-04-01T13:42:13Z</time>
      </trkpt>
      <trkpt lat="43.55302" lon="1.47536">
        <ele>207.404</ele>
        <time>2020-04-01T13:42:19Z</time>
      </trkpt>
      <trkpt lat="43.55312" lon="1.4753">
        <ele>207.286</ele>
        <time>2020-04-01T13:42:24Z</time>
      </trkpt>
      <trkpt lat="43.55315" lon="1.47535">
        <ele>207.205</ele>
        <time>2020-04-01T13:42:29Z</time>
      </trkpt>
      <trkpt lat="43.55315" lon="1.47548">
        <ele>207.166</ele>
        <time>2020-04-01T13:42:35Z</time>
      </trkpt>
      <trkpt lat="43.55317" lon="1.47556">
        <ele>207.12</ele>
        <time>2020-04-01T13:42:40Z</time>
      </trkpt>
      <trkpt lat="43.55322" lon="1.47564">
        <ele>207.067</ele>
        <time>2020-04-01T13:42:46Z</time>
      </trkpt>
      <trkpt lat="43.55326" lon="1.47571">
        <ele>207.038</ele>
        <time>2020-04-01T13:42:52Z</time>
      </trkpt>
      <trkpt lat="43.55329" lon="1.47574">
        <ele>206.983</ele>
        <time>2020-04-01T13:42:57Z</time>
      </trkpt>
      <trkpt lat="43.55335" lon="1.47574">
        <ele>206.912</ele>
        <time>2020-04-01T13:43:03Z</time>
      </trkpt>
      <trkpt lat="43.5534" lon="1.47574">
        <ele>206.875</ele>
        <time>2020-04-01T13:43:08Z</time>
      </trkpt>
      <trkpt lat="43.55346" lon="1.47573">
        <ele>206.824</ele>
        <time>2020-04-01T13:43:14Z</time>
      </trkpt>
      <trkpt lat="43.55352" lon="1.47568">
        <ele>206.773</ele>
        <time>2020-04-01T13:43:20Z</time>
      </trkpt>
      <trkpt lat="43.55359" lon="1.47569">
        <ele>206.788</ele>
        <time>2020-04-01T13:43:25Z</time>
      </trkpt>
      <trkpt lat="43.55367" lon="1.47574">
        <ele>206.857</ele>
        <time>2020-04-01T13:43:31Z</time>
      </trkpt>
      <trkpt lat="43.55372" lon="1.47564">
        <ele>206.961</ele>
        <time>2020-04-01T13:43:37Z</time>
      </trkpt>
      <trkpt lat="43.55378" lon="1.47556">
        <ele>207.071</ele>
        <time>2020-04-01T13:43:42Z</time>
      </trkpt>
      <trkpt lat="43.55379" lon="1.47544">
        <ele>207.213</ele>
        <time>2020-04-01T13:43:48Z</time>
      </trkpt>
      <trkpt lat="43.55379" lon="1.47534">
        <ele>207.344</ele>
        <time>2020-04-01T13:43:53Z</time>
      </trkpt>
      <trkpt lat="43.55381" lon="1.47528">
        <ele>207.523</ele>
        <time>2020-04-01T13:43:59Z</time>
      </trkpt>
      <trkpt lat="43.55381" lon="1.47518">
        <ele>207.717</ele>
        <time>2020-04-01T13:44:05Z</time>
      </trkpt>
      <trkpt lat="43.55379" lon="1.47509">
        <ele>207.894</ele>
        <time>2020-04-01T13:44:10Z</time>
      </trkpt>
      <trkpt lat="43.55382" lon="1.47502">
        <ele>208.112</ele>
        <time>2020-04-01T13:44:16Z</time>
      </trkpt>
      <trkpt lat="43.55385" lon="1.47496">
        <ele>208.282</ele>
        <time>2020-04-01T13:44:21Z</time>
      </trkpt>
      <trkpt lat="43.55387" lon="1.47489">
        <ele>208.472</ele>
        <time>2020-04-01T13:44:27Z</time>
      </trkpt>
      <trkpt lat="43.55387" lon="1.4748">
        <ele>208.656</ele>
        <time>2020-04-01T13:44:33Z</time>
      </trkpt>
      <trkpt lat="43.55386" lon="1.47472">
        <ele>208.805</ele>
        <time>2020-04-01T13:44:38Z</time>
      </trkpt>
      <trkpt lat="43.55385" lon="1.47464">
        <ele>208.949</ele>
        <time>2020-04-01T13:44:43Z</time>
      </trkpt>
      <trkpt lat="43.55386" lon="1.47457">
        <ele>209.09</ele>
        <time>2020-04-01T13:44:48Z</time>
      </trkpt>
      <trkpt lat="43.55386" lon="1.47447">
        <ele>209.265</ele>
        <time>2020-04-01T13:44:54Z</time>
      </trkpt>
      <trkpt lat="43.55385" lon="1.47438">
        <ele>209.45</ele>
        <time>2020-04-01T13:45:00Z</time>
      </trkpt>
      <trkpt lat="43.55383" lon="1.47432">
        <ele>209.616</ele>
        <time>2020-04-01T13:45:05Z</time>
      </trkpt>
      <trkpt lat="43.55381" lon="1.4742">
        <ele>209.824</ele>
        <time>2020-04-01T13:45:11Z</time>
      </trkpt>
      <trkpt lat="43.55381" lon="1.47413">
        <ele>210.003</ele>
        <time>2020-04-01T13:45:16Z</time>
      </trkpt>
      <trkpt lat="43.55381" lon="1.47407">
        <ele>210.182</ele>
        <time>2020-04-01T13:45:21Z</time>
      </trkpt>
      <trkpt lat="43.55379" lon="1.47398">
        <ele>210.4</ele>
        <time>2020-04-01T13:45:27Z</time>
      </trkpt>
      <trkpt lat="43.5538" lon="1.47393">
        <ele>210.57</ele>
        <time>2020-04-01T13:45:32Z</time>
      </trkpt>
      <trkpt lat="43.5538" lon="1.47386">
        <ele>210.754</ele>
        <time>2020-04-01T13:45:38Z</time>
      </trkpt>
      <trkpt lat="43.55381" lon="1.47379">
        <ele>210.915</ele>
        <time>2020-04-01T13:45:44Z</time>
      </trkpt>
      <trkpt lat="43.55378" lon="1.47373">
        <ele>211.056</ele>
        <time>2020-04-01T13:45:50Z</time>
      </trkpt>
      <trkpt lat="43.55372" lon="1.47365">
        <ele>211.143</ele>
        <time>2020-04-01T13:45:55Z</time>
      </trkpt>
      <trkpt lat="43.5537" lon="1.47356">
        <ele>211.232</ele>
        <time>2020-04-01T13:46:01Z</time>
      </trkpt>
      <trkpt lat="43.55371" lon="1.47345">
        <ele>211.333</ele>
        <time>2020-04-01T13:46:07Z</time>
      </trkpt>
      <trkpt lat="43.5537" lon="1.47338">
        <ele>211.413</ele>
        <time>2020-04-01T13:46:12Z</time>
      </trkpt>
      <trkpt lat="43.5537" lon="1.47331">
        <ele>211.488</ele>
        <time>2020-04-01T13:46:17Z</time>
      </trkpt>
      <trkpt lat="43.55371" lon="1.4733">
        <ele>211.509</ele>
        <time>2020-04-01T13:46:22Z</time>
      </trkpt>
      <trkpt lat="43.55371" lon="1.47325">
        <ele>211.592</ele>
        <time>2020-04-01T13:46:28Z</time>
      </trkpt>
      <trkpt lat="43.5537" lon="1.47317">
        <ele>211.675</ele>
        <time>2020-04-01T13:46:34Z</time>
      </trkpt>
      <trkpt lat="43.55369" lon="1.4731">
        <ele>211.737</ele>
        <time>2020-04-01T13:46:39Z</time>
      </trkpt>
      <trkpt lat="43.55369" lon="1.47306">
        <ele>211.773</ele>
        <time>2020-04-01T13:46:44Z</time>
      </trkpt>
      <trkpt lat="43.55369" lon="1.47302">
        <ele>211.822</ele>
        <time>2020-04-01T13:46:49Z</time>
      </trkpt>
      <trkpt lat="43.55367" lon="1.47293">
        <ele>211.868</ele>
        <time>2020-04-01T13:46:55Z</time>
      </trkpt>
      <trkpt lat="43.55366" lon="1.47284">
        <ele>211.898</ele>
        <time>2020-04-01T13:47:01Z</time>
      </trkpt>
      <trkpt lat="43.55364" lon="1.47274">
        <ele>211.919</ele>
        <time>2020-04-01T13:47:07Z</time>
      </trkpt>
      <trkpt lat="43.55362" lon="1.47264">
        <ele>211.937</ele>
        <time>2020-04-01T13:47:12Z</time>
      </trkpt>
      <trkpt lat="43.55363" lon="1.47256">
        <ele>211.98</ele>
        <time>2020-04-01T13:47:18Z</time>
      </trkpt>
      <trkpt lat="43.55362" lon="1.47252">
        <ele>212.015</ele>
        <time>2020-04-01T13:47:23Z</time>
      </trkpt>
      <trkpt lat="43.55362" lon="1.47244">
        <ele>212.056</ele>
        <time>2020-04-01T13:47:29Z</time>
      </trkpt>
      <trkpt lat="43.5536" lon="1.47236">
        <ele>212.096</ele>
        <time>2020-04-01T13:47:35Z</time>
      </trkpt>
      <trkpt lat="43.55355" lon="1.47227">
        <ele>212.132</ele>
        <time>2020-04-01T13:47:41Z</time>
      </trkpt>
      <trkpt lat="43.55351" lon="1.47223">
        <ele>212.174</ele>
        <time>2020-04-01T13:47:47Z</time>
      </trkpt>
      <trkpt lat="43.5535" lon="1.4722">
        <ele>212.202</ele>
        <time>2020-04-01T13:47:52Z</time>
      </trkpt>
      <trkpt lat="43.55351" lon="1.47215">
        <ele>212.246</ele>
        <time>2020-04-01T13:47:58Z</time>
      </trkpt>
      <trkpt lat="43.55352" lon="1.47211">
        <ele>212.284</ele>
        <time>2020-04-01T13:48:03Z</time>
      </trkpt>
      <trkpt lat="43.55352" lon="1.47206">
        <ele>212.331</ele>
        <time>2020-04-01T13:48:09Z</time>
      </trkpt>
      <trkpt lat="43.55355" lon="1.47199">
        <ele>212.371</ele>
        <time>2020-04-01T13:48:14Z</time>
      </trkpt>
      <trkpt lat="43.55359" lon="1.47193">
        <ele>212.413</ele>
        <time>2020-04-01T13:48:19Z</time>
      </trkpt>
      <trkpt lat="43.55364" lon="1.47186">
        <ele>212.468</ele>
        <time>2020-04-01T13:48:25Z</time>
      </trkpt>
      <trkpt lat="43.55368" lon="1.47178">
        <ele>212.517</ele>
        <time>2020-04-01T13:48:30Z</time>
      </trkpt>
      <trkpt lat="43.55372" lon="1.47173">
        <ele>212.57</ele>
        <time>2020-04-01T13:48:36Z</time>
      </trkpt>
      <trkpt lat="43.55376" lon="1.47167">
        <ele>212.616</ele>
        <time>2020-04-01T13:48:42Z</time>
      </trkpt>
      <trkpt lat="43.55379" lon="1.47164">
        <ele>212.657</ele>
        <time>2020-04-01T13:48:47Z</time>
      </trkpt>
      <trkpt lat="43.55382" lon="1.47163">
        <ele>212.712</ele>
        <time>2020-04-01T13:48:53Z</time>
      </trkpt>
      <trkpt lat="43.55389" lon="1.47156">
        <ele>212.77</ele>
        <time>2020-04-01T13:48:59Z</time>
      </trkpt>
      <trkpt lat="43.55391" lon="1.47154">
        <ele>212.817</ele>
        <time>2020-04-01T13:49:05Z</time>
      </trkpt>
      <trkpt lat="43.55391" lon="1.47153">
        <ele>212.871</ele>
        <time>2020-04-01T13:49:11Z</time>
      </trkpt>
      <trkpt lat="43.55392" lon="1.4715">
        <ele>212.918</ele>
        <time>2020-04-01T13:49:16Z</time>
      </trkpt>
      <trkpt lat="43.55393" lon="1.47143">
        <ele>212.962</ele>
        <time>2020-04-01T13:49:22Z</time>
      </trkpt>
      <trkpt lat="43.55392" lon="1.47138">
        <ele>212.991</ele>
        <time>2020-04-01T13:49:27Z</time>
      </trkpt>
      <trkpt lat="43.55391" lon="1.47134">
        <ele>213.015</ele>
        <time>2020-04-01T13:49:32Z</time>
      </trkpt>
      <trkpt lat="43.55392" lon="1.47129">
        <ele>213.036</ele>
        <time>2020-04-01T13:49:38Z</time>
      </trkpt>
      <trkpt lat="43.55392" lon="1.47122">
        <ele>213.046</ele>
        <time>2020-04-01T13:49:43Z</time>
      </trkpt>
      <trkpt lat="43.55393" lon="1.47112">
        <ele>213.052</ele>
        <time>2020-04-01T13:49:49Z</time>
      </trkpt>
      <trkpt lat="43.55394" lon="1.47105">
        <ele>213.045</ele>
        <time>2020-04-01T13:49:54Z</time>
      </trkpt>
      <trkpt lat="43.55394" lon="1.47104">
        <ele>213.041</ele>
        <time>2020-04-01T13:50:00Z</time>
      </trkpt>
      <trkpt lat="43.55394" lon="1.47097">
        <ele>213.028</ele>
        <time>2020-04-01T13:50:06Z</time>
      </trkpt>
      <trkpt lat="43.55395" lon="1.4709">
        <ele>213.02</ele>
        <time>2020-04-01T13:50:11Z</time>
      </trkpt>
      <trkpt lat="43.55395" lon="1.47083">
        <ele>213.01</ele>
        <time>2020-04-01T13:50:17Z</time>
      </trkpt>
      <trkpt lat="43.55395" lon="1.47076">
        <ele>213.002</ele>
        <time>2020-04-01T13:50:22Z</time>
      </trkpt>
      <trkpt lat="43.55394" lon="1.47068">
        <ele>212.994</ele>
        <time>2020-04-01T13:50:28Z</time>
      </trkpt>
      <trkpt lat="43.55394" lon="1.47062">
        <ele>212.989</ele>
        <time>2020-04-01T13:50:33Z</time>
      </trkpt>
      <trkpt lat="43.55396" lon="1.47053">
        <ele>212.983</ele>
        <time>2020-04-01T13:50:39Z</time>
      </trkpt>
      <trkpt lat="43.55396" lon="1.47045">
        <ele>212.981</ele>
        <time>2020-04-01T13:50:44Z</time>
      </trkpt>
      <trkpt lat="43.55398" lon="1.47036">
        <ele>212.984</ele>
        <time>2020-04-01T13:50:50Z</time>
      </trkpt>
      <trkpt lat="43.55398" lon="1.47028">
        <ele>212.989</ele>
        <time>2020-04-01T13:50:55Z</time>
      </trkpt>
      <trkpt lat="43.55399" lon="1.47019">
        <ele>212.998</ele>
        <time>2020-04-01T13:51:01Z</time>
      </trkpt>
      <trkpt lat="43.55399" lon="1.47013">
        <ele>213.007</ele>
        <time>2020-04-01T13:51:06Z</time>
      </trkpt>
      <trkpt lat="43.554" lon="1.47002">
        <ele>213.025</ele>
        <time>2020-04-01T13:51:12Z</time>
      </trkpt>
      <trkpt lat="43.55403" lon="1.46994">
        <ele>213.05</ele>
        <time>2020-04-01T13:51:18Z</time>
      </trkpt>
      <trkpt lat="43.55405" lon="1.46986">
        <ele>213.078</ele>
        <time>2020-04-01T13:51:24Z</time>
      </trkpt>
      <trkpt lat="43.55406" lon="1.46982">
        <ele>213.105</ele>
        <time>2020-04-01T13:51:30Z</time>
      </trkpt>
      <trkpt lat="43.55409" lon="1.46973">
        <ele>213.128</ele>
        <time>2020-04-01T13:51:36Z</time>
      </trkpt>
      <trkpt lat="43.55411" lon="1.46965">
        <ele>213.145</ele>
        <time>2020-04-01T13:51:42Z</time>
      </trkpt>
      <trkpt lat="43.55412" lon="1.4696">
        <ele>213.154</ele>
        <time>2020-04-01T13:51:48Z</time>
      </trkpt>
      <trkpt lat="43.55414" lon="1.46955">
        <ele>213.158</ele>
        <time>2020-04-01T13:51:53Z</time>
      </trkpt>
      <trkpt lat="43.55417" lon="1.46949">
        <ele>213.157</ele>
        <time>2020-04-01T13:51:59Z</time>
      </trkpt>
      <trkpt lat="43.55421" lon="1.46941">
        <ele>213.155</ele>
        <time>2020-04-01T13:52:05Z</time>
      </trkpt>
      <trkpt lat="43.55424" lon="1.46935">
        <ele>213.148</ele>
        <time>2020-04-01T13:52:10Z</time>
      </trkpt>
      <trkpt lat="43.55428" lon="1.46925">
        <ele>213.133</ele>
        <time>2020-04-01T13:52:16Z</time>
      </trkpt>
      <trkpt lat="43.55432" lon="1.46915">
        <ele>213.114</ele>
        <time>2020-04-01T13:52:22Z</time>
      </trkpt>
      <trkpt lat="43.55434" lon="1.46906">
        <ele>213.101</ele>
        <time>2020-04-01T13:52:27Z</time>
      </trkpt>
      <trkpt lat="43.55436" lon="1.46896">
        <ele>213.089</ele>
        <time>2020-04-01T13:52:33Z</time>
      </trkpt>
      <trkpt lat="43.55438" lon="1.4689">
        <ele>213.077</ele>
        <time>2020-04-01T13:52:38Z</time>
      </trkpt>
      <trkpt lat="43.55441" lon="1.46883">
        <ele>213.065</ele>
        <time>2020-04-01T13:52:44Z</time>
      </trkpt>
      <trkpt lat="43.55444" lon="1.46877">
        <ele>213.055</ele>
        <time>2020-04-01T13:52:49Z</time>
      </trkpt>
      <trkpt lat="43.55448" lon="1.46867">
        <ele>213.05</ele>
        <time>2020-04-01T13:52:55Z</time>
      </trkpt>
      <trkpt lat="43.55451" lon="1.46859">
        <ele>213.066</ele>
        <time>2020-04-01T13:53:00Z</time>
      </trkpt>
      <trkpt lat="43.55455" lon="1.46853">
        <ele>213.097</ele>
        <time>2020-04-01T13:53:06Z</time>
      </trkpt>
      <trkpt lat="43.55458" lon="1.46844">
        <ele>213.137</ele>
        <time>2020-04-01T13:53:12Z</time>
      </trkpt>
      <trkpt lat="43.55461" lon="1.46838">
        <ele>213.176</ele>
        <time>2020-04-01T13:53:17Z</time>
      </trkpt>
      <trkpt lat="43.55463" lon="1.4683">
        <ele>213.221</ele>
        <time>2020-04-01T13:53:23Z</time>
      </trkpt>
      <trkpt lat="43.55467" lon="1.46821">
        <ele>213.263</ele>
        <time>2020-04-01T13:53:29Z</time>
      </trkpt>
      <trkpt lat="43.55471" lon="1.46814">
        <ele>213.306</ele>
        <time>2020-04-01T13:53:35Z</time>
      </trkpt>
      <trkpt lat="43.55474" lon="1.46804">
        <ele>213.342</ele>
        <time>2020-04-01T13:53:40Z</time>
      </trkpt>
      <trkpt lat="43.55476" lon="1.46793">
        <ele>213.395</ele>
        <time>2020-04-01T13:53:46Z</time>
      </trkpt>
      <trkpt lat="43.5548" lon="1.46787">
        <ele>213.45</ele>
        <time>2020-04-01T13:53:52Z</time>
      </trkpt>
      <trkpt lat="43.55476" lon="1.4678">
        <ele>213.494</ele>
        <time>2020-04-01T13:53:57Z</time>
      </trkpt>
      <trkpt lat="43.55471" lon="1.46774">
        <ele>213.541</ele>
        <time>2020-04-01T13:54:03Z</time>
      </trkpt>
      <trkpt lat="43.55468" lon="1.46769">
        <ele>213.574</ele>
        <time>2020-04-01T13:54:08Z</time>
      </trkpt>
      <trkpt lat="43.55464" lon="1.46762">
        <ele>213.609</ele>
        <time>2020-04-01T13:54:14Z</time>
      </trkpt>
      <trkpt lat="43.55461" lon="1.46754">
        <ele>213.647</ele>
        <time>2020-04-01T13:54:20Z</time>
      </trkpt>
      <trkpt lat="43.5546" lon="1.46744">
        <ele>213.689</ele>
        <time>2020-04-01T13:54:26Z</time>
      </trkpt>
      <trkpt lat="43.55461" lon="1.46735">
        <ele>213.737</ele>
        <time>2020-04-01T13:54:32Z</time>
      </trkpt>
      <trkpt lat="43.55462" lon="1.46727">
        <ele>213.788</ele>
        <time>2020-04-01T13:54:37Z</time>
      </trkpt>
      <trkpt lat="43.55466" lon="1.46719">
        <ele>213.855</ele>
        <time>2020-04-01T13:54:43Z</time>
      </trkpt>
      <trkpt lat="43.5547" lon="1.46709">
        <ele>213.93</ele>
        <time>2020-04-01T13:54:49Z</time>
      </trkpt>
      <trkpt lat="43.55473" lon="1.46702">
        <ele>214.01</ele>
        <time>2020-04-01T13:54:55Z</time>
      </trkpt>
      <trkpt lat="43.55475" lon="1.46696">
        <ele>214.091</ele>
        <time>2020-04-01T13:55:01Z</time>
      </trkpt>
      <trkpt lat="43.55478" lon="1.46692">
        <ele>214.152</ele>
        <time>2020-04-01T13:55:06Z</time>
      </trkpt>
      <trkpt lat="43.55483" lon="1.46687">
        <ele>214.217</ele>
        <time>2020-04-01T13:55:12Z</time>
      </trkpt>
      <trkpt lat="43.55487" lon="1.46683">
        <ele>214.266</ele>
        <time>2020-04-01T13:55:17Z</time>
      </trkpt>
      <trkpt lat="43.5549" lon="1.46678">
        <ele>214.307</ele>
        <time>2020-04-01T13:55:22Z</time>
      </trkpt>
      <trkpt lat="43.55494" lon="1.46673">
        <ele>214.344</ele>
        <time>2020-04-01T13:55:28Z</time>
      </trkpt>
      <trkpt lat="43.55499" lon="1.46667">
        <ele>214.368</ele>
        <time>2020-04-01T13:55:34Z</time>
      </trkpt>
      <trkpt lat="43.55504" lon="1.46663">
        <ele>214.379</ele>
        <time>2020-04-01T13:55:39Z</time>
      </trkpt>
      <trkpt lat="43.55512" lon="1.46659">
        <ele>214.384</ele>
        <time>2020-04-01T13:55:44Z</time>
      </trkpt>
      <trkpt lat="43.5552" lon="1.46654">
        <ele>214.391</ele>
        <time>2020-04-01T13:55:50Z</time>
      </trkpt>
      <trkpt lat="43.55527" lon="1.46647">
        <ele>214.407</ele>
        <time>2020-04-01T13:55:56Z</time>
      </trkpt>
      <trkpt lat="43.55531" lon="1.46644">
        <ele>214.423</ele>
        <time>2020-04-01T13:56:02Z</time>
      </trkpt>
      <trkpt lat="43.55536" lon="1.46639">
        <ele>214.446</ele>
        <time>2020-04-01T13:56:08Z</time>
      </trkpt>
      <trkpt lat="43.5554" lon="1.46635">
        <ele>214.472</ele>
        <time>2020-04-01T13:56:13Z</time>
      </trkpt>
      <trkpt lat="43.55544" lon="1.4663">
        <ele>214.501</ele>
        <time>2020-04-01T13:56:18Z</time>
      </trkpt>
      <trkpt lat="43.55549" lon="1.46625">
        <ele>214.531</ele>
        <time>2020-04-01T13:56:23Z</time>
      </trkpt>
      <trkpt lat="43.55554" lon="1.4662">
        <ele>214.565</ele>
        <time>2020-04-01T13:56:29Z</time>
      </trkpt>
      <trkpt lat="43.5556" lon="1.46616">
        <ele>214.591</ele>
        <time>2020-04-01T13:56:34Z</time>
      </trkpt>
      <trkpt lat="43.55566" lon="1.4661">
        <ele>214.618</ele>
        <time>2020-04-01T13:56:40Z</time>
      </trkpt>
      <trkpt lat="43.55569" lon="1.46605">
        <ele>214.632</ele>
        <time>2020-04-01T13:56:46Z</time>
      </trkpt>
      <trkpt lat="43.5557" lon="1.46606">
        <ele>214.637</ele>
        <time>2020-04-01T13:56:51Z</time>
      </trkpt>
      <trkpt lat="43.55569" lon="1.46606">
        <ele>214.648</ele>
        <time>2020-04-01T13:56:57Z</time>
      </trkpt>
      <trkpt lat="43.55563" lon="1.46612">
        <ele>214.652</ele>
        <time>2020-04-01T13:57:03Z</time>
      </trkpt>
      <trkpt lat="43.5556" lon="1.46614">
        <ele>214.65</ele>
        <time>2020-04-01T13:57:08Z</time>
      </trkpt>
      <trkpt lat="43.55555" lon="1.46618">
        <ele>214.643</ele>
        <time>2020-04-01T13:57:14Z</time>
      </trkpt>
      <trkpt lat="43.55551" lon="1.46621">
        <ele>214.634</ele>
        <time>2020-04-01T13:57:19Z</time>
      </trkpt>
      <trkpt lat="43.55547" lon="1.46624">
        <ele>214.621</ele>
        <time>2020-04-01T13:57:24Z</time>
      </trkpt>
      <trkpt lat="43.55541" lon="1.46628">
        <ele>214.598</ele>
        <time>2020-04-01T13:57:30Z</time>
      </trkpt>
      <trkpt lat="43.55535" lon="1.46635">
        <ele>214.557</ele>
        <time>2020-04-01T13:57:36Z</time>
      </trkpt>
      <trkpt lat="43.5553" lon="1.46638">
        <ele>214.521</ele>
        <time>2020-04-01T13:57:41Z</time>
      </trkpt>
      <trkpt lat="43.55525" lon="1.46642">
        <ele>214.486</ele>
        <time>2020-04-01T13:57:46Z</time>
      </trkpt>
      <trkpt lat="43.55521" lon="1.46648">
        <ele>214.441</ele>
        <time>2020-04-01T13:57:52Z</time>
      </trkpt>
      <trkpt lat="43.55519" lon="1.46653">
        <ele>214.41</ele>
        <time>2020-04-01T13:57:57Z</time>
      </trkpt>
      <trkpt lat="43.55519" lon="1.46653">
        <ele>214.388</ele>
        <time>2020-04-01T13:58:02Z</time>
      </trkpt>
      <trkpt lat="43.55515" lon="1.46656">
        <ele>214.329</ele>
        <time>2020-04-01T13:58:08Z</time>
      </trkpt>
      <trkpt lat="43.5551" lon="1.4666">
        <ele>214.277</ele>
        <time>2020-04-01T13:58:13Z</time>
      </trkpt>
      <trkpt lat="43.55505" lon="1.46664">
        <ele>214.218</ele>
        <time>2020-04-01T13:58:19Z</time>
      </trkpt>
      <trkpt lat="43.55499" lon="1.46667">
        <ele>214.158</ele>
        <time>2020-04-01T13:58:25Z</time>
      </trkpt>
      <trkpt lat="43.55493" lon="1.46668">
        <ele>214.097</ele>
        <time>2020-04-01T13:58:31Z</time>
      </trkpt>
      <trkpt lat="43.5549" lon="1.46668">
        <ele>214.05</ele>
        <time>2020-04-01T13:58:36Z</time>
      </trkpt>
      <trkpt lat="43.55484" lon="1.46669">
        <ele>214.003</ele>
        <time>2020-04-01T13:58:42Z</time>
      </trkpt>
      <trkpt lat="43.55479" lon="1.46669">
        <ele>213.975</ele>
        <time>2020-04-01T13:58:47Z</time>
      </trkpt>
      <trkpt lat="43.55475" lon="1.46668">
        <ele>213.956</ele>
        <time>2020-04-01T13:58:52Z</time>
      </trkpt>
      <trkpt lat="43.55471" lon="1.46669">
        <ele>213.945</ele>
        <time>2020-04-01T13:58:57Z</time>
      </trkpt>
      <trkpt lat="43.55465" lon="1.46671">
        <ele>213.944</ele>
        <time>2020-04-01T13:59:02Z</time>
      </trkpt>
      <trkpt lat="43.5546" lon="1.4667">
        <ele>213.945</ele>
        <time>2020-04-01T13:59:07Z</time>
      </trkpt>
      <trkpt lat="43.55454" lon="1.46669">
        <ele>213.953</ele>
        <time>2020-04-01T13:59:13Z</time>
      </trkpt>
      <trkpt lat="43.5545" lon="1.46668">
        <ele>213.965</ele>
        <time>2020-04-01T13:59:19Z</time>
      </trkpt>
      <trkpt lat="43.55445" lon="1.46668">
        <ele>213.978</ele>
        <time>2020-04-01T13:59:24Z</time>
      </trkpt>
      <trkpt lat="43.5544" lon="1.46669">
        <ele>214.002</ele>
        <time>2020-04-01T13:59:29Z</time>
      </trkpt>
      <trkpt lat="43.55437" lon="1.4667">
        <ele>214.025</ele>
        <time>2020-04-01T13:59:34Z</time>
      </trkpt>
      <trkpt lat="43.55431" lon="1.46672">
        <ele>214.051</ele>
        <time>2020-04-01T13:59:40Z</time>
      </trkpt>
      <trkpt lat="43.55424" lon="1.46672">
        <ele>214.076</ele>
        <time>2020-04-01T13:59:46Z</time>
      </trkpt>
      <trkpt lat="43.55416" lon="1.46672">
        <ele>214.096</ele>
        <time>2020-04-01T13:59:52Z</time>
      </trkpt>
      <trkpt lat="43.5541" lon="1.46672">
        <ele>214.112</ele>
        <time>2020-04-01T13:59:57Z</time>
      </trkpt>
      <trkpt lat="43.55405" lon="1.46673">
        <ele>214.131</ele>
        <time>2020-04-01T14:00:03Z</time>
      </trkpt>
      <trkpt lat="43.55398" lon="1.46674">
        <ele>214.15</ele>
        <time>2020-04-01T14:00:09Z</time>
      </trkpt>
      <trkpt lat="43.55393" lon="1.46675">
        <ele>214.17</ele>
        <time>2020-04-01T14:00:15Z</time>
      </trkpt>
      <trkpt lat="43.55389" lon="1.46675">
        <ele>214.188</ele>
        <time>2020-04-01T14:00:20Z</time>
      </trkpt>
      <trkpt lat="43.55384" lon="1.46675">
        <ele>214.206</ele>
        <time>2020-04-01T14:00:25Z</time>
      </trkpt>
      <trkpt lat="43.55379" lon="1.46675">
        <ele>214.227</ele>
        <time>2020-04-01T14:00:31Z</time>
      </trkpt>
      <trkpt lat="43.55375" lon="1.46675">
        <ele>214.246</ele>
        <time>2020-04-01T14:00:36Z</time>
      </trkpt>
      <trkpt lat="43.55369" lon="1.46678">
        <ele>214.269</ele>
        <time>2020-04-01T14:00:42Z</time>
      </trkpt>
      <trkpt lat="43.55364" lon="1.46679">
        <ele>214.288</ele>
        <time>2020-04-01T14:00:47Z</time>
      </trkpt>
      <trkpt lat="43.55359" lon="1.46681">
        <ele>214.309</ele>
        <time>2020-04-01T14:00:52Z</time>
      </trkpt>
      <trkpt lat="43.55353" lon="1.46683">
        <ele>214.339</ele>
        <time>2020-04-01T14:00:58Z</time>
      </trkpt>
      <trkpt lat="43.55347" lon="1.46686">
        <ele>214.368</ele>
        <time>2020-04-01T14:01:03Z</time>
      </trkpt>
      <trkpt lat="43.55337" lon="1.46687">
        <ele>214.4</ele>
        <time>2020-04-01T14:01:09Z</time>
      </trkpt>
      <trkpt lat="43.55332" lon="1.46688">
        <ele>214.424</ele>
        <time>2020-04-01T14:01:14Z</time>
      </trkpt>
      <trkpt lat="43.55327" lon="1.46687">
        <ele>214.45</ele>
        <time>2020-04-01T14:01:19Z</time>
      </trkpt>
      <trkpt lat="43.55323" lon="1.46687">
        <ele>214.475</ele>
        <time>2020-04-01T14:01:24Z</time>
      </trkpt>
      <trkpt lat="43.5532" lon="1.46694">
        <ele>214.502</ele>
        <time>2020-04-01T14:01:30Z</time>
      </trkpt>
      <trkpt lat="43.55314" lon="1.46698">
        <ele>214.536</ele>
        <time>2020-04-01T14:01:36Z</time>
      </trkpt>
      <trkpt lat="43.55314" lon="1.46698">
        <ele>214.55</ele>
        <time>2020-04-01T14:01:42Z</time>
      </trkpt>
      <trkpt lat="43.55312" lon="1.46696">
        <ele>214.588</ele>
        <time>2020-04-01T14:01:47Z</time>
      </trkpt>
      <trkpt lat="43.5531" lon="1.46692">
        <ele>214.634</ele>
        <time>2020-04-01T14:01:52Z</time>
      </trkpt>
      <trkpt lat="43.55307" lon="1.46684">
        <ele>214.688</ele>
        <time>2020-04-01T14:01:58Z</time>
      </trkpt>
      <trkpt lat="43.55305" lon="1.46677">
        <ele>214.732</ele>
        <time>2020-04-01T14:02:03Z</time>
      </trkpt>
      <trkpt lat="43.55303" lon="1.46671">
        <ele>214.785</ele>
        <time>2020-04-01T14:02:09Z</time>
      </trkpt>
      <trkpt lat="43.553" lon="1.46665">
        <ele>214.837</ele>
        <time>2020-04-01T14:02:15Z</time>
      </trkpt>
      <trkpt lat="43.55297" lon="1.46658">
        <ele>214.89</ele>
        <time>2020-04-01T14:02:21Z</time>
      </trkpt>
      <trkpt lat="43.55295" lon="1.46651">
        <ele>214.937</ele>
        <time>2020-04-01T14:02:26Z</time>
      </trkpt>
      <trkpt lat="43.55292" lon="1.46646">
        <ele>214.993</ele>
        <time>2020-04-01T14:02:32Z</time>
      </trkpt>
      <trkpt lat="43.55285" lon="1.46643">
        <ele>215.041</ele>
        <time>2020-04-01T14:02:37Z</time>
      </trkpt>
      <trkpt lat="43.55281" lon="1.46636">
        <ele>215.1</ele>
        <time>2020-04-01T14:02:43Z</time>
      </trkpt>
      <trkpt lat="43.55278" lon="1.46631">
        <ele>215.16</ele>
        <time>2020-04-01T14:02:49Z</time>
      </trkpt>
      <trkpt lat="43.55276" lon="1.46623">
        <ele>215.21</ele>
        <time>2020-04-01T14:02:54Z</time>
      </trkpt>
      <trkpt lat="43.55277" lon="1.46614">
        <ele>215.273</ele>
        <time>2020-04-01T14:03:00Z</time>
      </trkpt>
      <trkpt lat="43.55274" lon="1.4661">
        <ele>215.327</ele>
        <time>2020-04-01T14:03:05Z</time>
      </trkpt>
      <trkpt lat="43.55274" lon="1.4661">
        <ele>215.334</ele>
        <time>2020-04-01T14:03:11Z</time>
      </trkpt>
      <trkpt lat="43.55273" lon="1.46609">
        <ele>215.362</ele>
        <time>2020-04-01T14:03:17Z</time>
      </trkpt>
      <trkpt lat="43.55272" lon="1.46606">
        <ele>215.405</ele>
        <time>2020-04-01T14:03:23Z</time>
      </trkpt>
      <trkpt lat="43.55271" lon="1.46602">
        <ele>215.422</ele>
        <time>2020-04-01T14:03:29Z</time>
      </trkpt>
      <trkpt lat="43.5527" lon="1.466">
        <ele>215.479</ele>
        <time>2020-04-01T14:03:35Z</time>
      </trkpt>
      <trkpt lat="43.55269" lon="1.46599">
        <ele>215.516</ele>
        <time>2020-04-01T14:03:41Z</time>
      </trkpt>
      <trkpt lat="43.55269" lon="1.46598">
        <ele>215.547</ele>
        <time>2020-04-01T14:03:46Z</time>
      </trkpt>
      <trkpt lat="43.55268" lon="1.46598">
        <ele>215.554</ele>
        <time>2020-04-01T14:03:51Z</time>
      </trkpt>
      <trkpt lat="43.55267" lon="1.46598">
        <ele>215.591</ele>
        <time>2020-04-01T14:03:57Z</time>
      </trkpt>
      <trkpt lat="43.55265" lon="1.46595">
        <ele>215.68</ele>
        <time>2020-04-01T14:04:03Z</time>
      </trkpt>
      <trkpt lat="43.55258" lon="1.46584">
        <ele>215.749</ele>
        <time>2020-04-01T14:04:08Z</time>
      </trkpt>
      <trkpt lat="43.55256" lon="1.4658">
        <ele>215.827</ele>
        <time>2020-04-01T14:04:14Z</time>
      </trkpt>
      <trkpt lat="43.55253" lon="1.46575">
        <ele>215.894</ele>
        <time>2020-04-01T14:04:20Z</time>
      </trkpt>
      <trkpt lat="43.55252" lon="1.46574">
        <ele>215.967</ele>
        <time>2020-04-01T14:04:26Z</time>
      </trkpt>
      <trkpt lat="43.55248" lon="1.46565">
        <ele>216.033</ele>
        <time>2020-04-01T14:04:32Z</time>
      </trkpt>
      <trkpt lat="43.55246" lon="1.46557">
        <ele>216.077</ele>
        <time>2020-04-01T14:04:37Z</time>
      </trkpt>
      <trkpt lat="43.55244" lon="1.46554">
        <ele>216.127</ele>
        <time>2020-04-01T14:04:42Z</time>
      </trkpt>
      <trkpt lat="43.5524" lon="1.46553">
        <ele>216.185</ele>
        <time>2020-04-01T14:04:48Z</time>
      </trkpt>
      <trkpt lat="43.55234" lon="1.46548">
        <ele>216.234</ele>
        <time>2020-04-01T14:04:53Z</time>
      </trkpt>
      <trkpt lat="43.5523" lon="1.46543">
        <ele>216.283</ele>
        <time>2020-04-01T14:04:58Z</time>
      </trkpt>
      <trkpt lat="43.55226" lon="1.46541">
        <ele>216.332</ele>
        <time>2020-04-01T14:05:03Z</time>
      </trkpt>
      <trkpt lat="43.5522" lon="1.46536">
        <ele>216.394</ele>
        <time>2020-04-01T14:05:09Z</time>
      </trkpt>
      <trkpt lat="43.55219" lon="1.46532">
        <ele>216.44</ele>
        <time>2020-04-01T14:05:14Z</time>
      </trkpt>
      <trkpt lat="43.55216" lon="1.46524">
        <ele>216.5</ele>
        <time>2020-04-01T14:05:19Z</time>
      </trkpt>
      <trkpt lat="43.55215" lon="1.46527">
        <ele>216.53</ele>
        <time>2020-04-01T14:05:25Z</time>
      </trkpt>
      <trkpt lat="43.55215" lon="1.46529">
        <ele>216.536</ele>
        <time>2020-04-01T14:05:30Z</time>
      </trkpt>
      <trkpt lat="43.55215" lon="1.46529">
        <ele>216.574</ele>
        <time>2020-04-01T14:05:36Z</time>
      </trkpt>
      <trkpt lat="43.55215" lon="1.46529">
        <ele>216.584</ele>
        <time>2020-04-01T14:05:42Z</time>
      </trkpt>
      <trkpt lat="43.55215" lon="1.46529">
        <ele>216.593</ele>
        <time>2020-04-01T14:05:47Z</time>
      </trkpt>
      <trkpt lat="43.55215" lon="1.46529">
        <ele>216.605</ele>
        <time>2020-04-01T14:05:52Z</time>
      </trkpt>
      <trkpt lat="43.55215" lon="1.46529">
        <ele>216.625</ele>
        <time>2020-04-01T14:05:58Z</time>
      </trkpt>
      <trkpt lat="43.55216" lon="1.46528">
        <ele>216.646</ele>
        <time>2020-04-01T14:06:03Z</time>
      </trkpt>
      <trkpt lat="43.55216" lon="1.46528">
        <ele>216.673</ele>
        <time>2020-04-01T14:06:09Z</time>
      </trkpt>
      <trkpt lat="43.55217" lon="1.46527">
        <ele>216.699</ele>
        <time>2020-04-01T14:06:15Z</time>
      </trkpt>
      <trkpt lat="43.55217" lon="1.46527">
        <ele>216.72</ele>
        <time>2020-04-01T14:06:20Z</time>
      </trkpt>
      <trkpt lat="43.55217" lon="1.46527">
        <ele>216.741</ele>
        <time>2020-04-01T14:06:25Z</time>
      </trkpt>
      <trkpt lat="43.55217" lon="1.46529">
        <ele>216.939</ele>
        <time>2020-04-01T14:06:31Z</time>
      </trkpt>
      <trkpt lat="43.55222" lon="1.46535">
        <ele>217.141</ele>
        <time>2020-04-01T14:06:37Z</time>
      </trkpt>
      <trkpt lat="43.55226" lon="1.46538">
        <ele>217.212</ele>
        <time>2020-04-01T14:06:43Z</time>
      </trkpt>
      <trkpt lat="43.55226" lon="1.46539">
        <ele>217.229</ele>
        <time>2020-04-01T14:06:49Z</time>
      </trkpt>
      <trkpt lat="43.55227" lon="1.4654">
        <ele>217.246</ele>
        <time>2020-04-01T14:06:54Z</time>
      </trkpt>
      <trkpt lat="43.55229" lon="1.46542">
        <ele>217.331</ele>
        <time>2020-04-01T14:06:59Z</time>
      </trkpt>
      <trkpt lat="43.55233" lon="1.46547">
        <ele>217.51</ele>
        <time>2020-04-01T14:07:04Z</time>
      </trkpt>
      <trkpt lat="43.55237" lon="1.46549">
        <ele>217.707</ele>
        <time>2020-04-01T14:07:10Z</time>
      </trkpt>
      <trkpt lat="43.55241" lon="1.46552">
        <ele>217.856</ele>
        <time>2020-04-01T14:07:15Z</time>
      </trkpt>
      <trkpt lat="43.55247" lon="1.46557">
        <ele>218.022</ele>
        <time>2020-04-01T14:07:21Z</time>
      </trkpt>
      <trkpt lat="43.55252" lon="1.46563">
        <ele>218.147</ele>
        <time>2020-04-01T14:07:26Z</time>
      </trkpt>
      <trkpt lat="43.55257" lon="1.46569">
        <ele>218.288</ele>
        <time>2020-04-01T14:07:32Z</time>
      </trkpt>
      <trkpt lat="43.5526" lon="1.46574">
        <ele>218.399</ele>
        <time>2020-04-01T14:07:37Z</time>
      </trkpt>
      <trkpt lat="43.55264" lon="1.46578">
        <ele>218.503</ele>
        <time>2020-04-01T14:07:42Z</time>
      </trkpt>
      <trkpt lat="43.55266" lon="1.46581">
        <ele>218.6</ele>
        <time>2020-04-01T14:07:47Z</time>
      </trkpt>
      <trkpt lat="43.55267" lon="1.46589">
        <ele>218.714</ele>
        <time>2020-04-01T14:07:53Z</time>
      </trkpt>
      <trkpt lat="43.5527" lon="1.46597">
        <ele>218.822</ele>
        <time>2020-04-01T14:07:59Z</time>
      </trkpt>
      <trkpt lat="43.55273" lon="1.46606">
        <ele>218.925</ele>
        <time>2020-04-01T14:08:05Z</time>
      </trkpt>
      <trkpt lat="43.55276" lon="1.46612">
        <ele>219.007</ele>
        <time>2020-04-01T14:08:10Z</time>
      </trkpt>
      <trkpt lat="43.55278" lon="1.46618">
        <ele>219.099</ele>
        <time>2020-04-01T14:08:16Z</time>
      </trkpt>
      <trkpt lat="43.55282" lon="1.46622">
        <ele>219.172</ele>
        <time>2020-04-01T14:08:21Z</time>
      </trkpt>
      <trkpt lat="43.55281" lon="1.46633">
        <ele>219.242</ele>
        <time>2020-04-01T14:08:26Z</time>
      </trkpt>
      <trkpt lat="43.55283" lon="1.46639">
        <ele>219.306</ele>
        <time>2020-04-01T14:08:31Z</time>
      </trkpt>
      <trkpt lat="43.55286" lon="1.46645">
        <ele>219.373</ele>
        <time>2020-04-01T14:08:37Z</time>
      </trkpt>
      <trkpt lat="43.55289" lon="1.46649">
        <ele>219.426</ele>
        <time>2020-04-01T14:08:42Z</time>
      </trkpt>
      <trkpt lat="43.55292" lon="1.46657">
        <ele>219.487</ele>
        <time>2020-04-01T14:08:48Z</time>
      </trkpt>
      <trkpt lat="43.55295" lon="1.46664">
        <ele>219.538</ele>
        <time>2020-04-01T14:08:53Z</time>
      </trkpt>
      <trkpt lat="43.55299" lon="1.46672">
        <ele>219.594</ele>
        <time>2020-04-01T14:08:59Z</time>
      </trkpt>
      <trkpt lat="43.55302" lon="1.4668">
        <ele>219.642</ele>
        <time>2020-04-01T14:09:05Z</time>
      </trkpt>
      <trkpt lat="43.55303" lon="1.46686">
        <ele>219.673</ele>
        <time>2020-04-01T14:09:10Z</time>
      </trkpt>
      <trkpt lat="43.55305" lon="1.46694">
        <ele>219.705</ele>
        <time>2020-04-01T14:09:16Z</time>
      </trkpt>
      <trkpt lat="43.55309" lon="1.46698">
        <ele>219.731</ele>
        <time>2020-04-01T14:09:21Z</time>
      </trkpt>
      <trkpt lat="43.55309" lon="1.46703">
        <ele>219.752</ele>
        <time>2020-04-01T14:09:26Z</time>
      </trkpt>
      <trkpt lat="43.55308" lon="1.46704">
        <ele>219.773</ele>
        <time>2020-04-01T14:09:31Z</time>
      </trkpt>
      <trkpt lat="43.55298" lon="1.46705">
        <ele>219.801</ele>
        <time>2020-04-01T14:09:37Z</time>
      </trkpt>
      <trkpt lat="43.55293" lon="1.46707">
        <ele>219.823</ele>
        <time>2020-04-01T14:09:42Z</time>
      </trkpt>
      <trkpt lat="43.55287" lon="1.46711">
        <ele>219.845</ele>
        <time>2020-04-01T14:09:48Z</time>
      </trkpt>
      <trkpt lat="43.55281" lon="1.46719">
        <ele>219.86</ele>
        <time>2020-04-01T14:09:53Z</time>
      </trkpt>
      <trkpt lat="43.55273" lon="1.46721">
        <ele>219.88</ele>
        <time>2020-04-01T14:09:59Z</time>
      </trkpt>
      <trkpt lat="43.55269" lon="1.46723">
        <ele>219.9</ele>
        <time>2020-04-01T14:10:04Z</time>
      </trkpt>
      <trkpt lat="43.55265" lon="1.46726">
        <ele>219.929</ele>
        <time>2020-04-01T14:10:10Z</time>
      </trkpt>
      <trkpt lat="43.55259" lon="1.4673">
        <ele>219.954</ele>
        <time>2020-04-01T14:10:15Z</time>
      </trkpt>
      <trkpt lat="43.55254" lon="1.46735">
        <ele>219.987</ele>
        <time>2020-04-01T14:10:21Z</time>
      </trkpt>
      <trkpt lat="43.55247" lon="1.46739">
        <ele>220.018</ele>
        <time>2020-04-01T14:10:27Z</time>
      </trkpt>
      <trkpt lat="43.55242" lon="1.46739">
        <ele>220.04</ele>
        <time>2020-04-01T14:10:33Z</time>
      </trkpt>
      <trkpt lat="43.55238" lon="1.46742">
        <ele>220.056</ele>
        <time>2020-04-01T14:10:38Z</time>
      </trkpt>
      <trkpt lat="43.55233" lon="1.46743">
        <ele>220.063</ele>
        <time>2020-04-01T14:10:44Z</time>
      </trkpt>
      <trkpt lat="43.55227" lon="1.46744">
        <ele>220.062</ele>
        <time>2020-04-01T14:10:50Z</time>
      </trkpt>
      <trkpt lat="43.55222" lon="1.46745">
        <ele>220.065</ele>
        <time>2020-04-01T14:10:56Z</time>
      </trkpt>
      <trkpt lat="43.55219" lon="1.46743">
        <ele>220.074</ele>
        <time>2020-04-01T14:11:01Z</time>
      </trkpt>
      <trkpt lat="43.55213" lon="1.46743">
        <ele>220.096</ele>
        <time>2020-04-01T14:11:07Z</time>
      </trkpt>
      <trkpt lat="43.55212" lon="1.46742">
        <ele>220.106</ele>
        <time>2020-04-01T14:11:12Z</time>
      </trkpt>
      <trkpt lat="43.55212" lon="1.46742">
        <ele>220.11</ele>
        <time>2020-04-01T14:11:18Z</time>
      </trkpt>
      <trkpt lat="43.5521" lon="1.46742">
        <ele>220.163</ele>
        <time>2020-04-01T14:11:24Z</time>
      </trkpt>
      <trkpt lat="43.55206" lon="1.46741">
        <ele>220.223</ele>
        <time>2020-04-01T14:11:30Z</time>
      </trkpt>
      <trkpt lat="43.55202" lon="1.46739">
        <ele>220.273</ele>
        <time>2020-04-01T14:11:35Z</time>
      </trkpt>
      <trkpt lat="43.55196" lon="1.46738">
        <ele>220.324</ele>
        <time>2020-04-01T14:11:40Z</time>
      </trkpt>
      <trkpt lat="43.55191" lon="1.46736">
        <ele>220.375</ele>
        <time>2020-04-01T14:11:45Z</time>
      </trkpt>
      <trkpt lat="43.55184" lon="1.46731">
        <ele>220.442</ele>
        <time>2020-04-01T14:11:51Z</time>
      </trkpt>
      <trkpt lat="43.55178" lon="1.46725">
        <ele>220.51</ele>
        <time>2020-04-01T14:11:57Z</time>
      </trkpt>
      <trkpt lat="43.55173" lon="1.4672">
        <ele>220.579</ele>
        <time>2020-04-01T14:12:03Z</time>
      </trkpt>
      <trkpt lat="43.55168" lon="1.46716">
        <ele>220.637</ele>
        <time>2020-04-01T14:12:08Z</time>
      </trkpt>
      <trkpt lat="43.55163" lon="1.46713">
        <ele>220.695</ele>
        <time>2020-04-01T14:12:13Z</time>
      </trkpt>
      <trkpt lat="43.55158" lon="1.46709">
        <ele>220.765</ele>
        <time>2020-04-01T14:12:19Z</time>
      </trkpt>
      <trkpt lat="43.55153" lon="1.46706">
        <ele>220.838</ele>
        <time>2020-04-01T14:12:25Z</time>
      </trkpt>
      <trkpt lat="43.55149" lon="1.46704">
        <ele>220.906</ele>
        <time>2020-04-01T14:12:30Z</time>
      </trkpt>
      <trkpt lat="43.55143" lon="1.46697">
        <ele>220.987</ele>
        <time>2020-04-01T14:12:36Z</time>
      </trkpt>
      <trkpt lat="43.55136" lon="1.46693">
        <ele>221.065</ele>
        <time>2020-04-01T14:12:42Z</time>
      </trkpt>
      <trkpt lat="43.55131" lon="1.46692">
        <ele>221.136</ele>
        <time>2020-04-01T14:12:48Z</time>
      </trkpt>
      <trkpt lat="43.55127" lon="1.46691">
        <ele>221.194</ele>
        <time>2020-04-01T14:12:53Z</time>
      </trkpt>
      <trkpt lat="43.5512" lon="1.46687">
        <ele>221.265</ele>
        <time>2020-04-01T14:12:59Z</time>
      </trkpt>
      <trkpt lat="43.55116" lon="1.46683">
        <ele>221.321</ele>
        <time>2020-04-01T14:13:04Z</time>
      </trkpt>
      <trkpt lat="43.55111" lon="1.46678">
        <ele>221.373</ele>
        <time>2020-04-01T14:13:09Z</time>
      </trkpt>
      <trkpt lat="43.55106" lon="1.46676">
        <ele>221.428</ele>
        <time>2020-04-01T14:13:14Z</time>
      </trkpt>
      <trkpt lat="43.55101" lon="1.46673">
        <ele>221.502</ele>
        <time>2020-04-01T14:13:20Z</time>
      </trkpt>
      <trkpt lat="43.55096" lon="1.46671">
        <ele>221.572</ele>
        <time>2020-04-01T14:13:25Z</time>
      </trkpt>
      <trkpt lat="43.5509" lon="1.46669">
        <ele>221.666</ele>
        <time>2020-04-01T14:13:31Z</time>
      </trkpt>
      <trkpt lat="43.55086" lon="1.46666">
        <ele>221.752</ele>
        <time>2020-04-01T14:13:36Z</time>
      </trkpt>
      <trkpt lat="43.55083" lon="1.46662">
        <ele>221.864</ele>
        <time>2020-04-01T14:13:42Z</time>
      </trkpt>
      <trkpt lat="43.55078" lon="1.46657">
        <ele>221.959</ele>
        <time>2020-04-01T14:13:47Z</time>
      </trkpt>
      <trkpt lat="43.55073" lon="1.46653">
        <ele>222.057</ele>
        <time>2020-04-01T14:13:52Z</time>
      </trkpt>
      <trkpt lat="43.55066" lon="1.46652">
        <ele>222.182</ele>
        <time>2020-04-01T14:13:58Z</time>
      </trkpt>
      <trkpt lat="43.55061" lon="1.4665">
        <ele>222.313</ele>
        <time>2020-04-01T14:14:04Z</time>
      </trkpt>
      <trkpt lat="43.55058" lon="1.46648">
        <ele>222.424</ele>
        <time>2020-04-01T14:14:09Z</time>
      </trkpt>
      <trkpt lat="43.55054" lon="1.46645">
        <ele>222.551</ele>
        <time>2020-04-01T14:14:15Z</time>
      </trkpt>
      <trkpt lat="43.5505" lon="1.46642">
        <ele>222.675</ele>
        <time>2020-04-01T14:14:21Z</time>
      </trkpt>
      <trkpt lat="43.55045" lon="1.46638">
        <ele>222.795</ele>
        <time>2020-04-01T14:14:27Z</time>
      </trkpt>
      <trkpt lat="43.55039" lon="1.46636">
        <ele>222.888</ele>
        <time>2020-04-01T14:14:32Z</time>
      </trkpt>
      <trkpt lat="43.55036" lon="1.46634">
        <ele>222.997</ele>
        <time>2020-04-01T14:14:38Z</time>
      </trkpt>
      <trkpt lat="43.55031" lon="1.46632">
        <ele>223.084</ele>
        <time>2020-04-01T14:14:43Z</time>
      </trkpt>
      <trkpt lat="43.55028" lon="1.46631">
        <ele>223.168</ele>
        <time>2020-04-01T14:14:48Z</time>
      </trkpt>
      <trkpt lat="43.55022" lon="1.46631">
        <ele>223.271</ele>
        <time>2020-04-01T14:14:54Z</time>
      </trkpt>
      <trkpt lat="43.55018" lon="1.46628">
        <ele>223.372</ele>
        <time>2020-04-01T14:15:00Z</time>
      </trkpt>
      <trkpt lat="43.55014" lon="1.46627">
        <ele>223.471</ele>
        <time>2020-04-01T14:15:06Z</time>
      </trkpt>
      <trkpt lat="43.55009" lon="1.46625">
        <ele>223.569</ele>
        <time>2020-04-01T14:15:12Z</time>
      </trkpt>
      <trkpt lat="43.55004" lon="1.46624">
        <ele>223.648</ele>
        <time>2020-04-01T14:15:17Z</time>
      </trkpt>
      <trkpt lat="43.54999" lon="1.46624">
        <ele>223.742</ele>
        <time>2020-04-01T14:15:23Z</time>
      </trkpt>
      <trkpt lat="43.54994" lon="1.46622">
        <ele>223.818</ele>
        <time>2020-04-01T14:15:28Z</time>
      </trkpt>
      <trkpt lat="43.5499" lon="1.4662">
        <ele>223.914</ele>
        <time>2020-04-01T14:15:34Z</time>
      </trkpt>
      <trkpt lat="43.54986" lon="1.46618">
        <ele>223.99</ele>
        <time>2020-04-01T14:15:39Z</time>
      </trkpt>
      <trkpt lat="43.54982" lon="1.46616">
        <ele>224.084</ele>
        <time>2020-04-01T14:15:45Z</time>
      </trkpt>
      <trkpt lat="43.54978" lon="1.46621">
        <ele>224.14</ele>
        <time>2020-04-01T14:15:50Z</time>
      </trkpt>
      <trkpt lat="43.54979" lon="1.46616">
        <ele>224.264</ele>
        <time>2020-04-01T14:15:56Z</time>
      </trkpt>
      <trkpt lat="43.54978" lon="1.46612">
        <ele>224.378</ele>
        <time>2020-04-01T14:16:01Z</time>
      </trkpt>
      <trkpt lat="43.54981" lon="1.46604">
        <ele>224.499</ele>
        <time>2020-04-01T14:16:07Z</time>
      </trkpt>
      <trkpt lat="43.54982" lon="1.46594">
        <ele>224.646</ele>
        <time>2020-04-01T14:16:13Z</time>
      </trkpt>
      <trkpt lat="43.54983" lon="1.46589">
        <ele>224.797</ele>
        <time>2020-04-01T14:16:19Z</time>
      </trkpt>
      <trkpt lat="43.54984" lon="1.46581">
        <ele>224.946</ele>
        <time>2020-04-01T14:16:25Z</time>
      </trkpt>
      <trkpt lat="43.54985" lon="1.46578">
        <ele>225.065</ele>
        <time>2020-04-01T14:16:30Z</time>
      </trkpt>
      <trkpt lat="43.54991" lon="1.46568">
        <ele>225.206</ele>
        <time>2020-04-01T14:16:36Z</time>
      </trkpt>
      <trkpt lat="43.54994" lon="1.46558">
        <ele>225.351</ele>
        <time>2020-04-01T14:16:42Z</time>
      </trkpt>
      <trkpt lat="43.54995" lon="1.46549">
        <ele>225.48</ele>
        <time>2020-04-01T14:16:47Z</time>
      </trkpt>
      <trkpt lat="43.54996" lon="1.46542">
        <ele>225.642</ele>
        <time>2020-04-01T14:16:53Z</time>
      </trkpt>
      <trkpt lat="43.54998" lon="1.46536">
        <ele>225.814</ele>
        <time>2020-04-01T14:16:59Z</time>
      </trkpt>
      <trkpt lat="43.54999" lon="1.46532">
        <ele>225.938</ele>
        <time>2020-04-01T14:17:04Z</time>
      </trkpt>
      <trkpt lat="43.55" lon="1.46532">
        <ele>226.016</ele>
        <time>2020-04-01T14:17:10Z</time>
      </trkpt>
      <trkpt lat="43.54998" lon="1.46532">
        <ele>226.173</ele>
        <time>2020-04-01T14:17:15Z</time>
      </trkpt>
      <trkpt lat="43.54996" lon="1.46535">
        <ele>226.351</ele>
        <time>2020-04-01T14:17:21Z</time>
      </trkpt>
      <trkpt lat="43.54996" lon="1.46541">
        <ele>226.526</ele>
        <time>2020-04-01T14:17:27Z</time>
      </trkpt>
      <trkpt lat="43.54993" lon="1.46545">
        <ele>226.668</ele>
        <time>2020-04-01T14:17:32Z</time>
      </trkpt>
      <trkpt lat="43.54991" lon="1.46553">
        <ele>226.835</ele>
        <time>2020-04-01T14:17:38Z</time>
      </trkpt>
      <trkpt lat="43.54991" lon="1.46561">
        <ele>226.969</ele>
        <time>2020-04-01T14:17:43Z</time>
      </trkpt>
      <trkpt lat="43.54988" lon="1.4657">
        <ele>227.097</ele>
        <time>2020-04-01T14:17:48Z</time>
      </trkpt>
      <trkpt lat="43.54986" lon="1.46577">
        <ele>227.246</ele>
        <time>2020-04-01T14:17:54Z</time>
      </trkpt>
      <trkpt lat="43.54982" lon="1.46586">
        <ele>227.396</ele>
        <time>2020-04-01T14:18:00Z</time>
      </trkpt>
      <trkpt lat="43.54981" lon="1.46592">
        <ele>227.516</ele>
        <time>2020-04-01T14:18:05Z</time>
      </trkpt>
      <trkpt lat="43.54978" lon="1.46598">
        <ele>227.633</ele>
        <time>2020-04-01T14:18:10Z</time>
      </trkpt>
      <trkpt lat="43.54976" lon="1.46603">
        <ele>227.748</ele>
        <time>2020-04-01T14:18:15Z</time>
      </trkpt>
      <trkpt lat="43.54972" lon="1.46609">
        <ele>227.884</ele>
        <time>2020-04-01T14:18:21Z</time>
      </trkpt>
      <trkpt lat="43.54969" lon="1.46614">
        <ele>227.999</ele>
        <time>2020-04-01T14:18:26Z</time>
      </trkpt>
      <trkpt lat="43.54964" lon="1.46614">
        <ele>228.108</ele>
        <time>2020-04-01T14:18:31Z</time>
      </trkpt>
      <trkpt lat="43.54958" lon="1.4661">
        <ele>228.238</ele>
        <time>2020-04-01T14:18:37Z</time>
      </trkpt>
      <trkpt lat="43.54953" lon="1.46607">
        <ele>228.36</ele>
        <time>2020-04-01T14:18:43Z</time>
      </trkpt>
      <trkpt lat="43.54948" lon="1.46607">
        <ele>228.461</ele>
        <time>2020-04-01T14:18:48Z</time>
      </trkpt>
      <trkpt lat="43.54942" lon="1.46605">
        <ele>228.582</ele>
        <time>2020-04-01T14:18:54Z</time>
      </trkpt>
      <trkpt lat="43.54937" lon="1.46604">
        <ele>228.681</ele>
        <time>2020-04-01T14:18:59Z</time>
      </trkpt>
      <trkpt lat="43.54935" lon="1.46605">
        <ele>228.746</ele>
        <time>2020-04-01T14:19:04Z</time>
      </trkpt>
      <trkpt lat="43.54934" lon="1.46605">
        <ele>228.782</ele>
        <time>2020-04-01T14:19:10Z</time>
      </trkpt>
      <trkpt lat="43.5493" lon="1.46605">
        <ele>228.898</ele>
        <time>2020-04-01T14:19:15Z</time>
      </trkpt>
      <trkpt lat="43.54928" lon="1.46605">
        <ele>229.007</ele>
        <time>2020-04-01T14:19:20Z</time>
      </trkpt>
      <trkpt lat="43.54923" lon="1.46605">
        <ele>229.129</ele>
        <time>2020-04-01T14:19:26Z</time>
      </trkpt>
      <trkpt lat="43.5492" lon="1.46606">
        <ele>229.226</ele>
        <time>2020-04-01T14:19:31Z</time>
      </trkpt>
      <trkpt lat="43.54914" lon="1.46603">
        <ele>229.338</ele>
        <time>2020-04-01T14:19:37Z</time>
      </trkpt>
      <trkpt lat="43.54908" lon="1.46601">
        <ele>229.432</ele>
        <time>2020-04-01T14:19:42Z</time>
      </trkpt>
      <trkpt lat="43.54904" lon="1.46602">
        <ele>229.548</ele>
        <time>2020-04-01T14:19:48Z</time>
      </trkpt>
      <trkpt lat="43.54899" lon="1.46601">
        <ele>229.643</ele>
        <time>2020-04-01T14:19:53Z</time>
      </trkpt>
      <trkpt lat="43.54892" lon="1.46602">
        <ele>229.747</ele>
        <time>2020-04-01T14:19:59Z</time>
      </trkpt>
      <trkpt lat="43.54885" lon="1.46605">
        <ele>229.839</ele>
        <time>2020-04-01T14:20:05Z</time>
      </trkpt>
      <trkpt lat="43.5488" lon="1.46605">
        <ele>229.929</ele>
        <time>2020-04-01T14:20:11Z</time>
      </trkpt>
      <trkpt lat="43.54874" lon="1.46606">
        <ele>230.019</ele>
        <time>2020-04-01T14:20:17Z</time>
      </trkpt>
      <trkpt lat="43.5487" lon="1.46605">
        <ele>230.095</ele>
        <time>2020-04-01T14:20:22Z</time>
      </trkpt>
      <trkpt lat="43.54868" lon="1.46604">
        <ele>230.198</ele>
        <time>2020-04-01T14:20:28Z</time>
      </trkpt>
      <trkpt lat="43.54863" lon="1.46605">
        <ele>230.291</ele>
        <time>2020-04-01T14:20:33Z</time>
      </trkpt>
      <trkpt lat="43.54856" lon="1.46606">
        <ele>230.405</ele>
        <time>2020-04-01T14:20:39Z</time>
      </trkpt>
      <trkpt lat="43.54851" lon="1.46611">
        <ele>230.519</ele>
        <time>2020-04-01T14:20:45Z</time>
      </trkpt>
      <trkpt lat="43.54846" lon="1.46611">
        <ele>230.615</ele>
        <time>2020-04-01T14:20:50Z</time>
      </trkpt>
      <trkpt lat="43.54843" lon="1.46611">
        <ele>230.714</ele>
        <time>2020-04-01T14:20:55Z</time>
      </trkpt>
      <trkpt lat="43.54838" lon="1.46611">
        <ele>230.815</ele>
        <time>2020-04-01T14:21:00Z</time>
      </trkpt>
      <trkpt lat="43.54831" lon="1.46612">
        <ele>230.935</ele>
        <time>2020-04-01T14:21:06Z</time>
      </trkpt>
      <trkpt lat="43.54827" lon="1.46613">
        <ele>231.037</ele>
        <time>2020-04-01T14:21:11Z</time>
      </trkpt>
      <trkpt lat="43.54824" lon="1.46613">
        <ele>231.158</ele>
        <time>2020-04-01T14:21:17Z</time>
      </trkpt>
      <trkpt lat="43.5482" lon="1.46614">
        <ele>231.26</ele>
        <time>2020-04-01T14:21:22Z</time>
      </trkpt>
      <trkpt lat="43.54814" lon="1.46614">
        <ele>231.386</ele>
        <time>2020-04-01T14:21:28Z</time>
      </trkpt>
      <trkpt lat="43.54812" lon="1.46615">
        <ele>231.494</ele>
        <time>2020-04-01T14:21:33Z</time>
      </trkpt>
      <trkpt lat="43.54808" lon="1.46616">
        <ele>231.602</ele>
        <time>2020-04-01T14:21:38Z</time>
      </trkpt>
      <trkpt lat="43.54802" lon="1.46622">
        <ele>231.749</ele>
        <time>2020-04-01T14:21:44Z</time>
      </trkpt>
      <trkpt lat="43.54799" lon="1.46626">
        <ele>231.91</ele>
        <time>2020-04-01T14:21:50Z</time>
      </trkpt>
      <trkpt lat="43.54797" lon="1.46634">
        <ele>232.089</ele>
        <time>2020-04-01T14:21:56Z</time>
      </trkpt>
      <trkpt lat="43.54796" lon="1.4664">
        <ele>232.24</ele>
        <time>2020-04-01T14:22:01Z</time>
      </trkpt>
      <trkpt lat="43.54796" lon="1.46647">
        <ele>232.418</ele>
        <time>2020-04-01T14:22:07Z</time>
      </trkpt>
      <trkpt lat="43.54798" lon="1.46654">
        <ele>232.578</ele>
        <time>2020-04-01T14:22:12Z</time>
      </trkpt>
      <trkpt lat="43.54802" lon="1.46663">
        <ele>232.777</ele>
        <time>2020-04-01T14:22:18Z</time>
      </trkpt>
      <trkpt lat="43.54803" lon="1.46668">
        <ele>232.945</ele>
        <time>2020-04-01T14:22:23Z</time>
      </trkpt>
      <trkpt lat="43.54806" lon="1.46675">
        <ele>233.172</ele>
        <time>2020-04-01T14:22:29Z</time>
      </trkpt>
      <trkpt lat="43.54807" lon="1.46683">
        <ele>233.372</ele>
        <time>2020-04-01T14:22:34Z</time>
      </trkpt>
      <trkpt lat="43.54808" lon="1.46691">
        <ele>233.616</ele>
        <time>2020-04-01T14:22:40Z</time>
      </trkpt>
      <trkpt lat="43.54809" lon="1.46698">
        <ele>233.883</ele>
        <time>2020-04-01T14:22:46Z</time>
      </trkpt>
      <trkpt lat="43.54812" lon="1.46706">
        <ele>234.132</ele>
        <time>2020-04-01T14:22:51Z</time>
      </trkpt>
      <trkpt lat="43.54815" lon="1.46711">
        <ele>234.396</ele>
        <time>2020-04-01T14:22:56Z</time>
      </trkpt>
      <trkpt lat="43.54815" lon="1.46714">
        <ele>234.705</ele>
        <time>2020-04-01T14:23:02Z</time>
      </trkpt>
      <trkpt lat="43.5481" lon="1.46716">
        <ele>234.981</ele>
        <time>2020-04-01T14:23:07Z</time>
      </trkpt>
      <trkpt lat="43.5481" lon="1.46717">
        <ele>235.018</ele>
        <time>2020-04-01T14:23:13Z</time>
      </trkpt>
      <trkpt lat="43.5481" lon="1.46717">
        <ele>235.06</ele>
        <time>2020-04-01T14:23:19Z</time>
      </trkpt>
      <trkpt lat="43.54808" lon="1.46721">
        <ele>235.369</ele>
        <time>2020-04-01T14:23:24Z</time>
      </trkpt>
      <trkpt lat="43.54808" lon="1.46721">
        <ele>235.408</ele>
        <time>2020-04-01T14:23:29Z</time>
      </trkpt>
      <trkpt lat="43.54808" lon="1.46721">
        <ele>235.456</ele>
        <time>2020-04-01T14:23:35Z</time>
      </trkpt>
      <trkpt lat="43.54808" lon="1.46722">
        <ele>235.507</ele>
        <time>2020-04-01T14:23:41Z</time>
      </trkpt>
      <trkpt lat="43.54808" lon="1.46722">
        <ele>235.552</ele>
        <time>2020-04-01T14:23:46Z</time>
      </trkpt>
      <trkpt lat="43.54808" lon="1.46722">
        <ele>235.609</ele>
        <time>2020-04-01T14:23:52Z</time>
      </trkpt>
      <trkpt lat="43.54808" lon="1.46721">
        <ele>235.659</ele>
        <time>2020-04-01T14:23:57Z</time>
      </trkpt>
      <trkpt lat="43.54809" lon="1.46721">
        <ele>235.712</ele>
        <time>2020-04-01T14:24:02Z</time>
      </trkpt>
      <trkpt lat="43.5481" lon="1.46719">
        <ele>235.988</ele>
        <time>2020-04-01T14:24:08Z</time>
      </trkpt>
      <trkpt lat="43.54807" lon="1.46718">
        <ele>236.363</ele>
        <time>2020-04-01T14:24:14Z</time>
      </trkpt>
      <trkpt lat="43.54807" lon="1.46719">
        <ele>236.535</ele>
        <time>2020-04-01T14:24:20Z</time>
      </trkpt>
      <trkpt lat="43.54808" lon="1.46723">
        <ele>236.911</ele>
        <time>2020-04-01T14:24:26Z</time>
      </trkpt>
      <trkpt lat="43.54808" lon="1.46725">
        <ele>236.984</ele>
        <time>2020-04-01T14:24:32Z</time>
      </trkpt>
      <trkpt lat="43.54808" lon="1.46725">
        <ele>237.047</ele>
        <time>2020-04-01T14:24:37Z</time>
      </trkpt>
      <trkpt lat="43.54808" lon="1.46725">
        <ele>237.111</ele>
        <time>2020-04-01T14:24:42Z</time>
      </trkpt>
      <trkpt lat="43.54808" lon="1.46726">
        <ele>237.421</ele>
        <time>2020-04-01T14:24:48Z</time>
      </trkpt>
      <trkpt lat="43.54808" lon="1.46726">
        <ele>237.496</ele>
        <time>2020-04-01T14:24:54Z</time>
      </trkpt>
      <trkpt lat="43.54808" lon="1.46725">
        <ele>237.684</ele>
        <time>2020-04-01T14:25:00Z</time>
      </trkpt>
      <trkpt lat="43.54806" lon="1.46727">
        <ele>237.752</ele>
        <time>2020-04-01T14:25:05Z</time>
      </trkpt>
      <trkpt lat="43.54806" lon="1.46727">
        <ele>237.825</ele>
        <time>2020-04-01T14:25:10Z</time>
      </trkpt>
      <trkpt lat="43.54806" lon="1.46727">
        <ele>237.915</ele>
        <time>2020-04-01T14:25:16Z</time>
      </trkpt>
      <trkpt lat="43.54806" lon="1.46726">
        <ele>238.146</ele>
        <time>2020-04-01T14:25:22Z</time>
      </trkpt>
      <trkpt lat="43.54806" lon="1.46725">
        <ele>238.221</ele>
        <time>2020-04-01T14:25:27Z</time>
      </trkpt>
      <trkpt lat="43.54808" lon="1.46722">
        <ele>238.297</ele>
        <time>2020-04-01T14:25:32Z</time>
      </trkpt>
      <trkpt lat="43.54809" lon="1.46722">
        <ele>238.389</ele>
        <time>2020-04-01T14:25:38Z</time>
      </trkpt>
      <trkpt lat="43.54809" lon="1.46723">
        <ele>238.484</ele>
        <time>2020-04-01T14:25:44Z</time>
      </trkpt>
      <trkpt lat="43.54809" lon="1.46723">
        <ele>238.564</ele>
        <time>2020-04-01T14:25:49Z</time>
      </trkpt>
      <trkpt lat="43.54809" lon="1.46724">
        <ele>238.663</ele>
        <time>2020-04-01T14:25:55Z</time>
      </trkpt>
      <trkpt lat="43.54809" lon="1.46725">
        <ele>238.915</ele>
        <time>2020-04-01T14:26:01Z</time>
      </trkpt>
      <trkpt lat="43.54809" lon="1.46725">
        <ele>238.997</ele>
        <time>2020-04-01T14:26:06Z</time>
      </trkpt>
      <trkpt lat="43.54811" lon="1.46725">
        <ele>239.519</ele>
        <time>2020-04-01T14:26:11Z</time>
      </trkpt>
      <trkpt lat="43.54809" lon="1.46726">
        <ele>240.42</ele>
        <time>2020-04-01T14:26:17Z</time>
      </trkpt>
      <trkpt lat="43.54805" lon="1.46732">
        <ele>240.996</ele>
        <time>2020-04-01T14:26:23Z</time>
      </trkpt>
      <trkpt lat="43.54804" lon="1.46733">
        <ele>241.061</ele>
        <time>2020-04-01T14:26:28Z</time>
      </trkpt>
      <trkpt lat="43.54804" lon="1.46734">
        <ele>241.14</ele>
        <time>2020-04-01T14:26:34Z</time>
      </trkpt>
      <trkpt lat="43.54804" lon="1.46734">
        <ele>241.218</ele>
        <time>2020-04-01T14:26:40Z</time>
      </trkpt>
      <trkpt lat="43.54801" lon="1.46737">
        <ele>241.854</ele>
        <time>2020-04-01T14:26:46Z</time>
      </trkpt>
      <trkpt lat="43.54798" lon="1.46741">
        <ele>242.533</ele>
        <time>2020-04-01T14:26:52Z</time>
      </trkpt>
      <trkpt lat="43.54796" lon="1.46745">
        <ele>243.049</ele>
        <time>2020-04-01T14:26:57Z</time>
      </trkpt>
      <trkpt lat="43.54795" lon="1.46752">
        <ele>243.613</ele>
        <time>2020-04-01T14:27:03Z</time>
      </trkpt>
      <trkpt lat="43.54792" lon="1.46759">
        <ele>244.124</ele>
        <time>2020-04-01T14:27:09Z</time>
      </trkpt>
      <trkpt lat="43.54789" lon="1.46765">
        <ele>244.514</ele>
        <time>2020-04-01T14:27:14Z</time>
      </trkpt>
      <trkpt lat="43.54791" lon="1.46773">
        <ele>244.946</ele>
        <time>2020-04-01T14:27:20Z</time>
      </trkpt>
      <trkpt lat="43.54792" lon="1.46781">
        <ele>245.285</ele>
        <time>2020-04-01T14:27:25Z</time>
      </trkpt>
      <trkpt lat="43.5479" lon="1.46783">
        <ele>245.657</ele>
        <time>2020-04-01T14:27:31Z</time>
      </trkpt>
      <trkpt lat="43.54786" lon="1.46787">
        <ele>245.936</ele>
        <time>2020-04-01T14:27:36Z</time>
      </trkpt>
      <trkpt lat="43.54781" lon="1.46793">
        <ele>246.236</ele>
        <time>2020-04-01T14:27:42Z</time>
      </trkpt>
      <trkpt lat="43.54776" lon="1.46799">
        <ele>246.505</ele>
        <time>2020-04-01T14:27:48Z</time>
      </trkpt>
      <trkpt lat="43.54774" lon="1.46803">
        <ele>246.744</ele>
        <time>2020-04-01T14:27:54Z</time>
      </trkpt>
      <trkpt lat="43.5477" lon="1.46804">
        <ele>246.925</ele>
        <time>2020-04-01T14:27:59Z</time>
      </trkpt>
      <trkpt lat="43.54764" lon="1.46807">
        <ele>247.118</ele>
        <time>2020-04-01T14:28:05Z</time>
      </trkpt>
      <trkpt lat="43.5476" lon="1.46811">
        <ele>247.264</ele>
        <time>2020-04-01T14:28:10Z</time>
      </trkpt>
      <trkpt lat="43.54756" lon="1.46815">
        <ele>247.422</ele>
        <time>2020-04-01T14:28:16Z</time>
      </trkpt>
      <trkpt lat="43.5475" lon="1.4682">
        <ele>247.544</ele>
        <time>2020-04-01T14:28:21Z</time>
      </trkpt>
      <trkpt lat="43.54746" lon="1.46826">
        <ele>247.68</ele>
        <time>2020-04-01T14:28:27Z</time>
      </trkpt>
      <trkpt lat="43.54742" lon="1.46831">
        <ele>247.79</ele>
        <time>2020-04-01T14:28:32Z</time>
      </trkpt>
      <trkpt lat="43.54739" lon="1.46836">
        <ele>247.917</ele>
        <time>2020-04-01T14:28:38Z</time>
      </trkpt>
      <trkpt lat="43.54734" lon="1.46843">
        <ele>248.033</ele>
        <time>2020-04-01T14:28:44Z</time>
      </trkpt>
      <trkpt lat="43.54729" lon="1.46852">
        <ele>248.135</ele>
        <time>2020-04-01T14:28:50Z</time>
      </trkpt>
      <trkpt lat="43.54723" lon="1.46861">
        <ele>248.231</ele>
        <time>2020-04-01T14:28:56Z</time>
      </trkpt>
      <trkpt lat="43.5472" lon="1.46868">
        <ele>248.318</ele>
        <time>2020-04-01T14:29:02Z</time>
      </trkpt>
      <trkpt lat="43.54716" lon="1.46875">
        <ele>248.4</ele>
        <time>2020-04-01T14:29:08Z</time>
      </trkpt>
      <trkpt lat="43.54712" lon="1.46882">
        <ele>248.464</ele>
        <time>2020-04-01T14:29:13Z</time>
      </trkpt>
      <trkpt lat="43.54709" lon="1.46888">
        <ele>248.536</ele>
        <time>2020-04-01T14:29:19Z</time>
      </trkpt>
      <trkpt lat="43.54705" lon="1.46894">
        <ele>248.606</ele>
        <time>2020-04-01T14:29:25Z</time>
      </trkpt>
      <trkpt lat="43.547" lon="1.46899">
        <ele>248.676</ele>
        <time>2020-04-01T14:29:31Z</time>
      </trkpt>
      <trkpt lat="43.54696" lon="1.46905">
        <ele>248.744</ele>
        <time>2020-04-01T14:29:37Z</time>
      </trkpt>
      <trkpt lat="43.54695" lon="1.46911">
        <ele>248.799</ele>
        <time>2020-04-01T14:29:42Z</time>
      </trkpt>
      <trkpt lat="43.54697" lon="1.46921">
        <ele>248.862</ele>
        <time>2020-04-01T14:29:48Z</time>
      </trkpt>
      <trkpt lat="43.547" lon="1.46928">
        <ele>248.933</ele>
        <time>2020-04-01T14:29:54Z</time>
      </trkpt>
      <trkpt lat="43.54707" lon="1.46925">
        <ele>249.005</ele>
        <time>2020-04-01T14:30:00Z</time>
      </trkpt>
      <trkpt lat="43.54712" lon="1.46922">
        <ele>249.064</ele>
        <time>2020-04-01T14:30:05Z</time>
      </trkpt>
      <trkpt lat="43.54717" lon="1.46921">
        <ele>249.135</ele>
        <time>2020-04-01T14:30:10Z</time>
      </trkpt>
      <trkpt lat="43.54723" lon="1.4692">
        <ele>249.21</ele>
        <time>2020-04-01T14:30:15Z</time>
      </trkpt>
      <trkpt lat="43.54729" lon="1.46919">
        <ele>249.304</ele>
        <time>2020-04-01T14:30:21Z</time>
      </trkpt>
      <trkpt lat="43.54734" lon="1.46916">
        <ele>249.382</ele>
        <time>2020-04-01T14:30:26Z</time>
      </trkpt>
      <trkpt lat="43.54737" lon="1.46916">
        <ele>249.448</ele>
        <time>2020-04-01T14:30:31Z</time>
      </trkpt>
      <trkpt lat="43.54739" lon="1.46916">
        <ele>249.539</ele>
        <time>2020-04-01T14:30:37Z</time>
      </trkpt>
      <trkpt lat="43.54741" lon="1.46916">
        <ele>249.596</ele>
        <time>2020-04-01T14:30:42Z</time>
      </trkpt>
      <trkpt lat="43.54741" lon="1.46917">
        <ele>249.638</ele>
        <time>2020-04-01T14:30:47Z</time>
      </trkpt>
      <trkpt lat="43.54741" lon="1.46917">
        <ele>249.645</ele>
        <time>2020-04-01T14:30:53Z</time>
      </trkpt>
      <trkpt lat="43.54741" lon="1.46916">
        <ele>249.651</ele>
        <time>2020-04-01T14:30:59Z</time>
      </trkpt>
      <trkpt lat="43.5474" lon="1.46917">
        <ele>249.656</ele>
        <time>2020-04-01T14:31:05Z</time>
      </trkpt>
      <trkpt lat="43.5474" lon="1.46917">
        <ele>249.66</ele>
        <time>2020-04-01T14:31:11Z</time>
      </trkpt>
      <trkpt lat="43.54739" lon="1.46917">
        <ele>249.663</ele>
        <time>2020-04-01T14:31:17Z</time>
      </trkpt>
      <trkpt lat="43.54739" lon="1.46917">
        <ele>249.665</ele>
        <time>2020-04-01T14:31:23Z</time>
      </trkpt>
      <trkpt lat="43.54739" lon="1.46917">
        <ele>249.667</ele>
        <time>2020-04-01T14:31:29Z</time>
      </trkpt>
      <trkpt lat="43.5474" lon="1.46917">
        <ele>249.671</ele>
        <time>2020-04-01T14:31:34Z</time>
      </trkpt>
      <trkpt lat="43.54744" lon="1.46916">
        <ele>249.655</ele>
        <time>2020-04-01T14:31:39Z</time>
      </trkpt>
      <trkpt lat="43.54751" lon="1.46914">
        <ele>249.624</ele>
        <time>2020-04-01T14:31:44Z</time>
      </trkpt>
      <trkpt lat="43.54758" lon="1.46911">
        <ele>249.578</ele>
        <time>2020-04-01T14:31:50Z</time>
      </trkpt>
      <trkpt lat="43.54762" lon="1.46909">
        <ele>249.529</ele>
        <time>2020-04-01T14:31:56Z</time>
      </trkpt>
      <trkpt lat="43.54768" lon="1.46907">
        <ele>249.487</ele>
        <time>2020-04-01T14:32:01Z</time>
      </trkpt>
      <trkpt lat="43.54774" lon="1.46908">
        <ele>249.447</ele>
        <time>2020-04-01T14:32:06Z</time>
      </trkpt>
      <trkpt lat="43.54779" lon="1.46911">
        <ele>249.406</ele>
        <time>2020-04-01T14:32:11Z</time>
      </trkpt>
      <trkpt lat="43.54783" lon="1.46915">
        <ele>249.356</ele>
        <time>2020-04-01T14:32:17Z</time>
      </trkpt>
      <trkpt lat="43.54788" lon="1.46916">
        <ele>249.31</ele>
        <time>2020-04-01T14:32:22Z</time>
      </trkpt>
      <trkpt lat="43.54795" lon="1.46916">
        <ele>249.251</ele>
        <time>2020-04-01T14:32:28Z</time>
      </trkpt>
      <trkpt lat="43.54802" lon="1.46919">
        <ele>249.188</ele>
        <time>2020-04-01T14:32:34Z</time>
      </trkpt>
      <trkpt lat="43.54804" lon="1.46921">
        <ele>249.125</ele>
        <time>2020-04-01T14:32:40Z</time>
      </trkpt>
      <trkpt lat="43.54805" lon="1.46924">
        <ele>249.069</ele>
        <time>2020-04-01T14:32:45Z</time>
      </trkpt>
      <trkpt lat="43.54808" lon="1.46926">
        <ele>248.999</ele>
        <time>2020-04-01T14:32:51Z</time>
      </trkpt>
      <trkpt lat="43.5481" lon="1.46929">
        <ele>248.941</ele>
        <time>2020-04-01T14:32:56Z</time>
      </trkpt>
      <trkpt lat="43.54812" lon="1.46937">
        <ele>248.87</ele>
        <time>2020-04-01T14:33:02Z</time>
      </trkpt>
      <trkpt lat="43.54815" lon="1.46945">
        <ele>248.797</ele>
        <time>2020-04-01T14:33:08Z</time>
      </trkpt>
      <trkpt lat="43.54818" lon="1.46951">
        <ele>248.737</ele>
        <time>2020-04-01T14:33:13Z</time>
      </trkpt>
      <trkpt lat="43.54822" lon="1.46957">
        <ele>248.666</ele>
        <time>2020-04-01T14:33:19Z</time>
      </trkpt>
      <trkpt lat="43.54825" lon="1.46963">
        <ele>248.595</ele>
        <time>2020-04-01T14:33:25Z</time>
      </trkpt>
      <trkpt lat="43.54827" lon="1.46968">
        <ele>248.522</ele>
        <time>2020-04-01T14:33:31Z</time>
      </trkpt>
      <trkpt lat="43.5483" lon="1.46973">
        <ele>248.446</ele>
        <time>2020-04-01T14:33:37Z</time>
      </trkpt>
      <trkpt lat="43.54833" lon="1.46976">
        <ele>248.38</ele>
        <time>2020-04-01T14:33:42Z</time>
      </trkpt>
      <trkpt lat="43.54836" lon="1.46982">
        <ele>248.301</ele>
        <time>2020-04-01T14:33:48Z</time>
      </trkpt>
      <trkpt lat="43.54834" lon="1.46988">
        <ele>248.222</ele>
        <time>2020-04-01T14:33:54Z</time>
      </trkpt>
      <trkpt lat="43.54835" lon="1.46993">
        <ele>248.144</ele>
        <time>2020-04-01T14:34:00Z</time>
      </trkpt>
      <trkpt lat="43.54836" lon="1.46997">
        <ele>248.076</ele>
        <time>2020-04-01T14:34:05Z</time>
      </trkpt>
      <trkpt lat="43.54838" lon="1.47003">
        <ele>248.009</ele>
        <time>2020-04-01T14:34:10Z</time>
      </trkpt>
      <trkpt lat="43.54838" lon="1.47011">
        <ele>247.924</ele>
        <time>2020-04-01T14:34:16Z</time>
      </trkpt>
      <trkpt lat="43.54836" lon="1.47018">
        <ele>247.83</ele>
        <time>2020-04-01T14:34:22Z</time>
      </trkpt>
      <trkpt lat="43.54833" lon="1.47026">
        <ele>247.732</ele>
        <time>2020-04-01T14:34:28Z</time>
      </trkpt>
      <trkpt lat="43.54834" lon="1.47033">
        <ele>247.637</ele>
        <time>2020-04-01T14:34:34Z</time>
      </trkpt>
      <trkpt lat="43.54834" lon="1.47039">
        <ele>247.545</ele>
        <time>2020-04-01T14:34:40Z</time>
      </trkpt>
      <trkpt lat="43.54831" lon="1.47046">
        <ele>247.442</ele>
        <time>2020-04-01T14:34:46Z</time>
      </trkpt>
      <trkpt lat="43.54829" lon="1.47058">
        <ele>247.328</ele>
        <time>2020-04-01T14:34:52Z</time>
      </trkpt>
      <trkpt lat="43.54828" lon="1.47066">
        <ele>247.206</ele>
        <time>2020-04-01T14:34:58Z</time>
      </trkpt>
      <trkpt lat="43.54824" lon="1.47075">
        <ele>247.08</ele>
        <time>2020-04-01T14:35:04Z</time>
      </trkpt>
      <trkpt lat="43.5482" lon="1.47085">
        <ele>246.953</ele>
        <time>2020-04-01T14:35:10Z</time>
      </trkpt>
      <trkpt lat="43.54817" lon="1.47093">
        <ele>246.825</ele>
        <time>2020-04-01T14:35:16Z</time>
      </trkpt>
      <trkpt lat="43.54813" lon="1.47102">
        <ele>246.704</ele>
        <time>2020-04-01T14:35:22Z</time>
      </trkpt>
      <trkpt lat="43.54812" lon="1.4711">
        <ele>246.589</ele>
        <time>2020-04-01T14:35:28Z</time>
      </trkpt>
      <trkpt lat="43.54811" lon="1.47119">
        <ele>246.474</ele>
        <time>2020-04-01T14:35:34Z</time>
      </trkpt>
      <trkpt lat="43.5481" lon="1.47126">
        <ele>246.376</ele>
        <time>2020-04-01T14:35:39Z</time>
      </trkpt>
      <trkpt lat="43.54809" lon="1.47135">
        <ele>246.277</ele>
        <time>2020-04-01T14:35:44Z</time>
      </trkpt>
      <trkpt lat="43.54809" lon="1.47145">
        <ele>246.156</ele>
        <time>2020-04-01T14:35:50Z</time>
      </trkpt>
      <trkpt lat="43.54812" lon="1.47152">
        <ele>246.032</ele>
        <time>2020-04-01T14:35:56Z</time>
      </trkpt>
      <trkpt lat="43.54818" lon="1.47158">
        <ele>245.895</ele>
        <time>2020-04-01T14:36:02Z</time>
      </trkpt>
      <trkpt lat="43.5482" lon="1.47163">
        <ele>245.767</ele>
        <time>2020-04-01T14:36:07Z</time>
      </trkpt>
      <trkpt lat="43.54824" lon="1.47168">
        <ele>245.625</ele>
        <time>2020-04-01T14:36:12Z</time>
      </trkpt>
      <trkpt lat="43.54827" lon="1.47174">
        <ele>245.469</ele>
        <time>2020-04-01T14:36:17Z</time>
      </trkpt>
      <trkpt lat="43.5483" lon="1.4718">
        <ele>245.264</ele>
        <time>2020-04-01T14:36:23Z</time>
      </trkpt>
      <trkpt lat="43.54835" lon="1.47183">
        <ele>245.041</ele>
        <time>2020-04-01T14:36:29Z</time>
      </trkpt>
      <trkpt lat="43.54838" lon="1.47181">
        <ele>244.838</ele>
        <time>2020-04-01T14:36:34Z</time>
      </trkpt>
      <trkpt lat="43.54849" lon="1.47174">
        <ele>244.569</ele>
        <time>2020-04-01T14:36:40Z</time>
      </trkpt>
      <trkpt lat="43.54852" lon="1.47171">
        <ele>244.337</ele>
        <time>2020-04-01T14:36:45Z</time>
      </trkpt>
      <trkpt lat="43.54856" lon="1.4717">
        <ele>244.145</ele>
        <time>2020-04-01T14:36:51Z</time>
      </trkpt>
      <trkpt lat="43.54861" lon="1.47164">
        <ele>243.889</ele>
        <time>2020-04-01T14:36:57Z</time>
      </trkpt>
      <trkpt lat="43.54863" lon="1.47159">
        <ele>243.649</ele>
        <time>2020-04-01T14:37:03Z</time>
      </trkpt>
      <trkpt lat="43.54871" lon="1.4716">
        <ele>243.416</ele>
        <time>2020-04-01T14:37:09Z</time>
      </trkpt>
      <trkpt lat="43.54885" lon="1.47154">
        <ele>243.181</ele>
        <time>2020-04-01T14:37:15Z</time>
      </trkpt>
      <trkpt lat="43.5489" lon="1.47149">
        <ele>242.986</ele>
        <time>2020-04-01T14:37:20Z</time>
      </trkpt>
      <trkpt lat="43.54894" lon="1.47147">
        <ele>242.759</ele>
        <time>2020-04-01T14:37:26Z</time>
      </trkpt>
      <trkpt lat="43.54898" lon="1.47142">
        <ele>242.578</ele>
        <time>2020-04-01T14:37:31Z</time>
      </trkpt>
      <trkpt lat="43.54904" lon="1.47135">
        <ele>242.364</ele>
        <time>2020-04-01T14:37:37Z</time>
      </trkpt>
      <trkpt lat="43.54909" lon="1.47132">
        <ele>242.188</ele>
        <time>2020-04-01T14:37:42Z</time>
      </trkpt>
      <trkpt lat="43.54915" lon="1.47126">
        <ele>241.977</ele>
        <time>2020-04-01T14:37:48Z</time>
      </trkpt>
      <trkpt lat="43.54919" lon="1.47125">
        <ele>241.769</ele>
        <time>2020-04-01T14:37:54Z</time>
      </trkpt>
      <trkpt lat="43.54922" lon="1.47122">
        <ele>241.573</ele>
        <time>2020-04-01T14:38:00Z</time>
      </trkpt>
      <trkpt lat="43.54923" lon="1.47123">
        <ele>241.419</ele>
        <time>2020-04-01T14:38:05Z</time>
      </trkpt>
      <trkpt lat="43.54925" lon="1.47122">
        <ele>241.291</ele>
        <time>2020-04-01T14:38:11Z</time>
      </trkpt>
      <trkpt lat="43.54938" lon="1.47116">
        <ele>241.138</ele>
        <time>2020-04-01T14:38:17Z</time>
      </trkpt>
      <trkpt lat="43.54943" lon="1.47116">
        <ele>240.993</ele>
        <time>2020-04-01T14:38:22Z</time>
      </trkpt>
      <trkpt lat="43.54946" lon="1.47121">
        <ele>240.817</ele>
        <time>2020-04-01T14:38:28Z</time>
      </trkpt>
      <trkpt lat="43.54952" lon="1.47119">
        <ele>240.624</ele>
        <time>2020-04-01T14:38:34Z</time>
      </trkpt>
      <trkpt lat="43.5496" lon="1.47114">
        <ele>240.404</ele>
        <time>2020-04-01T14:38:40Z</time>
      </trkpt>
      <trkpt lat="43.54967" lon="1.47109">
        <ele>240.172</ele>
        <time>2020-04-01T14:38:46Z</time>
      </trkpt>
      <trkpt lat="43.54972" lon="1.47105">
        <ele>239.981</ele>
        <time>2020-04-01T14:38:51Z</time>
      </trkpt>
      <trkpt lat="43.54976" lon="1.471">
        <ele>239.795</ele>
        <time>2020-04-01T14:38:56Z</time>
      </trkpt>
      <trkpt lat="43.54982" lon="1.47095">
        <ele>239.616</ele>
        <time>2020-04-01T14:39:01Z</time>
      </trkpt>
      <trkpt lat="43.54987" lon="1.47088">
        <ele>239.413</ele>
        <time>2020-04-01T14:39:07Z</time>
      </trkpt>
      <trkpt lat="43.54991" lon="1.47085">
        <ele>239.252</ele>
        <time>2020-04-01T14:39:12Z</time>
      </trkpt>
      <trkpt lat="43.54997" lon="1.47084">
        <ele>239.066</ele>
        <time>2020-04-01T14:39:18Z</time>
      </trkpt>
      <trkpt lat="43.55002" lon="1.47086">
        <ele>238.912</ele>
        <time>2020-04-01T14:39:23Z</time>
      </trkpt>
      <trkpt lat="43.55006" lon="1.47095">
        <ele>238.719</ele>
        <time>2020-04-01T14:39:29Z</time>
      </trkpt>
      <trkpt lat="43.55009" lon="1.47103">
        <ele>238.57</ele>
        <time>2020-04-01T14:39:34Z</time>
      </trkpt>
      <trkpt lat="43.5501" lon="1.47108">
        <ele>238.397</ele>
        <time>2020-04-01T14:39:40Z</time>
      </trkpt>
      <trkpt lat="43.55012" lon="1.47115">
        <ele>238.219</ele>
        <time>2020-04-01T14:39:46Z</time>
      </trkpt>
      <trkpt lat="43.55015" lon="1.47124">
        <ele>238.07</ele>
        <time>2020-04-01T14:39:51Z</time>
      </trkpt>
      <trkpt lat="43.55018" lon="1.47133">
        <ele>237.891</ele>
        <time>2020-04-01T14:39:57Z</time>
      </trkpt>
      <trkpt lat="43.55021" lon="1.47142">
        <ele>237.708</ele>
        <time>2020-04-01T14:40:03Z</time>
      </trkpt>
      <trkpt lat="43.55023" lon="1.4715">
        <ele>237.528</ele>
        <time>2020-04-01T14:40:09Z</time>
      </trkpt>
      <trkpt lat="43.55026" lon="1.47159">
        <ele>237.353</ele>
        <time>2020-04-01T14:40:15Z</time>
      </trkpt>
      <trkpt lat="43.55028" lon="1.47165">
        <ele>237.214</ele>
        <time>2020-04-01T14:40:20Z</time>
      </trkpt>
      <trkpt lat="43.55031" lon="1.47172">
        <ele>237.06</ele>
        <time>2020-04-01T14:40:26Z</time>
      </trkpt>
      <trkpt lat="43.55035" lon="1.4718">
        <ele>236.918</ele>
        <time>2020-04-01T14:40:32Z</time>
      </trkpt>
      <trkpt lat="43.55037" lon="1.47189">
        <ele>236.787</ele>
        <time>2020-04-01T14:40:38Z</time>
      </trkpt>
      <trkpt lat="43.55039" lon="1.47194">
        <ele>236.683</ele>
        <time>2020-04-01T14:40:43Z</time>
      </trkpt>
      <trkpt lat="43.5504" lon="1.47199">
        <ele>236.546</ele>
        <time>2020-04-01T14:40:49Z</time>
      </trkpt>
      <trkpt lat="43.55045" lon="1.47204">
        <ele>236.397</ele>
        <time>2020-04-01T14:40:55Z</time>
      </trkpt>
      <trkpt lat="43.55051" lon="1.47208">
        <ele>236.231</ele>
        <time>2020-04-01T14:41:01Z</time>
      </trkpt>
      <trkpt lat="43.55057" lon="1.47211">
        <ele>236.083</ele>
        <time>2020-04-01T14:41:06Z</time>
      </trkpt>
      <trkpt lat="43.55064" lon="1.47214">
        <ele>235.891</ele>
        <time>2020-04-01T14:41:12Z</time>
      </trkpt>
      <trkpt lat="43.55072" lon="1.47217">
        <ele>235.681</ele>
        <time>2020-04-01T14:41:18Z</time>
      </trkpt>
      <trkpt lat="43.55078" lon="1.47221">
        <ele>235.492</ele>
        <time>2020-04-01T14:41:23Z</time>
      </trkpt>
      <trkpt lat="43.55086" lon="1.47225">
        <ele>235.271</ele>
        <time>2020-04-01T14:41:29Z</time>
      </trkpt>
      <trkpt lat="43.55088" lon="1.47226">
        <ele>235.079</ele>
        <time>2020-04-01T14:41:34Z</time>
      </trkpt>
      <trkpt lat="43.55091" lon="1.4723">
        <ele>234.838</ele>
        <time>2020-04-01T14:41:40Z</time>
      </trkpt>
      <trkpt lat="43.55094" lon="1.47241">
        <ele>234.601</ele>
        <time>2020-04-01T14:41:46Z</time>
      </trkpt>
      <trkpt lat="43.55096" lon="1.47249">
        <ele>234.409</ele>
        <time>2020-04-01T14:41:51Z</time>
      </trkpt>
      <trkpt lat="43.55098" lon="1.47256">
        <ele>234.222</ele>
        <time>2020-04-01T14:41:56Z</time>
      </trkpt>
      <trkpt lat="43.55099" lon="1.47262">
        <ele>234.038</ele>
        <time>2020-04-01T14:42:01Z</time>
      </trkpt>
      <trkpt lat="43.55101" lon="1.4727">
        <ele>233.82</ele>
        <time>2020-04-01T14:42:07Z</time>
      </trkpt>
      <trkpt lat="43.55105" lon="1.47278">
        <ele>233.606</ele>
        <time>2020-04-01T14:42:13Z</time>
      </trkpt>
      <trkpt lat="43.55111" lon="1.47285">
        <ele>233.397</ele>
        <time>2020-04-01T14:42:19Z</time>
      </trkpt>
      <trkpt lat="43.55116" lon="1.47292">
        <ele>233.195</ele>
        <time>2020-04-01T14:42:25Z</time>
      </trkpt>
      <trkpt lat="43.5512" lon="1.47299">
        <ele>233</ele>
        <time>2020-04-01T14:42:31Z</time>
      </trkpt>
      <trkpt lat="43.55121" lon="1.47305">
        <ele>232.808</ele>
        <time>2020-04-01T14:42:37Z</time>
      </trkpt>
      <trkpt lat="43.55121" lon="1.47311">
        <ele>232.648</ele>
        <time>2020-04-01T14:42:42Z</time>
      </trkpt>
      <trkpt lat="43.55125" lon="1.47317">
        <ele>232.492</ele>
        <time>2020-04-01T14:42:47Z</time>
      </trkpt>
      <trkpt lat="43.55128" lon="1.47323">
        <ele>232.314</ele>
        <time>2020-04-01T14:42:53Z</time>
      </trkpt>
      <trkpt lat="43.5513" lon="1.4733">
        <ele>232.174</ele>
        <time>2020-04-01T14:42:58Z</time>
      </trkpt>
      <trkpt lat="43.55132" lon="1.47337">
        <ele>232.037</ele>
        <time>2020-04-01T14:43:03Z</time>
      </trkpt>
      <trkpt lat="43.55132" lon="1.47343">
        <ele>231.898</ele>
        <time>2020-04-01T14:43:08Z</time>
      </trkpt>
      <trkpt lat="43.55131" lon="1.47349">
        <ele>231.724</ele>
        <time>2020-04-01T14:43:14Z</time>
      </trkpt>
      <trkpt lat="43.55133" lon="1.47354">
        <ele>231.577</ele>
        <time>2020-04-01T14:43:19Z</time>
      </trkpt>
      <trkpt lat="43.55136" lon="1.47362">
        <ele>231.4</ele>
        <time>2020-04-01T14:43:25Z</time>
      </trkpt>
      <trkpt lat="43.55138" lon="1.47371">
        <ele>231.223</ele>
        <time>2020-04-01T14:43:31Z</time>
      </trkpt>
      <trkpt lat="43.55141" lon="1.47381">
        <ele>231.048</ele>
        <time>2020-04-01T14:43:37Z</time>
      </trkpt>
      <trkpt lat="43.55147" lon="1.47392">
        <ele>230.878</ele>
        <time>2020-04-01T14:43:43Z</time>
      </trkpt>
      <trkpt lat="43.5515" lon="1.474">
        <ele>230.741</ele>
        <time>2020-04-01T14:43:48Z</time>
      </trkpt>
      <trkpt lat="43.55152" lon="1.47408">
        <ele>230.581</ele>
        <time>2020-04-01T14:43:54Z</time>
      </trkpt>
      <trkpt lat="43.55154" lon="1.47415">
        <ele>230.427</ele>
        <time>2020-04-01T14:44:00Z</time>
      </trkpt>
      <trkpt lat="43.55155" lon="1.47421">
        <ele>230.301</ele>
        <time>2020-04-01T14:44:05Z</time>
      </trkpt>
      <trkpt lat="43.55156" lon="1.47429">
        <ele>230.149</ele>
        <time>2020-04-01T14:44:11Z</time>
      </trkpt>
      <trkpt lat="43.55158" lon="1.47438">
        <ele>229.987</ele>
        <time>2020-04-01T14:44:17Z</time>
      </trkpt>
      <trkpt lat="43.5516" lon="1.47445">
        <ele>229.817</ele>
        <time>2020-04-01T14:44:23Z</time>
      </trkpt>
      <trkpt lat="43.55161" lon="1.47452">
        <ele>229.637</ele>
        <time>2020-04-01T14:44:29Z</time>
      </trkpt>
      <trkpt lat="43.55164" lon="1.47459">
        <ele>229.449</ele>
        <time>2020-04-01T14:44:35Z</time>
      </trkpt>
      <trkpt lat="43.55168" lon="1.47467">
        <ele>229.285</ele>
        <time>2020-04-01T14:44:40Z</time>
      </trkpt>
      <trkpt lat="43.55172" lon="1.47478">
        <ele>229.083</ele>
        <time>2020-04-01T14:44:46Z</time>
      </trkpt>
      <trkpt lat="43.55177" lon="1.47487">
        <ele>228.879</ele>
        <time>2020-04-01T14:44:52Z</time>
      </trkpt>
      <trkpt lat="43.5518" lon="1.47493">
        <ele>228.676</ele>
        <time>2020-04-01T14:44:58Z</time>
      </trkpt>
      <trkpt lat="43.55183" lon="1.475">
        <ele>228.475</ele>
        <time>2020-04-01T14:45:04Z</time>
      </trkpt>
      <trkpt lat="43.55187" lon="1.47507">
        <ele>228.275</ele>
        <time>2020-04-01T14:45:10Z</time>
      </trkpt>
      <trkpt lat="43.55193" lon="1.47518">
        <ele>228.073</ele>
        <time>2020-04-01T14:45:16Z</time>
      </trkpt>
      <trkpt lat="43.55195" lon="1.47523">
        <ele>227.904</ele>
        <time>2020-04-01T14:45:21Z</time>
      </trkpt>
      <trkpt lat="43.5519" lon="1.47531">
        <ele>227.696</ele>
        <time>2020-04-01T14:45:27Z</time>
      </trkpt>
      <trkpt lat="43.55184" lon="1.47536">
        <ele>227.492</ele>
        <time>2020-04-01T14:45:33Z</time>
      </trkpt>
      <trkpt lat="43.55177" lon="1.47542">
        <ele>227.335</ele>
        <time>2020-04-01T14:45:38Z</time>
      </trkpt>
      <trkpt lat="43.55173" lon="1.47545">
        <ele>227.191</ele>
        <time>2020-04-01T14:45:43Z</time>
      </trkpt>
      <trkpt lat="43.55166" lon="1.47547">
        <ele>227.059</ele>
        <time>2020-04-01T14:45:48Z</time>
      </trkpt>
      <trkpt lat="43.55162" lon="1.47555">
        <ele>226.911</ele>
        <time>2020-04-01T14:45:54Z</time>
      </trkpt>
      <trkpt lat="43.55157" lon="1.47561">
        <ele>226.77</ele>
        <time>2020-04-01T14:46:00Z</time>
      </trkpt>
      <trkpt lat="43.55155" lon="1.47564">
        <ele>226.717</ele>
        <time>2020-04-01T14:46:05Z</time>
      </trkpt>
      <trkpt lat="43.55155" lon="1.47564">
        <ele>226.662</ele>
        <time>2020-04-01T14:46:11Z</time>
      </trkpt>
      <trkpt lat="43.55155" lon="1.47564">
        <ele>226.651</ele>
        <time>2020-04-01T14:46:16Z</time>
      </trkpt>
      <trkpt lat="43.55155" lon="1.47564">
        <ele>226.636</ele>
        <time>2020-04-01T14:46:22Z</time>
      </trkpt>
      <trkpt lat="43.55155" lon="1.47565">
        <ele>226.572</ele>
        <time>2020-04-01T14:46:27Z</time>
      </trkpt>
      <trkpt lat="43.55154" lon="1.47566">
        <ele>226.555</ele>
        <time>2020-04-01T14:46:33Z</time>
      </trkpt>
      <trkpt lat="43.55154" lon="1.47567">
        <ele>226.434</ele>
        <time>2020-04-01T14:46:39Z</time>
      </trkpt>
      <trkpt lat="43.55148" lon="1.47572">
        <ele>226.262</ele>
        <time>2020-04-01T14:46:45Z</time>
      </trkpt>
      <trkpt lat="43.55144" lon="1.47577">
        <ele>226.092</ele>
        <time>2020-04-01T14:46:51Z</time>
      </trkpt>
      <trkpt lat="43.55137" lon="1.47582">
        <ele>225.923</ele>
        <time>2020-04-01T14:46:57Z</time>
      </trkpt>
      <trkpt lat="43.55132" lon="1.47589">
        <ele>225.764</ele>
        <time>2020-04-01T14:47:03Z</time>
      </trkpt>
      <trkpt lat="43.55128" lon="1.47594">
        <ele>225.64</ele>
        <time>2020-04-01T14:47:08Z</time>
      </trkpt>
      <trkpt lat="43.55125" lon="1.47597">
        <ele>225.498</ele>
        <time>2020-04-01T14:47:14Z</time>
      </trkpt>
      <trkpt lat="43.5512" lon="1.476">
        <ele>225.387</ele>
        <time>2020-04-01T14:47:19Z</time>
      </trkpt>
      <trkpt lat="43.55115" lon="1.47604">
        <ele>225.263</ele>
        <time>2020-04-01T14:47:25Z</time>
      </trkpt>
      <trkpt lat="43.5511" lon="1.47608">
        <ele>225.165</ele>
        <time>2020-04-01T14:47:30Z</time>
      </trkpt>
      <trkpt lat="43.55105" lon="1.47612">
        <ele>225.054</ele>
        <time>2020-04-01T14:47:36Z</time>
      </trkpt>
      <trkpt lat="43.551" lon="1.47617">
        <ele>224.951</ele>
        <time>2020-04-01T14:47:42Z</time>
      </trkpt>
      <trkpt lat="43.55095" lon="1.47621">
        <ele>224.856</ele>
        <time>2020-04-01T14:47:48Z</time>
      </trkpt>
      <trkpt lat="43.55091" lon="1.47625">
        <ele>224.781</ele>
        <time>2020-04-01T14:47:53Z</time>
      </trkpt>
      <trkpt lat="43.55086" lon="1.4763">
        <ele>224.695</ele>
        <time>2020-04-01T14:47:59Z</time>
      </trkpt>
      <trkpt lat="43.55081" lon="1.47632">
        <ele>224.625</ele>
        <time>2020-04-01T14:48:04Z</time>
      </trkpt>
      <trkpt lat="43.55076" lon="1.47636">
        <ele>224.542</ele>
        <time>2020-04-01T14:48:10Z</time>
      </trkpt>
      <trkpt lat="43.55072" lon="1.47639">
        <ele>224.475</ele>
        <time>2020-04-01T14:48:15Z</time>
      </trkpt>
      <trkpt lat="43.55066" lon="1.47644">
        <ele>224.399</ele>
        <time>2020-04-01T14:48:21Z</time>
      </trkpt>
      <trkpt lat="43.55061" lon="1.47648">
        <ele>224.324</ele>
        <time>2020-04-01T14:48:27Z</time>
      </trkpt>
      <trkpt lat="43.55057" lon="1.47651">
        <ele>224.267</ele>
        <time>2020-04-01T14:48:32Z</time>
      </trkpt>
      <trkpt lat="43.55052" lon="1.47654">
        <ele>224.213</ele>
        <time>2020-04-01T14:48:37Z</time>
      </trkpt>
      <trkpt lat="43.55048" lon="1.47659">
        <ele>224.149</ele>
        <time>2020-04-01T14:48:43Z</time>
      </trkpt>
      <trkpt lat="43.55045" lon="1.47664">
        <ele>224.097</ele>
        <time>2020-04-01T14:48:48Z</time>
      </trkpt>
      <trkpt lat="43.55041" lon="1.47669">
        <ele>224.036</ele>
        <time>2020-04-01T14:48:54Z</time>
      </trkpt>
      <trkpt lat="43.55037" lon="1.47672">
        <ele>223.978</ele>
        <time>2020-04-01T14:49:00Z</time>
      </trkpt>
      <trkpt lat="43.55035" lon="1.47673">
        <ele>223.938</ele>
        <time>2020-04-01T14:49:05Z</time>
      </trkpt>
      <trkpt lat="43.55037" lon="1.47676">
        <ele>223.891</ele>
        <time>2020-04-01T14:49:10Z</time>
      </trkpt>
      <trkpt lat="43.55038" lon="1.47677">
        <ele>223.868</ele>
        <time>2020-04-01T14:49:15Z</time>
      </trkpt>
      <trkpt lat="43.55038" lon="1.47679">
        <ele>223.85</ele>
        <time>2020-04-01T14:49:21Z</time>
      </trkpt>
      <trkpt lat="43.55037" lon="1.47679">
        <ele>223.829</ele>
        <time>2020-04-01T14:49:26Z</time>
      </trkpt>
      <trkpt lat="43.55037" lon="1.47676">
        <ele>223.782</ele>
        <time>2020-04-01T14:49:32Z</time>
      </trkpt>
      <trkpt lat="43.55039" lon="1.47661">
        <ele>223.286</ele>
        <time>2020-04-01T14:49:42Z</time>
      </trkpt>
      <trkpt lat="43.55043" lon="1.47657">
        <ele>223.2</ele>
        <time>2020-04-01T14:49:48Z</time>
      </trkpt>
    </trkseg>
  </trk>
</gpx>